<?xml version='1.0' encoding='UTF-8'?><gpx version="1.1" creator="JPX - https://github.com/jenetics/jpx" xmlns="http://www.topografix.com/GPX/1/1"><trk><trkseg><trkpt lat="46.02637350017192" lon="11.903348498747192"><ele>282.6</ele><time>2026-04-26T07:06:16.001Z</time></trkpt><trkpt lat="46.02637900980804" lon="11.903512955915957"><ele>282.20000000000005</ele><time>2026-04-26T07:06:32Z</time></trkpt><trkpt lat="46.0263308735482" lon="11.90359356738534"><ele>281.8</ele><time>2026-04-26T07:06:34Z</time></trkpt><trkpt lat="46.02626112925075" lon="11.903583929451823"><ele>281.40000000000003</ele><time>2026-04-26T07:06:36Z</time></trkpt><trkpt lat="46.026183327700544" lon="11.903622266965272"><ele>281.0</ele><time>2026-04-26T07:06:57Z</time></trkpt><trkpt lat="46.02613184806603" lon="11.903765590558658"><ele>281.0</ele><time>2026-04-26T07:06:59Z</time></trkpt><trkpt lat="46.02609397743884" lon="11.903868265547608"><ele>281.0</ele><time>2026-04-26T07:07:00Z</time></trkpt><trkpt lat="46.026059033686536" lon="11.90395818669882"><ele>281.0</ele><time>2026-04-26T07:07:01Z</time></trkpt><trkpt lat="46.025978301779496" lon="11.904099107481255"><ele>281.0</ele><time>2026-04-26T07:07:04Z</time></trkpt><trkpt lat="46.02594668249842" lon="11.90419308517352"><ele>281.0</ele><time>2026-04-26T07:07:08Z</time></trkpt><trkpt lat="46.0260410457115" lon="11.904277168564626"><ele>281.0</ele><time>2026-04-26T07:07:09Z</time></trkpt><trkpt lat="46.026087655131676" lon="11.904355197889311"><ele>281.0</ele><time>2026-04-26T07:07:11Z</time></trkpt><trkpt lat="46.02599567017086" lon="11.90445008749609"><ele>281.0</ele><time>2026-04-26T07:07:15Z</time></trkpt><trkpt lat="46.02594954425695" lon="11.904528939413728"><ele>281.0</ele><time>2026-04-26T07:07:16Z</time></trkpt><trkpt lat="46.02589028251128" lon="11.904588290669393"><ele>281.0</ele><time>2026-04-26T07:07:17Z</time></trkpt><trkpt lat="46.02582433337203" lon="11.904637193809306"><ele>281.0</ele><time>2026-04-26T07:07:19Z</time></trkpt><trkpt lat="46.02570060710011" lon="11.904575604994992"><ele>281.6666666666667</ele><time>2026-04-26T07:07:22Z</time></trkpt><trkpt lat="46.02561664585928" lon="11.904507662235092"><ele>282.33333333333337</ele><time>2026-04-26T07:07:23Z</time></trkpt><trkpt lat="46.02554670096856" lon="11.904448290003824"><ele>283.0</ele><time>2026-04-26T07:07:24Z</time></trkpt><trkpt lat="46.025482060815584" lon="11.904398759616548"><ele>283.6666666666667</ele><time>2026-04-26T07:07:25Z</time></trkpt><trkpt lat="46.02539903312695" lon="11.904368839428459"><ele>284.3333333333333</ele><time>2026-04-26T07:07:26Z</time></trkpt><trkpt lat="46.025298211766255" lon="11.904377349655825"><ele>285.0</ele><time>2026-04-26T07:07:27Z</time></trkpt><trkpt lat="46.02519417242346" lon="11.904406079251626"><ele>285.0</ele><time>2026-04-26T07:07:28Z</time></trkpt><trkpt lat="46.02506853688646" lon="11.904437261500297"><ele>285.0</ele><time>2026-04-26T07:07:29Z</time></trkpt><trkpt lat="46.024926191741976" lon="11.904473232068817"><ele>285.0</ele><time>2026-04-26T07:07:30Z</time></trkpt><trkpt lat="46.02476657961893" lon="11.904519915653433"><ele>285.0</ele><time>2026-04-26T07:07:31Z</time></trkpt><trkpt lat="46.024589794012805" lon="11.904580209509263"><ele>284.3333333333333</ele><time>2026-04-26T07:07:32Z</time></trkpt><trkpt lat="46.02439885874931" lon="11.90463607540061"><ele>283.66666666666663</ele><time>2026-04-26T07:07:33Z</time></trkpt><trkpt lat="46.0242167896207" lon="11.904693235849784"><ele>283.0</ele><time>2026-04-26T07:07:34Z</time></trkpt><trkpt lat="46.024059777463386" lon="11.904742668028922"><ele>282.0</ele><time>2026-04-26T07:07:35Z</time></trkpt><trkpt lat="46.023913520890446" lon="11.904760736347322"><ele>281.0</ele><time>2026-04-26T07:07:36Z</time></trkpt><trkpt lat="46.023780103861654" lon="11.904798737051278"><ele>280.0</ele><time>2026-04-26T07:07:37Z</time></trkpt><trkpt lat="46.02363997312048" lon="11.904838650000364"><ele>279.0</ele><time>2026-04-26T07:07:38Z</time></trkpt><trkpt lat="46.02350512812151" lon="11.90490049042587"><ele>279.0</ele><time>2026-04-26T07:07:38.999Z</time></trkpt><trkpt lat="46.02339035645787" lon="11.904929878592226"><ele>279.0</ele><time>2026-04-26T07:07:39.999Z</time></trkpt><trkpt lat="46.02328006137866" lon="11.904960325116216"><ele>279.0</ele><time>2026-04-26T07:07:40.999Z</time></trkpt><trkpt lat="46.02318269173255" lon="11.904970220935125"><ele>279.0</ele><time>2026-04-26T07:07:41.999Z</time></trkpt><trkpt lat="46.02309058414494" lon="11.904999590368522"><ele>279.0</ele><time>2026-04-26T07:07:42.999Z</time></trkpt><trkpt lat="46.022995016399975" lon="11.905027133788652"><ele>279.0</ele><time>2026-04-26T07:07:43.999Z</time></trkpt><trkpt lat="46.02290375018135" lon="11.905049352635828"><ele>279.0</ele><time>2026-04-26T07:07:44.999Z</time></trkpt><trkpt lat="46.02281829033289" lon="11.905068091670872"><ele>279.0</ele><time>2026-04-26T07:07:45.999Z</time></trkpt><trkpt lat="46.02274174150808" lon="11.90503619824396"><ele>279.0</ele><time>2026-04-26T07:07:46.999Z</time></trkpt><trkpt lat="46.02267977479629" lon="11.904992797115053"><ele>279.0</ele><time>2026-04-26T07:07:47.999Z</time></trkpt><trkpt lat="46.02255178113017" lon="11.904923686217348"><ele>278.1666666666667</ele><time>2026-04-26T07:07:49.999Z</time></trkpt><trkpt lat="46.02248034058435" lon="11.904875763692672"><ele>277.3333333333333</ele><time>2026-04-26T07:07:50.999Z</time></trkpt><trkpt lat="46.022408526092526" lon="11.904899795739405"><ele>276.5</ele><time>2026-04-26T07:07:51.999Z</time></trkpt><trkpt lat="46.022333980580136" lon="11.904905976289498"><ele>275.66666666666663</ele><time>2026-04-26T07:07:52.999Z</time></trkpt><trkpt lat="46.022255442784996" lon="11.904938739471264"><ele>274.8333333333333</ele><time>2026-04-26T07:07:53.999Z</time></trkpt><trkpt lat="46.02217197413909" lon="11.904965794245802"><ele>274.0</ele><time>2026-04-26T07:07:54.999Z</time></trkpt><trkpt lat="46.02209157006232" lon="11.904984323897905"><ele>274.0</ele><time>2026-04-26T07:07:55.999Z</time></trkpt><trkpt lat="46.02202796404964" lon="11.905003757099097"><ele>274.0</ele><time>2026-04-26T07:07:56.999Z</time></trkpt><trkpt lat="46.02192695549794" lon="11.905023602722933"><ele>274.0</ele><time>2026-04-26T07:07:58.999Z</time></trkpt><trkpt lat="46.02184421604724" lon="11.905047141831036"><ele>274.0</ele><time>2026-04-26T07:08:00.999Z</time></trkpt><trkpt lat="46.02176757644303" lon="11.905062960316172"><ele>274.0</ele><time>2026-04-26T07:08:02.999Z</time></trkpt><trkpt lat="46.02169715821064" lon="11.905056895266709"><ele>274.0</ele><time>2026-04-26T07:08:20Z</time></trkpt><trkpt lat="46.021611089190976" lon="11.905023699669082"><ele>274.0</ele><time>2026-04-26T07:08:22Z</time></trkpt><trkpt lat="46.02149972365924" lon="11.905022099059817"><ele>274.0</ele><time>2026-04-26T07:08:24Z</time></trkpt><trkpt lat="46.02145505011095" lon="11.905159664183667"><ele>274.0</ele><time>2026-04-26T07:08:26Z</time></trkpt><trkpt lat="46.02150636975939" lon="11.905334158097522"><ele>274.0</ele><time>2026-04-26T07:08:28Z</time></trkpt><trkpt lat="46.02152725666635" lon="11.90543610394612"><ele>274.0</ele><time>2026-04-26T07:08:29Z</time></trkpt><trkpt lat="46.02153022493824" lon="11.905559994626488"><ele>274.0</ele><time>2026-04-26T07:08:30Z</time></trkpt><trkpt lat="46.021534969054116" lon="11.905709323873582"><ele>274.0</ele><time>2026-04-26T07:08:31Z</time></trkpt><trkpt lat="46.02154774031349" lon="11.905889650122152"><ele>274.0</ele><time>2026-04-26T07:08:32Z</time></trkpt><trkpt lat="46.02155664711782" lon="11.9060663979239"><ele>274.0</ele><time>2026-04-26T07:08:33Z</time></trkpt><trkpt lat="46.0215688779719" lon="11.906255771017452"><ele>273.75</ele><time>2026-04-26T07:08:34Z</time></trkpt><trkpt lat="46.021581827728596" lon="11.906458249416213"><ele>273.5</ele><time>2026-04-26T07:08:35Z</time></trkpt><trkpt lat="46.02160137954064" lon="11.906644912779386"><ele>273.25</ele><time>2026-04-26T07:08:36Z</time></trkpt><trkpt lat="46.02162805137361" lon="11.906826643147912"><ele>273.0</ele><time>2026-04-26T07:08:37Z</time></trkpt><trkpt lat="46.02166129233446" lon="11.907020405740429"><ele>273.0</ele><time>2026-04-26T07:08:38Z</time></trkpt><trkpt lat="46.021696150154646" lon="11.907221388242371"><ele>273.0</ele><time>2026-04-26T07:08:39Z</time></trkpt><trkpt lat="46.0217359600046" lon="11.90743867078521"><ele>273.0</ele><time>2026-04-26T07:08:40Z</time></trkpt><trkpt lat="46.02178891820724" lon="11.907675206714194"><ele>273.0</ele><time>2026-04-26T07:08:41Z</time></trkpt><trkpt lat="46.021842370684844" lon="11.907902773864029"><ele>273.0</ele><time>2026-04-26T07:08:42Z</time></trkpt><trkpt lat="46.02189905070644" lon="11.90814379709058"><ele>273.0</ele><time>2026-04-26T07:08:43Z</time></trkpt><trkpt lat="46.02195785242504" lon="11.908408674602809"><ele>273.3333333333333</ele><time>2026-04-26T07:08:44Z</time></trkpt><trkpt lat="46.02201319659577" lon="11.908660790351188"><ele>273.66666666666663</ele><time>2026-04-26T07:08:45Z</time></trkpt><trkpt lat="46.02206577984429" lon="11.908889344628518"><ele>274.0</ele><time>2026-04-26T07:08:46Z</time></trkpt><trkpt lat="46.02212452271516" lon="11.909141521716936"><ele>274.3333333333333</ele><time>2026-04-26T07:08:47Z</time></trkpt><trkpt lat="46.02219150618658" lon="11.909420122092602"><ele>274.6666666666667</ele><time>2026-04-26T07:08:48Z</time></trkpt><trkpt lat="46.022249953139394" lon="11.909674058962228"><ele>275.0</ele><time>2026-04-26T07:08:49Z</time></trkpt><trkpt lat="46.02230104554678" lon="11.90990449487605"><ele>275.33333333333337</ele><time>2026-04-26T07:08:50Z</time></trkpt><trkpt lat="46.02235087142629" lon="11.910141601582652"><ele>275.6666666666667</ele><time>2026-04-26T07:08:51Z</time></trkpt><trkpt lat="46.02240076596237" lon="11.910371824928827"><ele>276.0</ele><time>2026-04-26T07:08:52Z</time></trkpt><trkpt lat="46.022446923349314" lon="11.910586467997568"><ele>276.3333333333333</ele><time>2026-04-26T07:08:53Z</time></trkpt><trkpt lat="46.02248490649894" lon="11.910807823682797"><ele>276.66666666666663</ele><time>2026-04-26T07:08:54Z</time></trkpt><trkpt lat="46.022515398850395" lon="11.911038943824263"><ele>277.0</ele><time>2026-04-26T07:08:55Z</time></trkpt><trkpt lat="46.02254253816933" lon="11.911260003799077"><ele>277.0</ele><time>2026-04-26T07:08:56Z</time></trkpt><trkpt lat="46.02255992915386" lon="11.911458005027923"><ele>277.0</ele><time>2026-04-26T07:08:57Z</time></trkpt><trkpt lat="46.022569186435014" lon="11.911635893022359"><ele>277.0</ele><time>2026-04-26T07:08:58Z</time></trkpt><trkpt lat="46.02257789048593" lon="11.911790866739224"><ele>277.0</ele><time>2026-04-26T07:08:59Z</time></trkpt><trkpt lat="46.02258402662047" lon="11.911931687976733"><ele>277.0</ele><time>2026-04-26T07:09:00Z</time></trkpt><trkpt lat="46.02258672610659" lon="11.912052507670388"><ele>277.0</ele><time>2026-04-26T07:09:01Z</time></trkpt><trkpt lat="46.02258558043644" lon="11.912154062430725"><ele>277.0</ele><time>2026-04-26T07:09:02Z</time></trkpt><trkpt lat="46.02256720145574" lon="11.912248651669042"><ele>277.0</ele><time>2026-04-26T07:09:04Z</time></trkpt><trkpt lat="46.02253160293619" lon="11.912397928854459"><ele>277.0</ele><time>2026-04-26T07:09:10Z</time></trkpt><trkpt lat="46.022561833426415" lon="11.912592420681158"><ele>276.66666666666663</ele><time>2026-04-26T07:09:12Z</time></trkpt><trkpt lat="46.02258262004275" lon="11.912691666447255"><ele>276.3333333333333</ele><time>2026-04-26T07:09:13Z</time></trkpt><trkpt lat="46.02260558869052" lon="11.912789258051127"><ele>276.0</ele><time>2026-04-26T07:09:14Z</time></trkpt><trkpt lat="46.02262356260263" lon="11.91288492320241"><ele>275.6666666666667</ele><time>2026-04-26T07:09:15Z</time></trkpt><trkpt lat="46.02263375569359" lon="11.912989081962179"><ele>275.33333333333337</ele><time>2026-04-26T07:09:16Z</time></trkpt><trkpt lat="46.02264217950669" lon="11.913103582072358"><ele>275.0</ele><time>2026-04-26T07:09:17Z</time></trkpt><trkpt lat="46.02264999734495" lon="11.913224428208913"><ele>275.0</ele><time>2026-04-26T07:09:18Z</time></trkpt><trkpt lat="46.02265523485875" lon="11.913361438170648"><ele>275.0</ele><time>2026-04-26T07:09:19Z</time></trkpt><trkpt lat="46.02266202477658" lon="11.913509348471873"><ele>275.0</ele><time>2026-04-26T07:09:20Z</time></trkpt><trkpt lat="46.022670458115165" lon="11.913669203624726"><ele>275.0</ele><time>2026-04-26T07:09:21Z</time></trkpt><trkpt lat="46.022679566978" lon="11.913833497054316"><ele>275.0</ele><time>2026-04-26T07:09:22Z</time></trkpt><trkpt lat="46.02268792625393" lon="11.91399984954521"><ele>275.0</ele><time>2026-04-26T07:09:23Z</time></trkpt><trkpt lat="46.02269605920638" lon="11.91417260197029"><ele>275.0</ele><time>2026-04-26T07:09:24Z</time></trkpt><trkpt lat="46.022704150717225" lon="11.914347453932349"><ele>275.0</ele><time>2026-04-26T07:09:25Z</time></trkpt><trkpt lat="46.022709427604354" lon="11.914511352759774"><ele>275.0</ele><time>2026-04-26T07:09:26Z</time></trkpt><trkpt lat="46.02271643623119" lon="11.914685025161893"><ele>275.0</ele><time>2026-04-26T07:09:27Z</time></trkpt><trkpt lat="46.02272403597992" lon="11.914866916958923"><ele>275.0</ele><time>2026-04-26T07:09:28Z</time></trkpt><trkpt lat="46.02273207339303" lon="11.915054314714737"><ele>275.0</ele><time>2026-04-26T07:09:29Z</time></trkpt><trkpt lat="46.02274032708432" lon="11.915216831727644"><ele>275.0</ele><time>2026-04-26T07:09:30Z</time></trkpt><trkpt lat="46.02275048784549" lon="11.91543239593641"><ele>275.75</ele><time>2026-04-26T07:09:31Z</time></trkpt><trkpt lat="46.02276001111831" lon="11.915623672283207"><ele>276.5</ele><time>2026-04-26T07:09:32Z</time></trkpt><trkpt lat="46.02276733394389" lon="11.915814174857552"><ele>277.25</ele><time>2026-04-26T07:09:33Z</time></trkpt><trkpt lat="46.02277402827458" lon="11.916011803463764"><ele>278.0</ele><time>2026-04-26T07:09:34Z</time></trkpt><trkpt lat="46.02278330585473" lon="11.916223332465638"><ele>279.6666666666667</ele><time>2026-04-26T07:09:35Z</time></trkpt><trkpt lat="46.02279377144248" lon="11.916451264606978"><ele>281.3333333333333</ele><time>2026-04-26T07:09:36Z</time></trkpt><trkpt lat="46.02280496024921" lon="11.916721292682528"><ele>283.0</ele><time>2026-04-26T07:09:37Z</time></trkpt><trkpt lat="46.02281862105777" lon="11.916999456389984"><ele>284.0</ele><time>2026-04-26T07:09:38Z</time></trkpt><trkpt lat="46.02282450223711" lon="11.9172592374054"><ele>285.0</ele><time>2026-04-26T07:09:39Z</time></trkpt><trkpt lat="46.02283605876546" lon="11.917499779917744"><ele>286.0</ele><time>2026-04-26T07:09:40Z</time></trkpt><trkpt lat="46.022851869477954" lon="11.917768057570724"><ele>286.3333333333333</ele><time>2026-04-26T07:09:41Z</time></trkpt><trkpt lat="46.02285963478844" lon="11.9180441502437"><ele>286.6666666666667</ele><time>2026-04-26T07:09:41.999Z</time></trkpt><trkpt lat="46.02287116326936" lon="11.918283385681368"><ele>287.0</ele><time>2026-04-26T07:09:42.999Z</time></trkpt><trkpt lat="46.02288219418931" lon="11.918505427854175"><ele>288.33333333333337</ele><time>2026-04-26T07:09:43.999Z</time></trkpt><trkpt lat="46.02289280450316" lon="11.91873599995854"><ele>289.6666666666667</ele><time>2026-04-26T07:09:44.999Z</time></trkpt><trkpt lat="46.02290407889292" lon="11.91897458213929"><ele>291.0</ele><time>2026-04-26T07:09:45.999Z</time></trkpt><trkpt lat="46.02291629458372" lon="11.919225350509903"><ele>291.75</ele><time>2026-04-26T07:09:46.999Z</time></trkpt><trkpt lat="46.02292609830366" lon="11.919460016166754"><ele>292.5</ele><time>2026-04-26T07:09:47.999Z</time></trkpt><trkpt lat="46.02293438251836" lon="11.919663332061582"><ele>293.25</ele><time>2026-04-26T07:09:48.999Z</time></trkpt><trkpt lat="46.02294346572629" lon="11.919848182977866"><ele>294.0</ele><time>2026-04-26T07:09:49.999Z</time></trkpt><trkpt lat="46.02294854554057" lon="11.920016464666807"><ele>293.8</ele><time>2026-04-26T07:09:50.999Z</time></trkpt><trkpt lat="46.022957219653456" lon="11.9201783029757"><ele>293.59999999999997</ele><time>2026-04-26T07:09:51.999Z</time></trkpt><trkpt lat="46.02296344384839" lon="11.920326052956273"><ele>293.4</ele><time>2026-04-26T07:09:52.999Z</time></trkpt><trkpt lat="46.022970576953014" lon="11.920466632648374"><ele>293.2</ele><time>2026-04-26T07:09:53.999Z</time></trkpt><trkpt lat="46.02297899546905" lon="11.920608055507364"><ele>293.0</ele><time>2026-04-26T07:09:54.999Z</time></trkpt><trkpt lat="46.02298037325726" lon="11.920736957863301"><ele>293.0</ele><time>2026-04-26T07:09:55.999Z</time></trkpt><trkpt lat="46.02298153884125" lon="11.92084916173981"><ele>293.0</ele><time>2026-04-26T07:09:56.999Z</time></trkpt><trkpt lat="46.02296223070012" lon="11.920960848222732"><ele>293.0</ele><time>2026-04-26T07:09:57.999Z</time></trkpt><trkpt lat="46.02290281529497" lon="11.921067433190645"><ele>293.0</ele><time>2026-04-26T07:09:58.999Z</time></trkpt><trkpt lat="46.022835015902224" lon="11.921143938783285"><ele>293.0</ele><time>2026-04-26T07:09:59.999Z</time></trkpt><trkpt lat="46.02279833319484" lon="11.921233607322085"><ele>293.0</ele><time>2026-04-26T07:10:00.999Z</time></trkpt><trkpt lat="46.02278482769953" lon="11.92133929866293"><ele>293.0</ele><time>2026-04-26T07:10:01.999Z</time></trkpt><trkpt lat="46.0228012656973" lon="11.92144249395733"><ele>293.0</ele><time>2026-04-26T07:10:02.999Z</time></trkpt><trkpt lat="46.022843566700125" lon="11.92153478334244"><ele>293.0</ele><time>2026-04-26T07:10:03.999Z</time></trkpt><trkpt lat="46.02290039005104" lon="11.921614882674264"><ele>293.0</ele><time>2026-04-26T07:10:04.999Z</time></trkpt><trkpt lat="46.022957138248834" lon="11.921699391265953"><ele>293.0</ele><time>2026-04-26T07:10:05.999Z</time></trkpt><trkpt lat="46.023010827686896" lon="11.921792387794568"><ele>293.0</ele><time>2026-04-26T07:10:06.999Z</time></trkpt><trkpt lat="46.02306790966181" lon="11.92189861534441"><ele>293.0</ele><time>2026-04-26T07:10:07.999Z</time></trkpt><trkpt lat="46.02311748039686" lon="11.922024581988605"><ele>293.0</ele><time>2026-04-26T07:10:08.999Z</time></trkpt><trkpt lat="46.02317011565372" lon="11.92215825781808"><ele>293.0</ele><time>2026-04-26T07:10:09.999Z</time></trkpt><trkpt lat="46.02321432380445" lon="11.92227718907571"><ele>293.0</ele><time>2026-04-26T07:10:10.999Z</time></trkpt><trkpt lat="46.023262528287745" lon="11.922404106593609"><ele>293.0</ele><time>2026-04-26T07:10:11.999Z</time></trkpt><trkpt lat="46.023312704696444" lon="11.922535333541148"><ele>293.5</ele><time>2026-04-26T07:10:12.999Z</time></trkpt><trkpt lat="46.02336850274078" lon="11.922675598780282"><ele>294.0</ele><time>2026-04-26T07:10:13.999Z</time></trkpt><trkpt lat="46.023428204124585" lon="11.92282154163216"><ele>294.5</ele><time>2026-04-26T07:10:14.999Z</time></trkpt><trkpt lat="46.02348986422422" lon="11.922979595428302"><ele>295.0</ele><time>2026-04-26T07:10:15.999Z</time></trkpt><trkpt lat="46.02355586199858" lon="11.92313346307503"><ele>295.0</ele><time>2026-04-26T07:10:17Z</time></trkpt><trkpt lat="46.02362282930533" lon="11.923292634736505"><ele>295.0</ele><time>2026-04-26T07:10:18Z</time></trkpt><trkpt lat="46.023691568819864" lon="11.923454650696076"><ele>295.0</ele><time>2026-04-26T07:10:19Z</time></trkpt><trkpt lat="46.02376990640072" lon="11.92361087745099"><ele>295.0</ele><time>2026-04-26T07:10:20Z</time></trkpt><trkpt lat="46.023853093244824" lon="11.923759558162661"><ele>295.5</ele><time>2026-04-26T07:10:21Z</time></trkpt><trkpt lat="46.023940375971065" lon="11.923908169485266"><ele>296.0</ele><time>2026-04-26T07:10:22Z</time></trkpt><trkpt lat="46.02401009279477" lon="11.92405564171969"><ele>296.5</ele><time>2026-04-26T07:10:23Z</time></trkpt><trkpt lat="46.02408049467471" lon="11.924180452027635"><ele>297.0</ele><time>2026-04-26T07:10:24Z</time></trkpt><trkpt lat="46.024157423505805" lon="11.924306098785605"><ele>297.0</ele><time>2026-04-26T07:10:25Z</time></trkpt><trkpt lat="46.02423830961966" lon="11.92443888461459"><ele>297.0</ele><time>2026-04-26T07:10:26Z</time></trkpt><trkpt lat="46.02432930215001" lon="11.92458719218668"><ele>297.0</ele><time>2026-04-26T07:10:27Z</time></trkpt><trkpt lat="46.02443013132511" lon="11.924766457461097"><ele>297.0</ele><time>2026-04-26T07:10:28Z</time></trkpt><trkpt lat="46.02453722932366" lon="11.924967038264079"><ele>298.0</ele><time>2026-04-26T07:10:29Z</time></trkpt><trkpt lat="46.02464233877554" lon="11.925147708224076"><ele>299.0</ele><time>2026-04-26T07:10:30Z</time></trkpt><trkpt lat="46.024740429725504" lon="11.925327768743351"><ele>300.0</ele><time>2026-04-26T07:10:31Z</time></trkpt><trkpt lat="46.02483459989473" lon="11.925518516014298"><ele>300.0</ele><time>2026-04-26T07:10:32Z</time></trkpt><trkpt lat="46.024921121973634" lon="11.925712716557033"><ele>300.0</ele><time>2026-04-26T07:10:33Z</time></trkpt><trkpt lat="46.025008048184404" lon="11.925908776950438"><ele>300.0</ele><time>2026-04-26T07:10:34Z</time></trkpt><trkpt lat="46.025088577503766" lon="11.926104159017017"><ele>299.75</ele><time>2026-04-26T07:10:35Z</time></trkpt><trkpt lat="46.02516353565358" lon="11.926284046784385"><ele>299.5</ele><time>2026-04-26T07:10:36Z</time></trkpt><trkpt lat="46.025232360214915" lon="11.926469292304265"><ele>299.25</ele><time>2026-04-26T07:10:37Z</time></trkpt><trkpt lat="46.02530431844409" lon="11.92666048836847"><ele>299.0</ele><time>2026-04-26T07:10:38Z</time></trkpt><trkpt lat="46.02537242061021" lon="11.926853489688755"><ele>300.0</ele><time>2026-04-26T07:10:39Z</time></trkpt><trkpt lat="46.02542826715335" lon="11.92701861840071"><ele>301.0</ele><time>2026-04-26T07:10:40Z</time></trkpt><trkpt lat="46.02548214243943" lon="11.927194534844963"><ele>302.0</ele><time>2026-04-26T07:10:41Z</time></trkpt><trkpt lat="46.02553620909204" lon="11.92737821231646"><ele>303.0</ele><time>2026-04-26T07:10:42Z</time></trkpt><trkpt lat="46.02559488277167" lon="11.927562935725058"><ele>304.0</ele><time>2026-04-26T07:10:43Z</time></trkpt><trkpt lat="46.02565579604771" lon="11.927758026872592"><ele>305.0</ele><time>2026-04-26T07:10:44Z</time></trkpt><trkpt lat="46.02571623623704" lon="11.927956015449091"><ele>306.0</ele><time>2026-04-26T07:10:45Z</time></trkpt><trkpt lat="46.02577833155431" lon="11.928162271644984"><ele>304.3333333333333</ele><time>2026-04-26T07:10:46Z</time></trkpt><trkpt lat="46.02584166514515" lon="11.928364942566711"><ele>302.66666666666663</ele><time>2026-04-26T07:10:47Z</time></trkpt><trkpt lat="46.02591125025739" lon="11.928577359472893"><ele>301.0</ele><time>2026-04-26T07:10:48Z</time></trkpt><trkpt lat="46.02596825340508" lon="11.928786910207387"><ele>301.0</ele><time>2026-04-26T07:10:49Z</time></trkpt><trkpt lat="46.02602913097266" lon="11.9289986047471"><ele>301.0</ele><time>2026-04-26T07:10:50Z</time></trkpt><trkpt lat="46.02609157891776" lon="11.929206832987283"><ele>301.0</ele><time>2026-04-26T07:10:51Z</time></trkpt><trkpt lat="46.026150354697585" lon="11.929413799851863"><ele>303.3333333333333</ele><time>2026-04-26T07:10:52Z</time></trkpt><trkpt lat="46.02620818875419" lon="11.929620057984115"><ele>305.6666666666667</ele><time>2026-04-26T07:10:53Z</time></trkpt><trkpt lat="46.026260816063854" lon="11.929827869428253"><ele>308.0</ele><time>2026-04-26T07:10:54Z</time></trkpt><trkpt lat="46.026308670102246" lon="11.930037803503762"><ele>309.6666666666667</ele><time>2026-04-26T07:10:55Z</time></trkpt><trkpt lat="46.02635663809607" lon="11.930251450583741"><ele>311.3333333333333</ele><time>2026-04-26T07:10:56Z</time></trkpt><trkpt lat="46.026400448131206" lon="11.930465197065683"><ele>313.0</ele><time>2026-04-26T07:10:57Z</time></trkpt><trkpt lat="46.02644078025497" lon="11.930681527105447"><ele>314.66666666666663</ele><time>2026-04-26T07:10:58Z</time></trkpt><trkpt lat="46.02647470327224" lon="11.930901481859346"><ele>316.3333333333333</ele><time>2026-04-26T07:10:59Z</time></trkpt><trkpt lat="46.02650582090766" lon="11.931128746653693"><ele>318.0</ele><time>2026-04-26T07:11:00Z</time></trkpt><trkpt lat="46.02653478809104" lon="11.93135384215937"><ele>318.0</ele><time>2026-04-26T07:11:01Z</time></trkpt><trkpt lat="46.02655987306982" lon="11.93158168128337"><ele>318.0</ele><time>2026-04-26T07:11:02Z</time></trkpt><trkpt lat="46.02657847342182" lon="11.931811708105734"><ele>318.0</ele><time>2026-04-26T07:11:03Z</time></trkpt><trkpt lat="46.02659195900816" lon="11.93204324509421"><ele>318.3333333333333</ele><time>2026-04-26T07:11:04Z</time></trkpt><trkpt lat="46.026605979690274" lon="11.932275598897228"><ele>318.66666666666663</ele><time>2026-04-26T07:11:05Z</time></trkpt><trkpt lat="46.026623303975846" lon="11.932507928803961"><ele>319.0</ele><time>2026-04-26T07:11:06Z</time></trkpt><trkpt lat="46.026637927742975" lon="11.932750807272098"><ele>314.66666666666663</ele><time>2026-04-26T07:11:07Z</time></trkpt><trkpt lat="46.026648217066146" lon="11.932991497069633"><ele>310.3333333333333</ele><time>2026-04-26T07:11:08Z</time></trkpt><trkpt lat="46.02666006593841" lon="11.933233616337889"><ele>306.0</ele><time>2026-04-26T07:11:09Z</time></trkpt><trkpt lat="46.02667296495564" lon="11.93346376324283"><ele>306.0</ele><time>2026-04-26T07:11:10Z</time></trkpt><trkpt lat="46.02668413508226" lon="11.933700228683824"><ele>306.0</ele><time>2026-04-26T07:11:11Z</time></trkpt><trkpt lat="46.026700830766316" lon="11.933938409148938"><ele>306.0</ele><time>2026-04-26T07:11:12Z</time></trkpt><trkpt lat="46.02671734134632" lon="11.934176572337575"><ele>306.6666666666667</ele><time>2026-04-26T07:11:13Z</time></trkpt><trkpt lat="46.0267379437389" lon="11.934418768310826"><ele>307.33333333333337</ele><time>2026-04-26T07:11:14Z</time></trkpt><trkpt lat="46.026769803088584" lon="11.934663746555602"><ele>308.0</ele><time>2026-04-26T07:11:15Z</time></trkpt><trkpt lat="46.02679824256399" lon="11.93490130115368"><ele>308.0</ele><time>2026-04-26T07:11:16Z</time></trkpt><trkpt lat="46.02682917366204" lon="11.935126480389568"><ele>308.0</ele><time>2026-04-26T07:11:17Z</time></trkpt><trkpt lat="46.0268668598868" lon="11.935338616743449"><ele>308.0</ele><time>2026-04-26T07:11:18Z</time></trkpt><trkpt lat="46.026913503716926" lon="11.93555766873458"><ele>308.0</ele><time>2026-04-26T07:11:19Z</time></trkpt><trkpt lat="46.02696684641051" lon="11.935799684945437"><ele>308.0</ele><time>2026-04-26T07:11:20Z</time></trkpt><trkpt lat="46.027014307476776" lon="11.936051050307452"><ele>308.0</ele><time>2026-04-26T07:11:21Z</time></trkpt><trkpt lat="46.0270643528776" lon="11.936312887480918"><ele>310.33333333333337</ele><time>2026-04-26T07:11:22Z</time></trkpt><trkpt lat="46.0271140253596" lon="11.936572865134131"><ele>312.6666666666667</ele><time>2026-04-26T07:11:23Z</time></trkpt><trkpt lat="46.02716723292224" lon="11.936842900006956"><ele>315.0</ele><time>2026-04-26T07:11:24Z</time></trkpt><trkpt lat="46.027227337894" lon="11.937129415200012"><ele>315.3333333333333</ele><time>2026-04-26T07:11:25Z</time></trkpt><trkpt lat="46.02727846805995" lon="11.937402210734325"><ele>315.66666666666663</ele><time>2026-04-26T07:11:26Z</time></trkpt><trkpt lat="46.02732797774847" lon="11.937667880866798"><ele>316.0</ele><time>2026-04-26T07:11:27Z</time></trkpt><trkpt lat="46.02737954249112" lon="11.937938983153918"><ele>314.66666666666663</ele><time>2026-04-26T07:11:28Z</time></trkpt><trkpt lat="46.02743217063521" lon="11.938211509449971"><ele>313.3333333333333</ele><time>2026-04-26T07:11:29Z</time></trkpt><trkpt lat="46.027488641322776" lon="11.938491563283579"><ele>312.0</ele><time>2026-04-26T07:11:30Z</time></trkpt><trkpt lat="46.027545929369694" lon="11.93876670680178"><ele>309.6666666666667</ele><time>2026-04-26T07:11:31Z</time></trkpt><trkpt lat="46.02760991532154" lon="11.939039569917401"><ele>307.33333333333337</ele><time>2026-04-26T07:11:32Z</time></trkpt><trkpt lat="46.027682335444936" lon="11.939306658710256"><ele>305.0</ele><time>2026-04-26T07:11:33Z</time></trkpt><trkpt lat="46.027762676100245" lon="11.939579247235576"><ele>305.0</ele><time>2026-04-26T07:11:34Z</time></trkpt><trkpt lat="46.0278431201223" lon="11.939854914000342"><ele>305.0</ele><time>2026-04-26T07:11:35Z</time></trkpt><trkpt lat="46.0279232642994" lon="11.940129876938576"><ele>305.0</ele><time>2026-04-26T07:11:35.999Z</time></trkpt><trkpt lat="46.028004511779706" lon="11.940406215418001"><ele>306.6666666666667</ele><time>2026-04-26T07:11:36.999Z</time></trkpt><trkpt lat="46.028086019627715" lon="11.940700175753715"><ele>308.3333333333333</ele><time>2026-04-26T07:11:37.999Z</time></trkpt><trkpt lat="46.0281674860241" lon="11.94098827996293"><ele>310.0</ele><time>2026-04-26T07:11:38.999Z</time></trkpt><trkpt lat="46.02825136006516" lon="11.941269233992081"><ele>310.3333333333333</ele><time>2026-04-26T07:11:39.999Z</time></trkpt><trkpt lat="46.02832954181017" lon="11.941539666973199"><ele>310.6666666666667</ele><time>2026-04-26T07:11:40.999Z</time></trkpt><trkpt lat="46.028405548804606" lon="11.941811387693077"><ele>311.0</ele><time>2026-04-26T07:11:41.999Z</time></trkpt><trkpt lat="46.028482882431874" lon="11.942080837306028"><ele>312.33333333333337</ele><time>2026-04-26T07:11:42.999Z</time></trkpt><trkpt lat="46.02855974332835" lon="11.942345688175584"><ele>313.6666666666667</ele><time>2026-04-26T07:11:43.999Z</time></trkpt><trkpt lat="46.02863099385528" lon="11.942598190697362"><ele>315.0</ele><time>2026-04-26T07:11:44.999Z</time></trkpt><trkpt lat="46.0287001744785" lon="11.94285339467266"><ele>315.0</ele><time>2026-04-26T07:11:45.999Z</time></trkpt><trkpt lat="46.02877229533342" lon="11.943105935866585"><ele>315.0</ele><time>2026-04-26T07:11:46.999Z</time></trkpt><trkpt lat="46.02884707907528" lon="11.943362224454555"><ele>315.0</ele><time>2026-04-26T07:11:47.999Z</time></trkpt><trkpt lat="46.028923830705025" lon="11.943621082890765"><ele>315.3333333333333</ele><time>2026-04-26T07:11:48.999Z</time></trkpt><trkpt lat="46.02899221388056" lon="11.943864799329829"><ele>315.66666666666663</ele><time>2026-04-26T07:11:49.999Z</time></trkpt><trkpt lat="46.0290648978872" lon="11.944108594697461"><ele>316.0</ele><time>2026-04-26T07:11:50.999Z</time></trkpt><trkpt lat="46.029129723504056" lon="11.944360936404767"><ele>315.66666666666663</ele><time>2026-04-26T07:11:51.999Z</time></trkpt><trkpt lat="46.02919543274894" lon="11.944618054623962"><ele>315.3333333333333</ele><time>2026-04-26T07:11:52.999Z</time></trkpt><trkpt lat="46.02925825793328" lon="11.944887683290846"><ele>315.0</ele><time>2026-04-26T07:11:53.999Z</time></trkpt><trkpt lat="46.02931394981503" lon="11.945162892085236"><ele>314.6666666666667</ele><time>2026-04-26T07:11:54.999Z</time></trkpt><trkpt lat="46.02936423027721" lon="11.945441026811755"><ele>314.33333333333337</ele><time>2026-04-26T07:11:55.999Z</time></trkpt><trkpt lat="46.02941764809646" lon="11.945721885831887"><ele>314.0</ele><time>2026-04-26T07:11:56.999Z</time></trkpt><trkpt lat="46.029470677090934" lon="11.945997077754638"><ele>314.0</ele><time>2026-04-26T07:11:57.999Z</time></trkpt><trkpt lat="46.029511378152144" lon="11.946257007639892"><ele>314.0</ele><time>2026-04-26T07:11:58.999Z</time></trkpt><trkpt lat="46.029571121976325" lon="11.946526826830059"><ele>314.0</ele><time>2026-04-26T07:11:59.999Z</time></trkpt><trkpt lat="46.02962230870199" lon="11.946797216457785"><ele>313.6666666666667</ele><time>2026-04-26T07:12:00.999Z</time></trkpt><trkpt lat="46.02967106830978" lon="11.947066440460517"><ele>313.3333333333333</ele><time>2026-04-26T07:12:01.999Z</time></trkpt><trkpt lat="46.02971887745235" lon="11.947331037869223"><ele>313.0</ele><time>2026-04-26T07:12:02.999Z</time></trkpt><trkpt lat="46.029766820351924" lon="11.947597092260144"><ele>312.0</ele><time>2026-04-26T07:12:03.999Z</time></trkpt><trkpt lat="46.02981629881309" lon="11.94785858604968"><ele>311.0</ele><time>2026-04-26T07:12:04.999Z</time></trkpt><trkpt lat="46.029868387216865" lon="11.948128713314455"><ele>310.0</ele><time>2026-04-26T07:12:05.999Z</time></trkpt><trkpt lat="46.0299210259027" lon="11.948399294326054"><ele>309.3333333333333</ele><time>2026-04-26T07:12:06.999Z</time></trkpt><trkpt lat="46.02996953889954" lon="11.948671997082725"><ele>308.6666666666667</ele><time>2026-04-26T07:12:07.999Z</time></trkpt><trkpt lat="46.03001334405112" lon="11.948935635251468"><ele>308.0</ele><time>2026-04-26T07:12:08.999Z</time></trkpt><trkpt lat="46.03005521154138" lon="11.94919770151919"><ele>308.33333333333337</ele><time>2026-04-26T07:12:09.999Z</time></trkpt><trkpt lat="46.030108045878926" lon="11.949453354269187"><ele>308.6666666666667</ele><time>2026-04-26T07:12:10.999Z</time></trkpt><trkpt lat="46.03015878578503" lon="11.94971592859748"><ele>309.0</ele><time>2026-04-26T07:12:11.999Z</time></trkpt><trkpt lat="46.03020835912121" lon="11.949976986361357"><ele>308.3333333333333</ele><time>2026-04-26T07:12:12.999Z</time></trkpt><trkpt lat="46.030258177829076" lon="11.950240116489471"><ele>307.66666666666663</ele><time>2026-04-26T07:12:13.999Z</time></trkpt><trkpt lat="46.0303071088382" lon="11.950503842691141"><ele>307.0</ele><time>2026-04-26T07:12:14.999Z</time></trkpt><trkpt lat="46.03035329261676" lon="11.950765514880164"><ele>307.0</ele><time>2026-04-26T07:12:15.999Z</time></trkpt><trkpt lat="46.030394984103225" lon="11.951013441770744"><ele>307.0</ele><time>2026-04-26T07:12:16.999Z</time></trkpt><trkpt lat="46.030444926719795" lon="11.951259974666842"><ele>307.0</ele><time>2026-04-26T07:12:17.999Z</time></trkpt><trkpt lat="46.03049435016203" lon="11.951509530690748"><ele>306.0</ele><time>2026-04-26T07:12:18.999Z</time></trkpt><trkpt lat="46.03054098920496" lon="11.951764089348684"><ele>305.0</ele><time>2026-04-26T07:12:19.999Z</time></trkpt><trkpt lat="46.030583854816186" lon="11.952023795836855"><ele>304.0</ele><time>2026-04-26T07:12:20.999Z</time></trkpt><trkpt lat="46.0306215359212" lon="11.952289421503727"><ele>303.66666666666663</ele><time>2026-04-26T07:12:21.999Z</time></trkpt><trkpt lat="46.03065593055871" lon="11.952555636758838"><ele>303.3333333333333</ele><time>2026-04-26T07:12:23Z</time></trkpt><trkpt lat="46.030681376818926" lon="11.952812449599792"><ele>303.0</ele><time>2026-04-26T07:12:24Z</time></trkpt><trkpt lat="46.030708459234816" lon="11.953068763716981"><ele>303.0</ele><time>2026-04-26T07:12:25Z</time></trkpt><trkpt lat="46.03073118179839" lon="11.953320360813848"><ele>303.0</ele><time>2026-04-26T07:12:26Z</time></trkpt><trkpt lat="46.030744752864386" lon="11.953565784448468"><ele>303.0</ele><time>2026-04-26T07:12:27Z</time></trkpt><trkpt lat="46.030764170746956" lon="11.95379721918935"><ele>303.0</ele><time>2026-04-26T07:12:28Z</time></trkpt><trkpt lat="46.03078716515679" lon="11.95402821741878"><ele>303.0</ele><time>2026-04-26T07:12:29Z</time></trkpt><trkpt lat="46.03082307823349" lon="11.954257671204124"><ele>303.0</ele><time>2026-04-26T07:12:30Z</time></trkpt><trkpt lat="46.03085072650303" lon="11.95449115457135"><ele>301.3333333333333</ele><time>2026-04-26T07:12:31Z</time></trkpt><trkpt lat="46.030875517395074" lon="11.954721943588424"><ele>299.66666666666663</ele><time>2026-04-26T07:12:32Z</time></trkpt><trkpt lat="46.03089496060151" lon="11.95496176481803"><ele>298.0</ele><time>2026-04-26T07:12:33Z</time></trkpt><trkpt lat="46.030919937803496" lon="11.955197201016519"><ele>297.66666666666663</ele><time>2026-04-26T07:12:34Z</time></trkpt><trkpt lat="46.03094242167124" lon="11.955440488936535"><ele>297.3333333333333</ele><time>2026-04-26T07:12:35Z</time></trkpt><trkpt lat="46.030967034022844" lon="11.955674707556662"><ele>297.0</ele><time>2026-04-26T07:12:36Z</time></trkpt><trkpt lat="46.030985049538735" lon="11.955916291865663"><ele>296.6666666666667</ele><time>2026-04-26T07:12:37Z</time></trkpt><trkpt lat="46.03100517863049" lon="11.956158401354891"><ele>296.33333333333337</ele><time>2026-04-26T07:12:38Z</time></trkpt><trkpt lat="46.03102955577037" lon="11.956407965498"><ele>296.0</ele><time>2026-04-26T07:12:39Z</time></trkpt><trkpt lat="46.031052436379916" lon="11.956658455091379"><ele>295.0</ele><time>2026-04-26T07:12:40Z</time></trkpt><trkpt lat="46.031077481022905" lon="11.956902666619806"><ele>294.0</ele><time>2026-04-26T07:12:41Z</time></trkpt><trkpt lat="46.03110234690589" lon="11.957151568900441"><ele>293.0</ele><time>2026-04-26T07:12:42Z</time></trkpt><trkpt lat="46.03112527885292" lon="11.957397290131219"><ele>292.33333333333337</ele><time>2026-04-26T07:12:43Z</time></trkpt><trkpt lat="46.03114824805009" lon="11.957633263656993"><ele>291.6666666666667</ele><time>2026-04-26T07:12:44Z</time></trkpt><trkpt lat="46.031179549989695" lon="11.95785592461126"><ele>291.0</ele><time>2026-04-26T07:12:45Z</time></trkpt><trkpt lat="46.03119114522698" lon="11.958090465108553"><ele>291.0</ele><time>2026-04-26T07:12:46Z</time></trkpt><trkpt lat="46.03121565434931" lon="11.958314697136721"><ele>291.0</ele><time>2026-04-26T07:12:47Z</time></trkpt><trkpt lat="46.03123614666665" lon="11.958518299465092"><ele>291.0</ele><time>2026-04-26T07:12:48Z</time></trkpt><trkpt lat="46.031253927212376" lon="11.95872340853624"><ele>291.0</ele><time>2026-04-26T07:12:49Z</time></trkpt><trkpt lat="46.03127277002577" lon="11.95892835054621"><ele>290.8</ele><time>2026-04-26T07:12:50Z</time></trkpt><trkpt lat="46.031293578933" lon="11.959112720612097"><ele>290.6</ele><time>2026-04-26T07:12:51Z</time></trkpt><trkpt lat="46.03131309278086" lon="11.959280672438215"><ele>290.4</ele><time>2026-04-26T07:12:52Z</time></trkpt><trkpt lat="46.03131876241063" lon="11.95942229180251"><ele>290.2</ele><time>2026-04-26T07:12:53Z</time></trkpt><trkpt lat="46.031330131638484" lon="11.959561091483154"><ele>290.0</ele><time>2026-04-26T07:12:54Z</time></trkpt><trkpt lat="46.03133538083044" lon="11.959682906247174"><ele>289.6666666666667</ele><time>2026-04-26T07:12:55Z</time></trkpt><trkpt lat="46.03132159726193" lon="11.95980172146792"><ele>289.33333333333337</ele><time>2026-04-26T07:12:56Z</time></trkpt><trkpt lat="46.03129666523274" lon="11.959903169467742"><ele>289.0</ele><time>2026-04-26T07:12:57Z</time></trkpt><trkpt lat="46.031279587915314" lon="11.96000670236523"><ele>288.6666666666667</ele><time>2026-04-26T07:12:58Z</time></trkpt><trkpt lat="46.03129930316623" lon="11.960116655949452"><ele>288.3333333333333</ele><time>2026-04-26T07:12:59Z</time></trkpt><trkpt lat="46.03135069090196" lon="11.960233696086659"><ele>288.0</ele><time>2026-04-26T07:13:00Z</time></trkpt><trkpt lat="46.03139178242431" lon="11.96036343262648"><ele>287.75</ele><time>2026-04-26T07:13:01Z</time></trkpt><trkpt lat="46.03142868164003" lon="11.960514789758157"><ele>287.5</ele><time>2026-04-26T07:13:02Z</time></trkpt><trkpt lat="46.031439797684655" lon="11.960711984717532"><ele>287.25</ele><time>2026-04-26T07:13:03Z</time></trkpt><trkpt lat="46.03145294628904" lon="11.960936326912563"><ele>287.0</ele><time>2026-04-26T07:13:04Z</time></trkpt><trkpt lat="46.03146964141375" lon="11.961178077080426"><ele>286.6666666666667</ele><time>2026-04-26T07:13:05Z</time></trkpt><trkpt lat="46.03149109694008" lon="11.961411134377306"><ele>286.3333333333333</ele><time>2026-04-26T07:13:06Z</time></trkpt><trkpt lat="46.031518366194106" lon="11.961663436809445"><ele>286.0</ele><time>2026-04-26T07:13:07Z</time></trkpt><trkpt lat="46.03154435781417" lon="11.961892350324552"><ele>286.0</ele><time>2026-04-26T07:13:08Z</time></trkpt><trkpt lat="46.03157617911896" lon="11.962106205861463"><ele>286.0</ele><time>2026-04-26T07:13:09Z</time></trkpt><trkpt lat="46.031630376420004" lon="11.96232536620537"><ele>286.0</ele><time>2026-04-26T07:13:10Z</time></trkpt><trkpt lat="46.03170323232372" lon="11.96254579437943"><ele>286.3333333333333</ele><time>2026-04-26T07:13:11Z</time></trkpt><trkpt lat="46.03180265624014" lon="11.962764817008601"><ele>286.6666666666667</ele><time>2026-04-26T07:13:12Z</time></trkpt><trkpt lat="46.031921189235504" lon="11.962970920222253"><ele>287.0</ele><time>2026-04-26T07:13:13Z</time></trkpt><trkpt lat="46.03207657725531" lon="11.963168530748924"><ele>286.0</ele><time>2026-04-26T07:13:14Z</time></trkpt><trkpt lat="46.032173725393484" lon="11.963379385515413"><ele>285.0</ele><time>2026-04-26T07:13:15Z</time></trkpt><trkpt lat="46.03229817815634" lon="11.963588876239486"><ele>284.0</ele><time>2026-04-26T07:13:16Z</time></trkpt><trkpt lat="46.032412513308806" lon="11.963779124885011"><ele>282.6666666666667</ele><time>2026-04-26T07:13:17Z</time></trkpt><trkpt lat="46.03253174785165" lon="11.963975836327469"><ele>281.3333333333333</ele><time>2026-04-26T07:13:18Z</time></trkpt><trkpt lat="46.03264515666133" lon="11.96416979241432"><ele>280.0</ele><time>2026-04-26T07:13:19Z</time></trkpt><trkpt lat="46.03275411220453" lon="11.964368520807986"><ele>278.3333333333333</ele><time>2026-04-26T07:13:20Z</time></trkpt><trkpt lat="46.032857568740695" lon="11.964591045194682"><ele>276.6666666666667</ele><time>2026-04-26T07:13:21Z</time></trkpt><trkpt lat="46.03294377382422" lon="11.964836123508848"><ele>275.0</ele><time>2026-04-26T07:13:22Z</time></trkpt><trkpt lat="46.03302623472175" lon="11.965092500363301"><ele>274.33333333333337</ele><time>2026-04-26T07:13:23Z</time></trkpt><trkpt lat="46.03310359794314" lon="11.965333765008015"><ele>273.6666666666667</ele><time>2026-04-26T07:13:24Z</time></trkpt><trkpt lat="46.03317365850919" lon="11.965563122549458"><ele>273.0</ele><time>2026-04-26T07:13:25Z</time></trkpt><trkpt lat="46.033233123457045" lon="11.965813793278137"><ele>273.6666666666667</ele><time>2026-04-26T07:13:26Z</time></trkpt><trkpt lat="46.03328458273436" lon="11.966105939300219"><ele>274.33333333333337</ele><time>2026-04-26T07:13:27Z</time></trkpt><trkpt lat="46.033338717038674" lon="11.966387891461174"><ele>275.0</ele><time>2026-04-26T07:13:28Z</time></trkpt><trkpt lat="46.033444497338756" lon="11.966485301612167"><ele>273.6666666666667</ele><time>2026-04-26T07:13:29Z</time></trkpt><trkpt lat="46.03346931124388" lon="11.966741148756286"><ele>272.3333333333333</ele><time>2026-04-26T07:13:30Z</time></trkpt><trkpt lat="46.03351189726821" lon="11.966994510530844"><ele>271.0</ele><time>2026-04-26T07:13:31Z</time></trkpt><trkpt lat="46.03351938817966" lon="11.967263291945482"><ele>269.3333333333333</ele><time>2026-04-26T07:13:32Z</time></trkpt><trkpt lat="46.033516119542035" lon="11.967540566962809"><ele>267.6666666666667</ele><time>2026-04-26T07:13:33Z</time></trkpt><trkpt lat="46.03351571577688" lon="11.967821104649076"><ele>266.0</ele><time>2026-04-26T07:13:34Z</time></trkpt><trkpt lat="46.033479938012725" lon="11.968104186491749"><ele>265.6666666666667</ele><time>2026-04-26T07:13:35Z</time></trkpt><trkpt lat="46.033474483730615" lon="11.968366411194625"><ele>265.3333333333333</ele><time>2026-04-26T07:13:36Z</time></trkpt><trkpt lat="46.03348099056825" lon="11.968635420837051"><ele>265.0</ele><time>2026-04-26T07:13:37Z</time></trkpt><trkpt lat="46.03346940221044" lon="11.968899633846645"><ele>265.0</ele><time>2026-04-26T07:13:38Z</time></trkpt><trkpt lat="46.0334593991603" lon="11.969141486692978"><ele>265.0</ele><time>2026-04-26T07:13:39Z</time></trkpt><trkpt lat="46.033458886639494" lon="11.96938374406822"><ele>265.0</ele><time>2026-04-26T07:13:40Z</time></trkpt><trkpt lat="46.03347182629957" lon="11.969632358308939"><ele>265.3333333333333</ele><time>2026-04-26T07:13:41Z</time></trkpt><trkpt lat="46.033501915001075" lon="11.969875059614187"><ele>265.6666666666667</ele><time>2026-04-26T07:13:42Z</time></trkpt><trkpt lat="46.0335501036576" lon="11.97012080819748"><ele>266.0</ele><time>2026-04-26T07:13:43Z</time></trkpt><trkpt lat="46.03360899167422" lon="11.97035469545471"><ele>265.0</ele><time>2026-04-26T07:13:44Z</time></trkpt><trkpt lat="46.033689454812304" lon="11.970585111082249"><ele>264.0</ele><time>2026-04-26T07:13:45Z</time></trkpt><trkpt lat="46.033770705460896" lon="11.970800174500784"><ele>263.0</ele><time>2026-04-26T07:13:46Z</time></trkpt><trkpt lat="46.0338580441704" lon="11.97102908783955"><ele>262.6666666666667</ele><time>2026-04-26T07:13:47Z</time></trkpt><trkpt lat="46.033947044867595" lon="11.971267032282293"><ele>262.3333333333333</ele><time>2026-04-26T07:13:48Z</time></trkpt><trkpt lat="46.034036019598254" lon="11.971503124514893"><ele>262.0</ele><time>2026-04-26T07:13:49Z</time></trkpt><trkpt lat="46.03412653308252" lon="11.971744028331782"><ele>263.0</ele><time>2026-04-26T07:13:50Z</time></trkpt><trkpt lat="46.0342187105394" lon="11.971989393229228"><ele>264.0</ele><time>2026-04-26T07:13:51Z</time></trkpt><trkpt lat="46.0343272519867" lon="11.972241196732156"><ele>265.0</ele><time>2026-04-26T07:13:52Z</time></trkpt><trkpt lat="46.03441635267996" lon="11.972493467710473"><ele>264.66666666666663</ele><time>2026-04-26T07:13:53Z</time></trkpt><trkpt lat="46.03450281835972" lon="11.972745082349416"><ele>264.3333333333333</ele><time>2026-04-26T07:13:53.999Z</time></trkpt><trkpt lat="46.034600777495434" lon="11.972994955671824"><ele>264.0</ele><time>2026-04-26T07:13:54.999Z</time></trkpt><trkpt lat="46.03470917607754" lon="11.973253837859696"><ele>264.3333333333333</ele><time>2026-04-26T07:13:55.999Z</time></trkpt><trkpt lat="46.034813189524414" lon="11.973512531090462"><ele>264.66666666666663</ele><time>2026-04-26T07:13:56.999Z</time></trkpt><trkpt lat="46.03491006104922" lon="11.973754964774841"><ele>265.0</ele><time>2026-04-26T07:13:57.999Z</time></trkpt><trkpt lat="46.035010752945475" lon="11.974004638719645"><ele>264.0</ele><time>2026-04-26T07:13:58.999Z</time></trkpt><trkpt lat="46.03511460626272" lon="11.974258277516157"><ele>263.0</ele><time>2026-04-26T07:13:59.999Z</time></trkpt><trkpt lat="46.035206321356924" lon="11.974488714261009"><ele>262.0</ele><time>2026-04-26T07:14:00.999Z</time></trkpt><trkpt lat="46.03531494103953" lon="11.974753199909314"><ele>262.0</ele><time>2026-04-26T07:14:01.999Z</time></trkpt><trkpt lat="46.03541029501879" lon="11.974988665231853"><ele>262.0</ele><time>2026-04-26T07:14:02.999Z</time></trkpt><trkpt lat="46.035500810406624" lon="11.975207801049839"><ele>262.0</ele><time>2026-04-26T07:14:03.999Z</time></trkpt><trkpt lat="46.03559572359716" lon="11.975433365129533"><ele>262.0</ele><time>2026-04-26T07:14:04.999Z</time></trkpt><trkpt lat="46.03568739210284" lon="11.975659888311817"><ele>262.0</ele><time>2026-04-26T07:14:05.999Z</time></trkpt><trkpt lat="46.035784809691755" lon="11.975898311725793"><ele>262.0</ele><time>2026-04-26T07:14:06.999Z</time></trkpt><trkpt lat="46.03588071408874" lon="11.976129512115168"><ele>261.0</ele><time>2026-04-26T07:14:07.999Z</time></trkpt><trkpt lat="46.03596887286236" lon="11.976349697623851"><ele>260.0</ele><time>2026-04-26T07:14:08.999Z</time></trkpt><trkpt lat="46.03605392085056" lon="11.976558051199385"><ele>259.0</ele><time>2026-04-26T07:14:09.999Z</time></trkpt><trkpt lat="46.03613743708509" lon="11.976763095077029"><ele>259.0</ele><time>2026-04-26T07:14:10.999Z</time></trkpt><trkpt lat="46.0362224969809" lon="11.97697587157819"><ele>259.0</ele><time>2026-04-26T07:14:11.999Z</time></trkpt><trkpt lat="46.036307904083614" lon="11.977184392993605"><ele>259.0</ele><time>2026-04-26T07:14:12.999Z</time></trkpt><trkpt lat="46.036388988758965" lon="11.97738715379876"><ele>260.66666666666663</ele><time>2026-04-26T07:14:13.999Z</time></trkpt><trkpt lat="46.03646557541881" lon="11.977586133255091"><ele>262.3333333333333</ele><time>2026-04-26T07:14:14.999Z</time></trkpt><trkpt lat="46.036541131794806" lon="11.97779338454704"><ele>264.0</ele><time>2026-04-26T07:14:15.999Z</time></trkpt><trkpt lat="46.03662155530108" lon="11.977990713518746"><ele>263.0</ele><time>2026-04-26T07:14:16.999Z</time></trkpt><trkpt lat="46.036710317747286" lon="11.978196833089251"><ele>262.0</ele><time>2026-04-26T07:14:17.999Z</time></trkpt><trkpt lat="46.036802708958724" lon="11.978412354178525"><ele>261.0</ele><time>2026-04-26T07:14:18.999Z</time></trkpt><trkpt lat="46.03689885610117" lon="11.978643646242231"><ele>261.0</ele><time>2026-04-26T07:14:19.999Z</time></trkpt><trkpt lat="46.03699084111779" lon="11.978867857397463"><ele>261.0</ele><time>2026-04-26T07:14:20.999Z</time></trkpt><trkpt lat="46.037078400268676" lon="11.97907347392871"><ele>261.0</ele><time>2026-04-26T07:14:21.999Z</time></trkpt><trkpt lat="46.03716005660954" lon="11.97928640058124"><ele>259.0</ele><time>2026-04-26T07:14:22.999Z</time></trkpt><trkpt lat="46.0372559715023" lon="11.979485974763401"><ele>257.0</ele><time>2026-04-26T07:14:23.999Z</time></trkpt><trkpt lat="46.0373522708941" lon="11.979697058508515"><ele>255.0</ele><time>2026-04-26T07:14:24.999Z</time></trkpt><trkpt lat="46.03742008054591" lon="11.979899288506962"><ele>252.33333333333331</ele><time>2026-04-26T07:14:25.999Z</time></trkpt><trkpt lat="46.03750285025955" lon="11.980102010110253"><ele>249.66666666666666</ele><time>2026-04-26T07:14:26.999Z</time></trkpt><trkpt lat="46.0375922142818" lon="11.980332724043985"><ele>247.0</ele><time>2026-04-26T07:14:27.999Z</time></trkpt><trkpt lat="46.037676381725134" lon="11.980556918063492"><ele>247.0</ele><time>2026-04-26T07:14:29Z</time></trkpt><trkpt lat="46.03776488053134" lon="11.980762110315684"><ele>247.0</ele><time>2026-04-26T07:14:30Z</time></trkpt><trkpt lat="46.03784419612422" lon="11.9809547162968"><ele>247.0</ele><time>2026-04-26T07:14:31Z</time></trkpt><trkpt lat="46.03791926139759" lon="11.981139283163655"><ele>247.0</ele><time>2026-04-26T07:14:32Z</time></trkpt><trkpt lat="46.03799457210603" lon="11.981312430567865"><ele>247.0</ele><time>2026-04-26T07:14:33Z</time></trkpt><trkpt lat="46.03806460334428" lon="11.98149110344218"><ele>247.0</ele><time>2026-04-26T07:14:34Z</time></trkpt><trkpt lat="46.038133327490094" lon="11.981668167514059"><ele>247.0</ele><time>2026-04-26T07:14:35Z</time></trkpt><trkpt lat="46.038205071332264" lon="11.981840678185359"><ele>246.75</ele><time>2026-04-26T07:14:36Z</time></trkpt><trkpt lat="46.03827589932038" lon="11.982008099767926"><ele>246.5</ele><time>2026-04-26T07:14:37Z</time></trkpt><trkpt lat="46.03834380581336" lon="11.98215911479457"><ele>246.25</ele><time>2026-04-26T07:14:38Z</time></trkpt><trkpt lat="46.03840605797881" lon="11.98230399619011"><ele>246.0</ele><time>2026-04-26T07:14:39Z</time></trkpt><trkpt lat="46.03846317668971" lon="11.982444860715589"><ele>246.0</ele><time>2026-04-26T07:14:40Z</time></trkpt><trkpt lat="46.038518416860974" lon="11.982582767269534"><ele>246.00000000000003</ele><time>2026-04-26T07:14:41Z</time></trkpt><trkpt lat="46.0385641091672" lon="11.982706381411443"><ele>246.00000000000003</ele><time>2026-04-26T07:14:42Z</time></trkpt><trkpt lat="46.0385814105432" lon="11.982846735030915"><ele>246.0</ele><time>2026-04-26T07:14:43Z</time></trkpt><trkpt lat="46.038572615927094" lon="11.982995063988405"><ele>246.0</ele><time>2026-04-26T07:14:44Z</time></trkpt><trkpt lat="46.038577393304266" lon="11.983136640732504"><ele>246.0</ele><time>2026-04-26T07:14:45Z</time></trkpt><trkpt lat="46.03862242925328" lon="11.983263919898237"><ele>246.00000000000003</ele><time>2026-04-26T07:14:46Z</time></trkpt><trkpt lat="46.038684970175346" lon="11.983381864009047"><ele>246.00000000000003</ele><time>2026-04-26T07:14:47Z</time></trkpt><trkpt lat="46.03872885271239" lon="11.983509198844878"><ele>246.0</ele><time>2026-04-26T07:14:48Z</time></trkpt><trkpt lat="46.038740691827876" lon="11.983663908154425"><ele>246.0</ele><time>2026-04-26T07:14:49Z</time></trkpt><trkpt lat="46.0387262870954" lon="11.983851277038827"><ele>246.0</ele><time>2026-04-26T07:14:50Z</time></trkpt><trkpt lat="46.038698664738405" lon="11.984054104024445"><ele>246.0</ele><time>2026-04-26T07:14:51Z</time></trkpt><trkpt lat="46.03864845126405" lon="11.984257201470434"><ele>246.0</ele><time>2026-04-26T07:14:52Z</time></trkpt><trkpt lat="46.03857318330557" lon="11.984464272092662"><ele>244.0</ele><time>2026-04-26T07:14:53Z</time></trkpt><trkpt lat="46.03848800528439" lon="11.984668349036925"><ele>242.0</ele><time>2026-04-26T07:14:54Z</time></trkpt><trkpt lat="46.03840990502192" lon="11.984851585077704"><ele>240.0</ele><time>2026-04-26T07:14:55Z</time></trkpt><trkpt lat="46.038332413169115" lon="11.985040831665968"><ele>240.5</ele><time>2026-04-26T07:14:56Z</time></trkpt><trkpt lat="46.03825950630058" lon="11.985220706744435"><ele>241.0</ele><time>2026-04-26T07:14:57Z</time></trkpt><trkpt lat="46.038192385483555" lon="11.98538132028826"><ele>241.5</ele><time>2026-04-26T07:14:58Z</time></trkpt><trkpt lat="46.03813151760232" lon="11.985545988506974"><ele>242.0</ele><time>2026-04-26T07:14:59Z</time></trkpt><trkpt lat="46.038072333235924" lon="11.98572078734321"><ele>239.75</ele><time>2026-04-26T07:15:00Z</time></trkpt><trkpt lat="46.038032161013575" lon="11.985909606747958"><ele>237.5</ele><time>2026-04-26T07:15:01Z</time></trkpt><trkpt lat="46.03801927750638" lon="11.986113975078485"><ele>235.25</ele><time>2026-04-26T07:15:02Z</time></trkpt><trkpt lat="46.038020520306496" lon="11.986329599263545"><ele>233.0</ele><time>2026-04-26T07:15:03Z</time></trkpt><trkpt lat="46.038021682277574" lon="11.986545218077065"><ele>232.66666666666669</ele><time>2026-04-26T07:15:04Z</time></trkpt><trkpt lat="46.038020762071895" lon="11.986763984947139"><ele>232.33333333333331</ele><time>2026-04-26T07:15:05Z</time></trkpt><trkpt lat="46.03802011449457" lon="11.986993880177131"><ele>232.0</ele><time>2026-04-26T07:15:06Z</time></trkpt><trkpt lat="46.038013469774704" lon="11.987243632609069"><ele>232.0</ele><time>2026-04-26T07:15:07Z</time></trkpt><trkpt lat="46.038007371484326" lon="11.987496058985029"><ele>232.0</ele><time>2026-04-26T07:15:08Z</time></trkpt><trkpt lat="46.03800347847163" lon="11.98772102284107"><ele>232.0</ele><time>2026-04-26T07:15:09Z</time></trkpt><trkpt lat="46.038003222990675" lon="11.987954729399206"><ele>232.66666666666666</ele><time>2026-04-26T07:15:10Z</time></trkpt><trkpt lat="46.03801788834884" lon="11.988194636085277"><ele>233.33333333333331</ele><time>2026-04-26T07:15:11Z</time></trkpt><trkpt lat="46.03805258122785" lon="11.98844453917805"><ele>234.0</ele><time>2026-04-26T07:15:12Z</time></trkpt><trkpt lat="46.0380981028875" lon="11.98871073823024"><ele>234.66666666666669</ele><time>2026-04-26T07:15:13Z</time></trkpt><trkpt lat="46.03814300075727" lon="11.988988343779573"><ele>235.33333333333334</ele><time>2026-04-26T07:15:14Z</time></trkpt><trkpt lat="46.038176771809034" lon="11.989233814548058"><ele>236.0</ele><time>2026-04-26T07:15:15Z</time></trkpt><trkpt lat="46.038211890011645" lon="11.989457379401063"><ele>237.0</ele><time>2026-04-26T07:15:16Z</time></trkpt><trkpt lat="46.038239669578594" lon="11.989672899059752"><ele>238.0</ele><time>2026-04-26T07:15:17Z</time></trkpt><trkpt lat="46.038257117704774" lon="11.989892401258363"><ele>239.0</ele><time>2026-04-26T07:15:18Z</time></trkpt><trkpt lat="46.03825615172354" lon="11.990128988295465"><ele>239.33333333333334</ele><time>2026-04-26T07:15:19Z</time></trkpt><trkpt lat="46.03824283937749" lon="11.990378873107744"><ele>239.66666666666669</ele><time>2026-04-26T07:15:20Z</time></trkpt><trkpt lat="46.03821884335166" lon="11.99060475242484"><ele>240.0</ele><time>2026-04-26T07:15:21Z</time></trkpt><trkpt lat="46.03819399394117" lon="11.990803211281682"><ele>240.0</ele><time>2026-04-26T07:15:22Z</time></trkpt><trkpt lat="46.03816994192193" lon="11.990980349698923"><ele>240.0</ele><time>2026-04-26T07:15:23Z</time></trkpt><trkpt lat="46.03815266917463" lon="11.991132717237504"><ele>240.0</ele><time>2026-04-26T07:15:24Z</time></trkpt><trkpt lat="46.038135316795994" lon="11.99128571111564"><ele>240.0</ele><time>2026-04-26T07:15:25Z</time></trkpt><trkpt lat="46.03811936603026" lon="11.991451253367558"><ele>240.0</ele><time>2026-04-26T07:15:26Z</time></trkpt><trkpt lat="46.03810570692489" lon="11.991623495572071"><ele>240.0</ele><time>2026-04-26T07:15:27Z</time></trkpt><trkpt lat="46.038097712147966" lon="11.99179932688936"><ele>240.0</ele><time>2026-04-26T07:15:28Z</time></trkpt><trkpt lat="46.03809017557851" lon="11.991988528525773"><ele>240.0</ele><time>2026-04-26T07:15:29Z</time></trkpt><trkpt lat="46.03807282287176" lon="11.992200585274576"><ele>240.0</ele><time>2026-04-26T07:15:30Z</time></trkpt><trkpt lat="46.03804777498598" lon="11.992435400641604"><ele>240.0</ele><time>2026-04-26T07:15:31Z</time></trkpt><trkpt lat="46.038028283634794" lon="11.992678139848724"><ele>240.0</ele><time>2026-04-26T07:15:32Z</time></trkpt><trkpt lat="46.038006202746395" lon="11.992901564564253"><ele>240.0</ele><time>2026-04-26T07:15:33Z</time></trkpt><trkpt lat="46.037980400123644" lon="11.993136479417087"><ele>240.0</ele><time>2026-04-26T07:15:34Z</time></trkpt><trkpt lat="46.03794873121499" lon="11.993376632580697"><ele>240.0</ele><time>2026-04-26T07:15:35Z</time></trkpt><trkpt lat="46.037922421742614" lon="11.993597535445664"><ele>240.0</ele><time>2026-04-26T07:15:36Z</time></trkpt><trkpt lat="46.03788976007026" lon="11.993802434531155"><ele>240.0</ele><time>2026-04-26T07:15:37Z</time></trkpt><trkpt lat="46.03787262313695" lon="11.994022568312392"><ele>240.0</ele><time>2026-04-26T07:15:38Z</time></trkpt><trkpt lat="46.037864632891264" lon="11.99424291089882"><ele>240.66666666666669</ele><time>2026-04-26T07:15:39Z</time></trkpt><trkpt lat="46.03785895183896" lon="11.99447524587133"><ele>241.33333333333334</ele><time>2026-04-26T07:15:40Z</time></trkpt><trkpt lat="46.03784321156925" lon="11.994712679873237"><ele>242.0</ele><time>2026-04-26T07:15:41Z</time></trkpt><trkpt lat="46.03782318064341" lon="11.994940857332484"><ele>242.25</ele><time>2026-04-26T07:15:42Z</time></trkpt><trkpt lat="46.03780259279704" lon="11.995147126161433"><ele>242.5</ele><time>2026-04-26T07:15:43Z</time></trkpt><trkpt lat="46.03777806015621" lon="11.995337981941837"><ele>242.75</ele><time>2026-04-26T07:15:44Z</time></trkpt><trkpt lat="46.0377615668954" lon="11.995540297136294"><ele>243.0</ele><time>2026-04-26T07:15:45Z</time></trkpt><trkpt lat="46.0377465724299" lon="11.995750039483031"><ele>242.66666666666669</ele><time>2026-04-26T07:15:46Z</time></trkpt><trkpt lat="46.03773916400329" lon="11.995965326114627"><ele>242.33333333333334</ele><time>2026-04-26T07:15:47Z</time></trkpt><trkpt lat="46.03773277497854" lon="11.996184188951958"><ele>242.0</ele><time>2026-04-26T07:15:48Z</time></trkpt><trkpt lat="46.03772595857426" lon="11.996405511398626"><ele>242.0</ele><time>2026-04-26T07:15:49Z</time></trkpt><trkpt lat="46.03772252510921" lon="11.99662692746449"><ele>242.0</ele><time>2026-04-26T07:15:50Z</time></trkpt><trkpt lat="46.037723755423464" lon="11.996831387599965"><ele>242.0</ele><time>2026-04-26T07:15:51Z</time></trkpt><trkpt lat="46.0377265110157" lon="11.997022890484278"><ele>242.0</ele><time>2026-04-26T07:15:52Z</time></trkpt><trkpt lat="46.03773090959096" lon="11.997219966309576"><ele>241.75</ele><time>2026-04-26T07:15:53Z</time></trkpt><trkpt lat="46.03773383737775" lon="11.997419148879343"><ele>241.5</ele><time>2026-04-26T07:15:54Z</time></trkpt><trkpt lat="46.03774018826472" lon="11.99761755356545"><ele>241.25</ele><time>2026-04-26T07:15:55Z</time></trkpt><trkpt lat="46.03775365080326" lon="11.997819230041303"><ele>241.0</ele><time>2026-04-26T07:15:56Z</time></trkpt><trkpt lat="46.03777222736617" lon="11.998005636502713"><ele>241.25</ele><time>2026-04-26T07:15:57Z</time></trkpt><trkpt lat="46.03778917963832" lon="11.998178636038796"><ele>241.5</ele><time>2026-04-26T07:15:58Z</time></trkpt><trkpt lat="46.0378062078582" lon="11.998356902875413"><ele>241.75</ele><time>2026-04-26T07:15:58.999Z</time></trkpt><trkpt lat="46.03782817408243" lon="11.998542845232334"><ele>242.0</ele><time>2026-04-26T07:15:59.999Z</time></trkpt><trkpt lat="46.03785101131041" lon="11.998735561589914"><ele>242.0</ele><time>2026-04-26T07:16:00.999Z</time></trkpt><trkpt lat="46.03787482948195" lon="11.998927054325383"><ele>242.0</ele><time>2026-04-26T07:16:01.999Z</time></trkpt><trkpt lat="46.037898625266465" lon="11.999102612856914"><ele>242.0</ele><time>2026-04-26T07:16:02.999Z</time></trkpt><trkpt lat="46.03792320397742" lon="11.999276816247532"><ele>242.0</ele><time>2026-04-26T07:16:03.999Z</time></trkpt><trkpt lat="46.0379519973905" lon="11.999454121408403"><ele>241.75</ele><time>2026-04-26T07:16:04.999Z</time></trkpt><trkpt lat="46.03798707877304" lon="11.999633285081437"><ele>241.5</ele><time>2026-04-26T07:16:05.999Z</time></trkpt><trkpt lat="46.03802306598594" lon="11.999816671557586"><ele>241.25</ele><time>2026-04-26T07:16:06.999Z</time></trkpt><trkpt lat="46.0380619780034" lon="12.000000660952"><ele>241.0</ele><time>2026-04-26T07:16:07.999Z</time></trkpt><trkpt lat="46.03810693122843" lon="12.000185891133201"><ele>241.0</ele><time>2026-04-26T07:16:08.999Z</time></trkpt><trkpt lat="46.03816026795758" lon="12.00037010316818"><ele>241.0</ele><time>2026-04-26T07:16:09.999Z</time></trkpt><trkpt lat="46.03821293695072" lon="12.000541550885181"><ele>241.0</ele><time>2026-04-26T07:16:10.999Z</time></trkpt><trkpt lat="46.038267553151556" lon="12.000705104390846"><ele>241.0</ele><time>2026-04-26T07:16:11.999Z</time></trkpt><trkpt lat="46.038324061604044" lon="12.000863079406138"><ele>241.60000000000002</ele><time>2026-04-26T07:16:12.999Z</time></trkpt><trkpt lat="46.038372319790305" lon="12.001003039617562"><ele>242.20000000000002</ele><time>2026-04-26T07:16:13.999Z</time></trkpt><trkpt lat="46.03843138144946" lon="12.00113942927576"><ele>242.79999999999998</ele><time>2026-04-26T07:16:14.999Z</time></trkpt><trkpt lat="46.03848249301597" lon="12.001280229079075"><ele>243.39999999999998</ele><time>2026-04-26T07:16:15.999Z</time></trkpt><trkpt lat="46.03853706128419" lon="12.001419947865248"><ele>244.0</ele><time>2026-04-26T07:16:16.999Z</time></trkpt><trkpt lat="46.03860048608586" lon="12.001556060647168"><ele>243.75</ele><time>2026-04-26T07:16:17.999Z</time></trkpt><trkpt lat="46.03865984179741" lon="12.001699361991282"><ele>243.5</ele><time>2026-04-26T07:16:18.999Z</time></trkpt><trkpt lat="46.038721602656494" lon="12.001837935844184"><ele>243.25</ele><time>2026-04-26T07:16:19.999Z</time></trkpt><trkpt lat="46.0387878534161" lon="12.001976804144535"><ele>243.0</ele><time>2026-04-26T07:16:20.999Z</time></trkpt><trkpt lat="46.0388642757659" lon="12.002112316711258"><ele>243.0</ele><time>2026-04-26T07:16:21.999Z</time></trkpt><trkpt lat="46.03895329757499" lon="12.002245763490945"><ele>243.0</ele><time>2026-04-26T07:16:22.999Z</time></trkpt><trkpt lat="46.039038905269244" lon="12.002381290063823"><ele>243.0</ele><time>2026-04-26T07:16:23.999Z</time></trkpt><trkpt lat="46.03912827889924" lon="12.002526863558543"><ele>243.0</ele><time>2026-04-26T07:16:24.999Z</time></trkpt><trkpt lat="46.03921220828646" lon="12.002667425934767"><ele>243.0</ele><time>2026-04-26T07:16:25.999Z</time></trkpt><trkpt lat="46.03929934292066" lon="12.00280746777768"><ele>243.0</ele><time>2026-04-26T07:16:26.999Z</time></trkpt><trkpt lat="46.03939420834218" lon="12.002962806486185"><ele>243.0</ele><time>2026-04-26T07:16:27.999Z</time></trkpt><trkpt lat="46.039495656940744" lon="12.003130398804595"><ele>243.0</ele><time>2026-04-26T07:16:28.999Z</time></trkpt><trkpt lat="46.03961219025657" lon="12.003329689500118"><ele>243.0</ele><time>2026-04-26T07:16:29.999Z</time></trkpt><trkpt lat="46.03971779602273" lon="12.003516986621353"><ele>243.0</ele><time>2026-04-26T07:16:30.999Z</time></trkpt><trkpt lat="46.03982037648207" lon="12.003715153098186"><ele>243.0</ele><time>2026-04-26T07:16:31.999Z</time></trkpt><trkpt lat="46.03991507759444" lon="12.003916105717668"><ele>243.0</ele><time>2026-04-26T07:16:32.999Z</time></trkpt><trkpt lat="46.0400046165353" lon="12.004118669315723"><ele>243.0</ele><time>2026-04-26T07:16:33.999Z</time></trkpt><trkpt lat="46.04008651968684" lon="12.004296258385262"><ele>243.0</ele><time>2026-04-26T07:16:35Z</time></trkpt><trkpt lat="46.04016204114389" lon="12.004462725424924"><ele>243.5</ele><time>2026-04-26T07:16:36Z</time></trkpt><trkpt lat="46.04023572678625" lon="12.004636628535836"><ele>244.0</ele><time>2026-04-26T07:16:37Z</time></trkpt><trkpt lat="46.04031277530387" lon="12.00480395513648"><ele>244.5</ele><time>2026-04-26T07:16:38Z</time></trkpt><trkpt lat="46.04038629538238" lon="12.004971606740241"><ele>245.0</ele><time>2026-04-26T07:16:39Z</time></trkpt><trkpt lat="46.04046013204232" lon="12.00514490231858"><ele>245.25</ele><time>2026-04-26T07:16:40Z</time></trkpt><trkpt lat="46.04053060136616" lon="12.005309836650488"><ele>245.5</ele><time>2026-04-26T07:16:41Z</time></trkpt><trkpt lat="46.04059978329553" lon="12.005479688238594"><ele>245.75</ele><time>2026-04-26T07:16:42Z</time></trkpt><trkpt lat="46.04067492218347" lon="12.005646163747317"><ele>246.0</ele><time>2026-04-26T07:16:43Z</time></trkpt><trkpt lat="46.040750370330734" lon="12.0058129931851"><ele>246.0</ele><time>2026-04-26T07:16:44Z</time></trkpt><trkpt lat="46.04082537286931" lon="12.005985748690238"><ele>246.0</ele><time>2026-04-26T07:16:45Z</time></trkpt><trkpt lat="46.040900668272286" lon="12.006159285309671"><ele>246.0</ele><time>2026-04-26T07:16:46Z</time></trkpt><trkpt lat="46.04097554562739" lon="12.00633425803417"><ele>246.0</ele><time>2026-04-26T07:16:47Z</time></trkpt><trkpt lat="46.04105381225889" lon="12.006511436533572"><ele>246.25</ele><time>2026-04-26T07:16:48Z</time></trkpt><trkpt lat="46.04113340106883" lon="12.006684877343893"><ele>246.5</ele><time>2026-04-26T07:16:49Z</time></trkpt><trkpt lat="46.04120927749421" lon="12.006861785259565"><ele>246.75</ele><time>2026-04-26T07:16:50Z</time></trkpt><trkpt lat="46.04129573699641" lon="12.007040334896075"><ele>247.0</ele><time>2026-04-26T07:16:51Z</time></trkpt><trkpt lat="46.04136830670869" lon="12.007226840251393"><ele>247.0</ele><time>2026-04-26T07:16:52Z</time></trkpt><trkpt lat="46.04145040454776" lon="12.007412720802884"><ele>247.0</ele><time>2026-04-26T07:16:53Z</time></trkpt><trkpt lat="46.041533833905405" lon="12.007599140802037"><ele>247.0</ele><time>2026-04-26T07:16:54Z</time></trkpt><trkpt lat="46.041614299832936" lon="12.007789667811977"><ele>247.25</ele><time>2026-04-26T07:16:55Z</time></trkpt><trkpt lat="46.04169447614551" lon="12.007979573011053"><ele>247.5</ele><time>2026-04-26T07:16:56Z</time></trkpt><trkpt lat="46.04177283019624" lon="12.008164122064024"><ele>247.75</ele><time>2026-04-26T07:16:57Z</time></trkpt><trkpt lat="46.041844965939404" lon="12.00832458474136"><ele>248.0</ele><time>2026-04-26T07:16:58Z</time></trkpt><trkpt lat="46.041922041294725" lon="12.008498095954124"><ele>248.25</ele><time>2026-04-26T07:16:59Z</time></trkpt><trkpt lat="46.04200024114526" lon="12.008675883341798"><ele>248.5</ele><time>2026-04-26T07:17:00Z</time></trkpt><trkpt lat="46.042078112947905" lon="12.008854660950153"><ele>248.75</ele><time>2026-04-26T07:17:01Z</time></trkpt><trkpt lat="46.04215107676776" lon="12.009026494383095"><ele>249.0</ele><time>2026-04-26T07:17:02Z</time></trkpt><trkpt lat="46.042222856224186" lon="12.009192040870118"><ele>249.25</ele><time>2026-04-26T07:17:03Z</time></trkpt><trkpt lat="46.042299211435925" lon="12.009365759968675"><ele>249.5</ele><time>2026-04-26T07:17:04Z</time></trkpt><trkpt lat="46.04237627681374" lon="12.009540103596748"><ele>249.75</ele><time>2026-04-26T07:17:05Z</time></trkpt><trkpt lat="46.04244852842543" lon="12.009728435247364"><ele>250.0</ele><time>2026-04-26T07:17:06Z</time></trkpt><trkpt lat="46.04251495725596" lon="12.009887674230432"><ele>249.8</ele><time>2026-04-26T07:17:07Z</time></trkpt><trkpt lat="46.0425771090017" lon="12.010044908979264"><ele>249.6</ele><time>2026-04-26T07:17:08Z</time></trkpt><trkpt lat="46.042628796049115" lon="12.01018600693608"><ele>249.39999999999998</ele><time>2026-04-26T07:17:09Z</time></trkpt><trkpt lat="46.042676754196705" lon="12.01032188957254"><ele>249.2</ele><time>2026-04-26T07:17:10Z</time></trkpt><trkpt lat="46.04271484830739" lon="12.01044985115998"><ele>249.0</ele><time>2026-04-26T07:17:11Z</time></trkpt><trkpt lat="46.04274574830921" lon="12.010569375120953"><ele>249.0</ele><time>2026-04-26T07:17:12Z</time></trkpt><trkpt lat="46.042771219664" lon="12.010686672179803"><ele>249.0</ele><time>2026-04-26T07:17:13Z</time></trkpt><trkpt lat="46.04278667686531" lon="12.010795539848814"><ele>249.0</ele><time>2026-04-26T07:17:14Z</time></trkpt><trkpt lat="46.042801940651366" lon="12.01091478909999"><ele>249.0</ele><time>2026-04-26T07:17:15Z</time></trkpt><trkpt lat="46.04283493103792" lon="12.01104236727754"><ele>249.0</ele><time>2026-04-26T07:17:16Z</time></trkpt><trkpt lat="46.042891168433535" lon="12.0111690124889"><ele>249.0</ele><time>2026-04-26T07:17:17Z</time></trkpt><trkpt lat="46.04296147478254" lon="12.011304605278461"><ele>249.25</ele><time>2026-04-26T07:17:18Z</time></trkpt><trkpt lat="46.04302548910719" lon="12.011475974304814"><ele>249.5</ele><time>2026-04-26T07:17:19Z</time></trkpt><trkpt lat="46.043081880733354" lon="12.01166927938557"><ele>249.75</ele><time>2026-04-26T07:17:20Z</time></trkpt><trkpt lat="46.043143663367935" lon="12.011878789166255"><ele>250.0</ele><time>2026-04-26T07:17:21Z</time></trkpt><trkpt lat="46.04320379487075" lon="12.012079602906967"><ele>250.0</ele><time>2026-04-26T07:17:22Z</time></trkpt><trkpt lat="46.04326197208505" lon="12.012285713392627"><ele>250.0</ele><time>2026-04-26T07:17:23Z</time></trkpt><trkpt lat="46.04332104018677" lon="12.012496249647713"><ele>250.0</ele><time>2026-04-26T07:17:24Z</time></trkpt><trkpt lat="46.04337567334076" lon="12.012695528220268"><ele>250.0</ele><time>2026-04-26T07:17:25Z</time></trkpt><trkpt lat="46.043431902341915" lon="12.012887689264094"><ele>250.0</ele><time>2026-04-26T07:17:26Z</time></trkpt><trkpt lat="46.04348719566248" lon="12.013088911696418"><ele>250.0</ele><time>2026-04-26T07:17:27Z</time></trkpt><trkpt lat="46.04354397595688" lon="12.013284761861962"><ele>250.0</ele><time>2026-04-26T07:17:28Z</time></trkpt><trkpt lat="46.04360328288498" lon="12.013482522682207"><ele>250.5</ele><time>2026-04-26T07:17:29Z</time></trkpt><trkpt lat="46.0436575332921" lon="12.013681229194534"><ele>251.0</ele><time>2026-04-26T07:17:30Z</time></trkpt><trkpt lat="46.04371194761726" lon="12.013880903196776"><ele>251.5</ele><time>2026-04-26T07:17:31Z</time></trkpt><trkpt lat="46.04377095270081" lon="12.014078691188882"><ele>252.0</ele><time>2026-04-26T07:17:32Z</time></trkpt><trkpt lat="46.04382470290925" lon="12.014257760710834"><ele>253.0</ele><time>2026-04-26T07:17:33Z</time></trkpt><trkpt lat="46.043870488395115" lon="12.01442824983371"><ele>254.0</ele><time>2026-04-26T07:17:34Z</time></trkpt><trkpt lat="46.04391841852101" lon="12.014598058701814"><ele>255.0</ele><time>2026-04-26T07:17:35Z</time></trkpt><trkpt lat="46.04397255945922" lon="12.014772757167451"><ele>256.0</ele><time>2026-04-26T07:17:36Z</time></trkpt><trkpt lat="46.044025265169" lon="12.014949425447153"><ele>255.75</ele><time>2026-04-26T07:17:37Z</time></trkpt><trkpt lat="46.044072748237525" lon="12.015121378543121"><ele>255.5</ele><time>2026-04-26T07:17:38Z</time></trkpt><trkpt lat="46.04412563565148" lon="12.015303920653562"><ele>255.25</ele><time>2026-04-26T07:17:39Z</time></trkpt><trkpt lat="46.04417078488982" lon="12.015466304600412"><ele>255.0</ele><time>2026-04-26T07:17:40Z</time></trkpt><trkpt lat="46.044218811830305" lon="12.01563109469742"><ele>255.0</ele><time>2026-04-26T07:17:41Z</time></trkpt><trkpt lat="46.04426615992827" lon="12.01579170894802"><ele>255.0</ele><time>2026-04-26T07:17:42Z</time></trkpt><trkpt lat="46.0443105133329" lon="12.015947988586916"><ele>255.0</ele><time>2026-04-26T07:17:43Z</time></trkpt><trkpt lat="46.044359316815566" lon="12.016099129905879"><ele>255.0</ele><time>2026-04-26T07:17:44Z</time></trkpt><trkpt lat="46.04440086815268" lon="12.016253775910698"><ele>255.5</ele><time>2026-04-26T07:17:45Z</time></trkpt><trkpt lat="46.04444331413311" lon="12.016415750287049"><ele>256.0</ele><time>2026-04-26T07:17:46Z</time></trkpt><trkpt lat="46.044471926143224" lon="12.016584662393411"><ele>256.5</ele><time>2026-04-26T07:17:47Z</time></trkpt><trkpt lat="46.04449599036887" lon="12.016749197384312"><ele>257.0</ele><time>2026-04-26T07:17:48Z</time></trkpt><trkpt lat="46.04450595690337" lon="12.016916919621103"><ele>257.0</ele><time>2026-04-26T07:17:48.999Z</time></trkpt><trkpt lat="46.044521064690215" lon="12.017081366574411"><ele>257.0</ele><time>2026-04-26T07:17:49.999Z</time></trkpt><trkpt lat="46.04453033142381" lon="12.017249608288948"><ele>257.0</ele><time>2026-04-26T07:17:50.999Z</time></trkpt><trkpt lat="46.04453197623863" lon="12.017429304132696"><ele>257.0</ele><time>2026-04-26T07:17:51.999Z</time></trkpt><trkpt lat="46.04453290313778" lon="12.01761553374862"><ele>257.0</ele><time>2026-04-26T07:17:52.999Z</time></trkpt><trkpt lat="46.044531782129596" lon="12.017822465924446"><ele>257.0</ele><time>2026-04-26T07:17:53.999Z</time></trkpt><trkpt lat="46.04452606178375" lon="12.018035208295517"><ele>257.0</ele><time>2026-04-26T07:17:54.999Z</time></trkpt><trkpt lat="46.04452774819312" lon="12.018252592559241"><ele>257.0</ele><time>2026-04-26T07:17:55.999Z</time></trkpt><trkpt lat="46.0445300720949" lon="12.018474692892799"><ele>257.33333333333337</ele><time>2026-04-26T07:17:56.999Z</time></trkpt><trkpt lat="46.04453287287997" lon="12.018702867163764"><ele>257.6666666666667</ele><time>2026-04-26T07:17:57.999Z</time></trkpt><trkpt lat="46.04453316025219" lon="12.018926164301787"><ele>258.0</ele><time>2026-04-26T07:17:58.999Z</time></trkpt><trkpt lat="46.04453534525836" lon="12.019153304781923"><ele>258.25</ele><time>2026-04-26T07:17:59.999Z</time></trkpt><trkpt lat="46.04453560515847" lon="12.019365557246648"><ele>258.5</ele><time>2026-04-26T07:18:00.999Z</time></trkpt><trkpt lat="46.04453682706114" lon="12.019564220705725"><ele>258.75</ele><time>2026-04-26T07:18:01.999Z</time></trkpt><trkpt lat="46.044538544518154" lon="12.019759966014561"><ele>259.0</ele><time>2026-04-26T07:18:02.999Z</time></trkpt><trkpt lat="46.04454390940866" lon="12.019965504666501"><ele>259.5</ele><time>2026-04-26T07:18:03.999Z</time></trkpt><trkpt lat="46.0445623973257" lon="12.020159693975819"><ele>260.0</ele><time>2026-04-26T07:18:04.999Z</time></trkpt><trkpt lat="46.04458582269749" lon="12.020361181665601"><ele>260.5</ele><time>2026-04-26T07:18:05.999Z</time></trkpt><trkpt lat="46.04461619138208" lon="12.020549627901495"><ele>261.0</ele><time>2026-04-26T07:18:06.999Z</time></trkpt><trkpt lat="46.044655718063176" lon="12.020732844631345"><ele>261.5</ele><time>2026-04-26T07:18:07.999Z</time></trkpt><trkpt lat="46.04469323235938" lon="12.020916692753477"><ele>262.0</ele><time>2026-04-26T07:18:08.999Z</time></trkpt><trkpt lat="46.04472962511941" lon="12.021082772070915"><ele>262.5</ele><time>2026-04-26T07:18:09.999Z</time></trkpt><trkpt lat="46.04476462389907" lon="12.021241345867418"><ele>263.0</ele><time>2026-04-26T07:18:10.999Z</time></trkpt><trkpt lat="46.04480904866565" lon="12.021385064418423"><ele>263.0</ele><time>2026-04-26T07:18:11.999Z</time></trkpt><trkpt lat="46.04486557401147" lon="12.021538170874845"><ele>263.0</ele><time>2026-04-26T07:18:12.999Z</time></trkpt><trkpt lat="46.04491778063638" lon="12.02170068922334"><ele>263.0</ele><time>2026-04-26T07:18:13.999Z</time></trkpt><trkpt lat="46.04496529859309" lon="12.021854000433288"><ele>263.0</ele><time>2026-04-26T07:18:14.999Z</time></trkpt><trkpt lat="46.044997259534675" lon="12.021999157753841"><ele>262.75</ele><time>2026-04-26T07:18:15.999Z</time></trkpt><trkpt lat="46.045018602866136" lon="12.02215558182425"><ele>262.5</ele><time>2026-04-26T07:18:16.999Z</time></trkpt><trkpt lat="46.04504889214714" lon="12.022336615389365"><ele>262.25</ele><time>2026-04-26T07:18:17.999Z</time></trkpt><trkpt lat="46.04507049391109" lon="12.022531059758519"><ele>262.0</ele><time>2026-04-26T07:18:18.999Z</time></trkpt><trkpt lat="46.045109536945944" lon="12.022745217016075"><ele>262.0</ele><time>2026-04-26T07:18:19.999Z</time></trkpt><trkpt lat="46.045140212889315" lon="12.02292973119921"><ele>262.0</ele><time>2026-04-26T07:18:20.999Z</time></trkpt><trkpt lat="46.04517045852332" lon="12.023117015067575"><ele>262.0</ele><time>2026-04-26T07:18:21.999Z</time></trkpt><trkpt lat="46.04520894015818" lon="12.023325089452847"><ele>262.0</ele><time>2026-04-26T07:18:22.999Z</time></trkpt><trkpt lat="46.045244897975735" lon="12.02351562223273"><ele>262.25</ele><time>2026-04-26T07:18:23.999Z</time></trkpt><trkpt lat="46.04526667905449" lon="12.023683525381518"><ele>262.5</ele><time>2026-04-26T07:18:24.999Z</time></trkpt><trkpt lat="46.04529299015225" lon="12.023858832071907"><ele>262.75</ele><time>2026-04-26T07:18:25.999Z</time></trkpt><trkpt lat="46.04528990783145" lon="12.024058227550574"><ele>263.0</ele><time>2026-04-26T07:18:26.999Z</time></trkpt><trkpt lat="46.04530894112583" lon="12.02427182510737"><ele>263.33333333333337</ele><time>2026-04-26T07:18:27.999Z</time></trkpt><trkpt lat="46.045295709978916" lon="12.024499608712963"><ele>263.6666666666667</ele><time>2026-04-26T07:18:28.999Z</time></trkpt><trkpt lat="46.045271405146714" lon="12.024747800813488"><ele>264.0</ele><time>2026-04-26T07:18:29.999Z</time></trkpt><trkpt lat="46.045245977843514" lon="12.024964726095616"><ele>264.0</ele><time>2026-04-26T07:18:30.999Z</time></trkpt><trkpt lat="46.045228206264454" lon="12.025154892368528"><ele>264.0</ele><time>2026-04-26T07:18:31.999Z</time></trkpt><trkpt lat="46.0452105642727" lon="12.02531709047709"><ele>264.0</ele><time>2026-04-26T07:18:32.999Z</time></trkpt><trkpt lat="46.04519731019481" lon="12.025480554441154"><ele>264.0</ele><time>2026-04-26T07:18:33.999Z</time></trkpt><trkpt lat="46.04518075191128" lon="12.025651382512168"><ele>264.0</ele><time>2026-04-26T07:18:34.999Z</time></trkpt><trkpt lat="46.045162439047644" lon="12.025825806287312"><ele>264.0</ele><time>2026-04-26T07:18:35.999Z</time></trkpt><trkpt lat="46.04514676501796" lon="12.025989465532579"><ele>264.0</ele><time>2026-04-26T07:18:36.999Z</time></trkpt><trkpt lat="46.04512895204606" lon="12.026152047205533"><ele>264.0</ele><time>2026-04-26T07:18:37.999Z</time></trkpt><trkpt lat="46.0451175479048" lon="12.026316979240585"><ele>264.0</ele><time>2026-04-26T07:18:38.999Z</time></trkpt><trkpt lat="46.045109005093146" lon="12.026480397400306"><ele>264.0</ele><time>2026-04-26T07:18:39.999Z</time></trkpt><trkpt lat="46.04510053326735" lon="12.026654827983293"><ele>264.0</ele><time>2026-04-26T07:18:41Z</time></trkpt><trkpt lat="46.04512089273084" lon="12.026833418642866"><ele>264.0</ele><time>2026-04-26T07:18:42Z</time></trkpt><trkpt lat="46.045149139902804" lon="12.02701454916312"><ele>264.0</ele><time>2026-04-26T07:18:43Z</time></trkpt><trkpt lat="46.045182654761575" lon="12.027196712430674"><ele>264.0</ele><time>2026-04-26T07:18:44Z</time></trkpt><trkpt lat="46.045220224642016" lon="12.027382876257432"><ele>264.0</ele><time>2026-04-26T07:18:45Z</time></trkpt><trkpt lat="46.04525203124119" lon="12.027551594015804"><ele>264.0</ele><time>2026-04-26T07:18:46Z</time></trkpt><trkpt lat="46.045278772280604" lon="12.027730598608834"><ele>264.0</ele><time>2026-04-26T07:18:47Z</time></trkpt><trkpt lat="46.045288126204895" lon="12.027916212019594"><ele>264.0</ele><time>2026-04-26T07:18:48Z</time></trkpt><trkpt lat="46.0452790477143" lon="12.028114028759743"><ele>264.0</ele><time>2026-04-26T07:18:49Z</time></trkpt><trkpt lat="46.045266963256125" lon="12.028317302955923"><ele>264.0</ele><time>2026-04-26T07:18:50Z</time></trkpt><trkpt lat="46.04524859661762" lon="12.028517884537417"><ele>264.0</ele><time>2026-04-26T07:18:51Z</time></trkpt><trkpt lat="46.045228483189476" lon="12.028729937971637"><ele>264.0</ele><time>2026-04-26T07:18:52Z</time></trkpt><trkpt lat="46.04520906896552" lon="12.028930813803898"><ele>264.0</ele><time>2026-04-26T07:18:53Z</time></trkpt><trkpt lat="46.04518328158473" lon="12.029154113278238"><ele>264.0</ele><time>2026-04-26T07:18:54Z</time></trkpt><trkpt lat="46.0451585377635" lon="12.029366989134926"><ele>264.25</ele><time>2026-04-26T07:18:55Z</time></trkpt><trkpt lat="46.045137710364976" lon="12.02955460337131"><ele>264.5</ele><time>2026-04-26T07:18:56Z</time></trkpt><trkpt lat="46.045126589797306" lon="12.02975269537678"><ele>264.75</ele><time>2026-04-26T07:18:57Z</time></trkpt><trkpt lat="46.04510643441721" lon="12.02992972835295"><ele>265.0</ele><time>2026-04-26T07:18:58Z</time></trkpt><trkpt lat="46.04509621583735" lon="12.03010503378525"><ele>265.75</ele><time>2026-04-26T07:18:59Z</time></trkpt><trkpt lat="46.04511226266024" lon="12.030287352666143"><ele>266.5</ele><time>2026-04-26T07:19:00Z</time></trkpt><trkpt lat="46.04515902508293" lon="12.030470504851332"><ele>267.25</ele><time>2026-04-26T07:19:01Z</time></trkpt><trkpt lat="46.04523526279707" lon="12.030640880032378"><ele>268.0</ele><time>2026-04-26T07:19:02Z</time></trkpt><trkpt lat="46.04531841725548" lon="12.030787844926394"><ele>268.5</ele><time>2026-04-26T07:19:03Z</time></trkpt><trkpt lat="46.04540893774201" lon="12.030905902502449"><ele>269.0</ele><time>2026-04-26T07:19:04Z</time></trkpt><trkpt lat="46.04552793951686" lon="12.030999099027525"><ele>269.5</ele><time>2026-04-26T07:19:05Z</time></trkpt><trkpt lat="46.04566846715906" lon="12.031069999007089"><ele>270.0</ele><time>2026-04-26T07:19:06Z</time></trkpt><trkpt lat="46.045820632186526" lon="12.031153134738323"><ele>271.6666666666667</ele><time>2026-04-26T07:19:07Z</time></trkpt><trkpt lat="46.04598069174337" lon="12.031252646070781"><ele>273.33333333333337</ele><time>2026-04-26T07:19:08Z</time></trkpt><trkpt lat="46.04613617328487" lon="12.031353328408727"><ele>275.0</ele><time>2026-04-26T07:19:09Z</time></trkpt><trkpt lat="46.046265635349066" lon="12.031434839453713"><ele>275.0</ele><time>2026-04-26T07:19:10Z</time></trkpt><trkpt lat="46.04638992037505" lon="12.031509496204803"><ele>275.0</ele><time>2026-04-26T07:19:11Z</time></trkpt><trkpt lat="46.0465086813231" lon="12.031599583759574"><ele>275.0</ele><time>2026-04-26T07:19:12Z</time></trkpt><trkpt lat="46.04660021528099" lon="12.03164236643101"><ele>275.0</ele><time>2026-04-26T07:19:13Z</time></trkpt><trkpt lat="46.04668504611916" lon="12.031729175272714"><ele>276.0</ele><time>2026-04-26T07:19:14Z</time></trkpt><trkpt lat="46.04676106856338" lon="12.031860229556358"><ele>277.0</ele><time>2026-04-26T07:19:15Z</time></trkpt><trkpt lat="46.04680417781395" lon="12.032030231670202"><ele>278.0</ele><time>2026-04-26T07:19:16Z</time></trkpt><trkpt lat="46.046824150370774" lon="12.032205397062105"><ele>279.0</ele><time>2026-04-26T07:19:17Z</time></trkpt><trkpt lat="46.046842071041404" lon="12.032407106132881"><ele>279.0</ele><time>2026-04-26T07:19:18Z</time></trkpt><trkpt lat="46.046858839009" lon="12.032648572969986"><ele>279.0</ele><time>2026-04-26T07:19:19Z</time></trkpt><trkpt lat="46.04687598392887" lon="12.032915467970923"><ele>279.0</ele><time>2026-04-26T07:19:20Z</time></trkpt><trkpt lat="46.04689379370598" lon="12.033175565150378"><ele>278.6666666666667</ele><time>2026-04-26T07:19:21Z</time></trkpt><trkpt lat="46.04692443006738" lon="12.033432299866448"><ele>278.33333333333337</ele><time>2026-04-26T07:19:22Z</time></trkpt><trkpt lat="46.046936596975264" lon="12.033699996206515"><ele>278.0</ele><time>2026-04-26T07:19:23Z</time></trkpt><trkpt lat="46.04695798492015" lon="12.03395354843852"><ele>278.0</ele><time>2026-04-26T07:19:24Z</time></trkpt><trkpt lat="46.04697382129178" lon="12.03420376513097"><ele>278.0</ele><time>2026-04-26T07:19:25Z</time></trkpt><trkpt lat="46.04698680085317" lon="12.034425838095364"><ele>278.0</ele><time>2026-04-26T07:19:26Z</time></trkpt><trkpt lat="46.047004521130326" lon="12.034630818041737"><ele>278.0</ele><time>2026-04-26T07:19:27Z</time></trkpt><trkpt lat="46.04702199750633" lon="12.034827220898721"><ele>278.0</ele><time>2026-04-26T07:19:28Z</time></trkpt><trkpt lat="46.04704571738778" lon="12.03502997196687"><ele>278.0</ele><time>2026-04-26T07:19:29Z</time></trkpt><trkpt lat="46.04708949235564" lon="12.035236704692595"><ele>278.0</ele><time>2026-04-26T07:19:30Z</time></trkpt><trkpt lat="46.04715955046807" lon="12.035447961454954"><ele>278.6666666666667</ele><time>2026-04-26T07:19:31Z</time></trkpt><trkpt lat="46.047248333751234" lon="12.035668774718454"><ele>279.3333333333333</ele><time>2026-04-26T07:19:32Z</time></trkpt><trkpt lat="46.047359584719395" lon="12.035904664591806"><ele>280.0</ele><time>2026-04-26T07:19:33Z</time></trkpt><trkpt lat="46.04747630759083" lon="12.036158431050822"><ele>280.0</ele><time>2026-04-26T07:19:34Z</time></trkpt><trkpt lat="46.047603087900086" lon="12.03640526930486"><ele>280.0</ele><time>2026-04-26T07:19:35Z</time></trkpt><trkpt lat="46.04771027911855" lon="12.03664429470439"><ele>280.0</ele><time>2026-04-26T07:19:36Z</time></trkpt><trkpt lat="46.04781691225682" lon="12.036895018114938"><ele>280.3333333333333</ele><time>2026-04-26T07:19:37Z</time></trkpt><trkpt lat="46.04791119824985" lon="12.037116555802507"><ele>280.6666666666667</ele><time>2026-04-26T07:19:38Z</time></trkpt><trkpt lat="46.04799910655861" lon="12.037319293669455"><ele>281.0</ele><time>2026-04-26T07:19:39Z</time></trkpt><trkpt lat="46.04809169827704" lon="12.037528216128083"><ele>281.75</ele><time>2026-04-26T07:19:40Z</time></trkpt><trkpt lat="46.04817554109412" lon="12.037717533902363"><ele>282.5</ele><time>2026-04-26T07:19:41Z</time></trkpt><trkpt lat="46.04825204373982" lon="12.037892277226218"><ele>283.25</ele><time>2026-04-26T07:19:42Z</time></trkpt><trkpt lat="46.0483244597683" lon="12.038058183663521"><ele>284.0</ele><time>2026-04-26T07:19:43Z</time></trkpt><trkpt lat="46.04838819746812" lon="12.03821768177431"><ele>283.25</ele><time>2026-04-26T07:19:44Z</time></trkpt><trkpt lat="46.04844580665558" lon="12.038383575957946"><ele>282.5</ele><time>2026-04-26T07:19:45Z</time></trkpt><trkpt lat="46.048496200413275" lon="12.038563556546533"><ele>281.75</ele><time>2026-04-26T07:19:46Z</time></trkpt><trkpt lat="46.04853298578525" lon="12.038750491708075"><ele>281.0</ele><time>2026-04-26T07:19:47Z</time></trkpt><trkpt lat="46.0485451953538" lon="12.038929323338557"><ele>281.0</ele><time>2026-04-26T07:19:48Z</time></trkpt><trkpt lat="46.0485459123145" lon="12.039111210672074"><ele>281.0</ele><time>2026-04-26T07:19:49Z</time></trkpt><trkpt lat="46.04854123437536" lon="12.039271609890443"><ele>281.0</ele><time>2026-04-26T07:19:50Z</time></trkpt><trkpt lat="46.04854615049769" lon="12.03940274713256"><ele>281.0</ele><time>2026-04-26T07:19:51Z</time></trkpt><trkpt lat="46.04857226974371" lon="12.039510255679403"><ele>281.0</ele><time>2026-04-26T07:19:52Z</time></trkpt><trkpt lat="46.04868787183298" lon="12.03957595328255"><ele>281.0</ele><time>2026-04-26T07:19:53Z</time></trkpt><trkpt lat="46.04869073749232" lon="12.039701572046326"><ele>281.0</ele><time>2026-04-26T07:19:54Z</time></trkpt><trkpt lat="46.04876588790759" lon="12.039822946929512"><ele>281.0</ele><time>2026-04-26T07:19:54.999Z</time></trkpt><trkpt lat="46.04886843934442" lon="12.039906505779284"><ele>281.0</ele><time>2026-04-26T07:19:55.999Z</time></trkpt><trkpt lat="46.04889257293164" lon="12.040134028931556"><ele>281.0</ele><time>2026-04-26T07:19:56.999Z</time></trkpt><trkpt lat="46.04892612252378" lon="12.040322238701584"><ele>281.0</ele><time>2026-04-26T07:19:57.999Z</time></trkpt><trkpt lat="46.048954788630944" lon="12.040543128084591"><ele>281.0</ele><time>2026-04-26T07:19:58.999Z</time></trkpt><trkpt lat="46.049003714956854" lon="12.040785908881668"><ele>281.0</ele><time>2026-04-26T07:19:59.999Z</time></trkpt><trkpt lat="46.049069156579634" lon="12.041052215745667"><ele>281.0</ele><time>2026-04-26T07:20:00.999Z</time></trkpt><trkpt lat="46.04913156340995" lon="12.041312460996274"><ele>281.0</ele><time>2026-04-26T07:20:01.999Z</time></trkpt><trkpt lat="46.04919548334905" lon="12.041588652127947"><ele>281.6666666666667</ele><time>2026-04-26T07:20:02.999Z</time></trkpt><trkpt lat="46.04926762427378" lon="12.041886710375582"><ele>282.3333333333333</ele><time>2026-04-26T07:20:03.999Z</time></trkpt><trkpt lat="46.04933783479706" lon="12.042181457015264"><ele>283.0</ele><time>2026-04-26T07:20:04.999Z</time></trkpt><trkpt lat="46.049403541907026" lon="12.042477763133803"><ele>283.0</ele><time>2026-04-26T07:20:05.999Z</time></trkpt><trkpt lat="46.049462857417474" lon="12.042762163689325"><ele>283.0</ele><time>2026-04-26T07:20:06.999Z</time></trkpt><trkpt lat="46.04951479784589" lon="12.04304453085659"><ele>283.0</ele><time>2026-04-26T07:20:07.999Z</time></trkpt><trkpt lat="46.04954755159006" lon="12.04334726521078"><ele>283.0</ele><time>2026-04-26T07:20:08.999Z</time></trkpt><trkpt lat="46.0495667004426" lon="12.043657714453287"><ele>283.0</ele><time>2026-04-26T07:20:09.999Z</time></trkpt><trkpt lat="46.049579863045885" lon="12.04396409119825"><ele>283.0</ele><time>2026-04-26T07:20:10.999Z</time></trkpt><trkpt lat="46.049597496436384" lon="12.044267865761597"><ele>284.3333333333333</ele><time>2026-04-26T07:20:11.999Z</time></trkpt><trkpt lat="46.04960789040216" lon="12.044559073918386"><ele>285.6666666666667</ele><time>2026-04-26T07:20:12.999Z</time></trkpt><trkpt lat="46.049616886271835" lon="12.044855781113407"><ele>287.0</ele><time>2026-04-26T07:20:13.999Z</time></trkpt><trkpt lat="46.049626764113974" lon="12.045149760581712"><ele>287.6666666666667</ele><time>2026-04-26T07:20:14.999Z</time></trkpt><trkpt lat="46.04963440104405" lon="12.045425892710792"><ele>288.3333333333333</ele><time>2026-04-26T07:20:15.999Z</time></trkpt><trkpt lat="46.04964225520039" lon="12.045704138688338"><ele>289.0</ele><time>2026-04-26T07:20:16.999Z</time></trkpt><trkpt lat="46.0496442399099" lon="12.045985071976126"><ele>289.66666666666663</ele><time>2026-04-26T07:20:17.999Z</time></trkpt><trkpt lat="46.04963584343627" lon="12.046246006415922"><ele>290.3333333333333</ele><time>2026-04-26T07:20:18.999Z</time></trkpt><trkpt lat="46.04962505721608" lon="12.04651027059548"><ele>291.0</ele><time>2026-04-26T07:20:19.999Z</time></trkpt><trkpt lat="46.049596472769785" lon="12.046779410242634"><ele>291.6666666666667</ele><time>2026-04-26T07:20:20.999Z</time></trkpt><trkpt lat="46.049564307858425" lon="12.047051422666959"><ele>292.33333333333337</ele><time>2026-04-26T07:20:21.999Z</time></trkpt><trkpt lat="46.04951655703536" lon="12.047318473651845"><ele>293.0</ele><time>2026-04-26T07:20:22.999Z</time></trkpt><trkpt lat="46.049464639780446" lon="12.047570187716607"><ele>293.33333333333337</ele><time>2026-04-26T07:20:23.999Z</time></trkpt><trkpt lat="46.0494148410265" lon="12.047809632805771"><ele>293.6666666666667</ele><time>2026-04-26T07:20:24.999Z</time></trkpt><trkpt lat="46.04935364799828" lon="12.048044408687208"><ele>294.0</ele><time>2026-04-26T07:20:25.999Z</time></trkpt><trkpt lat="46.049296414971565" lon="12.04828954584437"><ele>295.0</ele><time>2026-04-26T07:20:26.999Z</time></trkpt><trkpt lat="46.04925687846649" lon="12.048531800937448"><ele>296.0</ele><time>2026-04-26T07:20:27.999Z</time></trkpt><trkpt lat="46.04920224602748" lon="12.048780084832874"><ele>297.0</ele><time>2026-04-26T07:20:28.999Z</time></trkpt><trkpt lat="46.04914974919942" lon="12.049021403091643"><ele>297.6666666666667</ele><time>2026-04-26T07:20:29.999Z</time></trkpt><trkpt lat="46.049097675481775" lon="12.049268197735552"><ele>298.33333333333337</ele><time>2026-04-26T07:20:30.999Z</time></trkpt><trkpt lat="46.04905285816283" lon="12.049519605024594"><ele>299.0</ele><time>2026-04-26T07:20:31.999Z</time></trkpt><trkpt lat="46.049010096523034" lon="12.049777642513632"><ele>301.0</ele><time>2026-04-26T07:20:32.999Z</time></trkpt><trkpt lat="46.04898129184609" lon="12.050041798284768"><ele>303.0</ele><time>2026-04-26T07:20:33.999Z</time></trkpt><trkpt lat="46.04895951950942" lon="12.050306297687099"><ele>305.0</ele><time>2026-04-26T07:20:34.999Z</time></trkpt><trkpt lat="46.04894042089683" lon="12.05057403761097"><ele>305.6666666666667</ele><time>2026-04-26T07:20:35.999Z</time></trkpt><trkpt lat="46.04892276659484" lon="12.050835584832086"><ele>306.3333333333333</ele><time>2026-04-26T07:20:36.999Z</time></trkpt><trkpt lat="46.0489073072832" lon="12.05109807217775"><ele>307.0</ele><time>2026-04-26T07:20:37.999Z</time></trkpt><trkpt lat="46.048889113459175" lon="12.051353457571134"><ele>307.0</ele><time>2026-04-26T07:20:38.999Z</time></trkpt><trkpt lat="46.04887495708402" lon="12.05160626022391"><ele>307.0</ele><time>2026-04-26T07:20:39.999Z</time></trkpt><trkpt lat="46.04885840823986" lon="12.051839969831262"><ele>307.0</ele><time>2026-04-26T07:20:40.999Z</time></trkpt><trkpt lat="46.04884850207035" lon="12.05205554786506"><ele>306.66666666666663</ele><time>2026-04-26T07:20:41.999Z</time></trkpt><trkpt lat="46.04883335729529" lon="12.052270389528015"><ele>306.3333333333333</ele><time>2026-04-26T07:20:42.999Z</time></trkpt><trkpt lat="46.048818833642876" lon="12.05249000104446"><ele>306.0</ele><time>2026-04-26T07:20:43.999Z</time></trkpt><trkpt lat="46.048802139568366" lon="12.052706853648363"><ele>307.0</ele><time>2026-04-26T07:20:44.999Z</time></trkpt><trkpt lat="46.0487808396714" lon="12.052945806471955"><ele>308.0</ele><time>2026-04-26T07:20:45.999Z</time></trkpt><trkpt lat="46.04874566134917" lon="12.053180807627543"><ele>309.0</ele><time>2026-04-26T07:20:47Z</time></trkpt><trkpt lat="46.04871350311183" lon="12.053390705143682"><ele>309.25</ele><time>2026-04-26T07:20:48Z</time></trkpt><trkpt lat="46.0486681940678" lon="12.053588835643277"><ele>309.5</ele><time>2026-04-26T07:20:49Z</time></trkpt><trkpt lat="46.048615573712" lon="12.053791047095435"><ele>309.75</ele><time>2026-04-26T07:20:50Z</time></trkpt><trkpt lat="46.04855860902361" lon="12.05398618883836"><ele>310.0</ele><time>2026-04-26T07:20:51Z</time></trkpt><trkpt lat="46.04849812981844" lon="12.054188249653127"><ele>310.0</ele><time>2026-04-26T07:20:52Z</time></trkpt><trkpt lat="46.048439149247386" lon="12.054394845477706"><ele>310.0</ele><time>2026-04-26T07:20:53Z</time></trkpt><trkpt lat="46.04837351362178" lon="12.05461437107627"><ele>310.0</ele><time>2026-04-26T07:20:54Z</time></trkpt><trkpt lat="46.04831917534773" lon="12.05482472326284"><ele>310.3333333333333</ele><time>2026-04-26T07:20:55Z</time></trkpt><trkpt lat="46.048264344536236" lon="12.055046523305249"><ele>310.6666666666667</ele><time>2026-04-26T07:20:56Z</time></trkpt><trkpt lat="46.048212019856095" lon="12.055268302672827"><ele>311.0</ele><time>2026-04-26T07:20:57Z</time></trkpt><trkpt lat="46.04817250114314" lon="12.055502270410251"><ele>311.0</ele><time>2026-04-26T07:20:58Z</time></trkpt><trkpt lat="46.04813982187381" lon="12.05573857696957"><ele>311.0</ele><time>2026-04-26T07:20:59Z</time></trkpt><trkpt lat="46.04810989402779" lon="12.05598564486034"><ele>311.0</ele><time>2026-04-26T07:21:00Z</time></trkpt><trkpt lat="46.04808850035383" lon="12.056244376684349"><ele>310.6666666666667</ele><time>2026-04-26T07:21:01Z</time></trkpt><trkpt lat="46.04807958826273" lon="12.056499248636147"><ele>310.3333333333333</ele><time>2026-04-26T07:21:02Z</time></trkpt><trkpt lat="46.04807500101307" lon="12.056752164402312"><ele>310.0</ele><time>2026-04-26T07:21:03Z</time></trkpt><trkpt lat="46.04806915791216" lon="12.057024150060714"><ele>310.0</ele><time>2026-04-26T07:21:04Z</time></trkpt><trkpt lat="46.0480624418402" lon="12.057289026381245"><ele>310.0</ele><time>2026-04-26T07:21:05Z</time></trkpt><trkpt lat="46.048059403145224" lon="12.057527667362656"><ele>310.0</ele><time>2026-04-26T07:21:06Z</time></trkpt><trkpt lat="46.04805251106425" lon="12.057759900704005"><ele>310.66666666666663</ele><time>2026-04-26T07:21:07Z</time></trkpt><trkpt lat="46.04804906274153" lon="12.057987735671917"><ele>311.3333333333333</ele><time>2026-04-26T07:21:08Z</time></trkpt><trkpt lat="46.04804921155796" lon="12.058211228921609"><ele>312.0</ele><time>2026-04-26T07:21:09Z</time></trkpt><trkpt lat="46.04804811156798" lon="12.058429132925562"><ele>312.25</ele><time>2026-04-26T07:21:10Z</time></trkpt><trkpt lat="46.04804245744502" lon="12.058639033549134"><ele>312.5</ele><time>2026-04-26T07:21:11Z</time></trkpt><trkpt lat="46.04803866663951" lon="12.058857734470704"><ele>312.75</ele><time>2026-04-26T07:21:12Z</time></trkpt><trkpt lat="46.04803423325368" lon="12.059056187433953"><ele>313.0</ele><time>2026-04-26T07:21:13Z</time></trkpt><trkpt lat="46.04802657011219" lon="12.059258666556335"><ele>313.25</ele><time>2026-04-26T07:21:14Z</time></trkpt><trkpt lat="46.048020864309784" lon="12.059450986920208"><ele>313.5</ele><time>2026-04-26T07:21:15Z</time></trkpt><trkpt lat="46.04801849830196" lon="12.059633503794268"><ele>313.75</ele><time>2026-04-26T07:21:16Z</time></trkpt><trkpt lat="46.048018842249455" lon="12.05981097313031"><ele>314.0</ele><time>2026-04-26T07:21:17Z</time></trkpt><trkpt lat="46.0480152417965" lon="12.05997897436927"><ele>314.59999999999997</ele><time>2026-04-26T07:21:18Z</time></trkpt><trkpt lat="46.04801319239995" lon="12.0601239475879"><ele>315.2</ele><time>2026-04-26T07:21:19Z</time></trkpt><trkpt lat="46.048005956722626" lon="12.060268177260493"><ele>315.79999999999995</ele><time>2026-04-26T07:21:20Z</time></trkpt><trkpt lat="46.04798920202375" lon="12.060399835691936"><ele>316.4</ele><time>2026-04-26T07:21:21Z</time></trkpt><trkpt lat="46.04796916910409" lon="12.060519024445691"><ele>317.0</ele><time>2026-04-26T07:21:22Z</time></trkpt><trkpt lat="46.04794268902629" lon="12.060633277264962"><ele>317.0</ele><time>2026-04-26T07:21:23Z</time></trkpt><trkpt lat="46.047915842120965" lon="12.060755938284624"><ele>317.0</ele><time>2026-04-26T07:21:24Z</time></trkpt><trkpt lat="46.047944929881076" lon="12.06089491471489"><ele>317.0</ele><time>2026-04-26T07:21:25Z</time></trkpt><trkpt lat="46.047982749937475" lon="12.061052463947812"><ele>317.0</ele><time>2026-04-26T07:21:26Z</time></trkpt><trkpt lat="46.048003664566174" lon="12.061235470688823"><ele>317.0</ele><time>2026-04-26T07:21:27Z</time></trkpt><trkpt lat="46.04800451010097" lon="12.061452276779068"><ele>315.6666666666667</ele><time>2026-04-26T07:21:28Z</time></trkpt><trkpt lat="46.04799850512256" lon="12.061685925712863"><ele>314.3333333333333</ele><time>2026-04-26T07:21:29Z</time></trkpt><trkpt lat="46.04799794444238" lon="12.061957383649013"><ele>313.0</ele><time>2026-04-26T07:21:30Z</time></trkpt><trkpt lat="46.04799405811263" lon="12.062252203886004"><ele>312.3333333333333</ele><time>2026-04-26T07:21:31Z</time></trkpt><trkpt lat="46.0479949033744" lon="12.062522307174953"><ele>311.6666666666667</ele><time>2026-04-26T07:21:32Z</time></trkpt><trkpt lat="46.04799318760886" lon="12.06280452216235"><ele>311.0</ele><time>2026-04-26T07:21:33Z</time></trkpt><trkpt lat="46.04799490983751" lon="12.063113437647917"><ele>311.0</ele><time>2026-04-26T07:21:34Z</time></trkpt><trkpt lat="46.047995713330394" lon="12.06340196738668"><ele>311.0</ele><time>2026-04-26T07:21:35Z</time></trkpt><trkpt lat="46.047993889647344" lon="12.063673151897264"><ele>311.0</ele><time>2026-04-26T07:21:36Z</time></trkpt><trkpt lat="46.04799514444641" lon="12.063948295591006"><ele>311.0</ele><time>2026-04-26T07:21:37Z</time></trkpt><trkpt lat="46.04799731215748" lon="12.064225399548251"><ele>311.0</ele><time>2026-04-26T07:21:38Z</time></trkpt><trkpt lat="46.04800153985787" lon="12.064484569511064"><ele>311.0</ele><time>2026-04-26T07:21:39Z</time></trkpt><trkpt lat="46.0480053616695" lon="12.064727609948568"><ele>312.0</ele><time>2026-04-26T07:21:40Z</time></trkpt><trkpt lat="46.04801165160246" lon="12.06498020277769"><ele>313.0</ele><time>2026-04-26T07:21:41Z</time></trkpt><trkpt lat="46.048023844892796" lon="12.06521997160137"><ele>314.0</ele><time>2026-04-26T07:21:42Z</time></trkpt><trkpt lat="46.04804844526402" lon="12.065448299185581"><ele>314.0</ele><time>2026-04-26T07:21:43Z</time></trkpt><trkpt lat="46.04809196724496" lon="12.065686535574379"><ele>314.0</ele><time>2026-04-26T07:21:44Z</time></trkpt><trkpt lat="46.04815685719868" lon="12.065928401206323"><ele>314.0</ele><time>2026-04-26T07:21:45Z</time></trkpt><trkpt lat="46.048210382329664" lon="12.066187755659643"><ele>314.0</ele><time>2026-04-26T07:21:46Z</time></trkpt><trkpt lat="46.04824929168651" lon="12.066423278087123"><ele>314.0</ele><time>2026-04-26T07:21:47Z</time></trkpt><trkpt lat="46.0483652968654" lon="12.066669011363434"><ele>314.0</ele><time>2026-04-26T07:21:48Z</time></trkpt><trkpt lat="46.048473935986046" lon="12.066898927106273"><ele>313.33333333333337</ele><time>2026-04-26T07:21:49Z</time></trkpt><trkpt lat="46.048592758240616" lon="12.067126420088648"><ele>312.6666666666667</ele><time>2026-04-26T07:21:50Z</time></trkpt><trkpt lat="46.04872742625997" lon="12.067334661028076"><ele>312.0</ele><time>2026-04-26T07:21:51Z</time></trkpt><trkpt lat="46.048875352261454" lon="12.067541743763252"><ele>311.0</ele><time>2026-04-26T07:21:52Z</time></trkpt><trkpt lat="46.04903146044323" lon="12.067732882291384"><ele>310.0</ele><time>2026-04-26T07:21:53Z</time></trkpt><trkpt lat="46.04920489068488" lon="12.067913835634672"><ele>309.0</ele><time>2026-04-26T07:21:54Z</time></trkpt><trkpt lat="46.04938767772285" lon="12.06809271470502"><ele>310.5</ele><time>2026-04-26T07:21:55Z</time></trkpt><trkpt lat="46.04957817380529" lon="12.068278070753973"><ele>312.0</ele><time>2026-04-26T07:21:55.999Z</time></trkpt><trkpt lat="46.0497648620484" lon="12.068473407224541"><ele>312.0</ele><time>2026-04-26T07:21:56.999Z</time></trkpt><trkpt lat="46.04994358647981" lon="12.068653133556786"><ele>312.0</ele><time>2026-04-26T07:21:57.999Z</time></trkpt><trkpt lat="46.05012603050496" lon="12.068834013238295"><ele>312.0</ele><time>2026-04-26T07:21:58.999Z</time></trkpt><trkpt lat="46.05030639782387" lon="12.069020782741998"><ele>312.6666666666667</ele><time>2026-04-26T07:21:59.999Z</time></trkpt><trkpt lat="46.05047666316575" lon="12.069193329118617"><ele>313.33333333333337</ele><time>2026-04-26T07:22:00.999Z</time></trkpt><trkpt lat="46.0506367803599" lon="12.069359724036525"><ele>314.0</ele><time>2026-04-26T07:22:01.999Z</time></trkpt><trkpt lat="46.05080084663339" lon="12.069529615230355"><ele>314.0</ele><time>2026-04-26T07:22:02.999Z</time></trkpt><trkpt lat="46.05096466540454" lon="12.06970250256807"><ele>314.0</ele><time>2026-04-26T07:22:03.999Z</time></trkpt><trkpt lat="46.05113190348436" lon="12.06987517369546"><ele>314.0</ele><time>2026-04-26T07:22:04.999Z</time></trkpt><trkpt lat="46.05130753097272" lon="12.070057196043992"><ele>315.0</ele><time>2026-04-26T07:22:05.999Z</time></trkpt><trkpt lat="46.05148187044636" lon="12.070235529063995"><ele>316.0</ele><time>2026-04-26T07:22:06.999Z</time></trkpt><trkpt lat="46.05164625047164" lon="12.070407179956089"><ele>317.0</ele><time>2026-04-26T07:22:07.999Z</time></trkpt><trkpt lat="46.051814414475" lon="12.070575227377198"><ele>315.33333333333337</ele><time>2026-04-26T07:22:08.999Z</time></trkpt><trkpt lat="46.05198181865098" lon="12.070744447163165"><ele>313.6666666666667</ele><time>2026-04-26T07:22:09.999Z</time></trkpt><trkpt lat="46.052148720376856" lon="12.070914343830317"><ele>312.0</ele><time>2026-04-26T07:22:10.999Z</time></trkpt><trkpt lat="46.052314024203234" lon="12.071087069250272"><ele>312.3333333333333</ele><time>2026-04-26T07:22:11.999Z</time></trkpt><trkpt lat="46.0524813913559" lon="12.071261567843308"><ele>312.66666666666663</ele><time>2026-04-26T07:22:12.999Z</time></trkpt><trkpt lat="46.05264566280023" lon="12.071430080675407"><ele>313.0</ele><time>2026-04-26T07:22:13.999Z</time></trkpt><trkpt lat="46.05281865246902" lon="12.071608445376642"><ele>313.0</ele><time>2026-04-26T07:22:14.999Z</time></trkpt><trkpt lat="46.05298908321175" lon="12.071789934524084"><ele>313.0</ele><time>2026-04-26T07:22:15.999Z</time></trkpt><trkpt lat="46.053155778409824" lon="12.071962496986695"><ele>313.0</ele><time>2026-04-26T07:22:16.999Z</time></trkpt><trkpt lat="46.053320036082546" lon="12.072130669277337"><ele>311.66666666666663</ele><time>2026-04-26T07:22:17.999Z</time></trkpt><trkpt lat="46.05348582146761" lon="12.072307075377642"><ele>310.3333333333333</ele><time>2026-04-26T07:22:18.999Z</time></trkpt><trkpt lat="46.05364742972446" lon="12.07248224764525"><ele>309.0</ele><time>2026-04-26T07:22:19.999Z</time></trkpt><trkpt lat="46.05381109493393" lon="12.07265845299961"><ele>309.0</ele><time>2026-04-26T07:22:20.999Z</time></trkpt><trkpt lat="46.05397217947186" lon="12.072829750257263"><ele>309.0</ele><time>2026-04-26T07:22:21.999Z</time></trkpt><trkpt lat="46.05413155375193" lon="12.072998738057354"><ele>309.0</ele><time>2026-04-26T07:22:22.999Z</time></trkpt><trkpt lat="46.05428968202576" lon="12.07315689716437"><ele>309.0</ele><time>2026-04-26T07:22:23.999Z</time></trkpt><trkpt lat="46.05445008787926" lon="12.07329935655289"><ele>309.0</ele><time>2026-04-26T07:22:24.999Z</time></trkpt><trkpt lat="46.05462107207784" lon="12.073427152980784"><ele>309.0</ele><time>2026-04-26T07:22:25.999Z</time></trkpt><trkpt lat="46.05479204415928" lon="12.073541739380182"><ele>307.0</ele><time>2026-04-26T07:22:26.999Z</time></trkpt><trkpt lat="46.054968906741195" lon="12.073645188115375"><ele>305.0</ele><time>2026-04-26T07:22:27.999Z</time></trkpt><trkpt lat="46.05514480026018" lon="12.073743617441686"><ele>303.0</ele><time>2026-04-26T07:22:28.999Z</time></trkpt><trkpt lat="46.05532011644684" lon="12.07384814030096"><ele>303.0</ele><time>2026-04-26T07:22:29.999Z</time></trkpt><trkpt lat="46.05549562067473" lon="12.07394650729315"><ele>303.0</ele><time>2026-04-26T07:22:30.999Z</time></trkpt><trkpt lat="46.05566693725217" lon="12.074040211656342"><ele>303.0</ele><time>2026-04-26T07:22:31.999Z</time></trkpt><trkpt lat="46.055822190547396" lon="12.074121348101153"><ele>304.3333333333333</ele><time>2026-04-26T07:22:32.999Z</time></trkpt><trkpt lat="46.05597429810613" lon="12.07419728951969"><ele>305.66666666666663</ele><time>2026-04-26T07:22:33.999Z</time></trkpt><trkpt lat="46.056129345912794" lon="12.074269490992974"><ele>307.0</ele><time>2026-04-26T07:22:34.999Z</time></trkpt><trkpt lat="46.0562806041227" lon="12.074334427293646"><ele>307.0</ele><time>2026-04-26T07:22:35.999Z</time></trkpt><trkpt lat="46.05645804305001" lon="12.07438582111134"><ele>307.0</ele><time>2026-04-26T07:22:36.999Z</time></trkpt><trkpt lat="46.056650656409005" lon="12.074428487678365"><ele>307.0</ele><time>2026-04-26T07:22:37.999Z</time></trkpt><trkpt lat="46.05684190658206" lon="12.074453696108272"><ele>307.0</ele><time>2026-04-26T07:22:38.999Z</time></trkpt><trkpt lat="46.05701093101014" lon="12.074473740595295"><ele>307.0</ele><time>2026-04-26T07:22:39.999Z</time></trkpt><trkpt lat="46.05716376467532" lon="12.074499263500025"><ele>307.0</ele><time>2026-04-26T07:22:40.999Z</time></trkpt><trkpt lat="46.057308996562945" lon="12.074524879243093"><ele>307.0</ele><time>2026-04-26T07:22:41.999Z</time></trkpt><trkpt lat="46.05744870593186" lon="12.074553376280358"><ele>307.0</ele><time>2026-04-26T07:22:42.999Z</time></trkpt><trkpt lat="46.057593069511846" lon="12.074588034418143"><ele>307.0</ele><time>2026-04-26T07:22:43.999Z</time></trkpt><trkpt lat="46.05773600030151" lon="12.074633619584015"><ele>307.0</ele><time>2026-04-26T07:22:44.999Z</time></trkpt><trkpt lat="46.05787657989613" lon="12.074715860530535"><ele>306.66666666666663</ele><time>2026-04-26T07:22:45.999Z</time></trkpt><trkpt lat="46.05801107740078" lon="12.074827093644094"><ele>306.3333333333333</ele><time>2026-04-26T07:22:46.999Z</time></trkpt><trkpt lat="46.05814162307684" lon="12.074961126355165"><ele>306.0</ele><time>2026-04-26T07:22:47.999Z</time></trkpt><trkpt lat="46.05826633462993" lon="12.075123003980455"><ele>307.6666666666667</ele><time>2026-04-26T07:22:48.999Z</time></trkpt><trkpt lat="46.05838353982471" lon="12.075297579678207"><ele>309.33333333333337</ele><time>2026-04-26T07:22:49.999Z</time></trkpt><trkpt lat="46.05849116531792" lon="12.075483949431524"><ele>311.0</ele><time>2026-04-26T07:22:50.999Z</time></trkpt><trkpt lat="46.05858686881331" lon="12.07570777976168"><ele>311.0</ele><time>2026-04-26T07:22:51.999Z</time></trkpt><trkpt lat="46.05867742064027" lon="12.075947775271398"><ele>311.0</ele><time>2026-04-26T07:22:53Z</time></trkpt><trkpt lat="46.05876241097386" lon="12.076212072574164"><ele>311.0</ele><time>2026-04-26T07:22:54Z</time></trkpt><trkpt lat="46.05885147802265" lon="12.07649452292603"><ele>312.33333333333337</ele><time>2026-04-26T07:22:55Z</time></trkpt><trkpt lat="46.058942465100074" lon="12.076793487101403"><ele>313.6666666666667</ele><time>2026-04-26T07:22:56Z</time></trkpt><trkpt lat="46.05901949330561" lon="12.077083720500536"><ele>315.0</ele><time>2026-04-26T07:22:57Z</time></trkpt><trkpt lat="46.05910936037168" lon="12.077382555844945"><ele>311.0</ele><time>2026-04-26T07:22:58Z</time></trkpt><trkpt lat="46.05920692495491" lon="12.077684506017153"><ele>307.0</ele><time>2026-04-26T07:22:59Z</time></trkpt><trkpt lat="46.05929689557061" lon="12.07797983047147"><ele>307.0</ele><time>2026-04-26T07:23:00Z</time></trkpt><trkpt lat="46.059372746553954" lon="12.078265399374105"><ele>307.0</ele><time>2026-04-26T07:23:01Z</time></trkpt><trkpt lat="46.05945664607871" lon="12.078553386116628"><ele>307.0</ele><time>2026-04-26T07:23:02Z</time></trkpt><trkpt lat="46.05953749912724" lon="12.078839015308233"><ele>306.3333333333333</ele><time>2026-04-26T07:23:03Z</time></trkpt><trkpt lat="46.05961872502753" lon="12.07912446961403"><ele>305.6666666666667</ele><time>2026-04-26T07:23:04Z</time></trkpt><trkpt lat="46.05971017226668" lon="12.079417892402795"><ele>305.0</ele><time>2026-04-26T07:23:05Z</time></trkpt><trkpt lat="46.059796968860724" lon="12.079714506191568"><ele>304.0</ele><time>2026-04-26T07:23:06Z</time></trkpt><trkpt lat="46.059882076654034" lon="12.080009647472249"><ele>303.0</ele><time>2026-04-26T07:23:07Z</time></trkpt><trkpt lat="46.0599732801736" lon="12.080313958372983"><ele>306.5</ele><time>2026-04-26T07:23:08Z</time></trkpt><trkpt lat="46.06006566819545" lon="12.080634803838391"><ele>310.0</ele><time>2026-04-26T07:23:09Z</time></trkpt><trkpt lat="46.0601634570014" lon="12.080958014176222"><ele>310.3333333333333</ele><time>2026-04-26T07:23:10Z</time></trkpt><trkpt lat="46.06024855775853" lon="12.081258394027286"><ele>310.6666666666667</ele><time>2026-04-26T07:23:11Z</time></trkpt><trkpt lat="46.06033108764109" lon="12.081552231036248"><ele>311.0</ele><time>2026-04-26T07:23:12Z</time></trkpt><trkpt lat="46.0604156619841" lon="12.08184598510663"><ele>311.6666666666667</ele><time>2026-04-26T07:23:13Z</time></trkpt><trkpt lat="46.06049742962794" lon="12.082117554373058"><ele>312.3333333333333</ele><time>2026-04-26T07:23:14Z</time></trkpt><trkpt lat="46.060576541957616" lon="12.082390077909317"><ele>313.0</ele><time>2026-04-26T07:23:15Z</time></trkpt><trkpt lat="46.06065876370445" lon="12.082669410513946"><ele>313.3333333333333</ele><time>2026-04-26T07:23:16Z</time></trkpt><trkpt lat="46.06074311238904" lon="12.082948675275114"><ele>313.6666666666667</ele><time>2026-04-26T07:23:17Z</time></trkpt><trkpt lat="46.06082152279342" lon="12.083208572591452"><ele>314.0</ele><time>2026-04-26T07:23:18Z</time></trkpt><trkpt lat="46.06089072973988" lon="12.08344182463031"><ele>314.0</ele><time>2026-04-26T07:23:19Z</time></trkpt><trkpt lat="46.06096472902119" lon="12.083671692102238"><ele>314.0</ele><time>2026-04-26T07:23:20Z</time></trkpt><trkpt lat="46.06105000624519" lon="12.083895952436597"><ele>314.0</ele><time>2026-04-26T07:23:21Z</time></trkpt><trkpt lat="46.061139685009856" lon="12.084118571670391"><ele>314.0</ele><time>2026-04-26T07:23:22Z</time></trkpt><trkpt lat="46.0612432895156" lon="12.08432588181739"><ele>314.0</ele><time>2026-04-26T07:23:23Z</time></trkpt><trkpt lat="46.0613575187114" lon="12.084513975796824"><ele>314.0</ele><time>2026-04-26T07:23:24Z</time></trkpt><trkpt lat="46.06147536773374" lon="12.08468485728173"><ele>314.0</ele><time>2026-04-26T07:23:25Z</time></trkpt><trkpt lat="46.061587835753265" lon="12.084826159101544"><ele>314.0</ele><time>2026-04-26T07:23:26Z</time></trkpt><trkpt lat="46.06169405969333" lon="12.084960463990692"><ele>314.0</ele><time>2026-04-26T07:23:27Z</time></trkpt><trkpt lat="46.061812095246815" lon="12.08505983731999"><ele>314.0</ele><time>2026-04-26T07:23:28Z</time></trkpt><trkpt lat="46.061910023252885" lon="12.085162391178166"><ele>315.25</ele><time>2026-04-26T07:23:29Z</time></trkpt><trkpt lat="46.062016268546095" lon="12.085246520103196"><ele>316.5</ele><time>2026-04-26T07:23:30Z</time></trkpt><trkpt lat="46.06211684902269" lon="12.085328352901849"><ele>317.75</ele><time>2026-04-26T07:23:31Z</time></trkpt><trkpt lat="46.06222018745138" lon="12.085401033791525"><ele>319.0</ele><time>2026-04-26T07:23:32Z</time></trkpt><trkpt lat="46.06231694909334" lon="12.085470830588777"><ele>319.0</ele><time>2026-04-26T07:23:33Z</time></trkpt><trkpt lat="46.062412618165204" lon="12.085546266996673"><ele>319.0</ele><time>2026-04-26T07:23:34Z</time></trkpt><trkpt lat="46.06250392052852" lon="12.085636002263714"><ele>319.0</ele><time>2026-04-26T07:23:35Z</time></trkpt><trkpt lat="46.06259828719119" lon="12.085741700778115"><ele>319.0</ele><time>2026-04-26T07:23:36Z</time></trkpt><trkpt lat="46.06269377654543" lon="12.085862458063021"><ele>320.75</ele><time>2026-04-26T07:23:37Z</time></trkpt><trkpt lat="46.06279354696771" lon="12.085990140871342"><ele>322.5</ele><time>2026-04-26T07:23:38Z</time></trkpt><trkpt lat="46.06289869688521" lon="12.086123216534379"><ele>324.25</ele><time>2026-04-26T07:23:39Z</time></trkpt><trkpt lat="46.06300486756693" lon="12.08626237108259"><ele>326.0</ele><time>2026-04-26T07:23:40Z</time></trkpt><trkpt lat="46.06309496682543" lon="12.086398844493115"><ele>326.0</ele><time>2026-04-26T07:23:41Z</time></trkpt><trkpt lat="46.06317878917078" lon="12.086522294612617"><ele>326.0</ele><time>2026-04-26T07:23:42Z</time></trkpt><trkpt lat="46.06326926629565" lon="12.086633588971148"><ele>326.0</ele><time>2026-04-26T07:23:43Z</time></trkpt><trkpt lat="46.06335546943887" lon="12.086743982884887"><ele>326.0</ele><time>2026-04-26T07:23:44Z</time></trkpt><trkpt lat="46.06344674419367" lon="12.08686235889152"><ele>326.0</ele><time>2026-04-26T07:23:45Z</time></trkpt><trkpt lat="46.063527871282126" lon="12.086987191496569"><ele>326.0</ele><time>2026-04-26T07:23:46Z</time></trkpt><trkpt lat="46.06359480280124" lon="12.087116895051327"><ele>326.0</ele><time>2026-04-26T07:23:47Z</time></trkpt><trkpt lat="46.06365311236682" lon="12.087258083348104"><ele>326.0</ele><time>2026-04-26T07:23:48Z</time></trkpt><trkpt lat="46.063695282038466" lon="12.087399233206973"><ele>326.4</ele><time>2026-04-26T07:23:49Z</time></trkpt><trkpt lat="46.063734692729525" lon="12.087534748624273"><ele>326.8</ele><time>2026-04-26T07:23:50Z</time></trkpt><trkpt lat="46.06376041932778" lon="12.087665003848462"><ele>327.2</ele><time>2026-04-26T07:23:51Z</time></trkpt><trkpt lat="46.06379123459408" lon="12.087804021205738"><ele>327.59999999999997</ele><time>2026-04-26T07:23:52Z</time></trkpt><trkpt lat="46.06382133217305" lon="12.087938950711003"><ele>328.0</ele><time>2026-04-26T07:23:53Z</time></trkpt><trkpt lat="46.063847805339094" lon="12.08807538623394"><ele>328.0</ele><time>2026-04-26T07:23:54Z</time></trkpt><trkpt lat="46.06387757193104" lon="12.088219196107325"><ele>328.0</ele><time>2026-04-26T07:23:55Z</time></trkpt><trkpt lat="46.06390665555696" lon="12.088372101024682"><ele>328.0</ele><time>2026-04-26T07:23:56Z</time></trkpt><trkpt lat="46.06393430579027" lon="12.08852305025653"><ele>328.0</ele><time>2026-04-26T07:23:57Z</time></trkpt><trkpt lat="46.063960441047634" lon="12.088662961650527"><ele>328.0</ele><time>2026-04-26T07:23:58Z</time></trkpt><trkpt lat="46.063985572555715" lon="12.088797862921428"><ele>327.59999999999997</ele><time>2026-04-26T07:23:59Z</time></trkpt><trkpt lat="46.06400848845571" lon="12.088921928037086"><ele>327.2</ele><time>2026-04-26T07:24:00Z</time></trkpt><trkpt lat="46.06402888063423" lon="12.089044611323805"><ele>326.8</ele><time>2026-04-26T07:24:01Z</time></trkpt><trkpt lat="46.06405268278557" lon="12.089170915966694"><ele>326.4</ele><time>2026-04-26T07:24:02Z</time></trkpt><trkpt lat="46.06408335243653" lon="12.089302775975645"><ele>326.0</ele><time>2026-04-26T07:24:03Z</time></trkpt><trkpt lat="46.06411097142768" lon="12.089422751291293"><ele>324.8</ele><time>2026-04-26T07:24:04Z</time></trkpt><trkpt lat="46.06414006513648" lon="12.089543440599984"><ele>323.6</ele><time>2026-04-26T07:24:05Z</time></trkpt><trkpt lat="46.0641616907402" lon="12.0896676452574"><ele>322.4</ele><time>2026-04-26T07:24:05.999Z</time></trkpt><trkpt lat="46.06418389480219" lon="12.089789978024168"><ele>321.2</ele><time>2026-04-26T07:24:06.999Z</time></trkpt><trkpt lat="46.06420962321189" lon="12.089916278697533"><ele>320.0</ele><time>2026-04-26T07:24:07.999Z</time></trkpt><trkpt lat="46.064241021622905" lon="12.090054590660769"><ele>320.0</ele><time>2026-04-26T07:24:08.999Z</time></trkpt><trkpt lat="46.06427418967137" lon="12.090217310246423"><ele>320.0</ele><time>2026-04-26T07:24:09.999Z</time></trkpt><trkpt lat="46.06431579379639" lon="12.09041070222234"><ele>320.0</ele><time>2026-04-26T07:24:10.999Z</time></trkpt><trkpt lat="46.06436114930057" lon="12.090630617714824"><ele>320.0</ele><time>2026-04-26T07:24:11.999Z</time></trkpt><trkpt lat="46.06441629318643" lon="12.090891764414264"><ele>320.0</ele><time>2026-04-26T07:24:12.999Z</time></trkpt><trkpt lat="46.06447267772723" lon="12.091181558114853"><ele>320.0</ele><time>2026-04-26T07:24:13.999Z</time></trkpt><trkpt lat="46.06451998933391" lon="12.091436192647844"><ele>320.0</ele><time>2026-04-26T07:24:14.999Z</time></trkpt><trkpt lat="46.064563743470096" lon="12.09166098986717"><ele>319.75</ele><time>2026-04-26T07:24:15.999Z</time></trkpt><trkpt lat="46.064606757866486" lon="12.09186693846004"><ele>319.5</ele><time>2026-04-26T07:24:16.999Z</time></trkpt><trkpt lat="46.064646289121626" lon="12.09206716213669"><ele>319.25</ele><time>2026-04-26T07:24:17.999Z</time></trkpt><trkpt lat="46.064688510203126" lon="12.092266708051051"><ele>319.0</ele><time>2026-04-26T07:24:18.999Z</time></trkpt><trkpt lat="46.06472947925473" lon="12.092467949520941"><ele>318.5</ele><time>2026-04-26T07:24:19.999Z</time></trkpt><trkpt lat="46.064767210365574" lon="12.092670685448926"><ele>318.0</ele><time>2026-04-26T07:24:20.999Z</time></trkpt><trkpt lat="46.064808252836926" lon="12.0928779493859"><ele>317.5</ele><time>2026-04-26T07:24:21.999Z</time></trkpt><trkpt lat="46.06484949704014" lon="12.09307465598848"><ele>317.0</ele><time>2026-04-26T07:24:22.999Z</time></trkpt><trkpt lat="46.06488789542188" lon="12.093254046380713"><ele>317.0</ele><time>2026-04-26T07:24:23.999Z</time></trkpt><trkpt lat="46.06492720983384" lon="12.093449485321539"><ele>317.0</ele><time>2026-04-26T07:24:24.999Z</time></trkpt><trkpt lat="46.064963880845156" lon="12.093642281807938"><ele>317.0</ele><time>2026-04-26T07:24:25.999Z</time></trkpt><trkpt lat="46.06500829983055" lon="12.093836951085596"><ele>317.0</ele><time>2026-04-26T07:24:26.999Z</time></trkpt><trkpt lat="46.06504566806973" lon="12.094028096459544"><ele>318.0</ele><time>2026-04-26T07:24:27.999Z</time></trkpt><trkpt lat="46.06508437135479" lon="12.094204328299154"><ele>319.0</ele><time>2026-04-26T07:24:28.999Z</time></trkpt><trkpt lat="46.06512069625107" lon="12.094383517406808"><ele>320.0</ele><time>2026-04-26T07:24:29.999Z</time></trkpt><trkpt lat="46.06515375822602" lon="12.094560141905529"><ele>321.0</ele><time>2026-04-26T07:24:30.999Z</time></trkpt><trkpt lat="46.0651873539714" lon="12.094737225306428"><ele>321.0</ele><time>2026-04-26T07:24:31.999Z</time></trkpt><trkpt lat="46.06522467507834" lon="12.094905232872385"><ele>321.0</ele><time>2026-04-26T07:24:32.999Z</time></trkpt><trkpt lat="46.06526352214623" lon="12.095081122674081"><ele>321.0</ele><time>2026-04-26T07:24:33.999Z</time></trkpt><trkpt lat="46.06530193558265" lon="12.095260773547215"><ele>321.0</ele><time>2026-04-26T07:24:34.999Z</time></trkpt><trkpt lat="46.06533918916507" lon="12.095444689902443"><ele>321.25</ele><time>2026-04-26T07:24:35.999Z</time></trkpt><trkpt lat="46.06537663627895" lon="12.095630078184156"><ele>321.5</ele><time>2026-04-26T07:24:36.999Z</time></trkpt><trkpt lat="46.06540346231354" lon="12.095805807826698"><ele>321.75</ele><time>2026-04-26T07:24:37.999Z</time></trkpt><trkpt lat="46.06544918951669" lon="12.095979313379253"><ele>322.0</ele><time>2026-04-26T07:24:38.999Z</time></trkpt><trkpt lat="46.06548467374345" lon="12.09616635863845"><ele>322.5</ele><time>2026-04-26T07:24:39.999Z</time></trkpt><trkpt lat="46.06552940756264" lon="12.096351066008424"><ele>323.0</ele><time>2026-04-26T07:24:40.999Z</time></trkpt><trkpt lat="46.065569656004925" lon="12.096547990479175"><ele>323.5</ele><time>2026-04-26T07:24:41.999Z</time></trkpt><trkpt lat="46.06559584410266" lon="12.096757681168635"><ele>324.0</ele><time>2026-04-26T07:24:42.999Z</time></trkpt><trkpt lat="46.06562851116553" lon="12.096969309265788"><ele>324.0</ele><time>2026-04-26T07:24:43.999Z</time></trkpt><trkpt lat="46.06566284171662" lon="12.097184855316826"><ele>324.0</ele><time>2026-04-26T07:24:44.999Z</time></trkpt><trkpt lat="46.06571429694154" lon="12.097409593418666"><ele>324.0</ele><time>2026-04-26T07:24:45.999Z</time></trkpt><trkpt lat="46.06578044223679" lon="12.09764503961535"><ele>323.6666666666667</ele><time>2026-04-26T07:24:46.999Z</time></trkpt><trkpt lat="46.06582378871666" lon="12.097881408708679"><ele>323.33333333333337</ele><time>2026-04-26T07:24:47.999Z</time></trkpt><trkpt lat="46.065878196576854" lon="12.098119915635401"><ele>323.0</ele><time>2026-04-26T07:24:48.999Z</time></trkpt><trkpt lat="46.065926110716276" lon="12.098359204725218"><ele>322.6666666666667</ele><time>2026-04-26T07:24:49.999Z</time></trkpt><trkpt lat="46.065971067837175" lon="12.098579551036476"><ele>322.3333333333333</ele><time>2026-04-26T07:24:50.999Z</time></trkpt><trkpt lat="46.06601136951917" lon="12.098788854869438"><ele>322.0</ele><time>2026-04-26T07:24:51.999Z</time></trkpt><trkpt lat="46.066077153202365" lon="12.099070680104635"><ele>323.0</ele><time>2026-04-26T07:24:52.999Z</time></trkpt><trkpt lat="46.066125742630476" lon="12.099315465051276"><ele>324.0</ele><time>2026-04-26T07:24:53.999Z</time></trkpt><trkpt lat="46.06617647439311" lon="12.099551642436113"><ele>325.0</ele><time>2026-04-26T07:24:54.999Z</time></trkpt><trkpt lat="46.06622416615363" lon="12.099781074931068"><ele>325.66666666666663</ele><time>2026-04-26T07:24:55.999Z</time></trkpt><trkpt lat="46.06628065298301" lon="12.100035331725234"><ele>326.3333333333333</ele><time>2026-04-26T07:24:56.999Z</time></trkpt><trkpt lat="46.06634607870527" lon="12.100300790769392"><ele>327.0</ele><time>2026-04-26T07:24:57.999Z</time></trkpt><trkpt lat="46.06640587911324" lon="12.100544466057583"><ele>327.0</ele><time>2026-04-26T07:24:59Z</time></trkpt><trkpt lat="46.06646696496808" lon="12.10079302467831"><ele>327.0</ele><time>2026-04-26T07:25:00Z</time></trkpt><trkpt lat="46.06652411523943" lon="12.101030545151518"><ele>327.0</ele><time>2026-04-26T07:25:01Z</time></trkpt><trkpt lat="46.06657729904035" lon="12.101271350944403"><ele>327.0</ele><time>2026-04-26T07:25:02Z</time></trkpt><trkpt lat="46.066636611748216" lon="12.10151555370934"><ele>327.0</ele><time>2026-04-26T07:25:03Z</time></trkpt><trkpt lat="46.06669536195576" lon="12.101761470709713"><ele>327.0</ele><time>2026-04-26T07:25:04Z</time></trkpt><trkpt lat="46.066755693863044" lon="12.102003003548532"><ele>327.3333333333333</ele><time>2026-04-26T07:25:05Z</time></trkpt><trkpt lat="46.06681587201127" lon="12.10222135045237"><ele>327.66666666666663</ele><time>2026-04-26T07:25:06Z</time></trkpt><trkpt lat="46.06687213943228" lon="12.10243448314805"><ele>328.0</ele><time>2026-04-26T07:25:07Z</time></trkpt><trkpt lat="46.06692968726131" lon="12.102661333022784"><ele>328.3333333333333</ele><time>2026-04-26T07:25:08Z</time></trkpt><trkpt lat="46.06698240070696" lon="12.102880071596354"><ele>328.6666666666667</ele><time>2026-04-26T07:25:09Z</time></trkpt><trkpt lat="46.06703855767331" lon="12.103100030395993"><ele>329.0</ele><time>2026-04-26T07:25:10Z</time></trkpt><trkpt lat="46.067098543485315" lon="12.103345874381986"><ele>329.33333333333337</ele><time>2026-04-26T07:25:11Z</time></trkpt><trkpt lat="46.06716583671262" lon="12.103619476198183"><ele>329.6666666666667</ele><time>2026-04-26T07:25:12Z</time></trkpt><trkpt lat="46.06723140460773" lon="12.103879187811648"><ele>330.0</ele><time>2026-04-26T07:25:13Z</time></trkpt><trkpt lat="46.06729483529001" lon="12.104103317812141"><ele>330.6666666666667</ele><time>2026-04-26T07:25:14Z</time></trkpt><trkpt lat="46.0673502155712" lon="12.104339875344117"><ele>331.33333333333337</ele><time>2026-04-26T07:25:15Z</time></trkpt><trkpt lat="46.06741095540925" lon="12.104585138756029"><ele>332.0</ele><time>2026-04-26T07:25:16Z</time></trkpt><trkpt lat="46.067473662460955" lon="12.104841123458419"><ele>332.0</ele><time>2026-04-26T07:25:17Z</time></trkpt><trkpt lat="46.067542709286535" lon="12.105110068945116"><ele>332.0</ele><time>2026-04-26T07:25:18Z</time></trkpt><trkpt lat="46.06760638042824" lon="12.10536840865549"><ele>332.0</ele><time>2026-04-26T07:25:19Z</time></trkpt><trkpt lat="46.06766761531845" lon="12.105612257216853"><ele>332.6666666666667</ele><time>2026-04-26T07:25:20Z</time></trkpt><trkpt lat="46.06773294458943" lon="12.105869966718663"><ele>333.3333333333333</ele><time>2026-04-26T07:25:21Z</time></trkpt><trkpt lat="46.06780007311149" lon="12.10612781103682"><ele>334.0</ele><time>2026-04-26T07:25:22Z</time></trkpt><trkpt lat="46.06786617266655" lon="12.106394628472753"><ele>334.66666666666663</ele><time>2026-04-26T07:25:23Z</time></trkpt><trkpt lat="46.06793391042769" lon="12.106658202975646"><ele>335.3333333333333</ele><time>2026-04-26T07:25:24Z</time></trkpt><trkpt lat="46.06800327954203" lon="12.10692967701033"><ele>336.0</ele><time>2026-04-26T07:25:25Z</time></trkpt><trkpt lat="46.06807106925597" lon="12.10720033519909"><ele>335.6666666666667</ele><time>2026-04-26T07:25:26Z</time></trkpt><trkpt lat="46.068141157095354" lon="12.107475154709629"><ele>335.33333333333337</ele><time>2026-04-26T07:25:27Z</time></trkpt><trkpt lat="46.06821035760461" lon="12.107740494266645"><ele>335.0</ele><time>2026-04-26T07:25:28Z</time></trkpt><trkpt lat="46.06827263736009" lon="12.107990840487858"><ele>334.6666666666667</ele><time>2026-04-26T07:25:29Z</time></trkpt><trkpt lat="46.06833530895901" lon="12.108240274816568"><ele>334.3333333333333</ele><time>2026-04-26T07:25:30Z</time></trkpt><trkpt lat="46.068395435683584" lon="12.108480182907853"><ele>334.0</ele><time>2026-04-26T07:25:31Z</time></trkpt><trkpt lat="46.06845684162001" lon="12.108721923158951"><ele>334.66666666666663</ele><time>2026-04-26T07:25:32Z</time></trkpt><trkpt lat="46.06851661658942" lon="12.108967436463908"><ele>335.3333333333333</ele><time>2026-04-26T07:25:33Z</time></trkpt><trkpt lat="46.0685744588883" lon="12.109219380801706"><ele>336.0</ele><time>2026-04-26T07:25:34Z</time></trkpt><trkpt lat="46.06862734871558" lon="12.109480688189613"><ele>336.3333333333333</ele><time>2026-04-26T07:25:35Z</time></trkpt><trkpt lat="46.06867406126831" lon="12.109741115406738"><ele>336.66666666666663</ele><time>2026-04-26T07:25:36Z</time></trkpt><trkpt lat="46.06871277679637" lon="12.110002506033304"><ele>337.0</ele><time>2026-04-26T07:25:37Z</time></trkpt><trkpt lat="46.068743925389306" lon="12.110272835741817"><ele>337.0</ele><time>2026-04-26T07:25:38Z</time></trkpt><trkpt lat="46.06876949836097" lon="12.11054284545163"><ele>337.0</ele><time>2026-04-26T07:25:39Z</time></trkpt><trkpt lat="46.068789242611665" lon="12.110814036498095"><ele>337.0</ele><time>2026-04-26T07:25:40Z</time></trkpt><trkpt lat="46.068807287693204" lon="12.11108601502749"><ele>338.0</ele><time>2026-04-26T07:25:41Z</time></trkpt><trkpt lat="46.068828367585866" lon="12.111361093692587"><ele>339.0</ele><time>2026-04-26T07:25:42Z</time></trkpt><trkpt lat="46.06884791527301" lon="12.111635171571907"><ele>340.0</ele><time>2026-04-26T07:25:43Z</time></trkpt><trkpt lat="46.068869004404064" lon="12.111905431238998"><ele>342.0</ele><time>2026-04-26T07:25:44Z</time></trkpt><trkpt lat="46.06890182390258" lon="12.112184889029914"><ele>344.0</ele><time>2026-04-26T07:25:45Z</time></trkpt><trkpt lat="46.06892456997973" lon="12.112463982519015"><ele>346.0</ele><time>2026-04-26T07:25:46Z</time></trkpt><trkpt lat="46.06894534381622" lon="12.112743270672047"><ele>347.3333333333333</ele><time>2026-04-26T07:25:47Z</time></trkpt><trkpt lat="46.0689642294407" lon="12.113024367744282"><ele>348.6666666666667</ele><time>2026-04-26T07:25:48Z</time></trkpt><trkpt lat="46.06897482608259" lon="12.113299357655437"><ele>350.0</ele><time>2026-04-26T07:25:49Z</time></trkpt><trkpt lat="46.06900512620657" lon="12.113595405712521"><ele>349.6666666666667</ele><time>2026-04-26T07:25:50Z</time></trkpt><trkpt lat="46.06902370297642" lon="12.113895582265165"><ele>349.3333333333333</ele><time>2026-04-26T07:25:51Z</time></trkpt><trkpt lat="46.06904785582863" lon="12.114197389576406"><ele>349.0</ele><time>2026-04-26T07:25:52Z</time></trkpt><trkpt lat="46.06906680816785" lon="12.114507413073495"><ele>349.0</ele><time>2026-04-26T07:25:53Z</time></trkpt><trkpt lat="46.069088688374606" lon="12.114799870697736"><ele>349.0</ele><time>2026-04-26T07:25:54Z</time></trkpt><trkpt lat="46.06910536855726" lon="12.115086573001177"><ele>349.0</ele><time>2026-04-26T07:25:55Z</time></trkpt><trkpt lat="46.06912542806326" lon="12.115365439244488"><ele>346.0</ele><time>2026-04-26T07:25:56Z</time></trkpt><trkpt lat="46.06914615895607" lon="12.115644263058806"><ele>343.0</ele><time>2026-04-26T07:25:57Z</time></trkpt><trkpt lat="46.069168012714584" lon="12.115924320733239"><ele>340.0</ele><time>2026-04-26T07:25:58Z</time></trkpt><trkpt lat="46.06919368773814" lon="12.116207448837786"><ele>337.66666666666663</ele><time>2026-04-26T07:25:59Z</time></trkpt><trkpt lat="46.069226183193244" lon="12.116483819816105"><ele>335.3333333333333</ele><time>2026-04-26T07:26:00Z</time></trkpt><trkpt lat="46.06927028813684" lon="12.116760938880377"><ele>333.0</ele><time>2026-04-26T07:26:01Z</time></trkpt><trkpt lat="46.069323593401016" lon="12.117034735331384"><ele>332.6666666666667</ele><time>2026-04-26T07:26:02Z</time></trkpt><trkpt lat="46.06938335758861" lon="12.117301969611614"><ele>332.33333333333337</ele><time>2026-04-26T07:26:03Z</time></trkpt><trkpt lat="46.06944678788946" lon="12.11757703085871"><ele>332.0</ele><time>2026-04-26T07:26:04Z</time></trkpt><trkpt lat="46.06951866042677" lon="12.117840312491746"><ele>334.6666666666667</ele><time>2026-04-26T07:26:04.999Z</time></trkpt><trkpt lat="46.06960269684851" lon="12.118100783133338"><ele>337.3333333333333</ele><time>2026-04-26T07:26:05.999Z</time></trkpt><trkpt lat="46.06969084407403" lon="12.118340964155676"><ele>340.0</ele><time>2026-04-26T07:26:06.999Z</time></trkpt><trkpt lat="46.06978354945159" lon="12.118575065860307"><ele>340.66666666666663</ele><time>2026-04-26T07:26:07.999Z</time></trkpt><trkpt lat="46.069884980570755" lon="12.11881638489954"><ele>341.3333333333333</ele><time>2026-04-26T07:26:08.999Z</time></trkpt><trkpt lat="46.06998867365075" lon="12.119062528341017"><ele>342.0</ele><time>2026-04-26T07:26:09.999Z</time></trkpt><trkpt lat="46.070083178558946" lon="12.119300409852519"><ele>342.3333333333333</ele><time>2026-04-26T07:26:10.999Z</time></trkpt><trkpt lat="46.07017895308596" lon="12.119537464392893"><ele>342.66666666666663</ele><time>2026-04-26T07:26:11.999Z</time></trkpt><trkpt lat="46.070272453737516" lon="12.119775741360355"><ele>343.0</ele><time>2026-04-26T07:26:12.999Z</time></trkpt><trkpt lat="46.07037091623939" lon="12.120011472628425"><ele>343.0</ele><time>2026-04-26T07:26:13.999Z</time></trkpt><trkpt lat="46.0704657428852" lon="12.120236768092983"><ele>343.0</ele><time>2026-04-26T07:26:14.999Z</time></trkpt><trkpt lat="46.070549439145815" lon="12.120459121346764"><ele>343.0</ele><time>2026-04-26T07:26:15.999Z</time></trkpt><trkpt lat="46.07062531969692" lon="12.120697073081082"><ele>344.0</ele><time>2026-04-26T07:26:16.999Z</time></trkpt><trkpt lat="46.07069476808973" lon="12.120936836809818"><ele>345.0</ele><time>2026-04-26T07:26:17.999Z</time></trkpt><trkpt lat="46.07076835965913" lon="12.121183324275993"><ele>346.0</ele><time>2026-04-26T07:26:18.999Z</time></trkpt><trkpt lat="46.07083721831421" lon="12.121425615829157"><ele>344.66666666666663</ele><time>2026-04-26T07:26:19.999Z</time></trkpt><trkpt lat="46.070905491739566" lon="12.121682977631995"><ele>343.3333333333333</ele><time>2026-04-26T07:26:20.999Z</time></trkpt><trkpt lat="46.070975272957945" lon="12.121936700689028"><ele>342.0</ele><time>2026-04-26T07:26:21.999Z</time></trkpt><trkpt lat="46.07103881511574" lon="12.122172852004171"><ele>342.0</ele><time>2026-04-26T07:26:22.999Z</time></trkpt><trkpt lat="46.0711063152111" lon="12.122421343351066"><ele>342.0</ele><time>2026-04-26T07:26:23.999Z</time></trkpt><trkpt lat="46.071176565489345" lon="12.122685044421885"><ele>342.0</ele><time>2026-04-26T07:26:24.999Z</time></trkpt><trkpt lat="46.07123947631545" lon="12.12291906444668"><ele>342.0</ele><time>2026-04-26T07:26:25.999Z</time></trkpt><trkpt lat="46.07129201755129" lon="12.123151299103286"><ele>342.0</ele><time>2026-04-26T07:26:26.999Z</time></trkpt><trkpt lat="46.0713511550249" lon="12.123370002577557"><ele>342.0</ele><time>2026-04-26T07:26:27.999Z</time></trkpt><trkpt lat="46.071415288873276" lon="12.123594349905558"><ele>342.6666666666667</ele><time>2026-04-26T07:26:28.999Z</time></trkpt><trkpt lat="46.07147347272543" lon="12.123825495074364"><ele>343.33333333333337</ele><time>2026-04-26T07:26:29.999Z</time></trkpt><trkpt lat="46.07153577478431" lon="12.124047291655465"><ele>344.0</ele><time>2026-04-26T07:26:30.999Z</time></trkpt><trkpt lat="46.07158104456078" lon="12.124236545636219"><ele>344.25</ele><time>2026-04-26T07:26:31.999Z</time></trkpt><trkpt lat="46.07164637949813" lon="12.124386658394371"><ele>344.5</ele><time>2026-04-26T07:26:32.999Z</time></trkpt><trkpt lat="46.07169751407926" lon="12.124580799034627"><ele>344.75</ele><time>2026-04-26T07:26:33.999Z</time></trkpt><trkpt lat="46.07171354619277" lon="12.124757690045007"><ele>345.0</ele><time>2026-04-26T07:26:34.999Z</time></trkpt><trkpt lat="46.071773828017506" lon="12.124965872014005"><ele>345.0</ele><time>2026-04-26T07:26:35.999Z</time></trkpt><trkpt lat="46.07182790344834" lon="12.125165575763885"><ele>345.0</ele><time>2026-04-26T07:26:36.999Z</time></trkpt><trkpt lat="46.071885349904285" lon="12.12537362335644"><ele>345.0</ele><time>2026-04-26T07:26:37.999Z</time></trkpt><trkpt lat="46.07194079348825" lon="12.125584303829898"><ele>345.6666666666667</ele><time>2026-04-26T07:26:38.999Z</time></trkpt><trkpt lat="46.07199725100616" lon="12.12580006648265"><ele>346.33333333333337</ele><time>2026-04-26T07:26:39.999Z</time></trkpt><trkpt lat="46.072054680790664" lon="12.12603104152519"><ele>347.0</ele><time>2026-04-26T07:26:40.999Z</time></trkpt><trkpt lat="46.072110801436" lon="12.126253059845407"><ele>347.0</ele><time>2026-04-26T07:26:41.999Z</time></trkpt><trkpt lat="46.07216538392111" lon="12.126445248908071"><ele>347.0</ele><time>2026-04-26T07:26:42.999Z</time></trkpt><trkpt lat="46.072215089391634" lon="12.12662662983194"><ele>347.0</ele><time>2026-04-26T07:26:43.999Z</time></trkpt><trkpt lat="46.07226057979477" lon="12.126802532792283"><ele>347.0</ele><time>2026-04-26T07:26:44.999Z</time></trkpt><trkpt lat="46.072301353877144" lon="12.126975270099207"><ele>347.25</ele><time>2026-04-26T07:26:45.999Z</time></trkpt><trkpt lat="46.07234613460578" lon="12.127142807273074"><ele>347.5</ele><time>2026-04-26T07:26:46.999Z</time></trkpt><trkpt lat="46.072392086168875" lon="12.12731151081572"><ele>347.75</ele><time>2026-04-26T07:26:47.999Z</time></trkpt><trkpt lat="46.072442202880644" lon="12.127494794901745"><ele>348.0</ele><time>2026-04-26T07:26:48.999Z</time></trkpt><trkpt lat="46.07249094356241" lon="12.127683332350184"><ele>347.5</ele><time>2026-04-26T07:26:49.999Z</time></trkpt><trkpt lat="46.07254030014257" lon="12.127872598700982"><ele>347.0</ele><time>2026-04-26T07:26:50.999Z</time></trkpt><trkpt lat="46.07259100147866" lon="12.128073121679153"><ele>346.5</ele><time>2026-04-26T07:26:51.999Z</time></trkpt><trkpt lat="46.07263859997906" lon="12.128272846466045"><ele>346.0</ele><time>2026-04-26T07:26:52.999Z</time></trkpt><trkpt lat="46.072692264138546" lon="12.128477709957968"><ele>346.0</ele><time>2026-04-26T07:26:53.999Z</time></trkpt><trkpt lat="46.072749294798584" lon="12.128680349355127"><ele>346.0</ele><time>2026-04-26T07:26:54.999Z</time></trkpt><trkpt lat="46.07280121220206" lon="12.128885189244176"><ele>346.0</ele><time>2026-04-26T07:26:55.999Z</time></trkpt><trkpt lat="46.07285353463552" lon="12.129084363915055"><ele>345.75</ele><time>2026-04-26T07:26:56.999Z</time></trkpt><trkpt lat="46.07290118491608" lon="12.129266908072047"><ele>345.5</ele><time>2026-04-26T07:26:57.999Z</time></trkpt><trkpt lat="46.07295467935845" lon="12.129458963035727"><ele>345.25</ele><time>2026-04-26T07:26:58.999Z</time></trkpt><trkpt lat="46.07300286996925" lon="12.12965007414336"><ele>345.0</ele><time>2026-04-26T07:26:59.999Z</time></trkpt><trkpt lat="46.07304960048723" lon="12.129828212031757"><ele>345.5</ele><time>2026-04-26T07:27:00.999Z</time></trkpt><trkpt lat="46.07308817040806" lon="12.130006766878575"><ele>346.0</ele><time>2026-04-26T07:27:01.999Z</time></trkpt><trkpt lat="46.073134807403235" lon="12.130177382440642"><ele>346.5</ele><time>2026-04-26T07:27:02.999Z</time></trkpt><trkpt lat="46.07318211927883" lon="12.130356305807739"><ele>347.0</ele><time>2026-04-26T07:27:03.999Z</time></trkpt><trkpt lat="46.0732312827598" lon="12.130537474304802"><ele>347.0</ele><time>2026-04-26T07:27:05Z</time></trkpt><trkpt lat="46.073281237396735" lon="12.130723967745794"><ele>347.0</ele><time>2026-04-26T07:27:06Z</time></trkpt><trkpt lat="46.073329723934364" lon="12.130905718344732"><ele>347.0</ele><time>2026-04-26T07:27:07Z</time></trkpt><trkpt lat="46.07337770105871" lon="12.131073733068137"><ele>347.0</ele><time>2026-04-26T07:27:08Z</time></trkpt><trkpt lat="46.07342457099258" lon="12.131240897484242"><ele>347.0</ele><time>2026-04-26T07:27:09Z</time></trkpt><trkpt lat="46.07347117125025" lon="12.13141419787503"><ele>347.0</ele><time>2026-04-26T07:27:10Z</time></trkpt><trkpt lat="46.073515600584706" lon="12.13158317301784"><ele>347.0</ele><time>2026-04-26T07:27:11Z</time></trkpt><trkpt lat="46.073553163134775" lon="12.1317394612172"><ele>347.0</ele><time>2026-04-26T07:27:12Z</time></trkpt><trkpt lat="46.07359063032682" lon="12.13188328866219"><ele>347.1666666666667</ele><time>2026-04-26T07:27:13Z</time></trkpt><trkpt lat="46.07362538828358" lon="12.13201437287436"><ele>347.33333333333337</ele><time>2026-04-26T07:27:14Z</time></trkpt><trkpt lat="46.073658184725986" lon="12.132135629250214"><ele>347.5</ele><time>2026-04-26T07:27:15Z</time></trkpt><trkpt lat="46.073689381762684" lon="12.132247300507892"><ele>347.6666666666667</ele><time>2026-04-26T07:27:16Z</time></trkpt><trkpt lat="46.07371409815599" lon="12.13236398366776"><ele>347.8333333333333</ele><time>2026-04-26T07:27:17Z</time></trkpt><trkpt lat="46.07373587959563" lon="12.132460332217814"><ele>348.0</ele><time>2026-04-26T07:27:18Z</time></trkpt><trkpt lat="46.07376731576306" lon="12.132604702562253"><ele>348.5</ele><time>2026-04-26T07:27:20Z</time></trkpt><trkpt lat="46.07365648820643" lon="12.13279826232475"><ele>349.0</ele><time>2026-04-26T07:27:22Z</time></trkpt><trkpt lat="46.073599916871444" lon="12.13290004530221"><ele>349.5</ele><time>2026-04-26T07:27:23Z</time></trkpt><trkpt lat="46.07354313519112" lon="12.133016834305291"><ele>350.0</ele><time>2026-04-26T07:27:24Z</time></trkpt><trkpt lat="46.07348270067781" lon="12.133140935749012"><ele>350.25</ele><time>2026-04-26T07:27:25Z</time></trkpt><trkpt lat="46.073415799935006" lon="12.133273799417186"><ele>350.5</ele><time>2026-04-26T07:27:26Z</time></trkpt><trkpt lat="46.07334346489285" lon="12.133411009074193"><ele>350.75</ele><time>2026-04-26T07:27:27Z</time></trkpt><trkpt lat="46.07327098364091" lon="12.13354170512859"><ele>351.0</ele><time>2026-04-26T07:27:28Z</time></trkpt><trkpt lat="46.07318329424483" lon="12.133629677075124"><ele>352.8</ele><time>2026-04-26T07:27:29Z</time></trkpt><trkpt lat="46.07310082452332" lon="12.133700363483097"><ele>354.6</ele><time>2026-04-26T07:27:30Z</time></trkpt><trkpt lat="46.07302652821803" lon="12.133773201425985"><ele>356.4</ele><time>2026-04-26T07:27:31Z</time></trkpt><trkpt lat="46.07295986274445" lon="12.13389118861942"><ele>358.2</ele><time>2026-04-26T07:27:32Z</time></trkpt><trkpt lat="46.07291411990678" lon="12.134045595034188"><ele>360.0</ele><time>2026-04-26T07:27:33Z</time></trkpt><trkpt lat="46.07287821471809" lon="12.134215850245157"><ele>361.0</ele><time>2026-04-26T07:27:34Z</time></trkpt><trkpt lat="46.07285002995823" lon="12.134414373954364"><ele>362.0</ele><time>2026-04-26T07:27:35Z</time></trkpt><trkpt lat="46.07280424374008" lon="12.134628600061479"><ele>363.0</ele><time>2026-04-26T07:27:36Z</time></trkpt><trkpt lat="46.07273494652318" lon="12.134848222149557"><ele>363.6666666666667</ele><time>2026-04-26T07:27:37Z</time></trkpt><trkpt lat="46.07265385095645" lon="12.135074881472018"><ele>364.33333333333337</ele><time>2026-04-26T07:27:38Z</time></trkpt><trkpt lat="46.07258229698897" lon="12.135274550400858"><ele>365.0</ele><time>2026-04-26T07:27:39Z</time></trkpt><trkpt lat="46.072511765598115" lon="12.135474942526132"><ele>365.6666666666667</ele><time>2026-04-26T07:27:40Z</time></trkpt><trkpt lat="46.07244998849939" lon="12.135736020859163"><ele>366.3333333333333</ele><time>2026-04-26T07:27:41Z</time></trkpt><trkpt lat="46.07239664169591" lon="12.135933194734728"><ele>367.0</ele><time>2026-04-26T07:27:42Z</time></trkpt><trkpt lat="46.07234507294954" lon="12.136108248190878"><ele>367.5</ele><time>2026-04-26T07:27:43Z</time></trkpt><trkpt lat="46.07230193633907" lon="12.136279100708542"><ele>368.0</ele><time>2026-04-26T07:27:44Z</time></trkpt><trkpt lat="46.07224957248181" lon="12.13645848787636"><ele>368.5</ele><time>2026-04-26T07:27:45Z</time></trkpt><trkpt lat="46.07219705872804" lon="12.136622436847045"><ele>369.0</ele><time>2026-04-26T07:27:46Z</time></trkpt><trkpt lat="46.0721483114942" lon="12.136769564038357"><ele>369.0</ele><time>2026-04-26T07:27:47Z</time></trkpt><trkpt lat="46.07210227039384" lon="12.136902845215953"><ele>369.0</ele><time>2026-04-26T07:27:48Z</time></trkpt><trkpt lat="46.072052531158064" lon="12.137032166179264"><ele>369.0</ele><time>2026-04-26T07:27:49Z</time></trkpt><trkpt lat="46.07198873076941" lon="12.137161156240444"><ele>369.0</ele><time>2026-04-26T07:27:50Z</time></trkpt><trkpt lat="46.071902126414635" lon="12.137279486145998"><ele>369.0</ele><time>2026-04-26T07:27:51Z</time></trkpt><trkpt lat="46.07179302241591" lon="12.13738374196234"><ele>368.5</ele><time>2026-04-26T07:27:52Z</time></trkpt><trkpt lat="46.071666504635694" lon="12.137476610846086"><ele>368.0</ele><time>2026-04-26T07:27:53Z</time></trkpt><trkpt lat="46.07153906648061" lon="12.137557502477717"><ele>367.5</ele><time>2026-04-26T07:27:54Z</time></trkpt><trkpt lat="46.07142998065922" lon="12.137633797570853"><ele>367.0</ele><time>2026-04-26T07:27:55Z</time></trkpt><trkpt lat="46.07132572912795" lon="12.13772732856465"><ele>366.75</ele><time>2026-04-26T07:27:56Z</time></trkpt><trkpt lat="46.07122769315948" lon="12.137838526696969"><ele>366.5</ele><time>2026-04-26T07:27:57Z</time></trkpt><trkpt lat="46.07113744383911" lon="12.137986213973448"><ele>366.25</ele><time>2026-04-26T07:27:58Z</time></trkpt><trkpt lat="46.07104888954022" lon="12.138137589871022"><ele>366.0</ele><time>2026-04-26T07:27:59Z</time></trkpt><trkpt lat="46.07096155335719" lon="12.138273190920343"><ele>366.0</ele><time>2026-04-26T07:28:00Z</time></trkpt><trkpt lat="46.07086606023942" lon="12.138382861125827"><ele>366.0</ele><time>2026-04-26T07:28:01Z</time></trkpt><trkpt lat="46.070741911061596" lon="12.138458909129291"><ele>366.0</ele><time>2026-04-26T07:28:02Z</time></trkpt><trkpt lat="46.070619238159246" lon="12.138568737692989"><ele>366.0</ele><time>2026-04-26T07:28:03Z</time></trkpt><trkpt lat="46.070486120736646" lon="12.138649695002249"><ele>366.0</ele><time>2026-04-26T07:28:04Z</time></trkpt><trkpt lat="46.07034888611734" lon="12.138735795715256"><ele>366.0</ele><time>2026-04-26T07:28:05Z</time></trkpt><trkpt lat="46.07021596899616" lon="12.138819524859866"><ele>366.0</ele><time>2026-04-26T07:28:06Z</time></trkpt><trkpt lat="46.07009285486244" lon="12.138886334932778"><ele>366.0</ele><time>2026-04-26T07:28:07Z</time></trkpt><trkpt lat="46.06998518289011" lon="12.138938465229506"><ele>366.20000000000005</ele><time>2026-04-26T07:28:08Z</time></trkpt><trkpt lat="46.06988337010178" lon="12.13899186387901"><ele>366.40000000000003</ele><time>2026-04-26T07:28:09Z</time></trkpt><trkpt lat="46.06978904874757" lon="12.139044499758178"><ele>366.6</ele><time>2026-04-26T07:28:10Z</time></trkpt><trkpt lat="46.06970590785754" lon="12.13911338623547"><ele>366.8</ele><time>2026-04-26T07:28:11Z</time></trkpt><trkpt lat="46.06963994860336" lon="12.1392147961663"><ele>367.0</ele><time>2026-04-26T07:28:12Z</time></trkpt><trkpt lat="46.06960470860854" lon="12.139347277712638"><ele>367.5</ele><time>2026-04-26T07:28:13Z</time></trkpt><trkpt lat="46.06959970021974" lon="12.13950275634419"><ele>368.0</ele><time>2026-04-26T07:28:14Z</time></trkpt><trkpt lat="46.069601441186265" lon="12.139715896940755"><ele>368.5</ele><time>2026-04-26T07:28:14.999Z</time></trkpt><trkpt lat="46.06959681483147" lon="12.139901091990362"><ele>369.0</ele><time>2026-04-26T07:28:15.999Z</time></trkpt><trkpt lat="46.06958697907223" lon="12.140055020826582"><ele>369.0</ele><time>2026-04-26T07:28:16.999Z</time></trkpt><trkpt lat="46.06957172768158" lon="12.140189037314688"><ele>369.0</ele><time>2026-04-26T07:28:17.999Z</time></trkpt><trkpt lat="46.06954924921687" lon="12.140323876528475"><ele>369.0</ele><time>2026-04-26T07:28:18.999Z</time></trkpt><trkpt lat="46.069479893397244" lon="12.140445638077352"><ele>369.0</ele><time>2026-04-26T07:28:19.999Z</time></trkpt><trkpt lat="46.06940208906833" lon="12.140522158949548"><ele>369.0</ele><time>2026-04-26T07:28:20.999Z</time></trkpt><trkpt lat="46.069318281216084" lon="12.140599750364501"><ele>369.0</ele><time>2026-04-26T07:28:21.999Z</time></trkpt><trkpt lat="46.069226136976965" lon="12.140685563740819"><ele>369.0</ele><time>2026-04-26T07:28:22.999Z</time></trkpt><trkpt lat="46.069124082183976" lon="12.140768305668942"><ele>369.0</ele><time>2026-04-26T07:28:23.999Z</time></trkpt><trkpt lat="46.06902699368664" lon="12.140852298048308"><ele>369.0</ele><time>2026-04-26T07:28:24.999Z</time></trkpt><trkpt lat="46.06891195693423" lon="12.14095204928737"><ele>369.0</ele><time>2026-04-26T07:28:25.999Z</time></trkpt><trkpt lat="46.06879477389689" lon="12.141050510836585"><ele>369.0</ele><time>2026-04-26T07:28:26.999Z</time></trkpt><trkpt lat="46.06868665123062" lon="12.141133624507617"><ele>369.0</ele><time>2026-04-26T07:28:27.999Z</time></trkpt><trkpt lat="46.06858370591587" lon="12.141207451389338"><ele>369.0</ele><time>2026-04-26T07:28:28.999Z</time></trkpt><trkpt lat="46.06847787371348" lon="12.141317676586025"><ele>369.0</ele><time>2026-04-26T07:28:29.999Z</time></trkpt><trkpt lat="46.068363089185574" lon="12.141417105746086"><ele>369.0</ele><time>2026-04-26T07:28:30.999Z</time></trkpt><trkpt lat="46.06825980091064" lon="12.141506809517782"><ele>369.0</ele><time>2026-04-26T07:28:31.999Z</time></trkpt><trkpt lat="46.068145803697625" lon="12.141604220053278"><ele>369.0</ele><time>2026-04-26T07:28:32.999Z</time></trkpt><trkpt lat="46.06805416374554" lon="12.141685808055916"><ele>369.5</ele><time>2026-04-26T07:28:33.999Z</time></trkpt><trkpt lat="46.06794543512157" lon="12.141781983662696"><ele>370.0</ele><time>2026-04-26T07:28:34.999Z</time></trkpt><trkpt lat="46.067829114051875" lon="12.141876008464717"><ele>370.5</ele><time>2026-04-26T07:28:35.999Z</time></trkpt><trkpt lat="46.06771524655879" lon="12.141971432034264"><ele>371.0</ele><time>2026-04-26T07:28:36.999Z</time></trkpt><trkpt lat="46.06759888752666" lon="12.142072583910181"><ele>371.0</ele><time>2026-04-26T07:28:37.999Z</time></trkpt><trkpt lat="46.06747916026048" lon="12.142175686042068"><ele>371.0</ele><time>2026-04-26T07:28:38.999Z</time></trkpt><trkpt lat="46.06736420608642" lon="12.142275061556104"><ele>371.0</ele><time>2026-04-26T07:28:39.999Z</time></trkpt><trkpt lat="46.067264848863346" lon="12.142363813445723"><ele>371.0</ele><time>2026-04-26T07:28:40.999Z</time></trkpt><trkpt lat="46.06717523023237" lon="12.142444001438056"><ele>371.75</ele><time>2026-04-26T07:28:41.999Z</time></trkpt><trkpt lat="46.067074159914924" lon="12.14252207603863"><ele>372.5</ele><time>2026-04-26T07:28:42.999Z</time></trkpt><trkpt lat="46.06697088021268" lon="12.142615564259296"><ele>373.25</ele><time>2026-04-26T07:28:43.999Z</time></trkpt><trkpt lat="46.06686739743512" lon="12.14271303484973"><ele>374.0</ele><time>2026-04-26T07:28:44.999Z</time></trkpt><trkpt lat="46.0667560611731" lon="12.142808033761648"><ele>374.0</ele><time>2026-04-26T07:28:45.999Z</time></trkpt><trkpt lat="46.066632319687336" lon="12.142917943884873"><ele>374.0</ele><time>2026-04-26T07:28:46.999Z</time></trkpt><trkpt lat="46.066516616486446" lon="12.143017308144106"><ele>374.0</ele><time>2026-04-26T07:28:47.999Z</time></trkpt><trkpt lat="46.06642136115058" lon="12.1431087453395"><ele>374.0</ele><time>2026-04-26T07:28:48.999Z</time></trkpt><trkpt lat="46.0663223640069" lon="12.14318978261233"><ele>374.75</ele><time>2026-04-26T07:28:49.999Z</time></trkpt><trkpt lat="46.0662127031492" lon="12.14325858677937"><ele>375.5</ele><time>2026-04-26T07:28:50.999Z</time></trkpt><trkpt lat="46.06608872070769" lon="12.143249989040308"><ele>376.25</ele><time>2026-04-26T07:28:51.999Z</time></trkpt><trkpt lat="46.06595522794485" lon="12.143221674489826"><ele>377.0</ele><time>2026-04-26T07:28:52.999Z</time></trkpt><trkpt lat="46.065811045062034" lon="12.143177743543367"><ele>379.25</ele><time>2026-04-26T07:28:53.999Z</time></trkpt><trkpt lat="46.065666203783714" lon="12.143150956124723"><ele>381.5</ele><time>2026-04-26T07:28:54.999Z</time></trkpt><trkpt lat="46.06554813278634" lon="12.1431196658668"><ele>383.75</ele><time>2026-04-26T07:28:55.999Z</time></trkpt><trkpt lat="46.0654365053185" lon="12.143030230493016"><ele>386.0</ele><time>2026-04-26T07:28:56.999Z</time></trkpt><trkpt lat="46.06531976863324" lon="12.1429243593673"><ele>386.0</ele><time>2026-04-26T07:28:57.999Z</time></trkpt><trkpt lat="46.06520247366431" lon="12.142829351627052"><ele>386.0</ele><time>2026-04-26T07:28:58.999Z</time></trkpt><trkpt lat="46.065094144159445" lon="12.142732976671628"><ele>386.0</ele><time>2026-04-26T07:28:59.999Z</time></trkpt><trkpt lat="46.0649645698709" lon="12.142649969238338"><ele>386.0</ele><time>2026-04-26T07:29:00.999Z</time></trkpt><trkpt lat="46.06482413243534" lon="12.142608258102584"><ele>388.66666666666663</ele><time>2026-04-26T07:29:01.999Z</time></trkpt><trkpt lat="46.06466876321965" lon="12.142599603367305"><ele>391.33333333333337</ele><time>2026-04-26T07:29:02.999Z</time></trkpt><trkpt lat="46.064488585304794" lon="12.142615161374092"><ele>394.0</ele><time>2026-04-26T07:29:03.999Z</time></trkpt><trkpt lat="46.064302472705634" lon="12.142629942209554"><ele>394.0</ele><time>2026-04-26T07:29:04.999Z</time></trkpt><trkpt lat="46.064118087378326" lon="12.142648303697225"><ele>394.0</ele><time>2026-04-26T07:29:05.999Z</time></trkpt><trkpt lat="46.06396505381487" lon="12.142667386431249"><ele>394.0</ele><time>2026-04-26T07:29:06.999Z</time></trkpt><trkpt lat="46.06383215366385" lon="12.142677259203143"><ele>396.5</ele><time>2026-04-26T07:29:07.999Z</time></trkpt><trkpt lat="46.06370264950786" lon="12.142693730646837"><ele>399.0</ele><time>2026-04-26T07:29:08.999Z</time></trkpt><trkpt lat="46.06357304629752" lon="12.142719531794091"><ele>401.5</ele><time>2026-04-26T07:29:09.999Z</time></trkpt><trkpt lat="46.06344476350027" lon="12.14280974425555"><ele>404.0</ele><time>2026-04-26T07:29:11Z</time></trkpt><trkpt lat="46.06332848676816" lon="12.142939508467302"><ele>405.66666666666663</ele><time>2026-04-26T07:29:12Z</time></trkpt><trkpt lat="46.063211851752826" lon="12.14310892576774"><ele>407.33333333333337</ele><time>2026-04-26T07:29:13Z</time></trkpt><trkpt lat="46.06308675459235" lon="12.143300550550606"><ele>409.0</ele><time>2026-04-26T07:29:14Z</time></trkpt><trkpt lat="46.06294978550734" lon="12.143502495238357"><ele>409.75</ele><time>2026-04-26T07:29:15Z</time></trkpt><trkpt lat="46.06282932397068" lon="12.143672625288074"><ele>410.5</ele><time>2026-04-26T07:29:16Z</time></trkpt><trkpt lat="46.06272585029248" lon="12.143807453631263"><ele>411.25</ele><time>2026-04-26T07:29:17Z</time></trkpt><trkpt lat="46.062622663480056" lon="12.143942216399818"><ele>412.0</ele><time>2026-04-26T07:29:18Z</time></trkpt><trkpt lat="46.06253358025378" lon="12.1440684208554"><ele>413.20000000000005</ele><time>2026-04-26T07:29:19Z</time></trkpt><trkpt lat="46.062464990372355" lon="12.144184026744956"><ele>414.4</ele><time>2026-04-26T07:29:20Z</time></trkpt><trkpt lat="46.06238044115946" lon="12.144247103211962"><ele>415.6</ele><time>2026-04-26T07:29:21Z</time></trkpt><trkpt lat="46.0623070521157" lon="12.144261527472185"><ele>416.79999999999995</ele><time>2026-04-26T07:29:22Z</time></trkpt><trkpt lat="46.06224475183475" lon="12.144227734694603"><ele>418.0</ele><time>2026-04-26T07:29:23Z</time></trkpt><trkpt lat="46.06214407843236" lon="12.144167258046801"><ele>419.0</ele><time>2026-04-26T07:29:24Z</time></trkpt><trkpt lat="46.06200960341565" lon="12.144077125873508"><ele>420.0</ele><time>2026-04-26T07:29:25Z</time></trkpt><trkpt lat="46.06188926150484" lon="12.144001024611757"><ele>421.0</ele><time>2026-04-26T07:29:26Z</time></trkpt><trkpt lat="46.061743167665455" lon="12.143927136253813"><ele>422.0</ele><time>2026-04-26T07:29:27Z</time></trkpt><trkpt lat="46.061567873515116" lon="12.143810883345466"><ele>424.0</ele><time>2026-04-26T07:29:28Z</time></trkpt><trkpt lat="46.0613998925266" lon="12.143710548437111"><ele>426.0</ele><time>2026-04-26T07:29:29Z</time></trkpt><trkpt lat="46.0612597246372" lon="12.143628703644698"><ele>428.0</ele><time>2026-04-26T07:29:30Z</time></trkpt><trkpt lat="46.061121420156304" lon="12.143537535642938"><ele>428.0</ele><time>2026-04-26T07:29:31Z</time></trkpt><trkpt lat="46.06099291352356" lon="12.14345356828402"><ele>428.0</ele><time>2026-04-26T07:29:32Z</time></trkpt><trkpt lat="46.0608801600511" lon="12.143378630873492"><ele>428.0</ele><time>2026-04-26T07:29:33Z</time></trkpt><trkpt lat="46.06074787395373" lon="12.143356912821869"><ele>428.0</ele><time>2026-04-26T07:29:34Z</time></trkpt><trkpt lat="46.06059686938234" lon="12.143379469425119"><ele>429.66666666666663</ele><time>2026-04-26T07:29:35Z</time></trkpt><trkpt lat="46.060425047754734" lon="12.14342791408772"><ele>431.33333333333337</ele><time>2026-04-26T07:29:36Z</time></trkpt><trkpt lat="46.06024023756028" lon="12.143476854082339"><ele>433.0</ele><time>2026-04-26T07:29:37Z</time></trkpt><trkpt lat="46.06008814226737" lon="12.14350846865836"><ele>433.0</ele><time>2026-04-26T07:29:38Z</time></trkpt><trkpt lat="46.059966452261925" lon="12.143557901939648"><ele>433.0</ele><time>2026-04-26T07:29:39Z</time></trkpt><trkpt lat="46.05984954784983" lon="12.143576107986819"><ele>433.0</ele><time>2026-04-26T07:29:40Z</time></trkpt><trkpt lat="46.05973858617009" lon="12.143565436570153"><ele>433.0</ele><time>2026-04-26T07:29:41Z</time></trkpt><trkpt lat="46.05963526327085" lon="12.143502787679727"><ele>434.5</ele><time>2026-04-26T07:29:42Z</time></trkpt><trkpt lat="46.05952911433606" lon="12.143392037961062"><ele>436.0</ele><time>2026-04-26T07:29:43Z</time></trkpt><trkpt lat="46.05941526002943" lon="12.143236286605596"><ele>437.5</ele><time>2026-04-26T07:29:44Z</time></trkpt><trkpt lat="46.05928082825839" lon="12.143107559301455"><ele>439.0</ele><time>2026-04-26T07:29:45Z</time></trkpt><trkpt lat="46.0591645369953" lon="12.142981865213772"><ele>443.0</ele><time>2026-04-26T07:29:46Z</time></trkpt><trkpt lat="46.05903842893646" lon="12.142845142164186"><ele>447.0</ele><time>2026-04-26T07:29:47Z</time></trkpt><trkpt lat="46.05890273723984" lon="12.14271887616452"><ele>451.0</ele><time>2026-04-26T07:29:48Z</time></trkpt><trkpt lat="46.05874516459783" lon="12.1425581628107"><ele>451.0</ele><time>2026-04-26T07:29:49Z</time></trkpt><trkpt lat="46.058561976455174" lon="12.142411260433743"><ele>451.0</ele><time>2026-04-26T07:29:50Z</time></trkpt><trkpt lat="46.05837596166843" lon="12.142264452467543"><ele>451.0</ele><time>2026-04-26T07:29:51Z</time></trkpt><trkpt lat="46.05820768209298" lon="12.142134219617231"><ele>450.33333333333337</ele><time>2026-04-26T07:29:52Z</time></trkpt><trkpt lat="46.0580287396513" lon="12.141990319877085"><ele>449.66666666666663</ele><time>2026-04-26T07:29:53Z</time></trkpt><trkpt lat="46.057850611179354" lon="12.141847363467427"><ele>449.0</ele><time>2026-04-26T07:29:54Z</time></trkpt><trkpt lat="46.05769479999681" lon="12.141723312039892"><ele>449.0</ele><time>2026-04-26T07:29:55Z</time></trkpt><trkpt lat="46.05754929189164" lon="12.141607463560582"><ele>449.0</ele><time>2026-04-26T07:29:56Z</time></trkpt><trkpt lat="46.05741175903539" lon="12.141496560262874"><ele>449.0</ele><time>2026-04-26T07:29:57Z</time></trkpt><trkpt lat="46.05728181723453" lon="12.14139157326895"><ele>449.25</ele><time>2026-04-26T07:29:58Z</time></trkpt><trkpt lat="46.057165297743055" lon="12.141296359037481"><ele>449.5</ele><time>2026-04-26T07:29:59Z</time></trkpt><trkpt lat="46.05706068201909" lon="12.141211128547738"><ele>449.75</ele><time>2026-04-26T07:30:00Z</time></trkpt><trkpt lat="46.05696757343879" lon="12.141139120192967"><ele>450.0</ele><time>2026-04-26T07:30:01Z</time></trkpt><trkpt lat="46.05688007525003" lon="12.141097337639371"><ele>450.0</ele><time>2026-04-26T07:30:02Z</time></trkpt><trkpt lat="46.05679363318672" lon="12.141040438672622"><ele>450.0</ele><time>2026-04-26T07:30:03Z</time></trkpt><trkpt lat="46.05669680442838" lon="12.141035593536866"><ele>450.0</ele><time>2026-04-26T07:30:04Z</time></trkpt><trkpt lat="46.056583241585734" lon="12.141106514969486"><ele>450.0</ele><time>2026-04-26T07:30:05Z</time></trkpt><trkpt lat="46.056465524398895" lon="12.141187746865162"><ele>450.0</ele><time>2026-04-26T07:30:06Z</time></trkpt><trkpt lat="46.056346672174364" lon="12.141312065296335"><ele>452.33333333333337</ele><time>2026-04-26T07:30:07Z</time></trkpt><trkpt lat="46.0562180659151" lon="12.141486444633403"><ele>454.6666666666667</ele><time>2026-04-26T07:30:08Z</time></trkpt><trkpt lat="46.05610349421269" lon="12.141653396466308"><ele>457.0</ele><time>2026-04-26T07:30:09Z</time></trkpt><trkpt lat="46.05598451615204" lon="12.141783655811887"><ele>457.0</ele><time>2026-04-26T07:30:10Z</time></trkpt><trkpt lat="46.055854074168245" lon="12.141968472456606"><ele>457.0</ele><time>2026-04-26T07:30:11Z</time></trkpt><trkpt lat="46.0557200251554" lon="12.142153352194251"><ele>457.0</ele><time>2026-04-26T07:30:12Z</time></trkpt><trkpt lat="46.05558039076471" lon="12.142359066776814"><ele>459.0</ele><time>2026-04-26T07:30:13Z</time></trkpt><trkpt lat="46.055430763191296" lon="12.142560476965267"><ele>461.0</ele><time>2026-04-26T07:30:14Z</time></trkpt><trkpt lat="46.055284223292986" lon="12.142751294418725"><ele>463.0</ele><time>2026-04-26T07:30:15Z</time></trkpt><trkpt lat="46.05514932628629" lon="12.142923150724467"><ele>463.0</ele><time>2026-04-26T07:30:16Z</time></trkpt><trkpt lat="46.05500185801415" lon="12.143094497116085"><ele>463.0</ele><time>2026-04-26T07:30:17Z</time></trkpt><trkpt lat="46.05485115251663" lon="12.143277065191707"><ele>463.0</ele><time>2026-04-26T07:30:18Z</time></trkpt><trkpt lat="46.05471976759557" lon="12.143433737901255"><ele>464.0</ele><time>2026-04-26T07:30:19Z</time></trkpt><trkpt lat="46.05460481843398" lon="12.143571312842534"><ele>465.0</ele><time>2026-04-26T07:30:20Z</time></trkpt><trkpt lat="46.05448414482571" lon="12.143717529936609"><ele>466.0</ele><time>2026-04-26T07:30:21Z</time></trkpt><trkpt lat="46.05436499269464" lon="12.143854986948336"><ele>466.0</ele><time>2026-04-26T07:30:22Z</time></trkpt><trkpt lat="46.0542560131088" lon="12.143960383769935"><ele>466.0</ele><time>2026-04-26T07:30:22.999Z</time></trkpt><trkpt lat="46.05416133215475" lon="12.144047327457153"><ele>466.0</ele><time>2026-04-26T07:30:23.999Z</time></trkpt><trkpt lat="46.05407627335611" lon="12.144140654669007"><ele>466.0</ele><time>2026-04-26T07:30:24.999Z</time></trkpt><trkpt lat="46.053996658410085" lon="12.144260280216391"><ele>467.0</ele><time>2026-04-26T07:30:25.999Z</time></trkpt><trkpt lat="46.05395774669874" lon="12.144420250661248"><ele>468.0</ele><time>2026-04-26T07:30:26.999Z</time></trkpt><trkpt lat="46.05394279195836" lon="12.144625690583208"><ele>469.0</ele><time>2026-04-26T07:30:27.999Z</time></trkpt><trkpt lat="46.053928299507035" lon="12.144795155004545"><ele>470.0</ele><time>2026-04-26T07:30:28.999Z</time></trkpt><trkpt lat="46.05388465690782" lon="12.144933589935308"><ele>474.0</ele><time>2026-04-26T07:30:29.999Z</time></trkpt><trkpt lat="46.05378694646514" lon="12.145028125189093"><ele>478.0</ele><time>2026-04-26T07:30:30.999Z</time></trkpt><trkpt lat="46.053673743374645" lon="12.145120127023741"><ele>482.0</ele><time>2026-04-26T07:30:31.999Z</time></trkpt><trkpt lat="46.053564218463926" lon="12.145190026643773"><ele>486.0</ele><time>2026-04-26T07:30:32.999Z</time></trkpt><trkpt lat="46.05347954168507" lon="12.145289301885574"><ele>486.0</ele><time>2026-04-26T07:30:33.999Z</time></trkpt><trkpt lat="46.05339527176997" lon="12.145449585580725"><ele>486.0</ele><time>2026-04-26T07:30:34.999Z</time></trkpt><trkpt lat="46.053349632778435" lon="12.145643942146021"><ele>486.0</ele><time>2026-04-26T07:30:35.999Z</time></trkpt><trkpt lat="46.05331059826992" lon="12.145847476549307"><ele>486.0</ele><time>2026-04-26T07:30:36.999Z</time></trkpt><trkpt lat="46.05327138982891" lon="12.146008150144073"><ele>487.0</ele><time>2026-04-26T07:30:37.999Z</time></trkpt><trkpt lat="46.053224170287045" lon="12.146143154509113"><ele>488.0</ele><time>2026-04-26T07:30:38.999Z</time></trkpt><trkpt lat="46.05315416241787" lon="12.146266555904935"><ele>489.0</ele><time>2026-04-26T07:30:39.999Z</time></trkpt><trkpt lat="46.05303828897537" lon="12.146338669641823"><ele>490.0</ele><time>2026-04-26T07:30:40.999Z</time></trkpt><trkpt lat="46.05290349648559" lon="12.14642364053633"><ele>490.0</ele><time>2026-04-26T07:30:41.999Z</time></trkpt><trkpt lat="46.052754932637676" lon="12.14652543080898"><ele>490.0</ele><time>2026-04-26T07:30:42.999Z</time></trkpt><trkpt lat="46.05257816345964" lon="12.146626569775592"><ele>490.0</ele><time>2026-04-26T07:30:43.999Z</time></trkpt><trkpt lat="46.05240411729088" lon="12.146728111443725"><ele>490.0</ele><time>2026-04-26T07:30:44.999Z</time></trkpt><trkpt lat="46.05226343762891" lon="12.146820562560695"><ele>490.0</ele><time>2026-04-26T07:30:45.999Z</time></trkpt><trkpt lat="46.052131344548485" lon="12.1469055581677"><ele>490.0</ele><time>2026-04-26T07:30:46.999Z</time></trkpt><trkpt lat="46.05199240314896" lon="12.146991395058555"><ele>490.0</ele><time>2026-04-26T07:30:47.999Z</time></trkpt><trkpt lat="46.051861335398655" lon="12.147080084584163"><ele>490.0</ele><time>2026-04-26T07:30:48.999Z</time></trkpt><trkpt lat="46.05174867621701" lon="12.147161607387176"><ele>490.0</ele><time>2026-04-26T07:30:49.999Z</time></trkpt><trkpt lat="46.05164910553267" lon="12.147250067676959"><ele>490.0</ele><time>2026-04-26T07:30:50.999Z</time></trkpt><trkpt lat="46.051565604657206" lon="12.147352412507967"><ele>491.25</ele><time>2026-04-26T07:30:51.999Z</time></trkpt><trkpt lat="46.051489318627475" lon="12.147498420944899"><ele>492.5</ele><time>2026-04-26T07:30:52.999Z</time></trkpt><trkpt lat="46.05143469943286" lon="12.147683191730506"><ele>493.75</ele><time>2026-04-26T07:30:53.999Z</time></trkpt><trkpt lat="46.051365897486704" lon="12.14789821156496"><ele>495.0</ele><time>2026-04-26T07:30:54.999Z</time></trkpt><trkpt lat="46.05129653496862" lon="12.148085452232294"><ele>497.5</ele><time>2026-04-26T07:30:55.999Z</time></trkpt><trkpt lat="46.05124432068664" lon="12.148244696935114"><ele>500.0</ele><time>2026-04-26T07:30:56.999Z</time></trkpt><trkpt lat="46.05121916013467" lon="12.148412758605868"><ele>502.5</ele><time>2026-04-26T07:30:57.999Z</time></trkpt><trkpt lat="46.05119946306508" lon="12.14857572535329"><ele>505.0</ele><time>2026-04-26T07:30:58.999Z</time></trkpt><trkpt lat="46.05118244570587" lon="12.148709246027838"><ele>505.0</ele><time>2026-04-26T07:30:59.999Z</time></trkpt><trkpt lat="46.05114677495577" lon="12.148795982263238"><ele>505.0</ele><time>2026-04-26T07:31:00.999Z</time></trkpt><trkpt lat="46.0510873676456" lon="12.14885089421543"><ele>505.0</ele><time>2026-04-26T07:31:01.999Z</time></trkpt><trkpt lat="46.05099255756563" lon="12.148828514317453"><ele>505.0</ele><time>2026-04-26T07:31:02.999Z</time></trkpt><trkpt lat="46.05089595356998" lon="12.148776192840867"><ele>505.0</ele><time>2026-04-26T07:31:03.999Z</time></trkpt><trkpt lat="46.050776968184394" lon="12.148745175242219"><ele>504.6</ele><time>2026-04-26T07:31:04.999Z</time></trkpt><trkpt lat="46.05067327558326" lon="12.14871340450115"><ele>504.2</ele><time>2026-04-26T07:31:05.999Z</time></trkpt><trkpt lat="46.05057395610102" lon="12.1487205385657"><ele>503.79999999999995</ele><time>2026-04-26T07:31:06.999Z</time></trkpt><trkpt lat="46.05046884879596" lon="12.148771206812489"><ele>503.4</ele><time>2026-04-26T07:31:07.999Z</time></trkpt><trkpt lat="46.050366283606266" lon="12.148870960553829"><ele>503.0</ele><time>2026-04-26T07:31:08.999Z</time></trkpt><trkpt lat="46.05026675472842" lon="12.149007290430482"><ele>505.3333333333333</ele><time>2026-04-26T07:31:09.999Z</time></trkpt><trkpt lat="46.05016983476954" lon="12.14914543778648"><ele>507.66666666666663</ele><time>2026-04-26T07:31:10.999Z</time></trkpt><trkpt lat="46.050058867863065" lon="12.149287182161208"><ele>510.0</ele><time>2026-04-26T07:31:11.999Z</time></trkpt><trkpt lat="46.04993611018617" lon="12.149446516338392"><ele>510.0</ele><time>2026-04-26T07:31:12.999Z</time></trkpt><trkpt lat="46.04979446113874" lon="12.149620130465937"><ele>510.0</ele><time>2026-04-26T07:31:13.999Z</time></trkpt><trkpt lat="46.04967088442834" lon="12.149782413773059"><ele>510.0</ele><time>2026-04-26T07:31:14.999Z</time></trkpt><trkpt lat="46.049545493966335" lon="12.14992307663884"><ele>512.25</ele><time>2026-04-26T07:31:15.999Z</time></trkpt><trkpt lat="46.04943325769318" lon="12.150064025522278"><ele>514.5</ele><time>2026-04-26T07:31:17Z</time></trkpt><trkpt lat="46.04932368052066" lon="12.15018677241457"><ele>516.75</ele><time>2026-04-26T07:31:18Z</time></trkpt><trkpt lat="46.04924174214637" lon="12.150305852595247"><ele>519.0</ele><time>2026-04-26T07:31:19Z</time></trkpt><trkpt lat="46.049160678838575" lon="12.150443607417447"><ele>519.6666666666666</ele><time>2026-04-26T07:31:20Z</time></trkpt><trkpt lat="46.04909151823517" lon="12.150617592353065"><ele>520.3333333333333</ele><time>2026-04-26T07:31:21Z</time></trkpt><trkpt lat="46.04903391674393" lon="12.15082301501795"><ele>521.0</ele><time>2026-04-26T07:31:22Z</time></trkpt><trkpt lat="46.048963110535915" lon="12.151037362575744"><ele>522.25</ele><time>2026-04-26T07:31:23Z</time></trkpt><trkpt lat="46.04890709848462" lon="12.151233236076582"><ele>523.5</ele><time>2026-04-26T07:31:24Z</time></trkpt><trkpt lat="46.04885971757008" lon="12.151391999068728"><ele>524.75</ele><time>2026-04-26T07:31:25Z</time></trkpt><trkpt lat="46.04882079094496" lon="12.151535940510131"><ele>526.0</ele><time>2026-04-26T07:31:26Z</time></trkpt><trkpt lat="46.04877901694342" lon="12.151700230251896"><ele>526.5</ele><time>2026-04-26T07:31:27Z</time></trkpt><trkpt lat="46.04876280766894" lon="12.15188137376256"><ele>527.0</ele><time>2026-04-26T07:31:28Z</time></trkpt><trkpt lat="46.0487357832156" lon="12.152067313751337"><ele>527.5</ele><time>2026-04-26T07:31:29Z</time></trkpt><trkpt lat="46.04872950079342" lon="12.152258663769217"><ele>528.0</ele><time>2026-04-26T07:31:30Z</time></trkpt><trkpt lat="46.04875072721835" lon="12.152470251829723"><ele>528.0</ele><time>2026-04-26T07:31:31Z</time></trkpt><trkpt lat="46.04878464196359" lon="12.152709230653741"><ele>528.0</ele><time>2026-04-26T07:31:32Z</time></trkpt><trkpt lat="46.04882330361986" lon="12.152947755329865"><ele>528.0</ele><time>2026-04-26T07:31:33Z</time></trkpt><trkpt lat="46.0488538850868" lon="12.15315610875645"><ele>529.4</ele><time>2026-04-26T07:31:34Z</time></trkpt><trkpt lat="46.048890003185626" lon="12.15333316675393"><ele>530.8</ele><time>2026-04-26T07:31:35Z</time></trkpt><trkpt lat="46.048922831954215" lon="12.15349015710305"><ele>532.2</ele><time>2026-04-26T07:31:36Z</time></trkpt><trkpt lat="46.0489497099703" lon="12.153622637273564"><ele>533.6</ele><time>2026-04-26T07:31:37Z</time></trkpt><trkpt lat="46.04894674364375" lon="12.153758013457404"><ele>535.0</ele><time>2026-04-26T07:31:38Z</time></trkpt><trkpt lat="46.04889855967825" lon="12.153904015089033"><ele>535.0</ele><time>2026-04-26T07:31:39Z</time></trkpt><trkpt lat="46.04880765148462" lon="12.154037589016376"><ele>535.0</ele><time>2026-04-26T07:31:40Z</time></trkpt><trkpt lat="46.048715461639205" lon="12.154206245510235"><ele>535.0</ele><time>2026-04-26T07:31:41Z</time></trkpt><trkpt lat="46.048595114702664" lon="12.154360530831143"><ele>535.0</ele><time>2026-04-26T07:31:42Z</time></trkpt><trkpt lat="46.04846170615044" lon="12.154523742194195"><ele>536.6666666666667</ele><time>2026-04-26T07:31:43Z</time></trkpt><trkpt lat="46.048332117037994" lon="12.154668920763587"><ele>538.3333333333334</ele><time>2026-04-26T07:31:44Z</time></trkpt><trkpt lat="46.04819245771771" lon="12.154830341478561"><ele>540.0</ele><time>2026-04-26T07:31:45Z</time></trkpt><trkpt lat="46.048051731710586" lon="12.154990455695149"><ele>540.3333333333334</ele><time>2026-04-26T07:31:46Z</time></trkpt><trkpt lat="46.04792150727803" lon="12.155126001009634"><ele>540.6666666666667</ele><time>2026-04-26T07:31:47Z</time></trkpt><trkpt lat="46.047790883575495" lon="12.155248347964367"><ele>541.0</ele><time>2026-04-26T07:31:48Z</time></trkpt><trkpt lat="46.04764885641124" lon="12.155320086568025"><ele>541.0</ele><time>2026-04-26T07:31:49Z</time></trkpt><trkpt lat="46.04752785559643" lon="12.155409544272096"><ele>541.0</ele><time>2026-04-26T07:31:50Z</time></trkpt><trkpt lat="46.04741587398457" lon="12.155474278119556"><ele>541.0</ele><time>2026-04-26T07:31:51Z</time></trkpt><trkpt lat="46.04731787345159" lon="12.15555381355533"><ele>541.0</ele><time>2026-04-26T07:31:52Z</time></trkpt><trkpt lat="46.047233569378776" lon="12.15566708651524"><ele>541.75</ele><time>2026-04-26T07:31:53Z</time></trkpt><trkpt lat="46.047165347892076" lon="12.155796281811952"><ele>542.5</ele><time>2026-04-26T07:31:54Z</time></trkpt><trkpt lat="46.04711625995711" lon="12.155935218323666"><ele>543.25</ele><time>2026-04-26T07:31:55Z</time></trkpt><trkpt lat="46.047067210244975" lon="12.15610206945445"><ele>544.0</ele><time>2026-04-26T07:31:56Z</time></trkpt><trkpt lat="46.047019682989315" lon="12.156245518733218"><ele>544.0</ele><time>2026-04-26T07:31:57Z</time></trkpt><trkpt lat="46.046968367269514" lon="12.156362467700204"><ele>544.0</ele><time>2026-04-26T07:31:58Z</time></trkpt><trkpt lat="46.0469139003763" lon="12.156450551505442"><ele>544.0</ele><time>2026-04-26T07:31:59Z</time></trkpt><trkpt lat="46.04683605084528" lon="12.156474240648429"><ele>544.0</ele><time>2026-04-26T07:32:00Z</time></trkpt><trkpt lat="46.046768835329026" lon="12.156457600812445"><ele>544.0</ele><time>2026-04-26T07:32:01Z</time></trkpt><trkpt lat="46.04670113598274" lon="12.156480646639109"><ele>544.0</ele><time>2026-04-26T07:32:02Z</time></trkpt><trkpt lat="46.04661527214803" lon="12.156473834246894"><ele>544.5</ele><time>2026-04-26T07:32:04Z</time></trkpt><trkpt lat="46.046545122847256" lon="12.156504650188172"><ele>545.0</ele><time>2026-04-26T07:32:06Z</time></trkpt><trkpt lat="46.046456387138534" lon="12.156562782500396"><ele>545.5</ele><time>2026-04-26T07:32:08Z</time></trkpt><trkpt lat="46.04640756757256" lon="12.156643135788258"><ele>546.0</ele><time>2026-04-26T07:32:09Z</time></trkpt><trkpt lat="46.04636664646492" lon="12.156747035946877"><ele>546.5</ele><time>2026-04-26T07:32:10Z</time></trkpt><trkpt lat="46.04634168571188" lon="12.156871778143188"><ele>547.0</ele><time>2026-04-26T07:32:11Z</time></trkpt><trkpt lat="46.04631094705858" lon="12.156992311296698"><ele>547.0</ele><time>2026-04-26T07:32:12Z</time></trkpt><trkpt lat="46.04628642008097" lon="12.157086930946148"><ele>547.0</ele><time>2026-04-26T07:32:13Z</time></trkpt><trkpt lat="46.046229554809436" lon="12.157150789244168"><ele>547.0</ele><time>2026-04-26T07:32:14Z</time></trkpt><trkpt lat="46.04614864532736" lon="12.15717079265107"><ele>547.0</ele><time>2026-04-26T07:32:15Z</time></trkpt><trkpt lat="46.04606709459362" lon="12.15707370909925"><ele>547.0</ele><time>2026-04-26T07:32:16Z</time></trkpt><trkpt lat="46.045977772470444" lon="12.157010157066617"><ele>547.0</ele><time>2026-04-26T07:32:17Z</time></trkpt><trkpt lat="46.04587226485444" lon="12.156975351993715"><ele>546.0</ele><time>2026-04-26T07:32:18Z</time></trkpt><trkpt lat="46.04577025550593" lon="12.156943329605149"><ele>545.0</ele><time>2026-04-26T07:32:19Z</time></trkpt><trkpt lat="46.04566854669363" lon="12.15697018344641"><ele>544.0</ele><time>2026-04-26T07:32:20Z</time></trkpt><trkpt lat="46.04556455059694" lon="12.157060954251499"><ele>543.0</ele><time>2026-04-26T07:32:21Z</time></trkpt><trkpt lat="46.045455303129266" lon="12.157180881181597"><ele>543.0</ele><time>2026-04-26T07:32:22Z</time></trkpt><trkpt lat="46.0453590502171" lon="12.15730978347334"><ele>543.0</ele><time>2026-04-26T07:32:23Z</time></trkpt><trkpt lat="46.04528455545239" lon="12.157463689479096"><ele>543.0</ele><time>2026-04-26T07:32:24Z</time></trkpt><trkpt lat="46.04522386305996" lon="12.15761781956614"><ele>543.0</ele><time>2026-04-26T07:32:25Z</time></trkpt><trkpt lat="46.04513504928519" lon="12.157715739903368"><ele>546.6666666666666</ele><time>2026-04-26T07:32:26Z</time></trkpt><trkpt lat="46.04502350023075" lon="12.157833825029863"><ele>550.3333333333333</ele><time>2026-04-26T07:32:27Z</time></trkpt><trkpt lat="46.044869869256225" lon="12.157940518345072"><ele>554.0</ele><time>2026-04-26T07:32:28Z</time></trkpt><trkpt lat="46.04471464318211" lon="12.15801633836021"><ele>554.0</ele><time>2026-04-26T07:32:29Z</time></trkpt><trkpt lat="46.04457216785183" lon="12.158117825226823"><ele>554.0</ele><time>2026-04-26T07:32:30Z</time></trkpt><trkpt lat="46.044436502589775" lon="12.158186445209619"><ele>554.0</ele><time>2026-04-26T07:32:31Z</time></trkpt><trkpt lat="46.04430300188483" lon="12.158258716087007"><ele>554.0</ele><time>2026-04-26T07:32:32Z</time></trkpt><trkpt lat="46.044167913427664" lon="12.158339121485662"><ele>555.0</ele><time>2026-04-26T07:32:32.999Z</time></trkpt><trkpt lat="46.044027148423105" lon="12.158413176429043"><ele>556.0</ele><time>2026-04-26T07:32:33.999Z</time></trkpt><trkpt lat="46.04388109608342" lon="12.158496047908942"><ele>557.0</ele><time>2026-04-26T07:32:34.999Z</time></trkpt><trkpt lat="46.04373212811119" lon="12.158573934155058"><ele>557.0</ele><time>2026-04-26T07:32:35.999Z</time></trkpt><trkpt lat="46.043587970179935" lon="12.158658326651068"><ele>557.0</ele><time>2026-04-26T07:32:36.999Z</time></trkpt><trkpt lat="46.04344264307195" lon="12.158729449078102"><ele>557.0</ele><time>2026-04-26T07:32:37.999Z</time></trkpt><trkpt lat="46.0432899754688" lon="12.158786024951542"><ele>557.0</ele><time>2026-04-26T07:32:38.999Z</time></trkpt><trkpt lat="46.04314383746905" lon="12.15880983738534"><ele>557.0</ele><time>2026-04-26T07:32:39.999Z</time></trkpt><trkpt lat="46.043003999133184" lon="12.158852143062319"><ele>557.0</ele><time>2026-04-26T07:32:40.999Z</time></trkpt><trkpt lat="46.042860117029626" lon="12.158902970202082"><ele>557.0</ele><time>2026-04-26T07:32:41.999Z</time></trkpt><trkpt lat="46.04271271600763" lon="12.15895132140845"><ele>557.0</ele><time>2026-04-26T07:32:42.999Z</time></trkpt><trkpt lat="46.042584654522855" lon="12.158990497362945"><ele>557.0</ele><time>2026-04-26T07:32:43.999Z</time></trkpt><trkpt lat="46.04247625983118" lon="12.159028500423844"><ele>557.0</ele><time>2026-04-26T07:32:44.999Z</time></trkpt><trkpt lat="46.0423722877595" lon="12.159061021254297"><ele>557.0</ele><time>2026-04-26T07:32:45.999Z</time></trkpt><trkpt lat="46.04226979472546" lon="12.159095939617092"><ele>557.75</ele><time>2026-04-26T07:32:46.999Z</time></trkpt><trkpt lat="46.042159041598595" lon="12.159138216163663"><ele>558.5</ele><time>2026-04-26T07:32:47.999Z</time></trkpt><trkpt lat="46.04204006372091" lon="12.159194151547752"><ele>559.25</ele><time>2026-04-26T07:32:48.999Z</time></trkpt><trkpt lat="46.041918625384895" lon="12.159265767909563"><ele>560.0</ele><time>2026-04-26T07:32:49.999Z</time></trkpt><trkpt lat="46.04180910669448" lon="12.159336368575826"><ele>560.0</ele><time>2026-04-26T07:32:50.999Z</time></trkpt><trkpt lat="46.0416960079758" lon="12.159408151698985"><ele>560.0</ele><time>2026-04-26T07:32:51.999Z</time></trkpt><trkpt lat="46.04158010664439" lon="12.159485274710557"><ele>560.0</ele><time>2026-04-26T07:32:52.999Z</time></trkpt><trkpt lat="46.04146231195138" lon="12.159563327810414"><ele>560.0</ele><time>2026-04-26T07:32:53.999Z</time></trkpt><trkpt lat="46.04134750431142" lon="12.15963483263574"><ele>560.0</ele><time>2026-04-26T07:32:54.999Z</time></trkpt><trkpt lat="46.041239109185504" lon="12.159699321822242"><ele>560.0</ele><time>2026-04-26T07:32:55.999Z</time></trkpt><trkpt lat="46.04112453993203" lon="12.159767455190362"><ele>560.0</ele><time>2026-04-26T07:32:56.999Z</time></trkpt><trkpt lat="46.04100817251564" lon="12.15984388423743"><ele>560.0</ele><time>2026-04-26T07:32:57.999Z</time></trkpt><trkpt lat="46.040888190747715" lon="12.159913585352001"><ele>561.0</ele><time>2026-04-26T07:32:58.999Z</time></trkpt><trkpt lat="46.04077374116945" lon="12.159987422907987"><ele>562.0</ele><time>2026-04-26T07:32:59.999Z</time></trkpt><trkpt lat="46.04065166358039" lon="12.160063681804592"><ele>563.0</ele><time>2026-04-26T07:33:00.999Z</time></trkpt><trkpt lat="46.04054281380045" lon="12.160163284438484"><ele>564.0</ele><time>2026-04-26T07:33:01.999Z</time></trkpt><trkpt lat="46.04043631548954" lon="12.160261904725667"><ele>564.0</ele><time>2026-04-26T07:33:02.999Z</time></trkpt><trkpt lat="46.04033055112787" lon="12.160363934347467"><ele>564.0</ele><time>2026-04-26T07:33:03.999Z</time></trkpt><trkpt lat="46.04022920315955" lon="12.160462306247819"><ele>564.0</ele><time>2026-04-26T07:33:04.999Z</time></trkpt><trkpt lat="46.040130836824616" lon="12.160552015135965"><ele>564.0</ele><time>2026-04-26T07:33:05.999Z</time></trkpt><trkpt lat="46.040031920661015" lon="12.160646998280173"><ele>564.5</ele><time>2026-04-26T07:33:06.999Z</time></trkpt><trkpt lat="46.03993203922898" lon="12.160748183233576"><ele>565.0</ele><time>2026-04-26T07:33:07.999Z</time></trkpt><trkpt lat="46.03984030900871" lon="12.160854772026239"><ele>565.5</ele><time>2026-04-26T07:33:08.999Z</time></trkpt><trkpt lat="46.039733162275716" lon="12.160962365761401"><ele>566.0</ele><time>2026-04-26T07:33:09.999Z</time></trkpt><trkpt lat="46.03963479608731" lon="12.161067266388555"><ele>566.0</ele><time>2026-04-26T07:33:10.999Z</time></trkpt><trkpt lat="46.03953803540667" lon="12.161174484116412"><ele>566.0</ele><time>2026-04-26T07:33:11.999Z</time></trkpt><trkpt lat="46.03943704205905" lon="12.161287129357579"><ele>566.0</ele><time>2026-04-26T07:33:12.999Z</time></trkpt><trkpt lat="46.039336683828516" lon="12.161389435851769"><ele>566.0</ele><time>2026-04-26T07:33:13.999Z</time></trkpt><trkpt lat="46.03923844077693" lon="12.161494941400203"><ele>566.5</ele><time>2026-04-26T07:33:14.999Z</time></trkpt><trkpt lat="46.03913709776608" lon="12.161601162163668"><ele>567.0</ele><time>2026-04-26T07:33:15.999Z</time></trkpt><trkpt lat="46.03903748375976" lon="12.161706393639728"><ele>567.5</ele><time>2026-04-26T07:33:16.999Z</time></trkpt><trkpt lat="46.038942924968204" lon="12.161821475423565"><ele>568.0</ele><time>2026-04-26T07:33:17.999Z</time></trkpt><trkpt lat="46.03884108553424" lon="12.1619371871599"><ele>566.8</ele><time>2026-04-26T07:33:18.999Z</time></trkpt><trkpt lat="46.03875063742159" lon="12.162064310698094"><ele>565.5999999999999</ele><time>2026-04-26T07:33:19.999Z</time></trkpt><trkpt lat="46.0386782147683" lon="12.162185184441915"><ele>564.4000000000001</ele><time>2026-04-26T07:33:20.999Z</time></trkpt><trkpt lat="46.038593998618104" lon="12.162293406412596"><ele>563.2</ele><time>2026-04-26T07:33:21.999Z</time></trkpt><trkpt lat="46.03851793334705" lon="12.162384581334583"><ele>562.0</ele><time>2026-04-26T07:33:23Z</time></trkpt><trkpt lat="46.038438148578486" lon="12.16246926560513"><ele>562.0</ele><time>2026-04-26T07:33:24Z</time></trkpt><trkpt lat="46.038371257767" lon="12.162561835768063"><ele>562.0</ele><time>2026-04-26T07:33:25Z</time></trkpt><trkpt lat="46.03832035264986" lon="12.16263947162232"><ele>562.0</ele><time>2026-04-26T07:33:26Z</time></trkpt><trkpt lat="46.03828344163329" lon="12.162726634302736"><ele>562.0</ele><time>2026-04-26T07:33:27Z</time></trkpt><trkpt lat="46.03827002294798" lon="12.162827864309728"><ele>562.0</ele><time>2026-04-26T07:33:28Z</time></trkpt><trkpt lat="46.03827498610136" lon="12.162937779474698"><ele>562.0</ele><time>2026-04-26T07:33:29Z</time></trkpt><trkpt lat="46.038301334926786" lon="12.163063699591806"><ele>562.0</ele><time>2026-04-26T07:33:30Z</time></trkpt><trkpt lat="46.03836617864928" lon="12.163191206336112"><ele>562.0</ele><time>2026-04-26T07:33:31Z</time></trkpt><trkpt lat="46.03845691279547" lon="12.163349311709954"><ele>562.0</ele><time>2026-04-26T07:33:32Z</time></trkpt><trkpt lat="46.038541357279115" lon="12.163504365243844"><ele>562.0</ele><time>2026-04-26T07:33:33Z</time></trkpt><trkpt lat="46.03861621476176" lon="12.163657579338631"><ele>560.5</ele><time>2026-04-26T07:33:34Z</time></trkpt><trkpt lat="46.03868749185533" lon="12.16379931879297"><ele>559.0</ele><time>2026-04-26T07:33:35Z</time></trkpt><trkpt lat="46.03876188965429" lon="12.16393773819989"><ele>557.5</ele><time>2026-04-26T07:33:36Z</time></trkpt><trkpt lat="46.03882899705128" lon="12.164078824317306"><ele>556.0</ele><time>2026-04-26T07:33:37Z</time></trkpt><trkpt lat="46.0389007301924" lon="12.164207960500491"><ele>553.2</ele><time>2026-04-26T07:33:38Z</time></trkpt><trkpt lat="46.03896098408132" lon="12.164336578417025"><ele>550.4000000000001</ele><time>2026-04-26T07:33:39Z</time></trkpt><trkpt lat="46.03901531069975" lon="12.164451305691234"><ele>547.6</ele><time>2026-04-26T07:33:40Z</time></trkpt><trkpt lat="46.039046948625405" lon="12.164567079741715"><ele>544.8000000000001</ele><time>2026-04-26T07:33:41Z</time></trkpt><trkpt lat="46.03906305871572" lon="12.164698932891858"><ele>542.0</ele><time>2026-04-26T07:33:42Z</time></trkpt><trkpt lat="46.039025509235444" lon="12.164838180127004"><ele>540.6</ele><time>2026-04-26T07:33:43Z</time></trkpt><trkpt lat="46.03897332926325" lon="12.164981916536387"><ele>539.2</ele><time>2026-04-26T07:33:44Z</time></trkpt><trkpt lat="46.03890334497638" lon="12.16512065851886"><ele>537.8</ele><time>2026-04-26T07:33:45Z</time></trkpt><trkpt lat="46.03883646667821" lon="12.165252551443597"><ele>536.4</ele><time>2026-04-26T07:33:46Z</time></trkpt><trkpt lat="46.03878899900259" lon="12.1653817772891"><ele>535.0</ele><time>2026-04-26T07:33:47Z</time></trkpt><trkpt lat="46.0387344008869" lon="12.16550324213308"><ele>535.0</ele><time>2026-04-26T07:33:48Z</time></trkpt><trkpt lat="46.03868701696225" lon="12.165616280114488"><ele>535.0</ele><time>2026-04-26T07:33:49Z</time></trkpt><trkpt lat="46.03865136739016" lon="12.165716686270976"><ele>535.0</ele><time>2026-04-26T07:33:50Z</time></trkpt><trkpt lat="46.038636218191115" lon="12.16582984288711"><ele>535.0</ele><time>2026-04-26T07:33:51Z</time></trkpt><trkpt lat="46.03863157468166" lon="12.16594267840565"><ele>535.0</ele><time>2026-04-26T07:33:52Z</time></trkpt><trkpt lat="46.03863828814583" lon="12.166044327646269"><ele>535.0</ele><time>2026-04-26T07:33:53Z</time></trkpt><trkpt lat="46.03860331953892" lon="12.166170321173496"><ele>535.0</ele><time>2026-04-26T07:33:55Z</time></trkpt><trkpt lat="46.03847544886267" lon="12.166042084514718"><ele>535.0</ele><time>2026-04-26T07:33:58Z</time></trkpt><trkpt lat="46.038533300646044" lon="12.165848866144879"><ele>535.0</ele><time>2026-04-26T07:34:00Z</time></trkpt><trkpt lat="46.038575315267344" lon="12.165735229224392"><ele>535.0</ele><time>2026-04-26T07:34:01Z</time></trkpt><trkpt lat="46.03860780676572" lon="12.165616208468146"><ele>535.0</ele><time>2026-04-26T07:34:02Z</time></trkpt><trkpt lat="46.03864286009018" lon="12.165504679799914"><ele>535.0</ele><time>2026-04-26T07:34:03Z</time></trkpt><trkpt lat="46.038676010036916" lon="12.165393038780593"><ele>535.0</ele><time>2026-04-26T07:34:04Z</time></trkpt><trkpt lat="46.038696517968276" lon="12.165278676675474"><ele>535.0</ele><time>2026-04-26T07:34:05Z</time></trkpt><trkpt lat="46.03871097544007" lon="12.165155706597622"><ele>535.0</ele><time>2026-04-26T07:34:06Z</time></trkpt><trkpt lat="46.038706829342765" lon="12.165010066032474"><ele>535.0</ele><time>2026-04-26T07:34:07Z</time></trkpt><trkpt lat="46.03867888222349" lon="12.16485277268489"><ele>536.4</ele><time>2026-04-26T07:34:08Z</time></trkpt><trkpt lat="46.03864155048229" lon="12.164709068297423"><ele>537.8</ele><time>2026-04-26T07:34:09Z</time></trkpt><trkpt lat="46.038607387607804" lon="12.164567838047297"><ele>539.2</ele><time>2026-04-26T07:34:10Z</time></trkpt><trkpt lat="46.03857822909783" lon="12.16443730698175"><ele>540.6</ele><time>2026-04-26T07:34:11Z</time></trkpt><trkpt lat="46.038547853770034" lon="12.164313856995191"><ele>542.0</ele><time>2026-04-26T07:34:12Z</time></trkpt><trkpt lat="46.03849300446737" lon="12.164208172175844"><ele>542.0</ele><time>2026-04-26T07:34:13Z</time></trkpt><trkpt lat="46.03842545252037" lon="12.16411296364111"><ele>542.0</ele><time>2026-04-26T07:34:14Z</time></trkpt><trkpt lat="46.03834451878922" lon="12.164035169373353"><ele>542.0</ele><time>2026-04-26T07:34:15Z</time></trkpt><trkpt lat="46.038266565957315" lon="12.163950173425498"><ele>542.0</ele><time>2026-04-26T07:34:16Z</time></trkpt><trkpt lat="46.03819655934259" lon="12.163863251922223"><ele>542.0</ele><time>2026-04-26T07:34:17Z</time></trkpt><trkpt lat="46.03813144295663" lon="12.163780141226699"><ele>537.8000000000001</ele><time>2026-04-26T07:34:18Z</time></trkpt><trkpt lat="46.03807454189203" lon="12.163703026535606"><ele>533.6</ele><time>2026-04-26T07:34:19Z</time></trkpt><trkpt lat="46.037993148823915" lon="12.163600575760489"><ele>529.4000000000001</ele><time>2026-04-26T07:34:21Z</time></trkpt><trkpt lat="46.037931465544474" lon="12.163544351410092"><ele>525.2</ele><time>2026-04-26T07:34:23Z</time></trkpt><trkpt lat="46.03786391624645" lon="12.163776844483994"><ele>521.0</ele><time>2026-04-26T07:34:25Z</time></trkpt><trkpt lat="46.037922567919395" lon="12.163869238072106"><ele>521.0</ele><time>2026-04-26T07:34:26Z</time></trkpt><trkpt lat="46.03798993002377" lon="12.163933669907106"><ele>521.0</ele><time>2026-04-26T07:34:27Z</time></trkpt><trkpt lat="46.03806154648532" lon="12.164025619122475"><ele>521.0</ele><time>2026-04-26T07:34:28Z</time></trkpt><trkpt lat="46.038118739474584" lon="12.164123985142641"><ele>521.0</ele><time>2026-04-26T07:34:28.999Z</time></trkpt><trkpt lat="46.03817142272067" lon="12.164226701278482"><ele>521.0</ele><time>2026-04-26T07:34:29.999Z</time></trkpt><trkpt lat="46.03820091985653" lon="12.164335545840673"><ele>521.0</ele><time>2026-04-26T07:34:30.999Z</time></trkpt><trkpt lat="46.038178989231284" lon="12.164463326144181"><ele>518.75</ele><time>2026-04-26T07:34:31.999Z</time></trkpt><trkpt lat="46.038177776745115" lon="12.16464079780422"><ele>516.5</ele><time>2026-04-26T07:34:32.999Z</time></trkpt><trkpt lat="46.038155122819724" lon="12.164834022165703"><ele>514.25</ele><time>2026-04-26T07:34:33.999Z</time></trkpt><trkpt lat="46.03813793612048" lon="12.165003216298313"><ele>512.0</ele><time>2026-04-26T07:34:34.999Z</time></trkpt><trkpt lat="46.03812325778975" lon="12.165170036875947"><ele>512.4</ele><time>2026-04-26T07:34:35.999Z</time></trkpt><trkpt lat="46.03811340570645" lon="12.165333879059446"><ele>512.8000000000001</ele><time>2026-04-26T07:34:36.999Z</time></trkpt><trkpt lat="46.03808635373531" lon="12.165481795709798"><ele>513.2</ele><time>2026-04-26T07:34:37.999Z</time></trkpt><trkpt lat="46.038047842540024" lon="12.165616928049268"><ele>513.6</ele><time>2026-04-26T07:34:38.999Z</time></trkpt><trkpt lat="46.03799903925569" lon="12.165748213773307"><ele>514.0</ele><time>2026-04-26T07:34:39.999Z</time></trkpt><trkpt lat="46.037932244651365" lon="12.165883478749137"><ele>514.0</ele><time>2026-04-26T07:34:40.999Z</time></trkpt><trkpt lat="46.03784699563286" lon="12.166034906922931"><ele>514.0</ele><time>2026-04-26T07:34:41.999Z</time></trkpt><trkpt lat="46.0377451668806" lon="12.166185923700711"><ele>514.0</ele><time>2026-04-26T07:34:42.999Z</time></trkpt><trkpt lat="46.03764226599767" lon="12.166322946698914"><ele>514.0</ele><time>2026-04-26T07:34:43.999Z</time></trkpt><trkpt lat="46.03753991546161" lon="12.16646181855572"><ele>512.75</ele><time>2026-04-26T07:34:44.999Z</time></trkpt><trkpt lat="46.03743569974312" lon="12.166600595249148"><ele>511.5</ele><time>2026-04-26T07:34:45.999Z</time></trkpt><trkpt lat="46.037333566100756" lon="12.166745878432502"><ele>510.25</ele><time>2026-04-26T07:34:46.999Z</time></trkpt><trkpt lat="46.03723807559588" lon="12.16687807995898"><ele>509.0</ele><time>2026-04-26T07:34:47.999Z</time></trkpt><trkpt lat="46.03714936289749" lon="12.167011531217279"><ele>509.0</ele><time>2026-04-26T07:34:48.999Z</time></trkpt><trkpt lat="46.037056934461674" lon="12.167133073148328"><ele>509.0</ele><time>2026-04-26T07:34:49.999Z</time></trkpt><trkpt lat="46.03698362142369" lon="12.1672591064704"><ele>509.0</ele><time>2026-04-26T07:34:50.999Z</time></trkpt><trkpt lat="46.03691475815526" lon="12.167379116427705"><ele>509.0</ele><time>2026-04-26T07:34:51.999Z</time></trkpt><trkpt lat="46.03685023676333" lon="12.167480828810755"><ele>509.0</ele><time>2026-04-26T07:34:52.999Z</time></trkpt><trkpt lat="46.03678952828776" lon="12.16757900168143"><ele>509.66666666666663</ele><time>2026-04-26T07:34:53.999Z</time></trkpt><trkpt lat="46.036726562348676" lon="12.16764575619778"><ele>510.3333333333333</ele><time>2026-04-26T07:34:54.999Z</time></trkpt><trkpt lat="46.03665600161532" lon="12.167676301487587"><ele>511.0</ele><time>2026-04-26T07:34:55.999Z</time></trkpt><trkpt lat="46.03658341360046" lon="12.167657258525326"><ele>511.66666666666663</ele><time>2026-04-26T07:34:56.999Z</time></trkpt><trkpt lat="46.03650915369267" lon="12.167599251067097"><ele>512.3333333333334</ele><time>2026-04-26T07:34:57.999Z</time></trkpt><trkpt lat="46.03642012215969" lon="12.1675279628414"><ele>513.0</ele><time>2026-04-26T07:34:58.999Z</time></trkpt><trkpt lat="46.03633340569041" lon="12.167425004471891"><ele>516.25</ele><time>2026-04-26T07:34:59.999Z</time></trkpt><trkpt lat="46.03623750036928" lon="12.167307163739835"><ele>519.5</ele><time>2026-04-26T07:35:00.999Z</time></trkpt><trkpt lat="46.03613234298001" lon="12.167191280725692"><ele>522.75</ele><time>2026-04-26T07:35:01.999Z</time></trkpt><trkpt lat="46.03603755394744" lon="12.167099538863788"><ele>526.0</ele><time>2026-04-26T07:35:02.999Z</time></trkpt><trkpt lat="46.03595463154451" lon="12.167017284993886"><ele>526.0</ele><time>2026-04-26T07:35:03.999Z</time></trkpt><trkpt lat="46.035873322107825" lon="12.166954645514906"><ele>526.0</ele><time>2026-04-26T07:35:04.999Z</time></trkpt><trkpt lat="46.03579541637314" lon="12.166905222982198"><ele>526.0</ele><time>2026-04-26T07:35:05.999Z</time></trkpt><trkpt lat="46.03572520417585" lon="12.166872089336337"><ele>526.0</ele><time>2026-04-26T07:35:06.999Z</time></trkpt><trkpt lat="46.03566093335606" lon="12.16688719792503"><ele>526.0</ele><time>2026-04-26T07:35:07.999Z</time></trkpt><trkpt lat="46.03559160702823" lon="12.166960473676232"><ele>526.0</ele><time>2026-04-26T07:35:08.999Z</time></trkpt><trkpt lat="46.03552485852951" lon="12.16707671474345"><ele>531.6666666666667</ele><time>2026-04-26T07:35:09.999Z</time></trkpt><trkpt lat="46.03545278197317" lon="12.16719500942488"><ele>537.3333333333334</ele><time>2026-04-26T07:35:10.999Z</time></trkpt><trkpt lat="46.03538249753184" lon="12.167283748287092"><ele>543.0</ele><time>2026-04-26T07:35:11.999Z</time></trkpt><trkpt lat="46.03533074438615" lon="12.167356453279629"><ele>548.6666666666666</ele><time>2026-04-26T07:35:12.999Z</time></trkpt><trkpt lat="46.03526927862057" lon="12.167440711887807"><ele>554.3333333333333</ele><time>2026-04-26T07:35:14.999Z</time></trkpt><trkpt lat="46.035205977434586" lon="12.167441993274364"><ele>560.0</ele><time>2026-04-26T07:35:17.999Z</time></trkpt><trkpt lat="46.03520494872635" lon="12.167334114839315"><ele>561.0</ele><time>2026-04-26T07:35:19.999Z</time></trkpt><trkpt lat="46.03525937466204" lon="12.16722849057556"><ele>562.0</ele><time>2026-04-26T07:35:20.999Z</time></trkpt><trkpt lat="46.03532423241675" lon="12.16714689140423"><ele>563.0</ele><time>2026-04-26T07:35:21.999Z</time></trkpt><trkpt lat="46.03539720900257" lon="12.167024287569378"><ele>564.0</ele><time>2026-04-26T07:35:22.999Z</time></trkpt><trkpt lat="46.0354665253803" lon="12.166906098477678"><ele>565.0</ele><time>2026-04-26T07:35:23.999Z</time></trkpt><trkpt lat="46.03553432445162" lon="12.166758752658158"><ele>565.0</ele><time>2026-04-26T07:35:24.999Z</time></trkpt><trkpt lat="46.035602603347165" lon="12.166618341862875"><ele>565.0</ele><time>2026-04-26T07:35:25.999Z</time></trkpt><trkpt lat="46.03566739823248" lon="12.166519626652008"><ele>565.0</ele><time>2026-04-26T07:35:26.999Z</time></trkpt><trkpt lat="46.03573194145638" lon="12.166393456009084"><ele>565.0</ele><time>2026-04-26T07:35:27.999Z</time></trkpt><trkpt lat="46.035777127063206" lon="12.166252989012929"><ele>565.0</ele><time>2026-04-26T07:35:29Z</time></trkpt><trkpt lat="46.03578951567981" lon="12.166093939357726"><ele>566.75</ele><time>2026-04-26T07:35:30Z</time></trkpt><trkpt lat="46.03577792726656" lon="12.165928972039728"><ele>568.5</ele><time>2026-04-26T07:35:31Z</time></trkpt><trkpt lat="46.035753146467236" lon="12.165779348627735"><ele>570.25</ele><time>2026-04-26T07:35:32Z</time></trkpt><trkpt lat="46.035728489717016" lon="12.165594514323615"><ele>572.0</ele><time>2026-04-26T07:35:33Z</time></trkpt><trkpt lat="46.03571751479675" lon="12.165428511156248"><ele>572.0</ele><time>2026-04-26T07:35:34Z</time></trkpt><trkpt lat="46.03573607617529" lon="12.16525590519881"><ele>572.0</ele><time>2026-04-26T07:35:35Z</time></trkpt><trkpt lat="46.0357840220628" lon="12.16508386238107"><ele>572.0</ele><time>2026-04-26T07:35:36Z</time></trkpt><trkpt lat="46.03583018622839" lon="12.164958355287576"><ele>572.0</ele><time>2026-04-26T07:35:37Z</time></trkpt><trkpt lat="46.035878937566956" lon="12.164850570027685"><ele>572.0</ele><time>2026-04-26T07:35:38Z</time></trkpt><trkpt lat="46.03590266978447" lon="12.16471226075417"><ele>571.5</ele><time>2026-04-26T07:35:39Z</time></trkpt><trkpt lat="46.03589723829827" lon="12.164588885039336"><ele>571.0</ele><time>2026-04-26T07:35:40Z</time></trkpt><trkpt lat="46.03585278938358" lon="12.164441664574266"><ele>570.5</ele><time>2026-04-26T07:35:41Z</time></trkpt><trkpt lat="46.03577510539804" lon="12.164273580761119"><ele>570.0</ele><time>2026-04-26T07:35:42Z</time></trkpt><trkpt lat="46.03569465512378" lon="12.164101925902473"><ele>568.25</ele><time>2026-04-26T07:35:43Z</time></trkpt><trkpt lat="46.035602570861485" lon="12.16391520621552"><ele>566.5</ele><time>2026-04-26T07:35:44Z</time></trkpt><trkpt lat="46.03551800406478" lon="12.163729587860102"><ele>564.75</ele><time>2026-04-26T07:35:45Z</time></trkpt><trkpt lat="46.03544563275819" lon="12.163573875421068"><ele>563.0</ele><time>2026-04-26T07:35:46Z</time></trkpt><trkpt lat="46.03539105708684" lon="12.16341993040094"><ele>563.0</ele><time>2026-04-26T07:35:47Z</time></trkpt><trkpt lat="46.035331943017624" lon="12.163286596232973"><ele>563.0</ele><time>2026-04-26T07:35:48Z</time></trkpt><trkpt lat="46.035283959492645" lon="12.163164573260214"><ele>563.0</ele><time>2026-04-26T07:35:49Z</time></trkpt><trkpt lat="46.03524971558751" lon="12.16303033457395"><ele>563.0</ele><time>2026-04-26T07:35:50Z</time></trkpt><trkpt lat="46.0352515007041" lon="12.162874569855063"><ele>563.0</ele><time>2026-04-26T07:35:51Z</time></trkpt><trkpt lat="46.035268217056476" lon="12.162718070765607"><ele>561.8333333333333</ele><time>2026-04-26T07:35:52Z</time></trkpt><trkpt lat="46.035281254741385" lon="12.162577585558855"><ele>560.6666666666666</ele><time>2026-04-26T07:35:53Z</time></trkpt><trkpt lat="46.03528747708062" lon="12.162456518704412"><ele>559.5</ele><time>2026-04-26T07:35:54Z</time></trkpt><trkpt lat="46.03525845273611" lon="12.16233273420266"><ele>558.3333333333334</ele><time>2026-04-26T07:35:55Z</time></trkpt><trkpt lat="46.03521146219767" lon="12.162219564061772"><ele>557.1666666666667</ele><time>2026-04-26T07:35:56Z</time></trkpt><trkpt lat="46.03515247562423" lon="12.162136621448072"><ele>556.0</ele><time>2026-04-26T07:35:57Z</time></trkpt><trkpt lat="46.03507163216419" lon="12.162085339483955"><ele>551.8</ele><time>2026-04-26T07:35:58Z</time></trkpt><trkpt lat="46.034953527209595" lon="12.162053169338988"><ele>547.6</ele><time>2026-04-26T07:35:59Z</time></trkpt><trkpt lat="46.03482300713663" lon="12.162010810905784"><ele>543.4</ele><time>2026-04-26T07:36:00Z</time></trkpt><trkpt lat="46.03472203447011" lon="12.161974505655865"><ele>539.2</ele><time>2026-04-26T07:36:01Z</time></trkpt><trkpt lat="46.03464550985173" lon="12.16195066895727"><ele>535.0</ele><time>2026-04-26T07:36:02Z</time></trkpt><trkpt lat="46.034579621732206" lon="12.161932845378985"><ele>535.0</ele><time>2026-04-26T07:36:03Z</time></trkpt><trkpt lat="46.03451940722093" lon="12.161963199211726"><ele>535.0</ele><time>2026-04-26T07:36:04Z</time></trkpt><trkpt lat="46.03446874370126" lon="12.162029147840936"><ele>535.0</ele><time>2026-04-26T07:36:05Z</time></trkpt><trkpt lat="46.034424074700965" lon="12.16215928920137"><ele>535.0</ele><time>2026-04-26T07:36:06Z</time></trkpt><trkpt lat="46.03443198436678" lon="12.162336694659112"><ele>535.0</ele><time>2026-04-26T07:36:07Z</time></trkpt><trkpt lat="46.03440382067188" lon="12.16248452858608"><ele>536.4</ele><time>2026-04-26T07:36:08Z</time></trkpt><trkpt lat="46.03436935933277" lon="12.162604990383228"><ele>537.8</ele><time>2026-04-26T07:36:09Z</time></trkpt><trkpt lat="46.03431450954168" lon="12.16270351391661"><ele>539.2</ele><time>2026-04-26T07:36:10Z</time></trkpt><trkpt lat="46.03424264096797" lon="12.162792699580834"><ele>540.6</ele><time>2026-04-26T07:36:11Z</time></trkpt><trkpt lat="46.034148505303506" lon="12.162860543123502"><ele>542.0</ele><time>2026-04-26T07:36:12Z</time></trkpt><trkpt lat="46.03403471117225" lon="12.1628878994944"><ele>542.0</ele><time>2026-04-26T07:36:13Z</time></trkpt><trkpt lat="46.03393354373285" lon="12.162914064068199"><ele>542.0</ele><time>2026-04-26T07:36:14Z</time></trkpt><trkpt lat="46.03383974314591" lon="12.16296207829396"><ele>542.0</ele><time>2026-04-26T07:36:15Z</time></trkpt><trkpt lat="46.033740846105744" lon="12.163060657095501"><ele>542.0</ele><time>2026-04-26T07:36:16Z</time></trkpt><trkpt lat="46.03365421347926" lon="12.163191047204675"><ele>542.0</ele><time>2026-04-26T07:36:17Z</time></trkpt><trkpt lat="46.0335704994274" lon="12.16331955246263"><ele>544.8000000000001</ele><time>2026-04-26T07:36:18Z</time></trkpt><trkpt lat="46.03348079654055" lon="12.163438773997264"><ele>547.6</ele><time>2026-04-26T07:36:19Z</time></trkpt><trkpt lat="46.03341391453992" lon="12.163522239777354"><ele>550.4000000000001</ele><time>2026-04-26T07:36:20Z</time></trkpt><trkpt lat="46.03330515374422" lon="12.163591209519256"><ele>553.2</ele><time>2026-04-26T07:36:22Z</time></trkpt><trkpt lat="46.03323805056691" lon="12.163568002165643"><ele>556.0</ele><time>2026-04-26T07:36:23Z</time></trkpt><trkpt lat="46.03316453491145" lon="12.163490649631347"><ele>557.6</ele><time>2026-04-26T07:36:24Z</time></trkpt><trkpt lat="46.03307641598388" lon="12.16339855583603"><ele>559.2</ele><time>2026-04-26T07:36:25Z</time></trkpt><trkpt lat="46.032986355150264" lon="12.163316075870261"><ele>560.8</ele><time>2026-04-26T07:36:26Z</time></trkpt><trkpt lat="46.032906018784466" lon="12.163260123948687"><ele>562.4</ele><time>2026-04-26T07:36:27Z</time></trkpt><trkpt lat="46.03280732937939" lon="12.16323701802174"><ele>564.0</ele><time>2026-04-26T07:36:28Z</time></trkpt><trkpt lat="46.03269129511271" lon="12.163275262970332"><ele>564.0</ele><time>2026-04-26T07:36:29Z</time></trkpt><trkpt lat="46.0325641865354" lon="12.163353620348264"><ele>564.0</ele><time>2026-04-26T07:36:30Z</time></trkpt><trkpt lat="46.03244095454393" lon="12.163422007180603"><ele>564.0</ele><time>2026-04-26T07:36:31Z</time></trkpt><trkpt lat="46.03230961070843" lon="12.163471033601"><ele>564.0</ele><time>2026-04-26T07:36:32Z</time></trkpt><trkpt lat="46.03215058986122" lon="12.163488635855245"><ele>564.5</ele><time>2026-04-26T07:36:33Z</time></trkpt><trkpt lat="46.03199673741221" lon="12.163508092595704"><ele>565.0</ele><time>2026-04-26T07:36:34Z</time></trkpt><trkpt lat="46.03186748618482" lon="12.163529336780151"><ele>565.5</ele><time>2026-04-26T07:36:34.999Z</time></trkpt><trkpt lat="46.0317501184844" lon="12.163536831696955"><ele>566.0</ele><time>2026-04-26T07:36:35.999Z</time></trkpt><trkpt lat="46.03162382199047" lon="12.16355428921732"><ele>566.6666666666666</ele><time>2026-04-26T07:36:36.999Z</time></trkpt><trkpt lat="46.031487880637435" lon="12.163535406087888"><ele>567.3333333333334</ele><time>2026-04-26T07:36:37.999Z</time></trkpt><trkpt lat="46.031331066775195" lon="12.16353528776267"><ele>568.0</ele><time>2026-04-26T07:36:38.999Z</time></trkpt><trkpt lat="46.031171397606414" lon="12.163517331769482"><ele>568.0</ele><time>2026-04-26T07:36:39.999Z</time></trkpt><trkpt lat="46.031011806242255" lon="12.163497558258697"><ele>568.0</ele><time>2026-04-26T07:36:40.999Z</time></trkpt><trkpt lat="46.030850590485905" lon="12.163476379874899"><ele>568.0</ele><time>2026-04-26T07:36:41.999Z</time></trkpt><trkpt lat="46.03068187874433" lon="12.163441472621649"><ele>569.0</ele><time>2026-04-26T07:36:42.999Z</time></trkpt><trkpt lat="46.0305241130488" lon="12.163404344508043"><ele>570.0</ele><time>2026-04-26T07:36:43.999Z</time></trkpt><trkpt lat="46.03038441218326" lon="12.163369461649355"><ele>571.0</ele><time>2026-04-26T07:36:44.999Z</time></trkpt><trkpt lat="46.03023084987349" lon="12.16334959684749"><ele>571.0</ele><time>2026-04-26T07:36:45.999Z</time></trkpt><trkpt lat="46.03007571560655" lon="12.1633375182479"><ele>571.0</ele><time>2026-04-26T07:36:46.999Z</time></trkpt><trkpt lat="46.029921454156955" lon="12.16333211714896"><ele>571.0</ele><time>2026-04-26T07:36:47.999Z</time></trkpt><trkpt lat="46.029773336484126" lon="12.163327809567877"><ele>572.25</ele><time>2026-04-26T07:36:48.999Z</time></trkpt><trkpt lat="46.02963419733508" lon="12.163332572498733"><ele>573.5</ele><time>2026-04-26T07:36:49.999Z</time></trkpt><trkpt lat="46.02949528006577" lon="12.163322094847096"><ele>574.75</ele><time>2026-04-26T07:36:50.999Z</time></trkpt><trkpt lat="46.02934388247318" lon="12.16327884217907"><ele>576.0</ele><time>2026-04-26T07:36:51.999Z</time></trkpt><trkpt lat="46.0291953432079" lon="12.163221123377513"><ele>576.0</ele><time>2026-04-26T07:36:52.999Z</time></trkpt><trkpt lat="46.02904577185609" lon="12.163139046235052"><ele>576.0</ele><time>2026-04-26T07:36:53.999Z</time></trkpt><trkpt lat="46.028906739712596" lon="12.163055218069257"><ele>576.0</ele><time>2026-04-26T07:36:54.999Z</time></trkpt><trkpt lat="46.028784722240225" lon="12.162984533828297"><ele>576.0</ele><time>2026-04-26T07:36:55.999Z</time></trkpt><trkpt lat="46.02866944639513" lon="12.162900317376273"><ele>576.0</ele><time>2026-04-26T07:36:56.999Z</time></trkpt><trkpt lat="46.02853902197693" lon="12.162836136343849"><ele>576.0</ele><time>2026-04-26T07:36:57.999Z</time></trkpt><trkpt lat="46.02839087650923" lon="12.162788903431634"><ele>576.0</ele><time>2026-04-26T07:36:58.999Z</time></trkpt><trkpt lat="46.02823567881279" lon="12.162762061373929"><ele>576.0</ele><time>2026-04-26T07:36:59.999Z</time></trkpt><trkpt lat="46.02806480310342" lon="12.162734652099386"><ele>579.6666666666666</ele><time>2026-04-26T07:37:00.999Z</time></trkpt><trkpt lat="46.0279014490206" lon="12.162696150988504"><ele>583.3333333333333</ele><time>2026-04-26T07:37:01.999Z</time></trkpt><trkpt lat="46.02775420290816" lon="12.162676406602625"><ele>587.0</ele><time>2026-04-26T07:37:02.999Z</time></trkpt><trkpt lat="46.02760231090926" lon="12.16267925901576"><ele>589.3333333333333</ele><time>2026-04-26T07:37:03.999Z</time></trkpt><trkpt lat="46.027443806704504" lon="12.162697240248486"><ele>591.6666666666666</ele><time>2026-04-26T07:37:04.999Z</time></trkpt><trkpt lat="46.02728324172035" lon="12.16269253560104"><ele>594.0</ele><time>2026-04-26T07:37:05.999Z</time></trkpt><trkpt lat="46.027119388377265" lon="12.162669902707487"><ele>594.0</ele><time>2026-04-26T07:37:06.999Z</time></trkpt><trkpt lat="46.02697484946878" lon="12.162629409446348"><ele>594.0</ele><time>2026-04-26T07:37:07.999Z</time></trkpt><trkpt lat="46.02684022783064" lon="12.162601715001928"><ele>594.0</ele><time>2026-04-26T07:37:08.999Z</time></trkpt><trkpt lat="46.02669705853999" lon="12.162593759899869"><ele>594.0</ele><time>2026-04-26T07:37:09.999Z</time></trkpt><trkpt lat="46.02657647176281" lon="12.162604940521321"><ele>597.0</ele><time>2026-04-26T07:37:10.999Z</time></trkpt><trkpt lat="46.026454595846566" lon="12.162628454133932"><ele>600.0</ele><time>2026-04-26T07:37:11.999Z</time></trkpt><trkpt lat="46.02634045243439" lon="12.162655459741082"><ele>603.0</ele><time>2026-04-26T07:37:12.999Z</time></trkpt><trkpt lat="46.02624172225073" lon="12.162677008699676"><ele>606.0</ele><time>2026-04-26T07:37:13.999Z</time></trkpt><trkpt lat="46.02613318227804" lon="12.162673056239289"><ele>609.0</ele><time>2026-04-26T07:37:14.999Z</time></trkpt><trkpt lat="46.02602446674617" lon="12.16260886579846"><ele>609.0</ele><time>2026-04-26T07:37:15.999Z</time></trkpt><trkpt lat="46.02591030590405" lon="12.162506025644104"><ele>609.0</ele><time>2026-04-26T07:37:16.999Z</time></trkpt><trkpt lat="46.0257905095408" lon="12.162389944617997"><ele>609.0</ele><time>2026-04-26T07:37:17.999Z</time></trkpt><trkpt lat="46.02569149201535" lon="12.162291909526338"><ele>609.0</ele><time>2026-04-26T07:37:18.999Z</time></trkpt><trkpt lat="46.02559454103473" lon="12.162215301009342"><ele>605.75</ele><time>2026-04-26T07:37:19.999Z</time></trkpt><trkpt lat="46.02548003853306" lon="12.162151549136109"><ele>602.5</ele><time>2026-04-26T07:37:20.999Z</time></trkpt><trkpt lat="46.025364249888945" lon="12.162110355489576"><ele>599.25</ele><time>2026-04-26T07:37:21.999Z</time></trkpt><trkpt lat="46.025234636681596" lon="12.16209042260849"><ele>596.0</ele><time>2026-04-26T07:37:22.999Z</time></trkpt><trkpt lat="46.02508012065172" lon="12.162092146161216"><ele>597.0</ele><time>2026-04-26T07:37:23.999Z</time></trkpt><trkpt lat="46.02491751613719" lon="12.162090533205372"><ele>598.0</ele><time>2026-04-26T07:37:24.999Z</time></trkpt><trkpt lat="46.0247742325104" lon="12.16208576988834"><ele>599.0</ele><time>2026-04-26T07:37:25.999Z</time></trkpt><trkpt lat="46.02464545219095" lon="12.162082438665756"><ele>600.0</ele><time>2026-04-26T07:37:26.999Z</time></trkpt><trkpt lat="46.02451582013839" lon="12.162070895471809"><ele>600.0</ele><time>2026-04-26T07:37:27.999Z</time></trkpt><trkpt lat="46.02440184268071" lon="12.162055529919698"><ele>600.0</ele><time>2026-04-26T07:37:28.999Z</time></trkpt><trkpt lat="46.02427882107876" lon="12.162068274114596"><ele>600.0</ele><time>2026-04-26T07:37:29.999Z</time></trkpt><trkpt lat="46.02414789993683" lon="12.162115506708508"><ele>600.0</ele><time>2026-04-26T07:37:30.999Z</time></trkpt><trkpt lat="46.024010077798366" lon="12.162186810169544"><ele>604.0</ele><time>2026-04-26T07:37:31.999Z</time></trkpt><trkpt lat="46.02385584241234" lon="12.162267899595012"><ele>608.0</ele><time>2026-04-26T07:37:32.999Z</time></trkpt><trkpt lat="46.02370175424805" lon="12.162384807952911"><ele>612.0</ele><time>2026-04-26T07:37:33.999Z</time></trkpt><trkpt lat="46.02357725304167" lon="12.162502971569708"><ele>613.5</ele><time>2026-04-26T07:37:35Z</time></trkpt><trkpt lat="46.02343212458117" lon="12.162590416254867"><ele>615.0</ele><time>2026-04-26T07:37:36Z</time></trkpt><trkpt lat="46.023297710572486" lon="12.162656920023233"><ele>616.5</ele><time>2026-04-26T07:37:37Z</time></trkpt><trkpt lat="46.02317111888414" lon="12.162718187888974"><ele>618.0</ele><time>2026-04-26T07:37:38Z</time></trkpt><trkpt lat="46.02303706418626" lon="12.162783972333738"><ele>619.0</ele><time>2026-04-26T07:37:39Z</time></trkpt><trkpt lat="46.022891175203135" lon="12.162848029990386"><ele>620.0</ele><time>2026-04-26T07:37:40Z</time></trkpt><trkpt lat="46.02272973104159" lon="12.16289649093559"><ele>621.0</ele><time>2026-04-26T07:37:41Z</time></trkpt><trkpt lat="46.02256760976314" lon="12.162931208102666"><ele>620.6666666666666</ele><time>2026-04-26T07:37:42Z</time></trkpt><trkpt lat="46.02239235689465" lon="12.162977700642342"><ele>620.3333333333333</ele><time>2026-04-26T07:37:43Z</time></trkpt><trkpt lat="46.02220971205362" lon="12.163017225977688"><ele>620.0</ele><time>2026-04-26T07:37:44Z</time></trkpt><trkpt lat="46.02202851404671" lon="12.163082518931942"><ele>620.0</ele><time>2026-04-26T07:37:45Z</time></trkpt><trkpt lat="46.021843259374336" lon="12.163181822657355"><ele>620.0</ele><time>2026-04-26T07:37:46Z</time></trkpt><trkpt lat="46.02166921360605" lon="12.163268212790566"><ele>620.0</ele><time>2026-04-26T07:37:47Z</time></trkpt><trkpt lat="46.021472049457" lon="12.163333642678674"><ele>623.3333333333333</ele><time>2026-04-26T07:37:48Z</time></trkpt><trkpt lat="46.021277183654995" lon="12.163399188350885"><ele>626.6666666666666</ele><time>2026-04-26T07:37:49Z</time></trkpt><trkpt lat="46.02109946596067" lon="12.163452230253034"><ele>630.0</ele><time>2026-04-26T07:37:50Z</time></trkpt><trkpt lat="46.02093982687821" lon="12.16350073758557"><ele>633.5</ele><time>2026-04-26T07:37:51Z</time></trkpt><trkpt lat="46.020791967571576" lon="12.16354836417701"><ele>637.0</ele><time>2026-04-26T07:37:52Z</time></trkpt><trkpt lat="46.02065665747127" lon="12.163588507298147"><ele>640.5</ele><time>2026-04-26T07:37:53Z</time></trkpt><trkpt lat="46.020540781494994" lon="12.163619358604556"><ele>644.0</ele><time>2026-04-26T07:37:54Z</time></trkpt><trkpt lat="46.02043885626102" lon="12.163647559491592"><ele>644.0</ele><time>2026-04-26T07:37:55Z</time></trkpt><trkpt lat="46.02034054230209" lon="12.16370882345824"><ele>644.0</ele><time>2026-04-26T07:37:56Z</time></trkpt><trkpt lat="46.02024055650506" lon="12.163831211798412"><ele>644.0</ele><time>2026-04-26T07:37:57Z</time></trkpt><trkpt lat="46.020133823254504" lon="12.163984526320474"><ele>644.0</ele><time>2026-04-26T07:37:58Z</time></trkpt><trkpt lat="46.020018575365654" lon="12.164148137672194"><ele>644.3333333333333</ele><time>2026-04-26T07:37:59Z</time></trkpt><trkpt lat="46.019893949392085" lon="12.164307861429828"><ele>644.6666666666666</ele><time>2026-04-26T07:38:00Z</time></trkpt><trkpt lat="46.01975868659032" lon="12.164434078091638"><ele>645.0</ele><time>2026-04-26T07:38:01Z</time></trkpt><trkpt lat="46.01962536372116" lon="12.164554990343966"><ele>645.0</ele><time>2026-04-26T07:38:02Z</time></trkpt><trkpt lat="46.01949071318745" lon="12.164704458210643"><ele>645.0</ele><time>2026-04-26T07:38:03Z</time></trkpt><trkpt lat="46.01935124364691" lon="12.1648685130963"><ele>645.0</ele><time>2026-04-26T07:38:04Z</time></trkpt><trkpt lat="46.0192145558231" lon="12.165020809695632"><ele>648.6666666666666</ele><time>2026-04-26T07:38:05Z</time></trkpt><trkpt lat="46.019077215320166" lon="12.165158725394098"><ele>652.3333333333333</ele><time>2026-04-26T07:38:06Z</time></trkpt><trkpt lat="46.018923309191884" lon="12.165298838257861"><ele>656.0</ele><time>2026-04-26T07:38:07Z</time></trkpt><trkpt lat="46.018767710860956" lon="12.165445288650831"><ele>656.0</ele><time>2026-04-26T07:38:08Z</time></trkpt><trkpt lat="46.01862214157608" lon="12.16558448301683"><ele>656.0</ele><time>2026-04-26T07:38:09Z</time></trkpt><trkpt lat="46.01849835033016" lon="12.165706524440889"><ele>656.0</ele><time>2026-04-26T07:38:10Z</time></trkpt><trkpt lat="46.018383176783345" lon="12.165815961013841"><ele>658.5</ele><time>2026-04-26T07:38:11Z</time></trkpt><trkpt lat="46.01827740392331" lon="12.165911317192661"><ele>661.0</ele><time>2026-04-26T07:38:12Z</time></trkpt><trkpt lat="46.018176529032615" lon="12.165999555525639"><ele>663.5</ele><time>2026-04-26T07:38:13Z</time></trkpt><trkpt lat="46.01807629470081" lon="12.166070293178855"><ele>666.0</ele><time>2026-04-26T07:38:14Z</time></trkpt><trkpt lat="46.01796536675898" lon="12.16612076305235"><ele>666.0</ele><time>2026-04-26T07:38:15Z</time></trkpt><trkpt lat="46.01784408756914" lon="12.16614205798304"><ele>666.0</ele><time>2026-04-26T07:38:16Z</time></trkpt><trkpt lat="46.01771103823328" lon="12.166161852569457"><ele>666.0</ele><time>2026-04-26T07:38:17Z</time></trkpt><trkpt lat="46.017596780682815" lon="12.166189671604966"><ele>666.0</ele><time>2026-04-26T07:38:18Z</time></trkpt><trkpt lat="46.01748511387204" lon="12.166263978281226"><ele>666.25</ele><time>2026-04-26T07:38:19Z</time></trkpt><trkpt lat="46.0173771233657" lon="12.166382304217395"><ele>666.5</ele><time>2026-04-26T07:38:20Z</time></trkpt><trkpt lat="46.01725591008423" lon="12.166522674798784"><ele>666.75</ele><time>2026-04-26T07:38:21Z</time></trkpt><trkpt lat="46.017139283689225" lon="12.166627964086414"><ele>667.0</ele><time>2026-04-26T07:38:22Z</time></trkpt><trkpt lat="46.01700564604813" lon="12.166696454208479"><ele>667.0</ele><time>2026-04-26T07:38:23Z</time></trkpt><trkpt lat="46.01683854021452" lon="12.166734160528367"><ele>667.0</ele><time>2026-04-26T07:38:24Z</time></trkpt><trkpt lat="46.016650297176646" lon="12.166769875661629"><ele>667.0</ele><time>2026-04-26T07:38:25Z</time></trkpt><trkpt lat="46.01646140202966" lon="12.166811933474497"><ele>664.3333333333334</ele><time>2026-04-26T07:38:26Z</time></trkpt><trkpt lat="46.01626951292697" lon="12.166868196426307"><ele>661.6666666666666</ele><time>2026-04-26T07:38:27Z</time></trkpt><trkpt lat="46.016069560111056" lon="12.166923482757731"><ele>659.0</ele><time>2026-04-26T07:38:28Z</time></trkpt><trkpt lat="46.01587578731028" lon="12.166976342727"><ele>657.0</ele><time>2026-04-26T07:38:29Z</time></trkpt><trkpt lat="46.01568744768336" lon="12.167024587791687"><ele>655.0</ele><time>2026-04-26T07:38:30Z</time></trkpt><trkpt lat="46.015498868583926" lon="12.167071136850412"><ele>653.0</ele><time>2026-04-26T07:38:31Z</time></trkpt><trkpt lat="46.015326648027354" lon="12.167118041363395"><ele>653.0</ele><time>2026-04-26T07:38:32Z</time></trkpt><trkpt lat="46.0151665654171" lon="12.167161564245996"><ele>653.0</ele><time>2026-04-26T07:38:33Z</time></trkpt><trkpt lat="46.015036189084434" lon="12.167180378436944"><ele>653.0</ele><time>2026-04-26T07:38:34Z</time></trkpt><trkpt lat="46.01489506518076" lon="12.16718795683585"><ele>653.0</ele><time>2026-04-26T07:38:35Z</time></trkpt><trkpt lat="46.01474541710474" lon="12.167145802013069"><ele>653.5</ele><time>2026-04-26T07:38:36Z</time></trkpt><trkpt lat="46.014602464410814" lon="12.167134013839467"><ele>654.0</ele><time>2026-04-26T07:38:37Z</time></trkpt><trkpt lat="46.01447431157417" lon="12.167165934269219"><ele>654.5</ele><time>2026-04-26T07:38:38Z</time></trkpt><trkpt lat="46.01432158122663" lon="12.167173835969509"><ele>655.0</ele><time>2026-04-26T07:38:39Z</time></trkpt><trkpt lat="46.01417796154006" lon="12.167193762886415"><ele>653.75</ele><time>2026-04-26T07:38:40Z</time></trkpt><trkpt lat="46.01405021900786" lon="12.167199497117695"><ele>652.5</ele><time>2026-04-26T07:38:41Z</time></trkpt><trkpt lat="46.01390256935347" lon="12.16721526312803"><ele>651.25</ele><time>2026-04-26T07:38:42Z</time></trkpt><trkpt lat="46.01376325754344" lon="12.167215396618904"><ele>650.0</ele><time>2026-04-26T07:38:43Z</time></trkpt><trkpt lat="46.013613658349094" lon="12.167243478611663"><ele>650.0</ele><time>2026-04-26T07:38:44Z</time></trkpt><trkpt lat="46.0134349039954" lon="12.167290601021698"><ele>650.0</ele><time>2026-04-26T07:38:45Z</time></trkpt><trkpt lat="46.01324820673631" lon="12.167341522424579"><ele>650.0</ele><time>2026-04-26T07:38:45.999Z</time></trkpt><trkpt lat="46.01309499561157" lon="12.167390593781187"><ele>655.5</ele><time>2026-04-26T07:38:46.999Z</time></trkpt><trkpt lat="46.012956322248264" lon="12.167410415118807"><ele>661.0</ele><time>2026-04-26T07:38:47.999Z</time></trkpt><trkpt lat="46.012824901501396" lon="12.167446983865648"><ele>666.5</ele><time>2026-04-26T07:38:48.999Z</time></trkpt><trkpt lat="46.0126822424902" lon="12.167487158839965"><ele>672.0</ele><time>2026-04-26T07:38:49.999Z</time></trkpt><trkpt lat="46.01255462958728" lon="12.16754567759109"><ele>672.0</ele><time>2026-04-26T07:38:50.999Z</time></trkpt><trkpt lat="46.012433507532684" lon="12.167581090353433"><ele>672.0</ele><time>2026-04-26T07:38:51.999Z</time></trkpt><trkpt lat="46.01229878690696" lon="12.167598449604464"><ele>672.0</ele><time>2026-04-26T07:38:52.999Z</time></trkpt><trkpt lat="46.01215548942958" lon="12.16758712733893"><ele>672.0</ele><time>2026-04-26T07:38:53.999Z</time></trkpt><trkpt lat="46.0120041791193" lon="12.167581605274972"><ele>672.0</ele><time>2026-04-26T07:38:54.999Z</time></trkpt><trkpt lat="46.01185113342226" lon="12.167576200036452"><ele>672.0</ele><time>2026-04-26T07:38:55.999Z</time></trkpt><trkpt lat="46.01172100785862" lon="12.16758946492667"><ele>672.0</ele><time>2026-04-26T07:38:56.999Z</time></trkpt><trkpt lat="46.01159868315776" lon="12.167583095760168"><ele>672.0</ele><time>2026-04-26T07:38:57.999Z</time></trkpt><trkpt lat="46.01147088477921" lon="12.1675887488964"><ele>671.5</ele><time>2026-04-26T07:38:58.999Z</time></trkpt><trkpt lat="46.011342465670666" lon="12.167624978152867"><ele>671.0</ele><time>2026-04-26T07:38:59.999Z</time></trkpt><trkpt lat="46.01119833873577" lon="12.167657675391718"><ele>670.5</ele><time>2026-04-26T07:39:00.999Z</time></trkpt><trkpt lat="46.01105922369754" lon="12.167729015128874"><ele>670.0</ele><time>2026-04-26T07:39:01.999Z</time></trkpt><trkpt lat="46.01090457976498" lon="12.167819469690375"><ele>670.3333333333334</ele><time>2026-04-26T07:39:02.999Z</time></trkpt><trkpt lat="46.01074960315581" lon="12.167921453202473"><ele>670.6666666666666</ele><time>2026-04-26T07:39:03.999Z</time></trkpt><trkpt lat="46.01061158505315" lon="12.168026139215138"><ele>671.0</ele><time>2026-04-26T07:39:04.999Z</time></trkpt><trkpt lat="46.01044022312041" lon="12.168099411730804"><ele>671.0</ele><time>2026-04-26T07:39:05.999Z</time></trkpt><trkpt lat="46.01025320294112" lon="12.168168821155984"><ele>671.0</ele><time>2026-04-26T07:39:06.999Z</time></trkpt><trkpt lat="46.01006932143664" lon="12.168235490732002"><ele>671.0</ele><time>2026-04-26T07:39:07.999Z</time></trkpt><trkpt lat="46.00991020947713" lon="12.168287064085813"><ele>674.0</ele><time>2026-04-26T07:39:08.999Z</time></trkpt><trkpt lat="46.009762490193005" lon="12.168334040485439"><ele>677.0</ele><time>2026-04-26T07:39:09.999Z</time></trkpt><trkpt lat="46.00961344655336" lon="12.16838890899855"><ele>680.0</ele><time>2026-04-26T07:39:10.999Z</time></trkpt><trkpt lat="46.00946666842499" lon="12.168433947531776"><ele>680.0</ele><time>2026-04-26T07:39:11.999Z</time></trkpt><trkpt lat="46.009340212617666" lon="12.168480609259992"><ele>680.0</ele><time>2026-04-26T07:39:12.999Z</time></trkpt><trkpt lat="46.009219564787145" lon="12.168502416982511"><ele>680.0</ele><time>2026-04-26T07:39:13.999Z</time></trkpt><trkpt lat="46.009111737547755" lon="12.168540429920393"><ele>680.0</ele><time>2026-04-26T07:39:14.999Z</time></trkpt><trkpt lat="46.00901157116705" lon="12.16857563879149"><ele>681.25</ele><time>2026-04-26T07:39:15.999Z</time></trkpt><trkpt lat="46.008918396863805" lon="12.168650428699555"><ele>682.5</ele><time>2026-04-26T07:39:16.999Z</time></trkpt><trkpt lat="46.00881501586445" lon="12.16871624281612"><ele>683.75</ele><time>2026-04-26T07:39:17.999Z</time></trkpt><trkpt lat="46.00870575530626" lon="12.168761473695485"><ele>685.0</ele><time>2026-04-26T07:39:18.999Z</time></trkpt><trkpt lat="46.0085952433431" lon="12.168844479602003"><ele>685.0</ele><time>2026-04-26T07:39:19.999Z</time></trkpt><trkpt lat="46.00847028762441" lon="12.168909834332302"><ele>685.0</ele><time>2026-04-26T07:39:20.999Z</time></trkpt><trkpt lat="46.008360920301044" lon="12.168950895000755"><ele>685.0</ele><time>2026-04-26T07:39:21.999Z</time></trkpt><trkpt lat="46.00824119488714" lon="12.168987365045266"><ele>685.0</ele><time>2026-04-26T07:39:22.999Z</time></trkpt><trkpt lat="46.00811791969583" lon="12.169026182312955"><ele>688.5</ele><time>2026-04-26T07:39:23.999Z</time></trkpt><trkpt lat="46.00798098539859" lon="12.169051126080129"><ele>692.0</ele><time>2026-04-26T07:39:24.999Z</time></trkpt><trkpt lat="46.00784799082764" lon="12.16911475186814"><ele>695.5</ele><time>2026-04-26T07:39:25.999Z</time></trkpt><trkpt lat="46.00769518998217" lon="12.169150738330867"><ele>699.0</ele><time>2026-04-26T07:39:26.999Z</time></trkpt><trkpt lat="46.00756310628165" lon="12.16918071333604"><ele>699.75</ele><time>2026-04-26T07:39:27.999Z</time></trkpt><trkpt lat="46.00743538583289" lon="12.169221925459922"><ele>700.5</ele><time>2026-04-26T07:39:28.999Z</time></trkpt><trkpt lat="46.007306262268095" lon="12.169256429214718"><ele>701.25</ele><time>2026-04-26T07:39:29.999Z</time></trkpt><trkpt lat="46.007182498056444" lon="12.169291251122576"><ele>702.0</ele><time>2026-04-26T07:39:30.999Z</time></trkpt><trkpt lat="46.00705834994072" lon="12.1693266952854"><ele>702.0</ele><time>2026-04-26T07:39:31.999Z</time></trkpt><trkpt lat="46.006931512543275" lon="12.169371918495319"><ele>702.0</ele><time>2026-04-26T07:39:32.999Z</time></trkpt><trkpt lat="46.00679577758131" lon="12.169420136481603"><ele>702.0</ele><time>2026-04-26T07:39:33.999Z</time></trkpt><trkpt lat="46.00665451230269" lon="12.169467494039727"><ele>702.0</ele><time>2026-04-26T07:39:34.999Z</time></trkpt><trkpt lat="46.006519924385685" lon="12.169495761608285"><ele>704.0</ele><time>2026-04-26T07:39:35.999Z</time></trkpt><trkpt lat="46.006398592252616" lon="12.16954107342677"><ele>706.0</ele><time>2026-04-26T07:39:36.999Z</time></trkpt><trkpt lat="46.006282621795194" lon="12.169583529088172"><ele>708.0</ele><time>2026-04-26T07:39:37.999Z</time></trkpt><trkpt lat="46.00618370898906" lon="12.169616395935764"><ele>710.0</ele><time>2026-04-26T07:39:38.999Z</time></trkpt><trkpt lat="46.00608866288154" lon="12.169644712034398"><ele>712.0</ele><time>2026-04-26T07:39:39.999Z</time></trkpt><trkpt lat="46.00598421809061" lon="12.169695274065049"><ele>712.0</ele><time>2026-04-26T07:39:41Z</time></trkpt><trkpt lat="46.00589485850343" lon="12.169732555094416"><ele>712.0</ele><time>2026-04-26T07:39:42Z</time></trkpt><trkpt lat="46.00579857001385" lon="12.169744202240363"><ele>712.0</ele><time>2026-04-26T07:39:43Z</time></trkpt><trkpt lat="46.00568708049955" lon="12.169739883205484"><ele>712.0</ele><time>2026-04-26T07:39:44Z</time></trkpt><trkpt lat="46.005591455339925" lon="12.169728564185208"><ele>712.0</ele><time>2026-04-26T07:39:45Z</time></trkpt><trkpt lat="46.00549818804362" lon="12.169739940191494"><ele>711.8333333333334</ele><time>2026-04-26T07:39:46Z</time></trkpt><trkpt lat="46.00541596058388" lon="12.169743731895394"><ele>711.6666666666667</ele><time>2026-04-26T07:39:47Z</time></trkpt><trkpt lat="46.0053495615656" lon="12.169742838568753"><ele>711.5</ele><time>2026-04-26T07:39:48Z</time></trkpt><trkpt lat="46.005283603755096" lon="12.169735349556115"><ele>711.3333333333334</ele><time>2026-04-26T07:39:49Z</time></trkpt><trkpt lat="46.00517229207712" lon="12.169710228961465"><ele>711.1666666666666</ele><time>2026-04-26T07:39:51Z</time></trkpt><trkpt lat="46.00509511180219" lon="12.169708275935326"><ele>711.0</ele><time>2026-04-26T07:39:53Z</time></trkpt><trkpt lat="46.00501796976068" lon="12.16970669744806"><ele>710.3333333333334</ele><time>2026-04-26T07:39:55Z</time></trkpt><trkpt lat="46.00495092555526" lon="12.169709476280675"><ele>709.6666666666666</ele><time>2026-04-26T07:39:57Z</time></trkpt><trkpt lat="46.00486736401132" lon="12.169720905940125"><ele>709.0</ele><time>2026-04-26T07:43:30.999Z</time></trkpt><trkpt lat="46.00477085172419" lon="12.169761874215574"><ele>708.3333333333333</ele><time>2026-04-26T07:43:33.999Z</time></trkpt><trkpt lat="46.00472169008242" lon="12.169879455891897"><ele>707.6666666666666</ele><time>2026-04-26T07:43:35.999Z</time></trkpt><trkpt lat="46.00467245308254" lon="12.16997818418149"><ele>707.0</ele><time>2026-04-26T07:43:37.999Z</time></trkpt><trkpt lat="46.00459808799736" lon="12.170071228342541"><ele>711.6</ele><time>2026-04-26T07:43:40.018Z</time></trkpt><trkpt lat="46.00449106035563" lon="12.170137967796675"><ele>716.2</ele><time>2026-04-26T07:43:42.014Z</time></trkpt><trkpt lat="46.004419801745186" lon="12.170151972110547"><ele>720.8</ele><time>2026-04-26T07:43:43.018Z</time></trkpt><trkpt lat="46.004408165160385" lon="12.170007704197952"><ele>725.4</ele><time>2026-04-26T07:43:44.014Z</time></trkpt><trkpt lat="46.004348890041996" lon="12.169950973581338"><ele>730.0</ele><time>2026-04-26T07:43:45.015Z</time></trkpt><trkpt lat="46.00386341820171" lon="12.16918268468384"><ele>707.0</ele><time>2026-04-26T07:43:51.46Z</time></trkpt><trkpt lat="46.004604455126454" lon="12.169521683838376"><ele>707.0</ele><time>2026-04-26T07:43:53.999Z</time></trkpt><trkpt lat="46.00458141913239" lon="12.169402769509349"><ele>707.0</ele><time>2026-04-26T07:43:56.999Z</time></trkpt><trkpt lat="46.00464933599924" lon="12.169291962557343"><ele>707.0</ele><time>2026-04-26T07:43:57.999Z</time></trkpt><trkpt lat="46.00460916260761" lon="12.169183283532568"><ele>707.0</ele><time>2026-04-26T07:43:58.999Z</time></trkpt><trkpt lat="46.004484938868416" lon="12.169099426274483"><ele>707.0</ele><time>2026-04-26T07:44:00Z</time></trkpt><trkpt lat="46.00439704160435" lon="12.169062906051165"><ele>707.0</ele><time>2026-04-26T07:44:01Z</time></trkpt><trkpt lat="46.004320373267454" lon="12.169037485874899"><ele>707.0</ele><time>2026-04-26T07:44:02Z</time></trkpt><trkpt lat="46.00420387776001" lon="12.16897200272114"><ele>707.0</ele><time>2026-04-26T07:44:04Z</time></trkpt><trkpt lat="46.00413820612662" lon="12.168925738434192"><ele>707.0</ele><time>2026-04-26T07:44:05Z</time></trkpt><trkpt lat="46.004077168826065" lon="12.168883605222168"><ele>707.0</ele><time>2026-04-26T07:44:06Z</time></trkpt><trkpt lat="46.00398263982861" lon="12.16882341802929"><ele>707.0</ele><time>2026-04-26T07:44:08Z</time></trkpt><trkpt lat="46.00398434404651" lon="12.169111123101603"><ele>707.0</ele><time>2026-04-26T07:44:14.019Z</time></trkpt><trkpt lat="46.00430016800127" lon="12.16920856921875"><ele>707.0</ele><time>2026-04-26T07:44:19Z</time></trkpt><trkpt lat="46.004406957945534" lon="12.169257543649815"><ele>707.0</ele><time>2026-04-26T07:44:21Z</time></trkpt><trkpt lat="46.00446391272422" lon="12.169302648572133"><ele>707.0</ele><time>2026-04-26T07:44:23Z</time></trkpt><trkpt lat="46.004457700628095" lon="12.169416943049383"><ele>707.0</ele><time>2026-04-26T07:44:26Z</time></trkpt><trkpt lat="46.00437435151372" lon="12.169365317770511"><ele>707.0</ele><time>2026-04-26T07:44:28Z</time></trkpt><trkpt lat="46.00429441600686" lon="12.169312069378504"><ele>707.0</ele><time>2026-04-26T07:44:29Z</time></trkpt><trkpt lat="46.00420784684461" lon="12.16927151516036"><ele>707.0</ele><time>2026-04-26T07:44:30Z</time></trkpt><trkpt lat="46.0041377965892" lon="12.16924094240035"><ele>707.0</ele><time>2026-04-26T07:44:31Z</time></trkpt><trkpt lat="46.004073023747196" lon="12.169211533192458"><ele>711.6</ele><time>2026-04-26T07:44:32Z</time></trkpt><trkpt lat="46.0039521768188" lon="12.169180280950139"><ele>716.2</ele><time>2026-04-26T07:44:34Z</time></trkpt><trkpt lat="46.00388998027222" lon="12.169152553139224"><ele>720.8</ele><time>2026-04-26T07:44:36.021Z</time></trkpt><trkpt lat="46.003806104176974" lon="12.169219475472472"><ele>725.4</ele><time>2026-04-26T07:44:39.022Z</time></trkpt><trkpt lat="46.00380105613968" lon="12.169326791751399"><ele>730.0</ele><time>2026-04-26T07:44:40.018Z</time></trkpt><trkpt lat="46.003854699288716" lon="12.169434163622675"><ele>730.0</ele><time>2026-04-26T07:44:41.021Z</time></trkpt><trkpt lat="46.00413443990611" lon="12.16955169105173"><ele>730.0</ele><time>2026-04-26T07:44:45Z</time></trkpt><trkpt lat="46.00418223705661" lon="12.16963129371925"><ele>730.0</ele><time>2026-04-26T07:44:46Z</time></trkpt><trkpt lat="46.00425533048022" lon="12.169694068959336"><ele>726.1666666666667</ele><time>2026-04-26T07:44:47Z</time></trkpt><trkpt lat="46.00430373893742" lon="12.169777674239006"><ele>722.3333333333334</ele><time>2026-04-26T07:44:48Z</time></trkpt><trkpt lat="46.00436360607542" lon="12.169836975950002"><ele>718.5</ele><time>2026-04-26T07:44:49Z</time></trkpt><trkpt lat="46.00441435018993" lon="12.16993457117441"><ele>714.6666666666666</ele><time>2026-04-26T07:44:50Z</time></trkpt><trkpt lat="46.004468847791344" lon="12.16999260753471"><ele>710.8333333333333</ele><time>2026-04-26T07:44:51Z</time></trkpt><trkpt lat="46.00445330628849" lon="12.170093521093122"><ele>707.0</ele><time>2026-04-26T07:44:52.021Z</time></trkpt><trkpt lat="46.00425283428841" lon="12.169943209748872"><ele>710.8333333333333</ele><time>2026-04-26T07:44:58Z</time></trkpt><trkpt lat="46.00420029136974" lon="12.169868730337106"><ele>714.6666666666666</ele><time>2026-04-26T07:44:59Z</time></trkpt><trkpt lat="46.00411459739908" lon="12.169779841790168"><ele>718.5</ele><time>2026-04-26T07:45:00Z</time></trkpt><trkpt lat="46.00404742528474" lon="12.169730077570831"><ele>722.3333333333334</ele><time>2026-04-26T07:45:01Z</time></trkpt><trkpt lat="46.00397573874048" lon="12.169654182617316"><ele>726.1666666666667</ele><time>2026-04-26T07:45:02Z</time></trkpt><trkpt lat="46.003909126817206" lon="12.169595785524795"><ele>730.0</ele><time>2026-04-26T07:45:03Z</time></trkpt><trkpt lat="46.00379214838965" lon="12.169612086520853"><ele>730.0</ele><time>2026-04-26T07:45:05Z</time></trkpt><trkpt lat="46.00373242690201" lon="12.169663461202347"><ele>730.0</ele><time>2026-04-26T07:45:06Z</time></trkpt><trkpt lat="46.00368531262968" lon="12.169723996493728"><ele>730.0</ele><time>2026-04-26T07:45:07Z</time></trkpt><trkpt lat="46.00364620355474" lon="12.169856873893679"><ele>730.0</ele><time>2026-04-26T07:45:09Z</time></trkpt><trkpt lat="46.00370785438922" lon="12.169979159044198"><ele>730.0</ele><time>2026-04-26T07:45:11Z</time></trkpt><trkpt lat="46.00382261978192" lon="12.169970089857998"><ele>719.5</ele><time>2026-04-26T07:45:13Z</time></trkpt><trkpt lat="46.0033875940707" lon="12.169859074130263"><ele>709.0</ele><time>2026-04-26T07:45:14Z</time></trkpt><trkpt lat="46.00360463987657" lon="12.169886266377407"><ele>709.0</ele><time>2026-04-26T07:45:15Z</time></trkpt><trkpt lat="46.004041183832854" lon="12.169937573690408"><ele>709.0</ele><time>2026-04-26T07:45:15.999Z</time></trkpt><trkpt lat="46.004134015541" lon="12.170042598735673"><ele>703.0</ele><time>2026-04-26T07:45:17.999Z</time></trkpt><trkpt lat="46.004209688579266" lon="12.170146018632979"><ele>697.0</ele><time>2026-04-26T07:45:18.999Z</time></trkpt><trkpt lat="46.004250350711395" lon="12.170225945622496"><ele>691.0</ele><time>2026-04-26T07:45:19.999Z</time></trkpt><trkpt lat="46.00429622363872" lon="12.170306498502567"><ele>685.0</ele><time>2026-04-26T07:45:20.999Z</time></trkpt><trkpt lat="46.00436688212685" lon="12.170451312047499"><ele>679.0</ele><time>2026-04-26T07:45:22.999Z</time></trkpt><trkpt lat="46.004425622164604" lon="12.170535003021287"><ele>679.0</ele><time>2026-04-26T07:45:23.999Z</time></trkpt><trkpt lat="46.00449031076072" lon="12.17060403935635"><ele>679.0</ele><time>2026-04-26T07:45:24.999Z</time></trkpt><trkpt lat="46.00455741249128" lon="12.1706723091378"><ele>679.0</ele><time>2026-04-26T07:45:25.999Z</time></trkpt><trkpt lat="46.00462516829752" lon="12.170742602503788"><ele>679.0</ele><time>2026-04-26T07:45:26.999Z</time></trkpt><trkpt lat="46.00467492670251" lon="12.170829486375618"><ele>679.0</ele><time>2026-04-26T07:45:27.999Z</time></trkpt><trkpt lat="46.00470870422941" lon="12.170926357639608"><ele>679.0</ele><time>2026-04-26T07:45:28.999Z</time></trkpt><trkpt lat="46.004743876353984" lon="12.171027894628144"><ele>670.8000000000001</ele><time>2026-04-26T07:45:29.999Z</time></trkpt><trkpt lat="46.00477101351422" lon="12.171142425605195"><ele>662.6</ele><time>2026-04-26T07:45:30.999Z</time></trkpt><trkpt lat="46.00478180361538" lon="12.171275532680768"><ele>654.4</ele><time>2026-04-26T07:45:31.999Z</time></trkpt><trkpt lat="46.00478450227965" lon="12.171433894259739"><ele>646.2</ele><time>2026-04-26T07:45:32.999Z</time></trkpt><trkpt lat="46.00477706054376" lon="12.171579112963016"><ele>638.0</ele><time>2026-04-26T07:45:33.999Z</time></trkpt><trkpt lat="46.00474862990627" lon="12.171723957107597"><ele>638.0</ele><time>2026-04-26T07:45:34.999Z</time></trkpt><trkpt lat="46.00471194728843" lon="12.171868809739738"><ele>638.0</ele><time>2026-04-26T07:45:35.999Z</time></trkpt><trkpt lat="46.00470152186267" lon="12.17196457488757"><ele>638.0</ele><time>2026-04-26T07:45:36.999Z</time></trkpt><trkpt lat="46.00466198219808" lon="12.172100758893722"><ele>638.0</ele><time>2026-04-26T07:45:37.999Z</time></trkpt><trkpt lat="46.00467268852756" lon="12.172193005547241"><ele>638.0</ele><time>2026-04-26T07:45:39.999Z</time></trkpt><trkpt lat="46.0046535967516" lon="12.172322387297477"><ele>638.0</ele><time>2026-04-26T07:45:41.999Z</time></trkpt><trkpt lat="46.00462725103798" lon="12.172429833958132"><ele>638.0</ele><time>2026-04-26T07:45:43.999Z</time></trkpt><trkpt lat="46.00457381216796" lon="12.172357924241645"><ele>638.0</ele><time>2026-04-26T07:45:46.999Z</time></trkpt><trkpt lat="46.00459629114037" lon="12.17226761881656"><ele>638.0</ele><time>2026-04-26T07:45:48.999Z</time></trkpt><trkpt lat="46.004591646614166" lon="12.172100938470884"><ele>638.0</ele><time>2026-04-26T07:45:49.999Z</time></trkpt><trkpt lat="46.00460884763529" lon="12.17196296060472"><ele>638.0</ele><time>2026-04-26T07:45:50.999Z</time></trkpt><trkpt lat="46.00461456568747" lon="12.171816152690445"><ele>638.0</ele><time>2026-04-26T07:45:51.999Z</time></trkpt><trkpt lat="46.004619956859756" lon="12.171693373727328"><ele>638.0</ele><time>2026-04-26T07:45:52.999Z</time></trkpt><trkpt lat="46.00462517637124" lon="12.171580541480656"><ele>638.0</ele><time>2026-04-26T07:45:53.999Z</time></trkpt><trkpt lat="46.00462635131833" lon="12.171465848791744"><ele>638.0</ele><time>2026-04-26T07:45:54.999Z</time></trkpt><trkpt lat="46.00461492669823" lon="12.171350693559077"><ele>638.0</ele><time>2026-04-26T07:45:55.999Z</time></trkpt><trkpt lat="46.00461698732869" lon="12.17122895603903"><ele>638.0</ele><time>2026-04-26T07:45:56.999Z</time></trkpt><trkpt lat="46.00458104066778" lon="12.171109076365614"><ele>644.8333333333333</ele><time>2026-04-26T07:45:57.999Z</time></trkpt><trkpt lat="46.00453047855081" lon="12.171002517608509"><ele>651.6666666666666</ele><time>2026-04-26T07:45:58.999Z</time></trkpt><trkpt lat="46.00446317678176" lon="12.170902735736021"><ele>658.5</ele><time>2026-04-26T07:45:59.999Z</time></trkpt><trkpt lat="46.00439807564634" lon="12.170825878474021"><ele>665.3333333333334</ele><time>2026-04-26T07:46:00.999Z</time></trkpt><trkpt lat="46.004338133344596" lon="12.170758029764013"><ele>672.1666666666667</ele><time>2026-04-26T07:46:01.999Z</time></trkpt><trkpt lat="46.004284167868995" lon="12.17069685535719"><ele>679.0</ele><time>2026-04-26T07:46:02.999Z</time></trkpt><trkpt lat="46.00419671213002" lon="12.170627720574956"><ele>685.0</ele><time>2026-04-26T07:46:04.999Z</time></trkpt><trkpt lat="46.004133320388775" lon="12.170637327749416"><ele>691.0</ele><time>2026-04-26T07:46:06Z</time></trkpt><trkpt lat="46.00410483027087" lon="12.170791525296073"><ele>697.0</ele><time>2026-04-26T07:46:08Z</time></trkpt><trkpt lat="46.00418953043334" lon="12.170899052712535"><ele>703.0</ele><time>2026-04-26T07:46:10Z</time></trkpt><trkpt lat="46.00426876631788" lon="12.17097356217198"><ele>709.0</ele><time>2026-04-26T07:46:11Z</time></trkpt><trkpt lat="46.00433145584366" lon="12.171084344227912"><ele>715.8333333333334</ele><time>2026-04-26T07:46:12Z</time></trkpt><trkpt lat="46.004386510644544" lon="12.1712138153508"><ele>722.6666666666667</ele><time>2026-04-26T07:46:13Z</time></trkpt><trkpt lat="46.00441396742558" lon="12.171346355788575"><ele>729.5</ele><time>2026-04-26T07:46:14Z</time></trkpt><trkpt lat="46.004425575095226" lon="12.171470860808121"><ele>736.3333333333334</ele><time>2026-04-26T07:46:15Z</time></trkpt><trkpt lat="46.00440994592389" lon="12.171589866726247"><ele>743.1666666666666</ele><time>2026-04-26T07:46:16Z</time></trkpt><trkpt lat="46.00437998534712" lon="12.171678956159845"><ele>750.0</ele><time>2026-04-26T07:46:17Z</time></trkpt><trkpt lat="46.0043314682609" lon="12.171788613400011"><ele>732.6666666666666</ele><time>2026-04-26T07:46:19Z</time></trkpt><trkpt lat="46.00431804422676" lon="12.17189867725693"><ele>715.3333333333334</ele><time>2026-04-26T07:47:37.999Z</time></trkpt><trkpt lat="46.004314803842725" lon="12.172013177229655"><ele>698.0</ele><time>2026-04-26T07:47:39.999Z</time></trkpt><trkpt lat="46.00428680224392" lon="12.172097886135482"><ele>680.6666666666667</ele><time>2026-04-26T07:47:40.999Z</time></trkpt><trkpt lat="46.00424526740253" lon="12.172167660849327"><ele>663.3333333333334</ele><time>2026-04-26T07:47:41.999Z</time></trkpt><trkpt lat="46.00422184074424" lon="12.172287519562612"><ele>646.0</ele><time>2026-04-26T07:47:42.999Z</time></trkpt><trkpt lat="46.00418135588951" lon="12.172400491244288"><ele>646.0000000000001</ele><time>2026-04-26T07:47:43.999Z</time></trkpt><trkpt lat="46.00415164457718" lon="12.17249041422541"><ele>646.0</ele><time>2026-04-26T07:47:44.999Z</time></trkpt><trkpt lat="46.00412352638161" lon="12.172586551671275"><ele>646.0</ele><time>2026-04-26T07:47:45.999Z</time></trkpt><trkpt lat="46.0040877584177" lon="12.172691635781481"><ele>646.0</ele><time>2026-04-26T07:47:46.999Z</time></trkpt><trkpt lat="46.00405585388366" lon="12.17277404708633"><ele>646.0</ele><time>2026-04-26T07:47:47.999Z</time></trkpt><trkpt lat="46.00402373923501" lon="12.1728725226854"><ele>646.0000000000001</ele><time>2026-04-26T07:47:48.999Z</time></trkpt><trkpt lat="46.003990300433124" lon="12.172961772396347"><ele>646.0</ele><time>2026-04-26T07:47:49.999Z</time></trkpt><trkpt lat="46.003958499555424" lon="12.173050402002334"><ele>646.0</ele><time>2026-04-26T07:47:50.999Z</time></trkpt><trkpt lat="46.003921221245115" lon="12.173150940889869"><ele>646.0</ele><time>2026-04-26T07:47:51.999Z</time></trkpt><trkpt lat="46.00387575500583" lon="12.17324736454309"><ele>646.0</ele><time>2026-04-26T07:47:52.999Z</time></trkpt><trkpt lat="46.00382914361592" lon="12.173332114954265"><ele>646.0</ele><time>2026-04-26T07:47:53.999Z</time></trkpt><trkpt lat="46.00377020348214" lon="12.173416627350232"><ele>646.0</ele><time>2026-04-26T07:47:54.999Z</time></trkpt><trkpt lat="46.003701908052726" lon="12.173477265395793"><ele>646.0</ele><time>2026-04-26T07:47:55.999Z</time></trkpt><trkpt lat="46.003622923429724" lon="12.173519235465932"><ele>646.0</ele><time>2026-04-26T07:47:56.999Z</time></trkpt><trkpt lat="46.00353480639572" lon="12.173556464776443"><ele>646.0</ele><time>2026-04-26T07:47:57.999Z</time></trkpt><trkpt lat="46.00345284617407" lon="12.173596194217197"><ele>646.0</ele><time>2026-04-26T07:47:58.999Z</time></trkpt><trkpt lat="46.003356580691786" lon="12.173593189348125"><ele>646.0</ele><time>2026-04-26T07:47:59.999Z</time></trkpt><trkpt lat="46.003280083940936" lon="12.173590103043747"><ele>646.0</ele><time>2026-04-26T07:48:00.999Z</time></trkpt><trkpt lat="46.00319523545687" lon="12.173581924606108"><ele>646.0</ele><time>2026-04-26T07:48:01.999Z</time></trkpt><trkpt lat="46.00310724388113" lon="12.173551141153641"><ele>646.0</ele><time>2026-04-26T07:48:02.999Z</time></trkpt><trkpt lat="46.00301737658544" lon="12.173507554549792"><ele>646.0</ele><time>2026-04-26T07:48:03.999Z</time></trkpt><trkpt lat="46.00293648071393" lon="12.173445111201646"><ele>646.0</ele><time>2026-04-26T07:48:04.999Z</time></trkpt><trkpt lat="46.00286161608443" lon="12.173385843986019"><ele>646.0</ele><time>2026-04-26T07:48:05.999Z</time></trkpt><trkpt lat="46.00278891301085" lon="12.173325828603659"><ele>646.0</ele><time>2026-04-26T07:48:06.999Z</time></trkpt><trkpt lat="46.00272102296763" lon="12.173269785790339"><ele>646.0</ele><time>2026-04-26T07:48:07.999Z</time></trkpt><trkpt lat="46.00264590100874" lon="12.173225597281927"><ele>646.0</ele><time>2026-04-26T07:48:08.999Z</time></trkpt><trkpt lat="46.00255602876982" lon="12.173193401464632"><ele>646.0</ele><time>2026-04-26T07:48:09.999Z</time></trkpt><trkpt lat="46.00245828566823" lon="12.17320304702216"><ele>646.0</ele><time>2026-04-26T07:48:10.999Z</time></trkpt><trkpt lat="46.002362079638" lon="12.173195347068742"><ele>646.0</ele><time>2026-04-26T07:48:12Z</time></trkpt><trkpt lat="46.00225117845299" lon="12.17324568250103"><ele>646.0</ele><time>2026-04-26T07:48:13Z</time></trkpt><trkpt lat="46.00214712353723" lon="12.173295013421926"><ele>646.0</ele><time>2026-04-26T07:48:14Z</time></trkpt><trkpt lat="46.00205192796606" lon="12.173357115971038"><ele>646.0</ele><time>2026-04-26T07:48:15Z</time></trkpt><trkpt lat="46.00196665539175" lon="12.17340947010509"><ele>646.0</ele><time>2026-04-26T07:48:16Z</time></trkpt><trkpt lat="46.00188063997659" lon="12.173473852185184"><ele>646.0</ele><time>2026-04-26T07:48:17Z</time></trkpt><trkpt lat="46.00179253633761" lon="12.173503586384967"><ele>646.0</ele><time>2026-04-26T07:48:18Z</time></trkpt><trkpt lat="46.00170852390579" lon="12.173531371416315"><ele>646.0</ele><time>2026-04-26T07:48:19Z</time></trkpt><trkpt lat="46.00162049400143" lon="12.173518749913008"><ele>646.0</ele><time>2026-04-26T07:48:20Z</time></trkpt><trkpt lat="46.00153157033772" lon="12.173485668302709"><ele>646.0</ele><time>2026-04-26T07:48:21Z</time></trkpt><trkpt lat="46.00144370558865" lon="12.173403111100484"><ele>646.0</ele><time>2026-04-26T07:48:22Z</time></trkpt><trkpt lat="46.00133762249627" lon="12.173357835959528"><ele>646.0</ele><time>2026-04-26T07:48:23Z</time></trkpt><trkpt lat="46.00126286454734" lon="12.173279380172493"><ele>646.0</ele><time>2026-04-26T07:48:24Z</time></trkpt><trkpt lat="46.001183896085806" lon="12.173234386541106"><ele>646.0</ele><time>2026-04-26T07:48:25Z</time></trkpt><trkpt lat="46.00109745171909" lon="12.173223904851632"><ele>646.0</ele><time>2026-04-26T07:48:26Z</time></trkpt><trkpt lat="46.00100711749169" lon="12.17322043584657"><ele>646.0</ele><time>2026-04-26T07:48:27Z</time></trkpt><trkpt lat="46.00091929383354" lon="12.173238878635567"><ele>646.0</ele><time>2026-04-26T07:48:28Z</time></trkpt><trkpt lat="46.00083498527989" lon="12.17327233197462"><ele>646.0</ele><time>2026-04-26T07:48:29Z</time></trkpt><trkpt lat="46.00075999095558" lon="12.173328275583442"><ele>646.0</ele><time>2026-04-26T07:48:30Z</time></trkpt><trkpt lat="46.00068996116895" lon="12.17338197637722"><ele>646.0</ele><time>2026-04-26T07:48:31Z</time></trkpt><trkpt lat="46.000591411543326" lon="12.173455158389151"><ele>646.0</ele><time>2026-04-26T07:48:33Z</time></trkpt><trkpt lat="46.0005224899519" lon="12.173488766183828"><ele>646.0</ele><time>2026-04-26T07:48:35Z</time></trkpt><trkpt lat="46.00052134752211" lon="12.173373669594882"><ele>646.0</ele><time>2026-04-26T07:48:37Z</time></trkpt><trkpt lat="46.00064398887885" lon="12.173300668620037"><ele>620.3333333333334</ele><time>2026-04-26T07:48:39Z</time></trkpt><trkpt lat="46.00072952029274" lon="12.173259157933995"><ele>594.6666666666667</ele><time>2026-04-26T07:48:40Z</time></trkpt><trkpt lat="46.00079825378037" lon="12.173179226553666"><ele>569.0</ele><time>2026-04-26T07:48:41Z</time></trkpt><trkpt lat="46.00088755078996" lon="12.173124091315366"><ele>543.3333333333334</ele><time>2026-04-26T07:48:42Z</time></trkpt><trkpt lat="46.00096918009132" lon="12.173078976474326"><ele>517.6666666666666</ele><time>2026-04-26T07:48:43Z</time></trkpt><trkpt lat="46.001051711734924" lon="12.173054049223094"><ele>492.0</ele><time>2026-04-26T07:48:44Z</time></trkpt><trkpt lat="46.00115672814941" lon="12.173034727566815"><ele>492.0</ele><time>2026-04-26T07:48:45Z</time></trkpt><trkpt lat="46.001250180149555" lon="12.17302319777382"><ele>492.00000000000006</ele><time>2026-04-26T07:48:46Z</time></trkpt><trkpt lat="46.00134314851869" lon="12.17301416786437"><ele>492.00000000000006</ele><time>2026-04-26T07:48:47Z</time></trkpt><trkpt lat="46.001439026344855" lon="12.173023734562413"><ele>492.0</ele><time>2026-04-26T07:48:48Z</time></trkpt><trkpt lat="46.00152251400937" lon="12.173018060340503"><ele>492.0</ele><time>2026-04-26T07:48:49Z</time></trkpt><trkpt lat="46.001602455596554" lon="12.172983397878113"><ele>492.0</ele><time>2026-04-26T07:48:50Z</time></trkpt><trkpt lat="46.001693370383315" lon="12.172920417199158"><ele>492.00000000000006</ele><time>2026-04-26T07:48:51Z</time></trkpt><trkpt lat="46.00179137773388" lon="12.172820261411962"><ele>492.00000000000006</ele><time>2026-04-26T07:48:52Z</time></trkpt><trkpt lat="46.001883829289866" lon="12.172725477464322"><ele>492.0</ele><time>2026-04-26T07:48:53Z</time></trkpt><trkpt lat="46.001973195164275" lon="12.172639697211281"><ele>492.0</ele><time>2026-04-26T07:48:54Z</time></trkpt><trkpt lat="46.002059479356156" lon="12.172548989645346"><ele>539.0</ele><time>2026-04-26T07:48:55Z</time></trkpt><trkpt lat="46.00214083471882" lon="12.172470366000573"><ele>586.0</ele><time>2026-04-26T07:48:56Z</time></trkpt><trkpt lat="46.00220559799131" lon="12.172403520949597"><ele>633.0</ele><time>2026-04-26T07:48:57Z</time></trkpt><trkpt lat="46.00228748690083" lon="12.172258455145396"><ele>680.0</ele><time>2026-04-26T07:48:59Z</time></trkpt><trkpt lat="46.00232627817622" lon="12.172181994445443"><ele>727.0</ele><time>2026-04-26T07:49:00Z</time></trkpt><trkpt lat="46.00229358644256" lon="12.172000424538112"><ele>727.0</ele><time>2026-04-26T07:49:02Z</time></trkpt><trkpt lat="46.00224238547504" lon="12.171926637166298"><ele>727.0</ele><time>2026-04-26T07:49:03Z</time></trkpt><trkpt lat="46.00216579705396" lon="12.171892845114435"><ele>727.0</ele><time>2026-04-26T07:49:04Z</time></trkpt><trkpt lat="46.00207547752058" lon="12.171886185361783"><ele>727.0</ele><time>2026-04-26T07:49:05Z</time></trkpt><trkpt lat="46.00196891398675" lon="12.17193013677484"><ele>727.0</ele><time>2026-04-26T07:49:06Z</time></trkpt><trkpt lat="46.00185039272416" lon="12.171991474949118"><ele>727.0</ele><time>2026-04-26T07:49:07Z</time></trkpt><trkpt lat="46.00174959092993" lon="12.172032085288452"><ele>727.0</ele><time>2026-04-26T07:49:08Z</time></trkpt><trkpt lat="46.0016363601459" lon="12.17205606662524"><ele>727.0</ele><time>2026-04-26T07:49:09Z</time></trkpt><trkpt lat="46.00151946080319" lon="12.172021526836868"><ele>727.0</ele><time>2026-04-26T07:49:10Z</time></trkpt><trkpt lat="46.00140856896179" lon="12.17199226837356"><ele>727.0</ele><time>2026-04-26T07:49:11Z</time></trkpt><trkpt lat="46.00127874450628" lon="12.171940813378301"><ele>727.0</ele><time>2026-04-26T07:49:12Z</time></trkpt><trkpt lat="46.00114967856558" lon="12.171875439158443"><ele>727.0</ele><time>2026-04-26T07:49:13Z</time></trkpt><trkpt lat="46.001013385667434" lon="12.171840034876917"><ele>727.0</ele><time>2026-04-26T07:49:14Z</time></trkpt><trkpt lat="46.000880723066174" lon="12.171816520227752"><ele>727.0</ele><time>2026-04-26T07:49:15Z</time></trkpt><trkpt lat="46.000745922894914" lon="12.171792023176051"><ele>727.0</ele><time>2026-04-26T07:49:16Z</time></trkpt><trkpt lat="46.00059726713317" lon="12.171810135555814"><ele>727.0</ele><time>2026-04-26T07:49:17Z</time></trkpt><trkpt lat="46.00044440808789" lon="12.17184890816196"><ele>727.0</ele><time>2026-04-26T07:49:18Z</time></trkpt><trkpt lat="46.00028293876858" lon="12.17186492114446"><ele>727.0</ele><time>2026-04-26T07:49:19Z</time></trkpt><trkpt lat="46.000142988050335" lon="12.171880461840184"><ele>727.0</ele><time>2026-04-26T07:49:20Z</time></trkpt><trkpt lat="46.000015880752926" lon="12.171884839750891"><ele>727.0</ele><time>2026-04-26T07:49:20.999Z</time></trkpt><trkpt lat="45.999898825759956" lon="12.171887419633762"><ele>727.0</ele><time>2026-04-26T07:49:21.999Z</time></trkpt><trkpt lat="45.99980674918367" lon="12.171883933906033"><ele>727.0</ele><time>2026-04-26T07:49:22.999Z</time></trkpt><trkpt lat="45.99972417550879" lon="12.171870918974376"><ele>727.0</ele><time>2026-04-26T07:49:23.999Z</time></trkpt><trkpt lat="45.99965445430516" lon="12.171843938773064"><ele>727.0</ele><time>2026-04-26T07:49:24.999Z</time></trkpt><trkpt lat="45.99958803871151" lon="12.171811692925635"><ele>727.0</ele><time>2026-04-26T07:49:25.999Z</time></trkpt><trkpt lat="45.99952692129539" lon="12.171778094683761"><ele>727.0</ele><time>2026-04-26T07:49:26.999Z</time></trkpt><trkpt lat="45.999422032047384" lon="12.171725077654193"><ele>727.0</ele><time>2026-04-26T07:49:28.999Z</time></trkpt><trkpt lat="45.99932365855538" lon="12.17174388929158"><ele>727.0</ele><time>2026-04-26T07:49:30.999Z</time></trkpt><trkpt lat="45.99929532623047" lon="12.171846577240133"><ele>727.0</ele><time>2026-04-26T07:49:32.999Z</time></trkpt><trkpt lat="45.99933838540525" lon="12.171915653404934"><ele>727.0</ele><time>2026-04-26T07:49:33.999Z</time></trkpt><trkpt lat="45.99941642313474" lon="12.171959490886731"><ele>727.0</ele><time>2026-04-26T07:49:34.999Z</time></trkpt><trkpt lat="45.99952525439293" lon="12.172018368291472"><ele>727.0</ele><time>2026-04-26T07:49:35.999Z</time></trkpt><trkpt lat="45.99964407871316" lon="12.172084982046806"><ele>727.0</ele><time>2026-04-26T07:49:36.999Z</time></trkpt><trkpt lat="45.99974809857736" lon="12.172136962191459"><ele>727.0</ele><time>2026-04-26T07:49:37.999Z</time></trkpt><trkpt lat="45.99983717181789" lon="12.172180878527547"><ele>727.0</ele><time>2026-04-26T07:49:38.999Z</time></trkpt><trkpt lat="45.99992070544208" lon="12.172220072190818"><ele>727.0</ele><time>2026-04-26T07:49:39.999Z</time></trkpt><trkpt lat="45.999994985870245" lon="12.17226411440895"><ele>727.0</ele><time>2026-04-26T07:49:40.999Z</time></trkpt><trkpt lat="46.00009661000076" lon="12.172328548653203"><ele>680.0</ele><time>2026-04-26T07:49:42.999Z</time></trkpt><trkpt lat="46.00014744891046" lon="12.172459062831276"><ele>633.0</ele><time>2026-04-26T07:49:44.999Z</time></trkpt><trkpt lat="46.00012198692862" lon="12.172552491294153"><ele>586.0</ele><time>2026-04-26T07:49:45.999Z</time></trkpt><trkpt lat="46.00007349069611" lon="12.17264114172776"><ele>539.0</ele><time>2026-04-26T07:49:46.999Z</time></trkpt><trkpt lat="45.999997693531526" lon="12.172723094903318"><ele>492.0</ele><time>2026-04-26T07:49:47.999Z</time></trkpt><trkpt lat="45.99988592831549" lon="12.172781138346807"><ele>492.0</ele><time>2026-04-26T07:49:48.999Z</time></trkpt><trkpt lat="45.99975434689046" lon="12.17287584710931"><ele>492.0</ele><time>2026-04-26T07:49:49.999Z</time></trkpt><trkpt lat="45.9996261176237" lon="12.17296300641938"><ele>492.0</ele><time>2026-04-26T07:49:50.999Z</time></trkpt><trkpt lat="45.99951892532042" lon="12.17303938828219"><ele>492.0</ele><time>2026-04-26T07:49:51.999Z</time></trkpt><trkpt lat="45.999402821273954" lon="12.173104097626917"><ele>492.0</ele><time>2026-04-26T07:49:52.999Z</time></trkpt><trkpt lat="45.99930133662635" lon="12.173180445355554"><ele>492.00000000000006</ele><time>2026-04-26T07:49:53.999Z</time></trkpt><trkpt lat="45.99920139929654" lon="12.17324463967596"><ele>492.00000000000006</ele><time>2026-04-26T07:49:54.999Z</time></trkpt><trkpt lat="45.99910087844461" lon="12.173303389736427"><ele>492.0</ele><time>2026-04-26T07:49:55.999Z</time></trkpt><trkpt lat="45.99900644048416" lon="12.173347113265065"><ele>492.0</ele><time>2026-04-26T07:49:56.999Z</time></trkpt><trkpt lat="45.99889889370472" lon="12.173362811926816"><ele>492.0</ele><time>2026-04-26T07:49:57.999Z</time></trkpt><trkpt lat="45.99878035219402" lon="12.17337065824781"><ele>492.0</ele><time>2026-04-26T07:49:58.999Z</time></trkpt><trkpt lat="45.99864980812251" lon="12.173388696645974"><ele>492.0</ele><time>2026-04-26T07:49:59.999Z</time></trkpt><trkpt lat="45.99851767161287" lon="12.173410649225074"><ele>492.0</ele><time>2026-04-26T07:50:00.999Z</time></trkpt><trkpt lat="45.998396484172936" lon="12.173470578795964"><ele>478.5</ele><time>2026-04-26T07:50:01.999Z</time></trkpt><trkpt lat="45.99827277097918" lon="12.173516735048066"><ele>465.0</ele><time>2026-04-26T07:50:02.999Z</time></trkpt><trkpt lat="45.99815714068175" lon="12.173575519652687"><ele>451.5</ele><time>2026-04-26T07:50:03.999Z</time></trkpt><trkpt lat="45.99804119157827" lon="12.173628539878619"><ele>438.0</ele><time>2026-04-26T07:50:04.999Z</time></trkpt><trkpt lat="45.99792839613988" lon="12.173683408697023"><ele>438.0</ele><time>2026-04-26T07:50:05.999Z</time></trkpt><trkpt lat="45.99781484572961" lon="12.173742735119836"><ele>437.99999999999994</ele><time>2026-04-26T07:50:06.999Z</time></trkpt><trkpt lat="45.99770768600056" lon="12.173774305437933"><ele>437.99999999999994</ele><time>2026-04-26T07:50:07.999Z</time></trkpt><trkpt lat="45.99759620656993" lon="12.173769181169359"><ele>438.0</ele><time>2026-04-26T07:50:08.999Z</time></trkpt><trkpt lat="45.997508138091774" lon="12.173770972054664"><ele>438.0</ele><time>2026-04-26T07:50:09.999Z</time></trkpt><trkpt lat="45.997420607988936" lon="12.173767351386328"><ele>440.0</ele><time>2026-04-26T07:50:10.999Z</time></trkpt><trkpt lat="45.9973562748382" lon="12.173655705732672"><ele>441.99999999999994</ele><time>2026-04-26T07:50:11.999Z</time></trkpt><trkpt lat="45.99727139832928" lon="12.173595687872481"><ele>443.99999999999994</ele><time>2026-04-26T07:50:12.999Z</time></trkpt><trkpt lat="45.9971729886495" lon="12.173565775947914"><ele>446.0</ele><time>2026-04-26T07:50:13.999Z</time></trkpt><trkpt lat="45.997075129565694" lon="12.173551399709385"><ele>448.0</ele><time>2026-04-26T07:50:14.999Z</time></trkpt><trkpt lat="45.996977657074225" lon="12.173577757472476"><ele>448.0</ele><time>2026-04-26T07:50:15.999Z</time></trkpt><trkpt lat="45.99687646233137" lon="12.173570639232155"><ele>447.99999999999994</ele><time>2026-04-26T07:50:16.999Z</time></trkpt><trkpt lat="45.99677793276808" lon="12.173584567770147"><ele>447.99999999999994</ele><time>2026-04-26T07:50:18Z</time></trkpt><trkpt lat="45.99668991927845" lon="12.173597009713303"><ele>448.0</ele><time>2026-04-26T07:50:19Z</time></trkpt><trkpt lat="45.9966266237193" lon="12.173720498026741"><ele>448.0</ele><time>2026-04-26T07:50:20Z</time></trkpt><trkpt lat="45.996572123460595" lon="12.173786344726384"><ele>448.1666666666667</ele><time>2026-04-26T07:50:21Z</time></trkpt><trkpt lat="45.99652992444834" lon="12.173868509451031"><ele>448.33333333333337</ele><time>2026-04-26T07:50:22Z</time></trkpt><trkpt lat="45.99649087819401" lon="12.173940020987294"><ele>448.5</ele><time>2026-04-26T07:50:23Z</time></trkpt><trkpt lat="45.99642762665367" lon="12.174025986249799"><ele>448.66666666666663</ele><time>2026-04-26T07:50:25Z</time></trkpt><trkpt lat="45.99635523635306" lon="12.173958157208268"><ele>448.8333333333333</ele><time>2026-04-26T07:50:27Z</time></trkpt><trkpt lat="45.99642781986636" lon="12.173800099012313"><ele>449.0</ele><time>2026-04-26T07:50:29Z</time></trkpt><trkpt lat="45.99649263769534" lon="12.173711684035053"><ele>448.79999999999995</ele><time>2026-04-26T07:50:30Z</time></trkpt><trkpt lat="45.99655615572693" lon="12.173619791380682"><ele>448.59999999999997</ele><time>2026-04-26T07:50:31Z</time></trkpt><trkpt lat="45.99663887767134" lon="12.1735158194368"><ele>448.4</ele><time>2026-04-26T07:50:32Z</time></trkpt><trkpt lat="45.99671512185324" lon="12.173429544130217"><ele>448.2</ele><time>2026-04-26T07:50:33Z</time></trkpt><trkpt lat="45.996781522566486" lon="12.17335883523857"><ele>448.0</ele><time>2026-04-26T07:50:34Z</time></trkpt><trkpt lat="45.996857618724434" lon="12.173313423694198"><ele>448.00000000000006</ele><time>2026-04-26T07:50:35Z</time></trkpt><trkpt lat="45.99693245035594" lon="12.17328158198855"><ele>448.0</ele><time>2026-04-26T07:50:36Z</time></trkpt><trkpt lat="45.997015796891" lon="12.173244298802848"><ele>448.0</ele><time>2026-04-26T07:50:37Z</time></trkpt><trkpt lat="45.99709974143617" lon="12.17320790953509"><ele>448.0</ele><time>2026-04-26T07:50:38Z</time></trkpt><trkpt lat="45.99718370953408" lon="12.173181636828291"><ele>448.00000000000006</ele><time>2026-04-26T07:50:39Z</time></trkpt><trkpt lat="45.99728073248994" lon="12.17316773428539"><ele>448.0</ele><time>2026-04-26T07:50:40Z</time></trkpt><trkpt lat="45.997383812438194" lon="12.17316781502101"><ele>448.83333333333337</ele><time>2026-04-26T07:50:41Z</time></trkpt><trkpt lat="45.997471336220535" lon="12.17316851607114"><ele>449.6666666666667</ele><time>2026-04-26T07:50:42Z</time></trkpt><trkpt lat="45.997563599029796" lon="12.17314332799092"><ele>450.5</ele><time>2026-04-26T07:50:43Z</time></trkpt><trkpt lat="45.997629294335994" lon="12.173141767117505"><ele>451.33333333333337</ele><time>2026-04-26T07:50:44Z</time></trkpt><trkpt lat="45.9977023001115" lon="12.173129034666987"><ele>452.1666666666667</ele><time>2026-04-26T07:50:45Z</time></trkpt><trkpt lat="45.99777193661738" lon="12.173108302850196"><ele>453.0</ele><time>2026-04-26T07:50:46Z</time></trkpt><trkpt lat="45.99788092022066" lon="12.173045800474666"><ele>453.0</ele><time>2026-04-26T07:50:48Z</time></trkpt><trkpt lat="45.99793493412686" lon="12.172904377101421"><ele>453.0</ele><time>2026-04-26T07:50:50Z</time></trkpt><trkpt lat="45.99792426040556" lon="12.172804774165536"><ele>453.0</ele><time>2026-04-26T07:50:51Z</time></trkpt><trkpt lat="45.997895283320744" lon="12.172707100228056"><ele>453.0</ele><time>2026-04-26T07:50:52Z</time></trkpt><trkpt lat="45.997836408180866" lon="12.172620734345383"><ele>453.0</ele><time>2026-04-26T07:50:53Z</time></trkpt><trkpt lat="45.99774066215812" lon="12.172581600779335"><ele>453.0</ele><time>2026-04-26T07:50:54Z</time></trkpt><trkpt lat="45.99762024561388" lon="12.172566657703106"><ele>448.25</ele><time>2026-04-26T07:50:55Z</time></trkpt><trkpt lat="45.99749043777996" lon="12.172531651755703"><ele>443.5</ele><time>2026-04-26T07:50:56Z</time></trkpt><trkpt lat="45.99735210856724" lon="12.172507586595373"><ele>438.75</ele><time>2026-04-26T07:50:57Z</time></trkpt><trkpt lat="45.99720865197285" lon="12.172456135322667"><ele>434.0</ele><time>2026-04-26T07:50:58Z</time></trkpt><trkpt lat="45.997057931935736" lon="12.172407320994198"><ele>434.0</ele><time>2026-04-26T07:50:59Z</time></trkpt><trkpt lat="45.99690855378717" lon="12.17236731030944"><ele>434.0</ele><time>2026-04-26T07:51:00Z</time></trkpt><trkpt lat="45.99677465393531" lon="12.172332631067617"><ele>434.0</ele><time>2026-04-26T07:51:01Z</time></trkpt><trkpt lat="45.99665685473253" lon="12.172306719171038"><ele>434.0</ele><time>2026-04-26T07:51:02Z</time></trkpt><trkpt lat="45.996542351562105" lon="12.172275947359466"><ele>432.5</ele><time>2026-04-26T07:51:03Z</time></trkpt><trkpt lat="45.99643859892613" lon="12.172250189518115"><ele>431.0</ele><time>2026-04-26T07:51:04Z</time></trkpt><trkpt lat="45.99633607695284" lon="12.172245756720955"><ele>429.5</ele><time>2026-04-26T07:51:05Z</time></trkpt><trkpt lat="45.99621430110218" lon="12.172298451209668"><ele>428.0</ele><time>2026-04-26T07:51:06Z</time></trkpt><trkpt lat="45.9960591593962" lon="12.172411666665527"><ele>428.0</ele><time>2026-04-26T07:51:07Z</time></trkpt><trkpt lat="45.99588394254624" lon="12.172527690488458"><ele>428.0</ele><time>2026-04-26T07:51:08Z</time></trkpt><trkpt lat="45.99573470907057" lon="12.172614214673088"><ele>428.0</ele><time>2026-04-26T07:51:09Z</time></trkpt><trkpt lat="45.99559029064046" lon="12.172694469763561"><ele>426.75</ele><time>2026-04-26T07:51:10Z</time></trkpt><trkpt lat="45.995451979043956" lon="12.172759839614171"><ele>425.5</ele><time>2026-04-26T07:51:11Z</time></trkpt><trkpt lat="45.995325147325545" lon="12.17282133409318"><ele>424.25</ele><time>2026-04-26T07:51:12Z</time></trkpt><trkpt lat="45.99520047981369" lon="12.172893512651475"><ele>423.0</ele><time>2026-04-26T07:51:13Z</time></trkpt><trkpt lat="45.99508175834056" lon="12.172957088250088"><ele>421.75</ele><time>2026-04-26T07:51:14Z</time></trkpt><trkpt lat="45.99496163225231" lon="12.173011896443946"><ele>420.5</ele><time>2026-04-26T07:51:15Z</time></trkpt><trkpt lat="45.99483696321839" lon="12.17304469500626"><ele>419.25</ele><time>2026-04-26T07:51:16Z</time></trkpt><trkpt lat="45.99470371298904" lon="12.17307107231061"><ele>418.0</ele><time>2026-04-26T07:51:17Z</time></trkpt><trkpt lat="45.994579147170626" lon="12.17306975388475"><ele>418.0</ele><time>2026-04-26T07:51:18Z</time></trkpt><trkpt lat="45.994443315767356" lon="12.173040537262075"><ele>418.0</ele><time>2026-04-26T07:51:19Z</time></trkpt><trkpt lat="45.99431223558226" lon="12.173015781179387"><ele>418.0</ele><time>2026-04-26T07:51:20Z</time></trkpt><trkpt lat="45.994192476818675" lon="12.17299035117653"><ele>418.0</ele><time>2026-04-26T07:51:21Z</time></trkpt><trkpt lat="45.99408139137009" lon="12.172967801439992"><ele>416.4</ele><time>2026-04-26T07:51:22Z</time></trkpt><trkpt lat="45.99397292161159" lon="12.172948510669087"><ele>414.79999999999995</ele><time>2026-04-26T07:51:23Z</time></trkpt><trkpt lat="45.993870004188835" lon="12.17292470253368"><ele>413.2</ele><time>2026-04-26T07:51:24Z</time></trkpt><trkpt lat="45.99377712064791" lon="12.172878759021575"><ele>411.6</ele><time>2026-04-26T07:51:25Z</time></trkpt><trkpt lat="45.993687359024776" lon="12.17282389276764"><ele>410.0</ele><time>2026-04-26T07:51:26Z</time></trkpt><trkpt lat="45.99360148361535" lon="12.172747913469584"><ele>410.0</ele><time>2026-04-26T07:51:26.999Z</time></trkpt><trkpt lat="45.993514486351735" lon="12.172696845892201"><ele>410.0</ele><time>2026-04-26T07:51:27.999Z</time></trkpt><trkpt lat="45.993422760193496" lon="12.17266387878427"><ele>410.0</ele><time>2026-04-26T07:51:28.999Z</time></trkpt><trkpt lat="45.99331302543755" lon="12.172679115020724"><ele>410.0</ele><time>2026-04-26T07:51:29.999Z</time></trkpt><trkpt lat="45.993173733294554" lon="12.172739602931241"><ele>410.0</ele><time>2026-04-26T07:51:30.999Z</time></trkpt><trkpt lat="45.993048779511646" lon="12.172787465977159"><ele>409.0</ele><time>2026-04-26T07:51:31.999Z</time></trkpt><trkpt lat="45.992940134462586" lon="12.172811080990273"><ele>408.0</ele><time>2026-04-26T07:51:32.999Z</time></trkpt><trkpt lat="45.99284327131207" lon="12.172843429627255"><ele>407.0</ele><time>2026-04-26T07:51:33.999Z</time></trkpt><trkpt lat="45.99274949590206" lon="12.172861588662808"><ele>406.0</ele><time>2026-04-26T07:51:34.999Z</time></trkpt><trkpt lat="45.9926609461667" lon="12.172847787210765"><ele>405.0</ele><time>2026-04-26T07:51:35.999Z</time></trkpt><trkpt lat="45.99255941567966" lon="12.172811080088916"><ele>402.4</ele><time>2026-04-26T07:51:36.999Z</time></trkpt><trkpt lat="45.99246657660087" lon="12.172742353681375"><ele>399.8</ele><time>2026-04-26T07:51:37.999Z</time></trkpt><trkpt lat="45.992379321170034" lon="12.172678119287196"><ele>397.20000000000005</ele><time>2026-04-26T07:51:38.999Z</time></trkpt><trkpt lat="45.99230211451567" lon="12.172610452555872"><ele>394.6</ele><time>2026-04-26T07:51:39.999Z</time></trkpt><trkpt lat="45.99222768359248" lon="12.172545965558863"><ele>392.0</ele><time>2026-04-26T07:51:40.999Z</time></trkpt><trkpt lat="45.99215899476818" lon="12.172494094225076"><ele>392.0</ele><time>2026-04-26T07:51:41.999Z</time></trkpt><trkpt lat="45.992097270838144" lon="12.172453545913621"><ele>392.0</ele><time>2026-04-26T07:51:42.999Z</time></trkpt><trkpt lat="45.99200122518238" lon="12.172472834862653"><ele>392.0</ele><time>2026-04-26T07:51:44.999Z</time></trkpt><trkpt lat="45.99201351610839" lon="12.172629522607952"><ele>392.0</ele><time>2026-04-26T07:51:46.999Z</time></trkpt><trkpt lat="45.99207851951961" lon="12.172682155201324"><ele>392.0</ele><time>2026-04-26T07:51:47.999Z</time></trkpt><trkpt lat="45.992186418515416" lon="12.172760542869833"><ele>392.0</ele><time>2026-04-26T07:51:48.999Z</time></trkpt><trkpt lat="45.99231366053918" lon="12.172855202048357"><ele>392.0</ele><time>2026-04-26T07:51:49.999Z</time></trkpt><trkpt lat="45.99241817196372" lon="12.172935334402926"><ele>392.0</ele><time>2026-04-26T07:51:50.999Z</time></trkpt><trkpt lat="45.992526675296524" lon="12.173033320058996"><ele>392.0</ele><time>2026-04-26T07:51:51.999Z</time></trkpt><trkpt lat="45.99261577413358" lon="12.173159571370421"><ele>390.6</ele><time>2026-04-26T07:51:52.999Z</time></trkpt><trkpt lat="45.992712877699866" lon="12.173273238948656"><ele>389.20000000000005</ele><time>2026-04-26T07:51:53.999Z</time></trkpt><trkpt lat="45.99280478170656" lon="12.173375864445632"><ele>387.8</ele><time>2026-04-26T07:51:54.999Z</time></trkpt><trkpt lat="45.99288539497082" lon="12.173470940726308"><ele>386.4</ele><time>2026-04-26T07:51:55.999Z</time></trkpt><trkpt lat="45.99295897064866" lon="12.173562435176395"><ele>385.0</ele><time>2026-04-26T07:51:56.999Z</time></trkpt><trkpt lat="45.99302898801306" lon="12.173641146215779"><ele>385.00000000000006</ele><time>2026-04-26T07:51:57.999Z</time></trkpt><trkpt lat="45.993086252199575" lon="12.173703435002171"><ele>385.0</ele><time>2026-04-26T07:51:58.999Z</time></trkpt><trkpt lat="45.993152990376394" lon="12.173794885656836"><ele>385.0</ele><time>2026-04-26T07:52:00.999Z</time></trkpt><trkpt lat="45.9931368072234" lon="12.173890816014971"><ele>385.0</ele><time>2026-04-26T07:52:02.999Z</time></trkpt><trkpt lat="45.99304391258048" lon="12.173922487780168"><ele>385.00000000000006</ele><time>2026-04-26T07:52:04.999Z</time></trkpt><trkpt lat="45.99298514214113" lon="12.173876855554477"><ele>385.0</ele><time>2026-04-26T07:52:05.999Z</time></trkpt><trkpt lat="45.99291828654278" lon="12.173787884035518"><ele>385.0</ele><time>2026-04-26T07:52:06.999Z</time></trkpt><trkpt lat="45.992849120324045" lon="12.17368748920115"><ele>385.0</ele><time>2026-04-26T07:52:07.999Z</time></trkpt><trkpt lat="45.99274964680815" lon="12.173577175408381"><ele>385.0</ele><time>2026-04-26T07:52:08.999Z</time></trkpt><trkpt lat="45.99264587304987" lon="12.173456011352805"><ele>385.0</ele><time>2026-04-26T07:52:09.999Z</time></trkpt><trkpt lat="45.9925438967631" lon="12.173343240994782"><ele>386.75</ele><time>2026-04-26T07:52:10.999Z</time></trkpt><trkpt lat="45.99244189739112" lon="12.173240803930076"><ele>388.5</ele><time>2026-04-26T07:52:11.999Z</time></trkpt><trkpt lat="45.992335645108334" lon="12.17316471964785"><ele>390.25</ele><time>2026-04-26T07:52:12.999Z</time></trkpt><trkpt lat="45.99222983715214" lon="12.173098224444708"><ele>392.0</ele><time>2026-04-26T07:52:13.999Z</time></trkpt><trkpt lat="45.99212485482961" lon="12.173041278700415"><ele>392.0</ele><time>2026-04-26T07:52:14.999Z</time></trkpt><trkpt lat="45.99201839116971" lon="12.172989819663572"><ele>392.0</ele><time>2026-04-26T07:52:15.999Z</time></trkpt><trkpt lat="45.991920246987135" lon="12.172961956886473"><ele>392.0</ele><time>2026-04-26T07:52:16.999Z</time></trkpt><trkpt lat="45.99182994103465" lon="12.172933743509168"><ele>392.0</ele><time>2026-04-26T07:52:17.999Z</time></trkpt><trkpt lat="45.99174746719322" lon="12.172872821585983"><ele>392.0</ele><time>2026-04-26T07:52:18.999Z</time></trkpt><trkpt lat="45.99167237332114" lon="12.17278181643393"><ele>395.40000000000003</ele><time>2026-04-26T07:52:19.999Z</time></trkpt><trkpt lat="45.99160225039068" lon="12.172663883941604"><ele>398.8</ele><time>2026-04-26T07:52:20.999Z</time></trkpt><trkpt lat="45.99152715124988" lon="12.172543882827966"><ele>402.2</ele><time>2026-04-26T07:52:21.999Z</time></trkpt><trkpt lat="45.99145696464464" lon="12.17243451275241"><ele>405.6</ele><time>2026-04-26T07:52:22.999Z</time></trkpt><trkpt lat="45.991374820895764" lon="12.172351239154654"><ele>409.0</ele><time>2026-04-26T07:52:24Z</time></trkpt><trkpt lat="45.99129332565153" lon="12.172278818206275"><ele>409.0</ele><time>2026-04-26T07:52:25Z</time></trkpt><trkpt lat="45.991194393508714" lon="12.172237804030162"><ele>409.0</ele><time>2026-04-26T07:52:26Z</time></trkpt><trkpt lat="45.991076317807426" lon="12.17223043892815"><ele>409.0</ele><time>2026-04-26T07:52:27Z</time></trkpt><trkpt lat="45.990964771642986" lon="12.172215832298239"><ele>409.0</ele><time>2026-04-26T07:52:28Z</time></trkpt><trkpt lat="45.990856345208094" lon="12.172199442768122"><ele>409.0</ele><time>2026-04-26T07:52:29Z</time></trkpt><trkpt lat="45.99074563327234" lon="12.172179254071905"><ele>405.5</ele><time>2026-04-26T07:52:30Z</time></trkpt><trkpt lat="45.990627824068234" lon="12.172099212796496"><ele>402.0</ele><time>2026-04-26T07:52:31Z</time></trkpt><trkpt lat="45.990520314442726" lon="12.172024232576097"><ele>398.5</ele><time>2026-04-26T07:52:32Z</time></trkpt><trkpt lat="45.990417627858434" lon="12.171975363286755"><ele>395.0</ele><time>2026-04-26T07:52:33Z</time></trkpt><trkpt lat="45.990295578824956" lon="12.17195391140394"><ele>395.0</ele><time>2026-04-26T07:52:34Z</time></trkpt><trkpt lat="45.990172677602224" lon="12.171946352876065"><ele>395.0</ele><time>2026-04-26T07:52:35Z</time></trkpt><trkpt lat="45.990055124870466" lon="12.171939038098305"><ele>395.0</ele><time>2026-04-26T07:52:36Z</time></trkpt><trkpt lat="45.989941604385955" lon="12.171934237840528"><ele>395.0</ele><time>2026-04-26T07:52:37Z</time></trkpt><trkpt lat="45.989834040506985" lon="12.171913022024443"><ele>390.2</ele><time>2026-04-26T07:52:38Z</time></trkpt><trkpt lat="45.98973072285231" lon="12.171888676373912"><ele>385.4</ele><time>2026-04-26T07:52:39Z</time></trkpt><trkpt lat="45.98963080744347" lon="12.17184753757632"><ele>380.6</ele><time>2026-04-26T07:52:40Z</time></trkpt><trkpt lat="45.98953514450454" lon="12.171804765243582"><ele>375.8</ele><time>2026-04-26T07:52:41Z</time></trkpt><trkpt lat="45.989439829476765" lon="12.171757695665892"><ele>371.0</ele><time>2026-04-26T07:52:42Z</time></trkpt><trkpt lat="45.989350714966974" lon="12.171698868572989"><ele>371.0</ele><time>2026-04-26T07:52:43Z</time></trkpt><trkpt lat="45.98926141087988" lon="12.17164356744707"><ele>371.0</ele><time>2026-04-26T07:52:44Z</time></trkpt><trkpt lat="45.98917231834512" lon="12.17159448120549"><ele>371.0</ele><time>2026-04-26T07:52:45Z</time></trkpt><trkpt lat="45.98909563374883" lon="12.171552155357434"><ele>371.0</ele><time>2026-04-26T07:52:46Z</time></trkpt><trkpt lat="45.98901970702375" lon="12.17152424593627"><ele>371.0</ele><time>2026-04-26T07:52:47Z</time></trkpt><trkpt lat="45.98895702681827" lon="12.171500196059382"><ele>371.0</ele><time>2026-04-26T07:52:48Z</time></trkpt><trkpt lat="45.98883725530483" lon="12.171530864750554"><ele>367.4</ele><time>2026-04-26T07:52:50Z</time></trkpt><trkpt lat="45.98880054758723" lon="12.171697710285951"><ele>363.8</ele><time>2026-04-26T07:52:52Z</time></trkpt><trkpt lat="45.98883616810076" lon="12.17177411803608"><ele>360.2</ele><time>2026-04-26T07:52:53Z</time></trkpt><trkpt lat="45.98892203947948" lon="12.171824535509042"><ele>356.59999999999997</ele><time>2026-04-26T07:52:54Z</time></trkpt><trkpt lat="45.98902732917699" lon="12.171855819773489"><ele>353.0</ele><time>2026-04-26T07:52:55Z</time></trkpt><trkpt lat="45.98914499594234" lon="12.171879629450013"><ele>357.5</ele><time>2026-04-26T07:52:56Z</time></trkpt><trkpt lat="45.98926182301027" lon="12.171923050872152"><ele>362.0</ele><time>2026-04-26T07:52:57Z</time></trkpt><trkpt lat="45.98939749860347" lon="12.171983225635756"><ele>366.5</ele><time>2026-04-26T07:52:58Z</time></trkpt><trkpt lat="45.98953847698392" lon="12.172044037718896"><ele>371.0</ele><time>2026-04-26T07:52:59Z</time></trkpt><trkpt lat="45.989656530470256" lon="12.172090386546028"><ele>371.0</ele><time>2026-04-26T07:53:00Z</time></trkpt><trkpt lat="45.98976203579471" lon="12.172134827886998"><ele>371.0</ele><time>2026-04-26T07:53:01Z</time></trkpt><trkpt lat="45.98986178942352" lon="12.172176048324992"><ele>371.0</ele><time>2026-04-26T07:53:02Z</time></trkpt><trkpt lat="45.98995488171505" lon="12.172210172588878"><ele>371.0</ele><time>2026-04-26T07:53:03Z</time></trkpt><trkpt lat="45.99004416148935" lon="12.172224214107514"><ele>371.0</ele><time>2026-04-26T07:53:04Z</time></trkpt><trkpt lat="45.99012347307348" lon="12.17222994384492"><ele>366.4</ele><time>2026-04-26T07:53:05Z</time></trkpt><trkpt lat="45.99018806941232" lon="12.172255715012428"><ele>361.8</ele><time>2026-04-26T07:53:06Z</time></trkpt><trkpt lat="45.99028985742926" lon="12.172304137344474"><ele>357.2</ele><time>2026-04-26T07:53:08Z</time></trkpt><trkpt lat="45.99029045844756" lon="12.172442627227309"><ele>352.59999999999997</ele><time>2026-04-26T07:53:10Z</time></trkpt><trkpt lat="45.990184255424055" lon="12.172482887589933"><ele>348.0</ele><time>2026-04-26T07:53:12Z</time></trkpt><trkpt lat="45.99009692987204" lon="12.17246372785682"><ele>346.25</ele><time>2026-04-26T07:53:13Z</time></trkpt><trkpt lat="45.98999364587871" lon="12.172430352930514"><ele>344.5</ele><time>2026-04-26T07:53:14Z</time></trkpt><trkpt lat="45.98987016218981" lon="12.1724174280496"><ele>342.75</ele><time>2026-04-26T07:53:15Z</time></trkpt><trkpt lat="45.98974391642346" lon="12.172395343419607"><ele>341.0</ele><time>2026-04-26T07:53:16Z</time></trkpt><trkpt lat="45.9896106210475" lon="12.172373285232691"><ele>341.0</ele><time>2026-04-26T07:53:17Z</time></trkpt><trkpt lat="45.98948300692149" lon="12.172358841542689"><ele>341.0</ele><time>2026-04-26T07:53:18Z</time></trkpt><trkpt lat="45.98936631519727" lon="12.172337090903108"><ele>341.0</ele><time>2026-04-26T07:53:19Z</time></trkpt><trkpt lat="45.98923943153789" lon="12.172341794304295"><ele>341.0</ele><time>2026-04-26T07:53:20Z</time></trkpt><trkpt lat="45.98909932109802" lon="12.172385083866324"><ele>337.75</ele><time>2026-04-26T07:53:21Z</time></trkpt><trkpt lat="45.98895622025547" lon="12.172431329045546"><ele>334.5</ele><time>2026-04-26T07:53:22Z</time></trkpt><trkpt lat="45.98882381635874" lon="12.172454910005046"><ele>331.25</ele><time>2026-04-26T07:53:23Z</time></trkpt><trkpt lat="45.98870168688805" lon="12.172472192743195"><ele>328.0</ele><time>2026-04-26T07:53:24Z</time></trkpt><trkpt lat="45.98858052183881" lon="12.172471221899762"><ele>328.0</ele><time>2026-04-26T07:53:25Z</time></trkpt><trkpt lat="45.988464983872" lon="12.172464839736797"><ele>328.0</ele><time>2026-04-26T07:53:26Z</time></trkpt><trkpt lat="45.98834835279205" lon="12.172468394189961"><ele>328.0</ele><time>2026-04-26T07:53:27Z</time></trkpt><trkpt lat="45.98823809382813" lon="12.172472803087926"><ele>328.0</ele><time>2026-04-26T07:53:28Z</time></trkpt><trkpt lat="45.988122972698335" lon="12.172462242892623"><ele>329.75</ele><time>2026-04-26T07:53:29Z</time></trkpt><trkpt lat="45.98798685127247" lon="12.172423656321522"><ele>331.5</ele><time>2026-04-26T07:53:30Z</time></trkpt><trkpt lat="45.98785357559406" lon="12.172348375520084"><ele>333.25</ele><time>2026-04-26T07:53:30.999Z</time></trkpt><trkpt lat="45.987731861954735" lon="12.172299261616462"><ele>335.0</ele><time>2026-04-26T07:53:31.999Z</time></trkpt><trkpt lat="45.98761413653664" lon="12.172267651497952"><ele>330.25</ele><time>2026-04-26T07:53:32.999Z</time></trkpt><trkpt lat="45.9875002011427" lon="12.172239609312491"><ele>325.5</ele><time>2026-04-26T07:53:33.999Z</time></trkpt><trkpt lat="45.98737740154583" lon="12.172223587459706"><ele>320.75</ele><time>2026-04-26T07:53:34.999Z</time></trkpt><trkpt lat="45.98723992592178" lon="12.17221662559995"><ele>316.0</ele><time>2026-04-26T07:53:35.999Z</time></trkpt><trkpt lat="45.98710331239831" lon="12.172219604754028"><ele>316.0</ele><time>2026-04-26T07:53:36.999Z</time></trkpt><trkpt lat="45.98697622293922" lon="12.172220538673796"><ele>316.0</ele><time>2026-04-26T07:53:37.999Z</time></trkpt><trkpt lat="45.986844834416345" lon="12.172229293506716"><ele>316.0</ele><time>2026-04-26T07:53:38.999Z</time></trkpt><trkpt lat="45.98670835621724" lon="12.17223771976981"><ele>316.0</ele><time>2026-04-26T07:53:39.999Z</time></trkpt><trkpt lat="45.98658035647583" lon="12.17225834221193"><ele>313.75</ele><time>2026-04-26T07:53:40.999Z</time></trkpt><trkpt lat="45.986458905355086" lon="12.172266515351682"><ele>311.5</ele><time>2026-04-26T07:53:41.999Z</time></trkpt><trkpt lat="45.986331811859834" lon="12.172285778161855"><ele>309.25</ele><time>2026-04-26T07:53:42.999Z</time></trkpt><trkpt lat="45.98620861035339" lon="12.172296223513046"><ele>307.0</ele><time>2026-04-26T07:53:43.999Z</time></trkpt><trkpt lat="45.986089419561225" lon="12.172330523031459"><ele>307.0</ele><time>2026-04-26T07:53:44.999Z</time></trkpt><trkpt lat="45.9859714935223" lon="12.172370533376986"><ele>307.0</ele><time>2026-04-26T07:53:45.999Z</time></trkpt><trkpt lat="45.98584495214179" lon="12.17243431914538"><ele>307.0</ele><time>2026-04-26T07:53:46.999Z</time></trkpt><trkpt lat="45.98571375261166" lon="12.172513316395978"><ele>307.0</ele><time>2026-04-26T07:53:47.999Z</time></trkpt><trkpt lat="45.98558870805516" lon="12.17258559721665"><ele>305.25</ele><time>2026-04-26T07:53:48.999Z</time></trkpt><trkpt lat="45.98546052769324" lon="12.172635330527992"><ele>303.5</ele><time>2026-04-26T07:53:49.999Z</time></trkpt><trkpt lat="45.985320311192055" lon="12.172675525188122"><ele>301.75</ele><time>2026-04-26T07:53:50.999Z</time></trkpt><trkpt lat="45.985171680267335" lon="12.172715099862895"><ele>300.0</ele><time>2026-04-26T07:53:51.999Z</time></trkpt><trkpt lat="45.98502259297463" lon="12.172767363011713"><ele>298.25</ele><time>2026-04-26T07:53:52.999Z</time></trkpt><trkpt lat="45.98486896161505" lon="12.172813718593451"><ele>296.5</ele><time>2026-04-26T07:53:53.999Z</time></trkpt><trkpt lat="45.984722922659216" lon="12.172855861206113"><ele>294.75</ele><time>2026-04-26T07:53:54.999Z</time></trkpt><trkpt lat="45.98458552636599" lon="12.172894315709073"><ele>293.0</ele><time>2026-04-26T07:53:55.999Z</time></trkpt><trkpt lat="45.98444598875978" lon="12.17292668344602"><ele>293.0</ele><time>2026-04-26T07:53:56.999Z</time></trkpt><trkpt lat="45.98431339493058" lon="12.172952623429966"><ele>293.0</ele><time>2026-04-26T07:53:57.999Z</time></trkpt><trkpt lat="45.98418347983835" lon="12.17297553398685"><ele>293.0</ele><time>2026-04-26T07:53:58.999Z</time></trkpt><trkpt lat="45.98405569888344" lon="12.173023617417309"><ele>293.0</ele><time>2026-04-26T07:53:59.999Z</time></trkpt><trkpt lat="45.98392282213352" lon="12.173076267093503"><ele>291.33333333333337</ele><time>2026-04-26T07:54:00.999Z</time></trkpt><trkpt lat="45.98378150894738" lon="12.17312828145865"><ele>289.6666666666667</ele><time>2026-04-26T07:54:01.999Z</time></trkpt><trkpt lat="45.9836347459815" lon="12.173185619024137"><ele>288.0</ele><time>2026-04-26T07:54:02.999Z</time></trkpt><trkpt lat="45.98348392073785" lon="12.173238851317507"><ele>286.5</ele><time>2026-04-26T07:54:03.999Z</time></trkpt><trkpt lat="45.98333849233593" lon="12.173297759486209"><ele>285.0</ele><time>2026-04-26T07:54:04.999Z</time></trkpt><trkpt lat="45.983200444754964" lon="12.173350457532148"><ele>283.5</ele><time>2026-04-26T07:54:05.999Z</time></trkpt><trkpt lat="45.9830650927331" lon="12.173402265074975"><ele>282.0</ele><time>2026-04-26T07:54:06.999Z</time></trkpt><trkpt lat="45.98293578977163" lon="12.173457141173486"><ele>282.0</ele><time>2026-04-26T07:54:07.999Z</time></trkpt><trkpt lat="45.98280920007269" lon="12.173507025425664"><ele>282.0</ele><time>2026-04-26T07:54:08.999Z</time></trkpt><trkpt lat="45.9826749212185" lon="12.17357427821572"><ele>282.0</ele><time>2026-04-26T07:54:09.999Z</time></trkpt><trkpt lat="45.98253892649964" lon="12.173632073251474"><ele>282.0</ele><time>2026-04-26T07:54:10.999Z</time></trkpt><trkpt lat="45.98239919417383" lon="12.173683555798684"><ele>279.75</ele><time>2026-04-26T07:54:11.999Z</time></trkpt><trkpt lat="45.98227309821741" lon="12.17374034957071"><ele>277.5</ele><time>2026-04-26T07:54:12.999Z</time></trkpt><trkpt lat="45.982154533079644" lon="12.173792401769747"><ele>275.25</ele><time>2026-04-26T07:54:13.999Z</time></trkpt><trkpt lat="45.98203193797943" lon="12.173852284599239"><ele>273.0</ele><time>2026-04-26T07:54:14.999Z</time></trkpt><trkpt lat="45.98191175346755" lon="12.173904242793299"><ele>273.0</ele><time>2026-04-26T07:54:15.999Z</time></trkpt><trkpt lat="45.981795327014765" lon="12.173946428256679"><ele>273.0</ele><time>2026-04-26T07:54:16.999Z</time></trkpt><trkpt lat="45.98167892919084" lon="12.173991149364326"><ele>273.0</ele><time>2026-04-26T07:54:17.999Z</time></trkpt><trkpt lat="45.981575416102" lon="12.174041854219748"><ele>273.0</ele><time>2026-04-26T07:54:18.999Z</time></trkpt><trkpt lat="45.98146783167847" lon="12.17408663620939"><ele>273.2</ele><time>2026-04-26T07:54:19.999Z</time></trkpt><trkpt lat="45.981364526385875" lon="12.174123774432879"><ele>273.4</ele><time>2026-04-26T07:54:20.999Z</time></trkpt><trkpt lat="45.98126422786261" lon="12.174162784023387"><ele>273.59999999999997</ele><time>2026-04-26T07:54:21.999Z</time></trkpt><trkpt lat="45.98117221131055" lon="12.17419525671296"><ele>273.8</ele><time>2026-04-26T07:54:22.999Z</time></trkpt><trkpt lat="45.98108874565817" lon="12.174224933305345"><ele>274.0</ele><time>2026-04-26T07:54:23.999Z</time></trkpt><trkpt lat="45.98100824960169" lon="12.17425415819247"><ele>274.0</ele><time>2026-04-26T07:54:24.999Z</time></trkpt><trkpt lat="45.980934970302734" lon="12.174289345328546"><ele>274.0</ele><time>2026-04-26T07:54:25.999Z</time></trkpt><trkpt lat="45.98087009765465" lon="12.174322954888803"><ele>274.0</ele><time>2026-04-26T07:54:26.999Z</time></trkpt><trkpt lat="45.98076345740086" lon="12.17434884843476"><ele>274.0</ele><time>2026-04-26T07:54:28.999Z</time></trkpt><trkpt lat="45.980673515211684" lon="12.17439371942833"><ele>274.0</ele><time>2026-04-26T07:54:31Z</time></trkpt><trkpt lat="45.980597254748865" lon="12.174419366922873"><ele>274.0</ele><time>2026-04-26T07:54:33Z</time></trkpt><trkpt lat="45.98053078836908" lon="12.174443349082933"><ele>273.3333333333333</ele><time>2026-04-26T07:54:35Z</time></trkpt><trkpt lat="45.98044648716827" lon="12.174469558525589"><ele>272.66666666666663</ele><time>2026-04-26T07:54:39Z</time></trkpt><trkpt lat="45.98034866987809" lon="12.174507262658496"><ele>272.0</ele><time>2026-04-26T07:54:41Z</time></trkpt><trkpt lat="45.980278636660195" lon="12.174540370761441"><ele>271.3333333333333</ele><time>2026-04-26T07:54:42Z</time></trkpt><trkpt lat="45.98019829446902" lon="12.174576005060091"><ele>270.6666666666667</ele><time>2026-04-26T07:54:43Z</time></trkpt><trkpt lat="45.9801062793933" lon="12.17461087109129"><ele>270.0</ele><time>2026-04-26T07:54:44Z</time></trkpt><trkpt lat="45.980014207415046" lon="12.174647563343942"><ele>269.3333333333333</ele><time>2026-04-26T07:54:45Z</time></trkpt><trkpt lat="45.979930937966834" lon="12.174687010340401"><ele>268.6666666666667</ele><time>2026-04-26T07:54:46Z</time></trkpt><trkpt lat="45.97984525812587" lon="12.174720059610049"><ele>268.0</ele><time>2026-04-26T07:54:47Z</time></trkpt><trkpt lat="45.979755154615255" lon="12.174761271204916"><ele>267.33333333333337</ele><time>2026-04-26T07:54:48Z</time></trkpt><trkpt lat="45.97967203313002" lon="12.17481363429837"><ele>266.6666666666667</ele><time>2026-04-26T07:54:49Z</time></trkpt><trkpt lat="45.979592481370105" lon="12.174846876111742"><ele>266.0</ele><time>2026-04-26T07:54:50Z</time></trkpt><trkpt lat="45.979505533301015" lon="12.17488104557195"><ele>265.83333333333337</ele><time>2026-04-26T07:54:51Z</time></trkpt><trkpt lat="45.97941912013016" lon="12.174923304579846"><ele>265.6666666666667</ele><time>2026-04-26T07:54:52Z</time></trkpt><trkpt lat="45.979339104916995" lon="12.174965714829439"><ele>265.5</ele><time>2026-04-26T07:54:53Z</time></trkpt><trkpt lat="45.97926364401404" lon="12.174988916289786"><ele>265.3333333333333</ele><time>2026-04-26T07:54:54Z</time></trkpt><trkpt lat="45.979172152664276" lon="12.175009967714029"><ele>265.16666666666663</ele><time>2026-04-26T07:54:55Z</time></trkpt><trkpt lat="45.979073334020754" lon="12.175008909216734"><ele>265.0</ele><time>2026-04-26T07:54:56Z</time></trkpt><trkpt lat="45.978976750817274" lon="12.174986229594792"><ele>264.0</ele><time>2026-04-26T07:54:57Z</time></trkpt><trkpt lat="45.97888613588201" lon="12.174987844886399"><ele>263.0</ele><time>2026-04-26T07:54:58Z</time></trkpt><trkpt lat="45.978795249069606" lon="12.174945134405053"><ele>262.0</ele><time>2026-04-26T07:54:59Z</time></trkpt><trkpt lat="45.97870111232381" lon="12.174928830167874"><ele>261.0</ele><time>2026-04-26T07:55:00Z</time></trkpt><trkpt lat="45.978604466854925" lon="12.174917316991433"><ele>260.0</ele><time>2026-04-26T07:55:01Z</time></trkpt><trkpt lat="45.97850959914846" lon="12.17484467270887"><ele>259.8</ele><time>2026-04-26T07:55:02Z</time></trkpt><trkpt lat="45.97840799626572" lon="12.174796675524465"><ele>259.6</ele><time>2026-04-26T07:55:03Z</time></trkpt><trkpt lat="45.97829477321106" lon="12.174767774528819"><ele>259.4</ele><time>2026-04-26T07:55:04Z</time></trkpt><trkpt lat="45.97819127241931" lon="12.17475573776331"><ele>259.2</ele><time>2026-04-26T07:55:05Z</time></trkpt><trkpt lat="45.97809303937" lon="12.174739801007982"><ele>259.0</ele><time>2026-04-26T07:55:06Z</time></trkpt><trkpt lat="45.97799961942323" lon="12.17473341449485"><ele>258.59999999999997</ele><time>2026-04-26T07:55:07Z</time></trkpt><trkpt lat="45.977927522386715" lon="12.174736911544533"><ele>258.2</ele><time>2026-04-26T07:55:08Z</time></trkpt><trkpt lat="45.97784463579746" lon="12.174737998389254"><ele>257.79999999999995</ele><time>2026-04-26T07:55:10Z</time></trkpt><trkpt lat="45.977748398772306" lon="12.174694171401946"><ele>257.4</ele><time>2026-04-26T07:56:16.999Z</time></trkpt><trkpt lat="45.97765350795932" lon="12.174721599309853"><ele>257.0</ele><time>2026-04-26T07:56:17.999Z</time></trkpt><trkpt lat="45.977540413038966" lon="12.174749170045336"><ele>256.75</ele><time>2026-04-26T07:56:18.999Z</time></trkpt><trkpt lat="45.97739232641185" lon="12.174780324798494"><ele>256.5</ele><time>2026-04-26T07:56:19.999Z</time></trkpt><trkpt lat="45.97727151256779" lon="12.174789809455627"><ele>256.25</ele><time>2026-04-26T07:56:20.999Z</time></trkpt><trkpt lat="45.9771413023224" lon="12.174801609788668"><ele>256.0</ele><time>2026-04-26T07:56:21.999Z</time></trkpt><trkpt lat="45.977004487427116" lon="12.174807168777775"><ele>256.0</ele><time>2026-04-26T07:56:22.999Z</time></trkpt><trkpt lat="45.976861204171904" lon="12.174832577856712"><ele>256.0</ele><time>2026-04-26T07:56:23.999Z</time></trkpt><trkpt lat="45.97671659030063" lon="12.174873167131132"><ele>256.0</ele><time>2026-04-26T07:56:24.999Z</time></trkpt><trkpt lat="45.97657012346212" lon="12.174934094681175"><ele>256.0</ele><time>2026-04-26T07:56:25.999Z</time></trkpt><trkpt lat="45.97643393393815" lon="12.174996920045084"><ele>254.5</ele><time>2026-04-26T07:56:26.999Z</time></trkpt><trkpt lat="45.97630808709182" lon="12.175052795060246"><ele>253.0</ele><time>2026-04-26T07:56:27.999Z</time></trkpt><trkpt lat="45.97618536756044" lon="12.175111655359022"><ele>251.5</ele><time>2026-04-26T07:56:28.999Z</time></trkpt><trkpt lat="45.97605366571944" lon="12.175176362450449"><ele>250.0</ele><time>2026-04-26T07:56:29.999Z</time></trkpt><trkpt lat="45.97591204240197" lon="12.175228028792512"><ele>248.5</ele><time>2026-04-26T07:56:30.999Z</time></trkpt><trkpt lat="45.97576527790506" lon="12.175270844271783"><ele>247.0</ele><time>2026-04-26T07:56:31.999Z</time></trkpt><trkpt lat="45.975635605415" lon="12.175294249149275"><ele>245.5</ele><time>2026-04-26T07:56:32.999Z</time></trkpt><trkpt lat="45.9754984257776" lon="12.175318750664047"><ele>244.0</ele><time>2026-04-26T07:56:33.999Z</time></trkpt><trkpt lat="45.97536526568928" lon="12.17533907719025"><ele>244.0</ele><time>2026-04-26T07:56:34.999Z</time></trkpt><trkpt lat="45.97524551959319" lon="12.17535202462754"><ele>243.99999999999997</ele><time>2026-04-26T07:56:36Z</time></trkpt><trkpt lat="45.97513311687963" lon="12.175368705586612"><ele>243.99999999999997</ele><time>2026-04-26T07:56:37Z</time></trkpt><trkpt lat="45.97502584235244" lon="12.175369061199936"><ele>244.0</ele><time>2026-04-26T07:56:38Z</time></trkpt><trkpt lat="45.97492373147622" lon="12.175380997716417"><ele>244.0</ele><time>2026-04-26T07:56:39Z</time></trkpt><trkpt lat="45.97482352578389" lon="12.175408836598834"><ele>243.6</ele><time>2026-04-26T07:56:40Z</time></trkpt><trkpt lat="45.97471913980991" lon="12.175428516000654"><ele>243.2</ele><time>2026-04-26T07:56:41Z</time></trkpt><trkpt lat="45.97462364866503" lon="12.175440209010256"><ele>242.79999999999998</ele><time>2026-04-26T07:56:42Z</time></trkpt><trkpt lat="45.97453516904382" lon="12.175460817750524"><ele>242.39999999999998</ele><time>2026-04-26T07:56:43Z</time></trkpt><trkpt lat="45.97444659864082" lon="12.175474481655506"><ele>242.0</ele><time>2026-04-26T07:56:44Z</time></trkpt><trkpt lat="45.974362318064465" lon="12.175492105693271"><ele>242.00000000000003</ele><time>2026-04-26T07:56:45Z</time></trkpt><trkpt lat="45.974274878183024" lon="12.1755106392989"><ele>242.0</ele><time>2026-04-26T07:56:46Z</time></trkpt><trkpt lat="45.97419185738834" lon="12.175525737241513"><ele>242.0</ele><time>2026-04-26T07:56:47Z</time></trkpt><trkpt lat="45.97410978146839" lon="12.175538935749714"><ele>242.0</ele><time>2026-04-26T07:56:48Z</time></trkpt><trkpt lat="45.97402755446507" lon="12.175559982262637"><ele>242.00000000000003</ele><time>2026-04-26T07:56:49Z</time></trkpt><trkpt lat="45.97396447645707" lon="12.175556229316859"><ele>242.0</ele><time>2026-04-26T07:56:50Z</time></trkpt><trkpt lat="45.97385576774518" lon="12.175510346020532"><ele>241.6</ele><time>2026-04-26T07:56:52Z</time></trkpt><trkpt lat="45.9737641255946" lon="12.175467267829399"><ele>241.2</ele><time>2026-04-26T07:56:54Z</time></trkpt><trkpt lat="45.97371369514123" lon="12.175403600019912"><ele>240.8</ele><time>2026-04-26T07:57:07Z</time></trkpt><trkpt lat="45.973682678253674" lon="12.175264865260349"><ele>240.4</ele><time>2026-04-26T07:57:09Z</time></trkpt><trkpt lat="45.97365514050162" lon="12.175137757663501"><ele>240.0</ele><time>2026-04-26T07:57:10Z</time></trkpt><trkpt lat="45.97363803236707" lon="12.17500718603076"><ele>239.5</ele><time>2026-04-26T07:57:11Z</time></trkpt><trkpt lat="45.973612861461426" lon="12.174836638668124"><ele>239.0</ele><time>2026-04-26T07:57:12Z</time></trkpt><trkpt lat="45.97358693930363" lon="12.174625030264709"><ele>238.5</ele><time>2026-04-26T07:57:13Z</time></trkpt><trkpt lat="45.97354816943961" lon="12.174397209586886"><ele>238.0</ele><time>2026-04-26T07:57:14Z</time></trkpt><trkpt lat="45.97350163215546" lon="12.174139383981785"><ele>238.5</ele><time>2026-04-26T07:57:15Z</time></trkpt><trkpt lat="45.97345367408548" lon="12.173940581231978"><ele>239.0</ele><time>2026-04-26T07:57:16Z</time></trkpt><trkpt lat="45.9734196946338" lon="12.17373972834167"><ele>239.5</ele><time>2026-04-26T07:57:17Z</time></trkpt><trkpt lat="45.97336489981565" lon="12.173527705464945"><ele>240.0</ele><time>2026-04-26T07:57:18Z</time></trkpt><trkpt lat="45.973309470818855" lon="12.173324620496407"><ele>244.0</ele><time>2026-04-26T07:57:19Z</time></trkpt><trkpt lat="45.973249480885286" lon="12.173113701750182"><ele>248.0</ele><time>2026-04-26T07:57:20Z</time></trkpt><trkpt lat="45.97318723649275" lon="12.172909983451312"><ele>252.0</ele><time>2026-04-26T07:57:21Z</time></trkpt><trkpt lat="45.97312318742461" lon="12.172702596061926"><ele>252.0</ele><time>2026-04-26T07:57:22Z</time></trkpt><trkpt lat="45.97305670206487" lon="12.172483330852758"><ele>252.0</ele><time>2026-04-26T07:57:23Z</time></trkpt><trkpt lat="45.97299365886264" lon="12.172269275458165"><ele>252.0</ele><time>2026-04-26T07:57:24Z</time></trkpt><trkpt lat="45.97293579150809" lon="12.172066590286326"><ele>257.75</ele><time>2026-04-26T07:57:25Z</time></trkpt><trkpt lat="45.97287917004425" lon="12.17187438290237"><ele>263.5</ele><time>2026-04-26T07:57:26Z</time></trkpt><trkpt lat="45.97282391828579" lon="12.17168917355284"><ele>269.25</ele><time>2026-04-26T07:57:27Z</time></trkpt><trkpt lat="45.97277486465653" lon="12.171495249677617"><ele>275.0</ele><time>2026-04-26T07:57:28Z</time></trkpt><trkpt lat="45.97271803147935" lon="12.171294230393672"><ele>282.33333333333337</ele><time>2026-04-26T07:57:29Z</time></trkpt><trkpt lat="45.97266618845282" lon="12.171098865243177"><ele>289.6666666666667</ele><time>2026-04-26T07:57:30Z</time></trkpt><trkpt lat="45.97261581404813" lon="12.17088773576923"><ele>297.0</ele><time>2026-04-26T07:57:31Z</time></trkpt><trkpt lat="45.9725698637788" lon="12.17066376004461"><ele>299.75</ele><time>2026-04-26T07:57:32Z</time></trkpt><trkpt lat="45.97252888624085" lon="12.17044491531288"><ele>302.5</ele><time>2026-04-26T07:57:33Z</time></trkpt><trkpt lat="45.972489286381794" lon="12.170251667540027"><ele>305.25</ele><time>2026-04-26T07:57:34Z</time></trkpt><trkpt lat="45.97244673923152" lon="12.170065557831757"><ele>308.0</ele><time>2026-04-26T07:57:35Z</time></trkpt><trkpt lat="45.97240776868064" lon="12.169865005003023"><ele>295.0</ele><time>2026-04-26T07:57:36Z</time></trkpt><trkpt lat="45.97236787571967" lon="12.169656989098385"><ele>282.0</ele><time>2026-04-26T07:57:37Z</time></trkpt><trkpt lat="45.97232739683013" lon="12.16945077910949"><ele>269.0</ele><time>2026-04-26T07:57:38Z</time></trkpt><trkpt lat="45.97228948789139" lon="12.16925201527298"><ele>256.0</ele><time>2026-04-26T07:57:39Z</time></trkpt><trkpt lat="45.972250096639485" lon="12.169044288913646"><ele>258.0</ele><time>2026-04-26T07:57:40Z</time></trkpt><trkpt lat="45.97220824313069" lon="12.168836049354956"><ele>260.0</ele><time>2026-04-26T07:57:41Z</time></trkpt><trkpt lat="45.972165062999096" lon="12.16864910389781"><ele>262.0</ele><time>2026-04-26T07:57:42Z</time></trkpt><trkpt lat="45.97214658099434" lon="12.168457785941042"><ele>264.0</ele><time>2026-04-26T07:57:43Z</time></trkpt><trkpt lat="45.972111710716426" lon="12.16826497952689"><ele>265.0</ele><time>2026-04-26T07:57:44Z</time></trkpt><trkpt lat="45.97207602586364" lon="12.168067669116802"><ele>266.0</ele><time>2026-04-26T07:57:45Z</time></trkpt><trkpt lat="45.97203329892048" lon="12.167854507330924"><ele>267.0</ele><time>2026-04-26T07:57:45.999Z</time></trkpt><trkpt lat="45.972003965838994" lon="12.167640996399303"><ele>268.0</ele><time>2026-04-26T07:57:46.999Z</time></trkpt><trkpt lat="45.97197275017153" lon="12.167433423303823"><ele>268.5</ele><time>2026-04-26T07:57:47.999Z</time></trkpt><trkpt lat="45.971935788937664" lon="12.167236598404154"><ele>269.0</ele><time>2026-04-26T07:57:48.999Z</time></trkpt><trkpt lat="45.97189831701737" lon="12.16704893447477"><ele>269.5</ele><time>2026-04-26T07:57:49.999Z</time></trkpt><trkpt lat="45.97186221705403" lon="12.16686225233056"><ele>270.0</ele><time>2026-04-26T07:57:50.999Z</time></trkpt><trkpt lat="45.97183122183667" lon="12.166673595656697"><ele>268.75</ele><time>2026-04-26T07:57:51.999Z</time></trkpt><trkpt lat="45.97180666994861" lon="12.166474891691319"><ele>267.5</ele><time>2026-04-26T07:57:52.999Z</time></trkpt><trkpt lat="45.97178950524334" lon="12.16626944053881"><ele>266.25</ele><time>2026-04-26T07:57:53.999Z</time></trkpt><trkpt lat="45.97177933770909" lon="12.166065131651006"><ele>265.0</ele><time>2026-04-26T07:57:54.999Z</time></trkpt><trkpt lat="45.971775679365976" lon="12.16587064655714"><ele>264.0</ele><time>2026-04-26T07:57:55.999Z</time></trkpt><trkpt lat="45.97176600055577" lon="12.165680559058625"><ele>263.0</ele><time>2026-04-26T07:57:56.999Z</time></trkpt><trkpt lat="45.971760913772094" lon="12.165481224036844"><ele>262.0</ele><time>2026-04-26T07:57:57.999Z</time></trkpt><trkpt lat="45.971757021853826" lon="12.16528433002429"><ele>261.0</ele><time>2026-04-26T07:57:58.999Z</time></trkpt><trkpt lat="45.97175480548394" lon="12.165079170415618"><ele>261.0</ele><time>2026-04-26T07:57:59.999Z</time></trkpt><trkpt lat="45.97175048796884" lon="12.164873577083283"><ele>261.0</ele><time>2026-04-26T07:58:00.999Z</time></trkpt><trkpt lat="45.97174674893729" lon="12.164665639505564"><ele>261.0</ele><time>2026-04-26T07:58:01.999Z</time></trkpt><trkpt lat="45.97174698434471" lon="12.164470407504004"><ele>261.0</ele><time>2026-04-26T07:58:02.999Z</time></trkpt><trkpt lat="45.9717801689053" lon="12.164247570240262"><ele>261.0</ele><time>2026-04-26T07:58:03.999Z</time></trkpt><trkpt lat="45.97176467558442" lon="12.164069266097464"><ele>261.0</ele><time>2026-04-26T07:58:04.999Z</time></trkpt><trkpt lat="45.971774950069694" lon="12.163871892216585"><ele>261.0</ele><time>2026-04-26T07:58:05.999Z</time></trkpt><trkpt lat="45.97173626847727" lon="12.163691851759003"><ele>261.0</ele><time>2026-04-26T07:58:06.999Z</time></trkpt><trkpt lat="45.97172943743289" lon="12.163487066772875"><ele>261.0</ele><time>2026-04-26T07:58:07.999Z</time></trkpt><trkpt lat="45.97172554907745" lon="12.163308582565815"><ele>261.0</ele><time>2026-04-26T07:58:08.999Z</time></trkpt><trkpt lat="45.97172280647515" lon="12.163123614724928"><ele>261.0</ele><time>2026-04-26T07:58:09.999Z</time></trkpt><trkpt lat="45.971720213823374" lon="12.162938883306058"><ele>261.0</ele><time>2026-04-26T07:58:10.999Z</time></trkpt><trkpt lat="45.97171893468315" lon="12.162759101477095"><ele>261.0</ele><time>2026-04-26T07:58:11.999Z</time></trkpt><trkpt lat="45.971723298606044" lon="12.16258483629828"><ele>261.0</ele><time>2026-04-26T07:58:12.999Z</time></trkpt><trkpt lat="45.97173198076459" lon="12.16240932315232"><ele>261.0</ele><time>2026-04-26T07:58:13.999Z</time></trkpt><trkpt lat="45.97172659961443" lon="12.16223265248913"><ele>261.0</ele><time>2026-04-26T07:58:14.999Z</time></trkpt><trkpt lat="45.971723335328825" lon="12.162048679719547"><ele>261.0</ele><time>2026-04-26T07:58:15.999Z</time></trkpt><trkpt lat="45.971716373286846" lon="12.161861865119109"><ele>261.0</ele><time>2026-04-26T07:58:16.999Z</time></trkpt><trkpt lat="45.97170469503201" lon="12.16167524203832"><ele>261.0</ele><time>2026-04-26T07:58:17.999Z</time></trkpt><trkpt lat="45.9716828319287" lon="12.161484947767002"><ele>261.0</ele><time>2026-04-26T07:58:18.999Z</time></trkpt><trkpt lat="45.97165138373339" lon="12.161295896710762"><ele>259.0</ele><time>2026-04-26T07:58:19.999Z</time></trkpt><trkpt lat="45.97161738624912" lon="12.16110190717376"><ele>257.0</ele><time>2026-04-26T07:58:20.999Z</time></trkpt><trkpt lat="45.971563451876044" lon="12.160912051596865"><ele>255.0</ele><time>2026-04-26T07:58:21.999Z</time></trkpt><trkpt lat="45.9715170549524" lon="12.160718880017194"><ele>253.0</ele><time>2026-04-26T07:58:22.999Z</time></trkpt><trkpt lat="45.97146311562692" lon="12.160533285498671"><ele>253.0</ele><time>2026-04-26T07:58:23.999Z</time></trkpt><trkpt lat="45.971412866396605" lon="12.160358484946032"><ele>253.0</ele><time>2026-04-26T07:58:24.999Z</time></trkpt><trkpt lat="45.97136639560599" lon="12.160156789210955"><ele>253.0</ele><time>2026-04-26T07:58:25.999Z</time></trkpt><trkpt lat="45.97132597340767" lon="12.159980296111002"><ele>253.0</ele><time>2026-04-26T07:58:26.999Z</time></trkpt><trkpt lat="45.97127502819319" lon="12.159799319122568"><ele>257.0</ele><time>2026-04-26T07:58:27.999Z</time></trkpt><trkpt lat="45.97123132155792" lon="12.159623986865492"><ele>261.0</ele><time>2026-04-26T07:58:28.999Z</time></trkpt><trkpt lat="45.97119117860962" lon="12.159428720290384"><ele>265.0</ele><time>2026-04-26T07:58:29.999Z</time></trkpt><trkpt lat="45.97114544258084" lon="12.159244152735544"><ele>269.0</ele><time>2026-04-26T07:58:30.999Z</time></trkpt><trkpt lat="45.97109531844864" lon="12.159069722980927"><ele>271.25</ele><time>2026-04-26T07:58:31.999Z</time></trkpt><trkpt lat="45.971048026242784" lon="12.15888953088626"><ele>273.5</ele><time>2026-04-26T07:58:32.999Z</time></trkpt><trkpt lat="45.97099985214077" lon="12.15870152175875"><ele>275.75</ele><time>2026-04-26T07:58:33.999Z</time></trkpt><trkpt lat="45.97094714311856" lon="12.15851758928409"><ele>278.0</ele><time>2026-04-26T07:58:34.999Z</time></trkpt><trkpt lat="45.970885633614834" lon="12.158336518262313"><ele>271.0</ele><time>2026-04-26T07:58:35.999Z</time></trkpt><trkpt lat="45.97081222723993" lon="12.158152768218155"><ele>264.0</ele><time>2026-04-26T07:58:36.999Z</time></trkpt><trkpt lat="45.9707318118339" lon="12.157968267597747"><ele>257.0</ele><time>2026-04-26T07:58:37.999Z</time></trkpt><trkpt lat="45.97063857193974" lon="12.157761844980017"><ele>257.0</ele><time>2026-04-26T07:58:38.999Z</time></trkpt><trkpt lat="45.970537841455055" lon="12.157546536288121"><ele>257.0</ele><time>2026-04-26T07:58:39.999Z</time></trkpt><trkpt lat="45.97044492074767" lon="12.157375260267788"><ele>257.0</ele><time>2026-04-26T07:58:40.999Z</time></trkpt><trkpt lat="45.970355785500935" lon="12.157215700777964"><ele>260.25</ele><time>2026-04-26T07:58:42Z</time></trkpt><trkpt lat="45.97026877888788" lon="12.157053035787317"><ele>263.5</ele><time>2026-04-26T07:58:43Z</time></trkpt><trkpt lat="45.970178220718" lon="12.156884177368262"><ele>266.75</ele><time>2026-04-26T07:58:44Z</time></trkpt><trkpt lat="45.970084397455636" lon="12.156718797319893"><ele>270.0</ele><time>2026-04-26T07:58:45Z</time></trkpt><trkpt lat="45.969993958329376" lon="12.156552864354929"><ele>265.25</ele><time>2026-04-26T07:58:46Z</time></trkpt><trkpt lat="45.96991061881251" lon="12.156394283134766"><ele>260.5</ele><time>2026-04-26T07:58:47Z</time></trkpt><trkpt lat="45.96982820820326" lon="12.156236536427214"><ele>255.75</ele><time>2026-04-26T07:58:48Z</time></trkpt><trkpt lat="45.9697473080159" lon="12.156094219092399"><ele>251.0</ele><time>2026-04-26T07:58:49Z</time></trkpt><trkpt lat="45.969669553031466" lon="12.155949966873552"><ele>251.0</ele><time>2026-04-26T07:58:50Z</time></trkpt><trkpt lat="45.96959414853988" lon="12.155792409033756"><ele>251.0</ele><time>2026-04-26T07:58:51Z</time></trkpt><trkpt lat="45.969513722125384" lon="12.155657037932642"><ele>251.0</ele><time>2026-04-26T07:58:52Z</time></trkpt><trkpt lat="45.96943017703354" lon="12.155517671179746"><ele>251.0</ele><time>2026-04-26T07:58:53Z</time></trkpt><trkpt lat="45.96935730057643" lon="12.155370516759806"><ele>250.0</ele><time>2026-04-26T07:58:54Z</time></trkpt><trkpt lat="45.96928611179943" lon="12.15523227706504"><ele>249.0</ele><time>2026-04-26T07:58:55Z</time></trkpt><trkpt lat="45.969211657298985" lon="12.15509880162258"><ele>248.0</ele><time>2026-04-26T07:58:56Z</time></trkpt><trkpt lat="45.96913717093786" lon="12.154952696006282"><ele>247.0</ele><time>2026-04-26T07:58:57Z</time></trkpt><trkpt lat="45.9690559325134" lon="12.154810906850983"><ele>249.0</ele><time>2026-04-26T07:58:58Z</time></trkpt><trkpt lat="45.96897730588075" lon="12.154666137421165"><ele>251.0</ele><time>2026-04-26T07:58:59Z</time></trkpt><trkpt lat="45.96889647546474" lon="12.154521084283422"><ele>253.0</ele><time>2026-04-26T07:59:00Z</time></trkpt><trkpt lat="45.968814807022284" lon="12.154373962347403"><ele>255.0</ele><time>2026-04-26T07:59:01Z</time></trkpt><trkpt lat="45.9687323215841" lon="12.154223197508902"><ele>255.0</ele><time>2026-04-26T07:59:02Z</time></trkpt><trkpt lat="45.96865206411697" lon="12.154072189324264"><ele>255.0</ele><time>2026-04-26T07:59:03Z</time></trkpt><trkpt lat="45.96857055346063" lon="12.153912351294336"><ele>255.0</ele><time>2026-04-26T07:59:04Z</time></trkpt><trkpt lat="45.96848909590591" lon="12.153753980376807"><ele>255.0</ele><time>2026-04-26T07:59:05Z</time></trkpt><trkpt lat="45.96841713914435" lon="12.153600284073091"><ele>254.5</ele><time>2026-04-26T07:59:06Z</time></trkpt><trkpt lat="45.9683487497385" lon="12.153422065514919"><ele>254.0</ele><time>2026-04-26T07:59:07Z</time></trkpt><trkpt lat="45.96826602947555" lon="12.153264353181232"><ele>253.5</ele><time>2026-04-26T07:59:08Z</time></trkpt><trkpt lat="45.96820347391099" lon="12.153080386820157"><ele>253.0</ele><time>2026-04-26T07:59:09Z</time></trkpt><trkpt lat="45.96813534058307" lon="12.152860684181228"><ele>253.0</ele><time>2026-04-26T07:59:10Z</time></trkpt><trkpt lat="45.96807312979167" lon="12.152677196236963"><ele>253.0</ele><time>2026-04-26T07:59:11Z</time></trkpt><trkpt lat="45.968026441851656" lon="12.152502709714861"><ele>253.0</ele><time>2026-04-26T07:59:12Z</time></trkpt><trkpt lat="45.967974297957866" lon="12.152341599196658"><ele>253.0</ele><time>2026-04-26T07:59:13Z</time></trkpt><trkpt lat="45.96792608723207" lon="12.15215954927138"><ele>255.0</ele><time>2026-04-26T07:59:14Z</time></trkpt><trkpt lat="45.96786960064784" lon="12.15197936146706"><ele>257.0</ele><time>2026-04-26T07:59:15Z</time></trkpt><trkpt lat="45.96780978360549" lon="12.151790653657415"><ele>259.0</ele><time>2026-04-26T07:59:16Z</time></trkpt><trkpt lat="45.96775067024268" lon="12.151598418303122"><ele>261.0</ele><time>2026-04-26T07:59:17Z</time></trkpt><trkpt lat="45.96768905135414" lon="12.151381253333799"><ele>261.0</ele><time>2026-04-26T07:59:18Z</time></trkpt><trkpt lat="45.96761955625174" lon="12.151159454936526"><ele>261.0</ele><time>2026-04-26T07:59:19Z</time></trkpt><trkpt lat="45.967552643843746" lon="12.150936362582652"><ele>261.0</ele><time>2026-04-26T07:59:20Z</time></trkpt><trkpt lat="45.96749270831891" lon="12.150734527416395"><ele>258.5</ele><time>2026-04-26T07:59:21Z</time></trkpt><trkpt lat="45.96743307111235" lon="12.150535837761334"><ele>256.0</ele><time>2026-04-26T07:59:22Z</time></trkpt><trkpt lat="45.96737762826108" lon="12.150348576110257"><ele>253.5</ele><time>2026-04-26T07:59:23Z</time></trkpt><trkpt lat="45.96732140435876" lon="12.15016568324955"><ele>251.0</ele><time>2026-04-26T07:59:24Z</time></trkpt><trkpt lat="45.96726004753644" lon="12.149987617271336"><ele>251.0</ele><time>2026-04-26T07:59:25Z</time></trkpt><trkpt lat="45.96719807683046" lon="12.149794699485597"><ele>251.0</ele><time>2026-04-26T07:59:26Z</time></trkpt><trkpt lat="45.96712848178855" lon="12.149588394561478"><ele>251.0</ele><time>2026-04-26T07:59:27Z</time></trkpt><trkpt lat="45.96706259126729" lon="12.149390149805784"><ele>251.0</ele><time>2026-04-26T07:59:28Z</time></trkpt><trkpt lat="45.966993638854476" lon="12.149190379293325"><ele>251.0</ele><time>2026-04-26T07:59:29Z</time></trkpt><trkpt lat="45.966926308231436" lon="12.148993277439887"><ele>251.0</ele><time>2026-04-26T07:59:30Z</time></trkpt><trkpt lat="45.96686130860231" lon="12.148811675808819"><ele>250.75</ele><time>2026-04-26T07:59:31Z</time></trkpt><trkpt lat="45.966789441556905" lon="12.148628273785315"><ele>250.5</ele><time>2026-04-26T07:59:32Z</time></trkpt><trkpt lat="45.966716310646255" lon="12.1484445854531"><ele>250.25</ele><time>2026-04-26T07:59:33Z</time></trkpt><trkpt lat="45.96664784598782" lon="12.148262934237223"><ele>250.0</ele><time>2026-04-26T07:59:34Z</time></trkpt><trkpt lat="45.96657569421885" lon="12.148087196638771"><ele>248.25</ele><time>2026-04-26T07:59:35Z</time></trkpt><trkpt lat="45.966503624804574" lon="12.14791894228504"><ele>246.5</ele><time>2026-04-26T07:59:36Z</time></trkpt><trkpt lat="45.96642791558698" lon="12.147729149942418"><ele>244.75</ele><time>2026-04-26T07:59:36.999Z</time></trkpt><trkpt lat="45.96635266575623" lon="12.147536117067185"><ele>243.0</ele><time>2026-04-26T07:59:37.999Z</time></trkpt><trkpt lat="45.96627770856947" lon="12.147354622078478"><ele>242.5</ele><time>2026-04-26T07:59:38.999Z</time></trkpt><trkpt lat="45.966206132432646" lon="12.147176732501245"><ele>242.0</ele><time>2026-04-26T07:59:39.999Z</time></trkpt><trkpt lat="45.96613175149337" lon="12.146993613802122"><ele>241.5</ele><time>2026-04-26T07:59:40.999Z</time></trkpt><trkpt lat="45.9660602093194" lon="12.146819975880609"><ele>241.0</ele><time>2026-04-26T07:59:41.999Z</time></trkpt><trkpt lat="45.96599053119341" lon="12.14664319017054"><ele>240.75</ele><time>2026-04-26T07:59:42.999Z</time></trkpt><trkpt lat="45.96592471380265" lon="12.146460716387098"><ele>240.5</ele><time>2026-04-26T07:59:43.999Z</time></trkpt><trkpt lat="45.9658561749259" lon="12.146273756557745"><ele>240.25</ele><time>2026-04-26T07:59:44.999Z</time></trkpt><trkpt lat="45.9657960053516" lon="12.146093089154618"><ele>240.0</ele><time>2026-04-26T07:59:45.999Z</time></trkpt><trkpt lat="45.965747011375484" lon="12.145918085194483"><ele>239.25</ele><time>2026-04-26T07:59:46.999Z</time></trkpt><trkpt lat="45.965699279638095" lon="12.145730511859599"><ele>238.5</ele><time>2026-04-26T07:59:47.999Z</time></trkpt><trkpt lat="45.965654481551454" lon="12.145525178322027"><ele>237.75</ele><time>2026-04-26T07:59:48.999Z</time></trkpt><trkpt lat="45.9656124765087" lon="12.145320851872409"><ele>237.0</ele><time>2026-04-26T07:59:49.999Z</time></trkpt><trkpt lat="45.96558509489632" lon="12.145118586058427"><ele>237.0</ele><time>2026-04-26T07:59:50.999Z</time></trkpt><trkpt lat="45.96555675415685" lon="12.144906177158713"><ele>237.0</ele><time>2026-04-26T07:59:51.999Z</time></trkpt><trkpt lat="45.96554009424869" lon="12.144710019471239"><ele>237.0</ele><time>2026-04-26T07:59:52.999Z</time></trkpt><trkpt lat="45.96552128077263" lon="12.144505032989015"><ele>237.0</ele><time>2026-04-26T07:59:53.999Z</time></trkpt><trkpt lat="45.96550848934588" lon="12.144309507246806"><ele>237.0</ele><time>2026-04-26T07:59:54.999Z</time></trkpt><trkpt lat="45.96549908722094" lon="12.144100136290593"><ele>237.0</ele><time>2026-04-26T07:59:55.999Z</time></trkpt><trkpt lat="45.965486239867424" lon="12.143887791505554"><ele>237.0</ele><time>2026-04-26T07:59:56.999Z</time></trkpt><trkpt lat="45.96548028449596" lon="12.14368559843938"><ele>237.0</ele><time>2026-04-26T07:59:57.999Z</time></trkpt><trkpt lat="45.96546914840402" lon="12.143487771092467"><ele>237.75</ele><time>2026-04-26T07:59:58.999Z</time></trkpt><trkpt lat="45.96545954311916" lon="12.143300531946672"><ele>238.5</ele><time>2026-04-26T07:59:59.999Z</time></trkpt><trkpt lat="45.96544672350307" lon="12.1431192385505"><ele>239.25</ele><time>2026-04-26T08:00:00.999Z</time></trkpt><trkpt lat="45.96543915706549" lon="12.142943569449866"><ele>240.0</ele><time>2026-04-26T08:00:01.999Z</time></trkpt><trkpt lat="45.965430478505915" lon="12.142783546780114"><ele>240.2</ele><time>2026-04-26T08:00:02.999Z</time></trkpt><trkpt lat="45.965421241719945" lon="12.142617987732939"><ele>240.4</ele><time>2026-04-26T08:00:03.999Z</time></trkpt><trkpt lat="45.96541562252126" lon="12.142467252280738"><ele>240.60000000000002</ele><time>2026-04-26T08:00:04.999Z</time></trkpt><trkpt lat="45.96542022206698" lon="12.142324260965253"><ele>240.8</ele><time>2026-04-26T08:00:05.999Z</time></trkpt><trkpt lat="45.96542656436189" lon="12.142194871187368"><ele>241.0</ele><time>2026-04-26T08:00:06.999Z</time></trkpt><trkpt lat="45.96541370977814" lon="12.14208706212069"><ele>241.20000000000002</ele><time>2026-04-26T08:00:07.999Z</time></trkpt><trkpt lat="45.96540879214086" lon="12.14198183492228"><ele>241.40000000000003</ele><time>2026-04-26T08:00:08.999Z</time></trkpt><trkpt lat="45.96543638002715" lon="12.141851471429609"><ele>241.6</ele><time>2026-04-26T08:00:09.999Z</time></trkpt><trkpt lat="45.9654255047937" lon="12.141700123226089"><ele>241.8</ele><time>2026-04-26T08:00:10.999Z</time></trkpt><trkpt lat="45.965401474164736" lon="12.1415399299855"><ele>242.0</ele><time>2026-04-26T08:00:11.999Z</time></trkpt><trkpt lat="45.965400660317954" lon="12.141366404394246"><ele>242.0</ele><time>2026-04-26T08:00:12.999Z</time></trkpt><trkpt lat="45.96541945255781" lon="12.141160651339465"><ele>242.0</ele><time>2026-04-26T08:00:13.999Z</time></trkpt><trkpt lat="45.965442003877264" lon="12.140918865917358"><ele>242.0</ele><time>2026-04-26T08:00:14.999Z</time></trkpt><trkpt lat="45.96546604114118" lon="12.14070667091962"><ele>241.25</ele><time>2026-04-26T08:00:15.999Z</time></trkpt><trkpt lat="45.96549166957445" lon="12.140511961792653"><ele>240.5</ele><time>2026-04-26T08:00:16.999Z</time></trkpt><trkpt lat="45.96551635915934" lon="12.140316051237473"><ele>239.75</ele><time>2026-04-26T08:00:17.999Z</time></trkpt><trkpt lat="45.96553865039128" lon="12.140129856758149"><ele>239.0</ele><time>2026-04-26T08:00:18.999Z</time></trkpt><trkpt lat="45.96555603303355" lon="12.13997344651794"><ele>239.0</ele><time>2026-04-26T08:00:19.999Z</time></trkpt><trkpt lat="45.96557749999513" lon="12.139819384822177"><ele>238.99999999999997</ele><time>2026-04-26T08:00:20.999Z</time></trkpt><trkpt lat="45.965597004481445" lon="12.139677908894056"><ele>238.99999999999997</ele><time>2026-04-26T08:00:21.999Z</time></trkpt><trkpt lat="45.96562063280424" lon="12.139537093653356"><ele>239.0</ele><time>2026-04-26T08:00:22.999Z</time></trkpt><trkpt lat="45.96563416674043" lon="12.13938037456203"><ele>239.0</ele><time>2026-04-26T08:00:23.999Z</time></trkpt><trkpt lat="45.96565525958572" lon="12.139226588066506"><ele>239.0</ele><time>2026-04-26T08:00:24.999Z</time></trkpt><trkpt lat="45.96567329706416" lon="12.139062851386038"><ele>239.0</ele><time>2026-04-26T08:00:25.999Z</time></trkpt><trkpt lat="45.96569900482241" lon="12.138903556480054"><ele>239.0</ele><time>2026-04-26T08:00:26.999Z</time></trkpt><trkpt lat="45.96572048299679" lon="12.138729961771373"><ele>239.0</ele><time>2026-04-26T08:00:27.999Z</time></trkpt><trkpt lat="45.96574246771675" lon="12.13856337701658"><ele>239.0</ele><time>2026-04-26T08:00:28.999Z</time></trkpt><trkpt lat="45.96575804771471" lon="12.138401425840115"><ele>238.99999999999997</ele><time>2026-04-26T08:00:29.999Z</time></trkpt><trkpt lat="45.96577266543785" lon="12.138250756230311"><ele>238.99999999999997</ele><time>2026-04-26T08:00:30.999Z</time></trkpt><trkpt lat="45.96579028394113" lon="12.138107989663041"><ele>239.0</ele><time>2026-04-26T08:00:31.999Z</time></trkpt><trkpt lat="45.96581282306289" lon="12.137971081898504"><ele>239.0</ele><time>2026-04-26T08:00:32.999Z</time></trkpt><trkpt lat="45.96584601785837" lon="12.137853574397862"><ele>240.79999999999998</ele><time>2026-04-26T08:00:33.999Z</time></trkpt><trkpt lat="45.9658919783743" lon="12.137741423144584"><ele>242.59999999999997</ele><time>2026-04-26T08:00:34.999Z</time></trkpt><trkpt lat="45.965932047023415" lon="12.137622335678882"><ele>244.4</ele><time>2026-04-26T08:00:35.999Z</time></trkpt><trkpt lat="45.96593738436993" lon="12.137489740907355"><ele>246.2</ele><time>2026-04-26T08:00:36.999Z</time></trkpt><trkpt lat="45.9659137597166" lon="12.137325270770758"><ele>248.0</ele><time>2026-04-26T08:00:37.999Z</time></trkpt><trkpt lat="45.965880619858666" lon="12.13714238058324"><ele>246.5</ele><time>2026-04-26T08:00:38.999Z</time></trkpt><trkpt lat="45.96586653857921" lon="12.136956149222122"><ele>245.0</ele><time>2026-04-26T08:00:39.999Z</time></trkpt><trkpt lat="45.965865053639334" lon="12.136748289480165"><ele>243.5</ele><time>2026-04-26T08:00:40.999Z</time></trkpt><trkpt lat="45.96585859767763" lon="12.136570055359037"><ele>242.0</ele><time>2026-04-26T08:00:41.999Z</time></trkpt><trkpt lat="45.965840222261626" lon="12.136390758913235"><ele>242.0</ele><time>2026-04-26T08:00:42.999Z</time></trkpt><trkpt lat="45.9658191160893" lon="12.136211196786356"><ele>242.0</ele><time>2026-04-26T08:00:43.999Z</time></trkpt><trkpt lat="45.965789928854925" lon="12.136023862768251"><ele>242.0</ele><time>2026-04-26T08:00:44.999Z</time></trkpt><trkpt lat="45.96576156862855" lon="12.13584158598805"><ele>242.0</ele><time>2026-04-26T08:00:45.999Z</time></trkpt><trkpt lat="45.965732643201456" lon="12.135683878854438"><ele>241.39999999999998</ele><time>2026-04-26T08:00:46.999Z</time></trkpt><trkpt lat="45.96570218760138" lon="12.135550044996886"><ele>240.79999999999998</ele><time>2026-04-26T08:00:48Z</time></trkpt><trkpt lat="45.96567180107795" lon="12.13544292744097"><ele>240.2</ele><time>2026-04-26T08:00:49Z</time></trkpt><trkpt lat="45.96564626520567" lon="12.135346092155762"><ele>239.6</ele><time>2026-04-26T08:00:50Z</time></trkpt><trkpt lat="45.965634941766346" lon="12.135147294490539"><ele>239.0</ele><time>2026-04-26T08:00:52Z</time></trkpt><trkpt lat="45.96565781963617" lon="12.13502192552059"><ele>238.0</ele><time>2026-04-26T08:00:53Z</time></trkpt><trkpt lat="45.96569923756959" lon="12.134873947551776"><ele>237.0</ele><time>2026-04-26T08:00:54Z</time></trkpt><trkpt lat="45.965754584266485" lon="12.134710586453416"><ele>236.0</ele><time>2026-04-26T08:00:55Z</time></trkpt><trkpt lat="45.96581640663487" lon="12.134537277373"><ele>235.0</ele><time>2026-04-26T08:00:56Z</time></trkpt><trkpt lat="45.965900563725725" lon="12.134376122067959"><ele>236.75</ele><time>2026-04-26T08:00:57Z</time></trkpt><trkpt lat="45.965946726557036" lon="12.13420532337929"><ele>238.5</ele><time>2026-04-26T08:00:58Z</time></trkpt><trkpt lat="45.96601297856929" lon="12.13404444996225"><ele>240.25</ele><time>2026-04-26T08:00:59Z</time></trkpt><trkpt lat="45.96607997096197" lon="12.133880062329343"><ele>242.0</ele><time>2026-04-26T08:01:00Z</time></trkpt><trkpt lat="45.96615029893488" lon="12.133710041701729"><ele>242.0</ele><time>2026-04-26T08:01:01Z</time></trkpt><trkpt lat="45.96621814310736" lon="12.133542295788668"><ele>242.0</ele><time>2026-04-26T08:01:02Z</time></trkpt><trkpt lat="45.96628595702547" lon="12.133363937722965"><ele>242.0</ele><time>2026-04-26T08:01:03Z</time></trkpt><trkpt lat="45.96636040139907" lon="12.133177320633711"><ele>242.0</ele><time>2026-04-26T08:01:04Z</time></trkpt><trkpt lat="45.96643685489139" lon="12.132989776083798"><ele>241.0</ele><time>2026-04-26T08:01:05Z</time></trkpt><trkpt lat="45.966501290198295" lon="12.132824018345532"><ele>240.0</ele><time>2026-04-26T08:01:06Z</time></trkpt><trkpt lat="45.96656528074229" lon="12.132664028283587"><ele>239.0</ele><time>2026-04-26T08:01:07Z</time></trkpt><trkpt lat="45.96662226732248" lon="12.132515135286893"><ele>238.0</ele><time>2026-04-26T08:01:08Z</time></trkpt><trkpt lat="45.96668101559381" lon="12.132376314873671"><ele>238.60000000000002</ele><time>2026-04-26T08:01:09Z</time></trkpt><trkpt lat="45.966733479734685" lon="12.132238372136861"><ele>239.20000000000002</ele><time>2026-04-26T08:01:10Z</time></trkpt><trkpt lat="45.96678486109728" lon="12.132111897327071"><ele>239.8</ele><time>2026-04-26T08:01:11Z</time></trkpt><trkpt lat="45.96682954380752" lon="12.131988669289195"><ele>240.4</ele><time>2026-04-26T08:01:12Z</time></trkpt><trkpt lat="45.96687368058675" lon="12.131883540004221"><ele>241.0</ele><time>2026-04-26T08:01:13Z</time></trkpt><trkpt lat="45.96690881704178" lon="12.131795867795976"><ele>241.0</ele><time>2026-04-26T08:01:14Z</time></trkpt><trkpt lat="45.966935273050126" lon="12.131713044140813"><ele>241.0</ele><time>2026-04-26T08:01:15Z</time></trkpt><trkpt lat="45.96699754318357" lon="12.131604169412492"><ele>241.0</ele><time>2026-04-26T08:01:17Z</time></trkpt><trkpt lat="45.96685187581162" lon="12.131399400134544"><ele>241.0</ele><time>2026-04-26T08:01:18Z</time></trkpt><trkpt lat="45.966839232274346" lon="12.1312390295487"><ele>240.75</ele><time>2026-04-26T08:01:19Z</time></trkpt><trkpt lat="45.966830845476075" lon="12.131031149194161"><ele>240.5</ele><time>2026-04-26T08:01:20Z</time></trkpt><trkpt lat="45.966815087535146" lon="12.130823037865659"><ele>240.25</ele><time>2026-04-26T08:01:21Z</time></trkpt><trkpt lat="45.96680370371887" lon="12.130621782606132"><ele>240.0</ele><time>2026-04-26T08:01:22Z</time></trkpt><trkpt lat="45.966787285095236" lon="12.130445947445265"><ele>240.0</ele><time>2026-04-26T08:01:23Z</time></trkpt><trkpt lat="45.96677269754285" lon="12.130283244648036"><ele>240.0</ele><time>2026-04-26T08:01:24Z</time></trkpt><trkpt lat="45.96675880000572" lon="12.130120436130321"><ele>240.0</ele><time>2026-04-26T08:01:25Z</time></trkpt><trkpt lat="45.96674277539715" lon="12.12994952695262"><ele>240.0</ele><time>2026-04-26T08:01:26Z</time></trkpt><trkpt lat="45.96673944188535" lon="12.129778248544982"><ele>239.8</ele><time>2026-04-26T08:01:27Z</time></trkpt><trkpt lat="45.96671369631657" lon="12.129608857393173"><ele>239.6</ele><time>2026-04-26T08:01:28Z</time></trkpt><trkpt lat="45.966712261026004" lon="12.129440387687804"><ele>239.39999999999998</ele><time>2026-04-26T08:01:29Z</time></trkpt><trkpt lat="45.96669087568759" lon="12.129319939464063"><ele>239.2</ele><time>2026-04-26T08:01:30Z</time></trkpt><trkpt lat="45.966679100289205" lon="12.12917135516397"><ele>239.0</ele><time>2026-04-26T08:01:31Z</time></trkpt><trkpt lat="45.96668243538432" lon="12.128992541783123"><ele>239.00000000000003</ele><time>2026-04-26T08:01:32Z</time></trkpt><trkpt lat="45.96665649202231" lon="12.128866277713364"><ele>239.0</ele><time>2026-04-26T08:01:33Z</time></trkpt><trkpt lat="45.96664484513374" lon="12.128736191308754"><ele>239.0</ele><time>2026-04-26T08:01:34Z</time></trkpt><trkpt lat="45.96663539078032" lon="12.128623252681903"><ele>239.0</ele><time>2026-04-26T08:01:35Z</time></trkpt><trkpt lat="45.96662962194198" lon="12.128502027996712"><ele>239.00000000000003</ele><time>2026-04-26T08:01:36Z</time></trkpt><trkpt lat="45.96661908305461" lon="12.12837190679001"><ele>239.0</ele><time>2026-04-26T08:01:37Z</time></trkpt><trkpt lat="45.96661151859846" lon="12.128259038594125"><ele>239.00000000000003</ele><time>2026-04-26T08:01:38Z</time></trkpt><trkpt lat="45.96660412353814" lon="12.128166440644799"><ele>239.0</ele><time>2026-04-26T08:01:39Z</time></trkpt><trkpt lat="45.96658914962338" lon="12.12799022207914"><ele>239.0</ele><time>2026-04-26T08:01:41Z</time></trkpt><trkpt lat="45.96658098570341" lon="12.127874165739067"><ele>239.0</ele><time>2026-04-26T08:01:43Z</time></trkpt><trkpt lat="45.96656889581307" lon="12.127768081116358"><ele>239.00000000000003</ele><time>2026-04-26T08:01:45Z</time></trkpt><trkpt lat="45.96654915194744" lon="12.127671110629548"><ele>239.0</ele><time>2026-04-26T08:01:48Z</time></trkpt><trkpt lat="45.96654526902803" lon="12.127560903524337"><ele>239.0</ele><time>2026-04-26T08:01:56.999Z</time></trkpt><trkpt lat="45.96639161450816" lon="12.127586727677683"><ele>239.0</ele><time>2026-04-26T08:01:57.999Z</time></trkpt><trkpt lat="45.96630583796111" lon="12.127596726765917"><ele>239.0</ele><time>2026-04-26T08:01:58.999Z</time></trkpt><trkpt lat="45.96618203001579" lon="12.127596545772747"><ele>239.0</ele><time>2026-04-26T08:01:59.999Z</time></trkpt><trkpt lat="45.96605155690029" lon="12.127585539031159"><ele>239.0</ele><time>2026-04-26T08:02:00.999Z</time></trkpt><trkpt lat="45.96590867936003" lon="12.127566830208409"><ele>239.0</ele><time>2026-04-26T08:02:01.999Z</time></trkpt><trkpt lat="45.9657511187691" lon="12.127532343234341"><ele>239.0</ele><time>2026-04-26T08:02:02.999Z</time></trkpt><trkpt lat="45.96558253134721" lon="12.127485054232073"><ele>238.0</ele><time>2026-04-26T08:02:03.999Z</time></trkpt><trkpt lat="45.965391062723036" lon="12.127434850151564"><ele>237.0</ele><time>2026-04-26T08:02:04.999Z</time></trkpt><trkpt lat="45.96523532639568" lon="12.127395267111329"><ele>236.0</ele><time>2026-04-26T08:02:05.999Z</time></trkpt><trkpt lat="45.965087204517246" lon="12.127350486445412"><ele>235.0</ele><time>2026-04-26T08:02:06.999Z</time></trkpt><trkpt lat="45.96494388564855" lon="12.127316569055836"><ele>234.0</ele><time>2026-04-26T08:02:07.999Z</time></trkpt><trkpt lat="45.9648158292065" lon="12.127284329918409"><ele>233.0</ele><time>2026-04-26T08:02:08.999Z</time></trkpt><trkpt lat="45.96469376672767" lon="12.127264364162027"><ele>232.0</ele><time>2026-04-26T08:02:09.999Z</time></trkpt><trkpt lat="45.96457136300042" lon="12.127240097055648"><ele>232.0</ele><time>2026-04-26T08:02:10.999Z</time></trkpt><trkpt lat="45.96443849974447" lon="12.12718439474584"><ele>232.0</ele><time>2026-04-26T08:02:11.999Z</time></trkpt><trkpt lat="45.964304630030526" lon="12.127149802288388"><ele>232.0</ele><time>2026-04-26T08:02:12.999Z</time></trkpt><trkpt lat="45.964160219631545" lon="12.127112689086001"><ele>232.0</ele><time>2026-04-26T08:02:13.999Z</time></trkpt><trkpt lat="45.96401841196524" lon="12.127076277742816"><ele>230.33333333333331</ele><time>2026-04-26T08:02:14.999Z</time></trkpt><trkpt lat="45.96389769366361" lon="12.127044276138312"><ele>228.66666666666669</ele><time>2026-04-26T08:02:15.999Z</time></trkpt><trkpt lat="45.96368449600211" lon="12.126992894112451"><ele>227.0</ele><time>2026-04-26T08:02:16.999Z</time></trkpt><trkpt lat="45.96354175046822" lon="12.126954183945749"><ele>227.0</ele><time>2026-04-26T08:02:17.999Z</time></trkpt><trkpt lat="45.963397123652165" lon="12.12691679758862"><ele>227.0</ele><time>2026-04-26T08:02:18.999Z</time></trkpt><trkpt lat="45.963250499051085" lon="12.126881271639993"><ele>227.0</ele><time>2026-04-26T08:02:19.999Z</time></trkpt><trkpt lat="45.96311416083915" lon="12.126846047214016"><ele>227.0</ele><time>2026-04-26T08:02:20.999Z</time></trkpt><trkpt lat="45.962979775936574" lon="12.126807240895802"><ele>226.5</ele><time>2026-04-26T08:02:21.999Z</time></trkpt><trkpt lat="45.96284399742532" lon="12.126768809476006"><ele>226.0</ele><time>2026-04-26T08:02:22.999Z</time></trkpt><trkpt lat="45.962711910419785" lon="12.12673730269837"><ele>225.5</ele><time>2026-04-26T08:02:23.999Z</time></trkpt><trkpt lat="45.96258683238988" lon="12.126703104789778"><ele>225.0</ele><time>2026-04-26T08:02:24.999Z</time></trkpt><trkpt lat="45.96246293819017" lon="12.126668289412326"><ele>224.75</ele><time>2026-04-26T08:02:25.999Z</time></trkpt><trkpt lat="45.96233455596192" lon="12.126633933049133"><ele>224.5</ele><time>2026-04-26T08:02:26.999Z</time></trkpt><trkpt lat="45.96220481562826" lon="12.126600906772032"><ele>224.25</ele><time>2026-04-26T08:02:27.999Z</time></trkpt><trkpt lat="45.96207344264892" lon="12.126561750629184"><ele>224.0</ele><time>2026-04-26T08:02:28.999Z</time></trkpt><trkpt lat="45.96195234410016" lon="12.126527840653248"><ele>223.75</ele><time>2026-04-26T08:02:29.999Z</time></trkpt><trkpt lat="45.96183455865976" lon="12.126494197995546"><ele>223.5</ele><time>2026-04-26T08:02:30.999Z</time></trkpt><trkpt lat="45.96171743001691" lon="12.126463277363243"><ele>223.25</ele><time>2026-04-26T08:02:31.999Z</time></trkpt><trkpt lat="45.961593513760384" lon="12.12643084966825"><ele>223.0</ele><time>2026-04-26T08:02:32.999Z</time></trkpt><trkpt lat="45.961451296572335" lon="12.126394782821183"><ele>222.0</ele><time>2026-04-26T08:02:33.999Z</time></trkpt><trkpt lat="45.96129762794021" lon="12.126357088372707"><ele>221.0</ele><time>2026-04-26T08:02:34.999Z</time></trkpt><trkpt lat="45.96114491410641" lon="12.126313482405449"><ele>220.0</ele><time>2026-04-26T08:02:35.999Z</time></trkpt><trkpt lat="45.961006103248295" lon="12.126278152906174"><ele>220.0</ele><time>2026-04-26T08:02:36.999Z</time></trkpt><trkpt lat="45.96087159412478" lon="12.126242194308901"><ele>220.0</ele><time>2026-04-26T08:02:37.999Z</time></trkpt><trkpt lat="45.9607363128556" lon="12.126199885360831"><ele>220.0</ele><time>2026-04-26T08:02:38.999Z</time></trkpt><trkpt lat="45.960608233130785" lon="12.126166447015965"><ele>220.0</ele><time>2026-04-26T08:02:39.999Z</time></trkpt><trkpt lat="45.960484021879665" lon="12.126128073023095"><ele>219.0</ele><time>2026-04-26T08:02:40.999Z</time></trkpt><trkpt lat="45.96036542504687" lon="12.126079804505117"><ele>218.0</ele><time>2026-04-26T08:02:41.999Z</time></trkpt><trkpt lat="45.96024614078812" lon="12.126072080034868"><ele>217.0</ele><time>2026-04-26T08:02:42.999Z</time></trkpt><trkpt lat="45.96015331082135" lon="12.126037889159676"><ele>216.0</ele><time>2026-04-26T08:02:43.999Z</time></trkpt><trkpt lat="45.96006475038805" lon="12.126009496090832"><ele>215.0</ele><time>2026-04-26T08:02:44.999Z</time></trkpt><trkpt lat="45.9599728929167" lon="12.12597781708431"><ele>215.0</ele><time>2026-04-26T08:02:45.999Z</time></trkpt><trkpt lat="45.95986925556783" lon="12.12594618493993"><ele>215.0</ele><time>2026-04-26T08:02:46.999Z</time></trkpt><trkpt lat="45.9597911069225" lon="12.125900170569281"><ele>215.0</ele><time>2026-04-26T08:02:47.999Z</time></trkpt><trkpt lat="45.95969263913549" lon="12.125809872646139"><ele>215.0</ele><time>2026-04-26T08:02:49.999Z</time></trkpt><trkpt lat="45.959621333609775" lon="12.125724180920303"><ele>215.0</ele><time>2026-04-26T08:02:51.999Z</time></trkpt><trkpt lat="45.959523360362304" lon="12.125612968938706"><ele>214.75</ele><time>2026-04-26T08:02:54Z</time></trkpt><trkpt lat="45.959480705229204" lon="12.125438945234523"><ele>214.5</ele><time>2026-04-26T08:02:55Z</time></trkpt><trkpt lat="45.959410653118745" lon="12.125270955299124"><ele>214.25</ele><time>2026-04-26T08:02:56Z</time></trkpt><trkpt lat="45.95933843435932" lon="12.12508152907145"><ele>214.0</ele><time>2026-04-26T08:02:57Z</time></trkpt><trkpt lat="45.95925920180351" lon="12.124893016517218"><ele>213.33333333333331</ele><time>2026-04-26T08:02:58Z</time></trkpt><trkpt lat="45.959149116311025" lon="12.124675528950988"><ele>212.66666666666669</ele><time>2026-04-26T08:02:59Z</time></trkpt><trkpt lat="45.95904727225034" lon="12.124493640952643"><ele>212.0</ele><time>2026-04-26T08:03:00Z</time></trkpt><trkpt lat="45.95895106737074" lon="12.12433732200005"><ele>212.0</ele><time>2026-04-26T08:03:01Z</time></trkpt><trkpt lat="45.95885306592771" lon="12.12419443296552"><ele>212.0</ele><time>2026-04-26T08:03:02Z</time></trkpt><trkpt lat="45.95875173291979" lon="12.124064433363287"><ele>212.0</ele><time>2026-04-26T08:03:03Z</time></trkpt><trkpt lat="45.9586452232486" lon="12.123925162731174"><ele>212.0</ele><time>2026-04-26T08:03:04Z</time></trkpt><trkpt lat="45.95853234468294" lon="12.123797445627991"><ele>211.0</ele><time>2026-04-26T08:03:05Z</time></trkpt><trkpt lat="45.95842418992898" lon="12.123687924680828"><ele>210.0</ele><time>2026-04-26T08:03:06Z</time></trkpt><trkpt lat="45.95834759941119" lon="12.123601759110391"><ele>209.0</ele><time>2026-04-26T08:03:07Z</time></trkpt><trkpt lat="45.958210612680936" lon="12.123482177625473"><ele>208.0</ele><time>2026-04-26T08:03:08Z</time></trkpt><trkpt lat="45.95808843290381" lon="12.123368774775445"><ele>207.75</ele><time>2026-04-26T08:03:09Z</time></trkpt><trkpt lat="45.95797561909685" lon="12.123261640513531"><ele>207.5</ele><time>2026-04-26T08:03:10Z</time></trkpt><trkpt lat="45.957901765335706" lon="12.123165874731262"><ele>207.25</ele><time>2026-04-26T08:03:11Z</time></trkpt><trkpt lat="45.95777702155162" lon="12.123073190640675"><ele>207.0</ele><time>2026-04-26T08:03:12Z</time></trkpt><trkpt lat="45.957668423836346" lon="12.122973621079923"><ele>206.0</ele><time>2026-04-26T08:03:13Z</time></trkpt><trkpt lat="45.95754747382495" lon="12.122861430892259"><ele>205.0</ele><time>2026-04-26T08:03:14Z</time></trkpt><trkpt lat="45.95741697585808" lon="12.12273693827644"><ele>204.0</ele><time>2026-04-26T08:03:15Z</time></trkpt><trkpt lat="45.95727861366234" lon="12.122608239461494"><ele>203.66666666666669</ele><time>2026-04-26T08:03:16Z</time></trkpt><trkpt lat="45.95712984700581" lon="12.122473449824207"><ele>203.33333333333334</ele><time>2026-04-26T08:03:17Z</time></trkpt><trkpt lat="45.956994633260905" lon="12.122345070662004"><ele>203.0</ele><time>2026-04-26T08:03:18Z</time></trkpt><trkpt lat="45.956867659146425" lon="12.122225688536636"><ele>203.0</ele><time>2026-04-26T08:03:19Z</time></trkpt><trkpt lat="45.95673903396522" lon="12.122112358983513"><ele>203.0</ele><time>2026-04-26T08:03:20Z</time></trkpt><trkpt lat="45.95661513279544" lon="12.121998028848935"><ele>203.0</ele><time>2026-04-26T08:03:21Z</time></trkpt><trkpt lat="45.956484750354" lon="12.121877487453176"><ele>203.0</ele><time>2026-04-26T08:03:22Z</time></trkpt><trkpt lat="45.956347572273295" lon="12.121753890505726"><ele>203.0</ele><time>2026-04-26T08:03:23Z</time></trkpt><trkpt lat="45.956212869612514" lon="12.121623809639734"><ele>203.0</ele><time>2026-04-26T08:03:24Z</time></trkpt><trkpt lat="45.95609588289379" lon="12.121510979779368"><ele>203.0</ele><time>2026-04-26T08:03:25Z</time></trkpt><trkpt lat="45.95596142537208" lon="12.121391880955276"><ele>203.0</ele><time>2026-04-26T08:03:26Z</time></trkpt><trkpt lat="45.95582543608008" lon="12.121266632925717"><ele>203.0</ele><time>2026-04-26T08:03:27Z</time></trkpt><trkpt lat="45.95569487805119" lon="12.121138255614586"><ele>201.66666666666669</ele><time>2026-04-26T08:03:28Z</time></trkpt><trkpt lat="45.95556590912989" lon="12.12102023592091"><ele>200.33333333333331</ele><time>2026-04-26T08:03:29Z</time></trkpt><trkpt lat="45.955439542857874" lon="12.12090831967469"><ele>199.0</ele><time>2026-04-26T08:03:30Z</time></trkpt><trkpt lat="45.95530778196011" lon="12.120787051883969"><ele>199.33333333333331</ele><time>2026-04-26T08:03:31Z</time></trkpt><trkpt lat="45.95518651321198" lon="12.12067511200969"><ele>199.66666666666669</ele><time>2026-04-26T08:03:32Z</time></trkpt><trkpt lat="45.955058988434544" lon="12.120551275023592"><ele>200.0</ele><time>2026-04-26T08:03:33Z</time></trkpt><trkpt lat="45.95493111181527" lon="12.12042485000264"><ele>199.25</ele><time>2026-04-26T08:03:34Z</time></trkpt><trkpt lat="45.95481742730325" lon="12.120304933354227"><ele>198.5</ele><time>2026-04-26T08:03:35Z</time></trkpt><trkpt lat="45.95470977301176" lon="12.120191586884868"><ele>197.75</ele><time>2026-04-26T08:03:36Z</time></trkpt><trkpt lat="45.95460521819764" lon="12.120080128417051"><ele>197.0</ele><time>2026-04-26T08:03:37Z</time></trkpt><trkpt lat="45.95449957987556" lon="12.119969751754159"><ele>197.75</ele><time>2026-04-26T08:03:38Z</time></trkpt><trkpt lat="45.95438462482295" lon="12.119854521932618"><ele>198.5</ele><time>2026-04-26T08:03:39Z</time></trkpt><trkpt lat="45.95427849988702" lon="12.119745823931412"><ele>199.25</ele><time>2026-04-26T08:03:40Z</time></trkpt><trkpt lat="45.9541763149938" lon="12.119645028850478"><ele>200.0</ele><time>2026-04-26T08:03:41Z</time></trkpt><trkpt lat="45.9540845547417" lon="12.119541962956296"><ele>200.0</ele><time>2026-04-26T08:03:42Z</time></trkpt><trkpt lat="45.9539869612193" lon="12.11943167603558"><ele>200.0</ele><time>2026-04-26T08:03:43Z</time></trkpt><trkpt lat="45.95388713239308" lon="12.119277765584881"><ele>200.0</ele><time>2026-04-26T08:03:44Z</time></trkpt><trkpt lat="45.953797128729676" lon="12.119163562659232"><ele>200.0</ele><time>2026-04-26T08:03:45Z</time></trkpt><trkpt lat="45.953713767978655" lon="12.119031635287394"><ele>201.25</ele><time>2026-04-26T08:03:46Z</time></trkpt><trkpt lat="45.95364020475865" lon="12.118862320623393"><ele>202.5</ele><time>2026-04-26T08:03:47Z</time></trkpt><trkpt lat="45.95357527723446" lon="12.118705954124847"><ele>203.75</ele><time>2026-04-26T08:03:48Z</time></trkpt><trkpt lat="45.95352135078606" lon="12.118559734030075"><ele>205.0</ele><time>2026-04-26T08:03:49Z</time></trkpt><trkpt lat="45.95345337252884" lon="12.11844351227856"><ele>205.0</ele><time>2026-04-26T08:03:50Z</time></trkpt><trkpt lat="45.953379600331" lon="12.118338858091613"><ele>205.0</ele><time>2026-04-26T08:03:51Z</time></trkpt><trkpt lat="45.95329374208126" lon="12.118237027386959"><ele>205.0</ele><time>2026-04-26T08:03:52Z</time></trkpt><trkpt lat="45.953198252679485" lon="12.118129538870676"><ele>205.0</ele><time>2026-04-26T08:03:53Z</time></trkpt><trkpt lat="45.95311630655542" lon="12.118023751411956"><ele>205.0</ele><time>2026-04-26T08:03:54Z</time></trkpt><trkpt lat="45.953046989747364" lon="12.117901347171033"><ele>202.8</ele><time>2026-04-26T08:03:55Z</time></trkpt><trkpt lat="45.95298740272621" lon="12.117766702029037"><ele>200.6</ele><time>2026-04-26T08:03:56Z</time></trkpt><trkpt lat="45.95293086651321" lon="12.117633406426796"><ele>198.39999999999998</ele><time>2026-04-26T08:03:57Z</time></trkpt><trkpt lat="45.95286613860376" lon="12.117503740145878"><ele>196.2</ele><time>2026-04-26T08:03:58Z</time></trkpt><trkpt lat="45.952797701180565" lon="12.11737254693553"><ele>194.0</ele><time>2026-04-26T08:03:59Z</time></trkpt><trkpt lat="45.95272891638822" lon="12.117242230188843"><ele>194.0</ele><time>2026-04-26T08:04:00Z</time></trkpt><trkpt lat="45.95266355403545" lon="12.117104158419941"><ele>194.0</ele><time>2026-04-26T08:04:01Z</time></trkpt><trkpt lat="45.95258995760464" lon="12.11697022948648"><ele>194.0</ele><time>2026-04-26T08:04:02Z</time></trkpt><trkpt lat="45.95252559878174" lon="12.116827568016342"><ele>194.0</ele><time>2026-04-26T08:04:03Z</time></trkpt><trkpt lat="45.95245462163591" lon="12.116688227099907"><ele>194.5</ele><time>2026-04-26T08:04:04Z</time></trkpt><trkpt lat="45.952380731462874" lon="12.116547021552966"><ele>195.0</ele><time>2026-04-26T08:04:05Z</time></trkpt><trkpt lat="45.9523057726189" lon="12.116402979560394"><ele>195.5</ele><time>2026-04-26T08:04:06Z</time></trkpt><trkpt lat="45.952232945831085" lon="12.116261315786618"><ele>196.0</ele><time>2026-04-26T08:04:07Z</time></trkpt><trkpt lat="45.95217030843063" lon="12.116107932432017"><ele>196.0</ele><time>2026-04-26T08:04:08Z</time></trkpt><trkpt lat="45.952104637772315" lon="12.11596107930458"><ele>196.0</ele><time>2026-04-26T08:04:09Z</time></trkpt><trkpt lat="45.952047172659945" lon="12.115804666718153"><ele>196.0</ele><time>2026-04-26T08:04:10Z</time></trkpt><trkpt lat="45.951997923094396" lon="12.11564788678788"><ele>196.0</ele><time>2026-04-26T08:04:11Z</time></trkpt><trkpt lat="45.95195387725497" lon="12.115486099269464"><ele>196.75</ele><time>2026-04-26T08:04:12Z</time></trkpt><trkpt lat="45.9519122986789" lon="12.115315451970602"><ele>197.5</ele><time>2026-04-26T08:04:13Z</time></trkpt><trkpt lat="45.95187782585962" lon="12.11513904959526"><ele>198.25</ele><time>2026-04-26T08:04:14Z</time></trkpt><trkpt lat="45.95185306535851" lon="12.11496451636849"><ele>199.0</ele><time>2026-04-26T08:04:15Z</time></trkpt><trkpt lat="45.95183489122318" lon="12.114782673662967"><ele>199.75</ele><time>2026-04-26T08:04:16Z</time></trkpt><trkpt lat="45.951823729961546" lon="12.11459416291848"><ele>200.5</ele><time>2026-04-26T08:04:17Z</time></trkpt><trkpt lat="45.95181159842844" lon="12.11438858807041"><ele>201.25</ele><time>2026-04-26T08:04:18Z</time></trkpt><trkpt lat="45.951796004362876" lon="12.114172796853994"><ele>202.0</ele><time>2026-04-26T08:04:19Z</time></trkpt><trkpt lat="45.95177408867133" lon="12.113948795387655"><ele>203.66666666666666</ele><time>2026-04-26T08:04:20Z</time></trkpt><trkpt lat="45.95175373720599" lon="12.113677220785089"><ele>205.33333333333331</ele><time>2026-04-26T08:04:21Z</time></trkpt><trkpt lat="45.95173683021797" lon="12.113394209706515"><ele>207.0</ele><time>2026-04-26T08:04:22Z</time></trkpt><trkpt lat="45.95172271093201" lon="12.113159447824243"><ele>206.75</ele><time>2026-04-26T08:04:22.999Z</time></trkpt><trkpt lat="45.951711076890945" lon="12.11294894584798"><ele>206.5</ele><time>2026-04-26T08:04:23.999Z</time></trkpt><trkpt lat="45.951701487839685" lon="12.112764842493833"><ele>206.25</ele><time>2026-04-26T08:04:24.999Z</time></trkpt><trkpt lat="45.9516899641314" lon="12.112573946683764"><ele>206.0</ele><time>2026-04-26T08:04:25.999Z</time></trkpt><trkpt lat="45.95167559071102" lon="12.112370762816717"><ele>206.75</ele><time>2026-04-26T08:04:26.999Z</time></trkpt><trkpt lat="45.95165833724372" lon="12.112159196688793"><ele>207.5</ele><time>2026-04-26T08:04:27.999Z</time></trkpt><trkpt lat="45.95164141351362" lon="12.111944331628052"><ele>208.25</ele><time>2026-04-26T08:04:28.999Z</time></trkpt><trkpt lat="45.95161912366855" lon="12.111740718925933"><ele>209.0</ele><time>2026-04-26T08:04:29.999Z</time></trkpt><trkpt lat="45.951585423071876" lon="12.111532697471736"><ele>210.33333333333334</ele><time>2026-04-26T08:04:30.999Z</time></trkpt><trkpt lat="45.951536387284364" lon="12.111336044940277"><ele>211.66666666666669</ele><time>2026-04-26T08:04:31.999Z</time></trkpt><trkpt lat="45.95146898053078" lon="12.111134864120945"><ele>213.0</ele><time>2026-04-26T08:04:32.999Z</time></trkpt><trkpt lat="45.951379563308606" lon="12.110929164893053"><ele>214.66666666666669</ele><time>2026-04-26T08:04:33.999Z</time></trkpt><trkpt lat="45.951280238977276" lon="12.110696599189914"><ele>216.33333333333334</ele><time>2026-04-26T08:04:34.999Z</time></trkpt><trkpt lat="45.95119180566078" lon="12.110501091476003"><ele>218.0</ele><time>2026-04-26T08:04:35.999Z</time></trkpt><trkpt lat="45.9511070770503" lon="12.110311639208033"><ele>218.0</ele><time>2026-04-26T08:04:36.999Z</time></trkpt><trkpt lat="45.95101996294666" lon="12.110103797465799"><ele>218.0</ele><time>2026-04-26T08:04:37.999Z</time></trkpt><trkpt lat="45.950933071782785" lon="12.10990523671575"><ele>218.0</ele><time>2026-04-26T08:04:38.999Z</time></trkpt><trkpt lat="45.95085239284633" lon="12.109731302794271"><ele>218.0</ele><time>2026-04-26T08:04:39.999Z</time></trkpt><trkpt lat="45.95077878928143" lon="12.109570323047057"><ele>218.0</ele><time>2026-04-26T08:04:40.999Z</time></trkpt><trkpt lat="45.95070146627835" lon="12.109400845489048"><ele>218.0</ele><time>2026-04-26T08:04:41.999Z</time></trkpt><trkpt lat="45.95061069313014" lon="12.109228444165751"><ele>218.0</ele><time>2026-04-26T08:04:42.999Z</time></trkpt><trkpt lat="45.950499351269876" lon="12.10905994846506"><ele>218.0</ele><time>2026-04-26T08:04:43.999Z</time></trkpt><trkpt lat="45.950368473750814" lon="12.108900750141558"><ele>218.0</ele><time>2026-04-26T08:04:44.999Z</time></trkpt><trkpt lat="45.950226296161425" lon="12.108722206193253"><ele>218.0</ele><time>2026-04-26T08:04:45.999Z</time></trkpt><trkpt lat="45.95006986193654" lon="12.108547829953576"><ele>218.0</ele><time>2026-04-26T08:04:46.999Z</time></trkpt><trkpt lat="45.949905469511" lon="12.10837201744811"><ele>218.0</ele><time>2026-04-26T08:04:47.999Z</time></trkpt><trkpt lat="45.94976076378539" lon="12.108201132170962"><ele>218.0</ele><time>2026-04-26T08:04:48.999Z</time></trkpt><trkpt lat="45.949604914036016" lon="12.108027365455516"><ele>218.0</ele><time>2026-04-26T08:04:49.999Z</time></trkpt><trkpt lat="45.949468484632405" lon="12.10786715374278"><ele>218.0</ele><time>2026-04-26T08:04:50.999Z</time></trkpt><trkpt lat="45.94934140721952" lon="12.107719106537413"><ele>218.0</ele><time>2026-04-26T08:04:51.999Z</time></trkpt><trkpt lat="45.949208278684495" lon="12.107566399141321"><ele>218.0</ele><time>2026-04-26T08:04:52.999Z</time></trkpt><trkpt lat="45.949072513607796" lon="12.107415783945296"><ele>218.0</ele><time>2026-04-26T08:04:53.999Z</time></trkpt><trkpt lat="45.94892669434241" lon="12.107247413278323"><ele>218.0</ele><time>2026-04-26T08:04:54.999Z</time></trkpt><trkpt lat="45.94877687610203" lon="12.107074607497031"><ele>220.33333333333334</ele><time>2026-04-26T08:04:55.999Z</time></trkpt><trkpt lat="45.94864148877237" lon="12.106919494697802"><ele>222.66666666666669</ele><time>2026-04-26T08:04:56.999Z</time></trkpt><trkpt lat="45.94851390401308" lon="12.106773668097928"><ele>225.0</ele><time>2026-04-26T08:04:57.999Z</time></trkpt><trkpt lat="45.94838776274958" lon="12.106614788614106"><ele>226.0</ele><time>2026-04-26T08:04:58.999Z</time></trkpt><trkpt lat="45.94827306216359" lon="12.106455323292662"><ele>227.0</ele><time>2026-04-26T08:05:00Z</time></trkpt><trkpt lat="45.94815355451762" lon="12.106246427777426"><ele>228.0</ele><time>2026-04-26T08:05:01Z</time></trkpt><trkpt lat="45.94803645217085" lon="12.106003200910937"><ele>228.0</ele><time>2026-04-26T08:05:02Z</time></trkpt><trkpt lat="45.947916390441684" lon="12.105757480066078"><ele>228.0</ele><time>2026-04-26T08:05:03Z</time></trkpt><trkpt lat="45.94780313681726" lon="12.105539442913706"><ele>228.0</ele><time>2026-04-26T08:05:04Z</time></trkpt><trkpt lat="45.94769296926559" lon="12.105325367033318"><ele>229.66666666666669</ele><time>2026-04-26T08:05:05Z</time></trkpt><trkpt lat="45.9475816156467" lon="12.105101793805726"><ele>231.33333333333334</ele><time>2026-04-26T08:05:06Z</time></trkpt><trkpt lat="45.947484039833526" lon="12.104897603825746"><ele>233.0</ele><time>2026-04-26T08:05:07Z</time></trkpt><trkpt lat="45.94739611041052" lon="12.104719188362521"><ele>234.0</ele><time>2026-04-26T08:05:08Z</time></trkpt><trkpt lat="45.947307820792595" lon="12.104553064936336"><ele>235.0</ele><time>2026-04-26T08:05:09Z</time></trkpt><trkpt lat="45.94722101568481" lon="12.104363814105023"><ele>236.0</ele><time>2026-04-26T08:05:10Z</time></trkpt><trkpt lat="45.94713409319625" lon="12.104161048420057"><ele>237.66666666666669</ele><time>2026-04-26T08:05:11Z</time></trkpt><trkpt lat="45.947045509622406" lon="12.103941024632022"><ele>239.33333333333331</ele><time>2026-04-26T08:05:12Z</time></trkpt><trkpt lat="45.946965489873016" lon="12.10369149573089"><ele>241.0</ele><time>2026-04-26T08:05:13Z</time></trkpt><trkpt lat="45.94688745653502" lon="12.103425483674801"><ele>241.66666666666666</ele><time>2026-04-26T08:05:14Z</time></trkpt><trkpt lat="45.9468183191786" lon="12.103178135744988"><ele>242.33333333333331</ele><time>2026-04-26T08:05:15Z</time></trkpt><trkpt lat="45.94675001450949" lon="12.102942992890677"><ele>243.0</ele><time>2026-04-26T08:05:16Z</time></trkpt><trkpt lat="45.946678380295396" lon="12.102698676279203"><ele>243.0</ele><time>2026-04-26T08:05:17Z</time></trkpt><trkpt lat="45.94659900976315" lon="12.102436513915736"><ele>243.0</ele><time>2026-04-26T08:05:18Z</time></trkpt><trkpt lat="45.946531030906705" lon="12.102200980143019"><ele>243.0</ele><time>2026-04-26T08:05:19Z</time></trkpt><trkpt lat="45.946462707003136" lon="12.10196469988288"><ele>244.0</ele><time>2026-04-26T08:05:20Z</time></trkpt><trkpt lat="45.94639431524026" lon="12.101732143565561"><ele>245.0</ele><time>2026-04-26T08:05:21Z</time></trkpt><trkpt lat="45.94633019597624" lon="12.1015226601317"><ele>246.0</ele><time>2026-04-26T08:05:22Z</time></trkpt><trkpt lat="45.94626626124092" lon="12.101310279576612"><ele>247.66666666666669</ele><time>2026-04-26T08:05:23Z</time></trkpt><trkpt lat="45.946205563440934" lon="12.101100706055"><ele>249.33333333333334</ele><time>2026-04-26T08:05:24Z</time></trkpt><trkpt lat="45.94614613053872" lon="12.100892092273506"><ele>251.0</ele><time>2026-04-26T08:05:25Z</time></trkpt><trkpt lat="45.94608558805257" lon="12.100682977338224"><ele>253.0</ele><time>2026-04-26T08:05:26Z</time></trkpt><trkpt lat="45.94602075338648" lon="12.100480597291323"><ele>255.0</ele><time>2026-04-26T08:05:27Z</time></trkpt><trkpt lat="45.94595773580714" lon="12.100259408629123"><ele>257.0</ele><time>2026-04-26T08:05:28Z</time></trkpt><trkpt lat="45.94589113424536" lon="12.100047738127953"><ele>256.33333333333337</ele><time>2026-04-26T08:05:29Z</time></trkpt><trkpt lat="45.94582649356629" lon="12.099830462976165"><ele>255.66666666666669</ele><time>2026-04-26T08:05:30Z</time></trkpt><trkpt lat="45.94576370407738" lon="12.099609465559928"><ele>255.0</ele><time>2026-04-26T08:05:31Z</time></trkpt><trkpt lat="45.94570137382664" lon="12.09939824829419"><ele>255.0</ele><time>2026-04-26T08:05:32Z</time></trkpt><trkpt lat="45.94563077521486" lon="12.099178137266518"><ele>255.0</ele><time>2026-04-26T08:05:33Z</time></trkpt><trkpt lat="45.9455607516725" lon="12.098938427635611"><ele>255.0</ele><time>2026-04-26T08:05:34Z</time></trkpt><trkpt lat="45.94548403099" lon="12.098687453948875"><ele>256.3333333333333</ele><time>2026-04-26T08:05:35Z</time></trkpt><trkpt lat="45.945412197370274" lon="12.09842467755133"><ele>257.66666666666663</ele><time>2026-04-26T08:05:36Z</time></trkpt><trkpt lat="45.94534486212183" lon="12.09818175302091"><ele>259.0</ele><time>2026-04-26T08:05:37Z</time></trkpt><trkpt lat="45.94526924199832" lon="12.097936395571093"><ele>260.66666666666663</ele><time>2026-04-26T08:05:38Z</time></trkpt><trkpt lat="45.94519669265772" lon="12.097690780698748"><ele>262.3333333333333</ele><time>2026-04-26T08:05:39Z</time></trkpt><trkpt lat="45.94513511480232" lon="12.097471055719396"><ele>264.0</ele><time>2026-04-26T08:05:40Z</time></trkpt><trkpt lat="45.94507777442488" lon="12.097272673653917"><ele>263.5</ele><time>2026-04-26T08:05:41Z</time></trkpt><trkpt lat="45.94501971459723" lon="12.097079681711618"><ele>263.0</ele><time>2026-04-26T08:05:42Z</time></trkpt><trkpt lat="45.94495898266126" lon="12.096882922246763"><ele>262.5</ele><time>2026-04-26T08:05:43Z</time></trkpt><trkpt lat="45.94489892546559" lon="12.096680089314347"><ele>262.0</ele><time>2026-04-26T08:05:44Z</time></trkpt><trkpt lat="45.9448394352596" lon="12.096478919046564"><ele>262.0</ele><time>2026-04-26T08:05:45Z</time></trkpt><trkpt lat="45.94477491394102" lon="12.096255809807188"><ele>262.0</ele><time>2026-04-26T08:05:46Z</time></trkpt><trkpt lat="45.94470806102109" lon="12.096037626741529"><ele>262.0</ele><time>2026-04-26T08:05:47Z</time></trkpt><trkpt lat="45.94465025516242" lon="12.09584307486488"><ele>262.25</ele><time>2026-04-26T08:05:48Z</time></trkpt><trkpt lat="45.9445939259687" lon="12.095661617871567"><ele>262.5</ele><time>2026-04-26T08:05:49Z</time></trkpt><trkpt lat="45.944538434152165" lon="12.095469851902202"><ele>262.75</ele><time>2026-04-26T08:05:50Z</time></trkpt><trkpt lat="45.94448663720936" lon="12.095286859058902"><ele>263.0</ele><time>2026-04-26T08:05:51Z</time></trkpt><trkpt lat="45.94443215595262" lon="12.095101332731085"><ele>263.0</ele><time>2026-04-26T08:05:52Z</time></trkpt><trkpt lat="45.944395303115485" lon="12.09491965952869"><ele>263.0</ele><time>2026-04-26T08:05:53Z</time></trkpt><trkpt lat="45.944373891218746" lon="12.09473222015596"><ele>263.0</ele><time>2026-04-26T08:05:54Z</time></trkpt><trkpt lat="45.944369033012805" lon="12.09455952935682"><ele>263.0</ele><time>2026-04-26T08:05:55Z</time></trkpt><trkpt lat="45.944369298689786" lon="12.094375527108541"><ele>263.0</ele><time>2026-04-26T08:05:56Z</time></trkpt><trkpt lat="45.94437397659033" lon="12.094199358654647"><ele>263.0</ele><time>2026-04-26T08:05:57Z</time></trkpt><trkpt lat="45.944386415644985" lon="12.094042783963252"><ele>263.0</ele><time>2026-04-26T08:05:58Z</time></trkpt><trkpt lat="45.94437528231975" lon="12.093896095967994"><ele>263.0</ele><time>2026-04-26T08:05:59Z</time></trkpt><trkpt lat="45.94435063229747" lon="12.093764232188793"><ele>263.0</ele><time>2026-04-26T08:06:00Z</time></trkpt><trkpt lat="45.94430449893585" lon="12.09364275566771"><ele>263.25</ele><time>2026-04-26T08:06:01Z</time></trkpt><trkpt lat="45.94424168042705" lon="12.09353670797848"><ele>263.5</ele><time>2026-04-26T08:06:02Z</time></trkpt><trkpt lat="45.944157202485" lon="12.093438044941013"><ele>263.75</ele><time>2026-04-26T08:06:03Z</time></trkpt><trkpt lat="45.944048935245405" lon="12.093345440536648"><ele>264.0</ele><time>2026-04-26T08:06:04Z</time></trkpt><trkpt lat="45.943947913566205" lon="12.093241468540366"><ele>262.75</ele><time>2026-04-26T08:06:05Z</time></trkpt><trkpt lat="45.9438579130002" lon="12.093132087738681"><ele>261.5</ele><time>2026-04-26T08:06:06Z</time></trkpt><trkpt lat="45.943808532120244" lon="12.09300862242918"><ele>260.25</ele><time>2026-04-26T08:06:07Z</time></trkpt><trkpt lat="45.94370328428883" lon="12.092884386857465"><ele>259.0</ele><time>2026-04-26T08:06:08Z</time></trkpt><trkpt lat="45.94361752199199" lon="12.092736096533882"><ele>259.0</ele><time>2026-04-26T08:06:09Z</time></trkpt><trkpt lat="45.94353020281148" lon="12.092575431238041"><ele>259.0</ele><time>2026-04-26T08:06:10Z</time></trkpt><trkpt lat="45.94344925496279" lon="12.09243203759807"><ele>259.0</ele><time>2026-04-26T08:06:11Z</time></trkpt><trkpt lat="45.94336911838416" lon="12.092283999626746"><ele>259.0</ele><time>2026-04-26T08:06:12Z</time></trkpt><trkpt lat="45.943270074650464" lon="12.092116049132727"><ele>259.3333333333333</ele><time>2026-04-26T08:06:13Z</time></trkpt><trkpt lat="45.94314295318723" lon="12.09193236243197"><ele>259.6666666666667</ele><time>2026-04-26T08:06:14Z</time></trkpt><trkpt lat="45.943020315784395" lon="12.091736615880956"><ele>260.0</ele><time>2026-04-26T08:06:15Z</time></trkpt><trkpt lat="45.94291915870647" lon="12.091574864350454"><ele>260.5</ele><time>2026-04-26T08:06:16Z</time></trkpt><trkpt lat="45.94282012491406" lon="12.091421279450262"><ele>261.0</ele><time>2026-04-26T08:06:17Z</time></trkpt><trkpt lat="45.94272297966133" lon="12.091268393408097"><ele>261.5</ele><time>2026-04-26T08:06:18Z</time></trkpt><trkpt lat="45.94263696637457" lon="12.091130580795117"><ele>262.0</ele><time>2026-04-26T08:06:19Z</time></trkpt><trkpt lat="45.942553137866405" lon="12.091004582818938"><ele>261.8</ele><time>2026-04-26T08:06:19.999Z</time></trkpt><trkpt lat="45.942477837179744" lon="12.090888646088063"><ele>261.6</ele><time>2026-04-26T08:06:20.999Z</time></trkpt><trkpt lat="45.94241305710279" lon="12.090786459987873"><ele>261.40000000000003</ele><time>2026-04-26T08:06:21.999Z</time></trkpt><trkpt lat="45.942343431788366" lon="12.090677275927806"><ele>261.2</ele><time>2026-04-26T08:06:22.999Z</time></trkpt><trkpt lat="45.94226387759618" lon="12.090538511649008"><ele>261.0</ele><time>2026-04-26T08:06:23.999Z</time></trkpt><trkpt lat="45.94216678438727" lon="12.090391243712606"><ele>261.0</ele><time>2026-04-26T08:06:24.999Z</time></trkpt><trkpt lat="45.94206731396604" lon="12.090226676713915"><ele>261.0</ele><time>2026-04-26T08:06:25.999Z</time></trkpt><trkpt lat="45.94196711475021" lon="12.09006217282136"><ele>261.0</ele><time>2026-04-26T08:06:26.999Z</time></trkpt><trkpt lat="45.94187351583973" lon="12.089925945217665"><ele>261.0</ele><time>2026-04-26T08:06:27.999Z</time></trkpt><trkpt lat="45.94178648653189" lon="12.089752738078552"><ele>261.5</ele><time>2026-04-26T08:06:28.999Z</time></trkpt><trkpt lat="45.94169970813727" lon="12.089559359194284"><ele>262.0</ele><time>2026-04-26T08:06:29.999Z</time></trkpt><trkpt lat="45.94161633455199" lon="12.089393409702321"><ele>262.5</ele><time>2026-04-26T08:06:30.999Z</time></trkpt><trkpt lat="45.94154343732575" lon="12.089251644913979"><ele>263.0</ele><time>2026-04-26T08:06:31.999Z</time></trkpt><trkpt lat="45.941428547624845" lon="12.089114175409987"><ele>263.75</ele><time>2026-04-26T08:06:32.999Z</time></trkpt><trkpt lat="45.941350272141335" lon="12.08898504285783"><ele>264.5</ele><time>2026-04-26T08:06:33.999Z</time></trkpt><trkpt lat="45.941240282147824" lon="12.088850757461314"><ele>265.25</ele><time>2026-04-26T08:06:34.999Z</time></trkpt><trkpt lat="45.941141678404236" lon="12.08871664618374"><ele>266.0</ele><time>2026-04-26T08:06:35.999Z</time></trkpt><trkpt lat="45.9410529846185" lon="12.088572175283616"><ele>266.0</ele><time>2026-04-26T08:06:36.999Z</time></trkpt><trkpt lat="45.9409646640611" lon="12.08840841274003"><ele>266.0</ele><time>2026-04-26T08:06:37.999Z</time></trkpt><trkpt lat="45.94088745823169" lon="12.088242499514367"><ele>266.0</ele><time>2026-04-26T08:06:38.999Z</time></trkpt><trkpt lat="45.94081489582406" lon="12.088092643783577"><ele>266.0</ele><time>2026-04-26T08:06:39.999Z</time></trkpt><trkpt lat="45.940738969768866" lon="12.08793519803571"><ele>265.75</ele><time>2026-04-26T08:06:40.999Z</time></trkpt><trkpt lat="45.94065978495478" lon="12.08775387868951"><ele>265.5</ele><time>2026-04-26T08:06:41.999Z</time></trkpt><trkpt lat="45.94058741535632" lon="12.087560797659464"><ele>265.25</ele><time>2026-04-26T08:06:42.999Z</time></trkpt><trkpt lat="45.94054416859041" lon="12.087381142905569"><ele>265.0</ele><time>2026-04-26T08:06:43.999Z</time></trkpt><trkpt lat="45.94047246513332" lon="12.087238554031472"><ele>265.75</ele><time>2026-04-26T08:06:44.999Z</time></trkpt><trkpt lat="45.94041021403556" lon="12.087089227448391"><ele>266.5</ele><time>2026-04-26T08:06:45.999Z</time></trkpt><trkpt lat="45.940343885241" lon="12.086924923386588"><ele>267.25</ele><time>2026-04-26T08:06:46.999Z</time></trkpt><trkpt lat="45.94028370956203" lon="12.086778200226357"><ele>268.0</ele><time>2026-04-26T08:06:47.999Z</time></trkpt><trkpt lat="45.94022846709341" lon="12.08664780533871"><ele>268.25</ele><time>2026-04-26T08:06:48.999Z</time></trkpt><trkpt lat="45.94016834104975" lon="12.08651257456866"><ele>268.5</ele><time>2026-04-26T08:06:49.999Z</time></trkpt><trkpt lat="45.940077362010584" lon="12.086378929079826"><ele>268.75</ele><time>2026-04-26T08:06:50.999Z</time></trkpt><trkpt lat="45.93996246149073" lon="12.08625525881172"><ele>269.0</ele><time>2026-04-26T08:06:51.999Z</time></trkpt><trkpt lat="45.93983444837307" lon="12.086136286203072"><ele>269.0</ele><time>2026-04-26T08:06:52.999Z</time></trkpt><trkpt lat="45.93969355804427" lon="12.086020275217807"><ele>269.0</ele><time>2026-04-26T08:06:53.999Z</time></trkpt><trkpt lat="45.93956453895878" lon="12.085909211842036"><ele>269.0</ele><time>2026-04-26T08:06:54.999Z</time></trkpt><trkpt lat="45.93943165919401" lon="12.085786499601653"><ele>270.5</ele><time>2026-04-26T08:06:55.999Z</time></trkpt><trkpt lat="45.93931111317656" lon="12.085679095541781"><ele>272.0</ele><time>2026-04-26T08:06:56.999Z</time></trkpt><trkpt lat="45.939203387948716" lon="12.08558638939589"><ele>273.5</ele><time>2026-04-26T08:06:57.999Z</time></trkpt><trkpt lat="45.93908136735291" lon="12.08548457730125"><ele>275.0</ele><time>2026-04-26T08:06:58.999Z</time></trkpt><trkpt lat="45.9389525857117" lon="12.085374195072657"><ele>275.5</ele><time>2026-04-26T08:06:59.999Z</time></trkpt><trkpt lat="45.93883320524942" lon="12.085256224562166"><ele>276.0</ele><time>2026-04-26T08:07:00.999Z</time></trkpt><trkpt lat="45.938737735247486" lon="12.085146861478975"><ele>276.5</ele><time>2026-04-26T08:07:01.999Z</time></trkpt><trkpt lat="45.93865927234949" lon="12.085000987417507"><ele>277.0</ele><time>2026-04-26T08:07:02.999Z</time></trkpt><trkpt lat="45.93856541067611" lon="12.084885230935773"><ele>278.4</ele><time>2026-04-26T08:07:03.999Z</time></trkpt><trkpt lat="45.938500819607526" lon="12.084782479195521"><ele>279.79999999999995</ele><time>2026-04-26T08:07:04.999Z</time></trkpt><trkpt lat="45.93841522544048" lon="12.084712564638995"><ele>281.2</ele><time>2026-04-26T08:07:06Z</time></trkpt><trkpt lat="45.93830573038404" lon="12.084665781974898"><ele>282.59999999999997</ele><time>2026-04-26T08:07:07Z</time></trkpt><trkpt lat="45.93816877828209" lon="12.084625919964424"><ele>284.0</ele><time>2026-04-26T08:07:08Z</time></trkpt><trkpt lat="45.93805752549685" lon="12.08459808215991"><ele>284.0</ele><time>2026-04-26T08:07:09Z</time></trkpt><trkpt lat="45.93796726815598" lon="12.0845766262569"><ele>284.0</ele><time>2026-04-26T08:07:10Z</time></trkpt><trkpt lat="45.9378825922136" lon="12.08453877614763"><ele>284.0</ele><time>2026-04-26T08:07:11Z</time></trkpt><trkpt lat="45.93779802237004" lon="12.08445243041458"><ele>284.0</ele><time>2026-04-26T08:07:12Z</time></trkpt><trkpt lat="45.93772839725159" lon="12.084352446294421"><ele>284.0</ele><time>2026-04-26T08:07:13Z</time></trkpt><trkpt lat="45.93766260450928" lon="12.084218566948374"><ele>285.5</ele><time>2026-04-26T08:07:14Z</time></trkpt><trkpt lat="45.9376038414301" lon="12.084054346458924"><ele>287.0</ele><time>2026-04-26T08:07:15Z</time></trkpt><trkpt lat="45.93753691670841" lon="12.083871792337803"><ele>288.5</ele><time>2026-04-26T08:07:16Z</time></trkpt><trkpt lat="45.93745903849719" lon="12.083687387465723"><ele>290.0</ele><time>2026-04-26T08:07:17Z</time></trkpt><trkpt lat="45.93737226529351" lon="12.083498689063001"><ele>290.0</ele><time>2026-04-26T08:07:18Z</time></trkpt><trkpt lat="45.93726343179477" lon="12.083313986829372"><ele>290.0</ele><time>2026-04-26T08:07:19Z</time></trkpt><trkpt lat="45.937151424348244" lon="12.083142821667638"><ele>290.0</ele><time>2026-04-26T08:07:20Z</time></trkpt><trkpt lat="45.93707260123005" lon="12.082990821897601"><ele>291.5</ele><time>2026-04-26T08:07:21Z</time></trkpt><trkpt lat="45.93699309571739" lon="12.08284650660544"><ele>293.0</ele><time>2026-04-26T08:07:22Z</time></trkpt><trkpt lat="45.936918624531735" lon="12.082701944622357"><ele>294.5</ele><time>2026-04-26T08:07:23Z</time></trkpt><trkpt lat="45.93685403455564" lon="12.08253894951861"><ele>296.0</ele><time>2026-04-26T08:07:24Z</time></trkpt><trkpt lat="45.93682549724491" lon="12.082353595469431"><ele>297.6666666666667</ele><time>2026-04-26T08:07:25Z</time></trkpt><trkpt lat="45.936771925723974" lon="12.08214296809525"><ele>299.3333333333333</ele><time>2026-04-26T08:07:26Z</time></trkpt><trkpt lat="45.9367499221256" lon="12.081932717893995"><ele>301.0</ele><time>2026-04-26T08:07:27Z</time></trkpt><trkpt lat="45.93674259639079" lon="12.081711019059744"><ele>303.3333333333333</ele><time>2026-04-26T08:07:28Z</time></trkpt><trkpt lat="45.936748065938154" lon="12.08147004131018"><ele>305.6666666666667</ele><time>2026-04-26T08:07:29Z</time></trkpt><trkpt lat="45.9367528419552" lon="12.081248898891266"><ele>308.0</ele><time>2026-04-26T08:07:30Z</time></trkpt><trkpt lat="45.936747962389965" lon="12.081048289022545"><ele>308.0</ele><time>2026-04-26T08:07:31Z</time></trkpt><trkpt lat="45.936723639346546" lon="12.080840930757727"><ele>308.0</ele><time>2026-04-26T08:07:32Z</time></trkpt><trkpt lat="45.936677832486694" lon="12.080619514723612"><ele>308.0</ele><time>2026-04-26T08:07:33Z</time></trkpt><trkpt lat="45.93659529894507" lon="12.0803992310253"><ele>309.0</ele><time>2026-04-26T08:07:34Z</time></trkpt><trkpt lat="45.93650279492897" lon="12.080189357767297"><ele>310.0</ele><time>2026-04-26T08:07:35Z</time></trkpt><trkpt lat="45.93639824914299" lon="12.07998410256857"><ele>311.0</ele><time>2026-04-26T08:07:36Z</time></trkpt><trkpt lat="45.93628481097779" lon="12.079774310157966"><ele>317.0</ele><time>2026-04-26T08:07:37Z</time></trkpt><trkpt lat="45.936182957022126" lon="12.07957829856457"><ele>323.0</ele><time>2026-04-26T08:07:38Z</time></trkpt><trkpt lat="45.9360693358561" lon="12.079378952337416"><ele>329.0</ele><time>2026-04-26T08:07:39Z</time></trkpt><trkpt lat="45.93593603044529" lon="12.079178797108337"><ele>328.6666666666667</ele><time>2026-04-26T08:07:40Z</time></trkpt><trkpt lat="45.93578974499811" lon="12.078969545333718"><ele>328.3333333333333</ele><time>2026-04-26T08:07:41Z</time></trkpt><trkpt lat="45.935630195157756" lon="12.0787552144458"><ele>328.0</ele><time>2026-04-26T08:07:42Z</time></trkpt><trkpt lat="45.93546271904339" lon="12.078530578705037"><ele>328.0</ele><time>2026-04-26T08:07:43Z</time></trkpt><trkpt lat="45.93531080577953" lon="12.0783227075311"><ele>328.0</ele><time>2026-04-26T08:07:44Z</time></trkpt><trkpt lat="45.935153735983185" lon="12.078103023692226"><ele>328.0</ele><time>2026-04-26T08:07:45Z</time></trkpt><trkpt lat="45.93499858131225" lon="12.077882371073072"><ele>328.3333333333333</ele><time>2026-04-26T08:07:46Z</time></trkpt><trkpt lat="45.93486007487895" lon="12.077692095254724"><ele>328.6666666666667</ele><time>2026-04-26T08:07:47Z</time></trkpt><trkpt lat="45.934719596974475" lon="12.077493908158004"><ele>329.0</ele><time>2026-04-26T08:07:48Z</time></trkpt><trkpt lat="45.93457137559179" lon="12.077289254588566"><ele>329.6666666666667</ele><time>2026-04-26T08:07:49Z</time></trkpt><trkpt lat="45.93441738554735" lon="12.077085728813122"><ele>330.3333333333333</ele><time>2026-04-26T08:07:50Z</time></trkpt><trkpt lat="45.934273061694405" lon="12.076903013596167"><ele>331.0</ele><time>2026-04-26T08:07:51Z</time></trkpt><trkpt lat="45.93410704129534" lon="12.076702291915716"><ele>338.3333333333333</ele><time>2026-04-26T08:07:52Z</time></trkpt><trkpt lat="45.93393275936512" lon="12.07651210964078"><ele>345.6666666666667</ele><time>2026-04-26T08:07:53Z</time></trkpt><trkpt lat="45.93375993925965" lon="12.076313918668072"><ele>353.0</ele><time>2026-04-26T08:07:54Z</time></trkpt><trkpt lat="45.93360276972247" lon="12.076130312609447"><ele>353.0</ele><time>2026-04-26T08:07:55Z</time></trkpt><trkpt lat="45.933452048933425" lon="12.075956853752027"><ele>353.0</ele><time>2026-04-26T08:07:56Z</time></trkpt><trkpt lat="45.933297184081304" lon="12.075782050249648"><ele>353.0</ele><time>2026-04-26T08:07:57Z</time></trkpt><trkpt lat="45.933153892544" lon="12.075617904497323"><ele>352.33333333333337</ele><time>2026-04-26T08:07:58Z</time></trkpt><trkpt lat="45.933013880341385" lon="12.075451149491142"><ele>351.6666666666667</ele><time>2026-04-26T08:07:59Z</time></trkpt><trkpt lat="45.932890807851095" lon="12.07530362827783"><ele>351.0</ele><time>2026-04-26T08:08:00Z</time></trkpt><trkpt lat="45.93276322354461" lon="12.075163969830667"><ele>351.0</ele><time>2026-04-26T08:08:01Z</time></trkpt><trkpt lat="45.93265153928344" lon="12.075030352642672"><ele>351.0</ele><time>2026-04-26T08:08:02Z</time></trkpt><trkpt lat="45.93254796506483" lon="12.074912005204474"><ele>351.0</ele><time>2026-04-26T08:08:03Z</time></trkpt><trkpt lat="45.93244558796662" lon="12.074778192836456"><ele>351.0</ele><time>2026-04-26T08:08:04Z</time></trkpt><trkpt lat="45.932346642781184" lon="12.074602706184281"><ele>351.75</ele><time>2026-04-26T08:08:05Z</time></trkpt><trkpt lat="45.93225202295475" lon="12.074406775681005"><ele>352.5</ele><time>2026-04-26T08:08:06Z</time></trkpt><trkpt lat="45.93216842790146" lon="12.07421837965542"><ele>353.25</ele><time>2026-04-26T08:08:07Z</time></trkpt><trkpt lat="45.932084476740464" lon="12.07408158370694"><ele>354.0</ele><time>2026-04-26T08:08:08Z</time></trkpt><trkpt lat="45.93198187869938" lon="12.07392935753053"><ele>355.0</ele><time>2026-04-26T08:08:09Z</time></trkpt><trkpt lat="45.93186260577843" lon="12.073818896606255"><ele>356.0</ele><time>2026-04-26T08:08:10Z</time></trkpt><trkpt lat="45.93176840401872" lon="12.073717558840736"><ele>357.0</ele><time>2026-04-26T08:08:11Z</time></trkpt><trkpt lat="45.931695843623324" lon="12.073611696276991"><ele>358.0</ele><time>2026-04-26T08:08:12Z</time></trkpt><trkpt lat="45.9316556715746" lon="12.073444431751774"><ele>363.5</ele><time>2026-04-26T08:08:13Z</time></trkpt><trkpt lat="45.931613741534036" lon="12.073251247629743"><ele>369.0</ele><time>2026-04-26T08:08:14Z</time></trkpt><trkpt lat="45.93155929173874" lon="12.07303893470218"><ele>374.5</ele><time>2026-04-26T08:08:15Z</time></trkpt><trkpt lat="45.931527290371335" lon="12.07283665229048"><ele>380.0</ele><time>2026-04-26T08:08:16Z</time></trkpt><trkpt lat="45.93148464502211" lon="12.072684833366141"><ele>380.0</ele><time>2026-04-26T08:08:17Z</time></trkpt><trkpt lat="45.931419493286036" lon="12.072549431385323"><ele>380.0</ele><time>2026-04-26T08:08:18Z</time></trkpt><trkpt lat="45.9313459037233" lon="12.072430967354567"><ele>380.0</ele><time>2026-04-26T08:08:19Z</time></trkpt><trkpt lat="45.93122980105371" lon="12.072346153069956"><ele>380.0</ele><time>2026-04-26T08:08:20Z</time></trkpt><trkpt lat="45.931144248466005" lon="12.072275907715785"><ele>381.33333333333337</ele><time>2026-04-26T08:08:21Z</time></trkpt><trkpt lat="45.93108285267351" lon="12.072194914995757"><ele>382.6666666666667</ele><time>2026-04-26T08:08:22Z</time></trkpt><trkpt lat="45.93103826052607" lon="12.072110890122836"><ele>384.0</ele><time>2026-04-26T08:08:23Z</time></trkpt><trkpt lat="45.93100724546165" lon="12.072021017168458"><ele>385.33333333333337</ele><time>2026-04-26T08:08:24Z</time></trkpt><trkpt lat="45.930984773359036" lon="12.071906217370728"><ele>386.6666666666667</ele><time>2026-04-26T08:08:25Z</time></trkpt><trkpt lat="45.93097773124391" lon="12.07176069673764"><ele>388.0</ele><time>2026-04-26T08:08:26Z</time></trkpt><trkpt lat="45.93099218308572" lon="12.071589774571768"><ele>390.5</ele><time>2026-04-26T08:08:27Z</time></trkpt><trkpt lat="45.93101676022593" lon="12.071424864928227"><ele>393.0</ele><time>2026-04-26T08:08:28Z</time></trkpt><trkpt lat="45.931033586282474" lon="12.071238322231098"><ele>395.5</ele><time>2026-04-26T08:08:29Z</time></trkpt><trkpt lat="45.93104357832367" lon="12.071041306397705"><ele>398.0</ele><time>2026-04-26T08:08:30Z</time></trkpt><trkpt lat="45.93105903998528" lon="12.070888377407664"><ele>398.3333333333333</ele><time>2026-04-26T08:08:31Z</time></trkpt><trkpt lat="45.93106516114775" lon="12.070755707054316"><ele>398.66666666666663</ele><time>2026-04-26T08:08:32Z</time></trkpt><trkpt lat="45.931060601872076" lon="12.0706428687593"><ele>399.0</ele><time>2026-04-26T08:08:33Z</time></trkpt><trkpt lat="45.931028682045465" lon="12.070557637655241"><ele>399.33333333333337</ele><time>2026-04-26T08:08:34Z</time></trkpt><trkpt lat="45.930966676008346" lon="12.070496011145739"><ele>399.6666666666667</ele><time>2026-04-26T08:08:35Z</time></trkpt><trkpt lat="45.930877190341455" lon="12.070488295953337"><ele>400.0</ele><time>2026-04-26T08:08:36Z</time></trkpt><trkpt lat="45.930800174248006" lon="12.070564276705358"><ele>400.0</ele><time>2026-04-26T08:08:37Z</time></trkpt><trkpt lat="45.93073306446006" lon="12.070674885334757"><ele>400.0</ele><time>2026-04-26T08:08:38Z</time></trkpt><trkpt lat="45.930662031088794" lon="12.070836727342945"><ele>400.0</ele><time>2026-04-26T08:08:39Z</time></trkpt><trkpt lat="45.930608575818106" lon="12.070988215086047"><ele>400.0</ele><time>2026-04-26T08:08:40Z</time></trkpt><trkpt lat="45.93054820891721" lon="12.071131165492517"><ele>397.4</ele><time>2026-04-26T08:08:41Z</time></trkpt><trkpt lat="45.930489380684385" lon="12.071231143521553"><ele>394.8</ele><time>2026-04-26T08:08:42Z</time></trkpt><trkpt lat="45.93042051677239" lon="12.071331727331563"><ele>392.20000000000005</ele><time>2026-04-26T08:08:43Z</time></trkpt><trkpt lat="45.930334512968265" lon="12.07137584972242"><ele>389.6</ele><time>2026-04-26T08:08:44Z</time></trkpt><trkpt lat="45.93023777847908" lon="12.071374700254966"><ele>387.0</ele><time>2026-04-26T08:08:45Z</time></trkpt><trkpt lat="45.93013876124507" lon="12.071323407554567"><ele>387.0</ele><time>2026-04-26T08:08:46Z</time></trkpt><trkpt lat="45.93006941598593" lon="12.071249632866769"><ele>387.0</ele><time>2026-04-26T08:08:47Z</time></trkpt><trkpt lat="45.93000637989891" lon="12.07115628722354"><ele>387.0</ele><time>2026-04-26T08:08:48Z</time></trkpt><trkpt lat="45.92994404243842" lon="12.071027074245299"><ele>387.0</ele><time>2026-04-26T08:08:49Z</time></trkpt><trkpt lat="45.92988589305671" lon="12.070878960097579"><ele>387.0</ele><time>2026-04-26T08:08:50Z</time></trkpt><trkpt lat="45.92981730351561" lon="12.070701931069038"><ele>389.0</ele><time>2026-04-26T08:08:51Z</time></trkpt><trkpt lat="45.929741284098" lon="12.070517553870236"><ele>391.0</ele><time>2026-04-26T08:08:52Z</time></trkpt><trkpt lat="45.92967610062591" lon="12.070360707905186"><ele>393.0</ele><time>2026-04-26T08:08:53Z</time></trkpt><trkpt lat="45.92960141367437" lon="12.07017777198155"><ele>395.0</ele><time>2026-04-26T08:08:54Z</time></trkpt><trkpt lat="45.92952853329121" lon="12.069991723763465"><ele>396.0</ele><time>2026-04-26T08:08:55Z</time></trkpt><trkpt lat="45.929459834067515" lon="12.069824585233695"><ele>397.0</ele><time>2026-04-26T08:08:56Z</time></trkpt><trkpt lat="45.92938275706566" lon="12.069636607820849"><ele>398.0</ele><time>2026-04-26T08:08:57Z</time></trkpt><trkpt lat="45.929304102954355" lon="12.069436691062773"><ele>399.0</ele><time>2026-04-26T08:08:58Z</time></trkpt><trkpt lat="45.929228916381454" lon="12.06925767412579"><ele>397.5</ele><time>2026-04-26T08:08:59Z</time></trkpt><trkpt lat="45.92916121477823" lon="12.069093411207739"><ele>396.0</ele><time>2026-04-26T08:09:00Z</time></trkpt><trkpt lat="45.929093518020196" lon="12.06893507770057"><ele>394.5</ele><time>2026-04-26T08:09:01Z</time></trkpt><trkpt lat="45.929008124623316" lon="12.06876651192019"><ele>393.0</ele><time>2026-04-26T08:09:02Z</time></trkpt><trkpt lat="45.92889442316259" lon="12.068592771835515"><ele>393.0</ele><time>2026-04-26T08:09:03Z</time></trkpt><trkpt lat="45.92878572789561" lon="12.0684226738978"><ele>393.0</ele><time>2026-04-26T08:09:03.999Z</time></trkpt><trkpt lat="45.92870564680646" lon="12.068272458609815"><ele>393.0</ele><time>2026-04-26T08:09:04.999Z</time></trkpt><trkpt lat="45.92863180233169" lon="12.06814495943405"><ele>393.0</ele><time>2026-04-26T08:09:05.999Z</time></trkpt><trkpt lat="45.92855926149886" lon="12.068029476865828"><ele>394.0</ele><time>2026-04-26T08:09:06.999Z</time></trkpt><trkpt lat="45.92849561089704" lon="12.067920031925427"><ele>395.0</ele><time>2026-04-26T08:09:07.999Z</time></trkpt><trkpt lat="45.92842981926319" lon="12.067830948372345"><ele>396.0</ele><time>2026-04-26T08:09:08.999Z</time></trkpt><trkpt lat="45.92834346954178" lon="12.067779147183153"><ele>397.0</ele><time>2026-04-26T08:09:09.999Z</time></trkpt><trkpt lat="45.928251029035785" lon="12.067750960295776"><ele>398.0</ele><time>2026-04-26T08:09:10.999Z</time></trkpt><trkpt lat="45.92815631363691" lon="12.06778242185068"><ele>398.0</ele><time>2026-04-26T08:09:12Z</time></trkpt><trkpt lat="45.928057903813716" lon="12.067841680713014"><ele>398.0</ele><time>2026-04-26T08:09:13Z</time></trkpt><trkpt lat="45.927961276017264" lon="12.06794192404042"><ele>398.0</ele><time>2026-04-26T08:09:14Z</time></trkpt><trkpt lat="45.927884353881275" lon="12.068003831011248"><ele>398.0</ele><time>2026-04-26T08:09:15Z</time></trkpt><trkpt lat="45.92780015020603" lon="12.068048100958254"><ele>398.0</ele><time>2026-04-26T08:09:16Z</time></trkpt><trkpt lat="45.92770049861457" lon="12.0680690828389"><ele>398.0</ele><time>2026-04-26T08:09:17Z</time></trkpt><trkpt lat="45.92758615959936" lon="12.068065770221677"><ele>398.0</ele><time>2026-04-26T08:09:18Z</time></trkpt><trkpt lat="45.927474208122" lon="12.068020016899759"><ele>398.0</ele><time>2026-04-26T08:09:19Z</time></trkpt><trkpt lat="45.92736454508387" lon="12.06794937432399"><ele>398.0</ele><time>2026-04-26T08:09:20Z</time></trkpt><trkpt lat="45.927254813389496" lon="12.067876279039533"><ele>397.0</ele><time>2026-04-26T08:09:21Z</time></trkpt><trkpt lat="45.92715986623015" lon="12.067819469889104"><ele>396.0</ele><time>2026-04-26T08:09:22Z</time></trkpt><trkpt lat="45.92708270706918" lon="12.067745288845197"><ele>395.0</ele><time>2026-04-26T08:09:23Z</time></trkpt><trkpt lat="45.927036893586035" lon="12.067639133513094"><ele>394.0</ele><time>2026-04-26T08:09:24Z</time></trkpt><trkpt lat="45.92701204288923" lon="12.06749390074072"><ele>393.0</ele><time>2026-04-26T08:09:25Z</time></trkpt><trkpt lat="45.927012315110055" lon="12.067357854410897"><ele>393.0</ele><time>2026-04-26T08:09:26Z</time></trkpt><trkpt lat="45.927036791442916" lon="12.067237574725116"><ele>393.0</ele><time>2026-04-26T08:09:27Z</time></trkpt><trkpt lat="45.92709252499247" lon="12.067136623946752"><ele>393.0</ele><time>2026-04-26T08:09:28Z</time></trkpt><trkpt lat="45.92717758366658" lon="12.067044960237999"><ele>393.0</ele><time>2026-04-26T08:09:29Z</time></trkpt><trkpt lat="45.927260544271995" lon="12.066945597263194"><ele>393.0</ele><time>2026-04-26T08:09:30Z</time></trkpt><trkpt lat="45.92733589044009" lon="12.066847150055075"><ele>393.0</ele><time>2026-04-26T08:09:31Z</time></trkpt><trkpt lat="45.92739726024953" lon="12.06675705175572"><ele>393.0</ele><time>2026-04-26T08:09:32Z</time></trkpt><trkpt lat="45.92744922948602" lon="12.066633786429374"><ele>393.0</ele><time>2026-04-26T08:09:33Z</time></trkpt><trkpt lat="45.927489991299765" lon="12.066479167273597"><ele>393.0</ele><time>2026-04-26T08:09:34Z</time></trkpt><trkpt lat="45.92747245600963" lon="12.066315842632216"><ele>393.0</ele><time>2026-04-26T08:09:35Z</time></trkpt><trkpt lat="45.92741097431904" lon="12.066178490669044"><ele>395.4</ele><time>2026-04-26T08:09:36Z</time></trkpt><trkpt lat="45.9273448060721" lon="12.066102277527447"><ele>397.79999999999995</ele><time>2026-04-26T08:09:37Z</time></trkpt><trkpt lat="45.92725774730741" lon="12.065994701347728"><ele>400.2</ele><time>2026-04-26T08:09:38Z</time></trkpt><trkpt lat="45.92718034899041" lon="12.065897892341784"><ele>402.6</ele><time>2026-04-26T08:09:39Z</time></trkpt><trkpt lat="45.927098237449684" lon="12.06579489611309"><ele>405.0</ele><time>2026-04-26T08:09:40Z</time></trkpt><trkpt lat="45.92703351493512" lon="12.065682706593533"><ele>403.6</ele><time>2026-04-26T08:09:41Z</time></trkpt><trkpt lat="45.92698995282644" lon="12.065552995866968"><ele>402.2</ele><time>2026-04-26T08:09:42Z</time></trkpt><trkpt lat="45.92695293701605" lon="12.06543648353967"><ele>400.79999999999995</ele><time>2026-04-26T08:09:43Z</time></trkpt><trkpt lat="45.92689466618464" lon="12.065334537368628"><ele>399.4</ele><time>2026-04-26T08:09:44Z</time></trkpt><trkpt lat="45.9268100069598" lon="12.065269853046978"><ele>398.0</ele><time>2026-04-26T08:09:45Z</time></trkpt><trkpt lat="45.92671233729376" lon="12.065244204808128"><ele>397.99999999999994</ele><time>2026-04-26T08:09:46Z</time></trkpt><trkpt lat="45.92661825406925" lon="12.065240249373815"><ele>398.0</ele><time>2026-04-26T08:09:47Z</time></trkpt><trkpt lat="45.92652653324754" lon="12.065214206023576"><ele>398.0</ele><time>2026-04-26T08:09:48Z</time></trkpt><trkpt lat="45.926448788492536" lon="12.065138227014442"><ele>398.0</ele><time>2026-04-26T08:09:49Z</time></trkpt><trkpt lat="45.92639053760866" lon="12.065054217120048"><ele>397.99999999999994</ele><time>2026-04-26T08:09:50Z</time></trkpt><trkpt lat="45.92634964622167" lon="12.064949615269418"><ele>398.0</ele><time>2026-04-26T08:09:51Z</time></trkpt><trkpt lat="45.9263212604457" lon="12.064770599720713"><ele>403.75</ele><time>2026-04-26T08:09:52Z</time></trkpt><trkpt lat="45.92630674666984" lon="12.064599190643113"><ele>409.5</ele><time>2026-04-26T08:09:53Z</time></trkpt><trkpt lat="45.9262788291463" lon="12.064417625547373"><ele>415.25</ele><time>2026-04-26T08:09:54Z</time></trkpt><trkpt lat="45.92625159968001" lon="12.0642131725112"><ele>421.0</ele><time>2026-04-26T08:09:55Z</time></trkpt><trkpt lat="45.92622292855739" lon="12.063999801820305"><ele>423.0</ele><time>2026-04-26T08:09:56Z</time></trkpt><trkpt lat="45.926201782471125" lon="12.063823337844347"><ele>425.0</ele><time>2026-04-26T08:09:57Z</time></trkpt><trkpt lat="45.92618020118247" lon="12.063647988054633"><ele>427.0</ele><time>2026-04-26T08:09:58Z</time></trkpt><trkpt lat="45.92616243441108" lon="12.063495644681732"><ele>429.0</ele><time>2026-04-26T08:09:59Z</time></trkpt><trkpt lat="45.92614189794189" lon="12.063361246862014"><ele>429.0</ele><time>2026-04-26T08:10:00Z</time></trkpt><trkpt lat="45.92612437158119" lon="12.063248203213957"><ele>429.0</ele><time>2026-04-26T08:10:01Z</time></trkpt><trkpt lat="45.92609127928137" lon="12.063146189166034"><ele>429.0</ele><time>2026-04-26T08:10:02Z</time></trkpt><trkpt lat="45.92602565195514" lon="12.063070336539464"><ele>429.0</ele><time>2026-04-26T08:10:03Z</time></trkpt><trkpt lat="45.92593515464847" lon="12.063043862983553"><ele>429.0</ele><time>2026-04-26T08:10:04Z</time></trkpt><trkpt lat="45.92583206328105" lon="12.063077917685836"><ele>429.0</ele><time>2026-04-26T08:10:05Z</time></trkpt><trkpt lat="45.92576077680808" lon="12.06313388387824"><ele>429.0</ele><time>2026-04-26T08:10:06Z</time></trkpt><trkpt lat="45.925682438330256" lon="12.063155061462975"><ele>429.0</ele><time>2026-04-26T08:10:07Z</time></trkpt><trkpt lat="45.92557643366127" lon="12.063130526114625"><ele>429.0</ele><time>2026-04-26T08:10:08Z</time></trkpt><trkpt lat="45.925467588247294" lon="12.063061841034385"><ele>429.0</ele><time>2026-04-26T08:10:09Z</time></trkpt><trkpt lat="45.92538765945138" lon="12.062959591852024"><ele>429.0</ele><time>2026-04-26T08:10:10Z</time></trkpt><trkpt lat="45.92530204782656" lon="12.062837714730897"><ele>429.0</ele><time>2026-04-26T08:10:11Z</time></trkpt><trkpt lat="45.92522076772471" lon="12.06271808202683"><ele>429.0</ele><time>2026-04-26T08:10:12Z</time></trkpt><trkpt lat="45.925115611795455" lon="12.062606347392375"><ele>429.0</ele><time>2026-04-26T08:10:13Z</time></trkpt><trkpt lat="45.92499689927923" lon="12.062520813807948"><ele>429.0</ele><time>2026-04-26T08:10:14Z</time></trkpt><trkpt lat="45.92486240608758" lon="12.06246980196132"><ele>430.79999999999995</ele><time>2026-04-26T08:10:15Z</time></trkpt><trkpt lat="45.924734735888045" lon="12.062449187791495"><ele>432.59999999999997</ele><time>2026-04-26T08:10:16Z</time></trkpt><trkpt lat="45.92462562604316" lon="12.062438759307257"><ele>434.4</ele><time>2026-04-26T08:10:17Z</time></trkpt><trkpt lat="45.92453000802102" lon="12.062418899783605"><ele>436.2</ele><time>2026-04-26T08:10:18Z</time></trkpt><trkpt lat="45.92444526328122" lon="12.062396652801066"><ele>438.0</ele><time>2026-04-26T08:10:19Z</time></trkpt><trkpt lat="45.92437768163294" lon="12.062339719162987"><ele>438.0</ele><time>2026-04-26T08:10:20Z</time></trkpt><trkpt lat="45.92432871703736" lon="12.062244332871451"><ele>437.99999999999994</ele><time>2026-04-26T08:10:21Z</time></trkpt><trkpt lat="45.9243134060395" lon="12.062143127329717"><ele>437.99999999999994</ele><time>2026-04-26T08:10:22Z</time></trkpt><trkpt lat="45.924315256507874" lon="12.062019187435707"><ele>438.0</ele><time>2026-04-26T08:10:23Z</time></trkpt><trkpt lat="45.92434158723999" lon="12.061860065682577"><ele>438.0</ele><time>2026-04-26T08:10:24Z</time></trkpt><trkpt lat="45.92437756479257" lon="12.061695983280334"><ele>439.1666666666667</ele><time>2026-04-26T08:10:25Z</time></trkpt><trkpt lat="45.92440579977064" lon="12.061560483513349"><ele>440.33333333333337</ele><time>2026-04-26T08:10:26Z</time></trkpt><trkpt lat="45.92444136432584" lon="12.06144265445241"><ele>441.5</ele><time>2026-04-26T08:10:27Z</time></trkpt><trkpt lat="45.92443464167795" lon="12.061308742049254"><ele>442.6666666666667</ele><time>2026-04-26T08:10:28Z</time></trkpt><trkpt lat="45.92441669800525" lon="12.061199264185074"><ele>443.83333333333337</ele><time>2026-04-26T08:10:29Z</time></trkpt><trkpt lat="45.92436876863884" lon="12.061112818034484"><ele>445.0</ele><time>2026-04-26T08:10:30Z</time></trkpt><trkpt lat="45.92429702870854" lon="12.061060457072132"><ele>442.0</ele><time>2026-04-26T08:10:31Z</time></trkpt><trkpt lat="45.92421390369835" lon="12.06105574736933"><ele>439.0</ele><time>2026-04-26T08:10:32Z</time></trkpt><trkpt lat="45.92411568624674" lon="12.061049611054806"><ele>436.0</ele><time>2026-04-26T08:10:33Z</time></trkpt><trkpt lat="45.92400927982898" lon="12.061130031552329"><ele>433.0</ele><time>2026-04-26T08:10:34Z</time></trkpt><trkpt lat="45.92390113322955" lon="12.061250440653183"><ele>430.0</ele><time>2026-04-26T08:10:35Z</time></trkpt><trkpt lat="45.923793089963894" lon="12.061380622444558"><ele>430.0</ele><time>2026-04-26T08:10:36Z</time></trkpt><trkpt lat="45.92368165038045" lon="12.061516396694484"><ele>430.0</ele><time>2026-04-26T08:10:37Z</time></trkpt><trkpt lat="45.9235443964355" lon="12.061675676862546"><ele>430.0</ele><time>2026-04-26T08:10:38Z</time></trkpt><trkpt lat="45.92341146724474" lon="12.061829891851264"><ele>430.75</ele><time>2026-04-26T08:10:39Z</time></trkpt><trkpt lat="45.92332801774939" lon="12.061982973813146"><ele>431.5</ele><time>2026-04-26T08:10:40Z</time></trkpt><trkpt lat="45.923219887133136" lon="12.062094349387998"><ele>432.25</ele><time>2026-04-26T08:10:41Z</time></trkpt><trkpt lat="45.92311983811262" lon="12.062197627891205"><ele>433.0</ele><time>2026-04-26T08:10:42Z</time></trkpt><trkpt lat="45.92303274353621" lon="12.062255175162855"><ele>433.0</ele><time>2026-04-26T08:10:43Z</time></trkpt><trkpt lat="45.922929100286225" lon="12.062281314686288"><ele>432.99999999999994</ele><time>2026-04-26T08:10:44Z</time></trkpt><trkpt lat="45.92284067199489" lon="12.06231415990136"><ele>432.99999999999994</ele><time>2026-04-26T08:10:45Z</time></trkpt><trkpt lat="45.92276319385976" lon="12.062389782155476"><ele>433.0</ele><time>2026-04-26T08:10:46Z</time></trkpt><trkpt lat="45.9226912743924" lon="12.062524455223697"><ele>433.0</ele><time>2026-04-26T08:10:47Z</time></trkpt><trkpt lat="45.92263657698755" lon="12.062712488771556"><ele>433.0</ele><time>2026-04-26T08:10:48Z</time></trkpt><trkpt lat="45.922597373396854" lon="12.062906379923849"><ele>432.99999999999994</ele><time>2026-04-26T08:10:49Z</time></trkpt><trkpt lat="45.92253351749643" lon="12.063032505718038"><ele>432.99999999999994</ele><time>2026-04-26T08:10:50Z</time></trkpt><trkpt lat="45.92248378494207" lon="12.063130306648189"><ele>433.0</ele><time>2026-04-26T08:10:51Z</time></trkpt><trkpt lat="45.922405818574795" lon="12.063217669549365"><ele>433.0</ele><time>2026-04-26T08:10:52Z</time></trkpt><trkpt lat="45.92228451094907" lon="12.06332687656623"><ele>429.2</ele><time>2026-04-26T08:10:53Z</time></trkpt><trkpt lat="45.92217054512235" lon="12.063396809412549"><ele>425.4</ele><time>2026-04-26T08:10:54Z</time></trkpt><trkpt lat="45.92207295321552" lon="12.063458787846942"><ele>421.59999999999997</ele><time>2026-04-26T08:10:55Z</time></trkpt><trkpt lat="45.92198150765359" lon="12.063510272097526"><ele>417.79999999999995</ele><time>2026-04-26T08:10:56Z</time></trkpt><trkpt lat="45.921890704576064" lon="12.063498922669089"><ele>414.0</ele><time>2026-04-26T08:10:57Z</time></trkpt><trkpt lat="45.92181870179283" lon="12.063466113000642"><ele>414.0</ele><time>2026-04-26T08:10:58Z</time></trkpt><trkpt lat="45.92176048036666" lon="12.063365314006905"><ele>414.0</ele><time>2026-04-26T08:10:59Z</time></trkpt><trkpt lat="45.921716013351926" lon="12.063229447233496"><ele>414.0</ele><time>2026-04-26T08:11:00Z</time></trkpt><trkpt lat="45.921691656836956" lon="12.063034556343018"><ele>414.0</ele><time>2026-04-26T08:11:01Z</time></trkpt><trkpt lat="45.92163631496768" lon="12.062842676093856"><ele>414.5</ele><time>2026-04-26T08:11:02Z</time></trkpt><trkpt lat="45.9215986674184" lon="12.062634503554674"><ele>415.0</ele><time>2026-04-26T08:11:03Z</time></trkpt><trkpt lat="45.92155672694878" lon="12.062434668268102"><ele>415.5</ele><time>2026-04-26T08:11:04Z</time></trkpt><trkpt lat="45.92151975298425" lon="12.0622599772316"><ele>416.0</ele><time>2026-04-26T08:11:05Z</time></trkpt><trkpt lat="45.92149450572229" lon="12.062102289574586"><ele>419.20000000000005</ele><time>2026-04-26T08:11:06Z</time></trkpt><trkpt lat="45.92149107556956" lon="12.061951796717729"><ele>422.40000000000003</ele><time>2026-04-26T08:11:07Z</time></trkpt><trkpt lat="45.92149563532414" lon="12.06180927444664"><ele>425.6</ele><time>2026-04-26T08:11:08Z</time></trkpt><trkpt lat="45.921501722644905" lon="12.06168214699916"><ele>428.8</ele><time>2026-04-26T08:11:09Z</time></trkpt><trkpt lat="45.92147591864842" lon="12.061557913891386"><ele>432.0</ele><time>2026-04-26T08:11:10Z</time></trkpt><trkpt lat="45.92142446335628" lon="12.061445575134998"><ele>435.20000000000005</ele><time>2026-04-26T08:11:11Z</time></trkpt><trkpt lat="45.921345351262545" lon="12.061344237198055"><ele>438.40000000000003</ele><time>2026-04-26T08:11:12Z</time></trkpt><trkpt lat="45.921269138653294" lon="12.061281411656767"><ele>441.59999999999997</ele><time>2026-04-26T08:11:13Z</time></trkpt><trkpt lat="45.92117580078986" lon="12.061243078793698"><ele>444.79999999999995</ele><time>2026-04-26T08:11:14Z</time></trkpt><trkpt lat="45.92108034028796" lon="12.06126870538427"><ele>448.0</ele><time>2026-04-26T08:11:15Z</time></trkpt><trkpt lat="45.92098511976251" lon="12.06134452020157"><ele>446.5</ele><time>2026-04-26T08:11:16Z</time></trkpt><trkpt lat="45.92087014234412" lon="12.06142500356911"><ele>445.0</ele><time>2026-04-26T08:11:17Z</time></trkpt><trkpt lat="45.92077932394622" lon="12.061500707985573"><ele>443.5</ele><time>2026-04-26T08:11:18Z</time></trkpt><trkpt lat="45.92070241691735" lon="12.061619501937693"><ele>442.0</ele><time>2026-04-26T08:11:19Z</time></trkpt><trkpt lat="45.92061654923306" lon="12.061756800504194"><ele>437.0</ele><time>2026-04-26T08:11:20Z</time></trkpt><trkpt lat="45.92055583172315" lon="12.061963377907654"><ele>432.0</ele><time>2026-04-26T08:11:21Z</time></trkpt><trkpt lat="45.92051999594846" lon="12.062106150210692"><ele>427.0</ele><time>2026-04-26T08:11:22Z</time></trkpt><trkpt lat="45.9204880927614" lon="12.062255514015327"><ele>422.0</ele><time>2026-04-26T08:11:23Z</time></trkpt><trkpt lat="45.92041368478223" lon="12.062386795050724"><ele>423.75</ele><time>2026-04-26T08:11:24Z</time></trkpt><trkpt lat="45.92031775685014" lon="12.062524463931853"><ele>425.5</ele><time>2026-04-26T08:11:25Z</time></trkpt><trkpt lat="45.92020556531953" lon="12.062661436080116"><ele>427.25</ele><time>2026-04-26T08:11:26Z</time></trkpt><trkpt lat="45.9201051964113" lon="12.062773760149518"><ele>429.0</ele><time>2026-04-26T08:11:27Z</time></trkpt><trkpt lat="45.920008433223366" lon="12.062874583490936"><ele>429.0</ele><time>2026-04-26T08:11:28Z</time></trkpt><trkpt lat="45.919931207500056" lon="12.062971771915656"><ele>429.0</ele><time>2026-04-26T08:11:29Z</time></trkpt><trkpt lat="45.919852893028725" lon="12.063053513781698"><ele>429.0</ele><time>2026-04-26T08:11:30Z</time></trkpt><trkpt lat="45.919772388021244" lon="12.06310501087097"><ele>429.0</ele><time>2026-04-26T08:11:31Z</time></trkpt><trkpt lat="45.91968837023255" lon="12.063118760693122"><ele>429.0</ele><time>2026-04-26T08:11:32Z</time></trkpt><trkpt lat="45.91960624885421" lon="12.06309781079939"><ele>429.0</ele><time>2026-04-26T08:11:33Z</time></trkpt><trkpt lat="45.91947236473152" lon="12.063043086632725"><ele>429.0</ele><time>2026-04-26T08:11:34Z</time></trkpt><trkpt lat="45.9193515994228" lon="12.06295672084568"><ele>429.0</ele><time>2026-04-26T08:11:35Z</time></trkpt><trkpt lat="45.919209559422235" lon="12.062888613134804"><ele>429.0</ele><time>2026-04-26T08:11:36Z</time></trkpt><trkpt lat="45.91905360839262" lon="12.062794426159977"><ele>428.0</ele><time>2026-04-26T08:11:37Z</time></trkpt><trkpt lat="45.91890376993584" lon="12.06272172344214"><ele>427.0</ele><time>2026-04-26T08:11:38Z</time></trkpt><trkpt lat="45.91876696217265" lon="12.062641071726953"><ele>426.0</ele><time>2026-04-26T08:11:39Z</time></trkpt><trkpt lat="45.91863765119369" lon="12.062561102293374"><ele>425.0</ele><time>2026-04-26T08:11:40Z</time></trkpt><trkpt lat="45.91851385885152" lon="12.06249159403995"><ele>427.0</ele><time>2026-04-26T08:11:41Z</time></trkpt><trkpt lat="45.91839941956085" lon="12.062417434193508"><ele>429.0</ele><time>2026-04-26T08:11:42Z</time></trkpt><trkpt lat="45.91829032155327" lon="12.06233900440569"><ele>431.0</ele><time>2026-04-26T08:11:43Z</time></trkpt><trkpt lat="45.91819480649464" lon="12.062267747268017"><ele>433.0</ele><time>2026-04-26T08:11:44Z</time></trkpt><trkpt lat="45.91810998761017" lon="12.062211209245818"><ele>435.0</ele><time>2026-04-26T08:11:45Z</time></trkpt><trkpt lat="45.91801858308806" lon="12.06218098044198"><ele>435.0</ele><time>2026-04-26T08:11:46Z</time></trkpt><trkpt lat="45.91791925252246" lon="12.06218244484135"><ele>435.0</ele><time>2026-04-26T08:11:47Z</time></trkpt><trkpt lat="45.917806071745666" lon="12.0622416988831"><ele>435.0</ele><time>2026-04-26T08:11:48Z</time></trkpt><trkpt lat="45.91771032814683" lon="12.06233557976246"><ele>435.0</ele><time>2026-04-26T08:11:49Z</time></trkpt><trkpt lat="45.917633029438726" lon="12.062438545378527"><ele>435.0</ele><time>2026-04-26T08:11:50Z</time></trkpt><trkpt lat="45.917562755258096" lon="12.0624980614158"><ele>429.8</ele><time>2026-04-26T08:11:51Z</time></trkpt><trkpt lat="45.91749137330984" lon="12.062532321258374"><ele>424.6</ele><time>2026-04-26T08:11:52Z</time></trkpt><trkpt lat="45.917404608832584" lon="12.062536047592578"><ele>419.4</ele><time>2026-04-26T08:11:53Z</time></trkpt><trkpt lat="45.9172833183339" lon="12.06249420793515"><ele>414.2</ele><time>2026-04-26T08:11:54Z</time></trkpt><trkpt lat="45.91718042367519" lon="12.062453674977156"><ele>409.0</ele><time>2026-04-26T08:11:55Z</time></trkpt><trkpt lat="45.9170844145643" lon="12.062420704032203"><ele>409.00000000000006</ele><time>2026-04-26T08:11:56Z</time></trkpt><trkpt lat="45.916999934117136" lon="12.06240480819955"><ele>409.0</ele><time>2026-04-26T08:11:57Z</time></trkpt><trkpt lat="45.91693217355444" lon="12.062362643707955"><ele>409.0</ele><time>2026-04-26T08:11:58Z</time></trkpt><trkpt lat="45.916870774885375" lon="12.062288128368476"><ele>409.0</ele><time>2026-04-26T08:11:59Z</time></trkpt><trkpt lat="45.91682521880361" lon="12.062182727512564"><ele>409.00000000000006</ele><time>2026-04-26T08:12:00Z</time></trkpt><trkpt lat="45.91678892197744" lon="12.062026052408108"><ele>409.0</ele><time>2026-04-26T08:12:01Z</time></trkpt><trkpt lat="45.916820845072" lon="12.061831548765495"><ele>411.25</ele><time>2026-04-26T08:12:02Z</time></trkpt><trkpt lat="45.91683148527722" lon="12.061591176925893"><ele>413.5</ele><time>2026-04-26T08:12:03Z</time></trkpt><trkpt lat="45.91683860108865" lon="12.06143070098188"><ele>415.75</ele><time>2026-04-26T08:12:04Z</time></trkpt><trkpt lat="45.91684524204772" lon="12.061280933551568"><ele>418.0</ele><time>2026-04-26T08:12:05Z</time></trkpt><trkpt lat="45.91684993307079" lon="12.06117514152136"><ele>418.0</ele><time>2026-04-26T08:12:06Z</time></trkpt><trkpt lat="45.91685496824542" lon="12.061066114071124"><ele>418.0</ele><time>2026-04-26T08:12:07Z</time></trkpt><trkpt lat="45.916862715710934" lon="12.060908397762388"><ele>418.0</ele><time>2026-04-26T08:12:08Z</time></trkpt><trkpt lat="45.91686719934959" lon="12.060752440602865"><ele>418.0</ele><time>2026-04-26T08:12:09Z</time></trkpt><trkpt lat="45.91686720942607" lon="12.060615622257831"><ele>418.0</ele><time>2026-04-26T08:12:10Z</time></trkpt><trkpt lat="45.916854782230054" lon="12.060486499587462"><ele>421.5</ele><time>2026-04-26T08:12:11Z</time></trkpt><trkpt lat="45.91681882508341" lon="12.060350112611236"><ele>425.0</ele><time>2026-04-26T08:12:12Z</time></trkpt><trkpt lat="45.91673415972371" lon="12.060215086867865"><ele>428.5</ele><time>2026-04-26T08:12:13Z</time></trkpt><trkpt lat="45.916615337831516" lon="12.06010387999587"><ele>432.0</ele><time>2026-04-26T08:12:14Z</time></trkpt><trkpt lat="45.91646229387073" lon="12.059996487594772"><ele>426.75</ele><time>2026-04-26T08:12:15Z</time></trkpt><trkpt lat="45.91633306369803" lon="12.05990844722192"><ele>421.5</ele><time>2026-04-26T08:12:16Z</time></trkpt><trkpt lat="45.91621936028776" lon="12.059849457065035"><ele>416.25</ele><time>2026-04-26T08:12:17Z</time></trkpt><trkpt lat="45.91609101823434" lon="12.059761735089738"><ele>411.0</ele><time>2026-04-26T08:12:18Z</time></trkpt><trkpt lat="45.91596652067655" lon="12.059684853059084"><ele>403.25</ele><time>2026-04-26T08:12:19Z</time></trkpt><trkpt lat="45.915850624549265" lon="12.05960311063892"><ele>395.5</ele><time>2026-04-26T08:12:20Z</time></trkpt><trkpt lat="45.91573808601697" lon="12.05952246784001"><ele>387.75</ele><time>2026-04-26T08:12:21Z</time></trkpt><trkpt lat="45.91563198595602" lon="12.059462392836425"><ele>380.0</ele><time>2026-04-26T08:12:22Z</time></trkpt><trkpt lat="45.91552555683125" lon="12.059422988056207"><ele>380.0</ele><time>2026-04-26T08:12:23Z</time></trkpt><trkpt lat="45.9154242903538" lon="12.059421910886707"><ele>380.0</ele><time>2026-04-26T08:12:24Z</time></trkpt><trkpt lat="45.91533108387223" lon="12.059447343586172"><ele>380.0</ele><time>2026-04-26T08:12:25Z</time></trkpt><trkpt lat="45.91525079202897" lon="12.059459365336592"><ele>380.0</ele><time>2026-04-26T08:12:26Z</time></trkpt><trkpt lat="45.915176299773165" lon="12.059461469005274"><ele>380.0</ele><time>2026-04-26T08:12:27Z</time></trkpt><trkpt lat="45.91509846130934" lon="12.059439276917232"><ele>380.0</ele><time>2026-04-26T08:12:28Z</time></trkpt><trkpt lat="45.91502075999304" lon="12.059402965838467"><ele>376.6666666666667</ele><time>2026-04-26T08:12:29Z</time></trkpt><trkpt lat="45.91495172031839" lon="12.059334258318495"><ele>373.33333333333337</ele><time>2026-04-26T08:12:30Z</time></trkpt><trkpt lat="45.914883999299185" lon="12.059240284697827"><ele>370.0</ele><time>2026-04-26T08:12:31Z</time></trkpt><trkpt lat="45.914832284715736" lon="12.059164247684597"><ele>366.6666666666667</ele><time>2026-04-26T08:12:32Z</time></trkpt><trkpt lat="45.91480113871573" lon="12.059083357680835"><ele>363.3333333333333</ele><time>2026-04-26T08:12:33Z</time></trkpt><trkpt lat="45.914808547212374" lon="12.05898774593813"><ele>360.0</ele><time>2026-04-26T08:12:34Z</time></trkpt><trkpt lat="45.91484304866949" lon="12.058898724629007"><ele>359.4</ele><time>2026-04-26T08:12:35Z</time></trkpt><trkpt lat="45.914910541488574" lon="12.058816694033833"><ele>358.8</ele><time>2026-04-26T08:12:36Z</time></trkpt><trkpt lat="45.914983462442024" lon="12.05872931452642"><ele>358.20000000000005</ele><time>2026-04-26T08:12:37Z</time></trkpt><trkpt lat="45.915034768879494" lon="12.058644729387968"><ele>357.6</ele><time>2026-04-26T08:12:38Z</time></trkpt><trkpt lat="45.915073914338215" lon="12.05849994453826"><ele>357.0</ele><time>2026-04-26T08:12:39Z</time></trkpt><trkpt lat="45.9150963361862" lon="12.058338384403577"><ele>363.0</ele><time>2026-04-26T08:12:40Z</time></trkpt><trkpt lat="45.91510145464519" lon="12.058162723082717"><ele>369.0</ele><time>2026-04-26T08:12:41Z</time></trkpt><trkpt lat="45.91509826208669" lon="12.057991794534727"><ele>375.0</ele><time>2026-04-26T08:12:42Z</time></trkpt><trkpt lat="45.915105039601244" lon="12.05783081997379"><ele>381.0</ele><time>2026-04-26T08:12:43Z</time></trkpt><trkpt lat="45.91511682046383" lon="12.057665196658975"><ele>381.0</ele><time>2026-04-26T08:12:44Z</time></trkpt><trkpt lat="45.91512582428947" lon="12.057503095203549"><ele>381.0</ele><time>2026-04-26T08:12:45Z</time></trkpt><trkpt lat="45.91513982547913" lon="12.057347816042459"><ele>381.0</ele><time>2026-04-26T08:12:46Z</time></trkpt><trkpt lat="45.91513379557611" lon="12.057222849797226"><ele>381.0</ele><time>2026-04-26T08:12:47Z</time></trkpt><trkpt lat="45.91512438968852" lon="12.057119947796117"><ele>381.0</ele><time>2026-04-26T08:12:48Z</time></trkpt><trkpt lat="45.91509291805048" lon="12.057040222609613"><ele>381.0</ele><time>2026-04-26T08:12:49Z</time></trkpt><trkpt lat="45.91505203901514" lon="12.056942795991278"><ele>375.20000000000005</ele><time>2026-04-26T08:12:50Z</time></trkpt><trkpt lat="45.9149879796173" lon="12.056848745393072"><ele>369.40000000000003</ele><time>2026-04-26T08:12:51Z</time></trkpt><trkpt lat="45.91489956727577" lon="12.056762891848045"><ele>363.6</ele><time>2026-04-26T08:12:52Z</time></trkpt><trkpt lat="45.91480441498692" lon="12.056665897548617"><ele>357.8</ele><time>2026-04-26T08:12:53Z</time></trkpt><trkpt lat="45.91471459242988" lon="12.056574601878609"><ele>352.0</ele><time>2026-04-26T08:12:54Z</time></trkpt><trkpt lat="45.91463302409352" lon="12.056488647080776"><ele>351.5</ele><time>2026-04-26T08:12:55Z</time></trkpt><trkpt lat="45.914556097370074" lon="12.056409913005085"><ele>351.0</ele><time>2026-04-26T08:12:56Z</time></trkpt><trkpt lat="45.91448532869772" lon="12.056335747127575"><ele>350.5</ele><time>2026-04-26T08:12:57Z</time></trkpt><trkpt lat="45.91442576833481" lon="12.056268105973853"><ele>350.0</ele><time>2026-04-26T08:12:58Z</time></trkpt><trkpt lat="45.91436798342865" lon="12.056196837973312"><ele>349.5</ele><time>2026-04-26T08:12:59Z</time></trkpt><trkpt lat="45.91434332539261" lon="12.056098676288272"><ele>349.0</ele><time>2026-04-26T08:13:00Z</time></trkpt><trkpt lat="45.914349442948534" lon="12.055988659937174"><ele>349.0</ele><time>2026-04-26T08:13:01Z</time></trkpt><trkpt lat="45.91438510123986" lon="12.055895879534283"><ele>349.0</ele><time>2026-04-26T08:13:02Z</time></trkpt><trkpt lat="45.91444229993697" lon="12.055835865165266"><ele>349.0</ele><time>2026-04-26T08:13:03Z</time></trkpt><trkpt lat="45.91453609282863" lon="12.055787995608652"><ele>349.0</ele><time>2026-04-26T08:13:04Z</time></trkpt><trkpt lat="45.91462947569808" lon="12.055771910271936"><ele>349.0</ele><time>2026-04-26T08:13:05Z</time></trkpt><trkpt lat="45.91471237121395" lon="12.055767958293368"><ele>349.0</ele><time>2026-04-26T08:13:06Z</time></trkpt><trkpt lat="45.91478646298263" lon="12.055749230348136"><ele>347.66666666666663</ele><time>2026-04-26T08:13:07Z</time></trkpt><trkpt lat="45.91485236468443" lon="12.055717781134836"><ele>346.3333333333333</ele><time>2026-04-26T08:13:08Z</time></trkpt><trkpt lat="45.914911462151466" lon="12.055671384586383"><ele>345.0</ele><time>2026-04-26T08:13:09Z</time></trkpt><trkpt lat="45.91495350722317" lon="12.055593839171646"><ele>343.6666666666667</ele><time>2026-04-26T08:13:10Z</time></trkpt><trkpt lat="45.914971592660066" lon="12.055490587473619"><ele>342.33333333333337</ele><time>2026-04-26T08:13:11Z</time></trkpt><trkpt lat="45.914959988532765" lon="12.055361494507643"><ele>341.0</ele><time>2026-04-26T08:13:12Z</time></trkpt><trkpt lat="45.91492137037967" lon="12.055203489573438"><ele>341.0</ele><time>2026-04-26T08:13:13Z</time></trkpt><trkpt lat="45.91487452778465" lon="12.05500958196375"><ele>341.0</ele><time>2026-04-26T08:13:14Z</time></trkpt><trkpt lat="45.914837399068446" lon="12.054846506172213"><ele>341.0</ele><time>2026-04-26T08:13:15Z</time></trkpt><trkpt lat="45.91480307242258" lon="12.054695350999987"><ele>341.0</ele><time>2026-04-26T08:13:16Z</time></trkpt><trkpt lat="45.914777488617325" lon="12.054539751773909"><ele>340.4</ele><time>2026-04-26T08:13:17Z</time></trkpt><trkpt lat="45.91475225306662" lon="12.054407358948753"><ele>339.8</ele><time>2026-04-26T08:13:18Z</time></trkpt><trkpt lat="45.914732694334724" lon="12.054276714126257"><ele>339.2</ele><time>2026-04-26T08:13:19Z</time></trkpt><trkpt lat="45.914701614963185" lon="12.054163518984303"><ele>338.59999999999997</ele><time>2026-04-26T08:13:20Z</time></trkpt><trkpt lat="45.91466702526236" lon="12.054036502138672"><ele>338.0</ele><time>2026-04-26T08:13:21Z</time></trkpt><trkpt lat="45.91459588479067" lon="12.05388917734197"><ele>339.75</ele><time>2026-04-26T08:13:22Z</time></trkpt><trkpt lat="45.914507223643376" lon="12.053726262128151"><ele>341.5</ele><time>2026-04-26T08:13:23Z</time></trkpt><trkpt lat="45.914434744279404" lon="12.053582181716479"><ele>343.25</ele><time>2026-04-26T08:13:24Z</time></trkpt><trkpt lat="45.914369562159784" lon="12.05346146267502"><ele>345.0</ele><time>2026-04-26T08:13:25Z</time></trkpt><trkpt lat="45.914301746583725" lon="12.053349407781196"><ele>344.2</ele><time>2026-04-26T08:13:26Z</time></trkpt><trkpt lat="45.9142409762839" lon="12.053237184993273"><ele>343.4</ele><time>2026-04-26T08:13:27Z</time></trkpt><trkpt lat="45.91417650649115" lon="12.053112408504832"><ele>342.6</ele><time>2026-04-26T08:13:28Z</time></trkpt><trkpt lat="45.91411468420656" lon="12.052992605238758"><ele>341.8</ele><time>2026-04-26T08:13:29Z</time></trkpt><trkpt lat="45.9140581913787" lon="12.05287975912882"><ele>341.0</ele><time>2026-04-26T08:13:30Z</time></trkpt><trkpt lat="45.913990168694475" lon="12.052788748553585"><ele>341.0</ele><time>2026-04-26T08:13:31Z</time></trkpt><trkpt lat="45.9139226813289" lon="12.052720174154686"><ele>341.0</ele><time>2026-04-26T08:13:32Z</time></trkpt><trkpt lat="45.91383665162733" lon="12.05267408718104"><ele>341.0</ele><time>2026-04-26T08:13:33Z</time></trkpt><trkpt lat="45.91372175187326" lon="12.052686350579187"><ele>341.0</ele><time>2026-04-26T08:13:34Z</time></trkpt><trkpt lat="45.913592399063035" lon="12.052711402585265"><ele>341.0</ele><time>2026-04-26T08:13:35Z</time></trkpt><trkpt lat="45.91344425003093" lon="12.052761554059698"><ele>337.33333333333337</ele><time>2026-04-26T08:13:36Z</time></trkpt><trkpt lat="45.913283597712535" lon="12.052797826739345"><ele>333.6666666666667</ele><time>2026-04-26T08:13:37Z</time></trkpt><trkpt lat="45.91312832813985" lon="12.052836211343847"><ele>330.0</ele><time>2026-04-26T08:13:38Z</time></trkpt><trkpt lat="45.91297782194455" lon="12.052865906199457"><ele>330.0</ele><time>2026-04-26T08:13:39Z</time></trkpt><trkpt lat="45.91283984008837" lon="12.052885542734275"><ele>330.0</ele><time>2026-04-26T08:13:40Z</time></trkpt><trkpt lat="45.912707627587125" lon="12.052909924820819"><ele>330.0</ele><time>2026-04-26T08:13:41Z</time></trkpt><trkpt lat="45.91258329370678" lon="12.052941977219284"><ele>330.0</ele><time>2026-04-26T08:13:42Z</time></trkpt><trkpt lat="45.912463764675586" lon="12.05296268957588"><ele>329.2</ele><time>2026-04-26T08:13:43Z</time></trkpt><trkpt lat="45.91234675859415" lon="12.052982110824777"><ele>328.4</ele><time>2026-04-26T08:13:44Z</time></trkpt><trkpt lat="45.91223910942551" lon="12.0530074204749"><ele>327.6</ele><time>2026-04-26T08:13:45Z</time></trkpt><trkpt lat="45.91213537922902" lon="12.05302898185407"><ele>326.8</ele><time>2026-04-26T08:13:46Z</time></trkpt><trkpt lat="45.91203451181183" lon="12.053064276914235"><ele>326.0</ele><time>2026-04-26T08:13:47Z</time></trkpt><trkpt lat="45.91194458775464" lon="12.053155265788504"><ele>326.0</ele><time>2026-04-26T08:13:48Z</time></trkpt><trkpt lat="45.91186219342001" lon="12.053267951154668"><ele>326.0</ele><time>2026-04-26T08:13:49Z</time></trkpt><trkpt lat="45.91178677092139" lon="12.053374421555898"><ele>326.0</ele><time>2026-04-26T08:13:50Z</time></trkpt><trkpt lat="45.91169512662727" lon="12.053443475285333"><ele>326.0</ele><time>2026-04-26T08:13:51Z</time></trkpt><trkpt lat="45.91159113089067" lon="12.053502999683445"><ele>326.0</ele><time>2026-04-26T08:13:52Z</time></trkpt><trkpt lat="45.91148429793173" lon="12.053538013641994"><ele>324.0</ele><time>2026-04-26T08:13:53Z</time></trkpt><trkpt lat="45.911379887758166" lon="12.053549502364616"><ele>322.0</ele><time>2026-04-26T08:13:54Z</time></trkpt><trkpt lat="45.91126447270218" lon="12.053553729637288"><ele>320.0</ele><time>2026-04-26T08:13:55Z</time></trkpt><trkpt lat="45.91114996261245" lon="12.053535609185888"><ele>318.0</ele><time>2026-04-26T08:13:56Z</time></trkpt><trkpt lat="45.911046082891716" lon="12.053530869736623"><ele>316.0</ele><time>2026-04-26T08:13:57Z</time></trkpt><trkpt lat="45.91094243412563" lon="12.053537043676378"><ele>314.40000000000003</ele><time>2026-04-26T08:13:58Z</time></trkpt><trkpt lat="45.91085177750438" lon="12.053536667306878"><ele>312.8</ele><time>2026-04-26T08:13:59Z</time></trkpt><trkpt lat="45.91076039283571" lon="12.0535395846521"><ele>311.20000000000005</ele><time>2026-04-26T08:14:00Z</time></trkpt><trkpt lat="45.91066424096841" lon="12.053527540642389"><ele>309.6</ele><time>2026-04-26T08:14:01Z</time></trkpt><trkpt lat="45.910565368898915" lon="12.053486804895977"><ele>308.0</ele><time>2026-04-26T08:14:02Z</time></trkpt><trkpt lat="45.910479181279165" lon="12.05341027642764"><ele>308.0</ele><time>2026-04-26T08:14:03Z</time></trkpt><trkpt lat="45.91038719235199" lon="12.053298341877584"><ele>308.0</ele><time>2026-04-26T08:14:04Z</time></trkpt><trkpt lat="45.91029488860693" lon="12.053162898607978"><ele>308.0</ele><time>2026-04-26T08:14:05Z</time></trkpt><trkpt lat="45.91019203966994" lon="12.053021694843912"><ele>308.0</ele><time>2026-04-26T08:14:06Z</time></trkpt><trkpt lat="45.910099286085526" lon="12.05290001306968"><ele>308.25</ele><time>2026-04-26T08:14:07Z</time></trkpt><trkpt lat="45.91001618352095" lon="12.052782804774195"><ele>308.5</ele><time>2026-04-26T08:14:08Z</time></trkpt><trkpt lat="45.909927324406496" lon="12.052650111402494"><ele>308.75</ele><time>2026-04-26T08:14:09Z</time></trkpt><trkpt lat="45.90983540181159" lon="12.052480570097163"><ele>309.0</ele><time>2026-04-26T08:14:10Z</time></trkpt><trkpt lat="45.909740407604374" lon="12.052271595522411"><ele>314.5</ele><time>2026-04-26T08:14:11Z</time></trkpt><trkpt lat="45.909668993864756" lon="12.05209916492163"><ele>320.0</ele><time>2026-04-26T08:14:12Z</time></trkpt><trkpt lat="45.909593088517994" lon="12.051950856939754"><ele>325.5</ele><time>2026-04-26T08:14:13Z</time></trkpt><trkpt lat="45.909524946347716" lon="12.05182396991421"><ele>331.0</ele><time>2026-04-26T08:14:14Z</time></trkpt><trkpt lat="45.90945538522241" lon="12.051708970655321"><ele>328.2</ele><time>2026-04-26T08:14:15Z</time></trkpt><trkpt lat="45.90938397295685" lon="12.051606189343211"><ele>325.40000000000003</ele><time>2026-04-26T08:14:16Z</time></trkpt><trkpt lat="45.909311454513066" lon="12.051499459668296"><ele>322.6</ele><time>2026-04-26T08:14:17Z</time></trkpt><trkpt lat="45.9092386764865" lon="12.051383545406654"><ele>319.8</ele><time>2026-04-26T08:14:18Z</time></trkpt><trkpt lat="45.90916304987328" lon="12.051258013240098"><ele>317.0</ele><time>2026-04-26T08:14:19Z</time></trkpt><trkpt lat="45.90908721686827" lon="12.051123062444322"><ele>317.0</ele><time>2026-04-26T08:14:20Z</time></trkpt><trkpt lat="45.909007968093356" lon="12.050990712664223"><ele>317.0</ele><time>2026-04-26T08:14:21Z</time></trkpt><trkpt lat="45.908932338102794" lon="12.050852321816322"><ele>317.0</ele><time>2026-04-26T08:14:22Z</time></trkpt><trkpt lat="45.908869583886926" lon="12.050731004771254"><ele>317.0</ele><time>2026-04-26T08:14:23Z</time></trkpt><trkpt lat="45.90880633427758" lon="12.050624386695262"><ele>317.0</ele><time>2026-04-26T08:14:24Z</time></trkpt><trkpt lat="45.908749531875685" lon="12.050521507424373"><ele>320.2</ele><time>2026-04-26T08:14:25Z</time></trkpt><trkpt lat="45.90869225401781" lon="12.050413913331125"><ele>323.4</ele><time>2026-04-26T08:14:26Z</time></trkpt><trkpt lat="45.908633567494654" lon="12.050306862004378"><ele>326.59999999999997</ele><time>2026-04-26T08:14:27Z</time></trkpt><trkpt lat="45.908566982669825" lon="12.050187099598768"><ele>329.79999999999995</ele><time>2026-04-26T08:14:28Z</time></trkpt><trkpt lat="45.90849676219929" lon="12.050066047380808"><ele>333.0</ele><time>2026-04-26T08:14:29Z</time></trkpt><trkpt lat="45.908420621125586" lon="12.049943436330713"><ele>330.5</ele><time>2026-04-26T08:14:30Z</time></trkpt><trkpt lat="45.90833467879401" lon="12.04982759160322"><ele>328.0</ele><time>2026-04-26T08:14:31Z</time></trkpt><trkpt lat="45.90823303612232" lon="12.04972019942739"><ele>325.5</ele><time>2026-04-26T08:14:32Z</time></trkpt><trkpt lat="45.90812105051646" lon="12.04961547332154"><ele>323.0</ele><time>2026-04-26T08:14:33Z</time></trkpt><trkpt lat="45.908001390704136" lon="12.049518678869044"><ele>323.0</ele><time>2026-04-26T08:14:34Z</time></trkpt><trkpt lat="45.90789599583937" lon="12.04942423827732"><ele>323.0</ele><time>2026-04-26T08:14:35Z</time></trkpt><trkpt lat="45.907793658310865" lon="12.04934719188306"><ele>323.0</ele><time>2026-04-26T08:14:36Z</time></trkpt><trkpt lat="45.90769888931384" lon="12.049255682013026"><ele>323.0</ele><time>2026-04-26T08:14:37Z</time></trkpt><trkpt lat="45.907581546885446" lon="12.049189276050999"><ele>324.0</ele><time>2026-04-26T08:14:38Z</time></trkpt><trkpt lat="45.90745116158842" lon="12.049148192417999"><ele>325.0</ele><time>2026-04-26T08:14:39Z</time></trkpt><trkpt lat="45.907320469648724" lon="12.0491129846342"><ele>326.0</ele><time>2026-04-26T08:14:40Z</time></trkpt><trkpt lat="45.907200348794255" lon="12.049088423370971"><ele>327.0</ele><time>2026-04-26T08:14:41Z</time></trkpt><trkpt lat="45.90709329483681" lon="12.049055497484176"><ele>327.0</ele><time>2026-04-26T08:14:42Z</time></trkpt><trkpt lat="45.90698072786385" lon="12.049023305728738"><ele>327.0</ele><time>2026-04-26T08:14:43Z</time></trkpt><trkpt lat="45.90685805600278" lon="12.048989627230045"><ele>327.0</ele><time>2026-04-26T08:14:44Z</time></trkpt><trkpt lat="45.9067382725012" lon="12.048951177415058"><ele>327.0</ele><time>2026-04-26T08:14:45Z</time></trkpt><trkpt lat="45.90663207088965" lon="12.048909515381258"><ele>324.0</ele><time>2026-04-26T08:14:46Z</time></trkpt><trkpt lat="45.90654160979321" lon="12.048866207916495"><ele>321.0</ele><time>2026-04-26T08:14:47Z</time></trkpt><trkpt lat="45.906459827940296" lon="12.048811887717497"><ele>318.0</ele><time>2026-04-26T08:14:48Z</time></trkpt><trkpt lat="45.90638095350931" lon="12.048707154463516"><ele>315.0</ele><time>2026-04-26T08:14:49Z</time></trkpt><trkpt lat="45.90631296153652" lon="12.048601661092206"><ele>312.0</ele><time>2026-04-26T08:14:50Z</time></trkpt><trkpt lat="45.90626131034786" lon="12.04847090234544"><ele>312.0</ele><time>2026-04-26T08:14:51Z</time></trkpt><trkpt lat="45.90622296521119" lon="12.048312277528522"><ele>312.0</ele><time>2026-04-26T08:14:52Z</time></trkpt><trkpt lat="45.90619540918337" lon="12.04812964578899"><ele>312.0</ele><time>2026-04-26T08:14:53Z</time></trkpt><trkpt lat="45.90617887948701" lon="12.04792845718985"><ele>312.0</ele><time>2026-04-26T08:14:54Z</time></trkpt><trkpt lat="45.90616718854303" lon="12.04775896173555"><ele>312.6</ele><time>2026-04-26T08:14:55Z</time></trkpt><trkpt lat="45.906156981869316" lon="12.0476073670605"><ele>313.2</ele><time>2026-04-26T08:14:56Z</time></trkpt><trkpt lat="45.90613955524869" lon="12.047487216949682"><ele>313.8</ele><time>2026-04-26T08:14:57Z</time></trkpt><trkpt lat="45.90612997960849" lon="12.047325010410594"><ele>314.4</ele><time>2026-04-26T08:14:58Z</time></trkpt><trkpt lat="45.90610624722767" lon="12.047180841599308"><ele>315.0</ele><time>2026-04-26T08:14:59Z</time></trkpt><trkpt lat="45.906062925999116" lon="12.047027301533856"><ele>316.0</ele><time>2026-04-26T08:15:00Z</time></trkpt><trkpt lat="45.906006403792176" lon="12.046867929785499"><ele>317.0</ele><time>2026-04-26T08:15:01Z</time></trkpt><trkpt lat="45.905942018392246" lon="12.046713257090621"><ele>318.0</ele><time>2026-04-26T08:15:02Z</time></trkpt><trkpt lat="45.90589111931127" lon="12.046565218532779"><ele>319.0</ele><time>2026-04-26T08:15:03Z</time></trkpt><trkpt lat="45.905850252199286" lon="12.046429211165105"><ele>316.4</ele><time>2026-04-26T08:15:04Z</time></trkpt><trkpt lat="45.90582176644735" lon="12.04628447910872"><ele>313.79999999999995</ele><time>2026-04-26T08:15:05Z</time></trkpt><trkpt lat="45.90581238840696" lon="12.046133650173351"><ele>311.20000000000005</ele><time>2026-04-26T08:15:06Z</time></trkpt><trkpt lat="45.905797534313386" lon="12.045975585466275"><ele>308.6</ele><time>2026-04-26T08:15:07Z</time></trkpt><trkpt lat="45.90579072586642" lon="12.045816809410145"><ele>306.0</ele><time>2026-04-26T08:15:08Z</time></trkpt><trkpt lat="45.9057637434287" lon="12.045651807948127"><ele>306.0</ele><time>2026-04-26T08:15:09Z</time></trkpt><trkpt lat="45.90572087671147" lon="12.045491070829177"><ele>306.0</ele><time>2026-04-26T08:15:10Z</time></trkpt><trkpt lat="45.905660500359325" lon="12.045334618973907"><ele>306.0</ele><time>2026-04-26T08:15:11Z</time></trkpt><trkpt lat="45.905600724412565" lon="12.045171624877174"><ele>306.0</ele><time>2026-04-26T08:15:12Z</time></trkpt><trkpt lat="45.90552820336654" lon="12.045018232259023"><ele>307.8</ele><time>2026-04-26T08:15:13Z</time></trkpt><trkpt lat="45.905471185659245" lon="12.044877177227702"><ele>309.6</ele><time>2026-04-26T08:15:14Z</time></trkpt><trkpt lat="45.905415325235154" lon="12.044747715571175"><ele>311.4</ele><time>2026-04-26T08:15:15Z</time></trkpt><trkpt lat="45.90536497847627" lon="12.044613382216271"><ele>313.2</ele><time>2026-04-26T08:15:16Z</time></trkpt><trkpt lat="45.90532148293639" lon="12.04446574499724"><ele>315.0</ele><time>2026-04-26T08:15:17Z</time></trkpt><trkpt lat="45.905290124691845" lon="12.044301708478383"><ele>315.0</ele><time>2026-04-26T08:15:18Z</time></trkpt><trkpt lat="45.90527178246303" lon="12.044130173036573"><ele>315.0</ele><time>2026-04-26T08:15:19Z</time></trkpt><trkpt lat="45.90525340549318" lon="12.043975469372873"><ele>315.0</ele><time>2026-04-26T08:15:20Z</time></trkpt><trkpt lat="45.90522738789652" lon="12.043821990880122"><ele>315.0</ele><time>2026-04-26T08:15:21Z</time></trkpt><trkpt lat="45.90517953354266" lon="12.043673347516366"><ele>316.75</ele><time>2026-04-26T08:15:22Z</time></trkpt><trkpt lat="45.90510981432732" lon="12.043507095588124"><ele>318.5</ele><time>2026-04-26T08:15:23Z</time></trkpt><trkpt lat="45.90503976582709" lon="12.04339233914481"><ele>320.25</ele><time>2026-04-26T08:15:24Z</time></trkpt><trkpt lat="45.90497672123803" lon="12.043257023287246"><ele>322.0</ele><time>2026-04-26T08:15:25Z</time></trkpt><trkpt lat="45.90492626109267" lon="12.043126961024475"><ele>318.0</ele><time>2026-04-26T08:15:26Z</time></trkpt><trkpt lat="45.90488455262838" lon="12.04297688329174"><ele>314.0</ele><time>2026-04-26T08:15:27Z</time></trkpt><trkpt lat="45.904852441227845" lon="12.04280958472188"><ele>310.0</ele><time>2026-04-26T08:15:28Z</time></trkpt><trkpt lat="45.90484961685506" lon="12.042644236519086"><ele>306.0</ele><time>2026-04-26T08:15:29Z</time></trkpt><trkpt lat="45.90485090471623" lon="12.042500819927866"><ele>302.0</ele><time>2026-04-26T08:15:30Z</time></trkpt><trkpt lat="45.90486344136325" lon="12.042379640653902"><ele>300.8</ele><time>2026-04-26T08:15:31Z</time></trkpt><trkpt lat="45.90489542660828" lon="12.042258672089215"><ele>299.6</ele><time>2026-04-26T08:15:32Z</time></trkpt><trkpt lat="45.90493950679742" lon="12.042140968943835"><ele>298.40000000000003</ele><time>2026-04-26T08:15:33Z</time></trkpt><trkpt lat="45.905011019572015" lon="12.042033587212469"><ele>297.2</ele><time>2026-04-26T08:15:34Z</time></trkpt><trkpt lat="45.90509850996871" lon="12.04190232365054"><ele>296.0</ele><time>2026-04-26T08:15:35Z</time></trkpt><trkpt lat="45.905190964915846" lon="12.04177803466553"><ele>303.75</ele><time>2026-04-26T08:15:36Z</time></trkpt><trkpt lat="45.9052801017363" lon="12.041654138602398"><ele>311.5</ele><time>2026-04-26T08:15:37Z</time></trkpt><trkpt lat="45.90535121484995" lon="12.041535161037443"><ele>319.25</ele><time>2026-04-26T08:15:38Z</time></trkpt><trkpt lat="45.90540116873362" lon="12.041398192496194"><ele>327.0</ele><time>2026-04-26T08:15:39Z</time></trkpt><trkpt lat="45.90543108455962" lon="12.041238533768666"><ele>327.0</ele><time>2026-04-26T08:15:40Z</time></trkpt><trkpt lat="45.905452973244174" lon="12.041120097498753"><ele>327.0</ele><time>2026-04-26T08:15:41Z</time></trkpt><trkpt lat="45.90545382879044" lon="12.040959636935876"><ele>327.0</ele><time>2026-04-26T08:15:42Z</time></trkpt><trkpt lat="45.905426783880166" lon="12.040787699510128"><ele>327.0</ele><time>2026-04-26T08:15:43Z</time></trkpt><trkpt lat="45.90537987404923" lon="12.040613730275908"><ele>327.0</ele><time>2026-04-26T08:15:44Z</time></trkpt><trkpt lat="45.90531631307081" lon="12.040443570960806"><ele>328.5</ele><time>2026-04-26T08:15:45Z</time></trkpt><trkpt lat="45.9052526210065" lon="12.04027203736204"><ele>330.0</ele><time>2026-04-26T08:15:46Z</time></trkpt><trkpt lat="45.90519839970874" lon="12.040105474891801"><ele>331.5</ele><time>2026-04-26T08:15:47Z</time></trkpt><trkpt lat="45.90515245797917" lon="12.039965537807994"><ele>333.0</ele><time>2026-04-26T08:15:48Z</time></trkpt><trkpt lat="45.90511853624082" lon="12.039830198368596"><ele>333.3333333333333</ele><time>2026-04-26T08:15:49Z</time></trkpt><trkpt lat="45.905085753758435" lon="12.03969780406869"><ele>333.6666666666667</ele><time>2026-04-26T08:15:50Z</time></trkpt><trkpt lat="45.905062222095154" lon="12.03958112155522"><ele>334.0</ele><time>2026-04-26T08:15:51Z</time></trkpt><trkpt lat="45.905051907505424" lon="12.039465623336646"><ele>334.33333333333337</ele><time>2026-04-26T08:15:52Z</time></trkpt><trkpt lat="45.90504803450371" lon="12.039352881170545"><ele>334.6666666666667</ele><time>2026-04-26T08:15:53Z</time></trkpt><trkpt lat="45.905048932774385" lon="12.039248835452716"><ele>335.0</ele><time>2026-04-26T08:15:54Z</time></trkpt><trkpt lat="45.90504839281456" lon="12.039088622931875"><ele>334.0</ele><time>2026-04-26T08:15:55Z</time></trkpt><trkpt lat="45.90506143112232" lon="12.038951922858205"><ele>333.0</ele><time>2026-04-26T08:15:56Z</time></trkpt><trkpt lat="45.90507772139067" lon="12.038806241897193"><ele>332.0</ele><time>2026-04-26T08:15:57Z</time></trkpt><trkpt lat="45.9050963907904" lon="12.038650542919095"><ele>331.0</ele><time>2026-04-26T08:15:58Z</time></trkpt><trkpt lat="45.90510893393422" lon="12.038487814016598"><ele>330.0</ele><time>2026-04-26T08:15:59Z</time></trkpt><trkpt lat="45.905130557281424" lon="12.038335040592521"><ele>328.75</ele><time>2026-04-26T08:16:00Z</time></trkpt><trkpt lat="45.90519288509722" lon="12.03819724325671"><ele>327.5</ele><time>2026-04-26T08:16:01Z</time></trkpt><trkpt lat="45.905254283940884" lon="12.038018301648469"><ele>326.25</ele><time>2026-04-26T08:16:02Z</time></trkpt><trkpt lat="45.905316851061166" lon="12.037852298031648"><ele>325.0</ele><time>2026-04-26T08:16:03Z</time></trkpt><trkpt lat="45.905373069291166" lon="12.037706255267928"><ele>325.0</ele><time>2026-04-26T08:16:04Z</time></trkpt><trkpt lat="45.90543050315828" lon="12.03756906241917"><ele>325.0</ele><time>2026-04-26T08:16:05Z</time></trkpt><trkpt lat="45.90548454258261" lon="12.037431007286061"><ele>325.0</ele><time>2026-04-26T08:16:06Z</time></trkpt><trkpt lat="45.90554525586188" lon="12.037283383494131"><ele>325.0</ele><time>2026-04-26T08:16:07Z</time></trkpt><trkpt lat="45.905597537506004" lon="12.0371572102253"><ele>325.0</ele><time>2026-04-26T08:16:08Z</time></trkpt><trkpt lat="45.905651786851024" lon="12.037031015928152"><ele>324.2</ele><time>2026-04-26T08:16:09Z</time></trkpt><trkpt lat="45.9057067690677" lon="12.036898598746713"><ele>323.4</ele><time>2026-04-26T08:16:10Z</time></trkpt><trkpt lat="45.90576232283204" lon="12.036757097673672"><ele>322.6</ele><time>2026-04-26T08:16:11Z</time></trkpt><trkpt lat="45.90580924208965" lon="12.036608143442763"><ele>321.8</ele><time>2026-04-26T08:16:12Z</time></trkpt><trkpt lat="45.905845751327995" lon="12.036454068852233"><ele>321.0</ele><time>2026-04-26T08:16:13Z</time></trkpt><trkpt lat="45.9058879120778" lon="12.036288168664756"><ele>320.5</ele><time>2026-04-26T08:16:14Z</time></trkpt><trkpt lat="45.905889632128094" lon="12.036097558074431"><ele>320.0</ele><time>2026-04-26T08:16:15Z</time></trkpt><trkpt lat="45.90589820688912" lon="12.035917612003043"><ele>319.5</ele><time>2026-04-26T08:16:16Z</time></trkpt><trkpt lat="45.90589589222987" lon="12.035743586372371"><ele>319.0</ele><time>2026-04-26T08:16:17Z</time></trkpt><trkpt lat="45.90588437814764" lon="12.035559146465554"><ele>320.0</ele><time>2026-04-26T08:16:18Z</time></trkpt><trkpt lat="45.90586778075252" lon="12.035374072783664"><ele>321.0</ele><time>2026-04-26T08:16:19Z</time></trkpt><trkpt lat="45.905844209940334" lon="12.035186466442862"><ele>322.0</ele><time>2026-04-26T08:16:20Z</time></trkpt><trkpt lat="45.905820298886226" lon="12.035011742002403"><ele>323.0</ele><time>2026-04-26T08:16:21Z</time></trkpt><trkpt lat="45.905791535765445" lon="12.034843654671725"><ele>327.25</ele><time>2026-04-26T08:16:22Z</time></trkpt><trkpt lat="45.905748803155404" lon="12.034682808678104"><ele>331.5</ele><time>2026-04-26T08:16:23Z</time></trkpt><trkpt lat="45.9056881857705" lon="12.034533508922557"><ele>335.75</ele><time>2026-04-26T08:16:24Z</time></trkpt><trkpt lat="45.90560735983079" lon="12.034397524600223"><ele>340.0</ele><time>2026-04-26T08:16:25Z</time></trkpt><trkpt lat="45.90549324929228" lon="12.034292660895266"><ele>340.0</ele><time>2026-04-26T08:16:26Z</time></trkpt><trkpt lat="45.90539178684074" lon="12.034208909572314"><ele>340.0</ele><time>2026-04-26T08:16:27Z</time></trkpt><trkpt lat="45.90530245363652" lon="12.034128752970844"><ele>340.0</ele><time>2026-04-26T08:16:28Z</time></trkpt><trkpt lat="45.905213175627914" lon="12.034022835311472"><ele>340.0</ele><time>2026-04-26T08:16:29Z</time></trkpt><trkpt lat="45.90512724544304" lon="12.033895298048995"><ele>340.0</ele><time>2026-04-26T08:16:30Z</time></trkpt><trkpt lat="45.90503876836808" lon="12.033732262989597"><ele>340.0</ele><time>2026-04-26T08:16:31Z</time></trkpt><trkpt lat="45.904949033963675" lon="12.033566126034705"><ele>340.0</ele><time>2026-04-26T08:16:32Z</time></trkpt><trkpt lat="45.904872250126225" lon="12.033443522164893"><ele>340.0</ele><time>2026-04-26T08:16:33Z</time></trkpt><trkpt lat="45.90479503955671" lon="12.033266724110302"><ele>345.0</ele><time>2026-04-26T08:16:34Z</time></trkpt><trkpt lat="45.90472324716257" lon="12.033111081908773"><ele>350.0</ele><time>2026-04-26T08:16:35Z</time></trkpt><trkpt lat="45.90466426236513" lon="12.032905495633527"><ele>355.0</ele><time>2026-04-26T08:16:36Z</time></trkpt><trkpt lat="45.9046127027295" lon="12.032694733340021"><ele>360.0</ele><time>2026-04-26T08:16:37Z</time></trkpt><trkpt lat="45.90457199000181" lon="12.032513401210162"><ele>365.0</ele><time>2026-04-26T08:16:38Z</time></trkpt><trkpt lat="45.90451982608865" lon="12.032364313066026"><ele>370.0</ele><time>2026-04-26T08:16:39Z</time></trkpt><trkpt lat="45.904478825831305" lon="12.03219307143291"><ele>375.0</ele><time>2026-04-26T08:16:40Z</time></trkpt><trkpt lat="45.90442944836978" lon="12.032014619565736"><ele>380.0</ele><time>2026-04-26T08:16:41Z</time></trkpt><trkpt lat="45.90438909646191" lon="12.031860976044554"><ele>380.0</ele><time>2026-04-26T08:16:42Z</time></trkpt><trkpt lat="45.90435656292009" lon="12.031711490051817"><ele>380.0</ele><time>2026-04-26T08:16:43Z</time></trkpt><trkpt lat="45.904318499564404" lon="12.031560070440474"><ele>380.0</ele><time>2026-04-26T08:16:44Z</time></trkpt><trkpt lat="45.90427796844162" lon="12.031410531403408"><ele>380.0</ele><time>2026-04-26T08:16:45Z</time></trkpt><trkpt lat="45.90422931631713" lon="12.031279331712446"><ele>380.0</ele><time>2026-04-26T08:16:46Z</time></trkpt><trkpt lat="45.90416229448128" lon="12.031139771389867"><ele>378.75</ele><time>2026-04-26T08:16:47Z</time></trkpt><trkpt lat="45.90407519235914" lon="12.031010782611823"><ele>377.5</ele><time>2026-04-26T08:16:48Z</time></trkpt><trkpt lat="45.90395595417436" lon="12.030913576672633"><ele>376.25</ele><time>2026-04-26T08:16:49Z</time></trkpt><trkpt lat="45.903820439004484" lon="12.03081996185676"><ele>375.0</ele><time>2026-04-26T08:16:50Z</time></trkpt><trkpt lat="45.903718286992515" lon="12.030786262059612"><ele>375.0</ele><time>2026-04-26T08:16:51Z</time></trkpt><trkpt lat="45.90361712466003" lon="12.030745051409234"><ele>375.0</ele><time>2026-04-26T08:16:52Z</time></trkpt><trkpt lat="45.90352812072619" lon="12.030692559640705"><ele>375.0</ele><time>2026-04-26T08:16:53Z</time></trkpt><trkpt lat="45.90343733302903" lon="12.030631884113761"><ele>375.0</ele><time>2026-04-26T08:16:54Z</time></trkpt><trkpt lat="45.90333527252929" lon="12.030544046694722"><ele>375.0</ele><time>2026-04-26T08:16:55Z</time></trkpt><trkpt lat="45.903248204652165" lon="12.030430110319527"><ele>370.2</ele><time>2026-04-26T08:16:56Z</time></trkpt><trkpt lat="45.9031884742789" lon="12.03032093327891"><ele>365.4</ele><time>2026-04-26T08:16:57Z</time></trkpt><trkpt lat="45.90313586669574" lon="12.030191974839541"><ele>360.6</ele><time>2026-04-26T08:16:58Z</time></trkpt><trkpt lat="45.9030897897978" lon="12.030048260038877"><ele>355.8</ele><time>2026-04-26T08:16:59Z</time></trkpt><trkpt lat="45.90306413795549" lon="12.029922058794904"><ele>351.0</ele><time>2026-04-26T08:17:00Z</time></trkpt><trkpt lat="45.903052109227396" lon="12.029814713684441"><ele>350.3333333333333</ele><time>2026-04-26T08:17:01Z</time></trkpt><trkpt lat="45.90304937993592" lon="12.029718743590228"><ele>349.6666666666667</ele><time>2026-04-26T08:17:02Z</time></trkpt><trkpt lat="45.90306540182782" lon="12.029557764781956"><ele>349.0</ele><time>2026-04-26T08:17:04Z</time></trkpt><trkpt lat="45.90308513943316" lon="12.029467102207212"><ele>348.33333333333337</ele><time>2026-04-26T08:17:06Z</time></trkpt><trkpt lat="45.90297232935486" lon="12.02943914498688"><ele>347.6666666666667</ele><time>2026-04-26T08:17:13Z</time></trkpt><trkpt lat="45.902919372445034" lon="12.029489732480807"><ele>347.0</ele><time>2026-04-26T08:17:14Z</time></trkpt><trkpt lat="45.90280651272142" lon="12.029573326793473"><ele>347.0</ele><time>2026-04-26T08:17:16Z</time></trkpt><trkpt lat="45.902716835852864" lon="12.029590270718225"><ele>347.0</ele><time>2026-04-26T08:17:17Z</time></trkpt><trkpt lat="45.90265170056966" lon="12.029577498916405"><ele>347.0</ele><time>2026-04-26T08:17:18Z</time></trkpt><trkpt lat="45.90258216710247" lon="12.029564735003872"><ele>347.0</ele><time>2026-04-26T08:17:19Z</time></trkpt><trkpt lat="45.90247040184589" lon="12.029551969620208"><ele>347.0</ele><time>2026-04-26T08:17:21Z</time></trkpt><trkpt lat="45.90235476570329" lon="12.029553977990957"><ele>344.1666666666667</ele><time>2026-04-26T08:17:23Z</time></trkpt><trkpt lat="45.90228639456015" lon="12.02957696472332"><ele>341.33333333333337</ele><time>2026-04-26T08:17:24Z</time></trkpt><trkpt lat="45.90221914761984" lon="12.029616797540296"><ele>338.5</ele><time>2026-04-26T08:17:25Z</time></trkpt><trkpt lat="45.90214995282332" lon="12.029685878839205"><ele>335.6666666666667</ele><time>2026-04-26T08:17:26Z</time></trkpt><trkpt lat="45.90207867564927" lon="12.029760658708229"><ele>332.8333333333333</ele><time>2026-04-26T08:17:27Z</time></trkpt><trkpt lat="45.90202119960994" lon="12.029823358990734"><ele>330.0</ele><time>2026-04-26T08:17:28Z</time></trkpt><trkpt lat="45.90197582907412" lon="12.02989331381996"><ele>331.8</ele><time>2026-04-26T08:17:29Z</time></trkpt><trkpt lat="45.90193064682973" lon="12.03002659418888"><ele>333.6</ele><time>2026-04-26T08:17:31Z</time></trkpt><trkpt lat="45.901903209750145" lon="12.030192651677776"><ele>335.4</ele><time>2026-04-26T08:17:33Z</time></trkpt><trkpt lat="45.901920447437114" lon="12.030305713449081"><ele>337.2</ele><time>2026-04-26T08:17:34Z</time></trkpt><trkpt lat="45.90192180655942" lon="12.030426825646275"><ele>339.0</ele><time>2026-04-26T08:17:35Z</time></trkpt><trkpt lat="45.90194742241155" lon="12.030599561043957"><ele>339.0</ele><time>2026-04-26T08:17:37Z</time></trkpt><trkpt lat="45.901957017442875" lon="12.030696004300639"><ele>339.0</ele><time>2026-04-26T08:17:38Z</time></trkpt><trkpt lat="45.90195945389677" lon="12.030796542393539"><ele>339.0</ele><time>2026-04-26T08:17:39Z</time></trkpt><trkpt lat="45.90195601402322" lon="12.030900547121274"><ele>339.0</ele><time>2026-04-26T08:17:40Z</time></trkpt><trkpt lat="45.90195246769884" lon="12.03099990784591"><ele>339.0</ele><time>2026-04-26T08:17:41Z</time></trkpt><trkpt lat="45.901949205830476" lon="12.031091298316388"><ele>339.0</ele><time>2026-04-26T08:17:42Z</time></trkpt><trkpt lat="45.90194399822825" lon="12.031183899097995"><ele>339.0</ele><time>2026-04-26T08:17:43Z</time></trkpt><trkpt lat="45.90192750337377" lon="12.031353575006218"><ele>337.2</ele><time>2026-04-26T08:17:45Z</time></trkpt><trkpt lat="45.90191938245559" lon="12.031507578188565"><ele>335.4</ele><time>2026-04-26T08:17:47Z</time></trkpt><trkpt lat="45.90190723727653" lon="12.03162302508361"><ele>333.6</ele><time>2026-04-26T08:17:49Z</time></trkpt><trkpt lat="45.901894947434485" lon="12.031723029659831"><ele>331.8</ele><time>2026-04-26T08:17:52Z</time></trkpt><trkpt lat="45.90191709747034" lon="12.031601050242035"><ele>330.0</ele><time>2026-04-26T08:18:14Z</time></trkpt><trkpt lat="45.901930165160366" lon="12.031444485167436"><ele>330.0</ele><time>2026-04-26T08:18:16Z</time></trkpt><trkpt lat="45.90189078985033" lon="12.031309098873496"><ele>330.0</ele><time>2026-04-26T08:18:18Z</time></trkpt><trkpt lat="45.90189260462949" lon="12.03121417968068"><ele>330.0</ele><time>2026-04-26T08:18:20Z</time></trkpt><trkpt lat="45.90189439565885" lon="12.03112050263875"><ele>330.0</ele><time>2026-04-26T08:18:23Z</time></trkpt><trkpt lat="45.901896639380574" lon="12.031003148198415"><ele>330.0</ele><time>2026-04-26T08:18:26Z</time></trkpt><trkpt lat="45.90189853484843" lon="12.030904008702466"><ele>330.0</ele><time>2026-04-26T08:18:29Z</time></trkpt></trkseg><trkseg><trkpt lat="45.90195772291771" lon="12.030650069142581"><ele>339.0</ele><time>2026-04-26T08:33:27Z</time></trkpt><trkpt lat="45.901944127269005" lon="12.030521815268772"><ele>339.0</ele><time>2026-04-26T08:33:28Z</time></trkpt><trkpt lat="45.90193061356842" lon="12.03041152913159"><ele>339.0</ele><time>2026-04-26T08:33:29Z</time></trkpt><trkpt lat="45.90192109595839" lon="12.03030072468321"><ele>339.0</ele><time>2026-04-26T08:33:31Z</time></trkpt><trkpt lat="45.90191838852155" lon="12.030195623761443"><ele>339.0</ele><time>2026-04-26T08:33:33Z</time></trkpt><trkpt lat="45.90192434999429" lon="12.030077611472136"><ele>339.0</ele><time>2026-04-26T08:33:35Z</time></trkpt><trkpt lat="45.901970158050105" lon="12.029976728528716"><ele>337.2</ele><time>2026-04-26T08:33:37Z</time></trkpt><trkpt lat="45.9020348326016" lon="12.029864337759827"><ele>335.4</ele><time>2026-04-26T08:33:39Z</time></trkpt><trkpt lat="45.90209818946134" lon="12.02977635238992"><ele>333.6</ele><time>2026-04-26T08:33:41Z</time></trkpt><trkpt lat="45.9021810808474" lon="12.029687275835734"><ele>331.8</ele><time>2026-04-26T08:33:43Z</time></trkpt><trkpt lat="45.90227382025254" lon="12.029596677555846"><ele>330.0</ele><time>2026-04-26T08:33:45Z</time></trkpt><trkpt lat="45.902392216869224" lon="12.029567246372844"><ele>330.00000000000006</ele><time>2026-04-26T08:33:47Z</time></trkpt><trkpt lat="45.902456244229285" lon="12.029595607326037"><ele>330.0</ele><time>2026-04-26T08:33:48Z</time></trkpt><trkpt lat="45.9025355271846" lon="12.029589630118911"><ele>330.0</ele><time>2026-04-26T08:33:49Z</time></trkpt><trkpt lat="45.90261975274689" lon="12.029594691924279"><ele>330.0</ele><time>2026-04-26T08:33:50Z</time></trkpt><trkpt lat="45.90268265481635" lon="12.029600676954669"><ele>330.0</ele><time>2026-04-26T08:33:51Z</time></trkpt><trkpt lat="45.902747196652044" lon="12.029604052507088"><ele>330.00000000000006</ele><time>2026-04-26T08:33:52Z</time></trkpt><trkpt lat="45.90282452757862" lon="12.029590483563203"><ele>330.0</ele><time>2026-04-26T08:33:53Z</time></trkpt><trkpt lat="45.90290140484955" lon="12.02954575363931"><ele>332.8333333333333</ele><time>2026-04-26T08:33:54Z</time></trkpt><trkpt lat="45.90296206455275" lon="12.029490103193938"><ele>335.6666666666667</ele><time>2026-04-26T08:33:55Z</time></trkpt><trkpt lat="45.903022086460446" lon="12.029460262894887"><ele>338.5</ele><time>2026-04-26T08:33:58Z</time></trkpt><trkpt lat="45.90311275765817" lon="12.02939490330188"><ele>341.33333333333337</ele><time>2026-04-26T08:34:05Z</time></trkpt><trkpt lat="45.90316381315796" lon="12.02930070065642"><ele>344.1666666666667</ele><time>2026-04-26T08:34:06Z</time></trkpt><trkpt lat="45.90321864352523" lon="12.029197011233478"><ele>347.0</ele><time>2026-04-26T08:34:07Z</time></trkpt><trkpt lat="45.90328106073538" lon="12.029099695397063"><ele>347.0</ele><time>2026-04-26T08:34:08Z</time></trkpt><trkpt lat="45.90336359617066" lon="12.029000669930657"><ele>347.0</ele><time>2026-04-26T08:34:09Z</time></trkpt><trkpt lat="45.90344507567894" lon="12.028908029622281"><ele>347.0</ele><time>2026-04-26T08:34:10Z</time></trkpt><trkpt lat="45.90349790558249" lon="12.028828347701065"><ele>347.0</ele><time>2026-04-26T08:34:11Z</time></trkpt><trkpt lat="45.90353388677108" lon="12.028709286348613"><ele>347.0</ele><time>2026-04-26T08:34:12Z</time></trkpt><trkpt lat="45.903546469920265" lon="12.028557922685922"><ele>348.5</ele><time>2026-04-26T08:34:13Z</time></trkpt><trkpt lat="45.90352640064987" lon="12.028392861582406"><ele>350.0</ele><time>2026-04-26T08:34:14Z</time></trkpt><trkpt lat="45.903456042121455" lon="12.02822866467768"><ele>351.5</ele><time>2026-04-26T08:34:15Z</time></trkpt><trkpt lat="45.903369546279876" lon="12.028066952442662"><ele>353.0</ele><time>2026-04-26T08:34:16Z</time></trkpt><trkpt lat="45.903303664780935" lon="12.027941478584662"><ele>353.0</ele><time>2026-04-26T08:34:17Z</time></trkpt><trkpt lat="45.903261875915064" lon="12.027835364770194"><ele>353.0</ele><time>2026-04-26T08:34:18Z</time></trkpt><trkpt lat="45.90322921770368" lon="12.027728279636161"><ele>353.0</ele><time>2026-04-26T08:34:19Z</time></trkpt><trkpt lat="45.90322173925787" lon="12.027602401955011"><ele>353.0</ele><time>2026-04-26T08:34:20Z</time></trkpt><trkpt lat="45.9032295200241" lon="12.027466086167978"><ele>353.0</ele><time>2026-04-26T08:34:21Z</time></trkpt><trkpt lat="45.90323624262806" lon="12.027322236229555"><ele>353.79999999999995</ele><time>2026-04-26T08:34:22Z</time></trkpt><trkpt lat="45.90326759275489" lon="12.027147083316569"><ele>354.6</ele><time>2026-04-26T08:34:23Z</time></trkpt><trkpt lat="45.903326200173545" lon="12.027025774309658"><ele>355.4</ele><time>2026-04-26T08:34:24Z</time></trkpt><trkpt lat="45.903369240829775" lon="12.026909589219805"><ele>356.20000000000005</ele><time>2026-04-26T08:34:25Z</time></trkpt><trkpt lat="45.90343572759441" lon="12.026789927203883"><ele>357.0</ele><time>2026-04-26T08:34:26Z</time></trkpt><trkpt lat="45.903514549514455" lon="12.026668737655672"><ele>354.20000000000005</ele><time>2026-04-26T08:34:27Z</time></trkpt><trkpt lat="45.903595866091386" lon="12.02659114394627"><ele>351.4</ele><time>2026-04-26T08:34:28Z</time></trkpt><trkpt lat="45.903676919573385" lon="12.026511987457297"><ele>348.6</ele><time>2026-04-26T08:34:29Z</time></trkpt><trkpt lat="45.903770351423304" lon="12.0264430558184"><ele>345.79999999999995</ele><time>2026-04-26T08:34:30Z</time></trkpt><trkpt lat="45.90388579133072" lon="12.02639151307627"><ele>343.0</ele><time>2026-04-26T08:34:31Z</time></trkpt><trkpt lat="45.904009736108705" lon="12.026344554425673"><ele>343.0</ele><time>2026-04-26T08:34:32Z</time></trkpt><trkpt lat="45.90410819983584" lon="12.026286325053508"><ele>343.0</ele><time>2026-04-26T08:34:33Z</time></trkpt><trkpt lat="45.90419938669249" lon="12.02625519749414"><ele>343.0</ele><time>2026-04-26T08:34:34Z</time></trkpt><trkpt lat="45.90429260944766" lon="12.02621954295925"><ele>343.0</ele><time>2026-04-26T08:34:35Z</time></trkpt><trkpt lat="45.90438737973258" lon="12.026156678470638"><ele>343.0</ele><time>2026-04-26T08:34:36Z</time></trkpt><trkpt lat="45.90447659045767" lon="12.026044681763855"><ele>345.59999999999997</ele><time>2026-04-26T08:34:37Z</time></trkpt><trkpt lat="45.9045356287589" lon="12.025918279119294"><ele>348.2</ele><time>2026-04-26T08:34:38Z</time></trkpt><trkpt lat="45.90457769111999" lon="12.025780162150136"><ele>350.8</ele><time>2026-04-26T08:34:39Z</time></trkpt><trkpt lat="45.90459344537973" lon="12.025615265687298"><ele>353.4</ele><time>2026-04-26T08:34:40Z</time></trkpt><trkpt lat="45.90459063417585" lon="12.025453873678446"><ele>356.0</ele><time>2026-04-26T08:34:41Z</time></trkpt><trkpt lat="45.9045825172654" lon="12.025324746111025"><ele>356.0</ele><time>2026-04-26T08:34:42Z</time></trkpt><trkpt lat="45.90456646035864" lon="12.025215072065036"><ele>356.0</ele><time>2026-04-26T08:34:43Z</time></trkpt><trkpt lat="45.90451818130665" lon="12.025106468540576"><ele>356.0</ele><time>2026-04-26T08:34:44Z</time></trkpt><trkpt lat="45.904411728371706" lon="12.02501480766486"><ele>356.0</ele><time>2026-04-26T08:34:45Z</time></trkpt><trkpt lat="45.904273563313296" lon="12.02493067687892"><ele>356.0</ele><time>2026-04-26T08:34:46Z</time></trkpt><trkpt lat="45.904122833563434" lon="12.024837581280478"><ele>355.4</ele><time>2026-04-26T08:34:47Z</time></trkpt><trkpt lat="45.90400695806385" lon="12.024763874254722"><ele>354.8</ele><time>2026-04-26T08:34:48Z</time></trkpt><trkpt lat="45.90391272203505" lon="12.024688055508756"><ele>354.2</ele><time>2026-04-26T08:34:49Z</time></trkpt><trkpt lat="45.9038380832298" lon="12.024612212579582"><ele>353.59999999999997</ele><time>2026-04-26T08:34:50Z</time></trkpt><trkpt lat="45.90377256013879" lon="12.024527804523265"><ele>353.0</ele><time>2026-04-26T08:34:51Z</time></trkpt><trkpt lat="45.9037129055676" lon="12.024417999175457"><ele>353.0</ele><time>2026-04-26T08:34:52Z</time></trkpt><trkpt lat="45.903670407591235" lon="12.02430444545717"><ele>353.0</ele><time>2026-04-26T08:34:53Z</time></trkpt><trkpt lat="45.90363682635771" lon="12.024193843571872"><ele>353.0</ele><time>2026-04-26T08:34:54Z</time></trkpt><trkpt lat="45.90360999009561" lon="12.024097611087978"><ele>353.0</ele><time>2026-04-26T08:34:55Z</time></trkpt><trkpt lat="45.903581304768686" lon="12.023995382521203"><ele>353.0</ele><time>2026-04-26T08:34:56Z</time></trkpt><trkpt lat="45.903547815726505" lon="12.023878421161037"><ele>353.0</ele><time>2026-04-26T08:34:57Z</time></trkpt><trkpt lat="45.903514037405074" lon="12.023768680461663"><ele>352.2</ele><time>2026-04-26T08:34:58Z</time></trkpt><trkpt lat="45.90347904942286" lon="12.023653297363389"><ele>351.4</ele><time>2026-04-26T08:34:59Z</time></trkpt><trkpt lat="45.9034453471381" lon="12.023556537418886"><ele>350.59999999999997</ele><time>2026-04-26T08:35:00Z</time></trkpt><trkpt lat="45.903407083779406" lon="12.023389692389513"><ele>349.79999999999995</ele><time>2026-04-26T08:35:02Z</time></trkpt><trkpt lat="45.90335529355506" lon="12.0232389345262"><ele>349.0</ele><time>2026-04-26T08:35:04Z</time></trkpt><trkpt lat="45.9033329752468" lon="12.02314815982144"><ele>348.99999999999994</ele><time>2026-04-26T08:35:05Z</time></trkpt><trkpt lat="45.90329728611346" lon="12.023045813455049"><ele>349.0</ele><time>2026-04-26T08:35:06Z</time></trkpt><trkpt lat="45.903268681970076" lon="12.022948872422573"><ele>349.0</ele><time>2026-04-26T08:35:07Z</time></trkpt><trkpt lat="45.903236914385495" lon="12.022850433802123"><ele>349.0</ele><time>2026-04-26T08:35:08Z</time></trkpt><trkpt lat="45.90320623944357" lon="12.02275757073697"><ele>349.0</ele><time>2026-04-26T08:35:09Z</time></trkpt><trkpt lat="45.90317463061707" lon="12.022671683445642"><ele>348.99999999999994</ele><time>2026-04-26T08:35:10Z</time></trkpt><trkpt lat="45.903131981663904" lon="12.02258288584906"><ele>349.0</ele><time>2026-04-26T08:35:11Z</time></trkpt><trkpt lat="45.90306671721802" lon="12.022488349341327"><ele>350.0</ele><time>2026-04-26T08:35:12Z</time></trkpt><trkpt lat="45.90298657118398" lon="12.02240403404766"><ele>351.0</ele><time>2026-04-26T08:35:13Z</time></trkpt><trkpt lat="45.90290277272043" lon="12.022331990672066"><ele>352.0</ele><time>2026-04-26T08:35:14Z</time></trkpt><trkpt lat="45.90281383235852" lon="12.022271491281822"><ele>353.0</ele><time>2026-04-26T08:35:15Z</time></trkpt><trkpt lat="45.90273130324128" lon="12.022216627927708"><ele>354.0</ele><time>2026-04-26T08:35:16Z</time></trkpt><trkpt lat="45.902655807248806" lon="12.022166490800876"><ele>351.8333333333333</ele><time>2026-04-26T08:35:17Z</time></trkpt><trkpt lat="45.90256812681592" lon="12.022109727773536"><ele>349.6666666666667</ele><time>2026-04-26T08:35:18Z</time></trkpt><trkpt lat="45.90248801938636" lon="12.022050411615451"><ele>347.5</ele><time>2026-04-26T08:35:19Z</time></trkpt><trkpt lat="45.902400280079675" lon="12.022002128018059"><ele>345.33333333333337</ele><time>2026-04-26T08:35:20Z</time></trkpt><trkpt lat="45.9023247512457" lon="12.021944211732691"><ele>343.1666666666667</ele><time>2026-04-26T08:35:21Z</time></trkpt><trkpt lat="45.90225913782021" lon="12.021892989355038"><ele>341.0</ele><time>2026-04-26T08:35:22Z</time></trkpt><trkpt lat="45.902177554193116" lon="12.021840280946025"><ele>341.0</ele><time>2026-04-26T08:35:23Z</time></trkpt><trkpt lat="45.90209267622565" lon="12.02177705853692"><ele>341.0</ele><time>2026-04-26T08:35:24Z</time></trkpt><trkpt lat="45.90200906594247" lon="12.021713739174604"><ele>341.0</ele><time>2026-04-26T08:35:25Z</time></trkpt><trkpt lat="45.90192165768074" lon="12.02164827169139"><ele>341.0</ele><time>2026-04-26T08:35:26Z</time></trkpt><trkpt lat="45.901841473475606" lon="12.02159387459011"><ele>341.0</ele><time>2026-04-26T08:35:27Z</time></trkpt><trkpt lat="45.90176461312878" lon="12.021540730501524"><ele>340.0</ele><time>2026-04-26T08:35:28Z</time></trkpt><trkpt lat="45.90169986705949" lon="12.021471405024096"><ele>339.0</ele><time>2026-04-26T08:35:29Z</time></trkpt><trkpt lat="45.901638778449346" lon="12.021375681816956"><ele>338.0</ele><time>2026-04-26T08:35:30Z</time></trkpt><trkpt lat="45.90157423805582" lon="12.021252679644032"><ele>337.0</ele><time>2026-04-26T08:35:31Z</time></trkpt><trkpt lat="45.90151270257833" lon="12.021120250610819"><ele>336.0</ele><time>2026-04-26T08:35:32Z</time></trkpt><trkpt lat="45.90145440696718" lon="12.020990106984213"><ele>336.0</ele><time>2026-04-26T08:35:33Z</time></trkpt><trkpt lat="45.901389664817586" lon="12.020857984448725"><ele>336.0</ele><time>2026-04-26T08:35:34Z</time></trkpt><trkpt lat="45.90132279267388" lon="12.0207280924095"><ele>336.0</ele><time>2026-04-26T08:35:35Z</time></trkpt><trkpt lat="45.90125728253411" lon="12.020590390918027"><ele>336.0</ele><time>2026-04-26T08:35:36Z</time></trkpt><trkpt lat="45.90119740593327" lon="12.020462402268294"><ele>336.0</ele><time>2026-04-26T08:35:37Z</time></trkpt><trkpt lat="45.901140242457025" lon="12.020342947067368"><ele>336.4</ele><time>2026-04-26T08:35:38Z</time></trkpt><trkpt lat="45.901079180664794" lon="12.020228363413286"><ele>336.8</ele><time>2026-04-26T08:35:39Z</time></trkpt><trkpt lat="45.90102341664057" lon="12.020114185204259"><ele>337.2</ele><time>2026-04-26T08:35:40Z</time></trkpt><trkpt lat="45.900969339121616" lon="12.020000647268946"><ele>337.59999999999997</ele><time>2026-04-26T08:35:41Z</time></trkpt><trkpt lat="45.90091338481376" lon="12.01989441716308"><ele>338.0</ele><time>2026-04-26T08:35:42Z</time></trkpt><trkpt lat="45.90086005147877" lon="12.01979001648482"><ele>336.1666666666667</ele><time>2026-04-26T08:35:43Z</time></trkpt><trkpt lat="45.90081327209908" lon="12.019681945761233"><ele>334.33333333333337</ele><time>2026-04-26T08:35:44Z</time></trkpt><trkpt lat="45.900786324648934" lon="12.019569984943967"><ele>332.5</ele><time>2026-04-26T08:35:45Z</time></trkpt><trkpt lat="45.90075732090795" lon="12.019446982336625"><ele>330.6666666666667</ele><time>2026-04-26T08:35:46Z</time></trkpt><trkpt lat="45.90074204299658" lon="12.019321866293442"><ele>328.8333333333333</ele><time>2026-04-26T08:35:47Z</time></trkpt><trkpt lat="45.90073231966784" lon="12.019190874471793"><ele>327.0</ele><time>2026-04-26T08:35:48Z</time></trkpt><trkpt lat="45.9007232620693" lon="12.019039041798369"><ele>326.0</ele><time>2026-04-26T08:35:49Z</time></trkpt><trkpt lat="45.90070445369149" lon="12.018883558156645"><ele>325.0</ele><time>2026-04-26T08:35:50Z</time></trkpt><trkpt lat="45.90069950959894" lon="12.018743491333133"><ele>324.0</ele><time>2026-04-26T08:35:51Z</time></trkpt><trkpt lat="45.90069490060916" lon="12.018600269905429"><ele>323.0</ele><time>2026-04-26T08:35:52Z</time></trkpt><trkpt lat="45.90068110670446" lon="12.018463417897449"><ele>322.0</ele><time>2026-04-26T08:35:53Z</time></trkpt><trkpt lat="45.90066916680934" lon="12.018315405620253"><ele>321.5</ele><time>2026-04-26T08:35:54Z</time></trkpt><trkpt lat="45.90065479058609" lon="12.018171906385216"><ele>321.0</ele><time>2026-04-26T08:35:55Z</time></trkpt><trkpt lat="45.900645150688334" lon="12.018022436975413"><ele>320.5</ele><time>2026-04-26T08:35:56Z</time></trkpt><trkpt lat="45.90063291166599" lon="12.017838182510665"><ele>320.0</ele><time>2026-04-26T08:35:57Z</time></trkpt><trkpt lat="45.90062240698033" lon="12.017655516632665"><ele>319.0</ele><time>2026-04-26T08:35:58Z</time></trkpt><trkpt lat="45.900637266512256" lon="12.017475955291196"><ele>318.0</ele><time>2026-04-26T08:35:59Z</time></trkpt><trkpt lat="45.900636764783016" lon="12.017270382483575"><ele>317.0</ele><time>2026-04-26T08:36:00Z</time></trkpt><trkpt lat="45.90066529004705" lon="12.017071654355478"><ele>316.0</ele><time>2026-04-26T08:36:01Z</time></trkpt><trkpt lat="45.90068553366403" lon="12.016887499449922"><ele>316.0</ele><time>2026-04-26T08:36:02Z</time></trkpt><trkpt lat="45.90071075063367" lon="12.016721693241175"><ele>316.0</ele><time>2026-04-26T08:36:03Z</time></trkpt><trkpt lat="45.900730244642496" lon="12.016554875566117"><ele>316.0</ele><time>2026-04-26T08:36:04Z</time></trkpt><trkpt lat="45.900749443627845" lon="12.01638732229802"><ele>316.0</ele><time>2026-04-26T08:36:05Z</time></trkpt><trkpt lat="45.90077038870453" lon="12.016215975723219"><ele>314.75</ele><time>2026-04-26T08:36:06Z</time></trkpt><trkpt lat="45.9007911956946" lon="12.01604378277763"><ele>313.5</ele><time>2026-04-26T08:36:07Z</time></trkpt><trkpt lat="45.9008112853973" lon="12.015880522049672"><ele>312.25</ele><time>2026-04-26T08:36:08Z</time></trkpt><trkpt lat="45.90083891247006" lon="12.015728382149504"><ele>311.0</ele><time>2026-04-26T08:36:09Z</time></trkpt><trkpt lat="45.90085507640631" lon="12.015576292848555"><ele>311.2</ele><time>2026-04-26T08:36:10Z</time></trkpt><trkpt lat="45.90087178654315" lon="12.01541959164746"><ele>311.40000000000003</ele><time>2026-04-26T08:36:11Z</time></trkpt><trkpt lat="45.900891347090344" lon="12.015263543592607"><ele>311.6</ele><time>2026-04-26T08:36:12Z</time></trkpt><trkpt lat="45.90091457985125" lon="12.015115310165568"><ele>311.8</ele><time>2026-04-26T08:36:13Z</time></trkpt><trkpt lat="45.900936544559926" lon="12.014959319654338"><ele>312.0</ele><time>2026-04-26T08:36:14Z</time></trkpt><trkpt lat="45.90096434075691" lon="12.014807293126948"><ele>312.0</ele><time>2026-04-26T08:36:15Z</time></trkpt><trkpt lat="45.900993204160166" lon="12.014668766523597"><ele>312.0</ele><time>2026-04-26T08:36:16Z</time></trkpt><trkpt lat="45.90101980365025" lon="12.014534992610828"><ele>312.0</ele><time>2026-04-26T08:36:17Z</time></trkpt><trkpt lat="45.90105102827699" lon="12.01439763998935"><ele>312.0</ele><time>2026-04-26T08:36:18Z</time></trkpt><trkpt lat="45.90108933165796" lon="12.014259965037226"><ele>312.0</ele><time>2026-04-26T08:36:19Z</time></trkpt><trkpt lat="45.901128962489096" lon="12.014125289711384"><ele>311.0</ele><time>2026-04-26T08:36:20Z</time></trkpt><trkpt lat="45.90116452801166" lon="12.013990653534623"><ele>310.0</ele><time>2026-04-26T08:36:21Z</time></trkpt><trkpt lat="45.90119756295826" lon="12.013858298488392"><ele>309.0</ele><time>2026-04-26T08:36:22Z</time></trkpt><trkpt lat="45.90123294831539" lon="12.013710746408988"><ele>308.0</ele><time>2026-04-26T08:36:23Z</time></trkpt><trkpt lat="45.90127360880555" lon="12.013548365291882"><ele>307.0</ele><time>2026-04-26T08:36:24Z</time></trkpt><trkpt lat="45.901315381214395" lon="12.013369227545978"><ele>306.6</ele><time>2026-04-26T08:36:25Z</time></trkpt><trkpt lat="45.901357333395204" lon="12.0131972734918"><ele>306.2</ele><time>2026-04-26T08:36:26Z</time></trkpt><trkpt lat="45.90139972223885" lon="12.013047681715346"><ele>305.8</ele><time>2026-04-26T08:36:27Z</time></trkpt><trkpt lat="45.90144816924828" lon="12.012909619690193"><ele>305.4</ele><time>2026-04-26T08:36:28Z</time></trkpt><trkpt lat="45.90147152208455" lon="12.012768208528048"><ele>305.0</ele><time>2026-04-26T08:36:29Z</time></trkpt><trkpt lat="45.901509042121155" lon="12.012634126765077"><ele>305.0</ele><time>2026-04-26T08:36:30Z</time></trkpt><trkpt lat="45.90154813753871" lon="12.01250527754338"><ele>305.0</ele><time>2026-04-26T08:36:31Z</time></trkpt><trkpt lat="45.90159810768273" lon="12.012374695857172"><ele>305.0</ele><time>2026-04-26T08:36:32Z</time></trkpt><trkpt lat="45.90162067679374" lon="12.01224591084364"><ele>305.0</ele><time>2026-04-26T08:36:33Z</time></trkpt><trkpt lat="45.9016566226971" lon="12.01209988184247"><ele>305.0</ele><time>2026-04-26T08:36:34Z</time></trkpt><trkpt lat="45.90169375691013" lon="12.011950879662068"><ele>305.0</ele><time>2026-04-26T08:36:35Z</time></trkpt><trkpt lat="45.90172633046074" lon="12.011811787674999"><ele>305.0</ele><time>2026-04-26T08:36:36Z</time></trkpt><trkpt lat="45.90175867335171" lon="12.011672734712976"><ele>305.0</ele><time>2026-04-26T08:36:37Z</time></trkpt><trkpt lat="45.9017889030185" lon="12.011552935235612"><ele>305.0</ele><time>2026-04-26T08:36:38Z</time></trkpt><trkpt lat="45.90182136513147" lon="12.011423955512429"><ele>305.0</ele><time>2026-04-26T08:36:39Z</time></trkpt><trkpt lat="45.9018719802979" lon="12.011294874828444"><ele>304.5</ele><time>2026-04-26T08:36:40Z</time></trkpt><trkpt lat="45.90190563447036" lon="12.011168281307622"><ele>304.0</ele><time>2026-04-26T08:36:41Z</time></trkpt><trkpt lat="45.901933622165025" lon="12.011056380569213"><ele>303.5</ele><time>2026-04-26T08:36:42Z</time></trkpt><trkpt lat="45.901961956985076" lon="12.010943186240667"><ele>303.0</ele><time>2026-04-26T08:36:43Z</time></trkpt><trkpt lat="45.9019925588742" lon="12.010821615195852"><ele>302.5</ele><time>2026-04-26T08:36:44Z</time></trkpt><trkpt lat="45.90202489856673" lon="12.010695388802928"><ele>302.0</ele><time>2026-04-26T08:36:45Z</time></trkpt><trkpt lat="45.90205739766476" lon="12.010569490624768"><ele>301.2</ele><time>2026-04-26T08:36:46Z</time></trkpt><trkpt lat="45.9020918056666" lon="12.010436197567616"><ele>300.4</ele><time>2026-04-26T08:36:47Z</time></trkpt><trkpt lat="45.90211671487728" lon="12.010298363814831"><ele>299.6</ele><time>2026-04-26T08:36:48Z</time></trkpt><trkpt lat="45.902146907764234" lon="12.010179109636196"><ele>298.8</ele><time>2026-04-26T08:36:49Z</time></trkpt><trkpt lat="45.90217631297039" lon="12.010070007601557"><ele>298.0</ele><time>2026-04-26T08:36:50Z</time></trkpt><trkpt lat="45.90221005221431" lon="12.009958115966283"><ele>297.0</ele><time>2026-04-26T08:36:51Z</time></trkpt><trkpt lat="45.90223884036294" lon="12.009831391015226"><ele>296.0</ele><time>2026-04-26T08:36:52Z</time></trkpt><trkpt lat="45.90226817062539" lon="12.009707797138613"><ele>295.0</ele><time>2026-04-26T08:36:53Z</time></trkpt><trkpt lat="45.90229862554077" lon="12.009586619165123"><ele>294.0</ele><time>2026-04-26T08:36:54Z</time></trkpt><trkpt lat="45.90232894302851" lon="12.009467674139806"><ele>293.0</ele><time>2026-04-26T08:36:55Z</time></trkpt><trkpt lat="45.90235610906991" lon="12.009358905675398"><ele>292.0</ele><time>2026-04-26T08:36:56Z</time></trkpt><trkpt lat="45.9023784058618" lon="12.00924279763502"><ele>291.4</ele><time>2026-04-26T08:36:57Z</time></trkpt><trkpt lat="45.90241184070442" lon="12.009124246350074"><ele>290.79999999999995</ele><time>2026-04-26T08:36:58Z</time></trkpt><trkpt lat="45.90242382663471" lon="12.009000071574093"><ele>290.2</ele><time>2026-04-26T08:36:59Z</time></trkpt><trkpt lat="45.902420674636694" lon="12.008803511944668"><ele>289.59999999999997</ele><time>2026-04-26T08:37:00Z</time></trkpt><trkpt lat="45.9024064277187" lon="12.008619039804097"><ele>289.0</ele><time>2026-04-26T08:37:01Z</time></trkpt><trkpt lat="45.902389097247614" lon="12.008432760710935"><ele>288.75</ele><time>2026-04-26T08:37:02Z</time></trkpt><trkpt lat="45.90236671748716" lon="12.008200277283922"><ele>288.5</ele><time>2026-04-26T08:37:03Z</time></trkpt><trkpt lat="45.90233598181833" lon="12.007982688493854"><ele>288.25</ele><time>2026-04-26T08:37:06Z</time></trkpt><trkpt lat="45.902320810772956" lon="12.007824123751114"><ele>288.0</ele><time>2026-04-26T08:37:07Z</time></trkpt><trkpt lat="45.902309815630886" lon="12.007681982383009"><ele>288.0</ele><time>2026-04-26T08:37:08Z</time></trkpt><trkpt lat="45.9022985299046" lon="12.007544006545109"><ele>288.0</ele><time>2026-04-26T08:37:09Z</time></trkpt><trkpt lat="45.902285561351654" lon="12.007412568729894"><ele>288.0</ele><time>2026-04-26T08:37:10Z</time></trkpt><trkpt lat="45.90227208001954" lon="12.007277045242583"><ele>288.0</ele><time>2026-04-26T08:37:11Z</time></trkpt><trkpt lat="45.9022582694367" lon="12.007151597744441"><ele>288.0</ele><time>2026-04-26T08:37:12Z</time></trkpt><trkpt lat="45.9022272156858" lon="12.007002444263831"><ele>287.6</ele><time>2026-04-26T08:37:13Z</time></trkpt><trkpt lat="45.902169437144146" lon="12.006845962656385"><ele>287.20000000000005</ele><time>2026-04-26T08:37:14Z</time></trkpt><trkpt lat="45.90210997132157" lon="12.006724094344799"><ele>286.8</ele><time>2026-04-26T08:37:15Z</time></trkpt><trkpt lat="45.90203563471515" lon="12.006610022545637"><ele>286.40000000000003</ele><time>2026-04-26T08:37:16Z</time></trkpt><trkpt lat="45.901981876268636" lon="12.006486103129589"><ele>286.0</ele><time>2026-04-26T08:37:17Z</time></trkpt><trkpt lat="45.90194700782872" lon="12.006349601469097"><ele>285.25</ele><time>2026-04-26T08:37:18Z</time></trkpt><trkpt lat="45.90194765017271" lon="12.006207721498381"><ele>284.5</ele><time>2026-04-26T08:37:19Z</time></trkpt><trkpt lat="45.90195777333289" lon="12.00604331203805"><ele>283.75</ele><time>2026-04-26T08:37:20Z</time></trkpt><trkpt lat="45.90197799045614" lon="12.005838875454904"><ele>283.0</ele><time>2026-04-26T08:37:21Z</time></trkpt><trkpt lat="45.90200213881752" lon="12.005667032670672"><ele>282.25</ele><time>2026-04-26T08:37:22Z</time></trkpt><trkpt lat="45.90201825493198" lon="12.005519146001335"><ele>281.5</ele><time>2026-04-26T08:37:23Z</time></trkpt><trkpt lat="45.902005067190935" lon="12.005348934225083"><ele>280.75</ele><time>2026-04-26T08:37:24Z</time></trkpt><trkpt lat="45.90199594774708" lon="12.005195081798693"><ele>280.0</ele><time>2026-04-26T08:37:25Z</time></trkpt><trkpt lat="45.90195595813036" lon="12.005020355561644"><ele>277.75</ele><time>2026-04-26T08:37:26Z</time></trkpt><trkpt lat="45.90188743839034" lon="12.004838778509777"><ele>275.5</ele><time>2026-04-26T08:37:27Z</time></trkpt><trkpt lat="45.90183147650545" lon="12.00468383418147"><ele>273.25</ele><time>2026-04-26T08:37:28Z</time></trkpt><trkpt lat="45.90178055330682" lon="12.004537526575628"><ele>271.0</ele><time>2026-04-26T08:37:29Z</time></trkpt><trkpt lat="45.90173382118017" lon="12.004388297082091"><ele>269.0</ele><time>2026-04-26T08:37:30Z</time></trkpt><trkpt lat="45.90167730568139" lon="12.004228680073455"><ele>267.0</ele><time>2026-04-26T08:37:31Z</time></trkpt><trkpt lat="45.90160980635434" lon="12.004020331612772"><ele>265.0</ele><time>2026-04-26T08:37:32Z</time></trkpt><trkpt lat="45.901547529237085" lon="12.003884299447353"><ele>263.0</ele><time>2026-04-26T08:37:33Z</time></trkpt><trkpt lat="45.90150115490513" lon="12.00372077804866"><ele>262.25</ele><time>2026-04-26T08:37:34Z</time></trkpt><trkpt lat="45.90144435062449" lon="12.003520323068985"><ele>261.5</ele><time>2026-04-26T08:37:35Z</time></trkpt><trkpt lat="45.901394065926965" lon="12.003322714316411"><ele>260.75</ele><time>2026-04-26T08:37:36Z</time></trkpt><trkpt lat="45.90133450839267" lon="12.003134264930779"><ele>260.0</ele><time>2026-04-26T08:37:37Z</time></trkpt><trkpt lat="45.90131730435825" lon="12.002936728253987"><ele>259.33333333333337</ele><time>2026-04-26T08:37:38Z</time></trkpt><trkpt lat="45.90130525116167" lon="12.002738834092563"><ele>258.6666666666667</ele><time>2026-04-26T08:37:39Z</time></trkpt><trkpt lat="45.90129844399531" lon="12.002518955105158"><ele>258.0</ele><time>2026-04-26T08:37:40Z</time></trkpt><trkpt lat="45.90128848135737" lon="12.002267854000362"><ele>258.0</ele><time>2026-04-26T08:37:41Z</time></trkpt><trkpt lat="45.90126516301236" lon="12.00204808706983"><ele>258.0</ele><time>2026-04-26T08:37:42Z</time></trkpt><trkpt lat="45.901263705912186" lon="12.001842508924817"><ele>258.0</ele><time>2026-04-26T08:37:43Z</time></trkpt><trkpt lat="45.901284880542754" lon="12.001657794506805"><ele>258.0</ele><time>2026-04-26T08:37:44Z</time></trkpt><trkpt lat="45.90130025000346" lon="12.00148973431027"><ele>257.5</ele><time>2026-04-26T08:37:45Z</time></trkpt><trkpt lat="45.90132311874507" lon="12.001306801268148"><ele>257.0</ele><time>2026-04-26T08:37:46Z</time></trkpt><trkpt lat="45.901340808273424" lon="12.001161655431531"><ele>256.5</ele><time>2026-04-26T08:37:47Z</time></trkpt><trkpt lat="45.90136025600431" lon="12.000996221811857"><ele>256.0</ele><time>2026-04-26T08:37:48Z</time></trkpt><trkpt lat="45.90136847150711" lon="12.000816854950484"><ele>255.4</ele><time>2026-04-26T08:37:49Z</time></trkpt><trkpt lat="45.901386762584174" lon="12.000641960971517"><ele>254.8</ele><time>2026-04-26T08:37:50Z</time></trkpt><trkpt lat="45.90140691791848" lon="12.000491212185018"><ele>254.20000000000002</ele><time>2026-04-26T08:37:51Z</time></trkpt><trkpt lat="45.90142497144932" lon="12.000336178854647"><ele>253.60000000000002</ele><time>2026-04-26T08:37:52Z</time></trkpt><trkpt lat="45.90145180728738" lon="12.000191369786153"><ele>253.0</ele><time>2026-04-26T08:37:53Z</time></trkpt><trkpt lat="45.901471029999335" lon="12.000032630286285"><ele>253.0</ele><time>2026-04-26T08:37:54Z</time></trkpt><trkpt lat="45.901488042566626" lon="11.99989321993624"><ele>253.0</ele><time>2026-04-26T08:37:55Z</time></trkpt><trkpt lat="45.901503229748236" lon="11.999768767881426"><ele>253.0</ele><time>2026-04-26T08:37:56Z</time></trkpt><trkpt lat="45.90151918621352" lon="11.999637622731797"><ele>253.0</ele><time>2026-04-26T08:37:57Z</time></trkpt><trkpt lat="45.901534863715625" lon="11.999508547845554"><ele>253.0</ele><time>2026-04-26T08:37:58Z</time></trkpt><trkpt lat="45.901551643621026" lon="11.999370396888288"><ele>252.99999999999997</ele><time>2026-04-26T08:37:59Z</time></trkpt><trkpt lat="45.901566338265205" lon="11.999249414069055"><ele>253.0</ele><time>2026-04-26T08:38:00Z</time></trkpt><trkpt lat="45.90158011855481" lon="11.999135959282036"><ele>253.0</ele><time>2026-04-26T08:38:01Z</time></trkpt><trkpt lat="45.90159277240006" lon="11.999031778502808"><ele>253.0</ele><time>2026-04-26T08:38:02Z</time></trkpt><trkpt lat="45.90160653919512" lon="11.99891843482472"><ele>252.99999999999997</ele><time>2026-04-26T08:38:03Z</time></trkpt><trkpt lat="45.9016206934563" lon="11.998801901164375"><ele>253.0</ele><time>2026-04-26T08:38:04Z</time></trkpt><trkpt lat="45.901633252846885" lon="11.998685597545723"><ele>252.99999999999997</ele><time>2026-04-26T08:38:05Z</time></trkpt><trkpt lat="45.90164407232537" lon="11.99858580775955"><ele>253.0</ele><time>2026-04-26T08:38:06Z</time></trkpt><trkpt lat="45.90165448674225" lon="11.998492968575865"><ele>253.0</ele><time>2026-04-26T08:38:07Z</time></trkpt><trkpt lat="45.90165836871947" lon="11.998320741492863"><ele>253.0</ele><time>2026-04-26T08:38:09Z</time></trkpt><trkpt lat="45.901684025219865" lon="11.998231852076971"><ele>252.99999999999997</ele><time>2026-04-26T08:38:10Z</time></trkpt><trkpt lat="45.901696188916766" lon="11.998132742793857"><ele>253.0</ele><time>2026-04-26T08:38:11Z</time></trkpt><trkpt lat="45.90169229157314" lon="11.99803549939677"><ele>253.00000000000003</ele><time>2026-04-26T08:38:12Z</time></trkpt><trkpt lat="45.90171888636306" lon="11.99794692732116"><ele>253.0</ele><time>2026-04-26T08:38:13Z</time></trkpt><trkpt lat="45.901730264580735" lon="11.997853703138873"><ele>253.00000000000003</ele><time>2026-04-26T08:38:14Z</time></trkpt><trkpt lat="45.90174231120547" lon="11.997748406878484"><ele>253.00000000000003</ele><time>2026-04-26T08:38:15Z</time></trkpt><trkpt lat="45.901753128290274" lon="11.997643851162492"><ele>253.0</ele><time>2026-04-26T08:38:16Z</time></trkpt><trkpt lat="45.90176355611095" lon="11.997543057916527"><ele>253.00000000000003</ele><time>2026-04-26T08:38:17Z</time></trkpt><trkpt lat="45.901774234956356" lon="11.997439838393596"><ele>253.00000000000003</ele><time>2026-04-26T08:38:18Z</time></trkpt><trkpt lat="45.90178626870913" lon="11.997342329710005"><ele>255.2</ele><time>2026-04-26T08:38:19Z</time></trkpt><trkpt lat="45.901790447489006" lon="11.99720036421932"><ele>257.4</ele><time>2026-04-26T08:38:21Z</time></trkpt><trkpt lat="45.90179877884772" lon="11.997108917664988"><ele>259.59999999999997</ele><time>2026-04-26T08:38:22Z</time></trkpt><trkpt lat="45.90182190841869" lon="11.997019307455837"><ele>261.8</ele><time>2026-04-26T08:38:23Z</time></trkpt><trkpt lat="45.901826980801985" lon="11.996845486332186"><ele>264.0</ele><time>2026-04-26T08:38:25Z</time></trkpt><trkpt lat="45.90183780432969" lon="11.99669880176633"><ele>264.0</ele><time>2026-04-26T08:38:27Z</time></trkpt><trkpt lat="45.90184652887034" lon="11.996569062599006"><ele>264.0</ele><time>2026-04-26T08:38:29Z</time></trkpt><trkpt lat="45.901844619404855" lon="11.9964753550437"><ele>264.0</ele><time>2026-04-26T08:38:30Z</time></trkpt><trkpt lat="45.90184197323426" lon="11.996342782898212"><ele>264.0</ele><time>2026-04-26T08:38:32Z</time></trkpt><trkpt lat="45.90185321478887" lon="11.996207567075427"><ele>264.0</ele><time>2026-04-26T08:38:34Z</time></trkpt><trkpt lat="45.901843257722156" lon="11.996063528105637"><ele>264.0</ele><time>2026-04-26T08:38:36Z</time></trkpt><trkpt lat="45.90181879037429" lon="11.995979762787892"><ele>263.6666666666667</ele><time>2026-04-26T08:38:37Z</time></trkpt><trkpt lat="45.90179471758281" lon="11.995810512147163"><ele>263.3333333333333</ele><time>2026-04-26T08:38:39Z</time></trkpt><trkpt lat="45.90179508086623" lon="11.995711181730845"><ele>263.0</ele><time>2026-04-26T08:38:40Z</time></trkpt><trkpt lat="45.90181871353292" lon="11.995621751131011"><ele>262.66666666666663</ele><time>2026-04-26T08:38:41Z</time></trkpt><trkpt lat="45.90185274789079" lon="11.995542387354883"><ele>262.3333333333333</ele><time>2026-04-26T08:38:42Z</time></trkpt><trkpt lat="45.901884053472536" lon="11.995462092674925"><ele>262.0</ele><time>2026-04-26T08:38:43Z</time></trkpt><trkpt lat="45.90193741590148" lon="11.995375789563115"><ele>262.0</ele><time>2026-04-26T08:38:44Z</time></trkpt><trkpt lat="45.90200809670101" lon="11.995265940275868"><ele>262.0</ele><time>2026-04-26T08:38:45Z</time></trkpt><trkpt lat="45.90209645767469" lon="11.995132761681406"><ele>262.0</ele><time>2026-04-26T08:38:46Z</time></trkpt><trkpt lat="45.9021975592413" lon="11.994982382925516"><ele>262.0</ele><time>2026-04-26T08:38:47Z</time></trkpt><trkpt lat="45.902273634556295" lon="11.994869087297115"><ele>262.0</ele><time>2026-04-26T08:38:48Z</time></trkpt><trkpt lat="45.90233669095896" lon="11.994779421198709"><ele>262.0</ele><time>2026-04-26T08:38:49Z</time></trkpt><trkpt lat="45.90239734377255" lon="11.994692256354973"><ele>262.0</ele><time>2026-04-26T08:38:50Z</time></trkpt><trkpt lat="45.9024607627709" lon="11.994528563772047"><ele>262.0</ele><time>2026-04-26T08:38:52Z</time></trkpt><trkpt lat="45.90246638313855" lon="11.994431171185564"><ele>262.0</ele><time>2026-04-26T08:38:53Z</time></trkpt><trkpt lat="45.902384503391794" lon="11.994310442470233"><ele>262.0</ele><time>2026-04-26T08:38:54Z</time></trkpt><trkpt lat="45.90232028436151" lon="11.994242813825267"><ele>262.0</ele><time>2026-04-26T08:38:55Z</time></trkpt><trkpt lat="45.90219485036493" lon="11.994211086277263"><ele>262.0</ele><time>2026-04-26T08:38:57Z</time></trkpt><trkpt lat="45.9021235379304" lon="11.994265585411092"><ele>262.0</ele><time>2026-04-26T08:38:58Z</time></trkpt><trkpt lat="45.90203497582926" lon="11.994284497802164"><ele>262.0</ele><time>2026-04-26T08:38:59Z</time></trkpt><trkpt lat="45.901945315844095" lon="11.994332182942722"><ele>262.0</ele><time>2026-04-26T08:39:00Z</time></trkpt><trkpt lat="45.90186974353347" lon="11.994353695943436"><ele>262.0</ele><time>2026-04-26T08:39:01Z</time></trkpt><trkpt lat="45.9018028656729" lon="11.994359047183039"><ele>262.0</ele><time>2026-04-26T08:39:02Z</time></trkpt><trkpt lat="45.90174648785928" lon="11.994399440783184"><ele>262.0</ele><time>2026-04-26T08:39:03Z</time></trkpt><trkpt lat="45.901677951196994" lon="11.994421681936187"><ele>262.0</ele><time>2026-04-26T08:39:04Z</time></trkpt><trkpt lat="45.90154875937858" lon="11.994436807593017"><ele>262.0</ele><time>2026-04-26T08:39:06Z</time></trkpt><trkpt lat="45.90147926402858" lon="11.994464067532471"><ele>261.6</ele><time>2026-04-26T08:39:07Z</time></trkpt><trkpt lat="45.90141185907281" lon="11.994456016617853"><ele>261.2</ele><time>2026-04-26T08:39:08Z</time></trkpt><trkpt lat="45.901291550775724" lon="11.99445945159952"><ele>260.8</ele><time>2026-04-26T08:39:10Z</time></trkpt><trkpt lat="45.901172831481674" lon="11.994457758071572"><ele>260.4</ele><time>2026-04-26T08:39:12Z</time></trkpt><trkpt lat="45.90106935461339" lon="11.994396397734679"><ele>260.0</ele><time>2026-04-26T08:39:14Z</time></trkpt><trkpt lat="45.90101625401855" lon="11.994319953991646"><ele>260.0</ele><time>2026-04-26T08:39:15Z</time></trkpt><trkpt lat="45.900963691205945" lon="11.994237365754602"><ele>260.0</ele><time>2026-04-26T08:39:16Z</time></trkpt><trkpt lat="45.90087681120773" lon="11.994117526727333"><ele>260.0</ele><time>2026-04-26T08:39:18.001Z</time></trkpt><trkpt lat="45.900833707998146" lon="11.994051329813022"><ele>260.0</ele><time>2026-04-26T08:39:19.001Z</time></trkpt><trkpt lat="45.90078198946121" lon="11.993973189974172"><ele>260.0</ele><time>2026-04-26T08:39:20.001Z</time></trkpt><trkpt lat="45.900722826950854" lon="11.993903114628148"><ele>260.0</ele><time>2026-04-26T08:39:21.001Z</time></trkpt><trkpt lat="45.90066183295248" lon="11.993807151682281"><ele>260.2</ele><time>2026-04-26T08:39:22.001Z</time></trkpt><trkpt lat="45.90062381318135" lon="11.99366553196663"><ele>260.4</ele><time>2026-04-26T08:39:23.001Z</time></trkpt><trkpt lat="45.900614973436035" lon="11.993510063374034"><ele>260.6</ele><time>2026-04-26T08:39:24.001Z</time></trkpt><trkpt lat="45.90059250684527" lon="11.993387432762932"><ele>260.8</ele><time>2026-04-26T08:39:25Z</time></trkpt><trkpt lat="45.90056145637873" lon="11.993287109001308"><ele>261.0</ele><time>2026-04-26T08:39:26Z</time></trkpt><trkpt lat="45.90052905064662" lon="11.993168518342177"><ele>261.6</ele><time>2026-04-26T08:39:27Z</time></trkpt><trkpt lat="45.90050166316835" lon="11.993036867268357"><ele>262.20000000000005</ele><time>2026-04-26T08:39:28Z</time></trkpt><trkpt lat="45.90044942402542" lon="11.992922928740736"><ele>262.79999999999995</ele><time>2026-04-26T08:39:29Z</time></trkpt><trkpt lat="45.900389850574825" lon="11.992813600603403"><ele>263.4</ele><time>2026-04-26T08:39:30Z</time></trkpt><trkpt lat="45.90033955418821" lon="11.992727077962552"><ele>264.0</ele><time>2026-04-26T08:39:31Z</time></trkpt><trkpt lat="45.90029227275061" lon="11.992597894439045"><ele>264.2</ele><time>2026-04-26T08:39:32Z</time></trkpt><trkpt lat="45.90018427999918" lon="11.992454730503015"><ele>264.4</ele><time>2026-04-26T08:39:34Z</time></trkpt><trkpt lat="45.90012295173348" lon="11.992358238955818"><ele>264.6</ele><time>2026-04-26T08:39:35Z</time></trkpt><trkpt lat="45.900062505336216" lon="11.992258941439554"><ele>264.8</ele><time>2026-04-26T08:39:36Z</time></trkpt><trkpt lat="45.90000647981027" lon="11.99215781110271"><ele>265.0</ele><time>2026-04-26T08:39:37Z</time></trkpt><trkpt lat="45.89994339483923" lon="11.992053887114412"><ele>264.4</ele><time>2026-04-26T08:39:38Z</time></trkpt><trkpt lat="45.899879561479835" lon="11.991951380591988"><ele>263.8</ele><time>2026-04-26T08:39:39Z</time></trkpt><trkpt lat="45.899823067736506" lon="11.991846344124134"><ele>263.2</ele><time>2026-04-26T08:39:40Z</time></trkpt><trkpt lat="45.89976787919952" lon="11.991740726887953"><ele>262.6</ele><time>2026-04-26T08:39:41Z</time></trkpt><trkpt lat="45.899714038643744" lon="11.991630690652405"><ele>262.0</ele><time>2026-04-26T08:39:42Z</time></trkpt><trkpt lat="45.89965948579661" lon="11.991522820356737"><ele>262.0</ele><time>2026-04-26T08:39:43Z</time></trkpt><trkpt lat="45.89960846435616" lon="11.99141366195141"><ele>262.0</ele><time>2026-04-26T08:39:44Z</time></trkpt><trkpt lat="45.899557736129594" lon="11.991297087373544"><ele>262.0</ele><time>2026-04-26T08:39:45Z</time></trkpt><trkpt lat="45.89951838180125" lon="11.991186095069825"><ele>262.0</ele><time>2026-04-26T08:39:46Z</time></trkpt><trkpt lat="45.89947927598185" lon="11.99106458346465"><ele>262.0</ele><time>2026-04-26T08:39:47Z</time></trkpt><trkpt lat="45.89946164368503" lon="11.990929070588399"><ele>262.6</ele><time>2026-04-26T08:39:48Z</time></trkpt><trkpt lat="45.89943495574794" lon="11.990797625520125"><ele>263.2</ele><time>2026-04-26T08:39:49Z</time></trkpt><trkpt lat="45.89941899884127" lon="11.990664727533238"><ele>263.8</ele><time>2026-04-26T08:39:50Z</time></trkpt><trkpt lat="45.899427284192214" lon="11.990529029727288"><ele>264.4</ele><time>2026-04-26T08:39:51Z</time></trkpt><trkpt lat="45.89945716978804" lon="11.990379488331271"><ele>265.0</ele><time>2026-04-26T08:39:52Z</time></trkpt><trkpt lat="45.89946606129399" lon="11.99020047469651"><ele>265.0</ele><time>2026-04-26T08:39:53Z</time></trkpt><trkpt lat="45.89950498446586" lon="11.990009077685388"><ele>265.0</ele><time>2026-04-26T08:39:54Z</time></trkpt><trkpt lat="45.89952355942926" lon="11.98982348962728"><ele>265.0</ele><time>2026-04-26T08:39:55Z</time></trkpt><trkpt lat="45.89956008189053" lon="11.989643806381263"><ele>265.0</ele><time>2026-04-26T08:39:56Z</time></trkpt><trkpt lat="45.89957076081511" lon="11.98946982457161"><ele>264.75</ele><time>2026-04-26T08:39:57Z</time></trkpt><trkpt lat="45.89959175811177" lon="11.989279604996907"><ele>264.5</ele><time>2026-04-26T08:39:58Z</time></trkpt><trkpt lat="45.89961419553819" lon="11.989069570304453"><ele>264.25</ele><time>2026-04-26T08:39:59Z</time></trkpt><trkpt lat="45.89963102918687" lon="11.988857973308908"><ele>264.0</ele><time>2026-04-26T08:40:00Z</time></trkpt><trkpt lat="45.89963995448759" lon="11.988684643492547"><ele>263.4</ele><time>2026-04-26T08:40:01Z</time></trkpt><trkpt lat="45.89966827545958" lon="11.988532996917769"><ele>262.79999999999995</ele><time>2026-04-26T08:40:02Z</time></trkpt><trkpt lat="45.89969042511239" lon="11.988382040421069"><ele>262.20000000000005</ele><time>2026-04-26T08:40:03Z</time></trkpt><trkpt lat="45.89969970807068" lon="11.98822520179076"><ele>261.6</ele><time>2026-04-26T08:40:04Z</time></trkpt><trkpt lat="45.899715693183964" lon="11.988077738712525"><ele>261.0</ele><time>2026-04-26T08:40:05Z</time></trkpt><trkpt lat="45.89973345446463" lon="11.987926448549276"><ele>259.40000000000003</ele><time>2026-04-26T08:40:06Z</time></trkpt><trkpt lat="45.89975046836557" lon="11.987801681207522"><ele>257.8</ele><time>2026-04-26T08:40:07Z</time></trkpt><trkpt lat="45.89975978450412" lon="11.987660168632956"><ele>256.20000000000005</ele><time>2026-04-26T08:40:08Z</time></trkpt><trkpt lat="45.89976734807451" lon="11.987511478356152"><ele>254.60000000000002</ele><time>2026-04-26T08:40:09Z</time></trkpt><trkpt lat="45.89975774913487" lon="11.98735750030226"><ele>253.0</ele><time>2026-04-26T08:40:10Z</time></trkpt><trkpt lat="45.89972645754272" lon="11.987269780192314"><ele>252.5</ele><time>2026-04-26T08:40:11Z</time></trkpt><trkpt lat="45.89965899111803" lon="11.987188449650041"><ele>252.0</ele><time>2026-04-26T08:40:12Z</time></trkpt><trkpt lat="45.89955699242494" lon="11.987127884629034"><ele>251.5</ele><time>2026-04-26T08:40:13Z</time></trkpt><trkpt lat="45.899411875071564" lon="11.987079650425297"><ele>251.0</ele><time>2026-04-26T08:40:14Z</time></trkpt><trkpt lat="45.89928831038772" lon="11.987016626561607"><ele>251.25</ele><time>2026-04-26T08:40:15Z</time></trkpt><trkpt lat="45.8991841486765" lon="11.98693839970696"><ele>251.5</ele><time>2026-04-26T08:40:16Z</time></trkpt><trkpt lat="45.89906045837633" lon="11.986816032745963"><ele>251.75</ele><time>2026-04-26T08:40:17Z</time></trkpt><trkpt lat="45.89893102532292" lon="11.986699201893607"><ele>252.0</ele><time>2026-04-26T08:40:18Z</time></trkpt><trkpt lat="45.89881770333883" lon="11.986602297143016"><ele>251.0</ele><time>2026-04-26T08:40:19Z</time></trkpt><trkpt lat="45.898724941942035" lon="11.986503372163437"><ele>250.0</ele><time>2026-04-26T08:40:20Z</time></trkpt><trkpt lat="45.89860036643147" lon="11.986394716231718"><ele>249.0</ele><time>2026-04-26T08:40:21Z</time></trkpt><trkpt lat="45.8985015613998" lon="11.986289425212698"><ele>248.0</ele><time>2026-04-26T08:40:22Z</time></trkpt><trkpt lat="45.898403715079766" lon="11.986200922734062"><ele>248.0</ele><time>2026-04-26T08:40:23Z</time></trkpt><trkpt lat="45.89831605301934" lon="11.986110923826638"><ele>248.0</ele><time>2026-04-26T08:40:24Z</time></trkpt><trkpt lat="45.89823518894559" lon="11.986024307896951"><ele>248.0</ele><time>2026-04-26T08:40:25Z</time></trkpt><trkpt lat="45.89815920848532" lon="11.985934075252118"><ele>248.0</ele><time>2026-04-26T08:40:26Z</time></trkpt><trkpt lat="45.89808611972736" lon="11.985853352075674"><ele>248.0</ele><time>2026-04-26T08:40:27Z</time></trkpt><trkpt lat="45.89801873948347" lon="11.985772913242508"><ele>247.66666666666669</ele><time>2026-04-26T08:40:28Z</time></trkpt><trkpt lat="45.89795037964833" lon="11.98571248799584"><ele>247.33333333333334</ele><time>2026-04-26T08:40:29Z</time></trkpt><trkpt lat="45.89788047842846" lon="11.985662657349613"><ele>247.0</ele><time>2026-04-26T08:40:30Z</time></trkpt><trkpt lat="45.897801280188645" lon="11.985616691471932"><ele>246.66666666666669</ele><time>2026-04-26T08:40:31Z</time></trkpt><trkpt lat="45.89774411566915" lon="11.985566096469327"><ele>246.33333333333334</ele><time>2026-04-26T08:40:32Z</time></trkpt><trkpt lat="45.897660562324134" lon="11.985563381047612"><ele>246.0</ele><time>2026-04-26T08:40:33Z</time></trkpt><trkpt lat="45.89759105679362" lon="11.985520858412373"><ele>245.66666666666666</ele><time>2026-04-26T08:40:34Z</time></trkpt><trkpt lat="45.8975285839018" lon="11.985492073326741"><ele>245.33333333333331</ele><time>2026-04-26T08:40:35Z</time></trkpt><trkpt lat="45.89745173626164" lon="11.98544948404685"><ele>245.0</ele><time>2026-04-26T08:40:37Z</time></trkpt><trkpt lat="45.89738319829821" lon="11.985398250746567"><ele>244.66666666666666</ele><time>2026-04-26T08:40:39Z</time></trkpt><trkpt lat="45.89733660257754" lon="11.985330581544977"><ele>244.33333333333331</ele><time>2026-04-26T08:40:43Z</time></trkpt><trkpt lat="45.89740691597452" lon="11.985152935870657"><ele>244.0</ele><time>2026-04-26T08:40:46Z</time></trkpt><trkpt lat="45.897461408139776" lon="11.985041505512015"><ele>243.33333333333331</ele><time>2026-04-26T08:40:47Z</time></trkpt><trkpt lat="45.89750991649507" lon="11.984896412854923"><ele>242.66666666666666</ele><time>2026-04-26T08:40:48Z</time></trkpt><trkpt lat="45.89752191418541" lon="11.984755075808836"><ele>242.0</ele><time>2026-04-26T08:40:49Z</time></trkpt><trkpt lat="45.897553017165784" lon="11.984650622353845"><ele>241.33333333333331</ele><time>2026-04-26T08:40:50Z</time></trkpt><trkpt lat="45.897576214083195" lon="11.984550213295314"><ele>240.66666666666666</ele><time>2026-04-26T08:40:51Z</time></trkpt><trkpt lat="45.89759903336593" lon="11.984458256747855"><ele>240.0</ele><time>2026-04-26T08:40:52Z</time></trkpt><trkpt lat="45.89762758643619" lon="11.984359728863115"><ele>240.0</ele><time>2026-04-26T08:40:53Z</time></trkpt><trkpt lat="45.89766684629925" lon="11.984246125016691"><ele>240.0</ele><time>2026-04-26T08:40:54Z</time></trkpt><trkpt lat="45.897708782534814" lon="11.98411330965219"><ele>240.0</ele><time>2026-04-26T08:40:55Z</time></trkpt><trkpt lat="45.897773319905376" lon="11.983991974729642"><ele>240.0</ele><time>2026-04-26T08:40:56Z</time></trkpt><trkpt lat="45.89784666054066" lon="11.983836675918871"><ele>240.0</ele><time>2026-04-26T08:40:57Z</time></trkpt><trkpt lat="45.89788914582758" lon="11.983699249945635"><ele>239.75</ele><time>2026-04-26T08:40:58Z</time></trkpt><trkpt lat="45.89790345036584" lon="11.983557772764115"><ele>239.5</ele><time>2026-04-26T08:40:59Z</time></trkpt><trkpt lat="45.89789363220539" lon="11.983382524640236"><ele>239.25</ele><time>2026-04-26T08:41:00Z</time></trkpt><trkpt lat="45.89785491952408" lon="11.983190109491812"><ele>239.0</ele><time>2026-04-26T08:41:01Z</time></trkpt><trkpt lat="45.89780476016511" lon="11.983014786394602"><ele>239.0</ele><time>2026-04-26T08:41:02Z</time></trkpt><trkpt lat="45.897746745550215" lon="11.982820314120154"><ele>239.0</ele><time>2026-04-26T08:41:03Z</time></trkpt><trkpt lat="45.897698189879605" lon="11.982622000296772"><ele>239.0</ele><time>2026-04-26T08:41:04Z</time></trkpt><trkpt lat="45.897642444723644" lon="11.982443518412996"><ele>239.0</ele><time>2026-04-26T08:41:05Z</time></trkpt><trkpt lat="45.89758660531073" lon="11.982259827724375"><ele>237.0</ele><time>2026-04-26T08:41:06Z</time></trkpt><trkpt lat="45.897534490577385" lon="11.982073783078036"><ele>235.0</ele><time>2026-04-26T08:41:07Z</time></trkpt><trkpt lat="45.89750429687237" lon="11.981912915179258"><ele>233.0</ele><time>2026-04-26T08:41:08Z</time></trkpt><trkpt lat="45.89746064796524" lon="11.981698060453803"><ele>231.0</ele><time>2026-04-26T08:41:09Z</time></trkpt><trkpt lat="45.89739370772909" lon="11.98153526665865"><ele>231.0</ele><time>2026-04-26T08:41:10Z</time></trkpt><trkpt lat="45.897335068093305" lon="11.981356927624025"><ele>231.0</ele><time>2026-04-26T08:41:11Z</time></trkpt><trkpt lat="45.89728200855743" lon="11.981171494829812"><ele>231.0</ele><time>2026-04-26T08:41:12Z</time></trkpt><trkpt lat="45.897235038135676" lon="11.980981356182902"><ele>231.0</ele><time>2026-04-26T08:41:13Z</time></trkpt><trkpt lat="45.8971770919071" lon="11.980804241850052"><ele>231.25</ele><time>2026-04-26T08:41:14Z</time></trkpt><trkpt lat="45.897127870601" lon="11.980617796015377"><ele>231.5</ele><time>2026-04-26T08:41:15Z</time></trkpt><trkpt lat="45.89707084241567" lon="11.980461090533327"><ele>231.75</ele><time>2026-04-26T08:41:16Z</time></trkpt><trkpt lat="45.897016134900625" lon="11.980272293605768"><ele>232.0</ele><time>2026-04-26T08:41:17Z</time></trkpt><trkpt lat="45.89696762004151" lon="11.980092860371004"><ele>231.75</ele><time>2026-04-26T08:41:18Z</time></trkpt><trkpt lat="45.89691505040681" lon="11.97991156713438"><ele>231.5</ele><time>2026-04-26T08:41:19Z</time></trkpt><trkpt lat="45.89685607251382" lon="11.979736238360388"><ele>231.25</ele><time>2026-04-26T08:41:20Z</time></trkpt><trkpt lat="45.896806024582766" lon="11.979546973454005"><ele>231.0</ele><time>2026-04-26T08:41:21Z</time></trkpt><trkpt lat="45.89675484074431" lon="11.97936361415442"><ele>229.5</ele><time>2026-04-26T08:41:22Z</time></trkpt><trkpt lat="45.89669946022781" lon="11.979176096196904"><ele>228.0</ele><time>2026-04-26T08:41:23.001Z</time></trkpt><trkpt lat="45.89664958382772" lon="11.978983558811898"><ele>226.5</ele><time>2026-04-26T08:41:24.001Z</time></trkpt><trkpt lat="45.89659880858448" lon="11.978782752673578"><ele>225.0</ele><time>2026-04-26T08:41:25.001Z</time></trkpt><trkpt lat="45.89654824573221" lon="11.978597594147109"><ele>225.0</ele><time>2026-04-26T08:41:26.001Z</time></trkpt><trkpt lat="45.89649479693728" lon="11.978412010524123"><ele>225.0</ele><time>2026-04-26T08:41:27.001Z</time></trkpt><trkpt lat="45.89643681827245" lon="11.978236248808793"><ele>225.0</ele><time>2026-04-26T08:41:28.001Z</time></trkpt><trkpt lat="45.896391146723765" lon="11.97809118925108"><ele>225.0</ele><time>2026-04-26T08:41:29.001Z</time></trkpt><trkpt lat="45.89634100629122" lon="11.977874266015414"><ele>225.0</ele><time>2026-04-26T08:41:30.001Z</time></trkpt><trkpt lat="45.89627449441245" lon="11.97767155442597"><ele>225.0</ele><time>2026-04-26T08:41:31.001Z</time></trkpt><trkpt lat="45.896219605275114" lon="11.977479266378626"><ele>225.0</ele><time>2026-04-26T08:41:32Z</time></trkpt><trkpt lat="45.896167461539726" lon="11.977295035333546"><ele>225.0</ele><time>2026-04-26T08:41:33Z</time></trkpt><trkpt lat="45.8961170082199" lon="11.977117297755122"><ele>225.0</ele><time>2026-04-26T08:41:34Z</time></trkpt><trkpt lat="45.89606543444615" lon="11.976940237411089"><ele>225.0</ele><time>2026-04-26T08:41:35Z</time></trkpt><trkpt lat="45.89600839816824" lon="11.97677335344036"><ele>225.0</ele><time>2026-04-26T08:41:36Z</time></trkpt><trkpt lat="45.895955249524555" lon="11.97660218752432"><ele>225.0</ele><time>2026-04-26T08:41:37Z</time></trkpt><trkpt lat="45.895909207333546" lon="11.976445743174729"><ele>225.6</ele><time>2026-04-26T08:41:38Z</time></trkpt><trkpt lat="45.89587388642194" lon="11.976286861939098"><ele>226.2</ele><time>2026-04-26T08:41:39Z</time></trkpt><trkpt lat="45.895830247852146" lon="11.976144022690756"><ele>226.8</ele><time>2026-04-26T08:41:40Z</time></trkpt><trkpt lat="45.895785034894075" lon="11.976003884556338"><ele>227.4</ele><time>2026-04-26T08:41:41Z</time></trkpt><trkpt lat="45.89573597357691" lon="11.975854863512103"><ele>228.0</ele><time>2026-04-26T08:41:42Z</time></trkpt><trkpt lat="45.895698442113755" lon="11.975688713383368"><ele>228.0</ele><time>2026-04-26T08:41:43Z</time></trkpt><trkpt lat="45.8956604905111" lon="11.975515690488596"><ele>228.0</ele><time>2026-04-26T08:41:44Z</time></trkpt><trkpt lat="45.895618159130215" lon="11.97535046912433"><ele>228.0</ele><time>2026-04-26T08:41:45Z</time></trkpt><trkpt lat="45.89557419451198" lon="11.97517987633937"><ele>228.0</ele><time>2026-04-26T08:41:46Z</time></trkpt><trkpt lat="45.89553558967089" lon="11.975029001134649"><ele>228.8</ele><time>2026-04-26T08:41:47Z</time></trkpt><trkpt lat="45.89550841345496" lon="11.974869448569304"><ele>229.60000000000002</ele><time>2026-04-26T08:41:48Z</time></trkpt><trkpt lat="45.89549227962523" lon="11.974700748106986"><ele>230.39999999999998</ele><time>2026-04-26T08:41:49Z</time></trkpt><trkpt lat="45.8954806030126" lon="11.974534668575236"><ele>231.2</ele><time>2026-04-26T08:41:50Z</time></trkpt><trkpt lat="45.895465000327164" lon="11.97440718815469"><ele>232.0</ele><time>2026-04-26T08:41:51Z</time></trkpt><trkpt lat="45.89547796824097" lon="11.974208442647695"><ele>233.0</ele><time>2026-04-26T08:41:52Z</time></trkpt><trkpt lat="45.895494356955545" lon="11.974031909318997"><ele>234.0</ele><time>2026-04-26T08:41:53Z</time></trkpt><trkpt lat="45.89551883487093" lon="11.973847752615644"><ele>235.0</ele><time>2026-04-26T08:41:54Z</time></trkpt><trkpt lat="45.89555262069118" lon="11.973667181964053"><ele>236.0</ele><time>2026-04-26T08:41:55Z</time></trkpt><trkpt lat="45.89558375065115" lon="11.973510003561884"><ele>236.0</ele><time>2026-04-26T08:41:56Z</time></trkpt><trkpt lat="45.89561246023272" lon="11.973359720647382"><ele>236.0</ele><time>2026-04-26T08:41:57Z</time></trkpt><trkpt lat="45.89564262274795" lon="11.973204219219156"><ele>236.0</ele><time>2026-04-26T08:41:58Z</time></trkpt><trkpt lat="45.89567211388591" lon="11.973036383479949"><ele>236.0</ele><time>2026-04-26T08:41:59Z</time></trkpt><trkpt lat="45.89571260006961" lon="11.972871107184183"><ele>234.75</ele><time>2026-04-26T08:42:00Z</time></trkpt><trkpt lat="45.8957428145153" lon="11.9726983416577"><ele>233.5</ele><time>2026-04-26T08:42:01Z</time></trkpt><trkpt lat="45.895766986411815" lon="11.972544804526128"><ele>232.25</ele><time>2026-04-26T08:42:02Z</time></trkpt><trkpt lat="45.89579347184777" lon="11.9723853745225"><ele>231.0</ele><time>2026-04-26T08:42:03Z</time></trkpt><trkpt lat="45.895818834949175" lon="11.97223060441463"><ele>230.20000000000002</ele><time>2026-04-26T08:42:04Z</time></trkpt><trkpt lat="45.895845865576604" lon="11.972073043834193"><ele>229.40000000000003</ele><time>2026-04-26T08:42:05Z</time></trkpt><trkpt lat="45.89587700562342" lon="11.971914384742114"><ele>228.6</ele><time>2026-04-26T08:42:06Z</time></trkpt><trkpt lat="45.89590905295516" lon="11.971759379867706"><ele>227.8</ele><time>2026-04-26T08:42:07Z</time></trkpt><trkpt lat="45.89593298632185" lon="11.971614815329835"><ele>227.0</ele><time>2026-04-26T08:42:08Z</time></trkpt><trkpt lat="45.89595142992138" lon="11.97146621121338"><ele>230.75</ele><time>2026-04-26T08:42:09Z</time></trkpt><trkpt lat="45.89597758239441" lon="11.971311804680349"><ele>234.5</ele><time>2026-04-26T08:42:10Z</time></trkpt><trkpt lat="45.89601125612588" lon="11.971155544893701"><ele>238.25</ele><time>2026-04-26T08:42:11Z</time></trkpt><trkpt lat="45.896039287601354" lon="11.970997064964783"><ele>242.0</ele><time>2026-04-26T08:42:12Z</time></trkpt><trkpt lat="45.89606396817071" lon="11.970826706315624"><ele>242.0</ele><time>2026-04-26T08:42:13Z</time></trkpt><trkpt lat="45.896083633233815" lon="11.97065310845993"><ele>242.0</ele><time>2026-04-26T08:42:14Z</time></trkpt><trkpt lat="45.896095563997996" lon="11.970478210852693"><ele>242.0</ele><time>2026-04-26T08:42:15Z</time></trkpt><trkpt lat="45.8961036626436" lon="11.970301673254975"><ele>242.0</ele><time>2026-04-26T08:42:16Z</time></trkpt><trkpt lat="45.89609872786803" lon="11.97011161249165"><ele>242.25</ele><time>2026-04-26T08:42:17Z</time></trkpt><trkpt lat="45.89609457252055" lon="11.969918608036988"><ele>242.5</ele><time>2026-04-26T08:42:18Z</time></trkpt><trkpt lat="45.896109781275456" lon="11.969737150362153"><ele>242.75</ele><time>2026-04-26T08:42:19Z</time></trkpt><trkpt lat="45.89612297136697" lon="11.969553429143795"><ele>243.0</ele><time>2026-04-26T08:42:20Z</time></trkpt><trkpt lat="45.89614912655983" lon="11.969369558573355"><ele>243.0</ele><time>2026-04-26T08:42:21Z</time></trkpt><trkpt lat="45.89617659179912" lon="11.969211870670165"><ele>243.0</ele><time>2026-04-26T08:42:22Z</time></trkpt><trkpt lat="45.89618755878713" lon="11.969063362369736"><ele>243.0</ele><time>2026-04-26T08:42:23Z</time></trkpt><trkpt lat="45.89619290529283" lon="11.968901197775928"><ele>243.0</ele><time>2026-04-26T08:42:24Z</time></trkpt><trkpt lat="45.89619244424811" lon="11.968715655108161"><ele>242.66666666666669</ele><time>2026-04-26T08:42:25Z</time></trkpt><trkpt lat="45.896200844547764" lon="11.96851136798746"><ele>242.33333333333334</ele><time>2026-04-26T08:42:26Z</time></trkpt><trkpt lat="45.89621784047804" lon="11.96828801405762"><ele>242.0</ele><time>2026-04-26T08:42:27Z</time></trkpt><trkpt lat="45.89623168728542" lon="11.968057228705757"><ele>241.5</ele><time>2026-04-26T08:42:28Z</time></trkpt><trkpt lat="45.89624639844905" lon="11.96785957010865"><ele>241.0</ele><time>2026-04-26T08:42:29Z</time></trkpt><trkpt lat="45.89625876194679" lon="11.9676673904635"><ele>240.5</ele><time>2026-04-26T08:42:30Z</time></trkpt><trkpt lat="45.89626316264146" lon="11.967451999301543"><ele>240.0</ele><time>2026-04-26T08:42:31Z</time></trkpt><trkpt lat="45.896289400904685" lon="11.967273441914475"><ele>239.5</ele><time>2026-04-26T08:42:32Z</time></trkpt><trkpt lat="45.89632169565463" lon="11.967104276157007"><ele>239.0</ele><time>2026-04-26T08:42:33Z</time></trkpt><trkpt lat="45.89631303603947" lon="11.966915635774173"><ele>238.5</ele><time>2026-04-26T08:42:34Z</time></trkpt><trkpt lat="45.89633080887813" lon="11.966764019975058"><ele>238.0</ele><time>2026-04-26T08:42:35Z</time></trkpt><trkpt lat="45.896329626086555" lon="11.966604131694718"><ele>237.60000000000002</ele><time>2026-04-26T08:42:36Z</time></trkpt><trkpt lat="45.89634111287087" lon="11.966457141236065"><ele>237.20000000000002</ele><time>2026-04-26T08:42:37Z</time></trkpt><trkpt lat="45.89633768692332" lon="11.966310058389869"><ele>236.8</ele><time>2026-04-26T08:42:38Z</time></trkpt><trkpt lat="45.89635219829641" lon="11.966177754376208"><ele>236.4</ele><time>2026-04-26T08:42:39Z</time></trkpt><trkpt lat="45.89635474665955" lon="11.966047964100222"><ele>236.0</ele><time>2026-04-26T08:42:40Z</time></trkpt><trkpt lat="45.89635342194654" lon="11.965929415298453"><ele>235.33333333333334</ele><time>2026-04-26T08:42:41Z</time></trkpt><trkpt lat="45.89633996160584" lon="11.965834141363876"><ele>234.66666666666669</ele><time>2026-04-26T08:42:42Z</time></trkpt><trkpt lat="45.896321381255106" lon="11.965746332781936"><ele>234.0</ele><time>2026-04-26T08:42:43Z</time></trkpt><trkpt lat="45.89627203963063" lon="11.965656045637317"><ele>233.33333333333331</ele><time>2026-04-26T08:42:44Z</time></trkpt><trkpt lat="45.896203394844484" lon="11.965544797162869"><ele>232.66666666666666</ele><time>2026-04-26T08:42:45Z</time></trkpt><trkpt lat="45.896144914466326" lon="11.96546194085127"><ele>232.0</ele><time>2026-04-26T08:42:46Z</time></trkpt><trkpt lat="45.89609155279308" lon="11.965381470014956"><ele>232.0</ele><time>2026-04-26T08:42:47Z</time></trkpt><trkpt lat="45.89604063741113" lon="11.965277970255075"><ele>232.0</ele><time>2026-04-26T08:42:48Z</time></trkpt><trkpt lat="45.89599211974762" lon="11.965118861122143"><ele>232.0</ele><time>2026-04-26T08:42:49Z</time></trkpt><trkpt lat="45.89593604028357" lon="11.964921257640228"><ele>232.0</ele><time>2026-04-26T08:42:50Z</time></trkpt><trkpt lat="45.89587537458895" lon="11.96470916904213"><ele>229.0</ele><time>2026-04-26T08:42:51Z</time></trkpt><trkpt lat="45.8958117498425" lon="11.964483508612137"><ele>226.0</ele><time>2026-04-26T08:42:52Z</time></trkpt><trkpt lat="45.895753012925766" lon="11.964285265378708"><ele>223.0</ele><time>2026-04-26T08:42:53Z</time></trkpt><trkpt lat="45.895695042689276" lon="11.964073348443355"><ele>222.75</ele><time>2026-04-26T08:42:54Z</time></trkpt><trkpt lat="45.8956408639228" lon="11.963879083885748"><ele>222.5</ele><time>2026-04-26T08:42:55Z</time></trkpt><trkpt lat="45.895591987697465" lon="11.963706526399706"><ele>222.25</ele><time>2026-04-26T08:42:56Z</time></trkpt><trkpt lat="45.895543549682934" lon="11.963546695504167"><ele>222.0</ele><time>2026-04-26T08:42:57Z</time></trkpt><trkpt lat="45.89549524681077" lon="11.963396776619222"><ele>222.75</ele><time>2026-04-26T08:42:58Z</time></trkpt><trkpt lat="45.895461444224836" lon="11.96324581718573"><ele>223.5</ele><time>2026-04-26T08:42:59Z</time></trkpt><trkpt lat="45.895418108038285" lon="11.963111097811472"><ele>224.25</ele><time>2026-04-26T08:43:00Z</time></trkpt><trkpt lat="45.895378451110986" lon="11.962971749137104"><ele>225.0</ele><time>2026-04-26T08:43:01Z</time></trkpt><trkpt lat="45.89532600350635" lon="11.96274769480402"><ele>225.0</ele><time>2026-04-26T08:43:03Z</time></trkpt><trkpt lat="45.89531123607177" lon="11.962636473697257"><ele>225.0</ele><time>2026-04-26T08:43:04Z</time></trkpt><trkpt lat="45.895319488039604" lon="11.962420291856182"><ele>225.0</ele><time>2026-04-26T08:43:06Z</time></trkpt><trkpt lat="45.89536502760566" lon="11.962273814324616"><ele>225.0</ele><time>2026-04-26T08:43:07Z</time></trkpt><trkpt lat="45.895412638981405" lon="11.96210583749736"><ele>225.4</ele><time>2026-04-26T08:43:08Z</time></trkpt><trkpt lat="45.89547047642629" lon="11.961981892283982"><ele>225.8</ele><time>2026-04-26T08:43:09Z</time></trkpt><trkpt lat="45.89553141128126" lon="11.961889642545392"><ele>226.2</ele><time>2026-04-26T08:43:10Z</time></trkpt><trkpt lat="45.895607166313376" lon="11.96181150117499"><ele>226.6</ele><time>2026-04-26T08:43:11Z</time></trkpt><trkpt lat="45.89571285553642" lon="11.961739359508076"><ele>227.0</ele><time>2026-04-26T08:43:12Z</time></trkpt><trkpt lat="45.89582005442037" lon="11.961673060853775"><ele>227.33333333333334</ele><time>2026-04-26T08:43:13Z</time></trkpt><trkpt lat="45.89590999370022" lon="11.961596318147581"><ele>227.66666666666669</ele><time>2026-04-26T08:43:14Z</time></trkpt><trkpt lat="45.89598163762082" lon="11.961505455907913"><ele>228.0</ele><time>2026-04-26T08:43:15Z</time></trkpt><trkpt lat="45.896039045507244" lon="11.961413682936787"><ele>228.33333333333331</ele><time>2026-04-26T08:43:16Z</time></trkpt><trkpt lat="45.896078982701795" lon="11.961321907320386"><ele>228.66666666666666</ele><time>2026-04-26T08:43:17Z</time></trkpt><trkpt lat="45.89609482452533" lon="11.961214197026598"><ele>229.0</ele><time>2026-04-26T08:43:18Z</time></trkpt><trkpt lat="45.89607152005304" lon="11.961078712986113"><ele>229.0</ele><time>2026-04-26T08:43:19Z</time></trkpt><trkpt lat="45.89601336590503" lon="11.960974136882712"><ele>229.0</ele><time>2026-04-26T08:43:20Z</time></trkpt><trkpt lat="45.89592213247003" lon="11.960890108763497"><ele>229.0</ele><time>2026-04-26T08:43:21Z</time></trkpt><trkpt lat="45.895801552123444" lon="11.960849276416702"><ele>229.0</ele><time>2026-04-26T08:43:22Z</time></trkpt><trkpt lat="45.89565501198962" lon="11.960837736284013"><ele>226.39999999999998</ele><time>2026-04-26T08:43:23Z</time></trkpt><trkpt lat="45.89552247620347" lon="11.960836330306227"><ele>223.79999999999998</ele><time>2026-04-26T08:43:24Z</time></trkpt><trkpt lat="45.89541993153224" lon="11.960830870433862"><ele>221.20000000000002</ele><time>2026-04-26T08:43:25Z</time></trkpt><trkpt lat="45.895340789499116" lon="11.960776154361863"><ele>218.60000000000002</ele><time>2026-04-26T08:43:26Z</time></trkpt><trkpt lat="45.89525593085391" lon="11.96073800613694"><ele>216.0</ele><time>2026-04-26T08:43:27Z</time></trkpt><trkpt lat="45.895196561558606" lon="11.960641742751864"><ele>216.0</ele><time>2026-04-26T08:43:28Z</time></trkpt><trkpt lat="45.89518523554147" lon="11.960468514117608"><ele>216.0</ele><time>2026-04-26T08:43:29Z</time></trkpt><trkpt lat="45.89516630245608" lon="11.960289543429177"><ele>216.0</ele><time>2026-04-26T08:43:30Z</time></trkpt><trkpt lat="45.89516896892355" lon="11.96012854458427"><ele>216.0</ele><time>2026-04-26T08:43:31Z</time></trkpt><trkpt lat="45.89518042678262" lon="11.959988633054731"><ele>216.75</ele><time>2026-04-26T08:43:32Z</time></trkpt><trkpt lat="45.89519958904523" lon="11.959837362421808"><ele>217.5</ele><time>2026-04-26T08:43:33Z</time></trkpt><trkpt lat="45.89524409681496" lon="11.959696123517041"><ele>218.25</ele><time>2026-04-26T08:43:34Z</time></trkpt><trkpt lat="45.895326914074246" lon="11.959555768731096"><ele>219.0</ele><time>2026-04-26T08:43:35Z</time></trkpt><trkpt lat="45.895410005639555" lon="11.959383497898127"><ele>219.0</ele><time>2026-04-26T08:43:36Z</time></trkpt><trkpt lat="45.895513843546524" lon="11.95922478438505"><ele>219.0</ele><time>2026-04-26T08:43:37Z</time></trkpt><trkpt lat="45.89559313432936" lon="11.959083553510803"><ele>219.0</ele><time>2026-04-26T08:43:38Z</time></trkpt><trkpt lat="45.89566313791093" lon="11.958946806480329"><ele>219.0</ele><time>2026-04-26T08:43:39Z</time></trkpt><trkpt lat="45.8957264058165" lon="11.958815202692248"><ele>216.25</ele><time>2026-04-26T08:43:40Z</time></trkpt><trkpt lat="45.89579476373424" lon="11.958692689034539"><ele>213.5</ele><time>2026-04-26T08:43:41Z</time></trkpt><trkpt lat="45.895876340876995" lon="11.95854611449669"><ele>210.75</ele><time>2026-04-26T08:43:42Z</time></trkpt><trkpt lat="45.89592450025343" lon="11.958358240553018"><ele>208.0</ele><time>2026-04-26T08:43:43Z</time></trkpt><trkpt lat="45.89594854063175" lon="11.958174412065395"><ele>213.25</ele><time>2026-04-26T08:43:44Z</time></trkpt><trkpt lat="45.89596574616444" lon="11.958005029410643"><ele>218.5</ele><time>2026-04-26T08:43:45Z</time></trkpt><trkpt lat="45.89598693599532" lon="11.957850348363953"><ele>223.75</ele><time>2026-04-26T08:43:46Z</time></trkpt><trkpt lat="45.89600471342199" lon="11.95769321191327"><ele>229.0</ele><time>2026-04-26T08:43:47Z</time></trkpt><trkpt lat="45.89602464705007" lon="11.957534049425668"><ele>229.0</ele><time>2026-04-26T08:43:48Z</time></trkpt><trkpt lat="45.89604775527057" lon="11.957372382719308"><ele>229.0</ele><time>2026-04-26T08:43:49Z</time></trkpt><trkpt lat="45.896073997690664" lon="11.957199238932375"><ele>229.0</ele><time>2026-04-26T08:43:50Z</time></trkpt><trkpt lat="45.89609891717656" lon="11.957023921791482"><ele>229.0</ele><time>2026-04-26T08:43:51Z</time></trkpt><trkpt lat="45.896121006126954" lon="11.956863873393742"><ele>229.0</ele><time>2026-04-26T08:43:52Z</time></trkpt><trkpt lat="45.896152239835835" lon="11.956717943342168"><ele>228.99999999999997</ele><time>2026-04-26T08:43:53Z</time></trkpt><trkpt lat="45.89617005609778" lon="11.956562315213594"><ele>228.99999999999997</ele><time>2026-04-26T08:43:54Z</time></trkpt><trkpt lat="45.89619104503787" lon="11.956384695555032"><ele>229.0</ele><time>2026-04-26T08:43:55Z</time></trkpt><trkpt lat="45.896202828732044" lon="11.95626851633293"><ele>229.0</ele><time>2026-04-26T08:43:56Z</time></trkpt><trkpt lat="45.89622107662259" lon="11.956122912815076"><ele>227.2</ele><time>2026-04-26T08:43:57Z</time></trkpt><trkpt lat="45.896240399769695" lon="11.955970996082009"><ele>225.39999999999998</ele><time>2026-04-26T08:43:58Z</time></trkpt><trkpt lat="45.89626234975509" lon="11.95582186404796"><ele>223.6</ele><time>2026-04-26T08:43:59Z</time></trkpt><trkpt lat="45.896278680854714" lon="11.955666510683702"><ele>221.8</ele><time>2026-04-26T08:44:00Z</time></trkpt><trkpt lat="45.89630731188075" lon="11.95552595989256"><ele>220.0</ele><time>2026-04-26T08:44:01Z</time></trkpt><trkpt lat="45.89633608257508" lon="11.955382434511382"><ele>218.0</ele><time>2026-04-26T08:44:02Z</time></trkpt><trkpt lat="45.8963701286479" lon="11.955227691022055"><ele>216.0</ele><time>2026-04-26T08:44:03Z</time></trkpt><trkpt lat="45.89640575432586" lon="11.955074671099528"><ele>214.0</ele><time>2026-04-26T08:44:04Z</time></trkpt><trkpt lat="45.89644196335817" lon="11.954931136176233"><ele>212.0</ele><time>2026-04-26T08:44:05Z</time></trkpt><trkpt lat="45.896480488397515" lon="11.954797738712315"><ele>210.0</ele><time>2026-04-26T08:44:06Z</time></trkpt><trkpt lat="45.89653313292993" lon="11.954655827204094"><ele>207.4</ele><time>2026-04-26T08:44:07Z</time></trkpt><trkpt lat="45.89661165614809" lon="11.954509800278506"><ele>204.8</ele><time>2026-04-26T08:44:08Z</time></trkpt><trkpt lat="45.896656199140416" lon="11.954394959129289"><ele>202.2</ele><time>2026-04-26T08:44:09Z</time></trkpt><trkpt lat="45.89671364686333" lon="11.954275693315118"><ele>199.6</ele><time>2026-04-26T08:44:10Z</time></trkpt><trkpt lat="45.89678128848204" lon="11.954141694116519"><ele>197.0</ele><time>2026-04-26T08:44:11Z</time></trkpt><trkpt lat="45.89684110652382" lon="11.954039803558414"><ele>196.00000000000003</ele><time>2026-04-26T08:44:12Z</time></trkpt><trkpt lat="45.89689577899787" lon="11.953944871003152"><ele>195.0</ele><time>2026-04-26T08:44:13Z</time></trkpt><trkpt lat="45.896955790767116" lon="11.953843910977731"><ele>194.0</ele><time>2026-04-26T08:44:14Z</time></trkpt><trkpt lat="45.897015727655145" lon="11.95374901236347"><ele>193.0</ele><time>2026-04-26T08:44:15Z</time></trkpt><trkpt lat="45.89706598752688" lon="11.953666645835606"><ele>192.0</ele><time>2026-04-26T08:44:16Z</time></trkpt><trkpt lat="45.897112748306895" lon="11.953585792315621"><ele>191.0</ele><time>2026-04-26T08:44:17Z</time></trkpt><trkpt lat="45.89717151581042" lon="11.953487864399857"><ele>188.5</ele><time>2026-04-26T08:44:18Z</time></trkpt><trkpt lat="45.89724435468465" lon="11.953369945728795"><ele>186.0</ele><time>2026-04-26T08:44:19Z</time></trkpt><trkpt lat="45.89731839925285" lon="11.953323239886965"><ele>183.5</ele><time>2026-04-26T08:44:20Z</time></trkpt><trkpt lat="45.89743288271735" lon="11.953177574163064"><ele>181.0</ele><time>2026-04-26T08:44:21Z</time></trkpt><trkpt lat="45.89754733247722" lon="11.953053812191486"><ele>186.33333333333334</ele><time>2026-04-26T08:44:22Z</time></trkpt><trkpt lat="45.897675789690716" lon="11.952926527588016"><ele>191.66666666666669</ele><time>2026-04-26T08:44:23Z</time></trkpt><trkpt lat="45.89781226005277" lon="11.952812439458548"><ele>197.0</ele><time>2026-04-26T08:44:24Z</time></trkpt><trkpt lat="45.89795923224849" lon="11.952711702383489"><ele>197.0</ele><time>2026-04-26T08:44:25Z</time></trkpt><trkpt lat="45.89812817636001" lon="11.952625731668027"><ele>197.0</ele><time>2026-04-26T08:44:26Z</time></trkpt><trkpt lat="45.898327718272725" lon="11.952538256742015"><ele>197.0</ele><time>2026-04-26T08:44:27Z</time></trkpt><trkpt lat="45.89851698716045" lon="11.952428821293669"><ele>195.33333333333334</ele><time>2026-04-26T08:44:28Z</time></trkpt><trkpt lat="45.898699792559285" lon="11.952355264151086"><ele>193.66666666666669</ele><time>2026-04-26T08:44:29Z</time></trkpt><trkpt lat="45.89887429913464" lon="11.952273721974054"><ele>192.0</ele><time>2026-04-26T08:44:30Z</time></trkpt><trkpt lat="45.89902799689446" lon="11.9522010795023"><ele>192.0</ele><time>2026-04-26T08:44:31Z</time></trkpt><trkpt lat="45.899186790802936" lon="11.95212442375638"><ele>192.0</ele><time>2026-04-26T08:44:32Z</time></trkpt><trkpt lat="45.89933517153196" lon="11.952054449261995"><ele>192.0</ele><time>2026-04-26T08:44:33Z</time></trkpt><trkpt lat="45.899464778766735" lon="11.951987484247262"><ele>198.39999999999998</ele><time>2026-04-26T08:44:34Z</time></trkpt><trkpt lat="45.89958339887514" lon="11.951929332637814"><ele>204.79999999999998</ele><time>2026-04-26T08:44:35Z</time></trkpt><trkpt lat="45.899686911735216" lon="11.9518809135744"><ele>211.2</ele><time>2026-04-26T08:44:36Z</time></trkpt><trkpt lat="45.89978351245071" lon="11.951836733190431"><ele>217.6</ele><time>2026-04-26T08:44:37Z</time></trkpt><trkpt lat="45.899870966389244" lon="11.951788989039631"><ele>224.0</ele><time>2026-04-26T08:44:38Z</time></trkpt><trkpt lat="45.89997155077514" lon="11.951743879482864"><ele>224.0</ele><time>2026-04-26T08:44:39Z</time></trkpt><trkpt lat="45.90006110147545" lon="11.951708683357529"><ele>224.0</ele><time>2026-04-26T08:44:40Z</time></trkpt><trkpt lat="45.90016125592775" lon="11.95168120861295"><ele>224.0</ele><time>2026-04-26T08:44:41Z</time></trkpt><trkpt lat="45.90031142184887" lon="11.951719048189323"><ele>224.0</ele><time>2026-04-26T08:44:42Z</time></trkpt><trkpt lat="45.90045458917759" lon="11.951660230953529"><ele>214.33333333333334</ele><time>2026-04-26T08:44:43Z</time></trkpt><trkpt lat="45.90061714516507" lon="11.951639789442527"><ele>204.66666666666669</ele><time>2026-04-26T08:44:44Z</time></trkpt><trkpt lat="45.90079213698294" lon="11.95162184541794"><ele>195.0</ele><time>2026-04-26T08:44:45Z</time></trkpt><trkpt lat="45.90098904444321" lon="11.951613674963767"><ele>192.66666666666666</ele><time>2026-04-26T08:44:46Z</time></trkpt><trkpt lat="45.90118050584138" lon="11.951621730870315"><ele>190.33333333333331</ele><time>2026-04-26T08:44:47Z</time></trkpt><trkpt lat="45.90136440092106" lon="11.951640318342184"><ele>188.0</ele><time>2026-04-26T08:44:48Z</time></trkpt><trkpt lat="45.90155016370766" lon="11.951645188726403"><ele>188.0</ele><time>2026-04-26T08:44:49Z</time></trkpt><trkpt lat="45.90174158538454" lon="11.95165009743238"><ele>188.0</ele><time>2026-04-26T08:44:50Z</time></trkpt><trkpt lat="45.9019340945655" lon="11.951654865907502"><ele>188.0</ele><time>2026-04-26T08:44:51Z</time></trkpt><trkpt lat="45.90212053993214" lon="11.951659202983084"><ele>188.33333333333331</ele><time>2026-04-26T08:44:52Z</time></trkpt><trkpt lat="45.90232010725287" lon="11.951662487378792"><ele>188.66666666666666</ele><time>2026-04-26T08:44:53Z</time></trkpt><trkpt lat="45.90252297707954" lon="11.951674657996277"><ele>189.0</ele><time>2026-04-26T08:44:54Z</time></trkpt><trkpt lat="45.90270406535281" lon="11.951676419853307"><ele>188.0</ele><time>2026-04-26T08:44:55Z</time></trkpt><trkpt lat="45.90287457508391" lon="11.95168222138844"><ele>187.0</ele><time>2026-04-26T08:44:56Z</time></trkpt><trkpt lat="45.903040262138475" lon="11.95169373003141"><ele>186.0</ele><time>2026-04-26T08:44:57Z</time></trkpt><trkpt lat="45.903196691697666" lon="11.951701470981604"><ele>197.33333333333331</ele><time>2026-04-26T08:44:58Z</time></trkpt><trkpt lat="45.90335231187189" lon="11.951714205568434"><ele>208.66666666666666</ele><time>2026-04-26T08:44:59Z</time></trkpt><trkpt lat="45.903507876000404" lon="11.951718579825629"><ele>220.0</ele><time>2026-04-26T08:45:00Z</time></trkpt><trkpt lat="45.90367262441603" lon="11.95172774976297"><ele>220.0</ele><time>2026-04-26T08:45:01Z</time></trkpt><trkpt lat="45.90382110446788" lon="11.951734021809157"><ele>220.0</ele><time>2026-04-26T08:45:02Z</time></trkpt><trkpt lat="45.90396967472023" lon="11.951734753218012"><ele>220.0</ele><time>2026-04-26T08:45:03Z</time></trkpt><trkpt lat="45.90410317021956" lon="11.9517358429663"><ele>220.0</ele><time>2026-04-26T08:45:04Z</time></trkpt><trkpt lat="45.90423228764748" lon="11.951730584740911"><ele>216.75</ele><time>2026-04-26T08:45:05Z</time></trkpt><trkpt lat="45.904348143060474" lon="11.951723940165966"><ele>213.5</ele><time>2026-04-26T08:45:06Z</time></trkpt><trkpt lat="45.9044647863671" lon="11.951708826905337"><ele>210.25</ele><time>2026-04-26T08:45:07Z</time></trkpt><trkpt lat="45.90458569629286" lon="11.951716355248058"><ele>207.0</ele><time>2026-04-26T08:45:08Z</time></trkpt><trkpt lat="45.90470973151607" lon="11.951747666899406"><ele>207.0</ele><time>2026-04-26T08:45:09Z</time></trkpt><trkpt lat="45.90482623725233" lon="11.95179037192204"><ele>207.0</ele><time>2026-04-26T08:45:10Z</time></trkpt><trkpt lat="45.90492953312788" lon="11.95185228933529"><ele>207.0</ele><time>2026-04-26T08:45:11Z</time></trkpt><trkpt lat="45.9050218052242" lon="11.951916208545457"><ele>207.0</ele><time>2026-04-26T08:45:12Z</time></trkpt><trkpt lat="45.90510959440783" lon="11.951963899295537"><ele>207.0</ele><time>2026-04-26T08:45:13Z</time></trkpt><trkpt lat="45.905199619110526" lon="11.952024453040147"><ele>202.8</ele><time>2026-04-26T08:45:14Z</time></trkpt><trkpt lat="45.90530001431495" lon="11.95205475095519"><ele>198.6</ele><time>2026-04-26T08:45:15Z</time></trkpt><trkpt lat="45.905414305902426" lon="11.952057658067474"><ele>194.4</ele><time>2026-04-26T08:45:16Z</time></trkpt><trkpt lat="45.90552365711812" lon="11.952028343694048"><ele>190.20000000000002</ele><time>2026-04-26T08:45:17Z</time></trkpt><trkpt lat="45.9056278037227" lon="11.952017498839838"><ele>186.0</ele><time>2026-04-26T08:45:18Z</time></trkpt><trkpt lat="45.90571847543968" lon="11.951974040520774"><ele>186.0</ele><time>2026-04-26T08:45:19Z</time></trkpt><trkpt lat="45.9058035830227" lon="11.951880616273264"><ele>186.0</ele><time>2026-04-26T08:45:20Z</time></trkpt><trkpt lat="45.905901295163765" lon="11.951786395842737"><ele>186.0</ele><time>2026-04-26T08:45:21Z</time></trkpt><trkpt lat="45.90598922453891" lon="11.951698047758683"><ele>186.0</ele><time>2026-04-26T08:45:22Z</time></trkpt><trkpt lat="45.90616930563553" lon="11.951766199204913"><ele>183.0</ele><time>2026-04-26T08:45:23Z</time></trkpt><trkpt lat="45.90631832273386" lon="11.951753432165095"><ele>180.0</ele><time>2026-04-26T08:45:24Z</time></trkpt><trkpt lat="45.90648203410566" lon="11.951698995670167"><ele>177.0</ele><time>2026-04-26T08:45:25Z</time></trkpt><trkpt lat="45.90664860333751" lon="11.95166261664379"><ele>176.0</ele><time>2026-04-26T08:45:26Z</time></trkpt><trkpt lat="45.9068284456335" lon="11.951622126691255"><ele>175.0</ele><time>2026-04-26T08:45:27Z</time></trkpt><trkpt lat="45.907013389942854" lon="11.951573963794425"><ele>174.0</ele><time>2026-04-26T08:45:28Z</time></trkpt><trkpt lat="45.90721728128869" lon="11.9515443163944"><ele>174.0</ele><time>2026-04-26T08:45:29Z</time></trkpt><trkpt lat="45.90738409329237" lon="11.951482172443344"><ele>174.0</ele><time>2026-04-26T08:45:30Z</time></trkpt><trkpt lat="45.907565772381105" lon="11.95144140759466"><ele>174.0</ele><time>2026-04-26T08:45:31Z</time></trkpt><trkpt lat="45.90776319194471" lon="11.951404359917985"><ele>175.0</ele><time>2026-04-26T08:45:32Z</time></trkpt><trkpt lat="45.90793395119002" lon="11.95135707828247"><ele>176.0</ele><time>2026-04-26T08:45:33Z</time></trkpt><trkpt lat="45.90810887284808" lon="11.951323840909732"><ele>177.0</ele><time>2026-04-26T08:45:34Z</time></trkpt><trkpt lat="45.90829588542114" lon="11.951277069779625"><ele>177.66666666666666</ele><time>2026-04-26T08:45:35Z</time></trkpt><trkpt lat="45.90847330318827" lon="11.951233942826551"><ele>178.33333333333331</ele><time>2026-04-26T08:45:36Z</time></trkpt><trkpt lat="45.908641968116214" lon="11.951189103831927"><ele>179.0</ele><time>2026-04-26T08:45:37Z</time></trkpt><trkpt lat="45.908808615535946" lon="11.95114480076067"><ele>179.0</ele><time>2026-04-26T08:45:38Z</time></trkpt><trkpt lat="45.90897740584673" lon="11.951101405786181"><ele>179.0</ele><time>2026-04-26T08:45:39Z</time></trkpt><trkpt lat="45.90914900802013" lon="11.951064603855741"><ele>179.0</ele><time>2026-04-26T08:45:40Z</time></trkpt><trkpt lat="45.90932131471135" lon="11.951020536757223"><ele>178.33333333333331</ele><time>2026-04-26T08:45:41Z</time></trkpt><trkpt lat="45.90949594625084" lon="11.950979818895268"><ele>177.66666666666666</ele><time>2026-04-26T08:45:42Z</time></trkpt><trkpt lat="45.90966996055811" lon="11.950941351792999"><ele>177.0</ele><time>2026-04-26T08:45:43Z</time></trkpt><trkpt lat="45.909840926234196" lon="11.95089664011407"><ele>176.33333333333334</ele><time>2026-04-26T08:45:44Z</time></trkpt><trkpt lat="45.91001298356307" lon="11.950856230571432"><ele>175.66666666666669</ele><time>2026-04-26T08:45:45Z</time></trkpt><trkpt lat="45.91018545336068" lon="11.950820470685066"><ele>175.0</ele><time>2026-04-26T08:45:46Z</time></trkpt><trkpt lat="45.91035997581121" lon="11.950780092543729"><ele>175.0</ele><time>2026-04-26T08:45:47Z</time></trkpt><trkpt lat="45.910534715662244" lon="11.950744795239215"><ele>175.0</ele><time>2026-04-26T08:45:48Z</time></trkpt><trkpt lat="45.91070346409291" lon="11.950689002488428"><ele>175.0</ele><time>2026-04-26T08:45:49Z</time></trkpt><trkpt lat="45.91088351867224" lon="11.950651396931976"><ele>175.0</ele><time>2026-04-26T08:45:50Z</time></trkpt><trkpt lat="45.91106057228215" lon="11.950614915595365"><ele>175.0</ele><time>2026-04-26T08:45:51Z</time></trkpt><trkpt lat="45.91123026758111" lon="11.950566015692694"><ele>175.0</ele><time>2026-04-26T08:45:52Z</time></trkpt><trkpt lat="45.91140185038697" lon="11.950519542407202"><ele>175.0</ele><time>2026-04-26T08:45:53Z</time></trkpt><trkpt lat="45.91157147923879" lon="11.950476172587365"><ele>175.0</ele><time>2026-04-26T08:45:54Z</time></trkpt><trkpt lat="45.91174249575785" lon="11.95044531007265"><ele>175.0</ele><time>2026-04-26T08:45:55Z</time></trkpt><trkpt lat="45.91191292812891" lon="11.950409812630813"><ele>176.33333333333334</ele><time>2026-04-26T08:45:56Z</time></trkpt><trkpt lat="45.912087237375125" lon="11.950386201018235"><ele>177.66666666666666</ele><time>2026-04-26T08:45:57Z</time></trkpt><trkpt lat="45.912260336937" lon="11.950358762310556"><ele>179.0</ele><time>2026-04-26T08:45:58Z</time></trkpt><trkpt lat="45.91242629793946" lon="11.950309187243388"><ele>178.33333333333331</ele><time>2026-04-26T08:45:59Z</time></trkpt><trkpt lat="45.91260222453837" lon="11.950260200350039"><ele>177.66666666666666</ele><time>2026-04-26T08:46:00Z</time></trkpt><trkpt lat="45.91277831951474" lon="11.950223808544477"><ele>177.0</ele><time>2026-04-26T08:46:01Z</time></trkpt><trkpt lat="45.91295471425536" lon="11.950182975419866"><ele>177.0</ele><time>2026-04-26T08:46:02Z</time></trkpt><trkpt lat="45.913137429647975" lon="11.950159422801512"><ele>177.0</ele><time>2026-04-26T08:46:03Z</time></trkpt><trkpt lat="45.91331924146923" lon="11.950133091962272"><ele>177.0</ele><time>2026-04-26T08:46:04Z</time></trkpt><trkpt lat="45.91349839814016" lon="11.950113842673021"><ele>177.33333333333334</ele><time>2026-04-26T08:46:05Z</time></trkpt><trkpt lat="45.913666688503085" lon="11.950105653558722"><ele>177.66666666666669</ele><time>2026-04-26T08:46:06Z</time></trkpt><trkpt lat="45.913845331052" lon="11.950127869063728"><ele>178.0</ele><time>2026-04-26T08:46:07Z</time></trkpt><trkpt lat="45.914020252857156" lon="11.950140205225178"><ele>178.0</ele><time>2026-04-26T08:46:08Z</time></trkpt><trkpt lat="45.914205396134754" lon="11.95015341468017"><ele>178.0</ele><time>2026-04-26T08:46:09Z</time></trkpt><trkpt lat="45.91437564145667" lon="11.95014007166486"><ele>178.0</ele><time>2026-04-26T08:46:10Z</time></trkpt><trkpt lat="45.91455033140522" lon="11.950136056453067"><ele>178.0</ele><time>2026-04-26T08:46:11Z</time></trkpt><trkpt lat="45.914729679335814" lon="11.95013723616885"><ele>178.0</ele><time>2026-04-26T08:46:12Z</time></trkpt><trkpt lat="45.914872121370074" lon="11.950153722579813"><ele>178.0</ele><time>2026-04-26T08:46:13Z</time></trkpt><trkpt lat="45.91501800929706" lon="11.950155228445198"><ele>178.66666666666669</ele><time>2026-04-26T08:46:14Z</time></trkpt><trkpt lat="45.91526105652787" lon="11.95014120078424"><ele>179.33333333333334</ele><time>2026-04-26T08:46:15Z</time></trkpt><trkpt lat="45.915438614586634" lon="11.950143357303608"><ele>180.0</ele><time>2026-04-26T08:46:16Z</time></trkpt><trkpt lat="45.91561274647428" lon="11.95015174040103"><ele>180.0</ele><time>2026-04-26T08:46:17Z</time></trkpt><trkpt lat="45.91578332145826" lon="11.950158571127409"><ele>180.0</ele><time>2026-04-26T08:46:18Z</time></trkpt><trkpt lat="45.91595406185019" lon="11.950169922971124"><ele>180.0</ele><time>2026-04-26T08:46:19Z</time></trkpt><trkpt lat="45.916126442217916" lon="11.950179994384953"><ele>180.0</ele><time>2026-04-26T08:46:20Z</time></trkpt><trkpt lat="45.916294086119066" lon="11.9501792137412"><ele>180.0</ele><time>2026-04-26T08:46:21Z</time></trkpt><trkpt lat="45.916464577167346" lon="11.950181011676179"><ele>180.0</ele><time>2026-04-26T08:46:22Z</time></trkpt><trkpt lat="45.91663702976119" lon="11.950187289167674"><ele>180.66666666666666</ele><time>2026-04-26T08:46:23Z</time></trkpt><trkpt lat="45.916803537097934" lon="11.950191095570807"><ele>181.33333333333331</ele><time>2026-04-26T08:46:24Z</time></trkpt><trkpt lat="45.91697458896898" lon="11.95019274729443"><ele>182.0</ele><time>2026-04-26T08:46:25Z</time></trkpt><trkpt lat="45.91713960913718" lon="11.950195189148198"><ele>182.0</ele><time>2026-04-26T08:46:26Z</time></trkpt><trkpt lat="45.9173068201593" lon="11.95019982120708"><ele>182.0</ele><time>2026-04-26T08:46:27Z</time></trkpt><trkpt lat="45.91747597285529" lon="11.950197300833784"><ele>182.0</ele><time>2026-04-26T08:46:28Z</time></trkpt><trkpt lat="45.91765103755037" lon="11.950185385829275"><ele>184.66666666666666</ele><time>2026-04-26T08:46:29Z</time></trkpt><trkpt lat="45.91784247481356" lon="11.95016646512105"><ele>187.33333333333334</ele><time>2026-04-26T08:46:30Z</time></trkpt><trkpt lat="45.91804784187373" lon="11.950141854899249"><ele>190.0</ele><time>2026-04-26T08:46:31Z</time></trkpt><trkpt lat="45.918260467716834" lon="11.950115643361082"><ele>190.0</ele><time>2026-04-26T08:46:32Z</time></trkpt><trkpt lat="45.918482876688266" lon="11.95008884133488"><ele>190.0</ele><time>2026-04-26T08:46:33Z</time></trkpt><trkpt lat="45.91871380338417" lon="11.95006300087073"><ele>188.5</ele><time>2026-04-26T08:46:34Z</time></trkpt><trkpt lat="45.91895195346572" lon="11.950027935733205"><ele>187.0</ele><time>2026-04-26T08:46:35Z</time></trkpt><trkpt lat="45.91918796699907" lon="11.949997703407266"><ele>187.33333333333334</ele><time>2026-04-26T08:46:36Z</time></trkpt><trkpt lat="45.91940846350538" lon="11.949979352795534"><ele>187.66666666666666</ele><time>2026-04-26T08:46:37Z</time></trkpt><trkpt lat="45.91962716634662" lon="11.949953016898098"><ele>188.0</ele><time>2026-04-26T08:46:38Z</time></trkpt><trkpt lat="45.91985216526321" lon="11.949923324912763"><ele>190.0</ele><time>2026-04-26T08:46:39Z</time></trkpt><trkpt lat="45.920071356018624" lon="11.949897160503577"><ele>192.0</ele><time>2026-04-26T08:46:40Z</time></trkpt><trkpt lat="45.92026907618181" lon="11.94986782304033"><ele>194.0</ele><time>2026-04-26T08:46:41Z</time></trkpt><trkpt lat="45.92046362331469" lon="11.949843213862177"><ele>194.0</ele><time>2026-04-26T08:46:42Z</time></trkpt><trkpt lat="45.92065680764495" lon="11.949819549204326"><ele>194.0</ele><time>2026-04-26T08:46:43Z</time></trkpt><trkpt lat="45.92085745345535" lon="11.949794392970764"><ele>194.0</ele><time>2026-04-26T08:46:44Z</time></trkpt><trkpt lat="45.92105793209962" lon="11.9497921153545"><ele>199.0</ele><time>2026-04-26T08:46:45Z</time></trkpt><trkpt lat="45.92125140165603" lon="11.949769641624616"><ele>204.0</ele><time>2026-04-26T08:46:46Z</time></trkpt><trkpt lat="45.921437090307826" lon="11.949727161355987"><ele>209.0</ele><time>2026-04-26T08:46:47Z</time></trkpt><trkpt lat="45.92163337563883" lon="11.949734765419759"><ele>221.0</ele><time>2026-04-26T08:46:48Z</time></trkpt><trkpt lat="45.9218281617464" lon="11.94972499625402"><ele>233.0</ele><time>2026-04-26T08:46:49Z</time></trkpt><trkpt lat="45.92202312952327" lon="11.949718633237621"><ele>245.0</ele><time>2026-04-26T08:46:50Z</time></trkpt><trkpt lat="45.922219368449205" lon="11.949712370790511"><ele>245.0</ele><time>2026-04-26T08:46:51.015Z</time></trkpt><trkpt lat="45.92241118298656" lon="11.949706249539414"><ele>245.0</ele><time>2026-04-26T08:46:52.019Z</time></trkpt><trkpt lat="45.92259948232515" lon="11.949700240462114"><ele>245.0</ele><time>2026-04-26T08:46:53.015Z</time></trkpt><trkpt lat="45.92278586103585" lon="11.949692743000929"><ele>257.5</ele><time>2026-04-26T08:46:54.014Z</time></trkpt><trkpt lat="45.92297580434047" lon="11.949681980605417"><ele>270.0</ele><time>2026-04-26T08:46:55.017Z</time></trkpt><trkpt lat="45.923725344132336" lon="11.949602093223165"><ele>284.3333333333333</ele><time>2026-04-26T08:46:58.984Z</time></trkpt><trkpt lat="45.92391003529238" lon="11.949526744636488"><ele>298.66666666666663</ele><time>2026-04-26T08:46:59.982Z</time></trkpt><trkpt lat="45.924097435698584" lon="11.94948048872752"><ele>313.0</ele><time>2026-04-26T08:47:00.986Z</time></trkpt><trkpt lat="45.92428648013046" lon="11.949453111098727"><ele>327.3333333333333</ele><time>2026-04-26T08:47:01.985Z</time></trkpt><trkpt lat="45.924472471024245" lon="11.94939374495215"><ele>341.6666666666667</ele><time>2026-04-26T08:47:02.986Z</time></trkpt><trkpt lat="45.924651560691494" lon="11.94930486025714"><ele>356.0</ele><time>2026-04-26T08:47:03.983Z</time></trkpt><trkpt lat="45.92483412741265" lon="11.949233120931396"><ele>345.33333333333337</ele><time>2026-04-26T08:47:04.982Z</time></trkpt><trkpt lat="45.92502144130144" lon="11.949182844806748"><ele>334.6666666666667</ele><time>2026-04-26T08:47:05.983Z</time></trkpt><trkpt lat="45.925203355231595" lon="11.9491007020412"><ele>324.0</ele><time>2026-04-26T08:47:06.987Z</time></trkpt><trkpt lat="45.92537581725673" lon="11.948988001469608"><ele>324.0</ele><time>2026-04-26T08:47:07.983Z</time></trkpt><trkpt lat="45.92555290453498" lon="11.948888829612004"><ele>324.0</ele><time>2026-04-26T08:47:08.986Z</time></trkpt><trkpt lat="45.92572856382368" lon="11.948787010903585"><ele>324.0</ele><time>2026-04-26T08:47:09.987Z</time></trkpt><trkpt lat="45.92590874312894" lon="11.948703401496395"><ele>330.0</ele><time>2026-04-26T08:47:10.982Z</time></trkpt><trkpt lat="45.926082686333174" lon="11.948594050920548"><ele>336.0</ele><time>2026-04-26T08:47:11.984Z</time></trkpt><trkpt lat="45.926254777755666" lon="11.948476816778683"><ele>342.0</ele><time>2026-04-26T08:47:12.986Z</time></trkpt><trkpt lat="45.92641534027814" lon="11.948331623001668"><ele>333.3333333333333</ele><time>2026-04-26T08:47:13.984Z</time></trkpt><trkpt lat="45.926583077001695" lon="11.948203789992595"><ele>324.66666666666663</ele><time>2026-04-26T08:47:14.987Z</time></trkpt><trkpt lat="45.926754799835045" lon="11.948087581778358"><ele>316.0</ele><time>2026-04-26T08:47:15.985Z</time></trkpt><trkpt lat="45.92690912666416" lon="11.947927405260376"><ele>316.0</ele><time>2026-04-26T08:47:16.987Z</time></trkpt><trkpt lat="45.927068880731326" lon="11.947781939560574"><ele>316.0</ele><time>2026-04-26T08:47:17.986Z</time></trkpt><trkpt lat="45.927226014221596" lon="11.94763004180726"><ele>316.0</ele><time>2026-04-26T08:47:18.987Z</time></trkpt><trkpt lat="45.92739009696078" lon="11.947491612165242"><ele>322.66666666666663</ele><time>2026-04-26T08:47:19.987Z</time></trkpt><trkpt lat="45.92754191948603" lon="11.9473306072258"><ele>329.3333333333333</ele><time>2026-04-26T08:47:20.984Z</time></trkpt><trkpt lat="45.927693450890764" lon="11.947164861052167"><ele>336.0</ele><time>2026-04-26T08:47:21.987Z</time></trkpt><trkpt lat="45.92783010232595" lon="11.946975147482544"><ele>336.0</ele><time>2026-04-26T08:47:22.987Z</time></trkpt><trkpt lat="45.92797252220998" lon="11.946796254269813"><ele>336.0</ele><time>2026-04-26T08:47:23.987Z</time></trkpt><trkpt lat="45.92811233245403" lon="11.946613161068969"><ele>336.0</ele><time>2026-04-26T08:47:24.987Z</time></trkpt><trkpt lat="45.9282295" lon="11.9464576"><ele>302.0</ele><time>2026-04-26T08:47:25.987Z</time></trkpt><trkpt lat="45.93048751824156" lon="11.94263110869745"><ele>285.33333333333337</ele><time>2026-04-26T08:47:41Z</time></trkpt><trkpt lat="45.930565247327614" lon="11.942442649026596"><ele>268.6666666666667</ele><time>2026-04-26T08:47:42Z</time></trkpt><trkpt lat="45.93063540372868" lon="11.942215750978443"><ele>252.0</ele><time>2026-04-26T08:47:43Z</time></trkpt><trkpt lat="45.93069505139452" lon="11.941996756939837"><ele>252.0</ele><time>2026-04-26T08:47:44Z</time></trkpt><trkpt lat="45.93077965893374" lon="11.941852486685175"><ele>252.0</ele><time>2026-04-26T08:47:45Z</time></trkpt><trkpt lat="45.93086962367246" lon="11.94172370398759"><ele>252.0</ele><time>2026-04-26T08:47:46Z</time></trkpt><trkpt lat="45.93099430599946" lon="11.941588979567655"><ele>252.0</ele><time>2026-04-26T08:47:47Z</time></trkpt><trkpt lat="45.93109693622471" lon="11.941492662128324"><ele>248.66666666666669</ele><time>2026-04-26T08:47:48Z</time></trkpt><trkpt lat="45.931243481431835" lon="11.941415642975642"><ele>245.33333333333334</ele><time>2026-04-26T08:47:49Z</time></trkpt><trkpt lat="45.93141185917744" lon="11.941354752959251"><ele>242.0</ele><time>2026-04-26T08:47:50Z</time></trkpt><trkpt lat="45.931575515173165" lon="11.941283059473518"><ele>245.33333333333334</ele><time>2026-04-26T08:47:51Z</time></trkpt><trkpt lat="45.93172676172557" lon="11.94121252502718"><ele>248.66666666666669</ele><time>2026-04-26T08:47:52Z</time></trkpt><trkpt lat="45.93188396264903" lon="11.941119367409577"><ele>252.0</ele><time>2026-04-26T08:47:53Z</time></trkpt><trkpt lat="45.93203423989495" lon="11.940972508840034"><ele>243.33333333333331</ele><time>2026-04-26T08:47:54Z</time></trkpt><trkpt lat="45.93218096538851" lon="11.940826901672034"><ele>234.66666666666666</ele><time>2026-04-26T08:47:55Z</time></trkpt><trkpt lat="45.93231745141611" lon="11.940695336130327"><ele>226.0</ele><time>2026-04-26T08:47:56Z</time></trkpt><trkpt lat="45.93243396989934" lon="11.94056237538556"><ele>226.0</ele><time>2026-04-26T08:47:57Z</time></trkpt><trkpt lat="45.932538034365976" lon="11.94043256256901"><ele>226.0</ele><time>2026-04-26T08:47:58Z</time></trkpt><trkpt lat="45.93264460929022" lon="11.940315466603614"><ele>226.0</ele><time>2026-04-26T08:47:59Z</time></trkpt><trkpt lat="45.93273560914293" lon="11.940200988284642"><ele>226.0</ele><time>2026-04-26T08:48:00Z</time></trkpt><trkpt lat="45.932827568816855" lon="11.940100221184084"><ele>225.4</ele><time>2026-04-26T08:48:01Z</time></trkpt><trkpt lat="45.932906934754165" lon="11.939997193476495"><ele>224.8</ele><time>2026-04-26T08:48:02Z</time></trkpt><trkpt lat="45.93297558144278" lon="11.939904650903646"><ele>224.20000000000002</ele><time>2026-04-26T08:48:03Z</time></trkpt><trkpt lat="45.93303791739489" lon="11.93985033022092"><ele>223.60000000000002</ele><time>2026-04-26T08:48:04Z</time></trkpt><trkpt lat="45.93312170885012" lon="11.93978826812223"><ele>223.0</ele><time>2026-04-26T08:48:05Z</time></trkpt><trkpt lat="45.933211512595854" lon="11.939724489831425"><ele>222.99999999999997</ele><time>2026-04-26T08:48:07Z</time></trkpt><trkpt lat="45.93331129660792" lon="11.939660227928263"><ele>223.0</ele><time>2026-04-26T08:48:10Z</time></trkpt><trkpt lat="45.93338055839245" lon="11.939618338143685"><ele>223.0</ele><time>2026-04-26T08:48:11Z</time></trkpt><trkpt lat="45.93343483889448" lon="11.939564603404104"><ele>223.0</ele><time>2026-04-26T08:48:12Z</time></trkpt><trkpt lat="45.93348291836695" lon="11.939482523891847"><ele>222.99999999999997</ele><time>2026-04-26T08:48:13Z</time></trkpt><trkpt lat="45.933511142933874" lon="11.939374996658797"><ele>223.0</ele><time>2026-04-26T08:48:14Z</time></trkpt><trkpt lat="45.9335066082574" lon="11.939252642704517"><ele>221.60000000000002</ele><time>2026-04-26T08:48:15Z</time></trkpt><trkpt lat="45.93354268610977" lon="11.939141991946556"><ele>220.20000000000002</ele><time>2026-04-26T08:48:16Z</time></trkpt><trkpt lat="45.933580625547535" lon="11.939044767787582"><ele>218.8</ele><time>2026-04-26T08:48:17Z</time></trkpt><trkpt lat="45.933609337532616" lon="11.938939256588565"><ele>217.4</ele><time>2026-04-26T08:48:18Z</time></trkpt><trkpt lat="45.93373237702495" lon="11.938909044435322"><ele>216.0</ele><time>2026-04-26T08:48:19Z</time></trkpt><trkpt lat="45.933835858979734" lon="11.938878683886879"><ele>216.0</ele><time>2026-04-26T08:48:20Z</time></trkpt><trkpt lat="45.93394906277058" lon="11.938849850391886"><ele>216.00000000000003</ele><time>2026-04-26T08:48:21Z</time></trkpt><trkpt lat="45.93405546422181" lon="11.93881904793229"><ele>216.00000000000003</ele><time>2026-04-26T08:48:22Z</time></trkpt><trkpt lat="45.934165717702996" lon="11.93878425390326"><ele>216.0</ele><time>2026-04-26T08:48:23Z</time></trkpt><trkpt lat="45.93427295321469" lon="11.938737163803614"><ele>216.0</ele><time>2026-04-26T08:48:24Z</time></trkpt><trkpt lat="45.93437714481641" lon="11.938704261246796"><ele>216.0</ele><time>2026-04-26T08:48:25Z</time></trkpt><trkpt lat="45.93447503338268" lon="11.938655437913843"><ele>216.0</ele><time>2026-04-26T08:48:26Z</time></trkpt><trkpt lat="45.934586042549995" lon="11.938602032065464"><ele>216.0</ele><time>2026-04-26T08:48:27Z</time></trkpt><trkpt lat="45.93470053412551" lon="11.938550612728777"><ele>216.0</ele><time>2026-04-26T08:48:28Z</time></trkpt><trkpt lat="45.93482717608534" lon="11.938494280280146"><ele>216.0</ele><time>2026-04-26T08:48:29Z</time></trkpt><trkpt lat="45.934960736653075" lon="11.938442505017267"><ele>216.0</ele><time>2026-04-26T08:48:30Z</time></trkpt><trkpt lat="45.93509570872367" lon="11.938379449157217"><ele>216.0</ele><time>2026-04-26T08:48:31Z</time></trkpt><trkpt lat="45.935253372289495" lon="11.938308310732005"><ele>216.0</ele><time>2026-04-26T08:48:32Z</time></trkpt><trkpt lat="45.93538533753941" lon="11.938233376524021"><ele>216.33333333333331</ele><time>2026-04-26T08:48:33Z</time></trkpt><trkpt lat="45.93552592455382" lon="11.93813197553877"><ele>216.66666666666666</ele><time>2026-04-26T08:48:34Z</time></trkpt><trkpt lat="45.93565860213654" lon="11.938013941607828"><ele>217.0</ele><time>2026-04-26T08:48:35Z</time></trkpt><trkpt lat="45.935783102468626" lon="11.93788559775161"><ele>217.0</ele><time>2026-04-26T08:48:36Z</time></trkpt><trkpt lat="45.935912060523094" lon="11.937751632718866"><ele>217.0</ele><time>2026-04-26T08:48:37Z</time></trkpt><trkpt lat="45.93603376696461" lon="11.937594432314174"><ele>217.0</ele><time>2026-04-26T08:48:38Z</time></trkpt><trkpt lat="45.93614483506517" lon="11.937387237549336"><ele>216.33333333333331</ele><time>2026-04-26T08:48:39Z</time></trkpt><trkpt lat="45.93626063666826" lon="11.937189397427295"><ele>215.66666666666669</ele><time>2026-04-26T08:48:40Z</time></trkpt><trkpt lat="45.9363660085806" lon="11.936960776514237"><ele>215.0</ele><time>2026-04-26T08:48:41Z</time></trkpt><trkpt lat="45.93645048181891" lon="11.936743754547456"><ele>214.0</ele><time>2026-04-26T08:48:42Z</time></trkpt><trkpt lat="45.93652236189729" lon="11.936523707374857"><ele>213.0</ele><time>2026-04-26T08:48:43Z</time></trkpt><trkpt lat="45.936583793153744" lon="11.93629432570758"><ele>212.0</ele><time>2026-04-26T08:48:44Z</time></trkpt><trkpt lat="45.93662964817921" lon="11.936075298207616"><ele>210.33333333333334</ele><time>2026-04-26T08:48:45Z</time></trkpt><trkpt lat="45.93666973179357" lon="11.935862282655538"><ele>208.66666666666669</ele><time>2026-04-26T08:48:46Z</time></trkpt><trkpt lat="45.93669744949198" lon="11.935632695961823"><ele>207.0</ele><time>2026-04-26T08:48:47Z</time></trkpt><trkpt lat="45.93671206847132" lon="11.935389508472895"><ele>206.33333333333331</ele><time>2026-04-26T08:48:48Z</time></trkpt><trkpt lat="45.936719563630184" lon="11.93514804306677"><ele>205.66666666666666</ele><time>2026-04-26T08:48:49Z</time></trkpt><trkpt lat="45.93671118773245" lon="11.934901833284345"><ele>205.0</ele><time>2026-04-26T08:48:50Z</time></trkpt><trkpt lat="45.936688617981105" lon="11.934654441656129"><ele>205.0</ele><time>2026-04-26T08:48:51Z</time></trkpt><trkpt lat="45.936663350698716" lon="11.934400597406476"><ele>205.0</ele><time>2026-04-26T08:48:52Z</time></trkpt><trkpt lat="45.936633447031205" lon="11.934166132662973"><ele>205.0</ele><time>2026-04-26T08:48:53Z</time></trkpt><trkpt lat="45.93660524183426" lon="11.933949549167021"><ele>205.0</ele><time>2026-04-26T08:48:54Z</time></trkpt><trkpt lat="45.936576292939165" lon="11.933737949565415"><ele>205.0</ele><time>2026-04-26T08:48:55Z</time></trkpt><trkpt lat="45.93654788984625" lon="11.933516572916526"><ele>205.0</ele><time>2026-04-26T08:48:56Z</time></trkpt><trkpt lat="45.936519333540815" lon="11.933283540190367"><ele>205.0</ele><time>2026-04-26T08:48:57Z</time></trkpt><trkpt lat="45.936494556678916" lon="11.933055573973645"><ele>205.0</ele><time>2026-04-26T08:48:58Z</time></trkpt><trkpt lat="45.93646593590078" lon="11.932824217285791"><ele>205.0</ele><time>2026-04-26T08:48:59Z</time></trkpt><trkpt lat="45.93643703662821" lon="11.93259511950526"><ele>206.33333333333331</ele><time>2026-04-26T08:49:00Z</time></trkpt><trkpt lat="45.936404237529565" lon="11.932379530277169"><ele>207.66666666666669</ele><time>2026-04-26T08:49:01Z</time></trkpt><trkpt lat="45.93637466066757" lon="11.932151071834266"><ele>209.0</ele><time>2026-04-26T08:49:02Z</time></trkpt><trkpt lat="45.93634900311401" lon="11.93194113904982"><ele>209.33333333333334</ele><time>2026-04-26T08:49:03Z</time></trkpt><trkpt lat="45.93632260430567" lon="11.931723170762748"><ele>209.66666666666669</ele><time>2026-04-26T08:49:04Z</time></trkpt><trkpt lat="45.93630008606947" lon="11.931492330468144"><ele>210.0</ele><time>2026-04-26T08:49:05Z</time></trkpt><trkpt lat="45.936292954410085" lon="11.931256160516508"><ele>210.0</ele><time>2026-04-26T08:49:06Z</time></trkpt><trkpt lat="45.9362931443056" lon="11.931024973874372"><ele>210.0</ele><time>2026-04-26T08:49:07Z</time></trkpt><trkpt lat="45.936298656375314" lon="11.930790696349062"><ele>210.0</ele><time>2026-04-26T08:49:08Z</time></trkpt><trkpt lat="45.93631579168866" lon="11.93056209531759"><ele>209.66666666666669</ele><time>2026-04-26T08:49:09Z</time></trkpt><trkpt lat="45.93634310870561" lon="11.930312795871762"><ele>209.33333333333334</ele><time>2026-04-26T08:49:10Z</time></trkpt><trkpt lat="45.936380148518616" lon="11.930060382574851"><ele>209.0</ele><time>2026-04-26T08:49:11Z</time></trkpt><trkpt lat="45.93642357809781" lon="11.929820806568289"><ele>208.0</ele><time>2026-04-26T08:49:12Z</time></trkpt><trkpt lat="45.93647471742161" lon="11.92958661656446"><ele>207.0</ele><time>2026-04-26T08:49:13Z</time></trkpt><trkpt lat="45.93653676909985" lon="11.929342141552265"><ele>206.0</ele><time>2026-04-26T08:49:14Z</time></trkpt><trkpt lat="45.936599498196706" lon="11.929103195882245"><ele>204.0</ele><time>2026-04-26T08:49:15Z</time></trkpt><trkpt lat="45.93666016987446" lon="11.928876751295075"><ele>202.0</ele><time>2026-04-26T08:49:16Z</time></trkpt><trkpt lat="45.93674110861904" lon="11.928653437799273"><ele>200.0</ele><time>2026-04-26T08:49:17Z</time></trkpt><trkpt lat="45.93683241806844" lon="11.928430267907649"><ele>197.0</ele><time>2026-04-26T08:49:18Z</time></trkpt><trkpt lat="45.936940742123085" lon="11.928214541103166"><ele>194.0</ele><time>2026-04-26T08:49:19Z</time></trkpt><trkpt lat="45.93703850383879" lon="11.928022448928418"><ele>191.0</ele><time>2026-04-26T08:49:20Z</time></trkpt><trkpt lat="45.93714358292951" lon="11.927837184872212"><ele>191.0</ele><time>2026-04-26T08:49:21Z</time></trkpt><trkpt lat="45.93725296088858" lon="11.927648219060524"><ele>191.0</ele><time>2026-04-26T08:49:22Z</time></trkpt><trkpt lat="45.93737299437894" lon="11.927468502427867"><ele>191.0</ele><time>2026-04-26T08:49:23Z</time></trkpt><trkpt lat="45.937505589339985" lon="11.927297596596796"><ele>190.66666666666666</ele><time>2026-04-26T08:49:24Z</time></trkpt><trkpt lat="45.937654067587225" lon="11.927132301200421"><ele>190.33333333333334</ele><time>2026-04-26T08:49:25Z</time></trkpt><trkpt lat="45.937803871043684" lon="11.92696888195493"><ele>190.0</ele><time>2026-04-26T08:49:26Z</time></trkpt><trkpt lat="45.93794598761438" lon="11.926826318876344"><ele>189.66666666666669</ele><time>2026-04-26T08:49:27Z</time></trkpt><trkpt lat="45.93809870534595" lon="11.92669190461087"><ele>189.33333333333334</ele><time>2026-04-26T08:49:28Z</time></trkpt><trkpt lat="45.93825730331483" lon="11.92656661751372"><ele>189.0</ele><time>2026-04-26T08:49:29Z</time></trkpt><trkpt lat="45.93841805927257" lon="11.926455877825267"><ele>191.0</ele><time>2026-04-26T08:49:30Z</time></trkpt><trkpt lat="45.93857882512074" lon="11.926332674334295"><ele>193.0</ele><time>2026-04-26T08:49:31Z</time></trkpt><trkpt lat="45.938741696082324" lon="11.926215710154738"><ele>195.0</ele><time>2026-04-26T08:49:32Z</time></trkpt><trkpt lat="45.938902564500296" lon="11.926093815919813"><ele>195.0</ele><time>2026-04-26T08:49:33Z</time></trkpt><trkpt lat="45.939061769198474" lon="11.925977499087319"><ele>195.0</ele><time>2026-04-26T08:49:34Z</time></trkpt><trkpt lat="45.93922575384913" lon="11.92586056451171"><ele>195.0</ele><time>2026-04-26T08:49:35Z</time></trkpt><trkpt lat="45.93938415869876" lon="11.925746226539317"><ele>196.66666666666669</ele><time>2026-04-26T08:49:36Z</time></trkpt><trkpt lat="45.93953366377696" lon="11.925665580163184"><ele>198.33333333333334</ele><time>2026-04-26T08:49:37Z</time></trkpt><trkpt lat="45.93967707075817" lon="11.925532161772564"><ele>200.0</ele><time>2026-04-26T08:49:38Z</time></trkpt><trkpt lat="45.93982171340963" lon="11.925425096248638"><ele>200.0</ele><time>2026-04-26T08:49:39Z</time></trkpt><trkpt lat="45.93996011082685" lon="11.925342103740944"><ele>200.0</ele><time>2026-04-26T08:49:40Z</time></trkpt><trkpt lat="45.94009727618829" lon="11.925239613700624"><ele>200.0</ele><time>2026-04-26T08:49:41Z</time></trkpt><trkpt lat="45.94023999166789" lon="11.925139117874886"><ele>202.25</ele><time>2026-04-26T08:49:42Z</time></trkpt><trkpt lat="45.94036596229012" lon="11.925042546308902"><ele>204.5</ele><time>2026-04-26T08:49:43Z</time></trkpt><trkpt lat="45.94048792636565" lon="11.92494814284734"><ele>206.75</ele><time>2026-04-26T08:49:44Z</time></trkpt><trkpt lat="45.94060356348564" lon="11.924836749624859"><ele>209.0</ele><time>2026-04-26T08:49:45Z</time></trkpt><trkpt lat="45.940701314035294" lon="11.924716633089453"><ele>209.0</ele><time>2026-04-26T08:49:46Z</time></trkpt><trkpt lat="45.94078756677249" lon="11.924598139607383"><ele>209.0</ele><time>2026-04-26T08:49:47Z</time></trkpt><trkpt lat="45.940860287850136" lon="11.924494013334735"><ele>209.0</ele><time>2026-04-26T08:49:48Z</time></trkpt><trkpt lat="45.940925205870535" lon="11.924418249208575"><ele>209.0</ele><time>2026-04-26T08:49:49Z</time></trkpt><trkpt lat="45.94099503131385" lon="11.924378049126155"><ele>209.0</ele><time>2026-04-26T08:49:50Z</time></trkpt><trkpt lat="45.941079135919814" lon="11.924369621139045"><ele>214.39999999999998</ele><time>2026-04-26T08:49:51Z</time></trkpt><trkpt lat="45.94116266161182" lon="11.924439471879339"><ele>219.8</ele><time>2026-04-26T08:49:52Z</time></trkpt><trkpt lat="45.94126352633139" lon="11.924439471879124"><ele>225.20000000000002</ele><time>2026-04-26T08:49:53Z</time></trkpt><trkpt lat="45.94136473421908" lon="11.924343751486106"><ele>230.60000000000002</ele><time>2026-04-26T08:49:54Z</time></trkpt><trkpt lat="45.94146576622964" lon="11.924282674923697"><ele>236.0</ele><time>2026-04-26T08:49:55Z</time></trkpt><trkpt lat="45.94158695114617" lon="11.924250037036764"><ele>236.0</ele><time>2026-04-26T08:49:56Z</time></trkpt><trkpt lat="45.94171005487158" lon="11.924237296846263"><ele>236.0</ele><time>2026-04-26T08:49:57Z</time></trkpt><trkpt lat="45.94183245521902" lon="11.924219760959675"><ele>236.0</ele><time>2026-04-26T08:49:58Z</time></trkpt><trkpt lat="45.941940497561134" lon="11.924207080350076"><ele>236.0</ele><time>2026-04-26T08:49:59Z</time></trkpt><trkpt lat="45.94204731358851" lon="11.92419108405826"><ele>236.0</ele><time>2026-04-26T08:50:00Z</time></trkpt><trkpt lat="45.942163397972436" lon="11.924184797138738"><ele>236.0</ele><time>2026-04-26T08:50:01Z</time></trkpt><trkpt lat="45.94228483748282" lon="11.92418116232833"><ele>236.0</ele><time>2026-04-26T08:50:02Z</time></trkpt><trkpt lat="45.942410128532664" lon="11.924199342924299"><ele>236.0</ele><time>2026-04-26T08:50:03Z</time></trkpt><trkpt lat="45.94254202659798" lon="11.924230227063095"><ele>230.25</ele><time>2026-04-26T08:50:04Z</time></trkpt><trkpt lat="45.94267533089736" lon="11.924272731070495"><ele>224.5</ele><time>2026-04-26T08:50:05Z</time></trkpt><trkpt lat="45.94281207230115" lon="11.92432090381234"><ele>218.75</ele><time>2026-04-26T08:50:06Z</time></trkpt><trkpt lat="45.94293594486283" lon="11.92436956289079"><ele>213.0</ele><time>2026-04-26T08:50:07Z</time></trkpt><trkpt lat="45.943045874927265" lon="11.924409928211862"><ele>213.0</ele><time>2026-04-26T08:50:08Z</time></trkpt><trkpt lat="45.9431535611556" lon="11.924441341587178"><ele>213.0</ele><time>2026-04-26T08:50:09Z</time></trkpt><trkpt lat="45.94326363126221" lon="11.924480794881408"><ele>213.0</ele><time>2026-04-26T08:50:10Z</time></trkpt><trkpt lat="45.943390641603536" lon="11.924540614718907"><ele>213.0</ele><time>2026-04-26T08:50:11Z</time></trkpt><trkpt lat="45.94352882310857" lon="11.92461251712461"><ele>209.75</ele><time>2026-04-26T08:50:12Z</time></trkpt><trkpt lat="45.943681675865" lon="11.924695557265846"><ele>206.5</ele><time>2026-04-26T08:50:13Z</time></trkpt><trkpt lat="45.94381194403247" lon="11.924787245744668"><ele>203.25</ele><time>2026-04-26T08:50:14Z</time></trkpt><trkpt lat="45.94392811374724" lon="11.92489525667754"><ele>200.0</ele><time>2026-04-26T08:50:15Z</time></trkpt><trkpt lat="45.94405482461987" lon="11.925019598819476"><ele>199.33333333333334</ele><time>2026-04-26T08:50:16Z</time></trkpt><trkpt lat="45.9441899720611" lon="11.925168331461917"><ele>198.66666666666669</ele><time>2026-04-26T08:50:17Z</time></trkpt><trkpt lat="45.94433136272702" lon="11.925341420204786"><ele>198.0</ele><time>2026-04-26T08:50:18Z</time></trkpt><trkpt lat="45.94446845040999" lon="11.925520408312321"><ele>198.0</ele><time>2026-04-26T08:50:19Z</time></trkpt><trkpt lat="45.94459676174049" lon="11.925709405143635"><ele>198.0</ele><time>2026-04-26T08:50:20Z</time></trkpt><trkpt lat="45.944732824725996" lon="11.925906976154094"><ele>198.0</ele><time>2026-04-26T08:50:21Z</time></trkpt><trkpt lat="45.94486481735454" lon="11.926104684997265"><ele>196.33333333333331</ele><time>2026-04-26T08:50:22Z</time></trkpt><trkpt lat="45.944994315150474" lon="11.926293540031487"><ele>194.66666666666666</ele><time>2026-04-26T08:50:23Z</time></trkpt><trkpt lat="45.945124386829065" lon="11.926480495204537"><ele>193.0</ele><time>2026-04-26T08:50:24Z</time></trkpt><trkpt lat="45.94526120140355" lon="11.92666329574821"><ele>199.0</ele><time>2026-04-26T08:50:25Z</time></trkpt><trkpt lat="45.94540355042733" lon="11.926831671752083"><ele>205.0</ele><time>2026-04-26T08:50:26Z</time></trkpt><trkpt lat="45.945552457607526" lon="11.926989739143528"><ele>211.0</ele><time>2026-04-26T08:50:27Z</time></trkpt><trkpt lat="45.945712502505785" lon="11.927133800081506"><ele>207.33333333333331</ele><time>2026-04-26T08:50:28Z</time></trkpt><trkpt lat="45.945884732013205" lon="11.927272924931682"><ele>203.66666666666669</ele><time>2026-04-26T08:50:29Z</time></trkpt><trkpt lat="45.94607005997443" lon="11.927396147261364"><ele>200.0</ele><time>2026-04-26T08:50:30Z</time></trkpt><trkpt lat="45.94626510199657" lon="11.927492409052507"><ele>205.33333333333334</ele><time>2026-04-26T08:50:31Z</time></trkpt><trkpt lat="45.946463693602624" lon="11.927574645669356"><ele>210.66666666666669</ele><time>2026-04-26T08:50:32Z</time></trkpt><trkpt lat="45.9466426177492" lon="11.927653598516052"><ele>216.0</ele><time>2026-04-26T08:50:33Z</time></trkpt><trkpt lat="45.94680993864933" lon="11.927738556588144"><ele>216.0</ele><time>2026-04-26T08:50:34Z</time></trkpt><trkpt lat="45.94696948206342" lon="11.927818046404203"><ele>216.0</ele><time>2026-04-26T08:50:35Z</time></trkpt><trkpt lat="45.947129977624876" lon="11.927899671541994"><ele>216.0</ele><time>2026-04-26T08:50:36Z</time></trkpt><trkpt lat="45.94728792323515" lon="11.92797946104798"><ele>216.0</ele><time>2026-04-26T08:50:37Z</time></trkpt><trkpt lat="45.947459386460054" lon="11.92806744037986"><ele>216.0</ele><time>2026-04-26T08:50:38Z</time></trkpt><trkpt lat="45.94762649649738" lon="11.928173107668101"><ele>216.0</ele><time>2026-04-26T08:50:39Z</time></trkpt><trkpt lat="45.94779080424804" lon="11.928291891531249"><ele>220.66666666666669</ele><time>2026-04-26T08:50:40Z</time></trkpt><trkpt lat="45.94794524001023" lon="11.928422898919916"><ele>225.33333333333334</ele><time>2026-04-26T08:50:41Z</time></trkpt><trkpt lat="45.94809110298429" lon="11.92855550543633"><ele>230.0</ele><time>2026-04-26T08:50:42Z</time></trkpt><trkpt lat="45.94822830936631" lon="11.928684011744295"><ele>230.0</ele><time>2026-04-26T08:50:43Z</time></trkpt><trkpt lat="45.948351412278676" lon="11.928817090309318"><ele>230.0</ele><time>2026-04-26T08:50:44Z</time></trkpt><trkpt lat="45.94847136006751" lon="11.928951365794221"><ele>230.0</ele><time>2026-04-26T08:50:45Z</time></trkpt><trkpt lat="45.948593495768236" lon="11.929111397600765"><ele>247.0</ele><time>2026-04-26T08:50:46Z</time></trkpt><trkpt lat="45.948721715335985" lon="11.92928233623106"><ele>264.0</ele><time>2026-04-26T08:50:47Z</time></trkpt><trkpt lat="45.94885106726754" lon="11.929468639293676"><ele>281.0</ele><time>2026-04-26T08:50:48Z</time></trkpt><trkpt lat="45.94895836461011" lon="11.929616669505808"><ele>281.0</ele><time>2026-04-26T08:50:49Z</time></trkpt><trkpt lat="45.94906416787008" lon="11.92975758058003"><ele>281.0</ele><time>2026-04-26T08:50:50Z</time></trkpt><trkpt lat="45.94916633349066" lon="11.929887812517192"><ele>281.0</ele><time>2026-04-26T08:50:51.015Z</time></trkpt><trkpt lat="45.94925508474295" lon="11.930042694083186"><ele>281.0</ele><time>2026-04-26T08:50:52.017Z</time></trkpt><trkpt lat="45.949347634937894" lon="11.930176056999061"><ele>254.0</ele><time>2026-04-26T08:50:53.015Z</time></trkpt><trkpt lat="45.94943976348802" lon="11.930308812242897"><ele>227.0</ele><time>2026-04-26T08:50:54.016Z</time></trkpt><trkpt lat="45.949541453294955" lon="11.930455345040231"><ele>200.0</ele><time>2026-04-26T08:50:55.015Z</time></trkpt><trkpt lat="45.950303929900706" lon="11.931584347050572"><ele>204.33333333333334</ele><time>2026-04-26T08:51:00Z</time></trkpt><trkpt lat="45.95041557956631" lon="11.931760947039216"><ele>208.66666666666669</ele><time>2026-04-26T08:51:01Z</time></trkpt><trkpt lat="45.95053242904469" lon="11.931994634925816"><ele>213.0</ele><time>2026-04-26T08:51:02Z</time></trkpt><trkpt lat="45.9506360887285" lon="11.93222096514225"><ele>213.0</ele><time>2026-04-26T08:51:03Z</time></trkpt><trkpt lat="45.950743059310334" lon="11.932477813330525"><ele>213.0</ele><time>2026-04-26T08:51:04Z</time></trkpt><trkpt lat="45.95084686571417" lon="11.93271236570996"><ele>213.0</ele><time>2026-04-26T08:51:05Z</time></trkpt><trkpt lat="45.9509488933129" lon="11.932929074364019"><ele>210.0</ele><time>2026-04-26T08:51:06Z</time></trkpt><trkpt lat="45.951054023311876" lon="11.933163548347755"><ele>207.0</ele><time>2026-04-26T08:51:07Z</time></trkpt><trkpt lat="45.95116205579244" lon="11.933397755348695"><ele>204.0</ele><time>2026-04-26T08:51:08Z</time></trkpt><trkpt lat="45.95127640296772" lon="11.933640543949249"><ele>204.0</ele><time>2026-04-26T08:51:09Z</time></trkpt><trkpt lat="45.9513929847419" lon="11.93387793706814"><ele>204.0</ele><time>2026-04-26T08:51:10Z</time></trkpt><trkpt lat="45.95151325872856" lon="11.934111246593138"><ele>204.0</ele><time>2026-04-26T08:51:11Z</time></trkpt><trkpt lat="45.95163801715062" lon="11.934342453675772"><ele>201.33333333333331</ele><time>2026-04-26T08:51:12Z</time></trkpt><trkpt lat="45.95176943671045" lon="11.934567981324523"><ele>198.66666666666666</ele><time>2026-04-26T08:51:13Z</time></trkpt><trkpt lat="45.95190478601506" lon="11.934789011189736"><ele>196.0</ele><time>2026-04-26T08:51:14Z</time></trkpt><trkpt lat="45.952039261689094" lon="11.934984137286445"><ele>203.33333333333331</ele><time>2026-04-26T08:51:15Z</time></trkpt><trkpt lat="45.952184632100064" lon="11.935172281208523"><ele>210.66666666666669</ele><time>2026-04-26T08:51:16Z</time></trkpt><trkpt lat="45.95233113299999" lon="11.935358854736794"><ele>218.0</ele><time>2026-04-26T08:51:17Z</time></trkpt><trkpt lat="45.952471467091435" lon="11.93553709660695"><ele>213.66666666666669</ele><time>2026-04-26T08:51:18Z</time></trkpt><trkpt lat="45.952619576055106" lon="11.935722288078164"><ele>209.33333333333331</ele><time>2026-04-26T08:51:19Z</time></trkpt><trkpt lat="45.95276502346368" lon="11.935902828624249"><ele>205.0</ele><time>2026-04-26T08:51:20Z</time></trkpt><trkpt lat="45.95289736319671" lon="11.936076677705"><ele>205.0</ele><time>2026-04-26T08:51:21Z</time></trkpt><trkpt lat="45.95303643188632" lon="11.936258405846955"><ele>205.0</ele><time>2026-04-26T08:51:22Z</time></trkpt><trkpt lat="45.953181264088684" lon="11.936432829072025"><ele>205.0</ele><time>2026-04-26T08:51:23Z</time></trkpt><trkpt lat="45.9533161045188" lon="11.936608059422632"><ele>204.33333333333331</ele><time>2026-04-26T08:51:24Z</time></trkpt><trkpt lat="45.953458862784544" lon="11.936781979159258"><ele>203.66666666666669</ele><time>2026-04-26T08:51:25Z</time></trkpt><trkpt lat="45.953597291832" lon="11.936940168648702"><ele>203.0</ele><time>2026-04-26T08:51:26Z</time></trkpt><trkpt lat="45.953737573590956" lon="11.937105879982159"><ele>203.0</ele><time>2026-04-26T08:51:27Z</time></trkpt><trkpt lat="45.953895857893706" lon="11.937267642921553"><ele>203.0</ele><time>2026-04-26T08:51:28Z</time></trkpt><trkpt lat="45.95406736417268" lon="11.937420873461647"><ele>203.0</ele><time>2026-04-26T08:51:29Z</time></trkpt><trkpt lat="45.95424628503101" lon="11.937557926750564"><ele>205.66666666666669</ele><time>2026-04-26T08:51:30Z</time></trkpt><trkpt lat="45.95442217186231" lon="11.937678641250358"><ele>208.33333333333331</ele><time>2026-04-26T08:51:31Z</time></trkpt><trkpt lat="45.95461166607355" lon="11.93778621291554"><ele>211.0</ele><time>2026-04-26T08:51:32Z</time></trkpt><trkpt lat="45.95479059685186" lon="11.937871844381673"><ele>211.0</ele><time>2026-04-26T08:51:33Z</time></trkpt><trkpt lat="45.95496152319507" lon="11.93794667886049"><ele>211.0</ele><time>2026-04-26T08:51:34Z</time></trkpt><trkpt lat="45.9551453289043" lon="11.938022438828963"><ele>211.0</ele><time>2026-04-26T08:51:35Z</time></trkpt><trkpt lat="45.9553292303315" lon="11.938107947528213"><ele>207.33333333333331</ele><time>2026-04-26T08:51:36Z</time></trkpt><trkpt lat="45.955513207006334" lon="11.938206353346782"><ele>203.66666666666669</ele><time>2026-04-26T08:51:37Z</time></trkpt><trkpt lat="45.955693811495294" lon="11.93828154858517"><ele>200.0</ele><time>2026-04-26T08:51:38Z</time></trkpt><trkpt lat="45.95587825553901" lon="11.938352822141965"><ele>203.33333333333334</ele><time>2026-04-26T08:51:39Z</time></trkpt><trkpt lat="45.95607026068275" lon="11.938399562062745"><ele>206.66666666666669</ele><time>2026-04-26T08:51:40Z</time></trkpt><trkpt lat="45.95627602860165" lon="11.938412951366788"><ele>210.0</ele><time>2026-04-26T08:51:41Z</time></trkpt><trkpt lat="45.956477200428964" lon="11.93842506278161"><ele>210.0</ele><time>2026-04-26T08:51:42Z</time></trkpt><trkpt lat="45.95665700941578" lon="11.938433309935963"><ele>210.0</ele><time>2026-04-26T08:51:43Z</time></trkpt><trkpt lat="45.95684484831235" lon="11.93844478551691"><ele>210.0</ele><time>2026-04-26T08:51:44Z</time></trkpt><trkpt lat="45.95703953644155" lon="11.938450566979531"><ele>210.0</ele><time>2026-04-26T08:51:45Z</time></trkpt><trkpt lat="45.95723916234434" lon="11.938467898136892"><ele>210.0</ele><time>2026-04-26T08:51:46Z</time></trkpt><trkpt lat="45.95743438526202" lon="11.938482954181655"><ele>210.0</ele><time>2026-04-26T08:51:47Z</time></trkpt><trkpt lat="45.957617893828754" lon="11.938489406383324"><ele>208.33333333333331</ele><time>2026-04-26T08:51:48Z</time></trkpt><trkpt lat="45.95779545842507" lon="11.938504300692948"><ele>206.66666666666666</ele><time>2026-04-26T08:51:49Z</time></trkpt><trkpt lat="45.95797266495178" lon="11.938519235863598"><ele>205.0</ele><time>2026-04-26T08:51:50Z</time></trkpt><trkpt lat="45.958150601806956" lon="11.938529147539754"><ele>205.0</ele><time>2026-04-26T08:51:51Z</time></trkpt><trkpt lat="45.95833070840275" lon="11.938539902591923"><ele>205.0</ele><time>2026-04-26T08:51:52Z</time></trkpt><trkpt lat="45.958501877889674" lon="11.938544520456855"><ele>205.0</ele><time>2026-04-26T08:51:53Z</time></trkpt><trkpt lat="45.95867576246199" lon="11.938555684313927"><ele>208.0</ele><time>2026-04-26T08:51:54Z</time></trkpt><trkpt lat="45.95885128398033" lon="11.938567610802517"><ele>211.0</ele><time>2026-04-26T08:51:55Z</time></trkpt><trkpt lat="45.959026758208125" lon="11.93858164833079"><ele>214.0</ele><time>2026-04-26T08:51:56Z</time></trkpt><trkpt lat="45.95919834529339" lon="11.93859307518129"><ele>213.66666666666666</ele><time>2026-04-26T08:51:56.999Z</time></trkpt><trkpt lat="45.95937586963668" lon="11.93860542287488"><ele>213.33333333333331</ele><time>2026-04-26T08:51:57.999Z</time></trkpt><trkpt lat="45.95955128201317" lon="11.938616884508239"><ele>213.0</ele><time>2026-04-26T08:51:59Z</time></trkpt><trkpt lat="45.95972983436644" lon="11.938633424425847"><ele>213.0</ele><time>2026-04-26T08:52:00Z</time></trkpt><trkpt lat="45.959893643283344" lon="11.938645599394379"><ele>213.0</ele><time>2026-04-26T08:52:01Z</time></trkpt><trkpt lat="45.96006326740087" lon="11.93865741549991"><ele>213.0</ele><time>2026-04-26T08:52:02Z</time></trkpt><trkpt lat="45.96023934764289" lon="11.938664611487692"><ele>212.33333333333331</ele><time>2026-04-26T08:52:03Z</time></trkpt><trkpt lat="45.96042275123741" lon="11.938680155934808"><ele>211.66666666666666</ele><time>2026-04-26T08:52:04Z</time></trkpt><trkpt lat="45.96060960988759" lon="11.938689767406236"><ele>211.0</ele><time>2026-04-26T08:52:05Z</time></trkpt><trkpt lat="45.9607916209704" lon="11.938704897512581"><ele>209.66666666666666</ele><time>2026-04-26T08:52:06Z</time></trkpt><trkpt lat="45.96097293913012" lon="11.938717620888834"><ele>208.33333333333331</ele><time>2026-04-26T08:52:07Z</time></trkpt><trkpt lat="45.96115082550546" lon="11.938727773797476"><ele>207.0</ele><time>2026-04-26T08:52:08Z</time></trkpt><trkpt lat="45.96132881406855" lon="11.938741062591129"><ele>207.0</ele><time>2026-04-26T08:52:09Z</time></trkpt><trkpt lat="45.96150946662511" lon="11.938744981340578"><ele>207.0</ele><time>2026-04-26T08:52:10Z</time></trkpt><trkpt lat="45.9616909475245" lon="11.938744346673342"><ele>207.0</ele><time>2026-04-26T08:52:11Z</time></trkpt><trkpt lat="45.96186426668163" lon="11.938735947232852"><ele>211.0</ele><time>2026-04-26T08:52:12Z</time></trkpt><trkpt lat="45.96203902829861" lon="11.938706900270516"><ele>215.0</ele><time>2026-04-26T08:52:13Z</time></trkpt><trkpt lat="45.96221134154829" lon="11.938649571297683"><ele>219.0</ele><time>2026-04-26T08:52:14Z</time></trkpt><trkpt lat="45.96238455761467" lon="11.938579406724399"><ele>224.0</ele><time>2026-04-26T08:52:15Z</time></trkpt><trkpt lat="45.96256630772666" lon="11.938507584518039"><ele>229.0</ele><time>2026-04-26T08:52:16Z</time></trkpt><trkpt lat="45.96271045110955" lon="11.938439483490647"><ele>234.0</ele><time>2026-04-26T08:52:17Z</time></trkpt><trkpt lat="45.96287333603926" lon="11.938408202255072"><ele>226.33333333333331</ele><time>2026-04-26T08:52:18Z</time></trkpt><trkpt lat="45.96302393665724" lon="11.938319738230117"><ele>218.66666666666666</ele><time>2026-04-26T08:52:19Z</time></trkpt><trkpt lat="45.96317074294008" lon="11.938232528923903"><ele>211.0</ele><time>2026-04-26T08:52:20Z</time></trkpt><trkpt lat="45.963318837221195" lon="11.938143572219598"><ele>216.0</ele><time>2026-04-26T08:52:21Z</time></trkpt><trkpt lat="45.96346344150184" lon="11.938053054972903"><ele>221.0</ele><time>2026-04-26T08:52:22Z</time></trkpt><trkpt lat="45.963614047367805" lon="11.937975044037824"><ele>226.0</ele><time>2026-04-26T08:52:23Z</time></trkpt><trkpt lat="45.96376233789742" lon="11.937897757881085"><ele>226.0</ele><time>2026-04-26T08:52:24Z</time></trkpt><trkpt lat="45.96390694983115" lon="11.937812024931688"><ele>226.0</ele><time>2026-04-26T08:52:25Z</time></trkpt><trkpt lat="45.964053211838284" lon="11.937721564723429"><ele>226.0</ele><time>2026-04-26T08:52:26Z</time></trkpt><trkpt lat="45.9642014277079" lon="11.937631437942114"><ele>221.33333333333331</ele><time>2026-04-26T08:52:27Z</time></trkpt><trkpt lat="45.96435499705611" lon="11.93754095995576"><ele>216.66666666666669</ele><time>2026-04-26T08:52:28Z</time></trkpt><trkpt lat="45.96451010010288" lon="11.937452167882219"><ele>212.0</ele><time>2026-04-26T08:52:29Z</time></trkpt><trkpt lat="45.964655309255946" lon="11.9373697943132"><ele>212.0</ele><time>2026-04-26T08:52:30Z</time></trkpt><trkpt lat="45.96481178771007" lon="11.93728346479385"><ele>212.0</ele><time>2026-04-26T08:52:31Z</time></trkpt><trkpt lat="45.96496572162999" lon="11.937192732046967"><ele>212.0</ele><time>2026-04-26T08:52:32Z</time></trkpt><trkpt lat="45.96512656450069" lon="11.937108486998149"><ele>218.33333333333334</ele><time>2026-04-26T08:52:33Z</time></trkpt><trkpt lat="45.96527114297694" lon="11.937023462097365"><ele>224.66666666666669</ele><time>2026-04-26T08:52:34Z</time></trkpt><trkpt lat="45.965411582226395" lon="11.93694029865709"><ele>231.0</ele><time>2026-04-26T08:52:35Z</time></trkpt><trkpt lat="45.96556333246207" lon="11.93685205244316"><ele>231.0</ele><time>2026-04-26T08:52:36Z</time></trkpt><trkpt lat="45.96567246957984" lon="11.936792674539811"><ele>231.0</ele><time>2026-04-26T08:52:37Z</time></trkpt><trkpt lat="45.965823679673605" lon="11.936691746270705"><ele>231.0</ele><time>2026-04-26T08:52:38Z</time></trkpt><trkpt lat="45.965960475263" lon="11.936622285572653"><ele>231.0</ele><time>2026-04-26T08:52:39Z</time></trkpt><trkpt lat="45.96610824755581" lon="11.936557118188942"><ele>226.33333333333331</ele><time>2026-04-26T08:52:40Z</time></trkpt><trkpt lat="45.966276188902484" lon="11.936526467209521"><ele>221.66666666666666</ele><time>2026-04-26T08:52:41Z</time></trkpt><trkpt lat="45.966427634490074" lon="11.936487113135659"><ele>217.0</ele><time>2026-04-26T08:52:42Z</time></trkpt><trkpt lat="45.96656919075894" lon="11.936451150190933"><ele>217.33333333333331</ele><time>2026-04-26T08:52:43Z</time></trkpt><trkpt lat="45.96671591513128" lon="11.936415882170209"><ele>217.66666666666669</ele><time>2026-04-26T08:52:44Z</time></trkpt><trkpt lat="45.966882875691326" lon="11.936406194537273"><ele>218.0</ele><time>2026-04-26T08:52:45Z</time></trkpt><trkpt lat="45.96703497401361" lon="11.936384304916281"><ele>218.0</ele><time>2026-04-26T08:52:46Z</time></trkpt><trkpt lat="45.967190068293114" lon="11.93636918732195"><ele>218.0</ele><time>2026-04-26T08:52:47Z</time></trkpt><trkpt lat="45.96734942481429" lon="11.936373986803007"><ele>218.0</ele><time>2026-04-26T08:52:48Z</time></trkpt><trkpt lat="45.96751822955398" lon="11.936384682633344"><ele>218.0</ele><time>2026-04-26T08:52:49Z</time></trkpt><trkpt lat="45.96768536999167" lon="11.936409430904739"><ele>218.0</ele><time>2026-04-26T08:52:50Z</time></trkpt><trkpt lat="45.967853258369" lon="11.936442352278306"><ele>218.0</ele><time>2026-04-26T08:52:51Z</time></trkpt><trkpt lat="45.96800961868703" lon="11.936469291054385"><ele>218.0</ele><time>2026-04-26T08:52:52Z</time></trkpt><trkpt lat="45.96815254134966" lon="11.936501651025145"><ele>218.0</ele><time>2026-04-26T08:52:53Z</time></trkpt><trkpt lat="45.968306014432706" lon="11.936535766407397"><ele>218.0</ele><time>2026-04-26T08:52:54Z</time></trkpt><trkpt lat="45.9684690969174" lon="11.93656747131095"><ele>217.0</ele><time>2026-04-26T08:52:55Z</time></trkpt><trkpt lat="45.96863295414677" lon="11.9365998182758"><ele>216.0</ele><time>2026-04-26T08:52:56Z</time></trkpt><trkpt lat="45.96878870698535" lon="11.936629566440873"><ele>215.0</ele><time>2026-04-26T08:52:57Z</time></trkpt><trkpt lat="45.96894034969817" lon="11.936664290851388"><ele>215.0</ele><time>2026-04-26T08:52:58Z</time></trkpt><trkpt lat="45.96909658418519" lon="11.936704890416431"><ele>215.0</ele><time>2026-04-26T08:52:59Z</time></trkpt><trkpt lat="45.96925678889028" lon="11.936761169596053"><ele>215.0</ele><time>2026-04-26T08:53:00Z</time></trkpt><trkpt lat="45.96941407734119" lon="11.936823318862976"><ele>220.0</ele><time>2026-04-26T08:53:01Z</time></trkpt><trkpt lat="45.96957145208102" lon="11.936893371015042"><ele>225.0</ele><time>2026-04-26T08:53:02Z</time></trkpt><trkpt lat="45.96972094517213" lon="11.936968337232162"><ele>230.0</ele><time>2026-04-26T08:53:03Z</time></trkpt><trkpt lat="45.96986995678026" lon="11.937056457931861"><ele>230.0</ele><time>2026-04-26T08:53:04Z</time></trkpt><trkpt lat="45.97001709856576" lon="11.937161088124316"><ele>230.0</ele><time>2026-04-26T08:53:05Z</time></trkpt><trkpt lat="45.970160689078995" lon="11.93727927905556"><ele>230.0</ele><time>2026-04-26T08:53:06Z</time></trkpt><trkpt lat="45.970310744812586" lon="11.93741003837118"><ele>231.0</ele><time>2026-04-26T08:53:07Z</time></trkpt><trkpt lat="45.97044322210295" lon="11.937539030436321"><ele>232.0</ele><time>2026-04-26T08:53:08Z</time></trkpt><trkpt lat="45.970577227534065" lon="11.937678037007268"><ele>233.0</ele><time>2026-04-26T08:53:09Z</time></trkpt><trkpt lat="45.97070982206454" lon="11.937834477363662"><ele>233.0</ele><time>2026-04-26T08:53:10Z</time></trkpt><trkpt lat="45.97084121775515" lon="11.937971972442813"><ele>233.0</ele><time>2026-04-26T08:53:11Z</time></trkpt><trkpt lat="45.970966392871254" lon="11.938123094225238"><ele>233.0</ele><time>2026-04-26T08:53:12Z</time></trkpt><trkpt lat="45.97108647722704" lon="11.938275206944109"><ele>227.0</ele><time>2026-04-26T08:53:13Z</time></trkpt><trkpt lat="45.97121057986379" lon="11.938428654662625"><ele>221.0</ele><time>2026-04-26T08:53:14Z</time></trkpt><trkpt lat="45.971329154645574" lon="11.938586476304069"><ele>215.0</ele><time>2026-04-26T08:53:15Z</time></trkpt><trkpt lat="45.971438092458605" lon="11.938743018170182"><ele>215.0</ele><time>2026-04-26T08:53:16Z</time></trkpt><trkpt lat="45.971547404083054" lon="11.93891029661705"><ele>215.0</ele><time>2026-04-26T08:53:17Z</time></trkpt><trkpt lat="45.97165337628066" lon="11.939080904215079"><ele>215.0</ele><time>2026-04-26T08:53:18Z</time></trkpt><trkpt lat="45.97175843508116" lon="11.939246043980834"><ele>211.66666666666669</ele><time>2026-04-26T08:53:19Z</time></trkpt><trkpt lat="45.97186441838066" lon="11.939438375027938"><ele>208.33333333333331</ele><time>2026-04-26T08:53:20Z</time></trkpt><trkpt lat="45.971959234280945" lon="11.939615403502918"><ele>205.0</ele><time>2026-04-26T08:53:21Z</time></trkpt><trkpt lat="45.972062430567746" lon="11.939803483405834"><ele>205.0</ele><time>2026-04-26T08:53:22Z</time></trkpt><trkpt lat="45.9721701050632" lon="11.9399846537119"><ele>205.0</ele><time>2026-04-26T08:53:23Z</time></trkpt><trkpt lat="45.97226836383046" lon="11.940181956161997"><ele>205.0</ele><time>2026-04-26T08:53:24Z</time></trkpt><trkpt lat="45.97236243004492" lon="11.940395027022957"><ele>202.66666666666666</ele><time>2026-04-26T08:53:25Z</time></trkpt><trkpt lat="45.97245651634547" lon="11.940611577629886"><ele>200.33333333333331</ele><time>2026-04-26T08:53:26Z</time></trkpt><trkpt lat="45.97255078623657" lon="11.940892174772214"><ele>198.0</ele><time>2026-04-26T08:53:27Z</time></trkpt><trkpt lat="45.972637039208024" lon="11.941084837296524"><ele>198.0</ele><time>2026-04-26T08:53:28Z</time></trkpt><trkpt lat="45.97275228000673" lon="11.941341246107864"><ele>198.0</ele><time>2026-04-26T08:53:29Z</time></trkpt><trkpt lat="45.97284584302963" lon="11.9415897264263"><ele>198.0</ele><time>2026-04-26T08:53:30Z</time></trkpt><trkpt lat="45.972948580178226" lon="11.941821387554862"><ele>202.66666666666669</ele><time>2026-04-26T08:53:31Z</time></trkpt><trkpt lat="45.973048864913636" lon="11.942077884115218"><ele>207.33333333333334</ele><time>2026-04-26T08:53:32Z</time></trkpt><trkpt lat="45.973148858461826" lon="11.942333753491798"><ele>212.0</ele><time>2026-04-26T08:53:33Z</time></trkpt><trkpt lat="45.973257061755405" lon="11.942594097249575"><ele>208.66666666666669</ele><time>2026-04-26T08:53:34Z</time></trkpt><trkpt lat="45.97336345257012" lon="11.942869898707103"><ele>205.33333333333331</ele><time>2026-04-26T08:53:35Z</time></trkpt><trkpt lat="45.973473371540756" lon="11.943148945774952"><ele>202.0</ele><time>2026-04-26T08:53:36Z</time></trkpt><trkpt lat="45.9735695475264" lon="11.943434408288327"><ele>202.0</ele><time>2026-04-26T08:53:37Z</time></trkpt><trkpt lat="45.97366742934762" lon="11.943717840086675"><ele>202.0</ele><time>2026-04-26T08:53:38Z</time></trkpt><trkpt lat="45.97376975477569" lon="11.944009677231394"><ele>202.0</ele><time>2026-04-26T08:53:39Z</time></trkpt><trkpt lat="45.97386698465393" lon="11.94430698511365"><ele>206.5</ele><time>2026-04-26T08:53:40Z</time></trkpt><trkpt lat="45.97396760040319" lon="11.944609079768181"><ele>211.0</ele><time>2026-04-26T08:53:41Z</time></trkpt><trkpt lat="45.97406664661136" lon="11.944911255466002"><ele>215.0</ele><time>2026-04-26T08:53:42Z</time></trkpt><trkpt lat="45.97416831484997" lon="11.945210250986507"><ele>219.0</ele><time>2026-04-26T08:53:43Z</time></trkpt><trkpt lat="45.97427139194376" lon="11.945509566251571"><ele>210.0</ele><time>2026-04-26T08:53:44Z</time></trkpt><trkpt lat="45.97436791709469" lon="11.945802619260348"><ele>201.0</ele><time>2026-04-26T08:53:45Z</time></trkpt><trkpt lat="45.97446622205101" lon="11.946100854082719"><ele>201.0</ele><time>2026-04-26T08:53:46Z</time></trkpt><trkpt lat="45.97455942724322" lon="11.946383682760377"><ele>201.0</ele><time>2026-04-26T08:53:46.999Z</time></trkpt><trkpt lat="45.97465252039358" lon="11.946660941886803"><ele>201.0</ele><time>2026-04-26T08:53:47.999Z</time></trkpt><trkpt lat="45.97474093631552" lon="11.946919978729197"><ele>201.33333333333331</ele><time>2026-04-26T08:53:48.999Z</time></trkpt><trkpt lat="45.97482831749478" lon="11.947180030957558"><ele>201.66666666666666</ele><time>2026-04-26T08:53:49.999Z</time></trkpt><trkpt lat="45.97491351151513" lon="11.947443199007711"><ele>202.0</ele><time>2026-04-26T08:53:50.999Z</time></trkpt><trkpt lat="45.97500906678839" lon="11.947716436147896"><ele>201.66666666666666</ele><time>2026-04-26T08:53:51.999Z</time></trkpt><trkpt lat="45.975100473655424" lon="11.947993902115439"><ele>201.33333333333331</ele><time>2026-04-26T08:53:52.999Z</time></trkpt><trkpt lat="45.97518511663119" lon="11.948243865545962"><ele>201.0</ele><time>2026-04-26T08:53:53.999Z</time></trkpt><trkpt lat="45.97526974305903" lon="11.948496769018554"><ele>202.0</ele><time>2026-04-26T08:53:54.999Z</time></trkpt><trkpt lat="45.97535180206372" lon="11.948748897731331"><ele>203.0</ele><time>2026-04-26T08:53:55.999Z</time></trkpt><trkpt lat="45.97542558100018" lon="11.94899408929578"><ele>204.0</ele><time>2026-04-26T08:53:56.999Z</time></trkpt><trkpt lat="45.97549160776926" lon="11.94924173910341"><ele>204.33333333333331</ele><time>2026-04-26T08:53:57.999Z</time></trkpt><trkpt lat="45.975555418703614" lon="11.949505397861584"><ele>204.66666666666666</ele><time>2026-04-26T08:53:58.999Z</time></trkpt><trkpt lat="45.975596544710875" lon="11.949728406111195"><ele>205.0</ele><time>2026-04-26T08:53:59.999Z</time></trkpt><trkpt lat="45.97561383537616" lon="11.950061139361628"><ele>205.33333333333331</ele><time>2026-04-26T08:54:00.999Z</time></trkpt><trkpt lat="45.97563009015233" lon="11.950343709397341"><ele>205.66666666666669</ele><time>2026-04-26T08:54:01.999Z</time></trkpt><trkpt lat="45.97562893379765" lon="11.9506156186877"><ele>206.0</ele><time>2026-04-26T08:54:02.999Z</time></trkpt><trkpt lat="45.97560105553074" lon="11.950895526078323"><ele>206.0</ele><time>2026-04-26T08:54:03.999Z</time></trkpt><trkpt lat="45.975565309026855" lon="11.951173377616126"><ele>206.0</ele><time>2026-04-26T08:54:05Z</time></trkpt><trkpt lat="45.9755089052466" lon="11.95146100708789"><ele>206.0</ele><time>2026-04-26T08:54:06Z</time></trkpt><trkpt lat="45.975437154360534" lon="11.9517373846095"><ele>206.33333333333334</ele><time>2026-04-26T08:54:07Z</time></trkpt><trkpt lat="45.975365656955596" lon="11.951992345722767"><ele>206.66666666666669</ele><time>2026-04-26T08:54:08Z</time></trkpt><trkpt lat="45.97529088187034" lon="11.952227408653552"><ele>207.0</ele><time>2026-04-26T08:54:09Z</time></trkpt><trkpt lat="45.97523282331939" lon="11.95245645952053"><ele>206.66666666666669</ele><time>2026-04-26T08:54:10Z</time></trkpt><trkpt lat="45.975198842947854" lon="11.952699246040927"><ele>206.33333333333334</ele><time>2026-04-26T08:54:11Z</time></trkpt><trkpt lat="45.97517620203739" lon="11.952959044980199"><ele>206.0</ele><time>2026-04-26T08:54:12Z</time></trkpt><trkpt lat="45.97515209180645" lon="11.953211029541892"><ele>206.33333333333334</ele><time>2026-04-26T08:54:13Z</time></trkpt><trkpt lat="45.975144923741205" lon="11.95347253589116"><ele>206.66666666666669</ele><time>2026-04-26T08:54:14Z</time></trkpt><trkpt lat="45.97512140479617" lon="11.953746807375447"><ele>207.0</ele><time>2026-04-26T08:54:15Z</time></trkpt><trkpt lat="45.9751088446623" lon="11.95402800841321"><ele>208.0</ele><time>2026-04-26T08:54:16Z</time></trkpt><trkpt lat="45.975248439051256" lon="11.954322329976288"><ele>209.0</ele><time>2026-04-26T08:54:17Z</time></trkpt><trkpt lat="45.97531058023355" lon="11.954622245061705"><ele>209.0</ele><time>2026-04-26T08:54:18Z</time></trkpt><trkpt lat="45.975376201410086" lon="11.954933761472317"><ele>209.0</ele><time>2026-04-26T08:54:19Z</time></trkpt><trkpt lat="45.97544432172238" lon="11.955223179633183"><ele>209.0</ele><time>2026-04-26T08:54:20Z</time></trkpt><trkpt lat="45.97549039027364" lon="11.955510002991677"><ele>209.66666666666669</ele><time>2026-04-26T08:54:21Z</time></trkpt><trkpt lat="45.97555250227653" lon="11.955807077122039"><ele>210.33333333333331</ele><time>2026-04-26T08:54:22Z</time></trkpt><trkpt lat="45.975613191950266" lon="11.956102061142722"><ele>211.0</ele><time>2026-04-26T08:54:23Z</time></trkpt><trkpt lat="45.97566996105431" lon="11.956371521212503"><ele>210.33333333333331</ele><time>2026-04-26T08:54:24Z</time></trkpt><trkpt lat="45.97572380548782" lon="11.95662466142167"><ele>209.66666666666669</ele><time>2026-04-26T08:54:25Z</time></trkpt><trkpt lat="45.97578635184963" lon="11.95688305141061"><ele>209.0</ele><time>2026-04-26T08:54:26Z</time></trkpt><trkpt lat="45.97585811405079" lon="11.957140327843028"><ele>209.0</ele><time>2026-04-26T08:54:27Z</time></trkpt><trkpt lat="45.975941037090415" lon="11.957396493625188"><ele>209.0</ele><time>2026-04-26T08:54:28Z</time></trkpt><trkpt lat="45.97604642910207" lon="11.957649213792743"><ele>209.0</ele><time>2026-04-26T08:54:29Z</time></trkpt><trkpt lat="45.97616231641518" lon="11.957900593784192"><ele>210.0</ele><time>2026-04-26T08:54:30Z</time></trkpt><trkpt lat="45.97630128127335" lon="11.95813450292597"><ele>211.0</ele><time>2026-04-26T08:54:31Z</time></trkpt><trkpt lat="45.976429017779566" lon="11.958368025996345"><ele>212.0</ele><time>2026-04-26T08:54:32Z</time></trkpt><trkpt lat="45.97654475818783" lon="11.958605047752297"><ele>211.66666666666669</ele><time>2026-04-26T08:54:33Z</time></trkpt><trkpt lat="45.976658730315236" lon="11.958821263045447"><ele>211.33333333333331</ele><time>2026-04-26T08:54:34Z</time></trkpt><trkpt lat="45.97677938887294" lon="11.959044707831872"><ele>211.0</ele><time>2026-04-26T08:54:35Z</time></trkpt><trkpt lat="45.97689859854011" lon="11.959276982954185"><ele>211.0</ele><time>2026-04-26T08:54:36Z</time></trkpt><trkpt lat="45.9770187938124" lon="11.959508702060193"><ele>211.0</ele><time>2026-04-26T08:54:37Z</time></trkpt><trkpt lat="45.97714159445708" lon="11.959762802994888"><ele>211.0</ele><time>2026-04-26T08:54:38Z</time></trkpt><trkpt lat="45.97725634683705" lon="11.959963731963407"><ele>210.66666666666666</ele><time>2026-04-26T08:54:39Z</time></trkpt><trkpt lat="45.97737659310713" lon="11.96015095251267"><ele>210.33333333333331</ele><time>2026-04-26T08:54:40Z</time></trkpt><trkpt lat="45.977492804637606" lon="11.96041630067758"><ele>210.0</ele><time>2026-04-26T08:54:41Z</time></trkpt><trkpt lat="45.977618056892325" lon="11.96065027123935"><ele>209.66666666666669</ele><time>2026-04-26T08:54:42Z</time></trkpt><trkpt lat="45.977746187820614" lon="11.960886604066468"><ele>209.33333333333334</ele><time>2026-04-26T08:54:43Z</time></trkpt><trkpt lat="45.97786194507775" lon="11.961107186397129"><ele>209.0</ele><time>2026-04-26T08:54:44Z</time></trkpt><trkpt lat="45.97796806268668" lon="11.961292770984878"><ele>209.0</ele><time>2026-04-26T08:54:45Z</time></trkpt><trkpt lat="45.97810262466902" lon="11.96153268418687"><ele>209.0</ele><time>2026-04-26T08:54:46Z</time></trkpt><trkpt lat="45.97821450421593" lon="11.9617501642845"><ele>209.0</ele><time>2026-04-26T08:54:47Z</time></trkpt><trkpt lat="45.97832236386477" lon="11.961962611398066"><ele>208.66666666666669</ele><time>2026-04-26T08:54:48Z</time></trkpt><trkpt lat="45.978429375285636" lon="11.962177125206308"><ele>208.33333333333331</ele><time>2026-04-26T08:54:49Z</time></trkpt><trkpt lat="45.9785418359373" lon="11.962396104553513"><ele>208.0</ele><time>2026-04-26T08:54:50Z</time></trkpt><trkpt lat="45.97865826977677" lon="11.962610688143702"><ele>208.66666666666666</ele><time>2026-04-26T08:54:51Z</time></trkpt><trkpt lat="45.978762861980414" lon="11.962811503778243"><ele>209.33333333333331</ele><time>2026-04-26T08:54:52Z</time></trkpt><trkpt lat="45.97886643747335" lon="11.963016913280324"><ele>210.0</ele><time>2026-04-26T08:54:53Z</time></trkpt><trkpt lat="45.978972535954085" lon="11.963229438366266"><ele>211.0</ele><time>2026-04-26T08:54:54Z</time></trkpt><trkpt lat="45.97905482468391" lon="11.9634424742556"><ele>212.0</ele><time>2026-04-26T08:54:55Z</time></trkpt><trkpt lat="45.97913914415693" lon="11.963675851097276"><ele>213.0</ele><time>2026-04-26T08:54:56Z</time></trkpt><trkpt lat="45.97921174722876" lon="11.963940624520719"><ele>210.66666666666669</ele><time>2026-04-26T08:54:57Z</time></trkpt><trkpt lat="45.97927328045501" lon="11.964217054277157"><ele>208.33333333333334</ele><time>2026-04-26T08:54:58Z</time></trkpt><trkpt lat="45.9793376453713" lon="11.964496771923748"><ele>206.0</ele><time>2026-04-26T08:54:59Z</time></trkpt><trkpt lat="45.97939488975586" lon="11.964794424038578"><ele>206.66666666666669</ele><time>2026-04-26T08:55:00Z</time></trkpt><trkpt lat="45.97945209710553" lon="11.965101876096943"><ele>207.33333333333331</ele><time>2026-04-26T08:55:01Z</time></trkpt><trkpt lat="45.97950321103875" lon="11.965401165719621"><ele>208.0</ele><time>2026-04-26T08:55:02Z</time></trkpt><trkpt lat="45.97956042654178" lon="11.965690645167314"><ele>208.0</ele><time>2026-04-26T08:55:03Z</time></trkpt><trkpt lat="45.979630004194604" lon="11.965975691703678"><ele>208.0</ele><time>2026-04-26T08:55:04Z</time></trkpt><trkpt lat="45.97967873595266" lon="11.96625241828965"><ele>208.0</ele><time>2026-04-26T08:55:05Z</time></trkpt><trkpt lat="45.97972760330937" lon="11.96650679066932"><ele>209.33333333333331</ele><time>2026-04-26T08:55:06Z</time></trkpt><trkpt lat="45.97977103849283" lon="11.96675092723593"><ele>210.66666666666669</ele><time>2026-04-26T08:55:07Z</time></trkpt><trkpt lat="45.979811471220195" lon="11.967003557146096"><ele>212.0</ele><time>2026-04-26T08:55:08Z</time></trkpt><trkpt lat="45.97985522518886" lon="11.967252592000355"><ele>212.0</ele><time>2026-04-26T08:55:09Z</time></trkpt><trkpt lat="45.979906412570216" lon="11.967506458490877"><ele>212.0</ele><time>2026-04-26T08:55:10Z</time></trkpt><trkpt lat="45.979957761764176" lon="11.967766696201052"><ele>212.0</ele><time>2026-04-26T08:55:11Z</time></trkpt><trkpt lat="45.98000961558101" lon="11.968033398766492"><ele>209.66666666666669</ele><time>2026-04-26T08:55:12Z</time></trkpt><trkpt lat="45.98005881247578" lon="11.96828423450939"><ele>207.33333333333331</ele><time>2026-04-26T08:55:13Z</time></trkpt><trkpt lat="45.98011581684804" lon="11.968543489767308"><ele>205.0</ele><time>2026-04-26T08:55:14Z</time></trkpt><trkpt lat="45.98017628314073" lon="11.968804720961781"><ele>205.0</ele><time>2026-04-26T08:55:15Z</time></trkpt><trkpt lat="45.980239174554264" lon="11.96905894409153"><ele>205.0</ele><time>2026-04-26T08:55:16Z</time></trkpt><trkpt lat="45.98031081217353" lon="11.969311997555954"><ele>205.0</ele><time>2026-04-26T08:55:17Z</time></trkpt><trkpt lat="45.98039628994849" lon="11.969556585199157"><ele>206.0</ele><time>2026-04-26T08:55:18Z</time></trkpt><trkpt lat="45.98049599977193" lon="11.969801759559896"><ele>207.0</ele><time>2026-04-26T08:55:19Z</time></trkpt><trkpt lat="45.98059686506711" lon="11.970042053481617"><ele>208.0</ele><time>2026-04-26T08:55:20Z</time></trkpt><trkpt lat="45.980697097329504" lon="11.970278307647288"><ele>208.66666666666666</ele><time>2026-04-26T08:55:21Z</time></trkpt><trkpt lat="45.98079205026078" lon="11.970500157413246"><ele>209.33333333333331</ele><time>2026-04-26T08:55:22Z</time></trkpt><trkpt lat="45.98088619509092" lon="11.970722972118372"><ele>210.0</ele><time>2026-04-26T08:55:23Z</time></trkpt><trkpt lat="45.980988435771266" lon="11.970936194371662"><ele>210.0</ele><time>2026-04-26T08:55:24Z</time></trkpt><trkpt lat="45.98108202890338" lon="11.971163352324432"><ele>210.0</ele><time>2026-04-26T08:55:25Z</time></trkpt><trkpt lat="45.98118258596521" lon="11.971401425624114"><ele>210.0</ele><time>2026-04-26T08:55:26Z</time></trkpt><trkpt lat="45.98129442937751" lon="11.971630517665972"><ele>215.0</ele><time>2026-04-26T08:55:27Z</time></trkpt><trkpt lat="45.98138571325769" lon="11.971838822707255"><ele>220.0</ele><time>2026-04-26T08:55:28Z</time></trkpt><trkpt lat="45.98147494960707" lon="11.972060389762715"><ele>225.0</ele><time>2026-04-26T08:55:29Z</time></trkpt><trkpt lat="45.981568959280175" lon="11.97227895767842"><ele>225.0</ele><time>2026-04-26T08:55:30Z</time></trkpt><trkpt lat="45.981659664143976" lon="11.972487465996041"><ele>225.0</ele><time>2026-04-26T08:55:31Z</time></trkpt><trkpt lat="45.981751126329684" lon="11.972691652382622"><ele>225.0</ele><time>2026-04-26T08:55:32Z</time></trkpt><trkpt lat="45.98184528210808" lon="11.97290057337881"><ele>222.66666666666669</ele><time>2026-04-26T08:55:33Z</time></trkpt><trkpt lat="45.98194262541916" lon="11.973120676044475"><ele>220.33333333333334</ele><time>2026-04-26T08:55:34Z</time></trkpt><trkpt lat="45.98203947473763" lon="11.973335417339907"><ele>218.0</ele><time>2026-04-26T08:55:35Z</time></trkpt><trkpt lat="45.98213734526767" lon="11.973558819697027"><ele>218.0</ele><time>2026-04-26T08:55:36Z</time></trkpt><trkpt lat="45.98224177569303" lon="11.973796584840752"><ele>218.0</ele><time>2026-04-26T08:55:37Z</time></trkpt><trkpt lat="45.982344389920826" lon="11.974036825520855"><ele>218.0</ele><time>2026-04-26T08:55:38Z</time></trkpt><trkpt lat="45.982462086599654" lon="11.97432389077621"><ele>214.33333333333334</ele><time>2026-04-26T08:55:39Z</time></trkpt><trkpt lat="45.982548430145236" lon="11.974520487595466"><ele>210.66666666666669</ele><time>2026-04-26T08:55:40Z</time></trkpt><trkpt lat="45.98265451426299" lon="11.974749039809181"><ele>207.0</ele><time>2026-04-26T08:55:41Z</time></trkpt><trkpt lat="45.982761132423214" lon="11.974970556885594"><ele>209.33333333333331</ele><time>2026-04-26T08:55:42Z</time></trkpt><trkpt lat="45.98285909727676" lon="11.97522009630552"><ele>211.66666666666666</ele><time>2026-04-26T08:55:43Z</time></trkpt><trkpt lat="45.98295167051284" lon="11.975433354154042"><ele>214.0</ele><time>2026-04-26T08:55:44Z</time></trkpt><trkpt lat="45.9830552657288" lon="11.975671402073623"><ele>212.33333333333331</ele><time>2026-04-26T08:55:45Z</time></trkpt><trkpt lat="45.9831680854306" lon="11.975885564278203"><ele>210.66666666666669</ele><time>2026-04-26T08:55:46Z</time></trkpt><trkpt lat="45.983251946209194" lon="11.976123411542417"><ele>209.0</ele><time>2026-04-26T08:55:47Z</time></trkpt><trkpt lat="45.98335197781974" lon="11.976320373900172"><ele>209.0</ele><time>2026-04-26T08:55:48Z</time></trkpt><trkpt lat="45.98344522357232" lon="11.976532808366258"><ele>209.0</ele><time>2026-04-26T08:55:49Z</time></trkpt><trkpt lat="45.98352689799394" lon="11.976728549413718"><ele>209.0</ele><time>2026-04-26T08:55:50Z</time></trkpt><trkpt lat="45.983620862781656" lon="11.97691037968304"><ele>213.66666666666669</ele><time>2026-04-26T08:55:51Z</time></trkpt><trkpt lat="45.98372143741298" lon="11.977099547395758"><ele>218.33333333333331</ele><time>2026-04-26T08:55:52Z</time></trkpt><trkpt lat="45.98381267959559" lon="11.97728779968389"><ele>223.0</ele><time>2026-04-26T08:55:53Z</time></trkpt><trkpt lat="45.983925838189265" lon="11.977447550282324"><ele>223.0</ele><time>2026-04-26T08:55:54Z</time></trkpt><trkpt lat="45.98405201130217" lon="11.97759644344173"><ele>223.0</ele><time>2026-04-26T08:55:54.999Z</time></trkpt><trkpt lat="45.98418387179026" lon="11.977742420840642"><ele>223.0</ele><time>2026-04-26T08:55:55.999Z</time></trkpt><trkpt lat="45.98431634780964" lon="11.977873278096936"><ele>223.0</ele><time>2026-04-26T08:55:56.999Z</time></trkpt><trkpt lat="45.984443545346295" lon="11.977981845915755"><ele>223.0</ele><time>2026-04-26T08:55:57.999Z</time></trkpt><trkpt lat="45.98456125849424" lon="11.978089719792875"><ele>223.0</ele><time>2026-04-26T08:55:58.999Z</time></trkpt><trkpt lat="45.98468639383191" lon="11.978171114192998"><ele>223.0</ele><time>2026-04-26T08:55:59.999Z</time></trkpt><trkpt lat="45.98482759631808" lon="11.978262839415835"><ele>221.66666666666666</ele><time>2026-04-26T08:56:00.999Z</time></trkpt><trkpt lat="45.9849628888379" lon="11.978377565027824"><ele>220.33333333333331</ele><time>2026-04-26T08:56:01.999Z</time></trkpt><trkpt lat="45.98509918531771" lon="11.978533048243051"><ele>219.0</ele><time>2026-04-26T08:56:02.999Z</time></trkpt><trkpt lat="45.985237986565366" lon="11.978730384976235"><ele>219.0</ele><time>2026-04-26T08:56:03.999Z</time></trkpt><trkpt lat="45.98536768436931" lon="11.978915752315455"><ele>219.0</ele><time>2026-04-26T08:56:04.999Z</time></trkpt><trkpt lat="45.98550302559202" lon="11.979090891774781"><ele>219.0</ele><time>2026-04-26T08:56:05.999Z</time></trkpt><trkpt lat="45.98564782665069" lon="11.979268939515341"><ele>220.33333333333331</ele><time>2026-04-26T08:56:06.999Z</time></trkpt><trkpt lat="45.985785359793844" lon="11.979442122345532"><ele>221.66666666666666</ele><time>2026-04-26T08:56:07.999Z</time></trkpt><trkpt lat="45.98594049899547" lon="11.979612899710016"><ele>223.0</ele><time>2026-04-26T08:56:08.999Z</time></trkpt><trkpt lat="45.98609107154394" lon="11.97974636597697"><ele>223.0</ele><time>2026-04-26T08:56:09.999Z</time></trkpt><trkpt lat="45.9862332602282" lon="11.979864257215116"><ele>223.0</ele><time>2026-04-26T08:56:11Z</time></trkpt><trkpt lat="45.98638356236199" lon="11.979969991685081"><ele>223.0</ele><time>2026-04-26T08:56:12Z</time></trkpt><trkpt lat="45.986552159844535" lon="11.980059878384159"><ele>228.0</ele><time>2026-04-26T08:56:13Z</time></trkpt><trkpt lat="45.98672767301657" lon="11.980135508756826"><ele>233.0</ele><time>2026-04-26T08:56:14Z</time></trkpt><trkpt lat="45.98691668288968" lon="11.980198328892634"><ele>238.0</ele><time>2026-04-26T08:56:15Z</time></trkpt><trkpt lat="45.98712682425673" lon="11.980246195187219"><ele>238.0</ele><time>2026-04-26T08:56:16Z</time></trkpt><trkpt lat="45.98735407906134" lon="11.980296959392717"><ele>238.0</ele><time>2026-04-26T08:56:17Z</time></trkpt><trkpt lat="45.987566447709725" lon="11.980333370780315"><ele>238.0</ele><time>2026-04-26T08:56:18Z</time></trkpt><trkpt lat="45.98777546311132" lon="11.98036438427472"><ele>235.0</ele><time>2026-04-26T08:56:19Z</time></trkpt><trkpt lat="45.987972082465625" lon="11.980398751192283"><ele>232.0</ele><time>2026-04-26T08:56:20Z</time></trkpt><trkpt lat="45.988167141737044" lon="11.980433411567997"><ele>229.0</ele><time>2026-04-26T08:56:21Z</time></trkpt><trkpt lat="45.98835721117567" lon="11.9804779532929"><ele>225.0</ele><time>2026-04-26T08:56:22Z</time></trkpt><trkpt lat="45.98855097390753" lon="11.980554133965002"><ele>221.0</ele><time>2026-04-26T08:56:23Z</time></trkpt><trkpt lat="45.98874322019782" lon="11.980651326612044"><ele>217.0</ele><time>2026-04-26T08:56:24Z</time></trkpt><trkpt lat="45.98894241844711" lon="11.98077653528286"><ele>218.33333333333331</ele><time>2026-04-26T08:56:25Z</time></trkpt><trkpt lat="45.989140182480114" lon="11.980920655887411"><ele>219.66666666666669</ele><time>2026-04-26T08:56:26Z</time></trkpt><trkpt lat="45.98933153850323" lon="11.98109626117844"><ele>221.0</ele><time>2026-04-26T08:56:27Z</time></trkpt><trkpt lat="45.98950324891329" lon="11.98126991971225"><ele>221.0</ele><time>2026-04-26T08:56:28Z</time></trkpt><trkpt lat="45.989661236690466" lon="11.981423166757127"><ele>221.0</ele><time>2026-04-26T08:56:29Z</time></trkpt><trkpt lat="45.989822376258886" lon="11.981574450729495"><ele>221.0</ele><time>2026-04-26T08:56:30Z</time></trkpt><trkpt lat="45.98997820220691" lon="11.981720547487143"><ele>222.33333333333334</ele><time>2026-04-26T08:56:31Z</time></trkpt><trkpt lat="45.99012584937737" lon="11.981865815364115"><ele>223.66666666666669</ele><time>2026-04-26T08:56:32Z</time></trkpt><trkpt lat="45.99026346535225" lon="11.98200206843394"><ele>225.0</ele><time>2026-04-26T08:56:33Z</time></trkpt><trkpt lat="45.9904084964637" lon="11.982138791221688"><ele>225.0</ele><time>2026-04-26T08:56:34Z</time></trkpt><trkpt lat="45.99054941953527" lon="11.982272460124554"><ele>225.0</ele><time>2026-04-26T08:56:35Z</time></trkpt><trkpt lat="45.99069554306778" lon="11.98240514541882"><ele>225.0</ele><time>2026-04-26T08:56:36Z</time></trkpt><trkpt lat="45.99085759174177" lon="11.98251045581551"><ele>231.0</ele><time>2026-04-26T08:56:37Z</time></trkpt><trkpt lat="45.991030068816194" lon="11.982599428042937"><ele>237.0</ele><time>2026-04-26T08:56:38Z</time></trkpt><trkpt lat="45.991201215615504" lon="11.982668893736944"><ele>243.0</ele><time>2026-04-26T08:56:39Z</time></trkpt><trkpt lat="45.991383862058406" lon="11.982722454451054"><ele>243.0</ele><time>2026-04-26T08:56:40Z</time></trkpt><trkpt lat="45.99158145708561" lon="11.98275827608846"><ele>243.0</ele><time>2026-04-26T08:56:41Z</time></trkpt><trkpt lat="45.99178705698793" lon="11.982780910731186"><ele>243.0</ele><time>2026-04-26T08:56:42Z</time></trkpt><trkpt lat="45.992018418233606" lon="11.982824323236395"><ele>244.0</ele><time>2026-04-26T08:56:43Z</time></trkpt><trkpt lat="45.99226194868751" lon="11.982864864016948"><ele>245.0</ele><time>2026-04-26T08:56:44Z</time></trkpt><trkpt lat="45.99251172830833" lon="11.982906404960827"><ele>242.0</ele><time>2026-04-26T08:56:45Z</time></trkpt><trkpt lat="45.992786795780624" lon="11.98292868402897"><ele>239.0</ele><time>2026-04-26T08:56:46Z</time></trkpt><trkpt lat="45.9929977466775" lon="11.98297472589481"><ele>239.0</ele><time>2026-04-26T08:56:47Z</time></trkpt><trkpt lat="45.99318399604738" lon="11.9830158366106"><ele>239.0</ele><time>2026-04-26T08:56:48Z</time></trkpt><trkpt lat="45.993392513323386" lon="11.983085425173762"><ele>239.0</ele><time>2026-04-26T08:56:49Z</time></trkpt><trkpt lat="45.99360367651556" lon="11.983111772365733"><ele>237.66666666666669</ele><time>2026-04-26T08:56:50Z</time></trkpt><trkpt lat="45.99379958896691" lon="11.983130504453346"><ele>236.33333333333331</ele><time>2026-04-26T08:56:51Z</time></trkpt><trkpt lat="45.994008231858416" lon="11.983127779791817"><ele>235.0</ele><time>2026-04-26T08:56:52Z</time></trkpt><trkpt lat="45.994210354489546" lon="11.983124196075783"><ele>234.0</ele><time>2026-04-26T08:56:53Z</time></trkpt><trkpt lat="45.99439054088232" lon="11.983128862147883"><ele>233.0</ele><time>2026-04-26T08:56:54Z</time></trkpt><trkpt lat="45.99457114048636" lon="11.983152833724759"><ele>232.0</ele><time>2026-04-26T08:56:55Z</time></trkpt><trkpt lat="45.99476598450951" lon="11.983201913385354"><ele>232.0</ele><time>2026-04-26T08:56:56Z</time></trkpt><trkpt lat="45.99497490363237" lon="11.983263354163725"><ele>232.0</ele><time>2026-04-26T08:56:57Z</time></trkpt><trkpt lat="45.9951710708104" lon="11.983341387988965"><ele>232.0</ele><time>2026-04-26T08:56:58Z</time></trkpt><trkpt lat="45.99536801212066" lon="11.98340217617533"><ele>253.0</ele><time>2026-04-26T08:56:59Z</time></trkpt><trkpt lat="45.9955750599065" lon="11.983439694852885"><ele>274.0</ele><time>2026-04-26T08:57:00Z</time></trkpt><trkpt lat="45.99579271220085" lon="11.983444525010166"><ele>295.0</ele><time>2026-04-26T08:57:01Z</time></trkpt><trkpt lat="45.99602556650945" lon="11.983425089274265"><ele>295.0</ele><time>2026-04-26T08:57:02Z</time></trkpt><trkpt lat="45.99624813219045" lon="11.983392831220135"><ele>295.0</ele><time>2026-04-26T08:57:03Z</time></trkpt><trkpt lat="45.996504805290535" lon="11.983359878744338"><ele>265.5</ele><time>2026-04-26T08:57:04Z</time></trkpt><trkpt lat="45.996741463594546" lon="11.983321844556682"><ele>236.0</ele><time>2026-04-26T08:57:05Z</time></trkpt><trkpt lat="45.996976887128994" lon="11.983316006070709"><ele>236.0</ele><time>2026-04-26T08:57:06Z</time></trkpt><trkpt lat="45.9972160376326" lon="11.983295389050571"><ele>236.0</ele><time>2026-04-26T08:57:07Z</time></trkpt><trkpt lat="45.99745367053614" lon="11.983266612112809"><ele>230.5</ele><time>2026-04-26T08:57:08Z</time></trkpt><trkpt lat="45.997699031661455" lon="11.983240840869668"><ele>225.0</ele><time>2026-04-26T08:57:09Z</time></trkpt><trkpt lat="45.99792122625289" lon="11.983217876335145"><ele>225.0</ele><time>2026-04-26T08:57:10Z</time></trkpt><trkpt lat="45.99817877849239" lon="11.983200294161817"><ele>225.0</ele><time>2026-04-26T08:57:11Z</time></trkpt><trkpt lat="45.99843159701417" lon="11.983177071067702"><ele>225.0</ele><time>2026-04-26T08:57:12Z</time></trkpt><trkpt lat="45.998685550368265" lon="11.983149251472177"><ele>225.0</ele><time>2026-04-26T08:57:13Z</time></trkpt><trkpt lat="45.99894002629872" lon="11.983124368328575"><ele>225.0</ele><time>2026-04-26T08:57:14Z</time></trkpt><trkpt lat="45.99919246661568" lon="11.983099455753484"><ele>225.0</ele><time>2026-04-26T08:57:15Z</time></trkpt><trkpt lat="45.99944004961229" lon="11.98307190399619"><ele>225.0</ele><time>2026-04-26T08:57:16Z</time></trkpt><trkpt lat="45.99967677947608" lon="11.983044862209713"><ele>225.0</ele><time>2026-04-26T08:57:17Z</time></trkpt><trkpt lat="45.999913143874956" lon="11.983016870842404"><ele>225.0</ele><time>2026-04-26T08:57:18Z</time></trkpt><trkpt lat="46.00014047991131" lon="11.982988216380184"><ele>225.0</ele><time>2026-04-26T08:57:19Z</time></trkpt><trkpt lat="46.00037448858117" lon="11.982971273210229"><ele>225.0</ele><time>2026-04-26T08:57:20Z</time></trkpt><trkpt lat="46.000599073471754" lon="11.98293626860256"><ele>225.0</ele><time>2026-04-26T08:57:21Z</time></trkpt><trkpt lat="46.000836617560076" lon="11.982915674100914"><ele>229.5</ele><time>2026-04-26T08:57:22Z</time></trkpt><trkpt lat="46.0010652175456" lon="11.982886676548633"><ele>234.0</ele><time>2026-04-26T08:57:23Z</time></trkpt><trkpt lat="46.00130192455185" lon="11.982865029750178"><ele>234.0</ele><time>2026-04-26T08:57:24Z</time></trkpt><trkpt lat="46.001538226966716" lon="11.982841321730664"><ele>234.0</ele><time>2026-04-26T08:57:25Z</time></trkpt><trkpt lat="46.0017664190527" lon="11.982817548034877"><ele>236.0</ele><time>2026-04-26T08:57:26Z</time></trkpt><trkpt lat="46.001989414783004" lon="11.982792116030266"><ele>238.0</ele><time>2026-04-26T08:57:27Z</time></trkpt><trkpt lat="46.0022137241702" lon="11.982777221905835"><ele>240.0</ele><time>2026-04-26T08:57:28Z</time></trkpt><trkpt lat="46.002440551520245" lon="11.982753244256623"><ele>234.0</ele><time>2026-04-26T08:57:29Z</time></trkpt><trkpt lat="46.00267430633787" lon="11.982740955719297"><ele>228.0</ele><time>2026-04-26T08:57:30Z</time></trkpt><trkpt lat="46.002894092278424" lon="11.982720356541048"><ele>228.0</ele><time>2026-04-26T08:57:31Z</time></trkpt><trkpt lat="46.00313033192256" lon="11.98269171997242"><ele>228.0</ele><time>2026-04-26T08:57:32Z</time></trkpt><trkpt lat="46.003376500939034" lon="11.98266492503284"><ele>228.5</ele><time>2026-04-26T08:57:33Z</time></trkpt><trkpt lat="46.003621320070096" lon="11.9826420520808"><ele>229.0</ele><time>2026-04-26T08:57:34Z</time></trkpt><trkpt lat="46.00386970514502" lon="11.982614580559796"><ele>229.0</ele><time>2026-04-26T08:57:35Z</time></trkpt><trkpt lat="46.00412204668977" lon="11.982587074955086"><ele>229.0</ele><time>2026-04-26T08:57:35.999Z</time></trkpt><trkpt lat="46.0043769128627" lon="11.982559291808675"><ele>228.5</ele><time>2026-04-26T08:57:36.999Z</time></trkpt><trkpt lat="46.004628712989955" lon="11.98253566560418"><ele>228.0</ele><time>2026-04-26T08:57:37.999Z</time></trkpt><trkpt lat="46.004884263926684" lon="11.982512909602308"><ele>225.0</ele><time>2026-04-26T08:57:38.999Z</time></trkpt><trkpt lat="46.00513621419225" lon="11.982479330060825"><ele>222.0</ele><time>2026-04-26T08:57:39.999Z</time></trkpt><trkpt lat="46.005384578673244" lon="11.98245610565411"><ele>222.0</ele><time>2026-04-26T08:57:40.999Z</time></trkpt><trkpt lat="46.00562491699691" lon="11.98242803584783"><ele>222.0</ele><time>2026-04-26T08:57:41.999Z</time></trkpt><trkpt lat="46.00587221326529" lon="11.982395034911598"><ele>222.5</ele><time>2026-04-26T08:57:42.999Z</time></trkpt><trkpt lat="46.00612688546771" lon="11.982372576467442"><ele>223.0</ele><time>2026-04-26T08:57:43.999Z</time></trkpt><trkpt lat="46.00638849336487" lon="11.982353549574889"><ele>223.0</ele><time>2026-04-26T08:57:44.999Z</time></trkpt><trkpt lat="46.00664541983841" lon="11.982349130482842"><ele>223.0</ele><time>2026-04-26T08:57:45.999Z</time></trkpt><trkpt lat="46.00690262211579" lon="11.982303127913744"><ele>222.5</ele><time>2026-04-26T08:57:46.999Z</time></trkpt><trkpt lat="46.007148440147915" lon="11.982270116986163"><ele>222.0</ele><time>2026-04-26T08:57:47.999Z</time></trkpt><trkpt lat="46.007397235777724" lon="11.982234639957145"><ele>221.0</ele><time>2026-04-26T08:57:48.999Z</time></trkpt><trkpt lat="46.0076490414783" lon="11.982201046383585"><ele>220.0</ele><time>2026-04-26T08:57:49.999Z</time></trkpt><trkpt lat="46.00790022163631" lon="11.982175196324265"><ele>220.0</ele><time>2026-04-26T08:57:50.999Z</time></trkpt><trkpt lat="46.00813904069086" lon="11.982142255180896"><ele>220.0</ele><time>2026-04-26T08:57:51.999Z</time></trkpt><trkpt lat="46.008358371480526" lon="11.982110431286287"><ele>224.33333333333331</ele><time>2026-04-26T08:57:52.999Z</time></trkpt><trkpt lat="46.00857786775727" lon="11.982081390508679"><ele>228.66666666666669</ele><time>2026-04-26T08:57:53.999Z</time></trkpt><trkpt lat="46.00880273806854" lon="11.982061479391627"><ele>233.0</ele><time>2026-04-26T08:57:54.999Z</time></trkpt><trkpt lat="46.00903695186151" lon="11.982036960877728"><ele>246.0</ele><time>2026-04-26T08:57:55.999Z</time></trkpt><trkpt lat="46.00927315555537" lon="11.98199963924872"><ele>259.0</ele><time>2026-04-26T08:57:56.999Z</time></trkpt><trkpt lat="46.009514734468404" lon="11.98196426791355"><ele>259.0</ele><time>2026-04-26T08:57:57.999Z</time></trkpt><trkpt lat="46.009740048376074" lon="11.981939275508397"><ele>259.0</ele><time>2026-04-26T08:57:58.999Z</time></trkpt><trkpt lat="46.00996243256193" lon="11.981908724796947"><ele>259.0</ele><time>2026-04-26T08:57:59.999Z</time></trkpt><trkpt lat="46.01018757279886" lon="11.981875864380807"><ele>264.3333333333333</ele><time>2026-04-26T08:58:00.999Z</time></trkpt><trkpt lat="46.01040296453225" lon="11.981848317212803"><ele>269.6666666666667</ele><time>2026-04-26T08:58:01.999Z</time></trkpt><trkpt lat="46.01060765271471" lon="11.98182345108777"><ele>275.0</ele><time>2026-04-26T08:58:02.999Z</time></trkpt><trkpt lat="46.01081050728175" lon="11.981800515076428"><ele>277.6666666666667</ele><time>2026-04-26T08:58:03.999Z</time></trkpt><trkpt lat="46.0110067764035" lon="11.981784716597998"><ele>280.3333333333333</ele><time>2026-04-26T08:58:04.999Z</time></trkpt><trkpt lat="46.01121211756414" lon="11.981779763246767"><ele>283.0</ele><time>2026-04-26T08:58:05.999Z</time></trkpt><trkpt lat="46.01142975780946" lon="11.981795165378246"><ele>283.0</ele><time>2026-04-26T08:58:06.999Z</time></trkpt><trkpt lat="46.01164970190809" lon="11.981840340655094"><ele>283.0</ele><time>2026-04-26T08:58:07.999Z</time></trkpt><trkpt lat="46.011875397007294" lon="11.981912656541784"><ele>273.5</ele><time>2026-04-26T08:58:08.999Z</time></trkpt><trkpt lat="46.01210253728398" lon="11.981990848858135"><ele>264.0</ele><time>2026-04-26T08:58:09.999Z</time></trkpt><trkpt lat="46.01233498827674" lon="11.98207072358175"><ele>251.0</ele><time>2026-04-26T08:58:10.999Z</time></trkpt><trkpt lat="46.01256435882242" lon="11.982148689269584"><ele>238.0</ele><time>2026-04-26T08:58:11.999Z</time></trkpt><trkpt lat="46.01278102652342" lon="11.982217829991608"><ele>238.0</ele><time>2026-04-26T08:58:12.999Z</time></trkpt><trkpt lat="46.01300204293649" lon="11.982299138616073"><ele>238.0</ele><time>2026-04-26T08:58:13.999Z</time></trkpt><trkpt lat="46.013223000450004" lon="11.982367069940695"><ele>235.66666666666666</ele><time>2026-04-26T08:58:14.999Z</time></trkpt><trkpt lat="46.01343663904097" lon="11.98243325427176"><ele>233.33333333333331</ele><time>2026-04-26T08:58:15.999Z</time></trkpt><trkpt lat="46.01363106841633" lon="11.98249302422569"><ele>231.0</ele><time>2026-04-26T08:58:17Z</time></trkpt><trkpt lat="46.013811321755476" lon="11.98255339430892"><ele>240.0</ele><time>2026-04-26T08:58:18Z</time></trkpt><trkpt lat="46.0139928227471" lon="11.98261776875802"><ele>249.0</ele><time>2026-04-26T08:58:19Z</time></trkpt><trkpt lat="46.014174760696164" lon="11.982690221830344"><ele>258.0</ele><time>2026-04-26T08:58:20Z</time></trkpt><trkpt lat="46.01434703295332" lon="11.982770149571719"><ele>258.0</ele><time>2026-04-26T08:58:21Z</time></trkpt><trkpt lat="46.01451361305771" lon="11.982868697919331"><ele>258.0</ele><time>2026-04-26T08:58:22Z</time></trkpt><trkpt lat="46.014677680504036" lon="11.98298453077882"><ele>258.0</ele><time>2026-04-26T08:58:23Z</time></trkpt><trkpt lat="46.014831130804986" lon="11.983121482626379"><ele>258.0</ele><time>2026-04-26T08:58:24Z</time></trkpt><trkpt lat="46.01496897381459" lon="11.983266213504072"><ele>258.0</ele><time>2026-04-26T08:58:25Z</time></trkpt><trkpt lat="46.01509552729882" lon="11.983412120617562"><ele>258.0</ele><time>2026-04-26T08:58:26Z</time></trkpt><trkpt lat="46.01520901946193" lon="11.983568775721166"><ele>262.3333333333333</ele><time>2026-04-26T08:58:27Z</time></trkpt><trkpt lat="46.01530739477093" lon="11.983769757430096"><ele>266.66666666666663</ele><time>2026-04-26T08:58:28Z</time></trkpt><trkpt lat="46.015395571431654" lon="11.983988861920613"><ele>271.0</ele><time>2026-04-26T08:58:29Z</time></trkpt><trkpt lat="46.01548766353535" lon="11.984236150210418"><ele>275.0</ele><time>2026-04-26T08:58:30Z</time></trkpt><trkpt lat="46.01555168501719" lon="11.984510145497671"><ele>279.0</ele><time>2026-04-26T08:58:31Z</time></trkpt><trkpt lat="46.01560360417689" lon="11.984786365778666"><ele>283.0</ele><time>2026-04-26T08:58:32Z</time></trkpt><trkpt lat="46.0156450613932" lon="11.985040327990472"><ele>286.0</ele><time>2026-04-26T08:58:33Z</time></trkpt><trkpt lat="46.01569806368789" lon="11.985280927703956"><ele>289.0</ele><time>2026-04-26T08:58:34Z</time></trkpt><trkpt lat="46.015787295065834" lon="11.985531382206364"><ele>292.0</ele><time>2026-04-26T08:58:35Z</time></trkpt><trkpt lat="46.015904105934894" lon="11.985787552552637"><ele>278.5</ele><time>2026-04-26T08:58:36Z</time></trkpt><trkpt lat="46.016044037221356" lon="11.986056658569316"><ele>265.0</ele><time>2026-04-26T08:58:37Z</time></trkpt><trkpt lat="46.01618130943461" lon="11.986309782158962"><ele>265.0</ele><time>2026-04-26T08:58:38Z</time></trkpt><trkpt lat="46.01631843228674" lon="11.986569283169061"><ele>265.0</ele><time>2026-04-26T08:58:39Z</time></trkpt><trkpt lat="46.016437225213785" lon="11.986817262814501"><ele>265.0</ele><time>2026-04-26T08:58:40Z</time></trkpt><trkpt lat="46.01655399696235" lon="11.98705574638761"><ele>262.66666666666663</ele><time>2026-04-26T08:58:41Z</time></trkpt><trkpt lat="46.01666782265557" lon="11.98728456646013"><ele>260.3333333333333</ele><time>2026-04-26T08:58:42Z</time></trkpt><trkpt lat="46.01679547659242" lon="11.987500070946798"><ele>258.0</ele><time>2026-04-26T08:58:43Z</time></trkpt><trkpt lat="46.01695214515907" lon="11.987705850891645"><ele>267.6666666666667</ele><time>2026-04-26T08:58:44Z</time></trkpt><trkpt lat="46.017125985477904" lon="11.9879026611202"><ele>277.33333333333337</ele><time>2026-04-26T08:58:45Z</time></trkpt><trkpt lat="46.01729340747917" lon="11.988058705150983"><ele>287.0</ele><time>2026-04-26T08:58:46Z</time></trkpt><trkpt lat="46.01745753773863" lon="11.988162675944276"><ele>284.33333333333337</ele><time>2026-04-26T08:58:47Z</time></trkpt><trkpt lat="46.01761473658325" lon="11.988264405493464"><ele>281.6666666666667</ele><time>2026-04-26T08:58:48Z</time></trkpt><trkpt lat="46.017755696254234" lon="11.98836002883795"><ele>279.0</ele><time>2026-04-26T08:58:49Z</time></trkpt><trkpt lat="46.01788861300209" lon="11.988450743763865"><ele>279.0</ele><time>2026-04-26T08:58:50Z</time></trkpt><trkpt lat="46.018032322883776" lon="11.988576334307208"><ele>279.0</ele><time>2026-04-26T08:58:51Z</time></trkpt><trkpt lat="46.018187248170904" lon="11.98871440558384"><ele>279.0</ele><time>2026-04-26T08:58:52Z</time></trkpt><trkpt lat="46.01834589450437" lon="11.988877941491591"><ele>275.6666666666667</ele><time>2026-04-26T08:58:53Z</time></trkpt><trkpt lat="46.01850781978671" lon="11.989073665787156"><ele>272.33333333333337</ele><time>2026-04-26T08:58:54Z</time></trkpt><trkpt lat="46.01867057698081" lon="11.989273156770915"><ele>269.0</ele><time>2026-04-26T08:58:55Z</time></trkpt><trkpt lat="46.01883567045846" lon="11.98947813718472"><ele>269.0</ele><time>2026-04-26T08:58:56Z</time></trkpt><trkpt lat="46.018992346410286" lon="11.98969420502788"><ele>269.0</ele><time>2026-04-26T08:58:57Z</time></trkpt><trkpt lat="46.019168884537926" lon="11.989898543202786"><ele>269.0</ele><time>2026-04-26T08:58:58Z</time></trkpt><trkpt lat="46.0193414326516" lon="11.990114528093937"><ele>267.33333333333337</ele><time>2026-04-26T08:58:59Z</time></trkpt><trkpt lat="46.01951360497812" lon="11.990327385696006"><ele>265.6666666666667</ele><time>2026-04-26T08:59:00Z</time></trkpt><trkpt lat="46.01967311734557" lon="11.99053793883534"><ele>264.0</ele><time>2026-04-26T08:59:01Z</time></trkpt><trkpt lat="46.01984344735997" lon="11.99074734137982"><ele>258.0</ele><time>2026-04-26T08:59:02Z</time></trkpt><trkpt lat="46.020011792953206" lon="11.990957743133414"><ele>252.0</ele><time>2026-04-26T08:59:03Z</time></trkpt><trkpt lat="46.02018326155819" lon="11.991171465627831"><ele>252.0</ele><time>2026-04-26T08:59:04Z</time></trkpt><trkpt lat="46.020350122868145" lon="11.991376411114626"><ele>252.0</ele><time>2026-04-26T08:59:05Z</time></trkpt><trkpt lat="46.02050208484195" lon="11.991569995640088"><ele>252.0</ele><time>2026-04-26T08:59:06Z</time></trkpt><trkpt lat="46.02063228177205" lon="11.991758400012522"><ele>252.33333333333331</ele><time>2026-04-26T08:59:07Z</time></trkpt><trkpt lat="46.02077307572295" lon="11.99193387507645"><ele>252.66666666666666</ele><time>2026-04-26T08:59:08Z</time></trkpt><trkpt lat="46.02091646299829" lon="11.992109153583367"><ele>253.0</ele><time>2026-04-26T08:59:09Z</time></trkpt><trkpt lat="46.021062335771774" lon="11.992286424202906"><ele>253.0</ele><time>2026-04-26T08:59:10Z</time></trkpt><trkpt lat="46.021217977442966" lon="11.99246288569242"><ele>253.0</ele><time>2026-04-26T08:59:11Z</time></trkpt><trkpt lat="46.02138334857949" lon="11.992628308624566"><ele>253.0</ele><time>2026-04-26T08:59:12Z</time></trkpt><trkpt lat="46.02156483499958" lon="11.992790728501165"><ele>258.66666666666663</ele><time>2026-04-26T08:59:13Z</time></trkpt><trkpt lat="46.02176094763418" lon="11.99292281497088"><ele>264.3333333333333</ele><time>2026-04-26T08:59:14Z</time></trkpt><trkpt lat="46.02195374237267" lon="11.993044051778085"><ele>270.0</ele><time>2026-04-26T08:59:15Z</time></trkpt><trkpt lat="46.022173148825345" lon="11.993167355876686"><ele>270.0</ele><time>2026-04-26T08:59:16Z</time></trkpt><trkpt lat="46.022388309582574" lon="11.993295728776337"><ele>270.0</ele><time>2026-04-26T08:59:17Z</time></trkpt><trkpt lat="46.02260538739589" lon="11.993421505355442"><ele>274.0</ele><time>2026-04-26T08:59:18Z</time></trkpt><trkpt lat="46.022822552602726" lon="11.993559656969445"><ele>278.0</ele><time>2026-04-26T08:59:19Z</time></trkpt><trkpt lat="46.02303944202875" lon="11.993688807579357"><ele>278.0</ele><time>2026-04-26T08:59:20Z</time></trkpt><trkpt lat="46.02325804629322" lon="11.99380917304755"><ele>278.0</ele><time>2026-04-26T08:59:21Z</time></trkpt><trkpt lat="46.02345270754783" lon="11.993924605472978"><ele>278.0</ele><time>2026-04-26T08:59:22Z</time></trkpt><trkpt lat="46.023654155064975" lon="11.994041039446847"><ele>276.33333333333337</ele><time>2026-04-26T08:59:23Z</time></trkpt><trkpt lat="46.02384707263615" lon="11.994150451901152"><ele>274.6666666666667</ele><time>2026-04-26T08:59:24Z</time></trkpt><trkpt lat="46.02402664358932" lon="11.994254740257414"><ele>273.0</ele><time>2026-04-26T08:59:25Z</time></trkpt><trkpt lat="46.02421438697397" lon="11.994366153339367"><ele>273.0</ele><time>2026-04-26T08:59:26Z</time></trkpt><trkpt lat="46.0244018915452" lon="11.99448146967277"><ele>273.0</ele><time>2026-04-26T08:59:27Z</time></trkpt><trkpt lat="46.02459324140874" lon="11.99460259472336"><ele>273.0</ele><time>2026-04-26T08:59:28Z</time></trkpt><trkpt lat="46.02477614552554" lon="11.994725053844755"><ele>273.0</ele><time>2026-04-26T08:59:29Z</time></trkpt><trkpt lat="46.024954178253715" lon="11.994866994920919"><ele>273.0</ele><time>2026-04-26T08:59:30Z</time></trkpt><trkpt lat="46.02513112014051" lon="11.99503059940335"><ele>273.0</ele><time>2026-04-26T08:59:31Z</time></trkpt><trkpt lat="46.02530954258984" lon="11.995214508101968"><ele>272.0</ele><time>2026-04-26T08:59:32Z</time></trkpt><trkpt lat="46.025495135742965" lon="11.995405963710121"><ele>271.0</ele><time>2026-04-26T08:59:33Z</time></trkpt><trkpt lat="46.02567796527902" lon="11.995604151214279"><ele>263.0</ele><time>2026-04-26T08:59:34Z</time></trkpt><trkpt lat="46.025846043554104" lon="11.995786700194907"><ele>255.0</ele><time>2026-04-26T08:59:35Z</time></trkpt><trkpt lat="46.026024886720705" lon="11.99597559164747"><ele>247.0</ele><time>2026-04-26T08:59:36Z</time></trkpt><trkpt lat="46.02619069567812" lon="11.996150967508232"><ele>247.0</ele><time>2026-04-26T08:59:37Z</time></trkpt><trkpt lat="46.02635469646266" lon="11.996327070522234"><ele>247.0</ele><time>2026-04-26T08:59:38Z</time></trkpt><trkpt lat="46.02651647996414" lon="11.996497437410405"><ele>247.0</ele><time>2026-04-26T08:59:39Z</time></trkpt><trkpt lat="46.026666097254626" lon="11.996652708522221"><ele>244.66666666666666</ele><time>2026-04-26T08:59:40Z</time></trkpt><trkpt lat="46.02680913854406" lon="11.996800968623104"><ele>242.33333333333331</ele><time>2026-04-26T08:59:41Z</time></trkpt><trkpt lat="46.02694718425471" lon="11.996946149915633"><ele>240.0</ele><time>2026-04-26T08:59:42Z</time></trkpt><trkpt lat="46.02708906547997" lon="11.99708370644085"><ele>240.0</ele><time>2026-04-26T08:59:43Z</time></trkpt><trkpt lat="46.02723675592801" lon="11.997206319776591"><ele>240.0</ele><time>2026-04-26T08:59:44Z</time></trkpt><trkpt lat="46.02738533390137" lon="11.997319563469425"><ele>240.0</ele><time>2026-04-26T08:59:45Z</time></trkpt><trkpt lat="46.02753854488765" lon="11.99742418786559"><ele>240.33333333333331</ele><time>2026-04-26T08:59:46Z</time></trkpt><trkpt lat="46.0276988521998" lon="11.997505685062317"><ele>240.66666666666666</ele><time>2026-04-26T08:59:47Z</time></trkpt><trkpt lat="46.027864575682955" lon="11.997573093974149"><ele>241.0</ele><time>2026-04-26T08:59:48Z</time></trkpt><trkpt lat="46.02803588687415" lon="11.997638483830523"><ele>241.0</ele><time>2026-04-26T08:59:49Z</time></trkpt><trkpt lat="46.02819862508164" lon="11.997690510572493"><ele>241.0</ele><time>2026-04-26T08:59:50Z</time></trkpt><trkpt lat="46.02835786419214" lon="11.997726187390622"><ele>241.0</ele><time>2026-04-26T08:59:50.999Z</time></trkpt><trkpt lat="46.02852168106118" lon="11.997749690458106"><ele>241.33333333333331</ele><time>2026-04-26T08:59:51.999Z</time></trkpt><trkpt lat="46.028684435529264" lon="11.997761496387032"><ele>241.66666666666669</ele><time>2026-04-26T08:59:52.999Z</time></trkpt><trkpt lat="46.028854490135956" lon="11.997765609497579"><ele>242.0</ele><time>2026-04-26T08:59:53.999Z</time></trkpt><trkpt lat="46.029036549509605" lon="11.997765713111948"><ele>240.66666666666669</ele><time>2026-04-26T08:59:54.999Z</time></trkpt><trkpt lat="46.029232540525946" lon="11.997757923346365"><ele>239.33333333333331</ele><time>2026-04-26T08:59:55.999Z</time></trkpt><trkpt lat="46.02942554111915" lon="11.997753603336104"><ele>238.0</ele><time>2026-04-26T08:59:56.999Z</time></trkpt><trkpt lat="46.029626012487334" lon="11.997747090698013"><ele>238.0</ele><time>2026-04-26T08:59:57.999Z</time></trkpt><trkpt lat="46.02983615612934" lon="11.997744030325144"><ele>238.0</ele><time>2026-04-26T08:59:58.999Z</time></trkpt><trkpt lat="46.03005057245183" lon="11.997738634880537"><ele>238.0</ele><time>2026-04-26T08:59:59.999Z</time></trkpt><trkpt lat="46.03026613130277" lon="11.997733258315364"><ele>238.0</ele><time>2026-04-26T09:00:00.999Z</time></trkpt><trkpt lat="46.03048464668423" lon="11.99772699601688"><ele>238.0</ele><time>2026-04-26T09:00:01.999Z</time></trkpt><trkpt lat="46.03070132381162" lon="11.997716562862195"><ele>238.0</ele><time>2026-04-26T09:00:02.999Z</time></trkpt><trkpt lat="46.03091419634974" lon="11.997706506323366"><ele>238.0</ele><time>2026-04-26T09:00:03.999Z</time></trkpt><trkpt lat="46.031106907122336" lon="11.99770439757653"><ele>238.0</ele><time>2026-04-26T09:00:04.999Z</time></trkpt><trkpt lat="46.03129128322887" lon="11.997692582167499"><ele>238.0</ele><time>2026-04-26T09:00:05.999Z</time></trkpt><trkpt lat="46.03147748900958" lon="11.997690618789475"><ele>237.33333333333331</ele><time>2026-04-26T09:00:06.999Z</time></trkpt><trkpt lat="46.031670537239194" lon="11.997684156968093"><ele>236.66666666666669</ele><time>2026-04-26T09:00:07.999Z</time></trkpt><trkpt lat="46.03186113375633" lon="11.997682595757873"><ele>236.0</ele><time>2026-04-26T09:00:08.999Z</time></trkpt><trkpt lat="46.032059301472685" lon="11.997687923224005"><ele>236.0</ele><time>2026-04-26T09:00:09.999Z</time></trkpt><trkpt lat="46.03224691113571" lon="11.997690830442862"><ele>236.0</ele><time>2026-04-26T09:00:10.999Z</time></trkpt><trkpt lat="46.03243848426733" lon="11.99769186249975"><ele>236.0</ele><time>2026-04-26T09:00:11.999Z</time></trkpt><trkpt lat="46.03263210566935" lon="11.997689577346668"><ele>236.66666666666669</ele><time>2026-04-26T09:00:12.999Z</time></trkpt><trkpt lat="46.03282777500764" lon="11.997685131645417"><ele>237.33333333333331</ele><time>2026-04-26T09:00:13.999Z</time></trkpt><trkpt lat="46.033033304568356" lon="11.997677971138554"><ele>238.0</ele><time>2026-04-26T09:00:14.999Z</time></trkpt><trkpt lat="46.033228353677465" lon="11.997668349691475"><ele>238.33333333333331</ele><time>2026-04-26T09:00:15.999Z</time></trkpt><trkpt lat="46.03343487293411" lon="11.997663675761952"><ele>238.66666666666669</ele><time>2026-04-26T09:00:16.999Z</time></trkpt><trkpt lat="46.03362454029117" lon="11.997660516180739"><ele>239.0</ele><time>2026-04-26T09:00:17.999Z</time></trkpt><trkpt lat="46.03381474727887" lon="11.997656959345091"><ele>239.0</ele><time>2026-04-26T09:00:18.999Z</time></trkpt><trkpt lat="46.03399551072697" lon="11.997651609761876"><ele>239.0</ele><time>2026-04-26T09:00:19.999Z</time></trkpt><trkpt lat="46.03416103052104" lon="11.997649028771228"><ele>239.0</ele><time>2026-04-26T09:00:20.999Z</time></trkpt><trkpt lat="46.034321117948814" lon="11.99764210926863"><ele>239.5</ele><time>2026-04-26T09:00:21.999Z</time></trkpt><trkpt lat="46.03447297806533" lon="11.997634370692415"><ele>240.0</ele><time>2026-04-26T09:00:23Z</time></trkpt><trkpt lat="46.03462283291274" lon="11.997628789964523"><ele>240.5</ele><time>2026-04-26T09:00:24Z</time></trkpt><trkpt lat="46.03476878350646" lon="11.9976193079592"><ele>241.0</ele><time>2026-04-26T09:00:25Z</time></trkpt><trkpt lat="46.03489823333164" lon="11.997613254159972"><ele>240.60000000000002</ele><time>2026-04-26T09:00:26Z</time></trkpt><trkpt lat="46.03501995002666" lon="11.997612069219006"><ele>240.20000000000002</ele><time>2026-04-26T09:00:27Z</time></trkpt><trkpt lat="46.03512948069136" lon="11.99761726211428"><ele>239.79999999999998</ele><time>2026-04-26T09:00:28Z</time></trkpt><trkpt lat="46.035232163371276" lon="11.997630299119058"><ele>239.39999999999998</ele><time>2026-04-26T09:00:29Z</time></trkpt><trkpt lat="46.0353190313205" lon="11.997649555089101"><ele>239.0</ele><time>2026-04-26T09:00:30Z</time></trkpt><trkpt lat="46.03539410796212" lon="11.997666972621664"><ele>239.00000000000003</ele><time>2026-04-26T09:00:31Z</time></trkpt><trkpt lat="46.03545928268462" lon="11.997638378123204"><ele>239.0</ele><time>2026-04-26T09:00:32Z</time></trkpt><trkpt lat="46.035515206721286" lon="11.997539902688398"><ele>239.0</ele><time>2026-04-26T09:00:33Z</time></trkpt><trkpt lat="46.03556853428402" lon="11.997428095247743"><ele>239.0</ele><time>2026-04-26T09:00:34Z</time></trkpt><trkpt lat="46.03562793924422" lon="11.997344504003276"><ele>239.00000000000003</ele><time>2026-04-26T09:00:35Z</time></trkpt><trkpt lat="46.03570372363315" lon="11.997275777052483"><ele>239.0</ele><time>2026-04-26T09:00:36Z</time></trkpt><trkpt lat="46.03579697996809" lon="11.997269890387187"><ele>239.33333333333334</ele><time>2026-04-26T09:00:37Z</time></trkpt><trkpt lat="46.035882990227584" lon="11.997223251245137"><ele>239.66666666666669</ele><time>2026-04-26T09:00:38Z</time></trkpt><trkpt lat="46.03596640021794" lon="11.99717083724563"><ele>240.0</ele><time>2026-04-26T09:00:39Z</time></trkpt><trkpt lat="46.03603944804838" lon="11.997121339467682"><ele>240.33333333333331</ele><time>2026-04-26T09:00:40Z</time></trkpt><trkpt lat="46.03611267073669" lon="11.997065820167975"><ele>240.66666666666666</ele><time>2026-04-26T09:00:41Z</time></trkpt><trkpt lat="46.03619521780172" lon="11.997000695667941"><ele>241.0</ele><time>2026-04-26T09:00:42Z</time></trkpt><trkpt lat="46.03628003952451" lon="11.996934081898535"><ele>241.0</ele><time>2026-04-26T09:00:43Z</time></trkpt><trkpt lat="46.03636761402823" lon="11.996860904188404"><ele>241.0</ele><time>2026-04-26T09:00:44Z</time></trkpt><trkpt lat="46.03646730491295" lon="11.996779600283567"><ele>241.0</ele><time>2026-04-26T09:00:45Z</time></trkpt><trkpt lat="46.03657213070573" lon="11.996683828560672"><ele>241.0</ele><time>2026-04-26T09:00:46Z</time></trkpt><trkpt lat="46.03668561652018" lon="11.996564393770308"><ele>240.66666666666666</ele><time>2026-04-26T09:00:47Z</time></trkpt><trkpt lat="46.03680120266915" lon="11.996434471126229"><ele>240.33333333333331</ele><time>2026-04-26T09:00:48Z</time></trkpt><trkpt lat="46.03693102749386" lon="11.99627215690252"><ele>240.0</ele><time>2026-04-26T09:00:49Z</time></trkpt><trkpt lat="46.037043723343125" lon="11.996120730806103"><ele>240.0</ele><time>2026-04-26T09:00:50Z</time></trkpt><trkpt lat="46.037133860086136" lon="11.99598085192668"><ele>240.0</ele><time>2026-04-26T09:00:51Z</time></trkpt><trkpt lat="46.03721531700993" lon="11.995843148077078"><ele>240.0</ele><time>2026-04-26T09:00:52Z</time></trkpt><trkpt lat="46.03729094730299" lon="11.995700796163378"><ele>240.0</ele><time>2026-04-26T09:00:53Z</time></trkpt><trkpt lat="46.037375128754476" lon="11.995549000463816"><ele>240.0</ele><time>2026-04-26T09:00:54Z</time></trkpt><trkpt lat="46.03745548924481" lon="11.995380885263158"><ele>240.0</ele><time>2026-04-26T09:00:55Z</time></trkpt><trkpt lat="46.0375234358446" lon="11.995224321012367"><ele>240.0</ele><time>2026-04-26T09:00:56Z</time></trkpt><trkpt lat="46.037579554710184" lon="11.995081485395119"><ele>240.0</ele><time>2026-04-26T09:00:57Z</time></trkpt><trkpt lat="46.037631952011964" lon="11.994947788411107"><ele>240.33333333333334</ele><time>2026-04-26T09:00:58Z</time></trkpt><trkpt lat="46.03767561001424" lon="11.99481836270616"><ele>240.66666666666669</ele><time>2026-04-26T09:00:59Z</time></trkpt><trkpt lat="46.03771983860493" lon="11.994687342910712"><ele>241.0</ele><time>2026-04-26T09:01:00Z</time></trkpt><trkpt lat="46.03775783829573" lon="11.994573897905122"><ele>241.33333333333334</ele><time>2026-04-26T09:01:01Z</time></trkpt><trkpt lat="46.03778256782487" lon="11.994483851882565"><ele>241.66666666666669</ele><time>2026-04-26T09:01:02Z</time></trkpt><trkpt lat="46.03781301933767" lon="11.994372718580076"><ele>242.0</ele><time>2026-04-26T09:01:04Z</time></trkpt><trkpt lat="46.03786055651195" lon="11.994250952422117"><ele>241.66666666666669</ele><time>2026-04-26T09:01:07Z</time></trkpt><trkpt lat="46.03789367221574" lon="11.994157546858874"><ele>241.33333333333334</ele><time>2026-04-26T09:01:08Z</time></trkpt><trkpt lat="46.03789146954858" lon="11.99403530541527"><ele>241.0</ele><time>2026-04-26T09:01:09Z</time></trkpt><trkpt lat="46.03791384836016" lon="11.993907600265281"><ele>240.66666666666669</ele><time>2026-04-26T09:01:10Z</time></trkpt><trkpt lat="46.03793523536815" lon="11.993763755343446"><ele>240.33333333333334</ele><time>2026-04-26T09:01:11Z</time></trkpt><trkpt lat="46.03795035539427" lon="11.99363157636353"><ele>240.0</ele><time>2026-04-26T09:01:12Z</time></trkpt><trkpt lat="46.03795927654198" lon="11.99351554071351"><ele>240.0</ele><time>2026-04-26T09:01:13Z</time></trkpt><trkpt lat="46.03797365431143" lon="11.993415229364713"><ele>240.0</ele><time>2026-04-26T09:01:14Z</time></trkpt><trkpt lat="46.03798413925842" lon="11.993259082520929"><ele>240.0</ele><time>2026-04-26T09:01:16Z</time></trkpt><trkpt lat="46.0379954633794" lon="11.99314359553538"><ele>240.0</ele><time>2026-04-26T09:01:18Z</time></trkpt><trkpt lat="46.03800911149133" lon="11.993038095410297"><ele>240.0</ele><time>2026-04-26T09:01:21Z</time></trkpt><trkpt lat="46.038036351635256" lon="11.99289569123254"><ele>240.0</ele><time>2026-04-26T09:01:24Z</time></trkpt><trkpt lat="46.038068877791495" lon="11.9927652357877"><ele>240.0</ele><time>2026-04-26T09:01:25Z</time></trkpt><trkpt lat="46.0380949519182" lon="11.992605412486885"><ele>240.0</ele><time>2026-04-26T09:01:26Z</time></trkpt><trkpt lat="46.03811425871394" lon="11.992391330621642"><ele>240.0</ele><time>2026-04-26T09:01:27Z</time></trkpt><trkpt lat="46.03812588357814" lon="11.992181983429468"><ele>240.0</ele><time>2026-04-26T09:01:28Z</time></trkpt><trkpt lat="46.03813703185098" lon="11.99199420483846"><ele>240.0</ele><time>2026-04-26T09:01:29Z</time></trkpt><trkpt lat="46.03815302277806" lon="11.991792127887448"><ele>240.0</ele><time>2026-04-26T09:01:30Z</time></trkpt><trkpt lat="46.038170515835866" lon="11.991611138266538"><ele>240.0</ele><time>2026-04-26T09:01:31Z</time></trkpt><trkpt lat="46.0381976635833" lon="11.991427294478562"><ele>240.0</ele><time>2026-04-26T09:01:32Z</time></trkpt><trkpt lat="46.03821841459668" lon="11.991232889200237"><ele>240.0</ele><time>2026-04-26T09:01:33Z</time></trkpt><trkpt lat="46.0382373506944" lon="11.991050773413365"><ele>240.0</ele><time>2026-04-26T09:01:34Z</time></trkpt><trkpt lat="46.03825975001476" lon="11.990863035881361"><ele>240.0</ele><time>2026-04-26T09:01:35Z</time></trkpt><trkpt lat="46.03828165792306" lon="11.990674122153663"><ele>240.0</ele><time>2026-04-26T09:01:36Z</time></trkpt><trkpt lat="46.03829968689862" lon="11.990478920610617"><ele>239.75</ele><time>2026-04-26T09:01:37Z</time></trkpt><trkpt lat="46.038310687770064" lon="11.990286057906975"><ele>239.5</ele><time>2026-04-26T09:01:38Z</time></trkpt><trkpt lat="46.03830849509724" lon="11.990087289578458"><ele>239.25</ele><time>2026-04-26T09:01:39Z</time></trkpt><trkpt lat="46.03829533403309" lon="11.989887590449465"><ele>239.0</ele><time>2026-04-26T09:01:39.999Z</time></trkpt><trkpt lat="46.038275898929925" lon="11.989682813648782"><ele>239.0</ele><time>2026-04-26T09:01:40.999Z</time></trkpt><trkpt lat="46.03825121173798" lon="11.989463731823852"><ele>239.0</ele><time>2026-04-26T09:01:41.999Z</time></trkpt><trkpt lat="46.03821331608664" lon="11.989207676124035"><ele>239.0</ele><time>2026-04-26T09:01:42.999Z</time></trkpt><trkpt lat="46.038175137953814" lon="11.988953377163806"><ele>238.0</ele><time>2026-04-26T09:01:43.999Z</time></trkpt><trkpt lat="46.03814082600591" lon="11.988732885361525"><ele>237.0</ele><time>2026-04-26T09:01:44.999Z</time></trkpt><trkpt lat="46.03810646826021" lon="11.98851045895445"><ele>236.0</ele><time>2026-04-26T09:01:45.999Z</time></trkpt><trkpt lat="46.03807270240129" lon="11.988287669460068"><ele>235.33333333333334</ele><time>2026-04-26T09:01:46.999Z</time></trkpt><trkpt lat="46.03804322321636" lon="11.988071078778587"><ele>234.66666666666669</ele><time>2026-04-26T09:01:47.999Z</time></trkpt><trkpt lat="46.0380221743616" lon="11.987844586200982"><ele>234.0</ele><time>2026-04-26T09:01:48.999Z</time></trkpt><trkpt lat="46.03802243149141" lon="11.98759812887308"><ele>233.5</ele><time>2026-04-26T09:01:49.999Z</time></trkpt><trkpt lat="46.038031571766815" lon="11.98736254786099"><ele>233.0</ele><time>2026-04-26T09:01:50.999Z</time></trkpt><trkpt lat="46.038038204869316" lon="11.987152542056329"><ele>232.5</ele><time>2026-04-26T09:01:51.999Z</time></trkpt><trkpt lat="46.03804508295603" lon="11.986954050857559"><ele>232.0</ele><time>2026-04-26T09:01:52.999Z</time></trkpt><trkpt lat="46.038057725929356" lon="11.986783219841351"><ele>232.25</ele><time>2026-04-26T09:01:53.999Z</time></trkpt><trkpt lat="46.03805056228267" lon="11.986588130997"><ele>232.5</ele><time>2026-04-26T09:01:54.999Z</time></trkpt><trkpt lat="46.03805548151603" lon="11.986391841498687"><ele>232.75</ele><time>2026-04-26T09:01:55.999Z</time></trkpt><trkpt lat="46.03806080635358" lon="11.986199312889147"><ele>233.0</ele><time>2026-04-26T09:01:56.999Z</time></trkpt><trkpt lat="46.03806647558698" lon="11.9860228308986"><ele>233.0</ele><time>2026-04-26T09:01:57.999Z</time></trkpt><trkpt lat="46.03807599351243" lon="11.985859906045704"><ele>233.0</ele><time>2026-04-26T09:01:58.999Z</time></trkpt><trkpt lat="46.038107635626424" lon="11.985676424861909"><ele>233.0</ele><time>2026-04-26T09:01:59.999Z</time></trkpt><trkpt lat="46.03818405993374" lon="11.985510363535768"><ele>233.0</ele><time>2026-04-26T09:02:00.999Z</time></trkpt><trkpt lat="46.038243280836475" lon="11.985360368641727"><ele>233.4</ele><time>2026-04-26T09:02:01.999Z</time></trkpt><trkpt lat="46.03829916036771" lon="11.985218836927785"><ele>233.8</ele><time>2026-04-26T09:02:02.999Z</time></trkpt><trkpt lat="46.038356529488055" lon="11.985072687138175"><ele>234.2</ele><time>2026-04-26T09:02:03.999Z</time></trkpt><trkpt lat="46.03841286428516" lon="11.984929780024464"><ele>234.6</ele><time>2026-04-26T09:02:04.999Z</time></trkpt><trkpt lat="46.038446515759205" lon="11.984797628472672"><ele>235.0</ele><time>2026-04-26T09:02:05.999Z</time></trkpt><trkpt lat="46.03849645604417" lon="11.98468171534929"><ele>235.83333333333331</ele><time>2026-04-26T09:02:06.999Z</time></trkpt><trkpt lat="46.0385406366965" lon="11.98457101868525"><ele>236.66666666666666</ele><time>2026-04-26T09:02:07.999Z</time></trkpt><trkpt lat="46.038592219388896" lon="11.98448382655997"><ele>237.5</ele><time>2026-04-26T09:02:08.999Z</time></trkpt><trkpt lat="46.03862893613677" lon="11.984388050879165"><ele>238.33333333333331</ele><time>2026-04-26T09:02:09.999Z</time></trkpt><trkpt lat="46.038667394792085" lon="11.984274733327451"><ele>239.16666666666666</ele><time>2026-04-26T09:02:10.999Z</time></trkpt><trkpt lat="46.038695121196064" lon="11.984145396086603"><ele>240.0</ele><time>2026-04-26T09:02:11.999Z</time></trkpt><trkpt lat="46.03871947738523" lon="11.984014346059528"><ele>241.2</ele><time>2026-04-26T09:02:12.999Z</time></trkpt><trkpt lat="46.03875133600889" lon="11.983912669507967"><ele>242.4</ele><time>2026-04-26T09:02:13.999Z</time></trkpt><trkpt lat="46.03876152724751" lon="11.98380325698574"><ele>243.60000000000002</ele><time>2026-04-26T09:02:14.999Z</time></trkpt><trkpt lat="46.0387674740172" lon="11.983685103110718"><ele>244.8</ele><time>2026-04-26T09:02:15.999Z</time></trkpt><trkpt lat="46.03875759776564" lon="11.983578999564068"><ele>246.0</ele><time>2026-04-26T09:02:16.999Z</time></trkpt><trkpt lat="46.03878810529283" lon="11.983383732923228"><ele>246.0</ele><time>2026-04-26T09:02:18.999Z</time></trkpt><trkpt lat="46.038829734234525" lon="11.983264499946728"><ele>246.0</ele><time>2026-04-26T09:02:19.999Z</time></trkpt><trkpt lat="46.03888683385475" lon="11.983157763626156"><ele>246.0</ele><time>2026-04-26T09:02:20.999Z</time></trkpt><trkpt lat="46.03892276454591" lon="11.983068477638694"><ele>246.0</ele><time>2026-04-26T09:02:21.999Z</time></trkpt><trkpt lat="46.03893289909847" lon="11.982976934301533"><ele>246.0</ele><time>2026-04-26T09:02:22.999Z</time></trkpt><trkpt lat="46.0389123455957" lon="11.982836271142798"><ele>246.0</ele><time>2026-04-26T09:02:23.999Z</time></trkpt><trkpt lat="46.038859509436946" lon="11.982732551683366"><ele>246.0</ele><time>2026-04-26T09:02:24.999Z</time></trkpt><trkpt lat="46.03878175761646" lon="11.982656748945576"><ele>246.00000000000003</ele><time>2026-04-26T09:02:25.999Z</time></trkpt><trkpt lat="46.03869819194042" lon="11.982590990147123"><ele>246.00000000000003</ele><time>2026-04-26T09:02:26.999Z</time></trkpt><trkpt lat="46.03862512418545" lon="11.982512455840888"><ele>246.0</ele><time>2026-04-26T09:02:27.999Z</time></trkpt><trkpt lat="46.038561748046305" lon="11.98241215838636"><ele>246.0</ele><time>2026-04-26T09:02:29Z</time></trkpt><trkpt lat="46.038504247287825" lon="11.982304060537983"><ele>246.0</ele><time>2026-04-26T09:02:30Z</time></trkpt><trkpt lat="46.038442702034814" lon="11.982193098726318"><ele>246.00000000000003</ele><time>2026-04-26T09:02:31Z</time></trkpt><trkpt lat="46.03838061703849" lon="11.982065929301095"><ele>246.00000000000003</ele><time>2026-04-26T09:02:32Z</time></trkpt><trkpt lat="46.0383103094109" lon="11.981938765435062"><ele>246.0</ele><time>2026-04-26T09:02:33Z</time></trkpt><trkpt lat="46.03824718397283" lon="11.981802809542305"><ele>246.0</ele><time>2026-04-26T09:02:34Z</time></trkpt><trkpt lat="46.03818536349298" lon="11.9816652956388"><ele>246.20000000000002</ele><time>2026-04-26T09:02:35Z</time></trkpt><trkpt lat="46.038123570603425" lon="11.9815227027524"><ele>246.40000000000003</ele><time>2026-04-26T09:02:36Z</time></trkpt><trkpt lat="46.03807019879417" lon="11.981394075956416"><ele>246.6</ele><time>2026-04-26T09:02:37Z</time></trkpt><trkpt lat="46.03801621984921" lon="11.981267417817726"><ele>246.8</ele><time>2026-04-26T09:02:38Z</time></trkpt><trkpt lat="46.03796111919882" lon="11.981132043309366"><ele>247.0</ele><time>2026-04-26T09:02:39Z</time></trkpt><trkpt lat="46.03790391608597" lon="11.980991205438398"><ele>247.0</ele><time>2026-04-26T09:02:40Z</time></trkpt><trkpt lat="46.037849095577634" lon="11.980845042530241"><ele>247.0</ele><time>2026-04-26T09:02:41Z</time></trkpt><trkpt lat="46.037786290739234" lon="11.980690935816105"><ele>247.0</ele><time>2026-04-26T09:02:42Z</time></trkpt><trkpt lat="46.03771646935255" lon="11.98052683037299"><ele>247.0</ele><time>2026-04-26T09:02:43Z</time></trkpt><trkpt lat="46.037646491965006" lon="11.980358588448283"><ele>247.0</ele><time>2026-04-26T09:02:44Z</time></trkpt><trkpt lat="46.037574548068754" lon="11.980183092061747"><ele>247.0</ele><time>2026-04-26T09:02:45Z</time></trkpt><trkpt lat="46.03750531792685" lon="11.980003724452782"><ele>247.0</ele><time>2026-04-26T09:02:46Z</time></trkpt><trkpt lat="46.03743454707474" lon="11.979802013951653"><ele>247.0</ele><time>2026-04-26T09:02:47Z</time></trkpt><trkpt lat="46.03736106320346" lon="11.979627424665079"><ele>249.66666666666666</ele><time>2026-04-26T09:02:48Z</time></trkpt><trkpt lat="46.037284217591065" lon="11.979442644429811"><ele>252.33333333333331</ele><time>2026-04-26T09:02:49Z</time></trkpt><trkpt lat="46.03720506137345" lon="11.979248063264041"><ele>255.0</ele><time>2026-04-26T09:02:50Z</time></trkpt><trkpt lat="46.03711997049771" lon="11.97904033609057"><ele>257.0</ele><time>2026-04-26T09:02:51Z</time></trkpt><trkpt lat="46.03703038385044" lon="11.978822935668068"><ele>259.0</ele><time>2026-04-26T09:02:52Z</time></trkpt><trkpt lat="46.0369389983898" lon="11.978598908002784"><ele>261.0</ele><time>2026-04-26T09:02:53Z</time></trkpt><trkpt lat="46.036836526837" lon="11.978356522028532"><ele>262.0</ele><time>2026-04-26T09:02:54Z</time></trkpt><trkpt lat="46.03674396252114" lon="11.97812518210057"><ele>263.0</ele><time>2026-04-26T09:02:55Z</time></trkpt><trkpt lat="46.03665876449754" lon="11.977915144841608"><ele>264.0</ele><time>2026-04-26T09:02:56Z</time></trkpt><trkpt lat="46.03657385712326" lon="11.977707892419975"><ele>262.3333333333333</ele><time>2026-04-26T09:02:57Z</time></trkpt><trkpt lat="46.03648669011621" lon="11.977493314451069"><ele>260.66666666666663</ele><time>2026-04-26T09:02:58Z</time></trkpt><trkpt lat="46.03640705857317" lon="11.977286033574353"><ele>259.0</ele><time>2026-04-26T09:02:59Z</time></trkpt><trkpt lat="46.0363282665131" lon="11.977091741536862"><ele>259.0</ele><time>2026-04-26T09:03:00Z</time></trkpt><trkpt lat="46.03624834602996" lon="11.9768883329018"><ele>259.0</ele><time>2026-04-26T09:03:01Z</time></trkpt><trkpt lat="46.036164610964775" lon="11.976684400535694"><ele>259.0</ele><time>2026-04-26T09:03:02Z</time></trkpt><trkpt lat="46.036082601447774" lon="11.976489495656766"><ele>258.3333333333333</ele><time>2026-04-26T09:03:03Z</time></trkpt><trkpt lat="46.035998780456175" lon="11.976288082242762"><ele>257.6666666666667</ele><time>2026-04-26T09:03:04Z</time></trkpt><trkpt lat="46.0359115568794" lon="11.97607893065806"><ele>257.0</ele><time>2026-04-26T09:03:05Z</time></trkpt><trkpt lat="46.0358247121221" lon="11.975868519568651"><ele>258.6666666666667</ele><time>2026-04-26T09:03:06Z</time></trkpt><trkpt lat="46.03574667586417" lon="11.975674186217251"><ele>260.3333333333333</ele><time>2026-04-26T09:03:07Z</time></trkpt><trkpt lat="46.03566484743794" lon="11.97547747676713"><ele>262.0</ele><time>2026-04-26T09:03:08Z</time></trkpt><trkpt lat="46.035583377373115" lon="11.975275144822588"><ele>262.0</ele><time>2026-04-26T09:03:09Z</time></trkpt><trkpt lat="46.035497737173564" lon="11.975069815499648"><ele>262.0</ele><time>2026-04-26T09:03:10Z</time></trkpt><trkpt lat="46.03541015851514" lon="11.974853387995097"><ele>262.0</ele><time>2026-04-26T09:03:11Z</time></trkpt><trkpt lat="46.03531907124831" lon="11.974631375053418"><ele>262.0</ele><time>2026-04-26T09:03:12Z</time></trkpt><trkpt lat="46.03523177549377" lon="11.97442037942163"><ele>262.0</ele><time>2026-04-26T09:03:13Z</time></trkpt><trkpt lat="46.03514497845437" lon="11.974204903039704"><ele>262.0</ele><time>2026-04-26T09:03:14Z</time></trkpt><trkpt lat="46.035063738492525" lon="11.974001726357134"><ele>263.0</ele><time>2026-04-26T09:03:15Z</time></trkpt><trkpt lat="46.03497830140323" lon="11.973794462200882"><ele>264.0</ele><time>2026-04-26T09:03:16Z</time></trkpt><trkpt lat="46.03489604960543" lon="11.97357814040939"><ele>265.0</ele><time>2026-04-26T09:03:17Z</time></trkpt><trkpt lat="46.0348202722068" lon="11.973383746593882"><ele>264.66666666666663</ele><time>2026-04-26T09:03:18Z</time></trkpt><trkpt lat="46.034741324270534" lon="11.973200412713068"><ele>264.3333333333333</ele><time>2026-04-26T09:03:19Z</time></trkpt><trkpt lat="46.03466059562908" lon="11.97299821892572"><ele>264.0</ele><time>2026-04-26T09:03:20Z</time></trkpt><trkpt lat="46.03458285769754" lon="11.972795319863328"><ele>264.0</ele><time>2026-04-26T09:03:21Z</time></trkpt><trkpt lat="46.034508350374196" lon="11.972608863698685"><ele>264.0</ele><time>2026-04-26T09:03:22Z</time></trkpt><trkpt lat="46.034436716138536" lon="11.972415166875374"><ele>264.0</ele><time>2026-04-26T09:03:23Z</time></trkpt><trkpt lat="46.034361554032714" lon="11.97221354684189"><ele>264.3333333333333</ele><time>2026-04-26T09:03:24Z</time></trkpt><trkpt lat="46.03428286854361" lon="11.972009325693513"><ele>264.66666666666663</ele><time>2026-04-26T09:03:25Z</time></trkpt><trkpt lat="46.03419850707777" lon="11.971803114337895"><ele>265.0</ele><time>2026-04-26T09:03:26Z</time></trkpt><trkpt lat="46.03411995652522" lon="11.97158226430205"><ele>264.0</ele><time>2026-04-26T09:03:27Z</time></trkpt><trkpt lat="46.03403410113558" lon="11.971361338225428"><ele>263.0</ele><time>2026-04-26T09:03:28Z</time></trkpt><trkpt lat="46.03395196186199" lon="11.97114890471439"><ele>262.0</ele><time>2026-04-26T09:03:29Z</time></trkpt><trkpt lat="46.03387342417214" lon="11.970929223617123"><ele>262.3333333333333</ele><time>2026-04-26T09:03:30Z</time></trkpt><trkpt lat="46.0337952086096" lon="11.970723589355787"><ele>262.6666666666667</ele><time>2026-04-26T09:03:31Z</time></trkpt><trkpt lat="46.0337272882215" lon="11.97053022752151"><ele>263.0</ele><time>2026-04-26T09:03:32Z</time></trkpt><trkpt lat="46.03366638434294" lon="11.970341903110457"><ele>263.0</ele><time>2026-04-26T09:03:33Z</time></trkpt><trkpt lat="46.03360536010005" lon="11.97015365576463"><ele>263.0</ele><time>2026-04-26T09:03:34Z</time></trkpt><trkpt lat="46.03355533122802" lon="11.969946125107596"><ele>263.0</ele><time>2026-04-26T09:03:35Z</time></trkpt><trkpt lat="46.03351830247762" lon="11.969723315574651"><ele>263.6666666666667</ele><time>2026-04-26T09:03:36Z</time></trkpt><trkpt lat="46.033495241974855" lon="11.969482457054022"><ele>264.3333333333333</ele><time>2026-04-26T09:03:37Z</time></trkpt><trkpt lat="46.03348880531514" lon="11.969227381020195"><ele>265.0</ele><time>2026-04-26T09:03:38Z</time></trkpt><trkpt lat="46.03349515221624" lon="11.968936110422774"><ele>265.0</ele><time>2026-04-26T09:03:39Z</time></trkpt><trkpt lat="46.03349334341177" lon="11.968670612165846"><ele>265.0</ele><time>2026-04-26T09:03:40Z</time></trkpt><trkpt lat="46.03349789995468" lon="11.96840557113246"><ele>265.0</ele><time>2026-04-26T09:03:41Z</time></trkpt><trkpt lat="46.033504699834616" lon="11.96812988886251"><ele>265.3333333333333</ele><time>2026-04-26T09:03:42Z</time></trkpt><trkpt lat="46.03351179228111" lon="11.967886477160311"><ele>265.6666666666667</ele><time>2026-04-26T09:03:43Z</time></trkpt><trkpt lat="46.03351666374084" lon="11.967633996783952"><ele>266.0</ele><time>2026-04-26T09:03:44Z</time></trkpt><trkpt lat="46.03351940765144" lon="11.967380050927972"><ele>267.6666666666667</ele><time>2026-04-26T09:03:45Z</time></trkpt><trkpt lat="46.03351259644983" lon="11.967126418610738"><ele>269.3333333333333</ele><time>2026-04-26T09:03:45.999Z</time></trkpt><trkpt lat="46.03350915984039" lon="11.966898369109142"><ele>271.0</ele><time>2026-04-26T09:03:46.999Z</time></trkpt><trkpt lat="46.033489476029956" lon="11.966669839533989"><ele>272.3333333333333</ele><time>2026-04-26T09:03:47.999Z</time></trkpt><trkpt lat="46.033450171440485" lon="11.966442243486748"><ele>273.6666666666667</ele><time>2026-04-26T09:03:48.999Z</time></trkpt><trkpt lat="46.033395832279055" lon="11.966216040663081"><ele>275.0</ele><time>2026-04-26T09:03:49.999Z</time></trkpt><trkpt lat="46.03332976013893" lon="11.965992871474691"><ele>274.33333333333337</ele><time>2026-04-26T09:03:50.999Z</time></trkpt><trkpt lat="46.033265430381164" lon="11.965754131660365"><ele>273.6666666666667</ele><time>2026-04-26T09:03:51.999Z</time></trkpt><trkpt lat="46.03319117264831" lon="11.965501539435571"><ele>273.0</ele><time>2026-04-26T09:03:52.999Z</time></trkpt><trkpt lat="46.0331234481547" lon="11.96527403628285"><ele>273.0</ele><time>2026-04-26T09:03:53.999Z</time></trkpt><trkpt lat="46.03304972634565" lon="11.965055682415494"><ele>273.0</ele><time>2026-04-26T09:03:54.999Z</time></trkpt><trkpt lat="46.03297779716079" lon="11.964835491273387"><ele>273.0</ele><time>2026-04-26T09:03:55.999Z</time></trkpt><trkpt lat="46.032899410516" lon="11.964618027022702"><ele>273.6666666666667</ele><time>2026-04-26T09:03:56.999Z</time></trkpt><trkpt lat="46.032810324878724" lon="11.964408854427399"><ele>274.33333333333337</ele><time>2026-04-26T09:03:57.999Z</time></trkpt><trkpt lat="46.032706613557664" lon="11.964207201150604"><ele>275.0</ele><time>2026-04-26T09:03:58.999Z</time></trkpt><trkpt lat="46.03259312481121" lon="11.964000374929064"><ele>278.0</ele><time>2026-04-26T09:03:59.999Z</time></trkpt><trkpt lat="46.032462271174026" lon="11.963787091228262"><ele>281.0</ele><time>2026-04-26T09:04:00.999Z</time></trkpt><trkpt lat="46.03234601688868" lon="11.963601599396318"><ele>284.0</ele><time>2026-04-26T09:04:01.999Z</time></trkpt><trkpt lat="46.032233179720244" lon="11.963416001014066"><ele>285.0</ele><time>2026-04-26T09:04:02.999Z</time></trkpt><trkpt lat="46.03213237026089" lon="11.963243125112614"><ele>286.0</ele><time>2026-04-26T09:04:03.999Z</time></trkpt><trkpt lat="46.03203269927722" lon="11.963080915022669"><ele>287.0</ele><time>2026-04-26T09:04:04.999Z</time></trkpt><trkpt lat="46.03193883193062" lon="11.962918918443963"><ele>287.0</ele><time>2026-04-26T09:04:05.999Z</time></trkpt><trkpt lat="46.03184680097681" lon="11.962751134889222"><ele>287.0</ele><time>2026-04-26T09:04:06.999Z</time></trkpt><trkpt lat="46.03175905598972" lon="11.962578254037304"><ele>287.0</ele><time>2026-04-26T09:04:07.999Z</time></trkpt><trkpt lat="46.03168822709842" lon="11.962389829438902"><ele>287.0</ele><time>2026-04-26T09:04:08.999Z</time></trkpt><trkpt lat="46.03163171799512" lon="11.962186488072897"><ele>286.6666666666667</ele><time>2026-04-26T09:04:09.999Z</time></trkpt><trkpt lat="46.0315855881365" lon="11.961966012580335"><ele>286.3333333333333</ele><time>2026-04-26T09:04:10.999Z</time></trkpt><trkpt lat="46.03155530673552" lon="11.961747237691808"><ele>286.0</ele><time>2026-04-26T09:04:11.999Z</time></trkpt><trkpt lat="46.03153503890069" lon="11.961543843752098"><ele>285.75</ele><time>2026-04-26T09:04:12.999Z</time></trkpt><trkpt lat="46.03151891336328" lon="11.961343700567152"><ele>285.5</ele><time>2026-04-26T09:04:13.999Z</time></trkpt><trkpt lat="46.03150553280052" lon="11.96113960709377"><ele>285.25</ele><time>2026-04-26T09:04:14.999Z</time></trkpt><trkpt lat="46.031486875497706" lon="11.96093241314185"><ele>285.0</ele><time>2026-04-26T09:04:15.999Z</time></trkpt><trkpt lat="46.03146982394931" lon="11.960747127830553"><ele>285.4</ele><time>2026-04-26T09:04:16.999Z</time></trkpt><trkpt lat="46.03144930799119" lon="11.960571457972838"><ele>285.8</ele><time>2026-04-26T09:04:17.999Z</time></trkpt><trkpt lat="46.031436967919944" lon="11.960404640915382"><ele>286.2</ele><time>2026-04-26T09:04:18.999Z</time></trkpt><trkpt lat="46.03142614835286" lon="11.960247306470599"><ele>286.6</ele><time>2026-04-26T09:04:19.999Z</time></trkpt><trkpt lat="46.03142607433961" lon="11.960110411479413"><ele>287.0</ele><time>2026-04-26T09:04:20.999Z</time></trkpt><trkpt lat="46.03142130632578" lon="11.959949190272543"><ele>287.25</ele><time>2026-04-26T09:04:21.999Z</time></trkpt><trkpt lat="46.031407966775156" lon="11.95979910703617"><ele>287.5</ele><time>2026-04-26T09:04:22.999Z</time></trkpt><trkpt lat="46.031379279747114" lon="11.95964486717938"><ele>287.75</ele><time>2026-04-26T09:04:23.999Z</time></trkpt><trkpt lat="46.03135249440463" lon="11.95947727639751"><ele>288.0</ele><time>2026-04-26T09:04:24.999Z</time></trkpt><trkpt lat="46.03132865282819" lon="11.959309025120602"><ele>288.5</ele><time>2026-04-26T09:04:25.999Z</time></trkpt><trkpt lat="46.031311870793495" lon="11.959132862724623"><ele>289.0</ele><time>2026-04-26T09:04:26.999Z</time></trkpt><trkpt lat="46.031294019812066" lon="11.95895006371976"><ele>289.5</ele><time>2026-04-26T09:04:27.999Z</time></trkpt><trkpt lat="46.031281134513826" lon="11.958758459731026"><ele>290.0</ele><time>2026-04-26T09:04:28.999Z</time></trkpt><trkpt lat="46.03126213417855" lon="11.95856782490481"><ele>290.0</ele><time>2026-04-26T09:04:29.999Z</time></trkpt><trkpt lat="46.03124529930923" lon="11.958368835568189"><ele>290.0</ele><time>2026-04-26T09:04:30.999Z</time></trkpt><trkpt lat="46.03122620390419" lon="11.95816261534511"><ele>290.0</ele><time>2026-04-26T09:04:31.999Z</time></trkpt><trkpt lat="46.03120639365056" lon="11.957953888348511"><ele>290.0</ele><time>2026-04-26T09:04:32.999Z</time></trkpt><trkpt lat="46.03119479512277" lon="11.957772349740006"><ele>290.33333333333337</ele><time>2026-04-26T09:04:33.999Z</time></trkpt><trkpt lat="46.031176849751404" lon="11.957541218818138"><ele>290.6666666666667</ele><time>2026-04-26T09:04:35Z</time></trkpt><trkpt lat="46.03115140495737" lon="11.957316613309617"><ele>291.0</ele><time>2026-04-26T09:04:36Z</time></trkpt><trkpt lat="46.03113084806306" lon="11.95712316941322"><ele>291.5</ele><time>2026-04-26T09:04:37Z</time></trkpt><trkpt lat="46.03111430833272" lon="11.956928771281827"><ele>292.0</ele><time>2026-04-26T09:04:38Z</time></trkpt><trkpt lat="46.031091320752246" lon="11.956727595237037"><ele>292.5</ele><time>2026-04-26T09:04:39Z</time></trkpt><trkpt lat="46.03107638003858" lon="11.95652342625508"><ele>293.0</ele><time>2026-04-26T09:04:40Z</time></trkpt><trkpt lat="46.031055080602144" lon="11.956316744062958"><ele>293.75</ele><time>2026-04-26T09:04:41Z</time></trkpt><trkpt lat="46.03103411898047" lon="11.956113098089112"><ele>294.5</ele><time>2026-04-26T09:04:42Z</time></trkpt><trkpt lat="46.03101526665248" lon="11.955903516211132"><ele>295.25</ele><time>2026-04-26T09:04:43Z</time></trkpt><trkpt lat="46.03099388427546" lon="11.955692821798008"><ele>296.0</ele><time>2026-04-26T09:04:44Z</time></trkpt><trkpt lat="46.03097410195471" lon="11.955473111361925"><ele>296.25</ele><time>2026-04-26T09:04:45Z</time></trkpt><trkpt lat="46.03095289221243" lon="11.955260703883607"><ele>296.5</ele><time>2026-04-26T09:04:46Z</time></trkpt><trkpt lat="46.03093382167065" lon="11.955049219487819"><ele>296.75</ele><time>2026-04-26T09:04:47Z</time></trkpt><trkpt lat="46.03091628390361" lon="11.954833323119002"><ele>297.0</ele><time>2026-04-26T09:04:48Z</time></trkpt><trkpt lat="46.03089694861374" lon="11.95462246765715"><ele>297.3333333333333</ele><time>2026-04-26T09:04:49Z</time></trkpt><trkpt lat="46.03087852798224" lon="11.954406607259928"><ele>297.66666666666663</ele><time>2026-04-26T09:04:50Z</time></trkpt><trkpt lat="46.03085593636444" lon="11.954192579606763"><ele>298.0</ele><time>2026-04-26T09:04:51Z</time></trkpt><trkpt lat="46.03083475941317" lon="11.95397160230661"><ele>299.66666666666663</ele><time>2026-04-26T09:04:52Z</time></trkpt><trkpt lat="46.03081229685377" lon="11.9537507809123"><ele>301.3333333333333</ele><time>2026-04-26T09:04:53Z</time></trkpt><trkpt lat="46.030792143574764" lon="11.953529192967633"><ele>303.0</ele><time>2026-04-26T09:04:54Z</time></trkpt><trkpt lat="46.030770805707334" lon="11.953303732916089"><ele>303.0</ele><time>2026-04-26T09:04:55Z</time></trkpt><trkpt lat="46.030747085082474" lon="11.953082490596232"><ele>303.0</ele><time>2026-04-26T09:04:56Z</time></trkpt><trkpt lat="46.03072292871621" lon="11.95285290186338"><ele>303.0</ele><time>2026-04-26T09:04:57Z</time></trkpt><trkpt lat="46.03069576274193" lon="11.952625406673741"><ele>303.3333333333333</ele><time>2026-04-26T09:04:58Z</time></trkpt><trkpt lat="46.03066935849631" lon="11.952396967295954"><ele>303.66666666666663</ele><time>2026-04-26T09:04:59Z</time></trkpt><trkpt lat="46.030639957989756" lon="11.952166730896941"><ele>304.0</ele><time>2026-04-26T09:05:00Z</time></trkpt><trkpt lat="46.03060471883997" lon="11.951943232089457"><ele>304.0</ele><time>2026-04-26T09:05:01Z</time></trkpt><trkpt lat="46.030571001105" lon="11.951731400350111"><ele>304.0</ele><time>2026-04-26T09:05:02Z</time></trkpt><trkpt lat="46.03053670188887" lon="11.95152233806865"><ele>304.0</ele><time>2026-04-26T09:05:03Z</time></trkpt><trkpt lat="46.030498011603754" lon="11.951307778170003"><ele>305.0</ele><time>2026-04-26T09:05:04Z</time></trkpt><trkpt lat="46.03045139870106" lon="11.951091434417974"><ele>306.0</ele><time>2026-04-26T09:05:05Z</time></trkpt><trkpt lat="46.0304170698121" lon="11.95087311881447"><ele>307.0</ele><time>2026-04-26T09:05:06Z</time></trkpt><trkpt lat="46.03037868764205" lon="11.950649925520905"><ele>307.0</ele><time>2026-04-26T09:05:07Z</time></trkpt><trkpt lat="46.030331821441244" lon="11.950429330309777"><ele>307.0</ele><time>2026-04-26T09:05:08Z</time></trkpt><trkpt lat="46.03029851221272" lon="11.95020826020236"><ele>307.0</ele><time>2026-04-26T09:05:09Z</time></trkpt><trkpt lat="46.03025292925823" lon="11.94997282468562"><ele>307.66666666666663</ele><time>2026-04-26T09:05:10Z</time></trkpt><trkpt lat="46.03020468158509" lon="11.949736851176384"><ele>308.3333333333333</ele><time>2026-04-26T09:05:11Z</time></trkpt><trkpt lat="46.03016007368968" lon="11.94949290597802"><ele>309.0</ele><time>2026-04-26T09:05:12Z</time></trkpt><trkpt lat="46.03011455883311" lon="11.949253210346049"><ele>310.0</ele><time>2026-04-26T09:05:13Z</time></trkpt><trkpt lat="46.03006853241084" lon="11.949008060830158"><ele>311.0</ele><time>2026-04-26T09:05:14Z</time></trkpt><trkpt lat="46.03002431185961" lon="11.948756197227418"><ele>312.0</ele><time>2026-04-26T09:05:15Z</time></trkpt><trkpt lat="46.02998086443852" lon="11.94850727428342"><ele>311.3333333333333</ele><time>2026-04-26T09:05:16Z</time></trkpt><trkpt lat="46.02993191617355" lon="11.948269773898046"><ele>310.66666666666663</ele><time>2026-04-26T09:05:17Z</time></trkpt><trkpt lat="46.02990256667722" lon="11.948070102026199"><ele>310.0</ele><time>2026-04-26T09:05:18Z</time></trkpt><trkpt lat="46.029851473527344" lon="11.947817783072574"><ele>310.0</ele><time>2026-04-26T09:05:19Z</time></trkpt><trkpt lat="46.02981146996785" lon="11.94758772307315"><ele>310.0</ele><time>2026-04-26T09:05:20Z</time></trkpt><trkpt lat="46.02976856938837" lon="11.947360379445431"><ele>310.0</ele><time>2026-04-26T09:05:21Z</time></trkpt><trkpt lat="46.02972660716446" lon="11.947137119390254"><ele>311.0</ele><time>2026-04-26T09:05:22Z</time></trkpt><trkpt lat="46.02967606788988" lon="11.946912177968102"><ele>312.0</ele><time>2026-04-26T09:05:23Z</time></trkpt><trkpt lat="46.02963817497419" lon="11.946687423629095"><ele>313.0</ele><time>2026-04-26T09:05:24Z</time></trkpt><trkpt lat="46.029600075578394" lon="11.946467433965672"><ele>313.0</ele><time>2026-04-26T09:05:25Z</time></trkpt><trkpt lat="46.029561792076265" lon="11.946244329742225"><ele>313.0</ele><time>2026-04-26T09:05:26Z</time></trkpt><trkpt lat="46.029522072266495" lon="11.946022652365237"><ele>313.0</ele><time>2026-04-26T09:05:27Z</time></trkpt><trkpt lat="46.02948064638104" lon="11.94580207992055"><ele>313.0</ele><time>2026-04-26T09:05:28Z</time></trkpt><trkpt lat="46.02943946235001" lon="11.94558064027495"><ele>313.0</ele><time>2026-04-26T09:05:29Z</time></trkpt><trkpt lat="46.02939645237997" lon="11.945360292118025"><ele>313.0</ele><time>2026-04-26T09:05:30Z</time></trkpt><trkpt lat="46.02934873890004" lon="11.945139447249097"><ele>313.66666666666663</ele><time>2026-04-26T09:05:31Z</time></trkpt><trkpt lat="46.02930575190527" lon="11.944906811396772"><ele>314.3333333333333</ele><time>2026-04-26T09:05:32Z</time></trkpt><trkpt lat="46.02925818885373" lon="11.944685028589465"><ele>315.0</ele><time>2026-04-26T09:05:33Z</time></trkpt><trkpt lat="46.02920091638419" lon="11.944458002514114"><ele>315.0</ele><time>2026-04-26T09:05:34Z</time></trkpt><trkpt lat="46.029142809689866" lon="11.944232553148527"><ele>315.0</ele><time>2026-04-26T09:05:35Z</time></trkpt><trkpt lat="46.02908572715436" lon="11.944015573247118"><ele>315.0</ele><time>2026-04-26T09:05:36Z</time></trkpt><trkpt lat="46.02902226855089" lon="11.943812901198603"><ele>315.0</ele><time>2026-04-26T09:05:37Z</time></trkpt><trkpt lat="46.02896861227517" lon="11.94359435092303"><ele>315.0</ele><time>2026-04-26T09:05:38Z</time></trkpt><trkpt lat="46.028903982589384" lon="11.943374381181906"><ele>315.0</ele><time>2026-04-26T09:05:39Z</time></trkpt><trkpt lat="46.028840308980634" lon="11.943158746495822"><ele>315.0</ele><time>2026-04-26T09:05:40Z</time></trkpt><trkpt lat="46.02877250404046" lon="11.942934732491391"><ele>315.0</ele><time>2026-04-26T09:05:41Z</time></trkpt><trkpt lat="46.02870431843273" lon="11.942707243558523"><ele>315.0</ele><time>2026-04-26T09:05:42Z</time></trkpt><trkpt lat="46.028637075439285" lon="11.942471445975768"><ele>315.0</ele><time>2026-04-26T09:05:43Z</time></trkpt><trkpt lat="46.02857102446989" lon="11.942248030733486"><ele>315.0</ele><time>2026-04-26T09:05:44Z</time></trkpt><trkpt lat="46.02850462029692" lon="11.942017967469736"><ele>315.0</ele><time>2026-04-26T09:05:45Z</time></trkpt><trkpt lat="46.028434051813036" lon="11.941795465575613"><ele>314.0</ele><time>2026-04-26T09:05:46Z</time></trkpt><trkpt lat="46.028374956269076" lon="11.94156958715969"><ele>313.0</ele><time>2026-04-26T09:05:46.999Z</time></trkpt><trkpt lat="46.02830942133861" lon="11.941344586780744"><ele>312.0</ele><time>2026-04-26T09:05:47.999Z</time></trkpt><trkpt lat="46.02824674576796" lon="11.941131853871928"><ele>312.0</ele><time>2026-04-26T09:05:48.999Z</time></trkpt><trkpt lat="46.02818953535957" lon="11.940925274256525"><ele>312.0</ele><time>2026-04-26T09:05:49.999Z</time></trkpt><trkpt lat="46.02812952914492" lon="11.940711098496234"><ele>312.0</ele><time>2026-04-26T09:05:50.999Z</time></trkpt><trkpt lat="46.0280646339554" lon="11.940490424635477"><ele>311.3333333333333</ele><time>2026-04-26T09:05:51.999Z</time></trkpt><trkpt lat="46.027999086390935" lon="11.94027061369704"><ele>310.66666666666663</ele><time>2026-04-26T09:05:52.999Z</time></trkpt><trkpt lat="46.02794043853159" lon="11.940051252766445"><ele>310.0</ele><time>2026-04-26T09:05:53.999Z</time></trkpt><trkpt lat="46.02788162022393" lon="11.939854468921348"><ele>308.75</ele><time>2026-04-26T09:05:54.999Z</time></trkpt><trkpt lat="46.02783061279928" lon="11.939665399697242"><ele>307.5</ele><time>2026-04-26T09:05:55.999Z</time></trkpt><trkpt lat="46.027778190580406" lon="11.939492195543949"><ele>306.25</ele><time>2026-04-26T09:05:56.999Z</time></trkpt><trkpt lat="46.02773284758686" lon="11.939326165791565"><ele>305.0</ele><time>2026-04-26T09:05:57.999Z</time></trkpt><trkpt lat="46.02768761105446" lon="11.939170098437366"><ele>305.0</ele><time>2026-04-26T09:05:58.999Z</time></trkpt><trkpt lat="46.02764322170113" lon="11.939016740690919"><ele>305.0</ele><time>2026-04-26T09:05:59.999Z</time></trkpt><trkpt lat="46.027605522390836" lon="11.93886371762577"><ele>305.0</ele><time>2026-04-26T09:06:00.999Z</time></trkpt><trkpt lat="46.027570440709205" lon="11.938731045335956"><ele>305.0</ele><time>2026-04-26T09:06:01.999Z</time></trkpt><trkpt lat="46.02754104543033" lon="11.938592811317791"><ele>305.0</ele><time>2026-04-26T09:06:02.999Z</time></trkpt><trkpt lat="46.027511470340905" lon="11.938461539042665"><ele>304.8</ele><time>2026-04-26T09:06:03.999Z</time></trkpt><trkpt lat="46.02748591335309" lon="11.938321095456583"><ele>304.6</ele><time>2026-04-26T09:06:04.999Z</time></trkpt><trkpt lat="46.027460024960725" lon="11.938179153490045"><ele>304.4</ele><time>2026-04-26T09:06:05.999Z</time></trkpt><trkpt lat="46.02743007777973" lon="11.938029328717704"><ele>304.2</ele><time>2026-04-26T09:06:06.999Z</time></trkpt><trkpt lat="46.02739666487662" lon="11.937872815152232"><ele>304.0</ele><time>2026-04-26T09:06:07.999Z</time></trkpt><trkpt lat="46.02736116192238" lon="11.937702650624344"><ele>307.0</ele><time>2026-04-26T09:06:08.999Z</time></trkpt><trkpt lat="46.027328923277956" lon="11.937525215736663"><ele>310.0</ele><time>2026-04-26T09:06:09.999Z</time></trkpt><trkpt lat="46.0272929195795" lon="11.937343698266513"><ele>313.0</ele><time>2026-04-26T09:06:10.999Z</time></trkpt><trkpt lat="46.02726289384372" lon="11.937150449758349"><ele>316.0</ele><time>2026-04-26T09:06:11.999Z</time></trkpt><trkpt lat="46.02721914012169" lon="11.936959583280137"><ele>316.0</ele><time>2026-04-26T09:06:12.999Z</time></trkpt><trkpt lat="46.0271803036402" lon="11.936754280891538"><ele>316.0</ele><time>2026-04-26T09:06:13.999Z</time></trkpt><trkpt lat="46.02713936430631" lon="11.936555392641726"><ele>316.0</ele><time>2026-04-26T09:06:14.999Z</time></trkpt><trkpt lat="46.0271041702903" lon="11.936364675577456"><ele>316.0</ele><time>2026-04-26T09:06:15.999Z</time></trkpt><trkpt lat="46.027068025344605" lon="11.936166144249668"><ele>315.66666666666663</ele><time>2026-04-26T09:06:16.999Z</time></trkpt><trkpt lat="46.02702714028405" lon="11.935965730972663"><ele>315.3333333333333</ele><time>2026-04-26T09:06:17.999Z</time></trkpt><trkpt lat="46.026985128965435" lon="11.935755706729093"><ele>315.0</ele><time>2026-04-26T09:06:18.999Z</time></trkpt><trkpt lat="46.02694803163748" lon="11.935535523670605"><ele>312.6666666666667</ele><time>2026-04-26T09:06:19.999Z</time></trkpt><trkpt lat="46.02690562868027" lon="11.935310227786806"><ele>310.33333333333337</ele><time>2026-04-26T09:06:20.999Z</time></trkpt><trkpt lat="46.02686430584647" lon="11.935082478340584"><ele>308.0</ele><time>2026-04-26T09:06:21.999Z</time></trkpt><trkpt lat="46.02682976450661" lon="11.93487034992941"><ele>308.0</ele><time>2026-04-26T09:06:22.999Z</time></trkpt><trkpt lat="46.026804573712106" lon="11.934655051006667"><ele>308.0</ele><time>2026-04-26T09:06:23.999Z</time></trkpt><trkpt lat="46.02676227143388" lon="11.93445171515774"><ele>308.0</ele><time>2026-04-26T09:06:24.999Z</time></trkpt><trkpt lat="46.026740549326085" lon="11.934229249547084"><ele>307.33333333333337</ele><time>2026-04-26T09:06:25.999Z</time></trkpt><trkpt lat="46.02672973159464" lon="11.934005110209275"><ele>306.6666666666667</ele><time>2026-04-26T09:06:26.999Z</time></trkpt><trkpt lat="46.02671473541745" lon="11.933774871201155"><ele>306.0</ele><time>2026-04-26T09:06:27.999Z</time></trkpt><trkpt lat="46.026702392204434" lon="11.933544214551537"><ele>305.75</ele><time>2026-04-26T09:06:28.999Z</time></trkpt><trkpt lat="46.02669297857738" lon="11.93333180887421"><ele>305.5</ele><time>2026-04-26T09:06:29.999Z</time></trkpt><trkpt lat="46.02668234367017" lon="11.933121395847103"><ele>305.25</ele><time>2026-04-26T09:06:30.999Z</time></trkpt><trkpt lat="46.02667087427148" lon="11.932908874223937"><ele>305.0</ele><time>2026-04-26T09:06:31.999Z</time></trkpt><trkpt lat="46.02666053026598" lon="11.932703142455141"><ele>304.75</ele><time>2026-04-26T09:06:32.999Z</time></trkpt><trkpt lat="46.02665201064054" lon="11.932502509048147"><ele>304.5</ele><time>2026-04-26T09:06:33.999Z</time></trkpt><trkpt lat="46.026633755526376" lon="11.93230053371366"><ele>304.25</ele><time>2026-04-26T09:06:34.999Z</time></trkpt><trkpt lat="46.02662031198262" lon="11.932091005679547"><ele>304.0</ele><time>2026-04-26T09:06:35.999Z</time></trkpt><trkpt lat="46.02660926448949" lon="11.93187416065356"><ele>307.5</ele><time>2026-04-26T09:06:36.999Z</time></trkpt><trkpt lat="46.02659666027969" lon="11.93165536378778"><ele>311.0</ele><time>2026-04-26T09:06:37.999Z</time></trkpt><trkpt lat="46.026572991087505" lon="11.931457063993578"><ele>314.5</ele><time>2026-04-26T09:06:38.999Z</time></trkpt><trkpt lat="46.026551478662235" lon="11.931268219988116"><ele>318.0</ele><time>2026-04-26T09:06:39.999Z</time></trkpt><trkpt lat="46.02653129172559" lon="11.931086420081446"><ele>318.0</ele><time>2026-04-26T09:06:41Z</time></trkpt><trkpt lat="46.02651333205881" lon="11.930902088483842"><ele>318.0</ele><time>2026-04-26T09:06:42Z</time></trkpt><trkpt lat="46.026484515758504" lon="11.930711682013914"><ele>318.0</ele><time>2026-04-26T09:06:43Z</time></trkpt><trkpt lat="46.02644765485351" lon="11.93049574389518"><ele>318.0</ele><time>2026-04-26T09:06:44Z</time></trkpt><trkpt lat="46.02639750421035" lon="11.930244795385981"><ele>314.6666666666667</ele><time>2026-04-26T09:06:45Z</time></trkpt><trkpt lat="46.0263443788524" lon="11.930024570565196"><ele>311.33333333333337</ele><time>2026-04-26T09:06:46Z</time></trkpt><trkpt lat="46.026293208912726" lon="11.929811195274665"><ele>308.0</ele><time>2026-04-26T09:06:47Z</time></trkpt><trkpt lat="46.026242946465125" lon="11.929601286290177"><ele>308.0</ele><time>2026-04-26T09:06:48Z</time></trkpt><trkpt lat="46.026190930326095" lon="11.929405305281843"><ele>308.0</ele><time>2026-04-26T09:06:49Z</time></trkpt><trkpt lat="46.026137147457675" lon="11.929221603719586"><ele>308.0</ele><time>2026-04-26T09:06:50Z</time></trkpt><trkpt lat="46.0260799671762" lon="11.929039546439759"><ele>308.0</ele><time>2026-04-26T09:06:51Z</time></trkpt><trkpt lat="46.02601900604752" lon="11.928848794651438"><ele>307.5</ele><time>2026-04-26T09:06:52Z</time></trkpt><trkpt lat="46.02596360393376" lon="11.92867185356646"><ele>307.0</ele><time>2026-04-26T09:06:53Z</time></trkpt><trkpt lat="46.02590603479735" lon="11.92848700990262"><ele>306.5</ele><time>2026-04-26T09:06:54Z</time></trkpt><trkpt lat="46.02584737673334" lon="11.928298916885266"><ele>306.0</ele><time>2026-04-26T09:06:55Z</time></trkpt><trkpt lat="46.02579417948371" lon="11.928128638612893"><ele>306.0</ele><time>2026-04-26T09:06:56Z</time></trkpt><trkpt lat="46.02573944654688" lon="11.927953461897603"><ele>306.0</ele><time>2026-04-26T09:06:57Z</time></trkpt><trkpt lat="46.02568477216157" lon="11.927773580008559"><ele>306.0</ele><time>2026-04-26T09:06:58Z</time></trkpt><trkpt lat="46.02563063008721" lon="11.927602727752145"><ele>306.0</ele><time>2026-04-26T09:06:59Z</time></trkpt><trkpt lat="46.02557636055795" lon="11.927440504192836"><ele>305.25</ele><time>2026-04-26T09:07:00Z</time></trkpt><trkpt lat="46.02552652453423" lon="11.927266042840598"><ele>304.5</ele><time>2026-04-26T09:07:01Z</time></trkpt><trkpt lat="46.02547039007953" lon="11.927087832899861"><ele>303.75</ele><time>2026-04-26T09:07:02Z</time></trkpt><trkpt lat="46.02541466635323" lon="11.926902802091664"><ele>303.0</ele><time>2026-04-26T09:07:03Z</time></trkpt><trkpt lat="46.0253639837357" lon="11.926727973124905"><ele>302.0</ele><time>2026-04-26T09:07:04Z</time></trkpt><trkpt lat="46.025302748883114" lon="11.926551816005091"><ele>301.0</ele><time>2026-04-26T09:07:05Z</time></trkpt><trkpt lat="46.02523594447308" lon="11.926368501870227"><ele>300.0</ele><time>2026-04-26T09:07:06Z</time></trkpt><trkpt lat="46.025165395793586" lon="11.926194458948382"><ele>299.0</ele><time>2026-04-26T09:07:07Z</time></trkpt><trkpt lat="46.02510338559777" lon="11.926028738459028"><ele>299.25</ele><time>2026-04-26T09:07:08Z</time></trkpt><trkpt lat="46.0250415281486" lon="11.925879169851674"><ele>299.5</ele><time>2026-04-26T09:07:09Z</time></trkpt><trkpt lat="46.0249701854981" lon="11.925734121339213"><ele>299.75</ele><time>2026-04-26T09:07:10Z</time></trkpt><trkpt lat="46.02489793150834" lon="11.925571825065633"><ele>300.0</ele><time>2026-04-26T09:07:11Z</time></trkpt><trkpt lat="46.02483006328782" lon="11.925425127396702"><ele>300.0</ele><time>2026-04-26T09:07:12Z</time></trkpt><trkpt lat="46.02475803229057" lon="11.925280386642038"><ele>300.0</ele><time>2026-04-26T09:07:13Z</time></trkpt><trkpt lat="46.02467762386768" lon="11.92513263665246"><ele>300.0</ele><time>2026-04-26T09:07:14Z</time></trkpt><trkpt lat="46.024594011773345" lon="11.924985073317872"><ele>300.0</ele><time>2026-04-26T09:07:15Z</time></trkpt><trkpt lat="46.024514603686434" lon="11.92484773484687"><ele>299.25</ele><time>2026-04-26T09:07:16Z</time></trkpt><trkpt lat="46.02443207768312" lon="11.92471093667647"><ele>298.5</ele><time>2026-04-26T09:07:17Z</time></trkpt><trkpt lat="46.02435057070732" lon="11.924569432801585"><ele>297.75</ele><time>2026-04-26T09:07:18Z</time></trkpt><trkpt lat="46.024268868785356" lon="11.924426598068363"><ele>297.0</ele><time>2026-04-26T09:07:19Z</time></trkpt><trkpt lat="46.02418614669147" lon="11.924282054435672"><ele>297.0</ele><time>2026-04-26T09:07:20Z</time></trkpt><trkpt lat="46.02410382268347" lon="11.924139617529393"><ele>297.0</ele><time>2026-04-26T09:07:21Z</time></trkpt><trkpt lat="46.02402155725098" lon="11.92399483504432"><ele>297.0</ele><time>2026-04-26T09:07:22Z</time></trkpt><trkpt lat="46.023947375425365" lon="11.923854137756468"><ele>297.0</ele><time>2026-04-26T09:07:23Z</time></trkpt><trkpt lat="46.02387600709279" lon="11.923717440511084"><ele>297.0</ele><time>2026-04-26T09:07:24Z</time></trkpt><trkpt lat="46.023806938129454" lon="11.923575525988834"><ele>297.0</ele><time>2026-04-26T09:07:25Z</time></trkpt><trkpt lat="46.02374070979296" lon="11.923441620137673"><ele>297.0</ele><time>2026-04-26T09:07:26Z</time></trkpt><trkpt lat="46.02367024481337" lon="11.923295991127787"><ele>297.0</ele><time>2026-04-26T09:07:27Z</time></trkpt><trkpt lat="46.02359559546126" lon="11.923129818866547"><ele>296.75</ele><time>2026-04-26T09:07:28Z</time></trkpt><trkpt lat="46.023526149078364" lon="11.922958494870638"><ele>296.5</ele><time>2026-04-26T09:07:29Z</time></trkpt><trkpt lat="46.02345624340419" lon="11.92278319621313"><ele>296.25</ele><time>2026-04-26T09:07:30Z</time></trkpt><trkpt lat="46.02339833098787" lon="11.922625812465068"><ele>296.0</ele><time>2026-04-26T09:07:31Z</time></trkpt><trkpt lat="46.02334343492514" lon="11.922469502521034"><ele>295.40000000000003</ele><time>2026-04-26T09:07:32Z</time></trkpt><trkpt lat="46.02329148504313" lon="11.922316913017424"><ele>294.8</ele><time>2026-04-26T09:07:33Z</time></trkpt><trkpt lat="46.02324425567826" lon="11.9221743467241"><ele>294.20000000000005</ele><time>2026-04-26T09:07:34Z</time></trkpt><trkpt lat="46.0232051530937" lon="11.922031212391396"><ele>293.6</ele><time>2026-04-26T09:07:35Z</time></trkpt><trkpt lat="46.023170725583654" lon="11.921901327727422"><ele>293.0</ele><time>2026-04-26T09:07:36Z</time></trkpt><trkpt lat="46.02314966613903" lon="11.921784357401073"><ele>292.6666666666667</ele><time>2026-04-26T09:07:37Z</time></trkpt><trkpt lat="46.023134446833794" lon="11.921672906314521"><ele>292.33333333333337</ele><time>2026-04-26T09:07:38Z</time></trkpt><trkpt lat="46.02312932704234" lon="11.92155771678359"><ele>292.0</ele><time>2026-04-26T09:07:39Z</time></trkpt><trkpt lat="46.02313936651622" lon="11.921434619484028"><ele>291.6666666666667</ele><time>2026-04-26T09:07:40Z</time></trkpt><trkpt lat="46.02315929281753" lon="11.921306232791265"><ele>291.3333333333333</ele><time>2026-04-26T09:07:41Z</time></trkpt><trkpt lat="46.023148811977975" lon="11.921171860178108"><ele>291.0</ele><time>2026-04-26T09:07:42Z</time></trkpt><trkpt lat="46.02309900176584" lon="11.921036242418252"><ele>291.5</ele><time>2026-04-26T09:07:43Z</time></trkpt><trkpt lat="46.02305200753523" lon="11.920866586769051"><ele>292.0</ele><time>2026-04-26T09:07:44Z</time></trkpt><trkpt lat="46.02302943737913" lon="11.920681676686694"><ele>292.5</ele><time>2026-04-26T09:07:45Z</time></trkpt><trkpt lat="46.023021001863086" lon="11.920517482380518"><ele>293.0</ele><time>2026-04-26T09:07:46Z</time></trkpt><trkpt lat="46.02301222723233" lon="11.920371202259634"><ele>293.0</ele><time>2026-04-26T09:07:47Z</time></trkpt><trkpt lat="46.02299574065456" lon="11.920230265213286"><ele>293.0</ele><time>2026-04-26T09:07:48Z</time></trkpt><trkpt lat="46.02298197778989" lon="11.920075652819362"><ele>293.0</ele><time>2026-04-26T09:07:49Z</time></trkpt><trkpt lat="46.02297218432132" lon="11.919911652136863"><ele>293.0</ele><time>2026-04-26T09:07:50Z</time></trkpt><trkpt lat="46.022961721808855" lon="11.91973441941198"><ele>293.0</ele><time>2026-04-26T09:07:51Z</time></trkpt><trkpt lat="46.022954286031656" lon="11.919549348014026"><ele>293.25</ele><time>2026-04-26T09:07:52Z</time></trkpt><trkpt lat="46.02294749268443" lon="11.919354432849943"><ele>293.5</ele><time>2026-04-26T09:07:53Z</time></trkpt><trkpt lat="46.02293952229529" lon="11.919148270963323"><ele>293.75</ele><time>2026-04-26T09:07:54Z</time></trkpt><trkpt lat="46.02292911087653" lon="11.918936736094874"><ele>294.0</ele><time>2026-04-26T09:07:55Z</time></trkpt><trkpt lat="46.02291543951933" lon="11.918725413891476"><ele>293.0</ele><time>2026-04-26T09:07:56Z</time></trkpt><trkpt lat="46.02290572536179" lon="11.918496204018147"><ele>292.0</ele><time>2026-04-26T09:07:57Z</time></trkpt><trkpt lat="46.02289944464184" lon="11.918276775660331"><ele>291.0</ele><time>2026-04-26T09:07:58Z</time></trkpt><trkpt lat="46.02288813099222" lon="11.918067185147862"><ele>290.0</ele><time>2026-04-26T09:07:59Z</time></trkpt><trkpt lat="46.02287619945705" lon="11.917845739131447"><ele>289.0</ele><time>2026-04-26T09:08:00Z</time></trkpt><trkpt lat="46.022864344401" lon="11.917646727270347"><ele>288.0</ele><time>2026-04-26T09:08:01Z</time></trkpt><trkpt lat="46.02285853242375" lon="11.917456520240272"><ele>287.0</ele><time>2026-04-26T09:08:02Z</time></trkpt><trkpt lat="46.02284976117617" lon="11.917258765123243"><ele>286.75</ele><time>2026-04-26T09:08:02.999Z</time></trkpt><trkpt lat="46.02283699380976" lon="11.917048734468827"><ele>286.5</ele><time>2026-04-26T09:08:03.999Z</time></trkpt><trkpt lat="46.022827577901786" lon="11.91684621359744"><ele>286.25</ele><time>2026-04-26T09:08:04.999Z</time></trkpt><trkpt lat="46.02281871996187" lon="11.916645772938459"><ele>286.0</ele><time>2026-04-26T09:08:05.999Z</time></trkpt><trkpt lat="46.022811216329906" lon="11.916420327579692"><ele>285.0</ele><time>2026-04-26T09:08:06.999Z</time></trkpt><trkpt lat="46.02280319633182" lon="11.916176051305408"><ele>284.0</ele><time>2026-04-26T09:08:07.999Z</time></trkpt><trkpt lat="46.02279867243177" lon="11.915958125732823"><ele>283.0</ele><time>2026-04-26T09:08:08.999Z</time></trkpt><trkpt lat="46.02278587332728" lon="11.915757900902205"><ele>281.3333333333333</ele><time>2026-04-26T09:08:09.999Z</time></trkpt><trkpt lat="46.02277649894015" lon="11.91554368199282"><ele>279.6666666666667</ele><time>2026-04-26T09:08:10.999Z</time></trkpt><trkpt lat="46.022768124106456" lon="11.91531866519457"><ele>278.0</ele><time>2026-04-26T09:08:11.999Z</time></trkpt><trkpt lat="46.02275714660698" lon="11.915086222435598"><ele>277.0</ele><time>2026-04-26T09:08:12.999Z</time></trkpt><trkpt lat="46.022745303389094" lon="11.914841354498607"><ele>276.0</ele><time>2026-04-26T09:08:13.999Z</time></trkpt><trkpt lat="46.02273528831858" lon="11.914620586013704"><ele>275.0</ele><time>2026-04-26T09:08:14.999Z</time></trkpt><trkpt lat="46.02273128707602" lon="11.914409071100714"><ele>275.0</ele><time>2026-04-26T09:08:15.999Z</time></trkpt><trkpt lat="46.02271809703394" lon="11.914187671717572"><ele>275.0</ele><time>2026-04-26T09:08:16.999Z</time></trkpt><trkpt lat="46.02270683627373" lon="11.913954323226296"><ele>275.0</ele><time>2026-04-26T09:08:17.999Z</time></trkpt><trkpt lat="46.02269835038645" lon="11.913746510926243"><ele>275.0</ele><time>2026-04-26T09:08:18.999Z</time></trkpt><trkpt lat="46.02269226551534" lon="11.913554506152067"><ele>275.0</ele><time>2026-04-26T09:08:19.999Z</time></trkpt><trkpt lat="46.022683545399275" lon="11.91337050416479"><ele>275.0</ele><time>2026-04-26T09:08:20.999Z</time></trkpt><trkpt lat="46.02267536689309" lon="11.913200723022294"><ele>275.0</ele><time>2026-04-26T09:08:21.999Z</time></trkpt><trkpt lat="46.02266932365756" lon="11.913053913644879"><ele>275.0</ele><time>2026-04-26T09:08:22.999Z</time></trkpt><trkpt lat="46.0226650926314" lon="11.912916073437337"><ele>275.0</ele><time>2026-04-26T09:08:23.999Z</time></trkpt><trkpt lat="46.0226645568199" lon="11.912796810863687"><ele>275.0</ele><time>2026-04-26T09:08:24.999Z</time></trkpt><trkpt lat="46.02266838422409" lon="11.912687149824885"><ele>275.0</ele><time>2026-04-26T09:08:25.999Z</time></trkpt><trkpt lat="46.02268108735502" lon="11.912590253797031"><ele>275.0</ele><time>2026-04-26T09:08:26.999Z</time></trkpt><trkpt lat="46.02270074372144" lon="11.912498336439208"><ele>275.0</ele><time>2026-04-26T09:08:27.999Z</time></trkpt><trkpt lat="46.02270323141802" lon="11.91238269242659"><ele>275.4</ele><time>2026-04-26T09:08:28.999Z</time></trkpt><trkpt lat="46.022709188422816" lon="11.912245648617343"><ele>275.8</ele><time>2026-04-26T09:08:29.999Z</time></trkpt><trkpt lat="46.022647555052366" lon="11.91211570407526"><ele>276.2</ele><time>2026-04-26T09:08:30.999Z</time></trkpt><trkpt lat="46.02262636682714" lon="11.9120005414869"><ele>276.6</ele><time>2026-04-26T09:08:31.999Z</time></trkpt><trkpt lat="46.022618126557624" lon="11.91187857568017"><ele>277.0</ele><time>2026-04-26T09:08:32.999Z</time></trkpt><trkpt lat="46.02261406313971" lon="11.91174865879933"><ele>277.0</ele><time>2026-04-26T09:08:33.999Z</time></trkpt><trkpt lat="46.02260548629696" lon="11.911610182835178"><ele>277.0</ele><time>2026-04-26T09:08:34.999Z</time></trkpt><trkpt lat="46.02259429235118" lon="11.911446025486397"><ele>277.0</ele><time>2026-04-26T09:08:35.999Z</time></trkpt><trkpt lat="46.02257983569604" lon="11.91127942683829"><ele>277.0</ele><time>2026-04-26T09:08:36.999Z</time></trkpt><trkpt lat="46.02256185700471" lon="11.911114286926251"><ele>277.0</ele><time>2026-04-26T09:08:37.999Z</time></trkpt><trkpt lat="46.022542936915855" lon="11.910944359745372"><ele>277.0</ele><time>2026-04-26T09:08:38.999Z</time></trkpt><trkpt lat="46.022518192217134" lon="11.910770678370984"><ele>277.0</ele><time>2026-04-26T09:08:39.999Z</time></trkpt><trkpt lat="46.02248934275871" lon="11.910590646909451"><ele>277.0</ele><time>2026-04-26T09:08:40.999Z</time></trkpt><trkpt lat="46.022457233455455" lon="11.91042494221946"><ele>277.0</ele><time>2026-04-26T09:08:41.999Z</time></trkpt><trkpt lat="46.022428891822734" lon="11.910248041562246"><ele>276.5</ele><time>2026-04-26T09:08:42.999Z</time></trkpt><trkpt lat="46.02238405302421" lon="11.910065251916551"><ele>276.0</ele><time>2026-04-26T09:08:43.999Z</time></trkpt><trkpt lat="46.02234017381367" lon="11.909881880460725"><ele>275.5</ele><time>2026-04-26T09:08:44.999Z</time></trkpt><trkpt lat="46.022304147068496" lon="11.909713892715018"><ele>275.0</ele><time>2026-04-26T09:08:45.999Z</time></trkpt><trkpt lat="46.02226205770972" lon="11.909540365773408"><ele>275.0</ele><time>2026-04-26T09:08:47Z</time></trkpt><trkpt lat="46.02222127579782" lon="11.909357059658895"><ele>275.0</ele><time>2026-04-26T09:08:48Z</time></trkpt><trkpt lat="46.02217985384643" lon="11.909170296201012"><ele>275.0</ele><time>2026-04-26T09:08:49Z</time></trkpt><trkpt lat="46.02213681196736" lon="11.908980002600025"><ele>275.0</ele><time>2026-04-26T09:08:50Z</time></trkpt><trkpt lat="46.0220937019608" lon="11.908790676715865"><ele>274.75</ele><time>2026-04-26T09:08:51Z</time></trkpt><trkpt lat="46.022046445053604" lon="11.908596174574896"><ele>274.5</ele><time>2026-04-26T09:08:52Z</time></trkpt><trkpt lat="46.022001954445" lon="11.908389929086397"><ele>274.25</ele><time>2026-04-26T09:08:53Z</time></trkpt><trkpt lat="46.02196035665562" lon="11.908189062208294"><ele>274.0</ele><time>2026-04-26T09:08:54Z</time></trkpt><trkpt lat="46.021927409507555" lon="11.908002038393883"><ele>273.75</ele><time>2026-04-26T09:08:55Z</time></trkpt><trkpt lat="46.02189261388708" lon="11.907809889961596"><ele>273.5</ele><time>2026-04-26T09:08:56Z</time></trkpt><trkpt lat="46.021848581506354" lon="11.90761137303775"><ele>273.25</ele><time>2026-04-26T09:08:57Z</time></trkpt><trkpt lat="46.02180629093594" lon="11.907425406463592"><ele>273.0</ele><time>2026-04-26T09:08:58Z</time></trkpt><trkpt lat="46.02177035741137" lon="11.90722641673296"><ele>273.0</ele><time>2026-04-26T09:08:59Z</time></trkpt><trkpt lat="46.02173092451667" lon="11.90702673013828"><ele>273.0</ele><time>2026-04-26T09:09:00Z</time></trkpt><trkpt lat="46.02169579813069" lon="11.906837928088708"><ele>273.0</ele><time>2026-04-26T09:09:01Z</time></trkpt><trkpt lat="46.021666242198364" lon="11.906653975266915"><ele>273.0</ele><time>2026-04-26T09:09:02Z</time></trkpt><trkpt lat="46.021638638480376" lon="11.906450375773723"><ele>273.0</ele><time>2026-04-26T09:09:03Z</time></trkpt><trkpt lat="46.02161475435031" lon="11.906260601488341"><ele>273.0</ele><time>2026-04-26T09:09:04Z</time></trkpt><trkpt lat="46.021596893329104" lon="11.906087748766552"><ele>273.0</ele><time>2026-04-26T09:09:05Z</time></trkpt><trkpt lat="46.02158975340831" lon="11.905947169621447"><ele>273.0</ele><time>2026-04-26T09:09:06Z</time></trkpt><trkpt lat="46.0215800743094" lon="11.905843670337624"><ele>273.0</ele><time>2026-04-26T09:09:07Z</time></trkpt><trkpt lat="46.02154581643698" lon="11.905750555598482"><ele>273.0</ele><time>2026-04-26T09:09:09Z</time></trkpt><trkpt lat="46.0214516963584" lon="11.90574159702835"><ele>273.0</ele><time>2026-04-26T09:09:12Z</time></trkpt><trkpt lat="46.021473397452226" lon="11.9058842120402"><ele>273.0</ele><time>2026-04-26T09:09:13Z</time></trkpt><trkpt lat="46.02149819879149" lon="11.905972397585588"><ele>273.0</ele><time>2026-04-26T09:09:54Z</time></trkpt><trkpt lat="46.02154857405567" lon="11.906106405858377"><ele>273.0</ele><time>2026-04-26T09:12:33.999Z</time></trkpt><trkpt lat="46.02156584110137" lon="11.90619464234633"><ele>273.0</ele><time>2026-04-26T09:12:42.999Z</time></trkpt><trkpt lat="46.02162546601171" lon="11.905968196437573"><ele>273.1666666666667</ele><time>2026-04-26T09:12:48.999Z</time></trkpt><trkpt lat="46.02161325621334" lon="11.905852904471779"><ele>273.3333333333333</ele><time>2026-04-26T09:12:49.999Z</time></trkpt><trkpt lat="46.021600823506" lon="11.905708793619155"><ele>273.5</ele><time>2026-04-26T09:12:51.999Z</time></trkpt><trkpt lat="46.02159056475636" lon="11.905601641175666"><ele>273.66666666666663</ele><time>2026-04-26T09:12:53.999Z</time></trkpt><trkpt lat="46.02158343312052" lon="11.905485048565875"><ele>273.8333333333333</ele><time>2026-04-26T09:12:56.999Z</time></trkpt><trkpt lat="46.02158479900918" lon="11.905389265797869"><ele>274.0</ele><time>2026-04-26T09:12:59Z</time></trkpt><trkpt lat="46.02162348337458" lon="11.905241658289198"><ele>274.0</ele><time>2026-04-26T09:13:01Z</time></trkpt><trkpt lat="46.02166922770207" lon="11.905161246974576"><ele>274.0</ele><time>2026-04-26T09:13:02Z</time></trkpt><trkpt lat="46.02172917540288" lon="11.905085650168303"><ele>274.0</ele><time>2026-04-26T09:13:03Z</time></trkpt><trkpt lat="46.02182000849188" lon="11.905085434146814"><ele>274.0</ele><time>2026-04-26T09:13:04Z</time></trkpt><trkpt lat="46.02193809351903" lon="11.905055434595871"><ele>274.0</ele><time>2026-04-26T09:13:05Z</time></trkpt><trkpt lat="46.02208250916231" lon="11.904994497251966"><ele>274.0</ele><time>2026-04-26T09:13:06Z</time></trkpt><trkpt lat="46.02223289857209" lon="11.904963071363921"><ele>274.0</ele><time>2026-04-26T09:13:07Z</time></trkpt><trkpt lat="46.02234996243011" lon="11.904930155710495"><ele>274.0</ele><time>2026-04-26T09:13:08Z</time></trkpt><trkpt lat="46.02244024431288" lon="11.904904466303247"><ele>274.0</ele><time>2026-04-26T09:13:09Z</time></trkpt><trkpt lat="46.022521606807125" lon="11.90490330634305"><ele>274.0</ele><time>2026-04-26T09:13:10Z</time></trkpt><trkpt lat="46.0225847638957" lon="11.904990194507526"><ele>274.75</ele><time>2026-04-26T09:13:11Z</time></trkpt><trkpt lat="46.022687929534705" lon="11.905030578177263"><ele>275.5</ele><time>2026-04-26T09:13:12Z</time></trkpt><trkpt lat="46.02278995227962" lon="11.905083403509124"><ele>276.25</ele><time>2026-04-26T09:13:13Z</time></trkpt><trkpt lat="46.02289446354902" lon="11.905094292558163"><ele>277.0</ele><time>2026-04-26T09:13:14Z</time></trkpt><trkpt lat="46.023025049674544" lon="11.905060003128826"><ele>277.5</ele><time>2026-04-26T09:13:15Z</time></trkpt><trkpt lat="46.02316920754596" lon="11.905000863637028"><ele>278.0</ele><time>2026-04-26T09:13:16Z</time></trkpt><trkpt lat="46.023311828640395" lon="11.904980518080151"><ele>278.5</ele><time>2026-04-26T09:13:17Z</time></trkpt><trkpt lat="46.02345384185909" lon="11.904940380092373"><ele>279.0</ele><time>2026-04-26T09:13:18Z</time></trkpt><trkpt lat="46.02358133153098" lon="11.904904067648145"><ele>279.0</ele><time>2026-04-26T09:13:19Z</time></trkpt><trkpt lat="46.023706828451104" lon="11.90486832278634"><ele>279.0</ele><time>2026-04-26T09:13:20Z</time></trkpt><trkpt lat="46.02383698918962" lon="11.904831249575224"><ele>279.0</ele><time>2026-04-26T09:13:21Z</time></trkpt><trkpt lat="46.02396898100797" lon="11.90479365479849"><ele>279.0</ele><time>2026-04-26T09:13:22Z</time></trkpt><trkpt lat="46.024107622886824" lon="11.904754165912694"><ele>280.0</ele><time>2026-04-26T09:13:23Z</time></trkpt><trkpt lat="46.024238159782406" lon="11.904693055848423"><ele>281.0</ele><time>2026-04-26T09:13:24Z</time></trkpt><trkpt lat="46.02435721872835" lon="11.904683074406641"><ele>282.0</ele><time>2026-04-26T09:13:25Z</time></trkpt><trkpt lat="46.02446865602045" lon="11.904651334132629"><ele>283.0</ele><time>2026-04-26T09:13:26Z</time></trkpt><trkpt lat="46.02457355094211" lon="11.904598023033941"><ele>283.0</ele><time>2026-04-26T09:13:27Z</time></trkpt><trkpt lat="46.02468227223066" lon="11.904590025692507"><ele>283.0</ele><time>2026-04-26T09:13:28Z</time></trkpt><trkpt lat="46.02478654725146" lon="11.90455992909267"><ele>283.0</ele><time>2026-04-26T09:13:29Z</time></trkpt><trkpt lat="46.02488151811304" lon="11.90452046754457"><ele>283.0</ele><time>2026-04-26T09:13:30Z</time></trkpt><trkpt lat="46.024969778935244" lon="11.904486555185759"><ele>283.0</ele><time>2026-04-26T09:13:31Z</time></trkpt><trkpt lat="46.02505049710551" lon="11.904472015836658"><ele>283.3333333333333</ele><time>2026-04-26T09:13:32Z</time></trkpt><trkpt lat="46.02514692009056" lon="11.904479262558905"><ele>283.66666666666663</ele><time>2026-04-26T09:13:33Z</time></trkpt><trkpt lat="46.02522278763761" lon="11.904496794811214"><ele>284.0</ele><time>2026-04-26T09:13:34Z</time></trkpt><trkpt lat="46.025282939339355" lon="11.904535293619524"><ele>284.3333333333333</ele><time>2026-04-26T09:13:35Z</time></trkpt><trkpt lat="46.02535135018288" lon="11.90457035219838"><ele>284.6666666666667</ele><time>2026-04-26T09:13:36Z</time></trkpt><trkpt lat="46.025437701556214" lon="11.904602391902332"><ele>285.0</ele><time>2026-04-26T09:13:37Z</time></trkpt><trkpt lat="46.02552484313315" lon="11.904552362792371"><ele>285.0</ele><time>2026-04-26T09:13:38Z</time></trkpt><trkpt lat="46.02558870554433" lon="11.904555500429435"><ele>285.0</ele><time>2026-04-26T09:13:39Z</time></trkpt><trkpt lat="46.025706466970504" lon="11.904589975890815"><ele>285.0</ele><time>2026-04-26T09:13:41Z</time></trkpt><trkpt lat="46.02575562217661" lon="11.904669571414438"><ele>285.0</ele><time>2026-04-26T09:13:42Z</time></trkpt><trkpt lat="46.02588856934954" lon="11.904626483100975"><ele>285.0</ele><time>2026-04-26T09:13:44Z</time></trkpt><trkpt lat="46.02595529074734" lon="11.904553935754578"><ele>284.2</ele><time>2026-04-26T09:13:45Z</time></trkpt><trkpt lat="46.02601339604484" lon="11.904490987609536"><ele>283.4</ele><time>2026-04-26T09:13:46Z</time></trkpt><trkpt lat="46.02610097571453" lon="11.90439966230766"><ele>282.6</ele><time>2026-04-26T09:13:48Z</time></trkpt><trkpt lat="46.026029469243966" lon="11.904201117777212"><ele>281.8</ele><time>2026-04-26T09:13:51Z</time></trkpt><trkpt lat="46.025969936437946" lon="11.904121339874493"><ele>281.0</ele><time>2026-04-26T09:13:53Z</time></trkpt><trkpt lat="46.02607922660767" lon="11.903955224834593"><ele>281.0</ele><time>2026-04-26T09:13:55.999Z</time></trkpt><trkpt lat="46.026120263165275" lon="11.903848421250203"><ele>281.0</ele><time>2026-04-26T09:13:56.999Z</time></trkpt><trkpt lat="46.02615221988603" lon="11.903761084723577"><ele>281.0</ele><time>2026-04-26T09:13:57.999Z</time></trkpt><trkpt lat="46.02619667363666" lon="11.903620219237784"><ele>281.0</ele><time>2026-04-26T09:13:59.999Z</time></trkpt><trkpt lat="46.02622699873365" lon="11.903516967911855"><ele>281.0</ele><time>2026-04-26T09:14:02.999Z</time></trkpt></trkseg></trk></gpx>